<?xml version='1.0' encoding='UTF-8'?><gpx version="1.1" creator="JPX - https://github.com/jenetics/jpx" xmlns="http://www.topografix.com/GPX/1/1"><trk><trkseg><trkpt lat="43.1629033" lon="12.2805333"><ele>251.0</ele><time>2026-03-29T07:08:53.321Z</time></trkpt><trkpt lat="43.1629783" lon="12.2803983"><ele>251.0</ele><time>2026-03-29T07:08:54.322Z</time></trkpt><trkpt lat="43.1630517" lon="12.2802583"><ele>251.0</ele><time>2026-03-29T07:08:55.321Z</time></trkpt><trkpt lat="43.1631233" lon="12.2801167"><ele>251.0</ele><time>2026-03-29T07:08:56.325Z</time></trkpt><trkpt lat="43.1631967" lon="12.2799783"><ele>251.25</ele><time>2026-03-29T07:08:57.32Z</time></trkpt><trkpt lat="43.1632717" lon="12.279845"><ele>251.5</ele><time>2026-03-29T07:08:58.327Z</time></trkpt><trkpt lat="43.1633517" lon="12.2797183"><ele>251.75</ele><time>2026-03-29T07:08:59.322Z</time></trkpt><trkpt lat="43.163435" lon="12.279605"><ele>252.0</ele><time>2026-03-29T07:09:00.322Z</time></trkpt><trkpt lat="43.16352" lon="12.279505"><ele>252.0</ele><time>2026-03-29T07:09:01.324Z</time></trkpt><trkpt lat="43.1636133" lon="12.2794167"><ele>252.0</ele><time>2026-03-29T07:09:02.323Z</time></trkpt><trkpt lat="43.1637083" lon="12.2793583"><ele>252.0</ele><time>2026-03-29T07:09:03.322Z</time></trkpt><trkpt lat="43.1638067" lon="12.2793183"><ele>252.0</ele><time>2026-03-29T07:09:04.322Z</time></trkpt><trkpt lat="43.1638967" lon="12.279285"><ele>252.0</ele><time>2026-03-29T07:09:05.322Z</time></trkpt><trkpt lat="43.1639717" lon="12.2792617"><ele>252.39999999999998</ele><time>2026-03-29T07:09:06.325Z</time></trkpt><trkpt lat="43.16407" lon="12.2792283"><ele>252.79999999999998</ele><time>2026-03-29T07:09:08.32Z</time></trkpt><trkpt lat="43.1641333" lon="12.2791883"><ele>253.2</ele><time>2026-03-29T07:09:10.322Z</time></trkpt><trkpt lat="43.1642233" lon="12.2791533"><ele>253.6</ele><time>2026-03-29T07:09:13.322Z</time></trkpt><trkpt lat="43.164335" lon="12.2791583"><ele>254.0</ele><time>2026-03-29T07:09:15.328Z</time></trkpt><trkpt lat="43.16441" lon="12.2791533"><ele>254.0</ele><time>2026-03-29T07:09:16.321Z</time></trkpt><trkpt lat="43.1644967" lon="12.2791433"><ele>253.99999999999997</ele><time>2026-03-29T07:09:17.321Z</time></trkpt><trkpt lat="43.1645967" lon="12.2791333"><ele>253.99999999999997</ele><time>2026-03-29T07:09:18.324Z</time></trkpt><trkpt lat="43.1647017" lon="12.2791217"><ele>254.0</ele><time>2026-03-29T07:09:19.321Z</time></trkpt><trkpt lat="43.1648083" lon="12.27911"><ele>254.0</ele><time>2026-03-29T07:09:20.321Z</time></trkpt><trkpt lat="43.1649183" lon="12.2791"><ele>254.0</ele><time>2026-03-29T07:09:21.321Z</time></trkpt><trkpt lat="43.1650317" lon="12.27908"><ele>254.0</ele><time>2026-03-29T07:09:22.322Z</time></trkpt><trkpt lat="43.1651417" lon="12.2790467"><ele>254.0</ele><time>2026-03-29T07:09:23.321Z</time></trkpt><trkpt lat="43.1652483" lon="12.2789867"><ele>254.0</ele><time>2026-03-29T07:09:24.324Z</time></trkpt><trkpt lat="43.16535" lon="12.278915"><ele>253.79999999999998</ele><time>2026-03-29T07:09:25.322Z</time></trkpt><trkpt lat="43.1654483" lon="12.2788383"><ele>253.59999999999997</ele><time>2026-03-29T07:09:26.321Z</time></trkpt><trkpt lat="43.1655483" lon="12.2787717"><ele>253.4</ele><time>2026-03-29T07:09:27.322Z</time></trkpt><trkpt lat="43.16565" lon="12.278725"><ele>253.2</ele><time>2026-03-29T07:09:28.323Z</time></trkpt><trkpt lat="43.1657467" lon="12.27869"><ele>253.0</ele><time>2026-03-29T07:09:29.325Z</time></trkpt><trkpt lat="43.165845" lon="12.2786633"><ele>254.0</ele><time>2026-03-29T07:09:30.322Z</time></trkpt><trkpt lat="43.1659417" lon="12.2786433"><ele>255.0</ele><time>2026-03-29T07:09:31.321Z</time></trkpt><trkpt lat="43.1660383" lon="12.2786283"><ele>256.0</ele><time>2026-03-29T07:09:32.32Z</time></trkpt><trkpt lat="43.1661367" lon="12.278615"><ele>257.0</ele><time>2026-03-29T07:09:33.326Z</time></trkpt><trkpt lat="43.16624" lon="12.2785983"><ele>258.0</ele><time>2026-03-29T07:09:34.325Z</time></trkpt><trkpt lat="43.1663467" lon="12.2785833"><ele>258.0</ele><time>2026-03-29T07:09:35.322Z</time></trkpt><trkpt lat="43.166455" lon="12.2785667"><ele>258.0</ele><time>2026-03-29T07:09:36.322Z</time></trkpt><trkpt lat="43.1665617" lon="12.27855"><ele>258.0</ele><time>2026-03-29T07:09:37.322Z</time></trkpt><trkpt lat="43.16667" lon="12.278525"><ele>258.0</ele><time>2026-03-29T07:09:38.325Z</time></trkpt><trkpt lat="43.166775" lon="12.2784867"><ele>258.0</ele><time>2026-03-29T07:09:39.324Z</time></trkpt><trkpt lat="43.1668733" lon="12.2784433"><ele>259.0</ele><time>2026-03-29T07:09:40.324Z</time></trkpt><trkpt lat="43.16696" lon="12.2784033"><ele>260.0</ele><time>2026-03-29T07:09:41.322Z</time></trkpt><trkpt lat="43.167045" lon="12.2783867"><ele>261.0</ele><time>2026-03-29T07:09:42.323Z</time></trkpt><trkpt lat="43.1671267" lon="12.278395"><ele>262.0</ele><time>2026-03-29T07:09:43.325Z</time></trkpt><trkpt lat="43.1672067" lon="12.2784267"><ele>263.0</ele><time>2026-03-29T07:09:44.325Z</time></trkpt><trkpt lat="43.1672867" lon="12.278475"><ele>264.0</ele><time>2026-03-29T07:09:45.322Z</time></trkpt><trkpt lat="43.1673667" lon="12.2785383"><ele>266.0</ele><time>2026-03-29T07:09:46.321Z</time></trkpt><trkpt lat="43.1674483" lon="12.2785967"><ele>268.0</ele><time>2026-03-29T07:09:47.321Z</time></trkpt><trkpt lat="43.1675333" lon="12.2786467"><ele>270.0</ele><time>2026-03-29T07:09:48.322Z</time></trkpt><trkpt lat="43.16762" lon="12.2786967"><ele>272.0</ele><time>2026-03-29T07:09:49.321Z</time></trkpt><trkpt lat="43.1677" lon="12.278745"><ele>274.0</ele><time>2026-03-29T07:09:50.322Z</time></trkpt><trkpt lat="43.1677667" lon="12.2787767"><ele>276.0</ele><time>2026-03-29T07:09:51.322Z</time></trkpt><trkpt lat="43.1678317" lon="12.2788"><ele>276.0</ele><time>2026-03-29T07:09:53.323Z</time></trkpt><trkpt lat="43.1677933" lon="12.2786567"><ele>276.0</ele><time>2026-03-29T07:09:56.322Z</time></trkpt><trkpt lat="43.1677633" lon="12.2785667"><ele>276.0</ele><time>2026-03-29T07:09:57.323Z</time></trkpt><trkpt lat="43.1677367" lon="12.2784717"><ele>276.0</ele><time>2026-03-29T07:09:58.321Z</time></trkpt><trkpt lat="43.1677083" lon="12.2783683"><ele>276.0</ele><time>2026-03-29T07:09:59.324Z</time></trkpt><trkpt lat="43.1676717" lon="12.2782533"><ele>276.0</ele><time>2026-03-29T07:10:00.325Z</time></trkpt><trkpt lat="43.1676267" lon="12.278135"><ele>279.0</ele><time>2026-03-29T07:10:01.325Z</time></trkpt><trkpt lat="43.1675867" lon="12.2780167"><ele>282.0</ele><time>2026-03-29T07:10:02.324Z</time></trkpt><trkpt lat="43.16755" lon="12.277895"><ele>285.0</ele><time>2026-03-29T07:10:03.322Z</time></trkpt><trkpt lat="43.16752" lon="12.27777"><ele>288.0</ele><time>2026-03-29T07:10:04.324Z</time></trkpt><trkpt lat="43.167485" lon="12.27764"><ele>291.0</ele><time>2026-03-29T07:10:05.322Z</time></trkpt><trkpt lat="43.167445" lon="12.27751"><ele>291.0</ele><time>2026-03-29T07:10:06.324Z</time></trkpt><trkpt lat="43.1673917" lon="12.277385"><ele>291.0</ele><time>2026-03-29T07:10:07.323Z</time></trkpt><trkpt lat="43.1673367" lon="12.27726"><ele>291.0</ele><time>2026-03-29T07:10:08.323Z</time></trkpt><trkpt lat="43.1672817" lon="12.2771333"><ele>291.0</ele><time>2026-03-29T07:10:09.321Z</time></trkpt><trkpt lat="43.16723" lon="12.2770017"><ele>291.0</ele><time>2026-03-29T07:10:10.323Z</time></trkpt><trkpt lat="43.16718" lon="12.276865"><ele>291.40000000000003</ele><time>2026-03-29T07:10:11.323Z</time></trkpt><trkpt lat="43.1671333" lon="12.2767233"><ele>291.8</ele><time>2026-03-29T07:10:12.326Z</time></trkpt><trkpt lat="43.16709" lon="12.2765833"><ele>292.20000000000005</ele><time>2026-03-29T07:10:13.325Z</time></trkpt><trkpt lat="43.1670517" lon="12.2764433"><ele>292.6</ele><time>2026-03-29T07:10:14.326Z</time></trkpt><trkpt lat="43.1670217" lon="12.2763117"><ele>293.0</ele><time>2026-03-29T07:10:15.323Z</time></trkpt><trkpt lat="43.166995" lon="12.2761933"><ele>293.0</ele><time>2026-03-29T07:10:16.323Z</time></trkpt><trkpt lat="43.16698" lon="12.2760867"><ele>293.0</ele><time>2026-03-29T07:10:17.324Z</time></trkpt><trkpt lat="43.1669783" lon="12.2759783"><ele>293.0</ele><time>2026-03-29T07:10:18.324Z</time></trkpt><trkpt lat="43.1670483" lon="12.2758933"><ele>293.0</ele><time>2026-03-29T07:10:20.321Z</time></trkpt><trkpt lat="43.1671133" lon="12.2759217"><ele>293.0</ele><time>2026-03-29T07:10:21.324Z</time></trkpt><trkpt lat="43.1671783" lon="12.2759733"><ele>293.0</ele><time>2026-03-29T07:10:22.322Z</time></trkpt><trkpt lat="43.1672433" lon="12.2760517"><ele>293.0</ele><time>2026-03-29T07:10:23.324Z</time></trkpt><trkpt lat="43.16731" lon="12.276145"><ele>293.0</ele><time>2026-03-29T07:10:24.323Z</time></trkpt><trkpt lat="43.167375" lon="12.2762417"><ele>293.0</ele><time>2026-03-29T07:10:25.322Z</time></trkpt><trkpt lat="43.1674317" lon="12.2763267"><ele>293.0</ele><time>2026-03-29T07:10:26.325Z</time></trkpt><trkpt lat="43.1674767" lon="12.2763883"><ele>293.0</ele><time>2026-03-29T07:10:27.323Z</time></trkpt><trkpt lat="43.1675483" lon="12.2764583"><ele>293.0</ele><time>2026-03-29T07:10:29.322Z</time></trkpt><trkpt lat="43.16758" lon="12.2765817"><ele>294.83333333333337</ele><time>2026-03-29T07:10:31.323Z</time></trkpt><trkpt lat="43.1675867" lon="12.2766733"><ele>296.6666666666667</ele><time>2026-03-29T07:10:32.326Z</time></trkpt><trkpt lat="43.167605" lon="12.2767717"><ele>298.5</ele><time>2026-03-29T07:10:33.327Z</time></trkpt><trkpt lat="43.1676417" lon="12.2768683"><ele>300.3333333333333</ele><time>2026-03-29T07:10:34.328Z</time></trkpt><trkpt lat="43.167695" lon="12.2769633"><ele>302.16666666666663</ele><time>2026-03-29T07:10:35.323Z</time></trkpt><trkpt lat="43.1677617" lon="12.27705"><ele>304.0</ele><time>2026-03-29T07:10:36.323Z</time></trkpt><trkpt lat="43.1678283" lon="12.277125"><ele>304.0</ele><time>2026-03-29T07:10:37.321Z</time></trkpt><trkpt lat="43.1679017" lon="12.277185"><ele>304.0</ele><time>2026-03-29T07:10:38.323Z</time></trkpt><trkpt lat="43.167975" lon="12.277235"><ele>304.0</ele><time>2026-03-29T07:10:39.322Z</time></trkpt><trkpt lat="43.16805" lon="12.2772867"><ele>304.0</ele><time>2026-03-29T07:10:40.321Z</time></trkpt><trkpt lat="43.1681267" lon="12.2773333"><ele>304.0</ele><time>2026-03-29T07:10:41.321Z</time></trkpt><trkpt lat="43.168195" lon="12.2773833"><ele>304.0</ele><time>2026-03-29T07:10:42.322Z</time></trkpt><trkpt lat="43.1682617" lon="12.27742"><ele>304.1428571428571</ele><time>2026-03-29T07:10:43.325Z</time></trkpt><trkpt lat="43.1683233" lon="12.2774417"><ele>304.28571428571433</ele><time>2026-03-29T07:10:44.326Z</time></trkpt><trkpt lat="43.16839" lon="12.2774417"><ele>304.42857142857144</ele><time>2026-03-29T07:10:45.321Z</time></trkpt><trkpt lat="43.1684583" lon="12.2774267"><ele>304.57142857142856</ele><time>2026-03-29T07:10:46.321Z</time></trkpt><trkpt lat="43.1685233" lon="12.2774"><ele>304.71428571428567</ele><time>2026-03-29T07:10:47.32Z</time></trkpt><trkpt lat="43.1685867" lon="12.2773817"><ele>304.8571428571429</ele><time>2026-03-29T07:10:48.324Z</time></trkpt><trkpt lat="43.1686533" lon="12.2773683"><ele>305.0</ele><time>2026-03-29T07:10:49.323Z</time></trkpt><trkpt lat="43.1687183" lon="12.2773583"><ele>305.0</ele><time>2026-03-29T07:10:50.325Z</time></trkpt><trkpt lat="43.1687817" lon="12.27734"><ele>305.0</ele><time>2026-03-29T07:10:51.323Z</time></trkpt><trkpt lat="43.16889" lon="12.2772917"><ele>305.0</ele><time>2026-03-29T07:10:53.324Z</time></trkpt><trkpt lat="43.1690117" lon="12.277265"><ele>305.0</ele><time>2026-03-29T07:10:55.321Z</time></trkpt><trkpt lat="43.1690717" lon="12.2773017"><ele>305.0</ele><time>2026-03-29T07:10:56.324Z</time></trkpt><trkpt lat="43.1691367" lon="12.2773567"><ele>305.0</ele><time>2026-03-29T07:10:57.324Z</time></trkpt><trkpt lat="43.169205" lon="12.2773917"><ele>306.1666666666667</ele><time>2026-03-29T07:10:58.32Z</time></trkpt><trkpt lat="43.1692717" lon="12.277415"><ele>307.33333333333337</ele><time>2026-03-29T07:10:59.321Z</time></trkpt><trkpt lat="43.169335" lon="12.2774217"><ele>308.5</ele><time>2026-03-29T07:11:00.321Z</time></trkpt><trkpt lat="43.1694467" lon="12.2774233"><ele>309.6666666666667</ele><time>2026-03-29T07:11:02.32Z</time></trkpt><trkpt lat="43.16951" lon="12.2773983"><ele>310.8333333333333</ele><time>2026-03-29T07:11:03.321Z</time></trkpt><trkpt lat="43.169575" lon="12.277365"><ele>312.0</ele><time>2026-03-29T07:11:04.32Z</time></trkpt><trkpt lat="43.169645" lon="12.2773333"><ele>312.0</ele><time>2026-03-29T07:11:05.321Z</time></trkpt><trkpt lat="43.169715" lon="12.27731"><ele>312.0</ele><time>2026-03-29T07:11:06.321Z</time></trkpt><trkpt lat="43.1697883" lon="12.2772833"><ele>312.0</ele><time>2026-03-29T07:11:07.321Z</time></trkpt><trkpt lat="43.16986" lon="12.277255"><ele>312.0</ele><time>2026-03-29T07:11:08.322Z</time></trkpt><trkpt lat="43.169925" lon="12.2772283"><ele>312.0</ele><time>2026-03-29T07:11:09.326Z</time></trkpt><trkpt lat="43.1699867" lon="12.2772033"><ele>312.0</ele><time>2026-03-29T07:11:10.326Z</time></trkpt><trkpt lat="43.17005" lon="12.2771717"><ele>312.0</ele><time>2026-03-29T07:11:11.32Z</time></trkpt><trkpt lat="43.1701183" lon="12.2771133"><ele>316.7142857142857</ele><time>2026-03-29T07:11:12.324Z</time></trkpt><trkpt lat="43.170185" lon="12.277055"><ele>321.4285714285714</ele><time>2026-03-29T07:11:13.321Z</time></trkpt><trkpt lat="43.170245" lon="12.2770033"><ele>326.1428571428571</ele><time>2026-03-29T07:11:14.32Z</time></trkpt><trkpt lat="43.1703017" lon="12.27695"><ele>330.8571428571429</ele><time>2026-03-29T07:11:15.322Z</time></trkpt><trkpt lat="43.1703667" lon="12.2769083"><ele>335.57142857142856</ele><time>2026-03-29T07:11:16.324Z</time></trkpt><trkpt lat="43.17044" lon="12.2768833"><ele>340.2857142857143</ele><time>2026-03-29T07:11:17.322Z</time></trkpt><trkpt lat="43.170505" lon="12.276845"><ele>345.0</ele><time>2026-03-29T07:11:18.325Z</time></trkpt><trkpt lat="43.17058" lon="12.2767267"><ele>345.0</ele><time>2026-03-29T07:11:20.322Z</time></trkpt><trkpt lat="43.1706117" lon="12.276585"><ele>345.0</ele><time>2026-03-29T07:11:22.322Z</time></trkpt><trkpt lat="43.1706417" lon="12.27645"><ele>345.0</ele><time>2026-03-29T07:11:24.326Z</time></trkpt><trkpt lat="43.1706533" lon="12.2763217"><ele>345.0</ele><time>2026-03-29T07:11:26.327Z</time></trkpt><trkpt lat="43.1706817" lon="12.27624"><ele>345.0</ele><time>2026-03-29T07:11:28.324Z</time></trkpt><trkpt lat="43.1707633" lon="12.2762033"><ele>348.5</ele><time>2026-03-29T07:11:30.324Z</time></trkpt><trkpt lat="43.1707983" lon="12.2760733"><ele>352.0</ele><time>2026-03-29T07:11:32.322Z</time></trkpt><trkpt lat="43.1708083" lon="12.2759717"><ele>355.5</ele><time>2026-03-29T07:11:33.323Z</time></trkpt><trkpt lat="43.1708217" lon="12.2758683"><ele>359.0</ele><time>2026-03-29T07:11:34.323Z</time></trkpt><trkpt lat="43.1708383" lon="12.2757683"><ele>362.5</ele><time>2026-03-29T07:11:35.321Z</time></trkpt><trkpt lat="43.1708517" lon="12.2756783"><ele>366.0</ele><time>2026-03-29T07:11:36.321Z</time></trkpt><trkpt lat="43.1708833" lon="12.2755817"><ele>367.5</ele><time>2026-03-29T07:11:38.327Z</time></trkpt><trkpt lat="43.1709833" lon="12.2755633"><ele>369.0</ele><time>2026-03-29T07:11:42.321Z</time></trkpt><trkpt lat="43.17105" lon="12.2755667"><ele>370.5</ele><time>2026-03-29T07:11:43.323Z</time></trkpt><trkpt lat="43.1711283" lon="12.2755833"><ele>372.0</ele><time>2026-03-29T07:11:44.324Z</time></trkpt><trkpt lat="43.1712117" lon="12.2755933"><ele>373.5</ele><time>2026-03-29T07:11:45.323Z</time></trkpt><trkpt lat="43.1712833" lon="12.2755767"><ele>375.0</ele><time>2026-03-29T07:11:46.327Z</time></trkpt><trkpt lat="43.1713583" lon="12.275485"><ele>375.0</ele><time>2026-03-29T07:11:48.324Z</time></trkpt><trkpt lat="43.17133" lon="12.275345"><ele>375.0</ele><time>2026-03-29T07:11:50.325Z</time></trkpt><trkpt lat="43.171305" lon="12.2752017"><ele>375.0</ele><time>2026-03-29T07:11:52.321Z</time></trkpt><trkpt lat="43.17137" lon="12.2751217"><ele>375.0</ele><time>2026-03-29T07:11:54.32Z</time></trkpt><trkpt lat="43.171495" lon="12.2751417"><ele>375.0</ele><time>2026-03-29T07:11:56.323Z</time></trkpt><trkpt lat="43.1715633" lon="12.275145"><ele>377.1666666666667</ele><time>2026-03-29T07:11:57.321Z</time></trkpt><trkpt lat="43.171675" lon="12.2750833"><ele>379.33333333333337</ele><time>2026-03-29T07:11:59.323Z</time></trkpt><trkpt lat="43.171735" lon="12.2750433"><ele>381.5</ele><time>2026-03-29T07:12:00.321Z</time></trkpt><trkpt lat="43.1718017" lon="12.2750133"><ele>383.6666666666667</ele><time>2026-03-29T07:12:01.323Z</time></trkpt><trkpt lat="43.1718683" lon="12.2749783"><ele>385.83333333333337</ele><time>2026-03-29T07:12:02.323Z</time></trkpt><trkpt lat="43.1719367" lon="12.2749383"><ele>388.0</ele><time>2026-03-29T07:12:03.329Z</time></trkpt><trkpt lat="43.1720033" lon="12.2748867"><ele>388.0</ele><time>2026-03-29T07:12:04.324Z</time></trkpt><trkpt lat="43.1720717" lon="12.27482"><ele>388.0</ele><time>2026-03-29T07:12:05.322Z</time></trkpt><trkpt lat="43.17214" lon="12.27474"><ele>388.0</ele><time>2026-03-29T07:12:06.321Z</time></trkpt><trkpt lat="43.1722083" lon="12.27465"><ele>388.0</ele><time>2026-03-29T07:12:07.323Z</time></trkpt><trkpt lat="43.1722767" lon="12.27456"><ele>388.0</ele><time>2026-03-29T07:12:08.324Z</time></trkpt><trkpt lat="43.1723433" lon="12.2744667"><ele>391.1666666666667</ele><time>2026-03-29T07:12:09.326Z</time></trkpt><trkpt lat="43.17241" lon="12.27437"><ele>394.33333333333337</ele><time>2026-03-29T07:12:10.323Z</time></trkpt><trkpt lat="43.172475" lon="12.2742883"><ele>397.5</ele><time>2026-03-29T07:12:11.324Z</time></trkpt><trkpt lat="43.1725367" lon="12.2742117"><ele>400.66666666666663</ele><time>2026-03-29T07:12:12.324Z</time></trkpt><trkpt lat="43.1726033" lon="12.2741367"><ele>403.8333333333333</ele><time>2026-03-29T07:12:13.324Z</time></trkpt><trkpt lat="43.1726683" lon="12.2740667"><ele>407.0</ele><time>2026-03-29T07:12:14.322Z</time></trkpt><trkpt lat="43.1727367" lon="12.2739933"><ele>407.6</ele><time>2026-03-29T07:12:15.319Z</time></trkpt><trkpt lat="43.1728083" lon="12.273915"><ele>408.20000000000005</ele><time>2026-03-29T07:12:16.322Z</time></trkpt><trkpt lat="43.17288" lon="12.2738417"><ele>408.8</ele><time>2026-03-29T07:12:17.324Z</time></trkpt><trkpt lat="43.1729567" lon="12.2737783"><ele>409.4</ele><time>2026-03-29T07:12:18.328Z</time></trkpt><trkpt lat="43.173035" lon="12.2736967"><ele>410.0</ele><time>2026-03-29T07:12:19.321Z</time></trkpt><trkpt lat="43.1731017" lon="12.2736133"><ele>409.99999999999994</ele><time>2026-03-29T07:12:20.325Z</time></trkpt><trkpt lat="43.1731617" lon="12.27353"><ele>410.0</ele><time>2026-03-29T07:12:21.324Z</time></trkpt><trkpt lat="43.1732333" lon="12.2734667"><ele>410.0</ele><time>2026-03-29T07:12:22.323Z</time></trkpt><trkpt lat="43.1733017" lon="12.2734233"><ele>410.0</ele><time>2026-03-29T07:12:23.322Z</time></trkpt><trkpt lat="43.1733667" lon="12.2733717"><ele>409.99999999999994</ele><time>2026-03-29T07:12:24.326Z</time></trkpt><trkpt lat="43.1734267" lon="12.2733133"><ele>410.0</ele><time>2026-03-29T07:12:25.322Z</time></trkpt><trkpt lat="43.173485" lon="12.2732467"><ele>411.3333333333333</ele><time>2026-03-29T07:12:26.323Z</time></trkpt><trkpt lat="43.1735483" lon="12.2731767"><ele>412.66666666666663</ele><time>2026-03-29T07:12:27.322Z</time></trkpt><trkpt lat="43.1736217" lon="12.2731183"><ele>414.0</ele><time>2026-03-29T07:12:28.322Z</time></trkpt><trkpt lat="43.1736867" lon="12.2730633"><ele>415.33333333333337</ele><time>2026-03-29T07:12:29.321Z</time></trkpt><trkpt lat="43.173745" lon="12.2730067"><ele>416.6666666666667</ele><time>2026-03-29T07:12:30.321Z</time></trkpt><trkpt lat="43.1738133" lon="12.272955"><ele>418.0</ele><time>2026-03-29T07:12:31.322Z</time></trkpt><trkpt lat="43.173895" lon="12.2729133"><ele>419.2</ele><time>2026-03-29T07:12:32.321Z</time></trkpt><trkpt lat="43.1739767" lon="12.2728633"><ele>420.4</ele><time>2026-03-29T07:12:33.324Z</time></trkpt><trkpt lat="43.1740583" lon="12.2728"><ele>421.59999999999997</ele><time>2026-03-29T07:12:34.322Z</time></trkpt><trkpt lat="43.174135" lon="12.2727267"><ele>422.79999999999995</ele><time>2026-03-29T07:12:35.323Z</time></trkpt><trkpt lat="43.174205" lon="12.272645"><ele>424.0</ele><time>2026-03-29T07:12:36.324Z</time></trkpt><trkpt lat="43.174265" lon="12.2725583"><ele>424.33333333333337</ele><time>2026-03-29T07:12:37.325Z</time></trkpt><trkpt lat="43.1743183" lon="12.272485"><ele>424.6666666666667</ele><time>2026-03-29T07:12:38.322Z</time></trkpt><trkpt lat="43.1743767" lon="12.2724133"><ele>425.0</ele><time>2026-03-29T07:12:39.323Z</time></trkpt><trkpt lat="43.174445" lon="12.272355"><ele>425.33333333333337</ele><time>2026-03-29T07:12:40.321Z</time></trkpt><trkpt lat="43.174515" lon="12.2723033"><ele>425.6666666666667</ele><time>2026-03-29T07:12:41.324Z</time></trkpt><trkpt lat="43.1745833" lon="12.27226"><ele>426.0</ele><time>2026-03-29T07:12:42.323Z</time></trkpt><trkpt lat="43.1746467" lon="12.27222"><ele>425.1666666666667</ele><time>2026-03-29T07:12:43.322Z</time></trkpt><trkpt lat="43.1747167" lon="12.272185"><ele>424.33333333333337</ele><time>2026-03-29T07:12:44.325Z</time></trkpt><trkpt lat="43.174795" lon="12.272155"><ele>423.5</ele><time>2026-03-29T07:12:45.322Z</time></trkpt><trkpt lat="43.1748717" lon="12.272115"><ele>422.6666666666667</ele><time>2026-03-29T07:12:46.32Z</time></trkpt><trkpt lat="43.174945" lon="12.2720633"><ele>421.83333333333337</ele><time>2026-03-29T07:12:47.326Z</time></trkpt><trkpt lat="43.1750033" lon="12.2720167"><ele>421.0</ele><time>2026-03-29T07:12:48.324Z</time></trkpt><trkpt lat="43.17507" lon="12.27196"><ele>421.00000000000006</ele><time>2026-03-29T07:12:50.32Z</time></trkpt><trkpt lat="43.175125" lon="12.2719167"><ele>421.0</ele><time>2026-03-29T07:12:52.321Z</time></trkpt><trkpt lat="43.1752267" lon="12.271835"><ele>421.0</ele><time>2026-03-29T07:12:54.326Z</time></trkpt><trkpt lat="43.175295" lon="12.2717817"><ele>421.0</ele><time>2026-03-29T07:12:55.323Z</time></trkpt><trkpt lat="43.175355" lon="12.27173"><ele>421.00000000000006</ele><time>2026-03-29T07:12:56.325Z</time></trkpt><trkpt lat="43.1754217" lon="12.27166"><ele>421.0</ele><time>2026-03-29T07:12:58.325Z</time></trkpt><trkpt lat="43.1754717" lon="12.27159"><ele>421.0</ele><time>2026-03-29T07:13:01.323Z</time></trkpt><trkpt lat="43.1755217" lon="12.271475"><ele>421.0</ele><time>2026-03-29T07:13:03.323Z</time></trkpt><trkpt lat="43.1755833" lon="12.27135"><ele>421.0</ele><time>2026-03-29T07:13:05.321Z</time></trkpt><trkpt lat="43.1756733" lon="12.2712433"><ele>421.0</ele><time>2026-03-29T07:13:07.326Z</time></trkpt><trkpt lat="43.175785" lon="12.2711667"><ele>420.6666666666667</ele><time>2026-03-29T07:13:09.324Z</time></trkpt><trkpt lat="43.1758417" lon="12.2711217"><ele>420.33333333333337</ele><time>2026-03-29T07:13:10.32Z</time></trkpt><trkpt lat="43.1759083" lon="12.27108"><ele>420.0</ele><time>2026-03-29T07:13:11.322Z</time></trkpt><trkpt lat="43.175985" lon="12.2710467"><ele>419.66666666666663</ele><time>2026-03-29T07:13:12.324Z</time></trkpt><trkpt lat="43.176065" lon="12.2710067"><ele>419.3333333333333</ele><time>2026-03-29T07:13:13.32Z</time></trkpt><trkpt lat="43.1761417" lon="12.270975"><ele>419.0</ele><time>2026-03-29T07:13:14.323Z</time></trkpt><trkpt lat="43.1762217" lon="12.27096"><ele>418.99999999999994</ele><time>2026-03-29T07:13:15.322Z</time></trkpt><trkpt lat="43.1763" lon="12.270955"><ele>419.0</ele><time>2026-03-29T07:13:16.322Z</time></trkpt><trkpt lat="43.1763717" lon="12.270945"><ele>419.0</ele><time>2026-03-29T07:13:17.322Z</time></trkpt><trkpt lat="43.1764333" lon="12.2709167"><ele>419.0</ele><time>2026-03-29T07:13:18.324Z</time></trkpt><trkpt lat="43.1764883" lon="12.270865"><ele>419.0</ele><time>2026-03-29T07:13:19.322Z</time></trkpt><trkpt lat="43.1765333" lon="12.2708"><ele>418.99999999999994</ele><time>2026-03-29T07:13:20.324Z</time></trkpt><trkpt lat="43.1765717" lon="12.2707233"><ele>419.0</ele><time>2026-03-29T07:13:21.323Z</time></trkpt><trkpt lat="43.176615" lon="12.2706383"><ele>420.3333333333333</ele><time>2026-03-29T07:13:22.321Z</time></trkpt><trkpt lat="43.1766683" lon="12.2705583"><ele>421.66666666666663</ele><time>2026-03-29T07:13:23.321Z</time></trkpt><trkpt lat="43.176735" lon="12.2704883"><ele>423.0</ele><time>2026-03-29T07:13:24.324Z</time></trkpt><trkpt lat="43.1768117" lon="12.27043"><ele>424.33333333333337</ele><time>2026-03-29T07:13:25.322Z</time></trkpt><trkpt lat="43.1768917" lon="12.2703867"><ele>425.6666666666667</ele><time>2026-03-29T07:13:26.324Z</time></trkpt><trkpt lat="43.1769667" lon="12.2703683"><ele>427.0</ele><time>2026-03-29T07:13:27.324Z</time></trkpt><trkpt lat="43.17703" lon="12.2703617"><ele>427.00000000000006</ele><time>2026-03-29T07:13:28.322Z</time></trkpt><trkpt lat="43.1771383" lon="12.27039"><ele>427.0</ele><time>2026-03-29T07:13:30.326Z</time></trkpt><trkpt lat="43.1772" lon="12.2704367"><ele>427.0</ele><time>2026-03-29T07:13:31.326Z</time></trkpt><trkpt lat="43.1772633" lon="12.270485"><ele>427.0</ele><time>2026-03-29T07:13:32.325Z</time></trkpt><trkpt lat="43.17733" lon="12.2705317"><ele>427.00000000000006</ele><time>2026-03-29T07:13:33.322Z</time></trkpt><trkpt lat="43.1773933" lon="12.27057"><ele>427.0</ele><time>2026-03-29T07:13:34.32Z</time></trkpt><trkpt lat="43.177495" lon="12.2706017"><ele>428.6666666666667</ele><time>2026-03-29T07:13:36.325Z</time></trkpt><trkpt lat="43.1775583" lon="12.2705533"><ele>430.33333333333337</ele><time>2026-03-29T07:13:38.324Z</time></trkpt><trkpt lat="43.177645" lon="12.2705317"><ele>432.0</ele><time>2026-03-29T07:13:40.325Z</time></trkpt><trkpt lat="43.1777083" lon="12.2705417"><ele>433.66666666666663</ele><time>2026-03-29T07:13:41.322Z</time></trkpt><trkpt lat="43.1778183" lon="12.27051"><ele>435.3333333333333</ele><time>2026-03-29T07:13:43.322Z</time></trkpt><trkpt lat="43.1778483" lon="12.2704183"><ele>437.0</ele><time>2026-03-29T07:13:45.321Z</time></trkpt><trkpt lat="43.1778017" lon="12.270285"><ele>437.0</ele><time>2026-03-29T07:13:47.327Z</time></trkpt><trkpt lat="43.177755" lon="12.2701283"><ele>437.00000000000006</ele><time>2026-03-29T07:13:49.321Z</time></trkpt><trkpt lat="43.1777367" lon="12.27004"><ele>437.00000000000006</ele><time>2026-03-29T07:13:50.321Z</time></trkpt><trkpt lat="43.177725" lon="12.2698767"><ele>437.0</ele><time>2026-03-29T07:13:52.321Z</time></trkpt><trkpt lat="43.1776933" lon="12.2697167"><ele>437.0</ele><time>2026-03-29T07:13:54.322Z</time></trkpt><trkpt lat="43.1776633" lon="12.2695867"><ele>438.8333333333333</ele><time>2026-03-29T07:13:56.325Z</time></trkpt><trkpt lat="43.1776733" lon="12.269465"><ele>440.66666666666663</ele><time>2026-03-29T07:13:58.323Z</time></trkpt><trkpt lat="43.1777283" lon="12.26934"><ele>442.5</ele><time>2026-03-29T07:14:00.324Z</time></trkpt><trkpt lat="43.1777617" lon="12.269265"><ele>444.33333333333337</ele><time>2026-03-29T07:14:01.325Z</time></trkpt><trkpt lat="43.1778" lon="12.269185"><ele>446.1666666666667</ele><time>2026-03-29T07:14:02.323Z</time></trkpt><trkpt lat="43.1778683" lon="12.2690633"><ele>448.0</ele><time>2026-03-29T07:14:04.324Z</time></trkpt><trkpt lat="43.177915" lon="12.2689717"><ele>448.00000000000006</ele><time>2026-03-29T07:14:06.323Z</time></trkpt><trkpt lat="43.1779683" lon="12.268845"><ele>448.0</ele><time>2026-03-29T07:14:08.324Z</time></trkpt><trkpt lat="43.1780083" lon="12.2687617"><ele>448.0</ele><time>2026-03-29T07:14:09.325Z</time></trkpt><trkpt lat="43.1780483" lon="12.2686833"><ele>448.0</ele><time>2026-03-29T07:14:10.325Z</time></trkpt><trkpt lat="43.178085" lon="12.268605"><ele>448.00000000000006</ele><time>2026-03-29T07:14:11.322Z</time></trkpt><trkpt lat="43.1781283" lon="12.26847"><ele>448.0</ele><time>2026-03-29T07:14:13.322Z</time></trkpt><trkpt lat="43.1781567" lon="12.2683383"><ele>448.0</ele><time>2026-03-29T07:14:15.323Z</time></trkpt><trkpt lat="43.17817" lon="12.2681733"><ele>447.99999999999994</ele><time>2026-03-29T07:14:17.323Z</time></trkpt><trkpt lat="43.17817" lon="12.2680733"><ele>447.99999999999994</ele><time>2026-03-29T07:14:18.319Z</time></trkpt><trkpt lat="43.1781833" lon="12.2679617"><ele>448.0</ele><time>2026-03-29T07:14:19.322Z</time></trkpt><trkpt lat="43.178205" lon="12.267845"><ele>448.0</ele><time>2026-03-29T07:14:20.322Z</time></trkpt><trkpt lat="43.1782317" lon="12.2677267"><ele>446.59999999999997</ele><time>2026-03-29T07:14:21.32Z</time></trkpt><trkpt lat="43.178255" lon="12.2676267"><ele>445.19999999999993</ele><time>2026-03-29T07:14:22.321Z</time></trkpt><trkpt lat="43.1782967" lon="12.2675067"><ele>443.8</ele><time>2026-03-29T07:14:24.325Z</time></trkpt><trkpt lat="43.1783517" lon="12.2674183"><ele>442.4</ele><time>2026-03-29T07:14:26.321Z</time></trkpt><trkpt lat="43.17845" lon="12.2673183"><ele>441.0</ele><time>2026-03-29T07:14:28.323Z</time></trkpt><trkpt lat="43.17851" lon="12.2672567"><ele>441.0</ele><time>2026-03-29T07:14:29.326Z</time></trkpt><trkpt lat="43.1785717" lon="12.267195"><ele>441.0</ele><time>2026-03-29T07:14:30.32Z</time></trkpt><trkpt lat="43.1786267" lon="12.26715"><ele>441.0</ele><time>2026-03-29T07:14:31.321Z</time></trkpt><trkpt lat="43.1787083" lon="12.2671"><ele>441.0</ele><time>2026-03-29T07:14:33.321Z</time></trkpt><trkpt lat="43.1786717" lon="12.26696"><ele>441.0</ele><time>2026-03-29T07:14:45.321Z</time></trkpt><trkpt lat="43.1786383" lon="12.2668133"><ele>441.0</ele><time>2026-03-29T07:14:47.321Z</time></trkpt><trkpt lat="43.1786183" lon="12.2666583"><ele>441.0</ele><time>2026-03-29T07:14:49.327Z</time></trkpt><trkpt lat="43.1786133" lon="12.2664717"><ele>441.0</ele><time>2026-03-29T07:14:51.324Z</time></trkpt><trkpt lat="43.1785967" lon="12.2663467"><ele>441.0</ele><time>2026-03-29T07:14:52.321Z</time></trkpt><trkpt lat="43.1785867" lon="12.2662317"><ele>441.0</ele><time>2026-03-29T07:14:53.323Z</time></trkpt><trkpt lat="43.1785883" lon="12.2661183"><ele>440.6666666666667</ele><time>2026-03-29T07:14:54.321Z</time></trkpt><trkpt lat="43.1786067" lon="12.2660117"><ele>440.33333333333337</ele><time>2026-03-29T07:14:55.323Z</time></trkpt><trkpt lat="43.178645" lon="12.2659133"><ele>440.0</ele><time>2026-03-29T07:14:56.319Z</time></trkpt><trkpt lat="43.17869" lon="12.265825"><ele>439.6666666666667</ele><time>2026-03-29T07:14:57.321Z</time></trkpt><trkpt lat="43.1787433" lon="12.2657583"><ele>439.33333333333337</ele><time>2026-03-29T07:14:58.324Z</time></trkpt><trkpt lat="43.1788017" lon="12.2657083"><ele>439.0</ele><time>2026-03-29T07:14:59.321Z</time></trkpt><trkpt lat="43.1788583" lon="12.26565"><ele>439.33333333333337</ele><time>2026-03-29T07:15:00.32Z</time></trkpt><trkpt lat="43.1789083" lon="12.2655783"><ele>439.6666666666667</ele><time>2026-03-29T07:15:01.323Z</time></trkpt><trkpt lat="43.1789667" lon="12.2654833"><ele>440.0</ele><time>2026-03-29T07:15:02.325Z</time></trkpt><trkpt lat="43.17903" lon="12.2653917"><ele>440.33333333333337</ele><time>2026-03-29T07:15:03.324Z</time></trkpt><trkpt lat="43.17909" lon="12.265315"><ele>440.6666666666667</ele><time>2026-03-29T07:15:04.322Z</time></trkpt><trkpt lat="43.1791567" lon="12.2652433"><ele>441.0</ele><time>2026-03-29T07:15:05.324Z</time></trkpt><trkpt lat="43.17923" lon="12.2651767"><ele>441.0</ele><time>2026-03-29T07:15:06.326Z</time></trkpt><trkpt lat="43.179315" lon="12.26511"><ele>441.0</ele><time>2026-03-29T07:15:07.322Z</time></trkpt><trkpt lat="43.1794117" lon="12.265045"><ele>441.0</ele><time>2026-03-29T07:15:08.323Z</time></trkpt><trkpt lat="43.1795133" lon="12.2649817"><ele>441.0</ele><time>2026-03-29T07:15:09.324Z</time></trkpt><trkpt lat="43.179615" lon="12.26492"><ele>441.0</ele><time>2026-03-29T07:15:10.325Z</time></trkpt><trkpt lat="43.1797083" lon="12.2648583"><ele>441.0</ele><time>2026-03-29T07:15:11.323Z</time></trkpt><trkpt lat="43.179795" lon="12.2647967"><ele>441.0</ele><time>2026-03-29T07:15:12.32Z</time></trkpt><trkpt lat="43.1798783" lon="12.2647483"><ele>441.0</ele><time>2026-03-29T07:15:13.321Z</time></trkpt><trkpt lat="43.17996" lon="12.2647117"><ele>441.0</ele><time>2026-03-29T07:15:14.322Z</time></trkpt><trkpt lat="43.18004" lon="12.2646833"><ele>441.0</ele><time>2026-03-29T07:15:15.322Z</time></trkpt><trkpt lat="43.1801167" lon="12.264645"><ele>441.0</ele><time>2026-03-29T07:15:16.323Z</time></trkpt><trkpt lat="43.1801883" lon="12.2645883"><ele>440.6666666666667</ele><time>2026-03-29T07:15:17.323Z</time></trkpt><trkpt lat="43.18026" lon="12.2645183"><ele>440.33333333333337</ele><time>2026-03-29T07:15:18.32Z</time></trkpt><trkpt lat="43.180325" lon="12.2644417"><ele>440.0</ele><time>2026-03-29T07:15:19.32Z</time></trkpt><trkpt lat="43.18038" lon="12.2643583"><ele>439.6666666666667</ele><time>2026-03-29T07:15:20.321Z</time></trkpt><trkpt lat="43.180425" lon="12.2642667"><ele>439.33333333333337</ele><time>2026-03-29T07:15:21.323Z</time></trkpt><trkpt lat="43.1804533" lon="12.2641583"><ele>439.0</ele><time>2026-03-29T07:15:22.322Z</time></trkpt><trkpt lat="43.1804717" lon="12.2640533"><ele>439.00000000000006</ele><time>2026-03-29T07:15:23.321Z</time></trkpt><trkpt lat="43.1804883" lon="12.263955"><ele>439.0</ele><time>2026-03-29T07:15:24.325Z</time></trkpt><trkpt lat="43.1805" lon="12.2638683"><ele>439.0</ele><time>2026-03-29T07:15:25.323Z</time></trkpt><trkpt lat="43.1805267" lon="12.263735"><ele>439.0</ele><time>2026-03-29T07:15:27.322Z</time></trkpt><trkpt lat="43.1805517" lon="12.26365"><ele>439.00000000000006</ele><time>2026-03-29T07:15:29.324Z</time></trkpt><trkpt lat="43.180635" lon="12.2636233"><ele>439.0</ele><time>2026-03-29T07:15:32.322Z</time></trkpt><trkpt lat="43.1807133" lon="12.2636133"><ele>441.6</ele><time>2026-03-29T07:15:34.32Z</time></trkpt><trkpt lat="43.1807783" lon="12.26354"><ele>444.2</ele><time>2026-03-29T07:15:36.32Z</time></trkpt><trkpt lat="43.180875" lon="12.2634833"><ele>446.80000000000007</ele><time>2026-03-29T07:15:38.321Z</time></trkpt><trkpt lat="43.181015" lon="12.2634483"><ele>449.40000000000003</ele><time>2026-03-29T07:15:40.321Z</time></trkpt><trkpt lat="43.1811033" lon="12.26343"><ele>452.0</ele><time>2026-03-29T07:15:41.321Z</time></trkpt><trkpt lat="43.1811933" lon="12.2634183"><ele>451.99999999999994</ele><time>2026-03-29T07:15:42.321Z</time></trkpt><trkpt lat="43.181285" lon="12.2634033"><ele>452.0</ele><time>2026-03-29T07:15:43.324Z</time></trkpt><trkpt lat="43.1813767" lon="12.263385"><ele>452.0</ele><time>2026-03-29T07:15:44.322Z</time></trkpt><trkpt lat="43.1814617" lon="12.2633617"><ele>452.0</ele><time>2026-03-29T07:15:45.321Z</time></trkpt><trkpt lat="43.18154" lon="12.26334"><ele>451.99999999999994</ele><time>2026-03-29T07:15:46.32Z</time></trkpt><trkpt lat="43.1816183" lon="12.2633183"><ele>452.0</ele><time>2026-03-29T07:15:47.322Z</time></trkpt><trkpt lat="43.181695" lon="12.2632933"><ele>449.20000000000005</ele><time>2026-03-29T07:15:48.323Z</time></trkpt><trkpt lat="43.1817633" lon="12.2632717"><ele>446.40000000000003</ele><time>2026-03-29T07:15:49.322Z</time></trkpt><trkpt lat="43.181835" lon="12.2632667"><ele>443.59999999999997</ele><time>2026-03-29T07:15:50.32Z</time></trkpt><trkpt lat="43.1819533" lon="12.2632683"><ele>440.79999999999995</ele><time>2026-03-29T07:15:52.322Z</time></trkpt><trkpt lat="43.1820433" lon="12.2632867"><ele>438.0</ele><time>2026-03-29T07:15:54.324Z</time></trkpt><trkpt lat="43.1822017" lon="12.263285"><ele>438.0</ele><time>2026-03-29T07:21:54.32Z</time></trkpt><trkpt lat="43.1822667" lon="12.2632733"><ele>438.0</ele><time>2026-03-29T07:21:56.321Z</time></trkpt><trkpt lat="43.1823517" lon="12.2632833"><ele>438.0</ele><time>2026-03-29T07:21:58.327Z</time></trkpt><trkpt lat="43.182455" lon="12.26333"><ele>438.0</ele><time>2026-03-29T07:22:00.323Z</time></trkpt><trkpt lat="43.18252" lon="12.2633617"><ele>438.0</ele><time>2026-03-29T07:22:01.321Z</time></trkpt><trkpt lat="43.18259" lon="12.2634017"><ele>438.0</ele><time>2026-03-29T07:22:02.322Z</time></trkpt><trkpt lat="43.18267" lon="12.2634467"><ele>434.4</ele><time>2026-03-29T07:22:03.321Z</time></trkpt><trkpt lat="43.182785" lon="12.263505"><ele>430.79999999999995</ele><time>2026-03-29T07:22:04.322Z</time></trkpt><trkpt lat="43.18288" lon="12.2635367"><ele>427.2</ele><time>2026-03-29T07:22:05.323Z</time></trkpt><trkpt lat="43.182975" lon="12.2635717"><ele>423.6</ele><time>2026-03-29T07:22:06.32Z</time></trkpt><trkpt lat="43.1830783" lon="12.2635967"><ele>420.0</ele><time>2026-03-29T07:22:07.324Z</time></trkpt><trkpt lat="43.18316" lon="12.26362"><ele>418.1666666666667</ele><time>2026-03-29T07:22:08.32Z</time></trkpt><trkpt lat="43.1832483" lon="12.263625"><ele>416.33333333333337</ele><time>2026-03-29T07:22:09.32Z</time></trkpt><trkpt lat="43.183315" lon="12.2636"><ele>414.5</ele><time>2026-03-29T07:22:10.323Z</time></trkpt><trkpt lat="43.1833733" lon="12.2635133"><ele>412.6666666666667</ele><time>2026-03-29T07:22:11.32Z</time></trkpt><trkpt lat="43.1834317" lon="12.2634233"><ele>410.83333333333337</ele><time>2026-03-29T07:22:12.32Z</time></trkpt><trkpt lat="43.18349" lon="12.263335"><ele>409.0</ele><time>2026-03-29T07:22:13.322Z</time></trkpt><trkpt lat="43.1835433" lon="12.26325"><ele>409.0</ele><time>2026-03-29T07:22:14.32Z</time></trkpt><trkpt lat="43.1836" lon="12.2631833"><ele>409.0</ele><time>2026-03-29T07:22:15.323Z</time></trkpt><trkpt lat="43.18366" lon="12.26312"><ele>409.0</ele><time>2026-03-29T07:22:16.324Z</time></trkpt><trkpt lat="43.1837217" lon="12.2630617"><ele>409.0</ele><time>2026-03-29T07:22:17.322Z</time></trkpt><trkpt lat="43.1837867" lon="12.263025"><ele>409.0</ele><time>2026-03-29T07:22:18.322Z</time></trkpt><trkpt lat="43.18385" lon="12.262995"><ele>409.0</ele><time>2026-03-29T07:22:19.322Z</time></trkpt><trkpt lat="43.1839167" lon="12.2629717"><ele>409.0</ele><time>2026-03-29T07:22:20.322Z</time></trkpt><trkpt lat="43.1839933" lon="12.2629583"><ele>404.4</ele><time>2026-03-29T07:22:21.321Z</time></trkpt><trkpt lat="43.1840817" lon="12.2629433"><ele>399.79999999999995</ele><time>2026-03-29T07:22:22.325Z</time></trkpt><trkpt lat="43.1841767" lon="12.2629317"><ele>395.20000000000005</ele><time>2026-03-29T07:22:23.323Z</time></trkpt><trkpt lat="43.1842717" lon="12.2629183"><ele>390.6</ele><time>2026-03-29T07:22:24.327Z</time></trkpt><trkpt lat="43.1843667" lon="12.262905"><ele>386.0</ele><time>2026-03-29T07:22:25.324Z</time></trkpt><trkpt lat="43.1844567" lon="12.262885"><ele>385.99999999999994</ele><time>2026-03-29T07:22:26.32Z</time></trkpt><trkpt lat="43.1845367" lon="12.26285"><ele>386.0</ele><time>2026-03-29T07:22:27.324Z</time></trkpt><trkpt lat="43.18461" lon="12.2628117"><ele>386.0</ele><time>2026-03-29T07:22:28.323Z</time></trkpt><trkpt lat="43.1846717" lon="12.2627783"><ele>386.0</ele><time>2026-03-29T07:22:29.322Z</time></trkpt><trkpt lat="43.1847583" lon="12.262715"><ele>385.99999999999994</ele><time>2026-03-29T07:22:31.323Z</time></trkpt><trkpt lat="43.1847183" lon="12.2625883"><ele>386.0</ele><time>2026-03-29T07:23:23.32Z</time></trkpt><trkpt lat="43.18476" lon="12.2626533"><ele>385.99999999999994</ele><time>2026-03-29T07:23:47.322Z</time></trkpt><trkpt lat="43.1847567" lon="12.2625283"><ele>386.0</ele><time>2026-03-29T07:24:34.322Z</time></trkpt><trkpt lat="43.1847117" lon="12.2623833"><ele>386.0</ele><time>2026-03-29T07:24:36.323Z</time></trkpt><trkpt lat="43.18468" lon="12.2623017"><ele>386.0</ele><time>2026-03-29T07:24:37.323Z</time></trkpt><trkpt lat="43.184635" lon="12.2622083"><ele>385.99999999999994</ele><time>2026-03-29T07:24:38.324Z</time></trkpt><trkpt lat="43.1846" lon="12.2621333"><ele>386.0</ele><time>2026-03-29T07:24:39.321Z</time></trkpt><trkpt lat="43.1845633" lon="12.2620617"><ele>383.99999999999994</ele><time>2026-03-29T07:24:40.324Z</time></trkpt><trkpt lat="43.1845167" lon="12.2619933"><ele>382.0</ele><time>2026-03-29T07:24:41.321Z</time></trkpt><trkpt lat="43.1844533" lon="12.26193"><ele>380.0</ele><time>2026-03-29T07:24:42.32Z</time></trkpt><trkpt lat="43.184385" lon="12.2618667"><ele>378.0</ele><time>2026-03-29T07:24:43.32Z</time></trkpt><trkpt lat="43.18433" lon="12.2618017"><ele>376.0</ele><time>2026-03-29T07:24:44.32Z</time></trkpt><trkpt lat="43.1842833" lon="12.2617433"><ele>374.0</ele><time>2026-03-29T07:24:45.321Z</time></trkpt><trkpt lat="43.1841917" lon="12.26169"><ele>374.0</ele><time>2026-03-29T07:24:47.321Z</time></trkpt><trkpt lat="43.1840933" lon="12.2617167"><ele>374.0</ele><time>2026-03-29T07:24:49.321Z</time></trkpt><trkpt lat="43.1840217" lon="12.2616683"><ele>374.0</ele><time>2026-03-29T07:24:51.324Z</time></trkpt><trkpt lat="43.1840217" lon="12.261515"><ele>374.0</ele><time>2026-03-29T07:24:53.32Z</time></trkpt><trkpt lat="43.1840467" lon="12.2613833"><ele>374.0</ele><time>2026-03-29T07:24:55.322Z</time></trkpt><trkpt lat="43.18395" lon="12.2613367"><ele>372.85714285714283</ele><time>2026-03-29T07:24:58.32Z</time></trkpt><trkpt lat="43.1838867" lon="12.26138"><ele>371.7142857142857</ele><time>2026-03-29T07:24:59.321Z</time></trkpt><trkpt lat="43.1838233" lon="12.2614367"><ele>370.57142857142856</ele><time>2026-03-29T07:25:00.32Z</time></trkpt><trkpt lat="43.1837683" lon="12.261485"><ele>369.42857142857144</ele><time>2026-03-29T07:25:01.322Z</time></trkpt><trkpt lat="43.1837217" lon="12.2615467"><ele>368.28571428571433</ele><time>2026-03-29T07:25:02.321Z</time></trkpt><trkpt lat="43.183685" lon="12.2616183"><ele>367.14285714285717</ele><time>2026-03-29T07:25:03.325Z</time></trkpt><trkpt lat="43.1836333" lon="12.2617333"><ele>366.0</ele><time>2026-03-29T07:25:05.321Z</time></trkpt><trkpt lat="43.1835617" lon="12.261785"><ele>366.0</ele><time>2026-03-29T07:25:07.32Z</time></trkpt><trkpt lat="43.1834917" lon="12.2617383"><ele>366.0</ele><time>2026-03-29T07:25:09.32Z</time></trkpt><trkpt lat="43.1834383" lon="12.2616033"><ele>366.0</ele><time>2026-03-29T07:25:11.323Z</time></trkpt><trkpt lat="43.183375" lon="12.2615033"><ele>366.0</ele><time>2026-03-29T07:25:13.32Z</time></trkpt><trkpt lat="43.1833383" lon="12.2614317"><ele>366.0</ele><time>2026-03-29T07:25:15.323Z</time></trkpt><trkpt lat="43.1833233" lon="12.261345"><ele>366.0</ele><time>2026-03-29T07:25:17.319Z</time></trkpt><trkpt lat="43.183325" lon="12.26121"><ele>363.0</ele><time>2026-03-29T07:25:19.322Z</time></trkpt><trkpt lat="43.1833183" lon="12.2611183"><ele>360.0</ele><time>2026-03-29T07:25:20.321Z</time></trkpt><trkpt lat="43.1833167" lon="12.2610083"><ele>357.0</ele><time>2026-03-29T07:25:21.321Z</time></trkpt><trkpt lat="43.18332" lon="12.26087"><ele>354.0</ele><time>2026-03-29T07:25:22.321Z</time></trkpt><trkpt lat="43.1833283" lon="12.260725"><ele>351.0</ele><time>2026-03-29T07:25:23.323Z</time></trkpt><trkpt lat="43.1833433" lon="12.26058"><ele>348.8</ele><time>2026-03-29T07:25:24.323Z</time></trkpt><trkpt lat="43.1833583" lon="12.26043"><ele>346.6</ele><time>2026-03-29T07:25:25.325Z</time></trkpt><trkpt lat="43.18337" lon="12.26029"><ele>344.4</ele><time>2026-03-29T07:25:26.324Z</time></trkpt><trkpt lat="43.1833767" lon="12.2601633"><ele>342.2</ele><time>2026-03-29T07:25:27.321Z</time></trkpt><trkpt lat="43.183385" lon="12.26005"><ele>340.0</ele><time>2026-03-29T07:25:28.323Z</time></trkpt><trkpt lat="43.1833917" lon="12.2599433"><ele>340.0</ele><time>2026-03-29T07:25:29.323Z</time></trkpt><trkpt lat="43.1834017" lon="12.25985"><ele>340.0</ele><time>2026-03-29T07:25:30.323Z</time></trkpt><trkpt lat="43.183415" lon="12.259755"><ele>340.0</ele><time>2026-03-29T07:25:31.325Z</time></trkpt><trkpt lat="43.1834283" lon="12.2596567"><ele>340.0</ele><time>2026-03-29T07:25:32.323Z</time></trkpt><trkpt lat="43.1834233" lon="12.259555"><ele>340.0</ele><time>2026-03-29T07:25:33.321Z</time></trkpt><trkpt lat="43.1834067" lon="12.25945"><ele>340.0</ele><time>2026-03-29T07:25:34.32Z</time></trkpt><trkpt lat="43.1834" lon="12.2593533"><ele>340.0</ele><time>2026-03-29T07:25:35.321Z</time></trkpt><trkpt lat="43.183395" lon="12.25926"><ele>338.14285714285717</ele><time>2026-03-29T07:25:36.32Z</time></trkpt><trkpt lat="43.1833917" lon="12.25917"><ele>336.2857142857143</ele><time>2026-03-29T07:25:37.32Z</time></trkpt><trkpt lat="43.183375" lon="12.2590767"><ele>334.42857142857144</ele><time>2026-03-29T07:25:38.324Z</time></trkpt><trkpt lat="43.1833483" lon="12.25899"><ele>332.57142857142856</ele><time>2026-03-29T07:25:39.321Z</time></trkpt><trkpt lat="43.1833133" lon="12.2589033"><ele>330.7142857142857</ele><time>2026-03-29T07:25:40.319Z</time></trkpt><trkpt lat="43.1832733" lon="12.2588083"><ele>328.85714285714283</ele><time>2026-03-29T07:25:41.321Z</time></trkpt><trkpt lat="43.1832333" lon="12.25871"><ele>327.0</ele><time>2026-03-29T07:25:42.323Z</time></trkpt><trkpt lat="43.1831917" lon="12.2586133"><ele>327.1666666666667</ele><time>2026-03-29T07:25:43.321Z</time></trkpt><trkpt lat="43.18315" lon="12.2585167"><ele>327.3333333333333</ele><time>2026-03-29T07:25:44.32Z</time></trkpt><trkpt lat="43.1831067" lon="12.2584233"><ele>327.5</ele><time>2026-03-29T07:25:45.321Z</time></trkpt><trkpt lat="43.1830633" lon="12.25833"><ele>327.66666666666663</ele><time>2026-03-29T07:25:46.32Z</time></trkpt><trkpt lat="43.1830283" lon="12.2582467"><ele>327.8333333333333</ele><time>2026-03-29T07:25:47.321Z</time></trkpt><trkpt lat="43.1829933" lon="12.2581233"><ele>328.0</ele><time>2026-03-29T07:25:49.32Z</time></trkpt><trkpt lat="43.1829983" lon="12.2580317"><ele>327.79999999999995</ele><time>2026-03-29T07:25:51.322Z</time></trkpt><trkpt lat="43.18304" lon="12.2579267"><ele>327.6</ele><time>2026-03-29T07:25:53.321Z</time></trkpt><trkpt lat="43.1831317" lon="12.2578317"><ele>327.4</ele><time>2026-03-29T07:25:55.322Z</time></trkpt><trkpt lat="43.183205" lon="12.2578017"><ele>327.20000000000005</ele><time>2026-03-29T07:25:56.325Z</time></trkpt><trkpt lat="43.18328" lon="12.2577917"><ele>327.0</ele><time>2026-03-29T07:25:57.324Z</time></trkpt><trkpt lat="43.183375" lon="12.2577633"><ele>327.0</ele><time>2026-03-29T07:25:59.323Z</time></trkpt><trkpt lat="43.1834183" lon="12.2578333"><ele>327.0</ele><time>2026-03-29T07:29:33.322Z</time></trkpt><trkpt lat="43.18348" lon="12.258"><ele>327.0</ele><time>2026-03-29T07:29:35.324Z</time></trkpt><trkpt lat="43.1835433" lon="12.258105"><ele>327.0</ele><time>2026-03-29T07:29:36.322Z</time></trkpt><trkpt lat="43.183615" lon="12.2582067"><ele>327.0</ele><time>2026-03-29T07:29:37.322Z</time></trkpt><trkpt lat="43.183685" lon="12.2583067"><ele>325.8333333333333</ele><time>2026-03-29T07:29:38.324Z</time></trkpt><trkpt lat="43.1837517" lon="12.258395"><ele>324.6666666666667</ele><time>2026-03-29T07:29:39.325Z</time></trkpt><trkpt lat="43.1838183" lon="12.2584717"><ele>323.5</ele><time>2026-03-29T07:29:40.326Z</time></trkpt><trkpt lat="43.1838833" lon="12.258535"><ele>322.33333333333337</ele><time>2026-03-29T07:29:41.321Z</time></trkpt><trkpt lat="43.1839583" lon="12.2585867"><ele>321.1666666666667</ele><time>2026-03-29T07:29:42.321Z</time></trkpt><trkpt lat="43.184045" lon="12.2586217"><ele>320.0</ele><time>2026-03-29T07:29:43.324Z</time></trkpt><trkpt lat="43.18414" lon="12.2586383"><ele>322.8</ele><time>2026-03-29T07:29:44.323Z</time></trkpt><trkpt lat="43.1842367" lon="12.2586367"><ele>325.6</ele><time>2026-03-29T07:29:45.324Z</time></trkpt><trkpt lat="43.18433" lon="12.2586383"><ele>328.4</ele><time>2026-03-29T07:29:46.322Z</time></trkpt><trkpt lat="43.184415" lon="12.25866"><ele>331.2</ele><time>2026-03-29T07:29:47.322Z</time></trkpt><trkpt lat="43.1844983" lon="12.2587117"><ele>334.0</ele><time>2026-03-29T07:29:48.325Z</time></trkpt><trkpt lat="43.1845767" lon="12.2587883"><ele>334.0</ele><time>2026-03-29T07:29:49.322Z</time></trkpt><trkpt lat="43.1846433" lon="12.258865"><ele>334.0</ele><time>2026-03-29T07:29:50.322Z</time></trkpt><trkpt lat="43.1847017" lon="12.25894"><ele>334.0</ele><time>2026-03-29T07:29:51.323Z</time></trkpt><trkpt lat="43.1847467" lon="12.2590167"><ele>334.0</ele><time>2026-03-29T07:29:52.323Z</time></trkpt><trkpt lat="43.184795" lon="12.2590917"><ele>334.0</ele><time>2026-03-29T07:29:53.322Z</time></trkpt><trkpt lat="43.1848817" lon="12.2591933"><ele>334.0</ele><time>2026-03-29T07:29:55.323Z</time></trkpt><trkpt lat="43.1849817" lon="12.2592317"><ele>334.0</ele><time>2026-03-29T07:29:57.323Z</time></trkpt><trkpt lat="43.1850517" lon="12.2592533"><ele>334.0</ele><time>2026-03-29T07:29:58.321Z</time></trkpt><trkpt lat="43.185145" lon="12.2592867"><ele>334.0</ele><time>2026-03-29T07:29:59.323Z</time></trkpt><trkpt lat="43.1852233" lon="12.2593333"><ele>334.0</ele><time>2026-03-29T07:30:00.322Z</time></trkpt><trkpt lat="43.1853" lon="12.25937"><ele>334.0</ele><time>2026-03-29T07:30:01.322Z</time></trkpt><trkpt lat="43.1853867" lon="12.2593883"><ele>334.0</ele><time>2026-03-29T07:30:02.327Z</time></trkpt><trkpt lat="43.1854883" lon="12.2593767"><ele>334.0</ele><time>2026-03-29T07:30:03.322Z</time></trkpt><trkpt lat="43.1855917" lon="12.2593617"><ele>334.0</ele><time>2026-03-29T07:30:04.323Z</time></trkpt><trkpt lat="43.1856867" lon="12.259355"><ele>334.0</ele><time>2026-03-29T07:30:05.321Z</time></trkpt><trkpt lat="43.185765" lon="12.2593717"><ele>334.0</ele><time>2026-03-29T07:30:06.323Z</time></trkpt><trkpt lat="43.1858383" lon="12.2594133"><ele>334.0</ele><time>2026-03-29T07:30:07.321Z</time></trkpt><trkpt lat="43.1859067" lon="12.2594917"><ele>334.0</ele><time>2026-03-29T07:30:08.323Z</time></trkpt><trkpt lat="43.1859767" lon="12.259575"><ele>333.2</ele><time>2026-03-29T07:30:09.321Z</time></trkpt><trkpt lat="43.1860533" lon="12.259655"><ele>332.4</ele><time>2026-03-29T07:30:10.321Z</time></trkpt><trkpt lat="43.18615" lon="12.25973"><ele>331.6</ele><time>2026-03-29T07:30:11.324Z</time></trkpt><trkpt lat="43.18625" lon="12.2598017"><ele>330.8</ele><time>2026-03-29T07:30:12.322Z</time></trkpt><trkpt lat="43.1863467" lon="12.2598533"><ele>330.0</ele><time>2026-03-29T07:30:13.323Z</time></trkpt><trkpt lat="43.1864517" lon="12.2598917"><ele>330.8</ele><time>2026-03-29T07:30:14.321Z</time></trkpt><trkpt lat="43.1865567" lon="12.25992"><ele>331.6</ele><time>2026-03-29T07:30:15.321Z</time></trkpt><trkpt lat="43.1866533" lon="12.2599283"><ele>332.4</ele><time>2026-03-29T07:30:16.326Z</time></trkpt><trkpt lat="43.1867433" lon="12.2599067"><ele>333.2</ele><time>2026-03-29T07:30:17.324Z</time></trkpt><trkpt lat="43.1868283" lon="12.2598833"><ele>334.0</ele><time>2026-03-29T07:30:18.32Z</time></trkpt><trkpt lat="43.1869067" lon="12.25986"><ele>334.0</ele><time>2026-03-29T07:30:19.322Z</time></trkpt><trkpt lat="43.18698" lon="12.2598633"><ele>334.0</ele><time>2026-03-29T07:30:20.323Z</time></trkpt><trkpt lat="43.18706" lon="12.2598833"><ele>334.0</ele><time>2026-03-29T07:30:21.323Z</time></trkpt><trkpt lat="43.1871417" lon="12.2599117"><ele>334.0</ele><time>2026-03-29T07:30:22.325Z</time></trkpt><trkpt lat="43.1872233" lon="12.259945"><ele>334.0</ele><time>2026-03-29T07:30:23.325Z</time></trkpt><trkpt lat="43.187295" lon="12.259985"><ele>334.0</ele><time>2026-03-29T07:30:24.324Z</time></trkpt><trkpt lat="43.1874083" lon="12.2600283"><ele>335.5</ele><time>2026-03-29T07:30:26.325Z</time></trkpt><trkpt lat="43.187515" lon="12.2601067"><ele>337.0</ele><time>2026-03-29T07:30:28.321Z</time></trkpt><trkpt lat="43.1875783" lon="12.2601417"><ele>338.5</ele><time>2026-03-29T07:30:29.321Z</time></trkpt><trkpt lat="43.1876467" lon="12.2601583"><ele>340.0</ele><time>2026-03-29T07:30:30.321Z</time></trkpt><trkpt lat="43.1877167" lon="12.2601767"><ele>341.5</ele><time>2026-03-29T07:30:31.322Z</time></trkpt><trkpt lat="43.1877883" lon="12.260195"><ele>343.0</ele><time>2026-03-29T07:30:32.322Z</time></trkpt><trkpt lat="43.18786" lon="12.2602133"><ele>343.0</ele><time>2026-03-29T07:30:33.324Z</time></trkpt><trkpt lat="43.1879317" lon="12.2602183"><ele>343.0</ele><time>2026-03-29T07:30:34.323Z</time></trkpt><trkpt lat="43.1880033" lon="12.260205"><ele>343.0</ele><time>2026-03-29T07:30:35.321Z</time></trkpt><trkpt lat="43.1880733" lon="12.260175"><ele>343.0</ele><time>2026-03-29T07:30:36.325Z</time></trkpt><trkpt lat="43.1881467" lon="12.26015"><ele>343.0</ele><time>2026-03-29T07:30:37.324Z</time></trkpt><trkpt lat="43.1882233" lon="12.260145"><ele>343.0</ele><time>2026-03-29T07:30:38.325Z</time></trkpt><trkpt lat="43.188305" lon="12.2601533"><ele>344.2857142857143</ele><time>2026-03-29T07:30:39.322Z</time></trkpt><trkpt lat="43.1883867" lon="12.260165"><ele>345.57142857142856</ele><time>2026-03-29T07:30:40.324Z</time></trkpt><trkpt lat="43.1884617" lon="12.260185"><ele>346.8571428571429</ele><time>2026-03-29T07:30:41.323Z</time></trkpt><trkpt lat="43.1885367" lon="12.2602217"><ele>348.1428571428571</ele><time>2026-03-29T07:30:42.322Z</time></trkpt><trkpt lat="43.1886033" lon="12.2602633"><ele>349.42857142857144</ele><time>2026-03-29T07:30:43.325Z</time></trkpt><trkpt lat="43.188665" lon="12.2602967"><ele>350.7142857142857</ele><time>2026-03-29T07:30:44.323Z</time></trkpt><trkpt lat="43.1887333" lon="12.2603183"><ele>352.0</ele><time>2026-03-29T07:30:45.325Z</time></trkpt><trkpt lat="43.1888167" lon="12.2603317"><ele>352.0</ele><time>2026-03-29T07:30:46.323Z</time></trkpt><trkpt lat="43.1889083" lon="12.26035"><ele>352.0</ele><time>2026-03-29T07:30:47.321Z</time></trkpt><trkpt lat="43.188995" lon="12.260375"><ele>352.0</ele><time>2026-03-29T07:30:48.321Z</time></trkpt><trkpt lat="43.18907" lon="12.2603933"><ele>352.0</ele><time>2026-03-29T07:30:49.321Z</time></trkpt><trkpt lat="43.1891367" lon="12.2604167"><ele>352.0</ele><time>2026-03-29T07:30:50.324Z</time></trkpt><trkpt lat="43.1892467" lon="12.2604733"><ele>352.0</ele><time>2026-03-29T07:30:52.321Z</time></trkpt><trkpt lat="43.1893483" lon="12.26046"><ele>353.0</ele><time>2026-03-29T07:30:54.323Z</time></trkpt><trkpt lat="43.1894267" lon="12.260365"><ele>354.0</ele><time>2026-03-29T07:30:56.32Z</time></trkpt><trkpt lat="43.189515" lon="12.2603183"><ele>355.0</ele><time>2026-03-29T07:30:59.324Z</time></trkpt><trkpt lat="43.1896233" lon="12.2603383"><ele>356.0</ele><time>2026-03-29T07:31:01.321Z</time></trkpt><trkpt lat="43.1896967" lon="12.2603367"><ele>357.0</ele><time>2026-03-29T07:31:02.324Z</time></trkpt><trkpt lat="43.1897667" lon="12.2603417"><ele>357.0</ele><time>2026-03-29T07:31:03.326Z</time></trkpt><trkpt lat="43.1898317" lon="12.2603517"><ele>357.0</ele><time>2026-03-29T07:31:04.321Z</time></trkpt><trkpt lat="43.189945" lon="12.2603933"><ele>357.0</ele><time>2026-03-29T07:31:06.326Z</time></trkpt><trkpt lat="43.1899983" lon="12.26044"><ele>357.0</ele><time>2026-03-29T07:31:07.328Z</time></trkpt><trkpt lat="43.1900517" lon="12.2604933"><ele>357.0</ele><time>2026-03-29T07:31:08.325Z</time></trkpt><trkpt lat="43.1901617" lon="12.2605733"><ele>357.0</ele><time>2026-03-29T07:31:10.322Z</time></trkpt><trkpt lat="43.1902233" lon="12.2606"><ele>356.85714285714283</ele><time>2026-03-29T07:31:11.323Z</time></trkpt><trkpt lat="43.19029" lon="12.2606117"><ele>356.7142857142857</ele><time>2026-03-29T07:31:12.322Z</time></trkpt><trkpt lat="43.1903567" lon="12.260635"><ele>356.57142857142856</ele><time>2026-03-29T07:31:13.322Z</time></trkpt><trkpt lat="43.1904367" lon="12.2606483"><ele>356.42857142857144</ele><time>2026-03-29T07:31:14.321Z</time></trkpt><trkpt lat="43.1905133" lon="12.260665"><ele>356.2857142857143</ele><time>2026-03-29T07:31:15.321Z</time></trkpt><trkpt lat="43.1905833" lon="12.26068"><ele>356.1428571428571</ele><time>2026-03-29T07:31:16.321Z</time></trkpt><trkpt lat="43.190655" lon="12.2606917"><ele>356.0</ele><time>2026-03-29T07:31:17.321Z</time></trkpt><trkpt lat="43.19072" lon="12.2607067"><ele>356.0</ele><time>2026-03-29T07:31:18.319Z</time></trkpt><trkpt lat="43.1907833" lon="12.2607183"><ele>356.0</ele><time>2026-03-29T07:31:19.321Z</time></trkpt><trkpt lat="43.19085" lon="12.2607233"><ele>356.0</ele><time>2026-03-29T07:31:20.32Z</time></trkpt><trkpt lat="43.19092" lon="12.2607367"><ele>356.0</ele><time>2026-03-29T07:31:21.321Z</time></trkpt><trkpt lat="43.190995" lon="12.2607533"><ele>356.0</ele><time>2026-03-29T07:31:22.321Z</time></trkpt><trkpt lat="43.19108" lon="12.2607667"><ele>356.0</ele><time>2026-03-29T07:31:23.323Z</time></trkpt><trkpt lat="43.1911783" lon="12.2607817"><ele>356.0</ele><time>2026-03-29T07:31:24.32Z</time></trkpt><trkpt lat="43.191275" lon="12.2608017"><ele>356.0</ele><time>2026-03-29T07:31:25.325Z</time></trkpt><trkpt lat="43.19137" lon="12.2608333"><ele>356.0</ele><time>2026-03-29T07:31:26.321Z</time></trkpt><trkpt lat="43.19146" lon="12.260865"><ele>356.0</ele><time>2026-03-29T07:31:27.324Z</time></trkpt><trkpt lat="43.1915383" lon="12.2608917"><ele>356.0</ele><time>2026-03-29T07:31:28.322Z</time></trkpt><trkpt lat="43.1916117" lon="12.2609"><ele>356.0</ele><time>2026-03-29T07:31:29.32Z</time></trkpt><trkpt lat="43.191695" lon="12.2608833"><ele>356.4</ele><time>2026-03-29T07:31:30.322Z</time></trkpt><trkpt lat="43.1917867" lon="12.260865"><ele>356.8</ele><time>2026-03-29T07:31:31.321Z</time></trkpt><trkpt lat="43.1918633" lon="12.2608583"><ele>357.2</ele><time>2026-03-29T07:31:32.319Z</time></trkpt><trkpt lat="43.1919617" lon="12.2608433"><ele>357.59999999999997</ele><time>2026-03-29T07:31:34.32Z</time></trkpt><trkpt lat="43.1920517" lon="12.260825"><ele>358.0</ele><time>2026-03-29T07:31:36.323Z</time></trkpt><trkpt lat="43.1921733" lon="12.2607933"><ele>358.0</ele><time>2026-03-29T07:31:38.321Z</time></trkpt><trkpt lat="43.1922433" lon="12.2607767"><ele>358.0</ele><time>2026-03-29T07:31:39.322Z</time></trkpt><trkpt lat="43.1923233" lon="12.26075"><ele>358.0</ele><time>2026-03-29T07:31:40.321Z</time></trkpt><trkpt lat="43.19241" lon="12.2607133"><ele>358.0</ele><time>2026-03-29T07:31:41.322Z</time></trkpt><trkpt lat="43.192495" lon="12.2606683"><ele>358.0</ele><time>2026-03-29T07:31:42.32Z</time></trkpt><trkpt lat="43.1925733" lon="12.2606283"><ele>358.0</ele><time>2026-03-29T07:31:43.322Z</time></trkpt><trkpt lat="43.1926483" lon="12.260595"><ele>358.42857142857144</ele><time>2026-03-29T07:31:44.319Z</time></trkpt><trkpt lat="43.1927133" lon="12.2605883"><ele>358.8571428571429</ele><time>2026-03-29T07:31:45.323Z</time></trkpt><trkpt lat="43.1927817" lon="12.2605883"><ele>359.28571428571433</ele><time>2026-03-29T07:31:46.324Z</time></trkpt><trkpt lat="43.1928617" lon="12.2605833"><ele>359.7142857142857</ele><time>2026-03-29T07:31:47.323Z</time></trkpt><trkpt lat="43.1929433" lon="12.2605817"><ele>360.1428571428571</ele><time>2026-03-29T07:31:48.323Z</time></trkpt><trkpt lat="43.19302" lon="12.2605883"><ele>360.5714285714286</ele><time>2026-03-29T07:31:49.32Z</time></trkpt><trkpt lat="43.1930917" lon="12.2606033"><ele>361.0</ele><time>2026-03-29T07:31:50.322Z</time></trkpt><trkpt lat="43.193155" lon="12.2606167"><ele>363.66666666666663</ele><time>2026-03-29T07:31:51.323Z</time></trkpt><trkpt lat="43.1932217" lon="12.2606117"><ele>366.3333333333333</ele><time>2026-03-29T07:31:52.322Z</time></trkpt><trkpt lat="43.193285" lon="12.2605933"><ele>369.0</ele><time>2026-03-29T07:31:53.32Z</time></trkpt><trkpt lat="43.193345" lon="12.2605583"><ele>371.6666666666667</ele><time>2026-03-29T07:31:54.324Z</time></trkpt><trkpt lat="43.1934533" lon="12.2604767"><ele>374.33333333333337</ele><time>2026-03-29T07:31:56.321Z</time></trkpt><trkpt lat="43.1935117" lon="12.2604217"><ele>377.0</ele><time>2026-03-29T07:31:57.322Z</time></trkpt><trkpt lat="43.1935667" lon="12.2603667"><ele>377.0</ele><time>2026-03-29T07:31:58.321Z</time></trkpt><trkpt lat="43.1936417" lon="12.2602683"><ele>377.0</ele><time>2026-03-29T07:32:00.319Z</time></trkpt><trkpt lat="43.1937017" lon="12.2601967"><ele>377.0</ele><time>2026-03-29T07:32:02.322Z</time></trkpt><trkpt lat="43.1937867" lon="12.26023"><ele>377.0</ele><time>2026-03-29T07:32:04.323Z</time></trkpt><trkpt lat="43.193905" lon="12.2602883"><ele>377.0</ele><time>2026-03-29T07:32:06.321Z</time></trkpt><trkpt lat="43.1939817" lon="12.2603167"><ele>376.6666666666667</ele><time>2026-03-29T07:32:07.323Z</time></trkpt><trkpt lat="43.1940633" lon="12.2603283"><ele>376.33333333333337</ele><time>2026-03-29T07:32:08.323Z</time></trkpt><trkpt lat="43.1941383" lon="12.2603117"><ele>376.0</ele><time>2026-03-29T07:32:09.324Z</time></trkpt><trkpt lat="43.19422" lon="12.2602767"><ele>375.6666666666667</ele><time>2026-03-29T07:32:10.323Z</time></trkpt><trkpt lat="43.1943083" lon="12.2602333"><ele>375.3333333333333</ele><time>2026-03-29T07:32:11.32Z</time></trkpt><trkpt lat="43.194405" lon="12.260195"><ele>375.0</ele><time>2026-03-29T07:32:12.322Z</time></trkpt><trkpt lat="43.1944967" lon="12.260155"><ele>375.0</ele><time>2026-03-29T07:32:13.32Z</time></trkpt><trkpt lat="43.194585" lon="12.2601283"><ele>375.0</ele><time>2026-03-29T07:32:14.322Z</time></trkpt><trkpt lat="43.1946667" lon="12.2601183"><ele>375.0</ele><time>2026-03-29T07:32:15.322Z</time></trkpt><trkpt lat="43.1947433" lon="12.26011"><ele>375.0</ele><time>2026-03-29T07:32:16.321Z</time></trkpt><trkpt lat="43.1948067" lon="12.2601167"><ele>375.0</ele><time>2026-03-29T07:32:17.322Z</time></trkpt><trkpt lat="43.1948817" lon="12.260115"><ele>375.0</ele><time>2026-03-29T07:32:18.323Z</time></trkpt><trkpt lat="43.1949667" lon="12.2601133"><ele>375.8333333333333</ele><time>2026-03-29T07:32:19.322Z</time></trkpt><trkpt lat="43.1950583" lon="12.2601117"><ele>376.6666666666667</ele><time>2026-03-29T07:32:20.322Z</time></trkpt><trkpt lat="43.1951433" lon="12.2601083"><ele>377.5</ele><time>2026-03-29T07:32:21.324Z</time></trkpt><trkpt lat="43.1952183" lon="12.2601217"><ele>378.33333333333337</ele><time>2026-03-29T07:32:22.322Z</time></trkpt><trkpt lat="43.1953133" lon="12.260215"><ele>379.1666666666667</ele><time>2026-03-29T07:32:24.322Z</time></trkpt><trkpt lat="43.1953667" lon="12.2602667"><ele>380.0</ele><time>2026-03-29T07:32:25.321Z</time></trkpt><trkpt lat="43.1954217" lon="12.2603117"><ele>380.0</ele><time>2026-03-29T07:32:26.323Z</time></trkpt><trkpt lat="43.1954817" lon="12.26034"><ele>380.0</ele><time>2026-03-29T07:32:27.322Z</time></trkpt><trkpt lat="43.195545" lon="12.26034"><ele>380.0</ele><time>2026-03-29T07:32:28.321Z</time></trkpt><trkpt lat="43.195625" lon="12.2603117"><ele>380.0</ele><time>2026-03-29T07:32:29.321Z</time></trkpt><trkpt lat="43.19571" lon="12.2602717"><ele>380.0</ele><time>2026-03-29T07:32:30.32Z</time></trkpt><trkpt lat="43.195785" lon="12.2602233"><ele>380.0</ele><time>2026-03-29T07:32:31.322Z</time></trkpt><trkpt lat="43.1958483" lon="12.2601683"><ele>380.33333333333337</ele><time>2026-03-29T07:32:32.321Z</time></trkpt><trkpt lat="43.1958933" lon="12.2601067"><ele>380.6666666666667</ele><time>2026-03-29T07:32:33.321Z</time></trkpt><trkpt lat="43.195965" lon="12.26002"><ele>381.0</ele><time>2026-03-29T07:32:35.32Z</time></trkpt><trkpt lat="43.196035" lon="12.2600017"><ele>381.3333333333333</ele><time>2026-03-29T07:32:37.321Z</time></trkpt><trkpt lat="43.1961167" lon="12.259995"><ele>381.66666666666663</ele><time>2026-03-29T07:32:40.32Z</time></trkpt><trkpt lat="43.1962267" lon="12.2600117"><ele>382.0</ele><time>2026-03-29T07:32:42.319Z</time></trkpt><trkpt lat="43.1962983" lon="12.2600133"><ele>382.0</ele><time>2026-03-29T07:32:43.322Z</time></trkpt><trkpt lat="43.1963667" lon="12.26002"><ele>382.0</ele><time>2026-03-29T07:32:44.328Z</time></trkpt><trkpt lat="43.196435" lon="12.260035"><ele>382.0</ele><time>2026-03-29T07:32:45.32Z</time></trkpt><trkpt lat="43.1965" lon="12.2600517"><ele>382.0</ele><time>2026-03-29T07:32:46.324Z</time></trkpt><trkpt lat="43.1965633" lon="12.2600683"><ele>382.0</ele><time>2026-03-29T07:32:47.324Z</time></trkpt><trkpt lat="43.196665" lon="12.2600917"><ele>382.0</ele><time>2026-03-29T07:32:49.327Z</time></trkpt><trkpt lat="43.1967467" lon="12.26011"><ele>381.6</ele><time>2026-03-29T07:32:51.322Z</time></trkpt><trkpt lat="43.1968617" lon="12.2600833"><ele>381.20000000000005</ele><time>2026-03-29T07:32:53.322Z</time></trkpt><trkpt lat="43.196925" lon="12.2600517"><ele>380.8</ele><time>2026-03-29T07:32:54.321Z</time></trkpt><trkpt lat="43.19698" lon="12.260005"><ele>380.4</ele><time>2026-03-29T07:32:55.32Z</time></trkpt><trkpt lat="43.1970817" lon="12.2599017"><ele>380.0</ele><time>2026-03-29T07:32:57.321Z</time></trkpt><trkpt lat="43.1972017" lon="12.2598817"><ele>380.0</ele><time>2026-03-29T07:32:59.32Z</time></trkpt><trkpt lat="43.197315" lon="12.2599233"><ele>380.0</ele><time>2026-03-29T07:33:01.324Z</time></trkpt><trkpt lat="43.19743" lon="12.25997"><ele>380.0</ele><time>2026-03-29T07:33:03.321Z</time></trkpt><trkpt lat="43.1974917" lon="12.2599883"><ele>380.0</ele><time>2026-03-29T07:33:04.321Z</time></trkpt><trkpt lat="43.197555" lon="12.2599917"><ele>380.0</ele><time>2026-03-29T07:33:05.321Z</time></trkpt><trkpt lat="43.1976817" lon="12.2599667"><ele>379.6</ele><time>2026-03-29T07:33:07.322Z</time></trkpt><trkpt lat="43.1977967" lon="12.25996"><ele>379.2</ele><time>2026-03-29T07:33:09.321Z</time></trkpt><trkpt lat="43.1979033" lon="12.2599783"><ele>378.79999999999995</ele><time>2026-03-29T07:33:11.322Z</time></trkpt><trkpt lat="43.1980083" lon="12.25999"><ele>378.4</ele><time>2026-03-29T07:33:13.323Z</time></trkpt><trkpt lat="43.19812" lon="12.26"><ele>378.0</ele><time>2026-03-29T07:33:15.322Z</time></trkpt><trkpt lat="43.198215" lon="12.259985"><ele>378.6666666666667</ele><time>2026-03-29T07:33:17.326Z</time></trkpt><trkpt lat="43.1983033" lon="12.2599433"><ele>379.3333333333333</ele><time>2026-03-29T07:33:19.32Z</time></trkpt><trkpt lat="43.1983883" lon="12.25991"><ele>380.0</ele><time>2026-03-29T07:33:21.322Z</time></trkpt><trkpt lat="43.19846" lon="12.2598867"><ele>380.66666666666663</ele><time>2026-03-29T07:33:23.323Z</time></trkpt><trkpt lat="43.1985283" lon="12.2598867"><ele>381.3333333333333</ele><time>2026-03-29T07:33:25.322Z</time></trkpt><trkpt lat="43.1986383" lon="12.25988"><ele>382.0</ele><time>2026-03-29T07:33:27.321Z</time></trkpt><trkpt lat="43.1987033" lon="12.2598667"><ele>382.0</ele><time>2026-03-29T07:33:28.319Z</time></trkpt><trkpt lat="43.1988167" lon="12.2598183"><ele>382.0</ele><time>2026-03-29T07:33:30.322Z</time></trkpt><trkpt lat="43.1989" lon="12.2597667"><ele>382.0</ele><time>2026-03-29T07:33:32.322Z</time></trkpt><trkpt lat="43.19896" lon="12.2597367"><ele>382.0</ele><time>2026-03-29T07:33:35.32Z</time></trkpt><trkpt lat="43.19906" lon="12.2596867"><ele>382.0</ele><time>2026-03-29T07:33:38.32Z</time></trkpt><trkpt lat="43.1991267" lon="12.25962"><ele>385.0</ele><time>2026-03-29T07:33:40.323Z</time></trkpt><trkpt lat="43.1991783" lon="12.2595583"><ele>388.0</ele><time>2026-03-29T07:33:55.321Z</time></trkpt><trkpt lat="43.199195" lon="12.2594483"><ele>391.0</ele><time>2026-03-29T07:33:57.322Z</time></trkpt><trkpt lat="43.1991983" lon="12.25932"><ele>394.0</ele><time>2026-03-29T07:33:59.322Z</time></trkpt><trkpt lat="43.1991883" lon="12.2592167"><ele>397.00000000000006</ele><time>2026-03-29T07:34:01.323Z</time></trkpt><trkpt lat="43.19917" lon="12.259125"><ele>400.0</ele><time>2026-03-29T07:34:04.326Z</time></trkpt><trkpt lat="43.1991433" lon="12.259035"><ele>402.8571428571429</ele><time>2026-03-29T07:37:19.326Z</time></trkpt><trkpt lat="43.1991217" lon="12.2589483"><ele>405.7142857142857</ele><time>2026-03-29T07:37:28.32Z</time></trkpt><trkpt lat="43.1990883" lon="12.25885"><ele>408.57142857142856</ele><time>2026-03-29T07:37:31.321Z</time></trkpt><trkpt lat="43.1990517" lon="12.2587733"><ele>411.42857142857144</ele><time>2026-03-29T07:37:34.324Z</time></trkpt><trkpt lat="43.1990267" lon="12.25869"><ele>414.2857142857143</ele><time>2026-03-29T07:37:38.322Z</time></trkpt><trkpt lat="43.1990367" lon="12.25859"><ele>417.14285714285717</ele><time>2026-03-29T07:37:44.326Z</time></trkpt><trkpt lat="43.19907" lon="12.2584967"><ele>420.0</ele><time>2026-03-29T07:37:50.322Z</time></trkpt><trkpt lat="43.199125" lon="12.25842"><ele>420.0</ele><time>2026-03-29T07:37:54.321Z</time></trkpt><trkpt lat="43.1991933" lon="12.2584267"><ele>420.0</ele><time>2026-03-29T07:38:19.323Z</time></trkpt><trkpt lat="43.19926" lon="12.2583717"><ele>420.0</ele><time>2026-03-29T07:38:27.322Z</time></trkpt><trkpt lat="43.1993233" lon="12.2583017"><ele>420.0</ele><time>2026-03-29T07:38:30.321Z</time></trkpt><trkpt lat="43.199355" lon="12.2582117"><ele>420.0</ele><time>2026-03-29T07:38:33.323Z</time></trkpt><trkpt lat="43.1993833" lon="12.2581183"><ele>420.0</ele><time>2026-03-29T07:38:35.321Z</time></trkpt><trkpt lat="43.199395" lon="12.2580117"><ele>424.0</ele><time>2026-03-29T07:38:37.323Z</time></trkpt><trkpt lat="43.1993967" lon="12.257865"><ele>428.0</ele><time>2026-03-29T07:38:39.325Z</time></trkpt><trkpt lat="43.1993917" lon="12.2577217"><ele>432.0</ele><time>2026-03-29T07:38:41.323Z</time></trkpt><trkpt lat="43.19939" lon="12.257605"><ele>436.0</ele><time>2026-03-29T07:38:43.324Z</time></trkpt><trkpt lat="43.199395" lon="12.257465"><ele>440.0</ele><time>2026-03-29T07:38:45.323Z</time></trkpt><trkpt lat="43.19939" lon="12.257335"><ele>444.99999999999994</ele><time>2026-03-29T07:38:47.323Z</time></trkpt><trkpt lat="43.1993467" lon="12.257205"><ele>450.0</ele><time>2026-03-29T07:38:49.319Z</time></trkpt><trkpt lat="43.1992517" lon="12.2571433"><ele>455.0</ele><time>2026-03-29T07:38:51.319Z</time></trkpt><trkpt lat="43.19919" lon="12.2571083"><ele>460.0</ele><time>2026-03-29T07:38:53.321Z</time></trkpt><trkpt lat="43.1992517" lon="12.2570633"><ele>464.99999999999994</ele><time>2026-03-29T07:38:55.322Z</time></trkpt><trkpt lat="43.1993183" lon="12.257055"><ele>470.0</ele><time>2026-03-29T07:38:56.321Z</time></trkpt><trkpt lat="43.1993983" lon="12.2570533"><ele>469.99999999999994</ele><time>2026-03-29T07:38:57.325Z</time></trkpt><trkpt lat="43.1994833" lon="12.2570533"><ele>470.0</ele><time>2026-03-29T07:38:58.323Z</time></trkpt><trkpt lat="43.1995633" lon="12.2570517"><ele>470.0</ele><time>2026-03-29T07:38:59.322Z</time></trkpt><trkpt lat="43.199635" lon="12.2570533"><ele>470.0</ele><time>2026-03-29T07:39:00.32Z</time></trkpt><trkpt lat="43.1997083" lon="12.2570533"><ele>469.99999999999994</ele><time>2026-03-29T07:39:01.321Z</time></trkpt><trkpt lat="43.1997833" lon="12.2570517"><ele>470.0</ele><time>2026-03-29T07:39:02.324Z</time></trkpt><trkpt lat="43.199865" lon="12.2570517"><ele>469.66666666666663</ele><time>2026-03-29T07:39:03.323Z</time></trkpt><trkpt lat="43.1999433" lon="12.2570583"><ele>469.3333333333333</ele><time>2026-03-29T07:39:04.322Z</time></trkpt><trkpt lat="43.2000167" lon="12.25708"><ele>469.0</ele><time>2026-03-29T07:39:05.322Z</time></trkpt><trkpt lat="43.2000833" lon="12.25712"><ele>468.66666666666663</ele><time>2026-03-29T07:39:06.32Z</time></trkpt><trkpt lat="43.2001467" lon="12.257165"><ele>468.3333333333333</ele><time>2026-03-29T07:39:07.318Z</time></trkpt><trkpt lat="43.2002083" lon="12.2572"><ele>468.0</ele><time>2026-03-29T07:39:08.322Z</time></trkpt><trkpt lat="43.2003167" lon="12.2572583"><ele>465.8333333333333</ele><time>2026-03-29T07:39:10.321Z</time></trkpt><trkpt lat="43.2004383" lon="12.2573067"><ele>463.66666666666663</ele><time>2026-03-29T07:39:12.32Z</time></trkpt><trkpt lat="43.200505" lon="12.2573167"><ele>461.5</ele><time>2026-03-29T07:39:13.32Z</time></trkpt><trkpt lat="43.2005767" lon="12.25731"><ele>459.3333333333333</ele><time>2026-03-29T07:39:14.323Z</time></trkpt><trkpt lat="43.200655" lon="12.2572883"><ele>457.16666666666663</ele><time>2026-03-29T07:39:15.326Z</time></trkpt><trkpt lat="43.2007333" lon="12.257255"><ele>455.0</ele><time>2026-03-29T07:39:16.324Z</time></trkpt><trkpt lat="43.2008117" lon="12.2572183"><ele>454.99999999999994</ele><time>2026-03-29T07:39:17.323Z</time></trkpt><trkpt lat="43.2008817" lon="12.2571683"><ele>455.0</ele><time>2026-03-29T07:39:18.322Z</time></trkpt><trkpt lat="43.2009517" lon="12.2571133"><ele>455.0</ele><time>2026-03-29T07:39:19.323Z</time></trkpt><trkpt lat="43.2010217" lon="12.2570667"><ele>455.0</ele><time>2026-03-29T07:39:20.324Z</time></trkpt><trkpt lat="43.2010817" lon="12.2570367"><ele>454.99999999999994</ele><time>2026-03-29T07:39:21.324Z</time></trkpt><trkpt lat="43.2011483" lon="12.2569967"><ele>455.0</ele><time>2026-03-29T07:39:23.322Z</time></trkpt><trkpt lat="43.20119" lon="12.2569017"><ele>455.0</ele><time>2026-03-29T07:39:25.322Z</time></trkpt><trkpt lat="43.2012283" lon="12.2567767"><ele>455.0</ele><time>2026-03-29T07:39:27.324Z</time></trkpt><trkpt lat="43.2012767" lon="12.256635"><ele>455.0</ele><time>2026-03-29T07:39:29.32Z</time></trkpt><trkpt lat="43.201345" lon="12.25652"><ele>455.0</ele><time>2026-03-29T07:39:31.323Z</time></trkpt><trkpt lat="43.201435" lon="12.2564783"><ele>455.0</ele><time>2026-03-29T07:39:33.324Z</time></trkpt><trkpt lat="43.2015483" lon="12.2564767"><ele>452.49999999999994</ele><time>2026-03-29T07:39:35.324Z</time></trkpt><trkpt lat="43.201615" lon="12.2564917"><ele>450.0</ele><time>2026-03-29T07:39:36.322Z</time></trkpt><trkpt lat="43.2016817" lon="12.2565117"><ele>447.5</ele><time>2026-03-29T07:39:37.325Z</time></trkpt><trkpt lat="43.2017933" lon="12.2565617"><ele>445.0</ele><time>2026-03-29T07:39:39.322Z</time></trkpt><trkpt lat="43.2018467" lon="12.25661"><ele>442.49999999999994</ele><time>2026-03-29T07:39:40.324Z</time></trkpt><trkpt lat="43.201905" lon="12.2566567"><ele>440.0</ele><time>2026-03-29T07:39:41.321Z</time></trkpt><trkpt lat="43.2019717" lon="12.2566767"><ele>439.99999999999994</ele><time>2026-03-29T07:39:42.32Z</time></trkpt><trkpt lat="43.2020367" lon="12.2566783"><ele>440.0</ele><time>2026-03-29T07:39:43.323Z</time></trkpt><trkpt lat="43.2021483" lon="12.2566517"><ele>440.0</ele><time>2026-03-29T07:39:45.321Z</time></trkpt><trkpt lat="43.2022433" lon="12.2566283"><ele>440.0</ele><time>2026-03-29T07:39:47.32Z</time></trkpt><trkpt lat="43.2022967" lon="12.25669"><ele>439.99999999999994</ele><time>2026-03-29T07:39:49.322Z</time></trkpt><trkpt lat="43.2022933" lon="12.256815"><ele>440.0</ele><time>2026-03-29T07:39:51.326Z</time></trkpt><trkpt lat="43.2022717" lon="12.2569267"><ele>440.0</ele><time>2026-03-29T07:39:53.32Z</time></trkpt><trkpt lat="43.2022933" lon="12.257035"><ele>440.0</ele><time>2026-03-29T07:39:56.322Z</time></trkpt><trkpt lat="43.2023833" lon="12.2569967"><ele>440.0</ele><time>2026-03-29T07:39:59.323Z</time></trkpt><trkpt lat="43.2024633" lon="12.25689"><ele>440.0</ele><time>2026-03-29T07:40:01.321Z</time></trkpt><trkpt lat="43.2025133" lon="12.2567783"><ele>440.0</ele><time>2026-03-29T07:40:03.32Z</time></trkpt><trkpt lat="43.202545" lon="12.2566633"><ele>441.16666666666663</ele><time>2026-03-29T07:40:05.322Z</time></trkpt><trkpt lat="43.2025767" lon="12.2565617"><ele>442.3333333333333</ele><time>2026-03-29T07:40:07.32Z</time></trkpt><trkpt lat="43.2026383" lon="12.2564883"><ele>443.5</ele><time>2026-03-29T07:40:09.322Z</time></trkpt><trkpt lat="43.20273" lon="12.2564683"><ele>444.66666666666663</ele><time>2026-03-29T07:40:11.32Z</time></trkpt><trkpt lat="43.2028117" lon="12.25644"><ele>445.8333333333333</ele><time>2026-03-29T07:40:14.322Z</time></trkpt><trkpt lat="43.2028833" lon="12.256435"><ele>447.0</ele><time>2026-03-29T07:40:17.323Z</time></trkpt><trkpt lat="43.2029267" lon="12.2565133"><ele>444.0</ele><time>2026-03-29T07:40:20.324Z</time></trkpt><trkpt lat="43.202925" lon="12.2566133"><ele>441.00000000000006</ele><time>2026-03-29T07:40:22.323Z</time></trkpt><trkpt lat="43.20289" lon="12.2567317"><ele>438.00000000000006</ele><time>2026-03-29T07:40:24.322Z</time></trkpt><trkpt lat="43.2028433" lon="12.2568467"><ele>435.0</ele><time>2026-03-29T07:40:26.324Z</time></trkpt><trkpt lat="43.2028267" lon="12.257015"><ele>432.0</ele><time>2026-03-29T07:40:28.323Z</time></trkpt><trkpt lat="43.202835" lon="12.2571417"><ele>430.8333333333333</ele><time>2026-03-29T07:40:29.323Z</time></trkpt><trkpt lat="43.2028433" lon="12.2572933"><ele>429.66666666666663</ele><time>2026-03-29T07:40:30.322Z</time></trkpt><trkpt lat="43.2028433" lon="12.2574233"><ele>428.5</ele><time>2026-03-29T07:40:31.322Z</time></trkpt><trkpt lat="43.202855" lon="12.25754"><ele>427.3333333333333</ele><time>2026-03-29T07:40:32.322Z</time></trkpt><trkpt lat="43.202875" lon="12.257635"><ele>426.16666666666663</ele><time>2026-03-29T07:40:33.326Z</time></trkpt><trkpt lat="43.20292" lon="12.2577117"><ele>425.0</ele><time>2026-03-29T07:40:34.322Z</time></trkpt><trkpt lat="43.2029633" lon="12.2577817"><ele>425.0</ele><time>2026-03-29T07:40:35.322Z</time></trkpt><trkpt lat="43.2030217" lon="12.2579033"><ele>425.0</ele><time>2026-03-29T07:40:37.32Z</time></trkpt><trkpt lat="43.2030533" lon="12.2579967"><ele>425.0</ele><time>2026-03-29T07:40:39.323Z</time></trkpt><trkpt lat="43.2030983" lon="12.2581033"><ele>425.0</ele><time>2026-03-29T07:40:41.32Z</time></trkpt><trkpt lat="43.20314" lon="12.258245"><ele>425.0</ele><time>2026-03-29T07:40:43.321Z</time></trkpt><trkpt lat="43.20316" lon="12.2583417"><ele>429.16666666666663</ele><time>2026-03-29T07:40:44.323Z</time></trkpt><trkpt lat="43.203175" lon="12.2584583"><ele>433.3333333333333</ele><time>2026-03-29T07:40:45.323Z</time></trkpt><trkpt lat="43.20319" lon="12.2585667"><ele>437.5</ele><time>2026-03-29T07:40:46.322Z</time></trkpt><trkpt lat="43.2031983" lon="12.2586717"><ele>441.66666666666663</ele><time>2026-03-29T07:40:47.324Z</time></trkpt><trkpt lat="43.2032017" lon="12.2587683"><ele>445.8333333333333</ele><time>2026-03-29T07:40:48.322Z</time></trkpt><trkpt lat="43.20317" lon="12.2589167"><ele>450.0</ele><time>2026-03-29T07:40:50.323Z</time></trkpt><trkpt lat="43.2031033" lon="12.2589917"><ele>450.0</ele><time>2026-03-29T07:40:52.322Z</time></trkpt><trkpt lat="43.2030467" lon="12.2590683"><ele>450.0</ele><time>2026-03-29T07:40:54.324Z</time></trkpt><trkpt lat="43.20312" lon="12.2591433"><ele>450.0</ele><time>2026-03-29T07:40:57.322Z</time></trkpt><trkpt lat="43.2032133" lon="12.2592133"><ele>450.0</ele><time>2026-03-29T07:40:59.32Z</time></trkpt><trkpt lat="43.20326" lon="12.259315"><ele>450.0</ele><time>2026-03-29T07:41:01.323Z</time></trkpt><trkpt lat="43.2031717" lon="12.2593183"><ele>450.0</ele><time>2026-03-29T07:41:04.325Z</time></trkpt><trkpt lat="43.2030417" lon="12.2593583"><ele>450.0</ele><time>2026-03-29T07:41:06.322Z</time></trkpt><trkpt lat="43.2029767" lon="12.2594017"><ele>450.0</ele><time>2026-03-29T07:41:07.323Z</time></trkpt><trkpt lat="43.20289" lon="12.2594483"><ele>450.0</ele><time>2026-03-29T07:41:08.323Z</time></trkpt><trkpt lat="43.2028033" lon="12.2594817"><ele>450.0</ele><time>2026-03-29T07:41:09.321Z</time></trkpt><trkpt lat="43.2027033" lon="12.2595117"><ele>450.0</ele><time>2026-03-29T07:41:10.323Z</time></trkpt><trkpt lat="43.20263" lon="12.259545"><ele>450.0</ele><time>2026-03-29T07:41:11.322Z</time></trkpt><trkpt lat="43.2025583" lon="12.2595883"><ele>450.0</ele><time>2026-03-29T07:41:12.321Z</time></trkpt><trkpt lat="43.2025067" lon="12.2596467"><ele>450.0</ele><time>2026-03-29T07:41:13.326Z</time></trkpt><trkpt lat="43.2024183" lon="12.25975"><ele>450.0</ele><time>2026-03-29T07:41:15.321Z</time></trkpt><trkpt lat="43.20233" lon="12.2598333"><ele>450.0</ele><time>2026-03-29T07:41:17.321Z</time></trkpt><trkpt lat="43.202285" lon="12.2598983"><ele>452.25</ele><time>2026-03-29T07:41:18.323Z</time></trkpt><trkpt lat="43.2021867" lon="12.2600067"><ele>454.5</ele><time>2026-03-29T07:41:20.321Z</time></trkpt><trkpt lat="43.20209" lon="12.2600967"><ele>456.75</ele><time>2026-03-29T07:41:22.325Z</time></trkpt><trkpt lat="43.2020117" lon="12.260185"><ele>459.0</ele><time>2026-03-29T07:41:24.324Z</time></trkpt><trkpt lat="43.2021083" lon="12.260245"><ele>459.0</ele><time>2026-03-29T07:41:28.321Z</time></trkpt><trkpt lat="43.20222" lon="12.2602667"><ele>459.0</ele><time>2026-03-29T07:41:30.323Z</time></trkpt><trkpt lat="43.202335" lon="12.2602533"><ele>459.0</ele><time>2026-03-29T07:41:32.322Z</time></trkpt><trkpt lat="43.2024383" lon="12.260285"><ele>459.0</ele><time>2026-03-29T07:41:34.322Z</time></trkpt><trkpt lat="43.2025483" lon="12.2603333"><ele>463.2</ele><time>2026-03-29T07:41:36.322Z</time></trkpt><trkpt lat="43.2026383" lon="12.260375"><ele>467.4</ele><time>2026-03-29T07:41:38.321Z</time></trkpt><trkpt lat="43.2027133" lon="12.2604483"><ele>471.6</ele><time>2026-03-29T07:41:40.322Z</time></trkpt><trkpt lat="43.20278" lon="12.2605417"><ele>475.8</ele><time>2026-03-29T07:41:42.323Z</time></trkpt><trkpt lat="43.2028367" lon="12.2606483"><ele>480.0</ele><time>2026-03-29T07:41:44.324Z</time></trkpt><trkpt lat="43.2029133" lon="12.260755"><ele>481.8</ele><time>2026-03-29T07:41:46.32Z</time></trkpt><trkpt lat="43.2029883" lon="12.2608467"><ele>483.6</ele><time>2026-03-29T07:41:48.324Z</time></trkpt><trkpt lat="43.2030883" lon="12.2609583"><ele>485.4</ele><time>2026-03-29T07:41:50.323Z</time></trkpt><trkpt lat="43.2031517" lon="12.2610033"><ele>487.2</ele><time>2026-03-29T07:41:51.327Z</time></trkpt><trkpt lat="43.2032267" lon="12.2610417"><ele>489.0</ele><time>2026-03-29T07:41:52.322Z</time></trkpt><trkpt lat="43.2032933" lon="12.2610817"><ele>492.1666666666667</ele><time>2026-03-29T07:41:53.323Z</time></trkpt><trkpt lat="43.2033583" lon="12.2611167"><ele>495.33333333333337</ele><time>2026-03-29T07:41:54.322Z</time></trkpt><trkpt lat="43.2034217" lon="12.2611483"><ele>498.5</ele><time>2026-03-29T07:41:55.322Z</time></trkpt><trkpt lat="43.2034833" lon="12.2611733"><ele>501.6666666666667</ele><time>2026-03-29T07:41:56.322Z</time></trkpt><trkpt lat="43.2035467" lon="12.261185"><ele>504.83333333333337</ele><time>2026-03-29T07:41:57.322Z</time></trkpt><trkpt lat="43.2036433" lon="12.2612317"><ele>508.0</ele><time>2026-03-29T07:41:59.325Z</time></trkpt><trkpt lat="43.2037217" lon="12.2613467"><ele>508.0</ele><time>2026-03-29T07:42:01.323Z</time></trkpt><trkpt lat="43.2037633" lon="12.2614283"><ele>508.0</ele><time>2026-03-29T07:42:02.323Z</time></trkpt><trkpt lat="43.2038033" lon="12.261515"><ele>508.0</ele><time>2026-03-29T07:42:03.323Z</time></trkpt><trkpt lat="43.2038483" lon="12.2615983"><ele>508.0</ele><time>2026-03-29T07:42:04.323Z</time></trkpt><trkpt lat="43.203895" lon="12.2616733"><ele>508.0</ele><time>2026-03-29T07:42:05.32Z</time></trkpt><trkpt lat="43.2039417" lon="12.2617333"><ele>508.0</ele><time>2026-03-29T07:42:06.325Z</time></trkpt><trkpt lat="43.2039983" lon="12.261795"><ele>508.0</ele><time>2026-03-29T07:42:07.325Z</time></trkpt><trkpt lat="43.2040567" lon="12.2618467"><ele>509.6666666666667</ele><time>2026-03-29T07:42:08.322Z</time></trkpt><trkpt lat="43.20412" lon="12.26189"><ele>511.33333333333337</ele><time>2026-03-29T07:42:09.322Z</time></trkpt><trkpt lat="43.2042033" lon="12.2619217"><ele>513.0</ele><time>2026-03-29T07:42:10.321Z</time></trkpt><trkpt lat="43.20435" lon="12.2619567"><ele>514.6666666666666</ele><time>2026-03-29T07:42:12.32Z</time></trkpt><trkpt lat="43.2044183" lon="12.2619717"><ele>516.3333333333333</ele><time>2026-03-29T07:42:13.324Z</time></trkpt><trkpt lat="43.2044833" lon="12.261995"><ele>518.0</ele><time>2026-03-29T07:42:14.322Z</time></trkpt><trkpt lat="43.2045417" lon="12.26203"><ele>518.0</ele><time>2026-03-29T07:42:15.322Z</time></trkpt><trkpt lat="43.204595" lon="12.26208"><ele>518.0</ele><time>2026-03-29T07:42:16.324Z</time></trkpt><trkpt lat="43.2046417" lon="12.26214"><ele>518.0</ele><time>2026-03-29T07:42:17.321Z</time></trkpt><trkpt lat="43.2046833" lon="12.262205"><ele>518.0</ele><time>2026-03-29T07:42:18.321Z</time></trkpt><trkpt lat="43.2047567" lon="12.26233"><ele>518.0</ele><time>2026-03-29T07:42:20.324Z</time></trkpt><trkpt lat="43.2048383" lon="12.2624117"><ele>518.0</ele><time>2026-03-29T07:42:22.321Z</time></trkpt><trkpt lat="43.20493" lon="12.2624867"><ele>520.1999999999999</ele><time>2026-03-29T07:42:24.321Z</time></trkpt><trkpt lat="43.205045" lon="12.2625367"><ele>522.4</ele><time>2026-03-29T07:42:26.319Z</time></trkpt><trkpt lat="43.20514" lon="12.2625617"><ele>524.5999999999999</ele><time>2026-03-29T07:42:28.319Z</time></trkpt><trkpt lat="43.2052617" lon="12.262635"><ele>526.8</ele><time>2026-03-29T07:42:51.321Z</time></trkpt><trkpt lat="43.205335" lon="12.26268"><ele>529.0</ele><time>2026-03-29T07:42:53.321Z</time></trkpt><trkpt lat="43.2054083" lon="12.2628033"><ele>529.0</ele><time>2026-03-29T07:42:55.322Z</time></trkpt><trkpt lat="43.2054617" lon="12.2629417"><ele>529.0</ele><time>2026-03-29T07:42:57.325Z</time></trkpt><trkpt lat="43.2055367" lon="12.2630667"><ele>529.0</ele><time>2026-03-29T07:42:59.324Z</time></trkpt><trkpt lat="43.2056183" lon="12.26317"><ele>529.0</ele><time>2026-03-29T07:43:01.323Z</time></trkpt><trkpt lat="43.2056783" lon="12.2632483"><ele>529.0</ele><time>2026-03-29T07:43:03.325Z</time></trkpt><trkpt lat="43.2057417" lon="12.2633317"><ele>531.4</ele><time>2026-03-29T07:43:05.321Z</time></trkpt><trkpt lat="43.2058283" lon="12.26342"><ele>533.8</ele><time>2026-03-29T07:43:07.321Z</time></trkpt><trkpt lat="43.20589" lon="12.2634617"><ele>536.2</ele><time>2026-03-29T07:43:08.323Z</time></trkpt><trkpt lat="43.2059733" lon="12.26351"><ele>538.6</ele><time>2026-03-29T07:43:09.323Z</time></trkpt><trkpt lat="43.2060667" lon="12.2635883"><ele>541.0</ele><time>2026-03-29T07:43:11.322Z</time></trkpt><trkpt lat="43.20615" lon="12.2636367"><ele>541.0</ele><time>2026-03-29T07:43:13.322Z</time></trkpt><trkpt lat="43.206265" lon="12.2637567"><ele>541.0</ele><time>2026-03-29T07:43:15.321Z</time></trkpt><trkpt lat="43.206325" lon="12.26385"><ele>541.0</ele><time>2026-03-29T07:43:16.323Z</time></trkpt><trkpt lat="43.206385" lon="12.2639433"><ele>541.0</ele><time>2026-03-29T07:43:17.325Z</time></trkpt><trkpt lat="43.2064417" lon="12.2640367"><ele>541.0</ele><time>2026-03-29T07:43:18.319Z</time></trkpt><trkpt lat="43.206495" lon="12.2641333"><ele>542.3333333333334</ele><time>2026-03-29T07:43:19.319Z</time></trkpt><trkpt lat="43.206535" lon="12.264235"><ele>543.6666666666667</ele><time>2026-03-29T07:43:20.323Z</time></trkpt><trkpt lat="43.2065633" lon="12.26434"><ele>545.0</ele><time>2026-03-29T07:43:21.323Z</time></trkpt><trkpt lat="43.20657" lon="12.2644433"><ele>546.3333333333334</ele><time>2026-03-29T07:43:22.323Z</time></trkpt><trkpt lat="43.20656" lon="12.2645433"><ele>547.6666666666666</ele><time>2026-03-29T07:43:23.32Z</time></trkpt><trkpt lat="43.2065367" lon="12.2646317"><ele>549.0</ele><time>2026-03-29T07:43:24.322Z</time></trkpt><trkpt lat="43.206485" lon="12.2647717"><ele>547.2</ele><time>2026-03-29T07:43:26.325Z</time></trkpt><trkpt lat="43.206455" lon="12.26488"><ele>545.4</ele><time>2026-03-29T07:43:28.326Z</time></trkpt><trkpt lat="43.20649" lon="12.26499"><ele>543.6</ele><time>2026-03-29T07:43:30.324Z</time></trkpt><trkpt lat="43.2066133" lon="12.265075"><ele>541.8</ele><time>2026-03-29T07:43:32.32Z</time></trkpt><trkpt lat="43.2067067" lon="12.265095"><ele>540.0</ele><time>2026-03-29T07:43:33.323Z</time></trkpt><trkpt lat="43.2068167" lon="12.2650917"><ele>540.0</ele><time>2026-03-29T07:43:34.32Z</time></trkpt><trkpt lat="43.2069267" lon="12.265065"><ele>540.0</ele><time>2026-03-29T07:43:35.322Z</time></trkpt><trkpt lat="43.2070233" lon="12.2650183"><ele>540.0</ele><time>2026-03-29T07:43:36.321Z</time></trkpt><trkpt lat="43.2071167" lon="12.264955"><ele>540.0</ele><time>2026-03-29T07:43:37.324Z</time></trkpt><trkpt lat="43.2072" lon="12.2648767"><ele>540.0</ele><time>2026-03-29T07:43:38.32Z</time></trkpt><trkpt lat="43.2072683" lon="12.26479"><ele>543.0</ele><time>2026-03-29T07:43:39.32Z</time></trkpt><trkpt lat="43.2073333" lon="12.264715"><ele>546.0</ele><time>2026-03-29T07:43:40.321Z</time></trkpt><trkpt lat="43.207405" lon="12.26466"><ele>549.0</ele><time>2026-03-29T07:43:41.324Z</time></trkpt><trkpt lat="43.2074883" lon="12.26462"><ele>552.0</ele><time>2026-03-29T07:43:42.321Z</time></trkpt><trkpt lat="43.207585" lon="12.2645933"><ele>555.0</ele><time>2026-03-29T07:43:43.323Z</time></trkpt><trkpt lat="43.20769" lon="12.2645617"><ele>555.0</ele><time>2026-03-29T07:43:44.32Z</time></trkpt><trkpt lat="43.2077883" lon="12.26453"><ele>555.0</ele><time>2026-03-29T07:43:45.323Z</time></trkpt><trkpt lat="43.2078783" lon="12.2644917"><ele>555.0</ele><time>2026-03-29T07:43:46.323Z</time></trkpt><trkpt lat="43.2079617" lon="12.26445"><ele>555.0</ele><time>2026-03-29T07:43:47.324Z</time></trkpt><trkpt lat="43.2080433" lon="12.264405"><ele>555.0</ele><time>2026-03-29T07:43:48.32Z</time></trkpt><trkpt lat="43.2081317" lon="12.2643667"><ele>552.8</ele><time>2026-03-29T07:43:49.321Z</time></trkpt><trkpt lat="43.2082267" lon="12.2643317"><ele>550.6</ele><time>2026-03-29T07:43:50.321Z</time></trkpt><trkpt lat="43.2083267" lon="12.2643133"><ele>548.4</ele><time>2026-03-29T07:43:51.325Z</time></trkpt><trkpt lat="43.2084267" lon="12.2643083"><ele>546.2</ele><time>2026-03-29T07:43:52.323Z</time></trkpt><trkpt lat="43.2085217" lon="12.2643117"><ele>544.0</ele><time>2026-03-29T07:43:53.324Z</time></trkpt><trkpt lat="43.2086133" lon="12.2643183"><ele>544.0</ele><time>2026-03-29T07:43:54.32Z</time></trkpt><trkpt lat="43.2087067" lon="12.2643217"><ele>544.0</ele><time>2026-03-29T07:43:55.321Z</time></trkpt><trkpt lat="43.2088033" lon="12.2643233"><ele>544.0</ele><time>2026-03-29T07:43:56.32Z</time></trkpt><trkpt lat="43.2088983" lon="12.2643233"><ele>544.0</ele><time>2026-03-29T07:43:57.32Z</time></trkpt><trkpt lat="43.208995" lon="12.2643267"><ele>544.0</ele><time>2026-03-29T07:43:58.319Z</time></trkpt><trkpt lat="43.2090917" lon="12.26433"><ele>545.6</ele><time>2026-03-29T07:43:59.322Z</time></trkpt><trkpt lat="43.209185" lon="12.264335"><ele>547.2</ele><time>2026-03-29T07:44:00.319Z</time></trkpt><trkpt lat="43.2092767" lon="12.26434"><ele>548.8000000000001</ele><time>2026-03-29T07:44:01.322Z</time></trkpt><trkpt lat="43.2093667" lon="12.264345"><ele>550.4</ele><time>2026-03-29T07:44:02.32Z</time></trkpt><trkpt lat="43.2094583" lon="12.2643483"><ele>552.0</ele><time>2026-03-29T07:44:03.32Z</time></trkpt><trkpt lat="43.209545" lon="12.2643533"><ele>552.0</ele><time>2026-03-29T07:44:04.319Z</time></trkpt><trkpt lat="43.209625" lon="12.264355"><ele>552.0</ele><time>2026-03-29T07:44:05.322Z</time></trkpt><trkpt lat="43.209705" lon="12.2643567"><ele>552.0</ele><time>2026-03-29T07:44:06.322Z</time></trkpt><trkpt lat="43.20978" lon="12.2643667"><ele>552.0</ele><time>2026-03-29T07:44:07.323Z</time></trkpt><trkpt lat="43.209845" lon="12.26439"><ele>552.0</ele><time>2026-03-29T07:44:08.321Z</time></trkpt><trkpt lat="43.2099017" lon="12.264435"><ele>552.0</ele><time>2026-03-29T07:44:09.322Z</time></trkpt><trkpt lat="43.209955" lon="12.2645017"><ele>552.0</ele><time>2026-03-29T07:44:10.321Z</time></trkpt><trkpt lat="43.210005" lon="12.2645817"><ele>552.5</ele><time>2026-03-29T07:44:11.319Z</time></trkpt><trkpt lat="43.2100483" lon="12.2646617"><ele>553.0</ele><time>2026-03-29T07:44:12.321Z</time></trkpt><trkpt lat="43.2100917" lon="12.2647267"><ele>553.5</ele><time>2026-03-29T07:44:13.325Z</time></trkpt><trkpt lat="43.2101767" lon="12.2647817"><ele>554.0</ele><time>2026-03-29T07:44:15.322Z</time></trkpt><trkpt lat="43.210315" lon="12.264765"><ele>554.5</ele><time>2026-03-29T07:44:17.322Z</time></trkpt><trkpt lat="43.21039" lon="12.2647583"><ele>555.0</ele><time>2026-03-29T07:44:18.322Z</time></trkpt><trkpt lat="43.210475" lon="12.2647533"><ele>555.0</ele><time>2026-03-29T07:44:19.325Z</time></trkpt><trkpt lat="43.21056" lon="12.264745"><ele>555.0</ele><time>2026-03-29T07:44:20.325Z</time></trkpt><trkpt lat="43.2107167" lon="12.2647633"><ele>555.0</ele><time>2026-03-29T07:44:22.321Z</time></trkpt><trkpt lat="43.2107833" lon="12.2647883"><ele>555.0</ele><time>2026-03-29T07:44:23.323Z</time></trkpt><trkpt lat="43.2108467" lon="12.2648083"><ele>555.0</ele><time>2026-03-29T07:44:24.324Z</time></trkpt><trkpt lat="43.210915" lon="12.2648167"><ele>555.0</ele><time>2026-03-29T07:44:25.321Z</time></trkpt><trkpt lat="43.210985" lon="12.26482"><ele>556.0</ele><time>2026-03-29T07:44:26.323Z</time></trkpt><trkpt lat="43.21105" lon="12.2648217"><ele>557.0</ele><time>2026-03-29T07:44:27.322Z</time></trkpt><trkpt lat="43.211165" lon="12.264815"><ele>558.0</ele><time>2026-03-29T07:44:29.324Z</time></trkpt><trkpt lat="43.2112667" lon="12.2647567"><ele>559.0</ele><time>2026-03-29T07:44:31.321Z</time></trkpt><trkpt lat="43.2113383" lon="12.264615"><ele>560.0</ele><time>2026-03-29T07:44:33.321Z</time></trkpt><trkpt lat="43.2114167" lon="12.2644867"><ele>559.5</ele><time>2026-03-29T07:44:35.319Z</time></trkpt><trkpt lat="43.2115183" lon="12.264445"><ele>559.0</ele><time>2026-03-29T07:44:37.322Z</time></trkpt><trkpt lat="43.2116183" lon="12.2645"><ele>558.5</ele><time>2026-03-29T07:44:39.324Z</time></trkpt><trkpt lat="43.211675" lon="12.2645417"><ele>558.0</ele><time>2026-03-29T07:44:40.321Z</time></trkpt><trkpt lat="43.2117383" lon="12.2645783"><ele>557.5</ele><time>2026-03-29T07:44:41.323Z</time></trkpt><trkpt lat="43.2118017" lon="12.2646083"><ele>557.0</ele><time>2026-03-29T07:44:42.322Z</time></trkpt><trkpt lat="43.2118683" lon="12.264615"><ele>557.0</ele><time>2026-03-29T07:44:43.323Z</time></trkpt><trkpt lat="43.21199" lon="12.264595"><ele>557.0</ele><time>2026-03-29T07:44:45.324Z</time></trkpt><trkpt lat="43.2120933" lon="12.2645967"><ele>557.0</ele><time>2026-03-29T07:44:47.322Z</time></trkpt><trkpt lat="43.212175" lon="12.2646183"><ele>557.0</ele><time>2026-03-29T07:44:50.323Z</time></trkpt><trkpt lat="43.2122383" lon="12.26462"><ele>557.0</ele><time>2026-03-29T07:44:53.322Z</time></trkpt><trkpt lat="43.212335" lon="12.2646167"><ele>556.0</ele><time>2026-03-29T07:44:55.322Z</time></trkpt><trkpt lat="43.2124417" lon="12.2645883"><ele>555.0</ele><time>2026-03-29T07:44:57.322Z</time></trkpt><trkpt lat="43.2124983" lon="12.2645467"><ele>554.0</ele><time>2026-03-29T07:44:58.32Z</time></trkpt><trkpt lat="43.2125567" lon="12.2644933"><ele>553.0</ele><time>2026-03-29T07:44:59.321Z</time></trkpt><trkpt lat="43.2126167" lon="12.264445"><ele>552.0</ele><time>2026-03-29T07:45:00.323Z</time></trkpt><trkpt lat="43.2126783" lon="12.2644033"><ele>551.0</ele><time>2026-03-29T07:45:01.32Z</time></trkpt><trkpt lat="43.2127733" lon="12.264375"><ele>551.0</ele><time>2026-03-29T07:45:03.322Z</time></trkpt><trkpt lat="43.2128567" lon="12.2643667"><ele>551.0</ele><time>2026-03-29T07:45:06.319Z</time></trkpt><trkpt lat="43.2129367" lon="12.2643517"><ele>551.0</ele><time>2026-03-29T07:45:08.321Z</time></trkpt><trkpt lat="43.21305" lon="12.2643867"><ele>551.0</ele><time>2026-03-29T07:45:10.322Z</time></trkpt><trkpt lat="43.21312" lon="12.2644017"><ele>551.0</ele><time>2026-03-29T07:45:11.322Z</time></trkpt><trkpt lat="43.213185" lon="12.2644167"><ele>551.0</ele><time>2026-03-29T07:45:12.319Z</time></trkpt><trkpt lat="43.2132967" lon="12.2643883"><ele>547.4</ele><time>2026-03-29T07:45:14.323Z</time></trkpt><trkpt lat="43.2133833" lon="12.2643317"><ele>543.8</ele><time>2026-03-29T07:45:16.322Z</time></trkpt><trkpt lat="43.213455" lon="12.264225"><ele>540.1999999999999</ele><time>2026-03-29T07:45:18.32Z</time></trkpt><trkpt lat="43.2134967" lon="12.26408"><ele>536.6</ele><time>2026-03-29T07:45:20.32Z</time></trkpt><trkpt lat="43.2135067" lon="12.2639883"><ele>533.0</ele><time>2026-03-29T07:45:21.322Z</time></trkpt><trkpt lat="43.2135033" lon="12.2638733"><ele>532.3333333333333</ele><time>2026-03-29T07:45:22.325Z</time></trkpt><trkpt lat="43.2134933" lon="12.26375"><ele>531.6666666666666</ele><time>2026-03-29T07:45:23.324Z</time></trkpt><trkpt lat="43.2134883" lon="12.26363"><ele>531.0</ele><time>2026-03-29T07:45:24.323Z</time></trkpt><trkpt lat="43.2134933" lon="12.263525"><ele>530.3333333333334</ele><time>2026-03-29T07:45:25.321Z</time></trkpt><trkpt lat="43.2135" lon="12.2634267"><ele>529.6666666666667</ele><time>2026-03-29T07:45:26.319Z</time></trkpt><trkpt lat="43.2135083" lon="12.2633367"><ele>529.0</ele><time>2026-03-29T07:45:27.323Z</time></trkpt><trkpt lat="43.213495" lon="12.26318"><ele>528.4</ele><time>2026-03-29T07:45:29.32Z</time></trkpt><trkpt lat="43.2134367" lon="12.2630483"><ele>527.8</ele><time>2026-03-29T07:45:31.323Z</time></trkpt><trkpt lat="43.2133583" lon="12.262925"><ele>527.2</ele><time>2026-03-29T07:45:33.324Z</time></trkpt><trkpt lat="43.21329" lon="12.2628133"><ele>526.6</ele><time>2026-03-29T07:45:35.324Z</time></trkpt><trkpt lat="43.2132933" lon="12.2627067"><ele>526.0</ele><time>2026-03-29T07:45:37.32Z</time></trkpt><trkpt lat="43.2133583" lon="12.2626017"><ele>526.0</ele><time>2026-03-29T07:45:39.323Z</time></trkpt><trkpt lat="43.21343" lon="12.2624767"><ele>526.0</ele><time>2026-03-29T07:45:41.321Z</time></trkpt><trkpt lat="43.2134633" lon="12.262395"><ele>526.0</ele><time>2026-03-29T07:45:42.322Z</time></trkpt><trkpt lat="43.2134917" lon="12.2623133"><ele>526.0</ele><time>2026-03-29T07:45:43.324Z</time></trkpt><trkpt lat="43.2135167" lon="12.2622317"><ele>526.0</ele><time>2026-03-29T07:45:44.323Z</time></trkpt><trkpt lat="43.2135483" lon="12.2621467"><ele>526.0</ele><time>2026-03-29T07:45:45.32Z</time></trkpt><trkpt lat="43.2135817" lon="12.2620667"><ele>526.0</ele><time>2026-03-29T07:45:46.32Z</time></trkpt><trkpt lat="43.21362" lon="12.26199"><ele>526.0</ele><time>2026-03-29T07:45:47.321Z</time></trkpt><trkpt lat="43.213655" lon="12.2619167"><ele>526.0</ele><time>2026-03-29T07:45:48.321Z</time></trkpt><trkpt lat="43.2137167" lon="12.2617817"><ele>526.0</ele><time>2026-03-29T07:45:50.321Z</time></trkpt><trkpt lat="43.2137783" lon="12.261625"><ele>526.0</ele><time>2026-03-29T07:45:52.322Z</time></trkpt><trkpt lat="43.2137983" lon="12.2615417"><ele>526.0</ele><time>2026-03-29T07:45:53.325Z</time></trkpt><trkpt lat="43.2138183" lon="12.2614033"><ele>526.0</ele><time>2026-03-29T07:45:55.324Z</time></trkpt><trkpt lat="43.2137567" lon="12.2612967"><ele>526.0</ele><time>2026-03-29T07:45:57.321Z</time></trkpt><trkpt lat="43.2137" lon="12.2612533"><ele>526.0</ele><time>2026-03-29T07:45:58.324Z</time></trkpt><trkpt lat="43.2136467" lon="12.261195"><ele>526.0</ele><time>2026-03-29T07:45:59.322Z</time></trkpt><trkpt lat="43.2135967" lon="12.2611317"><ele>526.0</ele><time>2026-03-29T07:46:00.322Z</time></trkpt><trkpt lat="43.2135433" lon="12.2610733"><ele>526.0</ele><time>2026-03-29T07:46:01.323Z</time></trkpt><trkpt lat="43.21344" lon="12.2609767"><ele>526.0</ele><time>2026-03-29T07:46:03.322Z</time></trkpt><trkpt lat="43.213345" lon="12.260895"><ele>526.0</ele><time>2026-03-29T07:46:05.322Z</time></trkpt><trkpt lat="43.2133033" lon="12.2607967"><ele>526.0</ele><time>2026-03-29T07:46:07.321Z</time></trkpt><trkpt lat="43.2133783" lon="12.26071"><ele>526.0</ele><time>2026-03-29T07:46:10.324Z</time></trkpt><trkpt lat="43.2134883" lon="12.2606667"><ele>526.0</ele><time>2026-03-29T07:46:12.32Z</time></trkpt><trkpt lat="43.2135417" lon="12.260615"><ele>528.1428571428571</ele><time>2026-03-29T07:46:13.321Z</time></trkpt><trkpt lat="43.2135967" lon="12.2605417"><ele>530.2857142857142</ele><time>2026-03-29T07:46:14.321Z</time></trkpt><trkpt lat="43.213655" lon="12.2604783"><ele>532.4285714285714</ele><time>2026-03-29T07:46:15.323Z</time></trkpt><trkpt lat="43.213715" lon="12.2604267"><ele>534.5714285714286</ele><time>2026-03-29T07:46:16.323Z</time></trkpt><trkpt lat="43.2137767" lon="12.2603883"><ele>536.7142857142858</ele><time>2026-03-29T07:46:17.322Z</time></trkpt><trkpt lat="43.2138367" lon="12.2603483"><ele>538.8571428571429</ele><time>2026-03-29T07:46:18.32Z</time></trkpt><trkpt lat="43.21391" lon="12.26029"><ele>541.0</ele><time>2026-03-29T07:46:20.321Z</time></trkpt><trkpt lat="43.2138483" lon="12.2602067"><ele>541.0</ele><time>2026-03-29T07:46:29.321Z</time></trkpt><trkpt lat="43.2137833" lon="12.26011"><ele>541.0</ele><time>2026-03-29T07:46:31.322Z</time></trkpt><trkpt lat="43.21374" lon="12.2600333"><ele>541.0</ele><time>2026-03-29T07:46:33.322Z</time></trkpt><trkpt lat="43.2136917" lon="12.259975"><ele>541.0</ele><time>2026-03-29T07:46:35.321Z</time></trkpt><trkpt lat="43.213595" lon="12.2599833"><ele>541.0</ele><time>2026-03-29T07:46:38.323Z</time></trkpt><trkpt lat="43.213485" lon="12.259975"><ele>541.0</ele><time>2026-03-29T07:46:40.324Z</time></trkpt><trkpt lat="43.21341" lon="12.25996"><ele>541.0</ele><time>2026-03-29T07:46:41.323Z</time></trkpt><trkpt lat="43.2133017" lon="12.2599333"><ele>541.0</ele><time>2026-03-29T07:46:43.324Z</time></trkpt><trkpt lat="43.2132083" lon="12.2599383"><ele>541.0</ele><time>2026-03-29T07:46:45.322Z</time></trkpt><trkpt lat="43.2131267" lon="12.2599633"><ele>541.0</ele><time>2026-03-29T07:46:47.322Z</time></trkpt><trkpt lat="43.21304" lon="12.2599833"><ele>541.0</ele><time>2026-03-29T07:46:49.323Z</time></trkpt><trkpt lat="43.2129267" lon="12.259985"><ele>543.8571428571429</ele><time>2026-03-29T07:46:51.323Z</time></trkpt><trkpt lat="43.2128633" lon="12.2600017"><ele>546.7142857142858</ele><time>2026-03-29T07:46:52.322Z</time></trkpt><trkpt lat="43.21279" lon="12.260025"><ele>549.5714285714286</ele><time>2026-03-29T07:46:53.322Z</time></trkpt><trkpt lat="43.212725" lon="12.26004"><ele>552.4285714285714</ele><time>2026-03-29T07:46:54.324Z</time></trkpt><trkpt lat="43.2126633" lon="12.2600633"><ele>555.2857142857142</ele><time>2026-03-29T07:46:55.321Z</time></trkpt><trkpt lat="43.2125717" lon="12.2601"><ele>558.1428571428571</ele><time>2026-03-29T07:46:57.322Z</time></trkpt><trkpt lat="43.2124983" lon="12.260095"><ele>561.0</ele><time>2026-03-29T07:46:59.323Z</time></trkpt><trkpt lat="43.2124133" lon="12.2600517"><ele>561.0</ele><time>2026-03-29T07:47:02.322Z</time></trkpt><trkpt lat="43.2124" lon="12.2599667"><ele>561.0</ele><time>2026-03-29T07:47:05.322Z</time></trkpt><trkpt lat="43.212475" lon="12.259865"><ele>561.0</ele><time>2026-03-29T07:47:08.32Z</time></trkpt><trkpt lat="43.2125333" lon="12.2598067"><ele>561.0</ele><time>2026-03-29T07:47:09.323Z</time></trkpt><trkpt lat="43.21259" lon="12.259755"><ele>561.0</ele><time>2026-03-29T07:47:10.323Z</time></trkpt><trkpt lat="43.2126483" lon="12.2596933"><ele>561.0</ele><time>2026-03-29T07:47:11.321Z</time></trkpt><trkpt lat="43.2126917" lon="12.2596267"><ele>561.0</ele><time>2026-03-29T07:47:12.322Z</time></trkpt><trkpt lat="43.212735" lon="12.2595517"><ele>564.8333333333334</ele><time>2026-03-29T07:47:13.321Z</time></trkpt><trkpt lat="43.2127817" lon="12.2594733"><ele>568.6666666666666</ele><time>2026-03-29T07:47:14.32Z</time></trkpt><trkpt lat="43.21283" lon="12.2593917"><ele>572.5</ele><time>2026-03-29T07:47:15.322Z</time></trkpt><trkpt lat="43.2128767" lon="12.2593167"><ele>576.3333333333333</ele><time>2026-03-29T07:47:16.325Z</time></trkpt><trkpt lat="43.2129233" lon="12.25925"><ele>580.1666666666666</ele><time>2026-03-29T07:47:17.327Z</time></trkpt><trkpt lat="43.2129833" lon="12.2591417"><ele>584.0</ele><time>2026-03-29T07:47:19.322Z</time></trkpt><trkpt lat="43.2129883" lon="12.259"><ele>586.0</ele><time>2026-03-29T07:47:21.321Z</time></trkpt><trkpt lat="43.2129733" lon="12.2589117"><ele>588.0</ele><time>2026-03-29T07:47:22.323Z</time></trkpt><trkpt lat="43.2129683" lon="12.25876"><ele>590.0</ele><time>2026-03-29T07:47:24.321Z</time></trkpt><trkpt lat="43.21297" lon="12.25865"><ele>592.0</ele><time>2026-03-29T07:47:26.323Z</time></trkpt><trkpt lat="43.21299" lon="12.2585433"><ele>594.0</ele><time>2026-03-29T07:47:31.323Z</time></trkpt><trkpt lat="43.2129867" lon="12.2584433"><ele>596.0</ele><time>2026-03-29T07:47:33.32Z</time></trkpt><trkpt lat="43.2129817" lon="12.2583233"><ele>596.0</ele><time>2026-03-29T07:47:35.321Z</time></trkpt><trkpt lat="43.2129667" lon="12.258195"><ele>596.0</ele><time>2026-03-29T07:47:37.319Z</time></trkpt><trkpt lat="43.21293" lon="12.2580417"><ele>596.0</ele><time>2026-03-29T07:47:39.325Z</time></trkpt><trkpt lat="43.2128867" lon="12.25792"><ele>596.0</ele><time>2026-03-29T07:47:41.323Z</time></trkpt><trkpt lat="43.2128217" lon="12.2578467"><ele>596.0</ele><time>2026-03-29T07:47:43.322Z</time></trkpt><trkpt lat="43.21275" lon="12.2578383"><ele>596.3333333333333</ele><time>2026-03-29T07:47:45.323Z</time></trkpt><trkpt lat="43.2126567" lon="12.2578533"><ele>596.6666666666666</ele><time>2026-03-29T07:47:48.32Z</time></trkpt><trkpt lat="43.21259" lon="12.25789"><ele>597.0</ele><time>2026-03-29T07:47:51.32Z</time></trkpt><trkpt lat="43.2125817" lon="12.25779"><ele>597.3333333333334</ele><time>2026-03-29T07:47:56.323Z</time></trkpt><trkpt lat="43.21262" lon="12.257695"><ele>597.6666666666667</ele><time>2026-03-29T07:47:59.322Z</time></trkpt><trkpt lat="43.2126733" lon="12.2576383"><ele>598.0</ele><time>2026-03-29T07:48:01.325Z</time></trkpt><trkpt lat="43.2127517" lon="12.2575967"><ele>598.0</ele><time>2026-03-29T07:48:03.322Z</time></trkpt><trkpt lat="43.2128233" lon="12.2575517"><ele>598.0</ele><time>2026-03-29T07:48:05.32Z</time></trkpt><trkpt lat="43.2129" lon="12.2574983"><ele>598.0</ele><time>2026-03-29T07:48:07.322Z</time></trkpt><trkpt lat="43.21297" lon="12.2573967"><ele>598.0</ele><time>2026-03-29T07:48:09.322Z</time></trkpt><trkpt lat="43.2130167" lon="12.257265"><ele>598.0</ele><time>2026-03-29T07:48:11.322Z</time></trkpt><trkpt lat="43.213085" lon="12.25715"><ele>596.6666666666667</ele><time>2026-03-29T07:48:13.323Z</time></trkpt><trkpt lat="43.2131767" lon="12.2570967"><ele>595.3333333333334</ele><time>2026-03-29T07:48:15.321Z</time></trkpt><trkpt lat="43.2132917" lon="12.257075"><ele>594.0</ele><time>2026-03-29T07:48:17.321Z</time></trkpt><trkpt lat="43.21336" lon="12.2570533"><ele>592.6666666666666</ele><time>2026-03-29T07:48:18.32Z</time></trkpt><trkpt lat="43.2134317" lon="12.257025"><ele>591.3333333333333</ele><time>2026-03-29T07:48:19.321Z</time></trkpt><trkpt lat="43.2135017" lon="12.2569917"><ele>590.0</ele><time>2026-03-29T07:48:20.321Z</time></trkpt><trkpt lat="43.21356" lon="12.256955"><ele>590.0</ele><time>2026-03-29T07:48:21.323Z</time></trkpt><trkpt lat="43.2136567" lon="12.256875"><ele>590.0</ele><time>2026-03-29T07:48:23.325Z</time></trkpt><trkpt lat="43.213735" lon="12.25676"><ele>590.0</ele><time>2026-03-29T07:48:25.317Z</time></trkpt><trkpt lat="43.2138067" lon="12.2566483"><ele>590.0</ele><time>2026-03-29T07:48:27.323Z</time></trkpt><trkpt lat="43.2138767" lon="12.2566067"><ele>590.0</ele><time>2026-03-29T07:48:29.324Z</time></trkpt><trkpt lat="43.2139233" lon="12.256525"><ele>595.0</ele><time>2026-03-29T07:48:32.321Z</time></trkpt><trkpt lat="43.213955" lon="12.2564183"><ele>600.0</ele><time>2026-03-29T07:48:36.32Z</time></trkpt><trkpt lat="43.2139383" lon="12.256295"><ele>605.0</ele><time>2026-03-29T07:48:39.323Z</time></trkpt><trkpt lat="43.2139067" lon="12.2561817"><ele>610.0</ele><time>2026-03-29T07:48:41.324Z</time></trkpt><trkpt lat="43.2138933" lon="12.25607"><ele>615.0</ele><time>2026-03-29T07:48:43.328Z</time></trkpt><trkpt lat="43.2139283" lon="12.25596"><ele>620.0</ele><time>2026-03-29T07:48:45.322Z</time></trkpt><trkpt lat="43.2139867" lon="12.2558683"><ele>620.5</ele><time>2026-03-29T07:48:47.322Z</time></trkpt><trkpt lat="43.2140633" lon="12.2558233"><ele>621.0</ele><time>2026-03-29T07:48:49.323Z</time></trkpt><trkpt lat="43.2141217" lon="12.2557533"><ele>621.5</ele><time>2026-03-29T07:48:51.321Z</time></trkpt><trkpt lat="43.2141917" lon="12.25577"><ele>622.0</ele><time>2026-03-29T07:48:53.32Z</time></trkpt><trkpt lat="43.2142333" lon="12.25568"><ele>622.5</ele><time>2026-03-29T07:48:56.321Z</time></trkpt><trkpt lat="43.2142067" lon="12.255565"><ele>623.0</ele><time>2026-03-29T07:48:59.32Z</time></trkpt><trkpt lat="43.2141883" lon="12.25548"><ele>623.0</ele><time>2026-03-29T07:49:01.323Z</time></trkpt><trkpt lat="43.2141417" lon="12.2553467"><ele>623.0</ele><time>2026-03-29T07:49:03.323Z</time></trkpt><trkpt lat="43.2140917" lon="12.255245"><ele>623.0</ele><time>2026-03-29T07:49:05.324Z</time></trkpt><trkpt lat="43.21402" lon="12.25516"><ele>623.0</ele><time>2026-03-29T07:49:08.32Z</time></trkpt><trkpt lat="43.2139233" lon="12.2551133"><ele>623.0</ele><time>2026-03-29T07:49:11.322Z</time></trkpt><trkpt lat="43.21383" lon="12.2551167"><ele>626.1999999999999</ele><time>2026-03-29T07:49:13.322Z</time></trkpt><trkpt lat="43.2137367" lon="12.2551467"><ele>629.4</ele><time>2026-03-29T07:49:15.324Z</time></trkpt><trkpt lat="43.2136517" lon="12.2551367"><ele>632.5999999999999</ele><time>2026-03-29T07:49:17.323Z</time></trkpt><trkpt lat="43.2135767" lon="12.2551567"><ele>635.8</ele><time>2026-03-29T07:49:19.325Z</time></trkpt><trkpt lat="43.213495" lon="12.2552567"><ele>639.0</ele><time>2026-03-29T07:49:21.323Z</time></trkpt><trkpt lat="43.21342" lon="12.25535"><ele>639.0</ele><time>2026-03-29T07:49:23.323Z</time></trkpt><trkpt lat="43.213355" lon="12.25539"><ele>639.0</ele><time>2026-03-29T07:49:24.323Z</time></trkpt><trkpt lat="43.21329" lon="12.2554233"><ele>639.0</ele><time>2026-03-29T07:49:25.324Z</time></trkpt><trkpt lat="43.2132083" lon="12.255425"><ele>639.0</ele><time>2026-03-29T07:49:27.32Z</time></trkpt><trkpt lat="43.2131967" lon="12.255305"><ele>639.0</ele><time>2026-03-29T07:49:29.323Z</time></trkpt><trkpt lat="43.2132183" lon="12.2552017"><ele>639.0</ele><time>2026-03-29T07:49:30.319Z</time></trkpt><trkpt lat="43.213235" lon="12.255115"><ele>639.0</ele><time>2026-03-29T07:49:31.321Z</time></trkpt><trkpt lat="43.2132067" lon="12.255005"><ele>639.0</ele><time>2026-03-29T07:49:34.323Z</time></trkpt><trkpt lat="43.21314" lon="12.2549467"><ele>639.0</ele><time>2026-03-29T07:49:37.322Z</time></trkpt><trkpt lat="43.2131783" lon="12.2548417"><ele>639.0</ele><time>2026-03-29T07:49:42.321Z</time></trkpt><trkpt lat="43.21318" lon="12.2547383"><ele>639.0</ele><time>2026-03-29T07:49:44.322Z</time></trkpt><trkpt lat="43.2132117" lon="12.254615"><ele>639.0</ele><time>2026-03-29T07:49:46.322Z</time></trkpt><trkpt lat="43.2132933" lon="12.254525"><ele>640.5</ele><time>2026-03-29T07:49:48.326Z</time></trkpt><trkpt lat="43.213375" lon="12.254505"><ele>642.0</ele><time>2026-03-29T07:49:50.322Z</time></trkpt><trkpt lat="43.2134783" lon="12.254485"><ele>643.5</ele><time>2026-03-29T07:49:52.323Z</time></trkpt><trkpt lat="43.2135467" lon="12.254465"><ele>645.0</ele><time>2026-03-29T07:49:53.321Z</time></trkpt><trkpt lat="43.2136267" lon="12.25445"><ele>646.5</ele><time>2026-03-29T07:49:54.32Z</time></trkpt><trkpt lat="43.2137117" lon="12.2544267"><ele>648.0</ele><time>2026-03-29T07:49:55.321Z</time></trkpt><trkpt lat="43.2138067" lon="12.2543967"><ele>648.0</ele><time>2026-03-29T07:49:56.323Z</time></trkpt><trkpt lat="43.2139117" lon="12.2543617"><ele>648.0</ele><time>2026-03-29T07:49:57.325Z</time></trkpt><trkpt lat="43.2140167" lon="12.2543167"><ele>648.0</ele><time>2026-03-29T07:49:58.323Z</time></trkpt><trkpt lat="43.21412" lon="12.2542567"><ele>648.0</ele><time>2026-03-29T07:49:59.322Z</time></trkpt><trkpt lat="43.2142083" lon="12.254205"><ele>648.0</ele><time>2026-03-29T07:50:00.323Z</time></trkpt><trkpt lat="43.214285" lon="12.2541767"><ele>648.4</ele><time>2026-03-29T07:50:01.326Z</time></trkpt><trkpt lat="43.21435" lon="12.2541617"><ele>648.8</ele><time>2026-03-29T07:50:02.319Z</time></trkpt><trkpt lat="43.2144517" lon="12.2541"><ele>649.2</ele><time>2026-03-29T07:50:04.326Z</time></trkpt><trkpt lat="43.2144983" lon="12.2539933"><ele>649.6</ele><time>2026-03-29T07:50:06.323Z</time></trkpt><trkpt lat="43.214535" lon="12.25388"><ele>650.0</ele><time>2026-03-29T07:50:08.321Z</time></trkpt><trkpt lat="43.2146183" lon="12.25379"><ele>650.6</ele><time>2026-03-29T07:50:10.322Z</time></trkpt><trkpt lat="43.21467" lon="12.25374"><ele>651.2</ele><time>2026-03-29T07:50:11.32Z</time></trkpt><trkpt lat="43.21477" lon="12.2536567"><ele>651.8</ele><time>2026-03-29T07:50:13.326Z</time></trkpt><trkpt lat="43.2148667" lon="12.25356"><ele>652.4</ele><time>2026-03-29T07:50:15.325Z</time></trkpt><trkpt lat="43.2149583" lon="12.2535117"><ele>653.0</ele><time>2026-03-29T07:50:17.322Z</time></trkpt><trkpt lat="43.215035" lon="12.2534983"><ele>653.0</ele><time>2026-03-29T07:50:19.323Z</time></trkpt><trkpt lat="43.2150983" lon="12.2534433"><ele>653.0</ele><time>2026-03-29T07:50:21.322Z</time></trkpt><trkpt lat="43.21516" lon="12.2533333"><ele>653.0</ele><time>2026-03-29T07:50:23.326Z</time></trkpt><trkpt lat="43.2152083" lon="12.2532233"><ele>653.0</ele><time>2026-03-29T07:50:25.323Z</time></trkpt><trkpt lat="43.2152717" lon="12.2532083"><ele>653.0</ele><time>2026-03-29T07:50:27.325Z</time></trkpt><trkpt lat="43.21533" lon="12.2533417"><ele>653.0</ele><time>2026-03-29T07:50:30.322Z</time></trkpt><trkpt lat="43.215405" lon="12.253435"><ele>653.0</ele><time>2026-03-29T07:50:32.326Z</time></trkpt><trkpt lat="43.2154867" lon="12.2534833"><ele>653.0</ele><time>2026-03-29T07:50:35.324Z</time></trkpt><trkpt lat="43.2155383" lon="12.253545"><ele>653.0</ele><time>2026-03-29T07:50:37.325Z</time></trkpt><trkpt lat="43.215595" lon="12.2536117"><ele>653.0</ele><time>2026-03-29T07:50:39.321Z</time></trkpt><trkpt lat="43.2156467" lon="12.253675"><ele>653.0</ele><time>2026-03-29T07:50:41.321Z</time></trkpt><trkpt lat="43.215715" lon="12.25377"><ele>653.0</ele><time>2026-03-29T07:50:44.324Z</time></trkpt><trkpt lat="43.21579" lon="12.2538583"><ele>649.8</ele><time>2026-03-29T07:50:46.323Z</time></trkpt><trkpt lat="43.2158717" lon="12.2539633"><ele>646.5999999999999</ele><time>2026-03-29T07:50:49.321Z</time></trkpt><trkpt lat="43.21593" lon="12.2540383"><ele>643.4000000000001</ele><time>2026-03-29T07:50:51.324Z</time></trkpt><trkpt lat="43.2159983" lon="12.2541483"><ele>640.2</ele><time>2026-03-29T07:50:53.323Z</time></trkpt><trkpt lat="43.216045" lon="12.254225"><ele>637.0</ele><time>2026-03-29T07:50:54.32Z</time></trkpt><trkpt lat="43.2161133" lon="12.254355"><ele>637.0</ele><time>2026-03-29T07:50:56.32Z</time></trkpt><trkpt lat="43.216155" lon="12.2544633"><ele>637.0</ele><time>2026-03-29T07:50:58.323Z</time></trkpt><trkpt lat="43.216245" lon="12.2545067"><ele>637.0</ele><time>2026-03-29T07:51:01.319Z</time></trkpt><trkpt lat="43.2162783" lon="12.2544333"><ele>637.0</ele><time>2026-03-29T07:51:03.321Z</time></trkpt><trkpt lat="43.216305" lon="12.254315"><ele>637.0</ele><time>2026-03-29T07:51:05.32Z</time></trkpt><trkpt lat="43.216325" lon="12.254155"><ele>637.0</ele><time>2026-03-29T07:51:07.324Z</time></trkpt><trkpt lat="43.216345" lon="12.2540183"><ele>637.0</ele><time>2026-03-29T07:51:09.325Z</time></trkpt><trkpt lat="43.216405" lon="12.2539333"><ele>637.0</ele><time>2026-03-29T07:51:11.324Z</time></trkpt><trkpt lat="43.2164567" lon="12.253865"><ele>637.0</ele><time>2026-03-29T07:51:13.321Z</time></trkpt><trkpt lat="43.2165267" lon="12.2537817"><ele>637.0</ele><time>2026-03-29T07:51:16.325Z</time></trkpt><trkpt lat="43.2166083" lon="12.2537167"><ele>637.0</ele><time>2026-03-29T07:51:19.323Z</time></trkpt><trkpt lat="43.2166733" lon="12.2536733"><ele>642.6</ele><time>2026-03-29T07:51:21.324Z</time></trkpt><trkpt lat="43.2167633" lon="12.253645"><ele>648.2</ele><time>2026-03-29T07:51:23.322Z</time></trkpt><trkpt lat="43.2168717" lon="12.2536417"><ele>653.8</ele><time>2026-03-29T07:51:25.326Z</time></trkpt><trkpt lat="43.216975" lon="12.2536467"><ele>659.4</ele><time>2026-03-29T07:51:27.322Z</time></trkpt><trkpt lat="43.2170733" lon="12.253655"><ele>665.0</ele><time>2026-03-29T07:51:29.325Z</time></trkpt><trkpt lat="43.2171717" lon="12.2536783"><ele>665.0</ele><time>2026-03-29T07:51:31.324Z</time></trkpt><trkpt lat="43.217255" lon="12.2536933"><ele>665.0</ele><time>2026-03-29T07:51:33.32Z</time></trkpt><trkpt lat="43.21735" lon="12.2536933"><ele>665.0</ele><time>2026-03-29T07:51:35.321Z</time></trkpt><trkpt lat="43.2174467" lon="12.2536717"><ele>665.0</ele><time>2026-03-29T07:51:37.321Z</time></trkpt><trkpt lat="43.21753" lon="12.2536433"><ele>665.0</ele><time>2026-03-29T07:51:39.322Z</time></trkpt><trkpt lat="43.217615" lon="12.2536233"><ele>665.0</ele><time>2026-03-29T07:51:41.321Z</time></trkpt><trkpt lat="43.2176883" lon="12.253585"><ele>666.8</ele><time>2026-03-29T07:51:43.325Z</time></trkpt><trkpt lat="43.2177533" lon="12.253545"><ele>668.6</ele><time>2026-03-29T07:51:45.325Z</time></trkpt><trkpt lat="43.2177967" lon="12.2534717"><ele>670.4000000000001</ele><time>2026-03-29T07:51:47.322Z</time></trkpt><trkpt lat="43.2178767" lon="12.2535383"><ele>672.2</ele><time>2026-03-29T07:51:51.322Z</time></trkpt><trkpt lat="43.2179383" lon="12.253665"><ele>674.0</ele><time>2026-03-29T07:51:53.324Z</time></trkpt><trkpt lat="43.2180067" lon="12.253785"><ele>674.0</ele><time>2026-03-29T07:51:55.322Z</time></trkpt><trkpt lat="43.21809" lon="12.253915"><ele>674.0</ele><time>2026-03-29T07:51:57.321Z</time></trkpt><trkpt lat="43.2181383" lon="12.25399"><ele>674.0</ele><time>2026-03-29T07:51:58.321Z</time></trkpt><trkpt lat="43.2181933" lon="12.2540583"><ele>674.0</ele><time>2026-03-29T07:51:59.322Z</time></trkpt><trkpt lat="43.21825" lon="12.254115"><ele>674.0</ele><time>2026-03-29T07:52:00.322Z</time></trkpt><trkpt lat="43.218315" lon="12.2541617"><ele>674.0</ele><time>2026-03-29T07:52:01.322Z</time></trkpt><trkpt lat="43.21838" lon="12.2542133"><ele>671.6</ele><time>2026-03-29T07:52:02.321Z</time></trkpt><trkpt lat="43.2184417" lon="12.2542783"><ele>669.2</ele><time>2026-03-29T07:52:03.324Z</time></trkpt><trkpt lat="43.2185017" lon="12.2543517"><ele>666.8000000000001</ele><time>2026-03-29T07:52:04.322Z</time></trkpt><trkpt lat="43.2185583" lon="12.2544167"><ele>664.4000000000001</ele><time>2026-03-29T07:52:05.32Z</time></trkpt><trkpt lat="43.2186583" lon="12.2544933"><ele>662.0</ele><time>2026-03-29T07:52:07.324Z</time></trkpt><trkpt lat="43.2187617" lon="12.2544983"><ele>662.0</ele><time>2026-03-29T07:52:09.324Z</time></trkpt><trkpt lat="43.2188283" lon="12.25447"><ele>662.0</ele><time>2026-03-29T07:52:10.324Z</time></trkpt><trkpt lat="43.2188967" lon="12.2544367"><ele>662.0</ele><time>2026-03-29T07:52:11.325Z</time></trkpt><trkpt lat="43.218965" lon="12.254415"><ele>662.0</ele><time>2026-03-29T07:52:12.32Z</time></trkpt><trkpt lat="43.2190667" lon="12.2544467"><ele>662.0</ele><time>2026-03-29T07:52:14.324Z</time></trkpt><trkpt lat="43.2191667" lon="12.2545633"><ele>662.0</ele><time>2026-03-29T07:52:16.323Z</time></trkpt><trkpt lat="43.2192233" lon="12.2546083"><ele>661.5</ele><time>2026-03-29T07:52:17.323Z</time></trkpt><trkpt lat="43.2193217" lon="12.2547217"><ele>661.0</ele><time>2026-03-29T07:52:19.323Z</time></trkpt><trkpt lat="43.21937" lon="12.25482"><ele>660.5</ele><time>2026-03-29T07:52:20.323Z</time></trkpt><trkpt lat="43.2194183" lon="12.25492"><ele>660.0</ele><time>2026-03-29T07:52:21.321Z</time></trkpt><trkpt lat="43.219465" lon="12.255005"><ele>659.5</ele><time>2026-03-29T07:52:22.324Z</time></trkpt><trkpt lat="43.21951" lon="12.2550767"><ele>659.0</ele><time>2026-03-29T07:52:23.324Z</time></trkpt><trkpt lat="43.219565" lon="12.2552083"><ele>659.0</ele><time>2026-03-29T07:52:25.323Z</time></trkpt><trkpt lat="43.2195483" lon="12.2553767"><ele>659.0</ele><time>2026-03-29T07:52:27.321Z</time></trkpt><trkpt lat="43.2195467" lon="12.2554833"><ele>659.0</ele><time>2026-03-29T07:52:28.322Z</time></trkpt><trkpt lat="43.2195483" lon="12.2555967"><ele>659.0</ele><time>2026-03-29T07:52:29.322Z</time></trkpt><trkpt lat="43.2195467" lon="12.2557067"><ele>659.0</ele><time>2026-03-29T07:52:30.323Z</time></trkpt><trkpt lat="43.2195533" lon="12.2558117"><ele>659.0</ele><time>2026-03-29T07:52:31.322Z</time></trkpt><trkpt lat="43.2195733" lon="12.255895"><ele>660.0</ele><time>2026-03-29T07:52:32.323Z</time></trkpt><trkpt lat="43.2196233" lon="12.255985"><ele>661.0</ele><time>2026-03-29T07:52:34.324Z</time></trkpt><trkpt lat="43.2196733" lon="12.2560383"><ele>662.0</ele><time>2026-03-29T07:52:36.32Z</time></trkpt><trkpt lat="43.2197333" lon="12.2561183"><ele>663.0</ele><time>2026-03-29T07:54:22.326Z</time></trkpt><trkpt lat="43.2198233" lon="12.2561667"><ele>664.0</ele><time>2026-03-29T07:54:24.324Z</time></trkpt><trkpt lat="43.21993" lon="12.25616"><ele>665.0</ele><time>2026-03-29T07:54:26.321Z</time></trkpt><trkpt lat="43.219995" lon="12.256145"><ele>665.0</ele><time>2026-03-29T07:54:27.322Z</time></trkpt><trkpt lat="43.22011" lon="12.2561117"><ele>665.0</ele><time>2026-03-29T07:54:29.324Z</time></trkpt><trkpt lat="43.2202217" lon="12.2560667"><ele>665.0</ele><time>2026-03-29T07:54:31.326Z</time></trkpt><trkpt lat="43.220305" lon="12.2559933"><ele>665.0</ele><time>2026-03-29T07:54:33.328Z</time></trkpt><trkpt lat="43.22038" lon="12.2559467"><ele>665.0</ele><time>2026-03-29T07:54:35.324Z</time></trkpt><trkpt lat="43.22045" lon="12.2558867"><ele>665.0</ele><time>2026-03-29T07:54:37.322Z</time></trkpt><trkpt lat="43.2204983" lon="12.2558267"><ele>665.0</ele><time>2026-03-29T07:54:39.322Z</time></trkpt><trkpt lat="43.22055" lon="12.2557633"><ele>665.0</ele><time>2026-03-29T07:54:41.322Z</time></trkpt><trkpt lat="43.2206383" lon="12.2556717"><ele>665.0</ele><time>2026-03-29T07:54:43.323Z</time></trkpt><trkpt lat="43.220685" lon="12.25561"><ele>665.0</ele><time>2026-03-29T07:54:44.322Z</time></trkpt><trkpt lat="43.22073" lon="12.2555383"><ele>665.0</ele><time>2026-03-29T07:54:45.323Z</time></trkpt><trkpt lat="43.220775" lon="12.2554683"><ele>665.0</ele><time>2026-03-29T07:54:46.322Z</time></trkpt><trkpt lat="43.2208267" lon="12.2554133"><ele>663.75</ele><time>2026-03-29T07:54:47.322Z</time></trkpt><trkpt lat="43.2209167" lon="12.2553233"><ele>662.5</ele><time>2026-03-29T07:54:49.323Z</time></trkpt><trkpt lat="43.2209783" lon="12.2551933"><ele>661.25</ele><time>2026-03-29T07:54:51.323Z</time></trkpt><trkpt lat="43.2210067" lon="12.2550333"><ele>660.0</ele><time>2026-03-29T07:54:53.324Z</time></trkpt><trkpt lat="43.2210333" lon="12.25488"><ele>663.2</ele><time>2026-03-29T07:54:55.323Z</time></trkpt><trkpt lat="43.221105" lon="12.254785"><ele>666.4</ele><time>2026-03-29T07:54:57.321Z</time></trkpt><trkpt lat="43.221185" lon="12.2547083"><ele>669.5999999999999</ele><time>2026-03-29T07:54:59.321Z</time></trkpt><trkpt lat="43.2212583" lon="12.2546083"><ele>672.8</ele><time>2026-03-29T07:55:01.324Z</time></trkpt><trkpt lat="43.2213167" lon="12.2544917"><ele>676.0</ele><time>2026-03-29T07:55:03.322Z</time></trkpt><trkpt lat="43.2214117" lon="12.254465"><ele>676.0</ele><time>2026-03-29T07:55:05.324Z</time></trkpt><trkpt lat="43.221475" lon="12.2544817"><ele>676.0</ele><time>2026-03-29T07:55:06.322Z</time></trkpt><trkpt lat="43.2215333" lon="12.25452"><ele>676.0</ele><time>2026-03-29T07:55:07.323Z</time></trkpt><trkpt lat="43.2215967" lon="12.254555"><ele>676.0</ele><time>2026-03-29T07:55:08.322Z</time></trkpt><trkpt lat="43.2216583" lon="12.2545783"><ele>676.0</ele><time>2026-03-29T07:55:09.321Z</time></trkpt><trkpt lat="43.221775" lon="12.254585"><ele>676.0</ele><time>2026-03-29T07:55:11.322Z</time></trkpt><trkpt lat="43.2218717" lon="12.2546183"><ele>673.3333333333334</ele><time>2026-03-29T07:55:13.322Z</time></trkpt><trkpt lat="43.2219133" lon="12.2546833"><ele>670.6666666666667</ele><time>2026-03-29T07:55:14.323Z</time></trkpt><trkpt lat="43.2219583" lon="12.2547617"><ele>668.0</ele><time>2026-03-29T07:55:15.323Z</time></trkpt><trkpt lat="43.2220117" lon="12.254825"><ele>665.3333333333334</ele><time>2026-03-29T07:55:16.324Z</time></trkpt><trkpt lat="43.2220667" lon="12.2548717"><ele>662.6666666666666</ele><time>2026-03-29T07:55:17.323Z</time></trkpt><trkpt lat="43.222125" lon="12.254905"><ele>660.0</ele><time>2026-03-29T07:55:18.325Z</time></trkpt><trkpt lat="43.2222417" lon="12.254915"><ele>654.2</ele><time>2026-03-29T07:55:20.322Z</time></trkpt><trkpt lat="43.2223617" lon="12.2548617"><ele>648.4</ele><time>2026-03-29T07:55:22.321Z</time></trkpt><trkpt lat="43.22247" lon="12.2548033"><ele>642.6</ele><time>2026-03-29T07:55:24.322Z</time></trkpt><trkpt lat="43.22255" lon="12.2548083"><ele>636.8</ele><time>2026-03-29T07:55:26.324Z</time></trkpt><trkpt lat="43.22262" lon="12.2548883"><ele>631.0</ele><time>2026-03-29T07:55:28.322Z</time></trkpt><trkpt lat="43.2227117" lon="12.2549867"><ele>631.0</ele><time>2026-03-29T07:55:30.321Z</time></trkpt><trkpt lat="43.2227717" lon="12.2550267"><ele>631.0</ele><time>2026-03-29T07:55:31.323Z</time></trkpt><trkpt lat="43.2228667" lon="12.25512"><ele>631.0</ele><time>2026-03-29T07:55:33.324Z</time></trkpt><trkpt lat="43.2229367" lon="12.25521"><ele>631.0</ele><time>2026-03-29T07:55:35.321Z</time></trkpt><trkpt lat="43.2230117" lon="12.2552817"><ele>631.0</ele><time>2026-03-29T07:55:37.322Z</time></trkpt><trkpt lat="43.2230883" lon="12.2552767"><ele>631.0</ele><time>2026-03-29T07:55:40.322Z</time></trkpt><trkpt lat="43.2231483" lon="12.2552317"><ele>633.0</ele><time>2026-03-29T07:55:43.321Z</time></trkpt><trkpt lat="43.2232283" lon="12.2552117"><ele>635.0</ele><time>2026-03-29T07:55:45.322Z</time></trkpt><trkpt lat="43.2232967" lon="12.2551367"><ele>637.0</ele><time>2026-03-29T07:55:47.323Z</time></trkpt><trkpt lat="43.22332" lon="12.2550333"><ele>639.0</ele><time>2026-03-29T07:55:49.322Z</time></trkpt><trkpt lat="43.2233383" lon="12.25495"><ele>641.0</ele><time>2026-03-29T07:55:51.324Z</time></trkpt><trkpt lat="43.2233933" lon="12.2548983"><ele>643.0</ele><time>2026-03-29T07:55:53.321Z</time></trkpt><trkpt lat="43.2234917" lon="12.2548383"><ele>643.0</ele><time>2026-03-29T07:55:55.323Z</time></trkpt><trkpt lat="43.2235533" lon="12.2548017"><ele>643.0</ele><time>2026-03-29T07:55:56.325Z</time></trkpt><trkpt lat="43.2236533" lon="12.254705"><ele>643.0</ele><time>2026-03-29T07:55:58.321Z</time></trkpt><trkpt lat="43.2236967" lon="12.25463"><ele>643.0</ele><time>2026-03-29T07:55:59.325Z</time></trkpt><trkpt lat="43.22375" lon="12.254555"><ele>643.0</ele><time>2026-03-29T07:56:00.322Z</time></trkpt><trkpt lat="43.2238117" lon="12.2545"><ele>643.0</ele><time>2026-03-29T07:56:01.322Z</time></trkpt><trkpt lat="43.223875" lon="12.2544517"><ele>646.8333333333334</ele><time>2026-03-29T07:56:02.326Z</time></trkpt><trkpt lat="43.2239383" lon="12.2543983"><ele>650.6666666666667</ele><time>2026-03-29T07:56:03.324Z</time></trkpt><trkpt lat="43.22401" lon="12.25434"><ele>654.5</ele><time>2026-03-29T07:56:04.321Z</time></trkpt><trkpt lat="43.22408" lon="12.2542817"><ele>658.3333333333334</ele><time>2026-03-29T07:56:05.321Z</time></trkpt><trkpt lat="43.224145" lon="12.2542283"><ele>662.1666666666666</ele><time>2026-03-29T07:56:06.32Z</time></trkpt><trkpt lat="43.2242" lon="12.254165"><ele>666.0</ele><time>2026-03-29T07:56:07.323Z</time></trkpt><trkpt lat="43.2242567" lon="12.2541033"><ele>666.0</ele><time>2026-03-29T07:56:08.323Z</time></trkpt><trkpt lat="43.224315" lon="12.254035"><ele>666.0</ele><time>2026-03-29T07:56:09.324Z</time></trkpt><trkpt lat="43.2243783" lon="12.2539817"><ele>666.0</ele><time>2026-03-29T07:56:10.323Z</time></trkpt><trkpt lat="43.2244483" lon="12.253945"><ele>666.0</ele><time>2026-03-29T07:56:11.323Z</time></trkpt><trkpt lat="43.2245283" lon="12.2539283"><ele>666.0</ele><time>2026-03-29T07:56:12.322Z</time></trkpt><trkpt lat="43.2246117" lon="12.2539233"><ele>666.0</ele><time>2026-03-29T07:56:13.319Z</time></trkpt><trkpt lat="43.2246933" lon="12.2539267"><ele>666.6666666666666</ele><time>2026-03-29T07:56:14.323Z</time></trkpt><trkpt lat="43.2247817" lon="12.25394"><ele>667.3333333333334</ele><time>2026-03-29T07:56:15.322Z</time></trkpt><trkpt lat="43.2248733" lon="12.2539583"><ele>668.0</ele><time>2026-03-29T07:56:16.32Z</time></trkpt><trkpt lat="43.2249633" lon="12.2539867"><ele>668.6666666666667</ele><time>2026-03-29T07:56:17.322Z</time></trkpt><trkpt lat="43.2250433" lon="12.2540283"><ele>669.3333333333334</ele><time>2026-03-29T07:56:18.32Z</time></trkpt><trkpt lat="43.225115" lon="12.2540767"><ele>670.0</ele><time>2026-03-29T07:56:19.321Z</time></trkpt><trkpt lat="43.2251783" lon="12.2541117"><ele>669.9999999999999</ele><time>2026-03-29T07:56:20.325Z</time></trkpt><trkpt lat="43.225245" lon="12.2541283"><ele>670.0</ele><time>2026-03-29T07:56:21.324Z</time></trkpt><trkpt lat="43.2253133" lon="12.254135"><ele>670.0</ele><time>2026-03-29T07:56:22.321Z</time></trkpt><trkpt lat="43.2253883" lon="12.254135"><ele>670.0</ele><time>2026-03-29T07:56:23.324Z</time></trkpt><trkpt lat="43.2254617" lon="12.2541483"><ele>670.0</ele><time>2026-03-29T07:56:24.321Z</time></trkpt><trkpt lat="43.22553" lon="12.2541667"><ele>669.9999999999999</ele><time>2026-03-29T07:56:25.323Z</time></trkpt><trkpt lat="43.2256033" lon="12.2541783"><ele>670.0</ele><time>2026-03-29T07:56:26.321Z</time></trkpt><trkpt lat="43.2256783" lon="12.2541667"><ele>671.0</ele><time>2026-03-29T07:56:27.322Z</time></trkpt><trkpt lat="43.2257567" lon="12.25413"><ele>672.0</ele><time>2026-03-29T07:56:28.323Z</time></trkpt><trkpt lat="43.2258283" lon="12.254065"><ele>673.0</ele><time>2026-03-29T07:56:29.321Z</time></trkpt><trkpt lat="43.22589" lon="12.2539717"><ele>674.0</ele><time>2026-03-29T07:56:30.323Z</time></trkpt><trkpt lat="43.2259333" lon="12.2538733"><ele>675.0</ele><time>2026-03-29T07:56:31.32Z</time></trkpt><trkpt lat="43.2259617" lon="12.25378"><ele>676.0</ele><time>2026-03-29T07:56:32.32Z</time></trkpt><trkpt lat="43.2259767" lon="12.25369"><ele>679.1666666666667</ele><time>2026-03-29T07:56:33.322Z</time></trkpt><trkpt lat="43.2259933" lon="12.2536033"><ele>682.3333333333334</ele><time>2026-03-29T07:56:34.32Z</time></trkpt><trkpt lat="43.22602" lon="12.25351"><ele>685.5</ele><time>2026-03-29T07:56:35.322Z</time></trkpt><trkpt lat="43.2260483" lon="12.2534"><ele>688.6666666666666</ele><time>2026-03-29T07:56:36.321Z</time></trkpt><trkpt lat="43.2260767" lon="12.2532817"><ele>691.8333333333333</ele><time>2026-03-29T07:56:37.32Z</time></trkpt><trkpt lat="43.2261" lon="12.253155"><ele>695.0</ele><time>2026-03-29T07:56:38.321Z</time></trkpt><trkpt lat="43.22611" lon="12.25301"><ele>697.8333333333333</ele><time>2026-03-29T07:56:39.325Z</time></trkpt><trkpt lat="43.2261183" lon="12.252865"><ele>700.6666666666666</ele><time>2026-03-29T07:56:40.324Z</time></trkpt><trkpt lat="43.2261283" lon="12.2527333"><ele>703.5</ele><time>2026-03-29T07:56:41.32Z</time></trkpt><trkpt lat="43.226135" lon="12.2526217"><ele>706.3333333333334</ele><time>2026-03-29T07:56:42.325Z</time></trkpt><trkpt lat="43.2261333" lon="12.2525183"><ele>709.1666666666667</ele><time>2026-03-29T07:56:43.328Z</time></trkpt><trkpt lat="43.2261317" lon="12.252415"><ele>712.0</ele><time>2026-03-29T07:56:44.321Z</time></trkpt><trkpt lat="43.2261367" lon="12.252315"><ele>713.6666666666667</ele><time>2026-03-29T07:56:45.323Z</time></trkpt><trkpt lat="43.2261517" lon="12.252225"><ele>715.3333333333334</ele><time>2026-03-29T07:56:46.322Z</time></trkpt><trkpt lat="43.2261983" lon="12.2520933"><ele>717.0</ele><time>2026-03-29T07:56:48.324Z</time></trkpt><trkpt lat="43.22628" lon="12.2520983"><ele>718.6666666666666</ele><time>2026-03-29T07:56:49.322Z</time></trkpt><trkpt lat="43.226365" lon="12.252095"><ele>720.3333333333333</ele><time>2026-03-29T07:56:50.322Z</time></trkpt><trkpt lat="43.2264683" lon="12.2520767"><ele>722.0</ele><time>2026-03-29T07:56:51.325Z</time></trkpt><trkpt lat="43.2265733" lon="12.2520567"><ele>722.0</ele><time>2026-03-29T07:56:52.32Z</time></trkpt><trkpt lat="43.226665" lon="12.2520233"><ele>722.0</ele><time>2026-03-29T07:56:53.323Z</time></trkpt><trkpt lat="43.2267533" lon="12.25199"><ele>722.0</ele><time>2026-03-29T07:56:54.32Z</time></trkpt><trkpt lat="43.2268417" lon="12.251945"><ele>722.0</ele><time>2026-03-29T07:56:55.321Z</time></trkpt><trkpt lat="43.2269333" lon="12.2518767"><ele>722.0</ele><time>2026-03-29T07:56:56.322Z</time></trkpt><trkpt lat="43.2270183" lon="12.2518067"><ele>722.0</ele><time>2026-03-29T07:56:57.321Z</time></trkpt><trkpt lat="43.2271033" lon="12.2517383"><ele>722.0</ele><time>2026-03-29T07:56:58.321Z</time></trkpt><trkpt lat="43.2271817" lon="12.2516833"><ele>722.0</ele><time>2026-03-29T07:56:59.32Z</time></trkpt><trkpt lat="43.2272683" lon="12.25163"><ele>722.0</ele><time>2026-03-29T07:57:00.321Z</time></trkpt><trkpt lat="43.2273517" lon="12.2515933"><ele>722.0</ele><time>2026-03-29T07:57:01.323Z</time></trkpt><trkpt lat="43.2274333" lon="12.2515817"><ele>722.0</ele><time>2026-03-29T07:57:02.32Z</time></trkpt><trkpt lat="43.22751" lon="12.2515867"><ele>722.0</ele><time>2026-03-29T07:57:03.324Z</time></trkpt><trkpt lat="43.2275833" lon="12.2516017"><ele>722.0</ele><time>2026-03-29T07:57:04.321Z</time></trkpt><trkpt lat="43.2276517" lon="12.251625"><ele>722.0</ele><time>2026-03-29T07:57:05.324Z</time></trkpt><trkpt lat="43.22773" lon="12.2516467"><ele>722.0</ele><time>2026-03-29T07:57:06.322Z</time></trkpt><trkpt lat="43.2278117" lon="12.2516617"><ele>722.0</ele><time>2026-03-29T07:57:07.32Z</time></trkpt><trkpt lat="43.2278933" lon="12.25167"><ele>722.0</ele><time>2026-03-29T07:57:08.32Z</time></trkpt><trkpt lat="43.2279783" lon="12.25168"><ele>722.0</ele><time>2026-03-29T07:57:09.327Z</time></trkpt><trkpt lat="43.2280683" lon="12.2516883"><ele>722.0</ele><time>2026-03-29T07:57:10.32Z</time></trkpt><trkpt lat="43.2281583" lon="12.2516967"><ele>722.0</ele><time>2026-03-29T07:57:11.323Z</time></trkpt><trkpt lat="43.2282467" lon="12.25171"><ele>722.0</ele><time>2026-03-29T07:57:12.322Z</time></trkpt><trkpt lat="43.22833" lon="12.25172"><ele>722.0</ele><time>2026-03-29T07:57:13.32Z</time></trkpt><trkpt lat="43.22841" lon="12.2517333"><ele>722.1428571428572</ele><time>2026-03-29T07:57:14.323Z</time></trkpt><trkpt lat="43.2284817" lon="12.2517417"><ele>722.2857142857142</ele><time>2026-03-29T07:57:15.323Z</time></trkpt><trkpt lat="43.2285517" lon="12.2517333"><ele>722.4285714285714</ele><time>2026-03-29T07:57:16.32Z</time></trkpt><trkpt lat="43.2286167" lon="12.2517033"><ele>722.5714285714287</ele><time>2026-03-29T07:57:17.323Z</time></trkpt><trkpt lat="43.2286733" lon="12.2516617"><ele>722.7142857142858</ele><time>2026-03-29T07:57:18.325Z</time></trkpt><trkpt lat="43.22873" lon="12.2515933"><ele>722.8571428571429</ele><time>2026-03-29T07:57:19.32Z</time></trkpt><trkpt lat="43.2287933" lon="12.2515"><ele>723.0</ele><time>2026-03-29T07:57:20.32Z</time></trkpt><trkpt lat="43.22886" lon="12.251405"><ele>725.2</ele><time>2026-03-29T07:57:21.327Z</time></trkpt><trkpt lat="43.22893" lon="12.2513217"><ele>727.4</ele><time>2026-03-29T07:57:22.321Z</time></trkpt><trkpt lat="43.2289983" lon="12.2512417"><ele>729.6</ele><time>2026-03-29T07:57:23.32Z</time></trkpt><trkpt lat="43.22907" lon="12.2511683"><ele>731.8000000000001</ele><time>2026-03-29T07:57:24.321Z</time></trkpt><trkpt lat="43.2291433" lon="12.2510967"><ele>734.0</ele><time>2026-03-29T07:57:25.321Z</time></trkpt><trkpt lat="43.2292217" lon="12.2510367"><ele>734.0</ele><time>2026-03-29T07:57:26.322Z</time></trkpt><trkpt lat="43.2292883" lon="12.2509917"><ele>734.0</ele><time>2026-03-29T07:57:27.324Z</time></trkpt><trkpt lat="43.2293517" lon="12.2509367"><ele>734.0</ele><time>2026-03-29T07:57:28.322Z</time></trkpt><trkpt lat="43.229405" lon="12.2508767"><ele>734.0</ele><time>2026-03-29T07:57:29.323Z</time></trkpt><trkpt lat="43.2294467" lon="12.2508033"><ele>734.0</ele><time>2026-03-29T07:57:30.322Z</time></trkpt><trkpt lat="43.2295183" lon="12.2506667"><ele>734.0</ele><time>2026-03-29T07:57:32.322Z</time></trkpt><trkpt lat="43.2295967" lon="12.2505583"><ele>736.1666666666666</ele><time>2026-03-29T07:57:34.324Z</time></trkpt><trkpt lat="43.2296983" lon="12.250475"><ele>738.3333333333333</ele><time>2026-03-29T07:57:36.322Z</time></trkpt><trkpt lat="43.2297567" lon="12.2504367"><ele>740.5</ele><time>2026-03-29T07:57:37.324Z</time></trkpt><trkpt lat="43.22983" lon="12.2504117"><ele>742.6666666666666</ele><time>2026-03-29T07:57:38.322Z</time></trkpt><trkpt lat="43.22992" lon="12.2504117"><ele>744.8333333333334</ele><time>2026-03-29T07:57:39.324Z</time></trkpt><trkpt lat="43.2300167" lon="12.2504267"><ele>747.0</ele><time>2026-03-29T07:57:40.322Z</time></trkpt><trkpt lat="43.230105" lon="12.25046"><ele>747.0</ele><time>2026-03-29T07:57:41.321Z</time></trkpt><trkpt lat="43.2301967" lon="12.25049"><ele>747.0</ele><time>2026-03-29T07:57:42.324Z</time></trkpt><trkpt lat="43.230285" lon="12.2505067"><ele>747.0</ele><time>2026-03-29T07:57:43.324Z</time></trkpt><trkpt lat="43.2303767" lon="12.250515"><ele>747.0</ele><time>2026-03-29T07:57:44.323Z</time></trkpt><trkpt lat="43.230475" lon="12.2505117"><ele>747.0</ele><time>2026-03-29T07:57:45.325Z</time></trkpt><trkpt lat="43.23057" lon="12.2504983"><ele>745.5</ele><time>2026-03-29T07:57:46.321Z</time></trkpt><trkpt lat="43.2306667" lon="12.250485"><ele>744.0</ele><time>2026-03-29T07:57:47.322Z</time></trkpt><trkpt lat="43.230755" lon="12.2504683"><ele>742.5</ele><time>2026-03-29T07:57:48.324Z</time></trkpt><trkpt lat="43.2308333" lon="12.2504383"><ele>741.0</ele><time>2026-03-29T07:57:49.323Z</time></trkpt><trkpt lat="43.230905" lon="12.25039"><ele>739.5</ele><time>2026-03-29T07:57:50.322Z</time></trkpt><trkpt lat="43.2309733" lon="12.250325"><ele>738.0</ele><time>2026-03-29T07:57:51.321Z</time></trkpt><trkpt lat="43.2310417" lon="12.25026"><ele>738.0</ele><time>2026-03-29T07:57:52.322Z</time></trkpt><trkpt lat="43.2311133" lon="12.25021"><ele>738.0</ele><time>2026-03-29T07:57:53.327Z</time></trkpt><trkpt lat="43.2311933" lon="12.25017"><ele>738.0</ele><time>2026-03-29T07:57:54.326Z</time></trkpt><trkpt lat="43.2312767" lon="12.2501417"><ele>738.0</ele><time>2026-03-29T07:57:55.324Z</time></trkpt><trkpt lat="43.2313617" lon="12.250125"><ele>738.0</ele><time>2026-03-29T07:57:56.323Z</time></trkpt><trkpt lat="43.231445" lon="12.25012"><ele>738.0</ele><time>2026-03-29T07:57:57.322Z</time></trkpt><trkpt lat="43.2315233" lon="12.250125"><ele>736.4285714285714</ele><time>2026-03-29T07:57:58.321Z</time></trkpt><trkpt lat="43.2315983" lon="12.2501333"><ele>734.8571428571429</ele><time>2026-03-29T07:57:59.321Z</time></trkpt><trkpt lat="43.2316683" lon="12.2501533"><ele>733.2857142857142</ele><time>2026-03-29T07:58:00.321Z</time></trkpt><trkpt lat="43.2317383" lon="12.2501683"><ele>731.7142857142858</ele><time>2026-03-29T07:58:01.325Z</time></trkpt><trkpt lat="43.2318067" lon="12.25017"><ele>730.1428571428572</ele><time>2026-03-29T07:58:02.323Z</time></trkpt><trkpt lat="43.2318767" lon="12.250155"><ele>728.5714285714286</ele><time>2026-03-29T07:58:03.322Z</time></trkpt><trkpt lat="43.2319433" lon="12.25012"><ele>727.0</ele><time>2026-03-29T07:58:04.322Z</time></trkpt><trkpt lat="43.2320083" lon="12.2500783"><ele>727.0</ele><time>2026-03-29T07:58:05.322Z</time></trkpt><trkpt lat="43.232075" lon="12.2500317"><ele>727.0</ele><time>2026-03-29T07:58:06.32Z</time></trkpt><trkpt lat="43.2321383" lon="12.24999"><ele>727.0</ele><time>2026-03-29T07:58:07.321Z</time></trkpt><trkpt lat="43.2321967" lon="12.249945"><ele>727.0</ele><time>2026-03-29T07:58:08.32Z</time></trkpt><trkpt lat="43.2322983" lon="12.2498417"><ele>727.0</ele><time>2026-03-29T07:58:10.323Z</time></trkpt><trkpt lat="43.2323467" lon="12.2497767"><ele>727.0</ele><time>2026-03-29T07:58:11.32Z</time></trkpt><trkpt lat="43.2323917" lon="12.249705"><ele>727.8333333333334</ele><time>2026-03-29T07:58:12.32Z</time></trkpt><trkpt lat="43.2324367" lon="12.2496267"><ele>728.6666666666667</ele><time>2026-03-29T07:58:13.326Z</time></trkpt><trkpt lat="43.2324833" lon="12.249545"><ele>729.5</ele><time>2026-03-29T07:58:14.321Z</time></trkpt><trkpt lat="43.232535" lon="12.2494783"><ele>730.3333333333334</ele><time>2026-03-29T07:58:15.325Z</time></trkpt><trkpt lat="43.2326" lon="12.2494333"><ele>731.1666666666666</ele><time>2026-03-29T07:58:16.322Z</time></trkpt><trkpt lat="43.2326717" lon="12.249395"><ele>732.0</ele><time>2026-03-29T07:58:17.324Z</time></trkpt><trkpt lat="43.2327517" lon="12.2493583"><ele>732.0</ele><time>2026-03-29T07:58:18.322Z</time></trkpt><trkpt lat="43.23284" lon="12.24931"><ele>732.0</ele><time>2026-03-29T07:58:19.323Z</time></trkpt><trkpt lat="43.23293" lon="12.2492683"><ele>732.0</ele><time>2026-03-29T07:58:20.321Z</time></trkpt><trkpt lat="43.23302" lon="12.2492317"><ele>732.0</ele><time>2026-03-29T07:58:21.322Z</time></trkpt><trkpt lat="43.233115" lon="12.2491883"><ele>732.0</ele><time>2026-03-29T07:58:22.322Z</time></trkpt><trkpt lat="43.23321" lon="12.249135"><ele>729.6</ele><time>2026-03-29T07:58:23.321Z</time></trkpt><trkpt lat="43.2333033" lon="12.2490867"><ele>727.2</ele><time>2026-03-29T07:58:24.324Z</time></trkpt><trkpt lat="43.2333967" lon="12.249045"><ele>724.8</ele><time>2026-03-29T07:58:25.32Z</time></trkpt><trkpt lat="43.2334867" lon="12.24902"><ele>722.4</ele><time>2026-03-29T07:58:26.322Z</time></trkpt><trkpt lat="43.2335817" lon="12.24901"><ele>720.0</ele><time>2026-03-29T07:58:27.324Z</time></trkpt><trkpt lat="43.2336833" lon="12.2490217"><ele>720.0</ele><time>2026-03-29T07:58:28.326Z</time></trkpt><trkpt lat="43.2338033" lon="12.2490433"><ele>720.0</ele><time>2026-03-29T07:58:29.322Z</time></trkpt><trkpt lat="43.233945" lon="12.2490767"><ele>720.0</ele><time>2026-03-29T07:58:30.32Z</time></trkpt><trkpt lat="43.2340917" lon="12.2491117"><ele>720.0</ele><time>2026-03-29T07:58:31.319Z</time></trkpt><trkpt lat="43.2342283" lon="12.2491533"><ele>719.2</ele><time>2026-03-29T07:58:32.324Z</time></trkpt><trkpt lat="43.234345" lon="12.2491917"><ele>718.4</ele><time>2026-03-29T07:58:33.32Z</time></trkpt><trkpt lat="43.234445" lon="12.2492317"><ele>717.5999999999999</ele><time>2026-03-29T07:58:34.32Z</time></trkpt><trkpt lat="43.2345317" lon="12.2492617"><ele>716.8</ele><time>2026-03-29T07:58:35.319Z</time></trkpt><trkpt lat="43.2346083" lon="12.2492767"><ele>716.0</ele><time>2026-03-29T07:58:36.321Z</time></trkpt><trkpt lat="43.2346767" lon="12.2492733"><ele>716.0</ele><time>2026-03-29T07:58:37.322Z</time></trkpt><trkpt lat="43.2347367" lon="12.2492433"><ele>716.0</ele><time>2026-03-29T07:58:38.322Z</time></trkpt><trkpt lat="43.2347917" lon="12.2491933"><ele>716.0</ele><time>2026-03-29T07:58:39.321Z</time></trkpt><trkpt lat="43.23484" lon="12.2491133"><ele>716.0</ele><time>2026-03-29T07:58:40.32Z</time></trkpt><trkpt lat="43.2348733" lon="12.2490117"><ele>716.0</ele><time>2026-03-29T07:58:41.321Z</time></trkpt><trkpt lat="43.23489" lon="12.248895"><ele>716.0</ele><time>2026-03-29T07:58:42.319Z</time></trkpt><trkpt lat="43.2349017" lon="12.24879"><ele>717.3333333333333</ele><time>2026-03-29T07:58:43.32Z</time></trkpt><trkpt lat="43.2349067" lon="12.248675"><ele>718.6666666666666</ele><time>2026-03-29T07:58:44.321Z</time></trkpt><trkpt lat="43.2349333" lon="12.2485567"><ele>720.0</ele><time>2026-03-29T07:58:45.323Z</time></trkpt><trkpt lat="43.2349833" lon="12.2484533"><ele>721.3333333333334</ele><time>2026-03-29T07:58:46.322Z</time></trkpt><trkpt lat="43.23505" lon="12.2483717"><ele>722.6666666666667</ele><time>2026-03-29T07:58:47.322Z</time></trkpt><trkpt lat="43.2351183" lon="12.2482967"><ele>724.0</ele><time>2026-03-29T07:58:48.322Z</time></trkpt><trkpt lat="43.2351817" lon="12.2482083"><ele>726.6666666666667</ele><time>2026-03-29T07:58:49.32Z</time></trkpt><trkpt lat="43.2352333" lon="12.248115"><ele>729.3333333333334</ele><time>2026-03-29T07:58:50.319Z</time></trkpt><trkpt lat="43.2352667" lon="12.2480183"><ele>732.0</ele><time>2026-03-29T07:58:51.322Z</time></trkpt><trkpt lat="43.23528" lon="12.24792"><ele>734.6666666666666</ele><time>2026-03-29T07:58:52.322Z</time></trkpt><trkpt lat="43.2352933" lon="12.24783"><ele>737.3333333333333</ele><time>2026-03-29T07:58:53.318Z</time></trkpt><trkpt lat="43.2353567" lon="12.2477033"><ele>740.0</ele><time>2026-03-29T07:58:55.323Z</time></trkpt><trkpt lat="43.2354283" lon="12.2476667"><ele>740.0</ele><time>2026-03-29T07:58:56.321Z</time></trkpt><trkpt lat="43.23551" lon="12.24762"><ele>740.0</ele><time>2026-03-29T07:58:57.324Z</time></trkpt><trkpt lat="43.2355883" lon="12.2475633"><ele>740.0</ele><time>2026-03-29T07:58:58.323Z</time></trkpt><trkpt lat="43.23566" lon="12.247505"><ele>740.0</ele><time>2026-03-29T07:58:59.322Z</time></trkpt><trkpt lat="43.2357267" lon="12.2474367"><ele>740.0</ele><time>2026-03-29T07:59:00.321Z</time></trkpt><trkpt lat="43.2357867" lon="12.2473567"><ele>740.0</ele><time>2026-03-29T07:59:01.326Z</time></trkpt><trkpt lat="43.2358433" lon="12.2472667"><ele>738.3333333333333</ele><time>2026-03-29T07:59:02.321Z</time></trkpt><trkpt lat="43.2359" lon="12.247175"><ele>736.6666666666666</ele><time>2026-03-29T07:59:03.324Z</time></trkpt><trkpt lat="43.2359633" lon="12.247085"><ele>735.0</ele><time>2026-03-29T07:59:04.322Z</time></trkpt><trkpt lat="43.2360317" lon="12.2470117"><ele>733.3333333333334</ele><time>2026-03-29T07:59:05.322Z</time></trkpt><trkpt lat="43.236105" lon="12.2469633"><ele>731.6666666666667</ele><time>2026-03-29T07:59:06.321Z</time></trkpt><trkpt lat="43.2361767" lon="12.2469317"><ele>730.0</ele><time>2026-03-29T07:59:07.32Z</time></trkpt><trkpt lat="43.23624" lon="12.2469"><ele>730.0</ele><time>2026-03-29T07:59:08.323Z</time></trkpt><trkpt lat="43.236295" lon="12.2468517"><ele>730.0</ele><time>2026-03-29T07:59:09.323Z</time></trkpt><trkpt lat="43.2363383" lon="12.2467783"><ele>730.0</ele><time>2026-03-29T07:59:10.322Z</time></trkpt><trkpt lat="43.2363667" lon="12.2466817"><ele>730.0</ele><time>2026-03-29T07:59:11.322Z</time></trkpt><trkpt lat="43.2363933" lon="12.2465533"><ele>730.0</ele><time>2026-03-29T07:59:12.321Z</time></trkpt><trkpt lat="43.2364283" lon="12.2464117"><ele>730.0</ele><time>2026-03-29T07:59:13.325Z</time></trkpt><trkpt lat="43.2364617" lon="12.2462683"><ele>729.3333333333334</ele><time>2026-03-29T07:59:14.323Z</time></trkpt><trkpt lat="43.2364967" lon="12.24613"><ele>728.6666666666667</ele><time>2026-03-29T07:59:15.324Z</time></trkpt><trkpt lat="43.2365167" lon="12.2459983"><ele>728.0</ele><time>2026-03-29T07:59:16.322Z</time></trkpt><trkpt lat="43.2365333" lon="12.24588"><ele>727.3333333333334</ele><time>2026-03-29T07:59:17.323Z</time></trkpt><trkpt lat="43.236545" lon="12.2457733"><ele>726.6666666666666</ele><time>2026-03-29T07:59:18.323Z</time></trkpt><trkpt lat="43.2365583" lon="12.245685"><ele>726.0</ele><time>2026-03-29T07:59:19.322Z</time></trkpt><trkpt lat="43.2365767" lon="12.2456"><ele>726.0</ele><time>2026-03-29T07:59:20.322Z</time></trkpt><trkpt lat="43.2366017" lon="12.2455183"><ele>726.0</ele><time>2026-03-29T07:59:21.327Z</time></trkpt><trkpt lat="43.23664" lon="12.2454417"><ele>726.0</ele><time>2026-03-29T07:59:22.322Z</time></trkpt><trkpt lat="43.2367033" lon="12.24537"><ele>726.0</ele><time>2026-03-29T07:59:23.322Z</time></trkpt><trkpt lat="43.2367783" lon="12.24529"><ele>726.0</ele><time>2026-03-29T07:59:24.322Z</time></trkpt><trkpt lat="43.2368583" lon="12.245215"><ele>726.0</ele><time>2026-03-29T07:59:25.32Z</time></trkpt><trkpt lat="43.2369433" lon="12.245135"><ele>726.0</ele><time>2026-03-29T07:59:26.326Z</time></trkpt><trkpt lat="43.2370233" lon="12.2450583"><ele>726.0</ele><time>2026-03-29T07:59:27.325Z</time></trkpt><trkpt lat="43.2371017" lon="12.2449883"><ele>726.0</ele><time>2026-03-29T07:59:28.321Z</time></trkpt><trkpt lat="43.2371767" lon="12.24493"><ele>726.0</ele><time>2026-03-29T07:59:29.32Z</time></trkpt><trkpt lat="43.23725" lon="12.2448783"><ele>726.0</ele><time>2026-03-29T07:59:30.321Z</time></trkpt><trkpt lat="43.2373183" lon="12.244825"><ele>726.0</ele><time>2026-03-29T07:59:31.323Z</time></trkpt><trkpt lat="43.2373867" lon="12.2447717"><ele>724.1666666666666</ele><time>2026-03-29T07:59:32.321Z</time></trkpt><trkpt lat="43.23746" lon="12.2447133"><ele>722.3333333333334</ele><time>2026-03-29T07:59:33.323Z</time></trkpt><trkpt lat="43.2375333" lon="12.2446533"><ele>720.5</ele><time>2026-03-29T07:59:34.321Z</time></trkpt><trkpt lat="43.2376067" lon="12.2446017"><ele>718.6666666666667</ele><time>2026-03-29T07:59:35.322Z</time></trkpt><trkpt lat="43.23768" lon="12.2445383"><ele>716.8333333333334</ele><time>2026-03-29T07:59:36.322Z</time></trkpt><trkpt lat="43.23775" lon="12.24449"><ele>715.0</ele><time>2026-03-29T07:59:37.322Z</time></trkpt><trkpt lat="43.2378183" lon="12.2444417"><ele>715.0</ele><time>2026-03-29T07:59:38.324Z</time></trkpt><trkpt lat="43.237885" lon="12.2443933"><ele>715.0</ele><time>2026-03-29T07:59:39.324Z</time></trkpt><trkpt lat="43.23795" lon="12.2443483"><ele>715.0</ele><time>2026-03-29T07:59:40.322Z</time></trkpt><trkpt lat="43.2380167" lon="12.2443033"><ele>715.0</ele><time>2026-03-29T07:59:41.322Z</time></trkpt><trkpt lat="43.2380817" lon="12.2442583"><ele>715.0</ele><time>2026-03-29T07:59:42.322Z</time></trkpt><trkpt lat="43.2381483" lon="12.244215"><ele>715.0</ele><time>2026-03-29T07:59:43.32Z</time></trkpt><trkpt lat="43.2382183" lon="12.244175"><ele>715.0</ele><time>2026-03-29T07:59:44.321Z</time></trkpt><trkpt lat="43.238295" lon="12.2441417"><ele>715.1666666666667</ele><time>2026-03-29T07:59:45.323Z</time></trkpt><trkpt lat="43.2383783" lon="12.2441183"><ele>715.3333333333334</ele><time>2026-03-29T07:59:46.32Z</time></trkpt><trkpt lat="43.2384633" lon="12.2440967"><ele>715.5</ele><time>2026-03-29T07:59:47.321Z</time></trkpt><trkpt lat="43.2385483" lon="12.2440717"><ele>715.6666666666666</ele><time>2026-03-29T07:59:48.321Z</time></trkpt><trkpt lat="43.2386267" lon="12.2440433"><ele>715.8333333333333</ele><time>2026-03-29T07:59:49.321Z</time></trkpt><trkpt lat="43.238705" lon="12.2440133"><ele>716.0</ele><time>2026-03-29T07:59:50.321Z</time></trkpt><trkpt lat="43.23878" lon="12.24397"><ele>716.1666666666666</ele><time>2026-03-29T07:59:51.326Z</time></trkpt><trkpt lat="43.238855" lon="12.2439117"><ele>716.3333333333333</ele><time>2026-03-29T07:59:52.323Z</time></trkpt><trkpt lat="43.2389233" lon="12.24384"><ele>716.5</ele><time>2026-03-29T07:59:53.322Z</time></trkpt><trkpt lat="43.2389917" lon="12.2437633"><ele>716.6666666666666</ele><time>2026-03-29T07:59:54.32Z</time></trkpt><trkpt lat="43.2390617" lon="12.24368"><ele>716.8333333333334</ele><time>2026-03-29T07:59:55.32Z</time></trkpt><trkpt lat="43.2391317" lon="12.243595"><ele>717.0</ele><time>2026-03-29T07:59:56.321Z</time></trkpt><trkpt lat="43.2392017" lon="12.2435067"><ele>715.2</ele><time>2026-03-29T07:59:57.321Z</time></trkpt><trkpt lat="43.2392733" lon="12.2434167"><ele>713.4000000000001</ele><time>2026-03-29T07:59:58.322Z</time></trkpt><trkpt lat="43.2393483" lon="12.243335"><ele>711.5999999999999</ele><time>2026-03-29T07:59:59.32Z</time></trkpt><trkpt lat="43.2394233" lon="12.2432567"><ele>709.8</ele><time>2026-03-29T08:00:00.318Z</time></trkpt><trkpt lat="43.2395" lon="12.2431783"><ele>708.0</ele><time>2026-03-29T08:00:01.326Z</time></trkpt><trkpt lat="43.2395767" lon="12.2430983"><ele>706.5999999999999</ele><time>2026-03-29T08:00:02.321Z</time></trkpt><trkpt lat="43.2396533" lon="12.2430233"><ele>705.1999999999999</ele><time>2026-03-29T08:00:03.323Z</time></trkpt><trkpt lat="43.23973" lon="12.2429483"><ele>703.8</ele><time>2026-03-29T08:00:04.321Z</time></trkpt><trkpt lat="43.2398083" lon="12.2428733"><ele>702.4</ele><time>2026-03-29T08:00:05.32Z</time></trkpt><trkpt lat="43.2398833" lon="12.2428"><ele>701.0</ele><time>2026-03-29T08:00:06.324Z</time></trkpt><trkpt lat="43.2399567" lon="12.2427317"><ele>700.3333333333333</ele><time>2026-03-29T08:00:07.325Z</time></trkpt><trkpt lat="43.2400267" lon="12.242665"><ele>699.6666666666666</ele><time>2026-03-29T08:00:08.323Z</time></trkpt><trkpt lat="43.240095" lon="12.2426"><ele>699.0</ele><time>2026-03-29T08:00:09.323Z</time></trkpt><trkpt lat="43.24016" lon="12.2425367"><ele>698.3333333333334</ele><time>2026-03-29T08:00:10.326Z</time></trkpt><trkpt lat="43.2402233" lon="12.24248"><ele>697.6666666666667</ele><time>2026-03-29T08:00:11.32Z</time></trkpt><trkpt lat="43.2402833" lon="12.2424317"><ele>697.0</ele><time>2026-03-29T08:00:12.321Z</time></trkpt><trkpt lat="43.2403833" lon="12.24236"><ele>697.0</ele><time>2026-03-29T08:00:14.322Z</time></trkpt><trkpt lat="43.2404583" lon="12.24234"><ele>697.0</ele><time>2026-03-29T08:00:17.322Z</time></trkpt><trkpt lat="43.240655" lon="12.2423817"><ele>697.0</ele><time>2026-03-29T08:04:11.319Z</time></trkpt><trkpt lat="43.24046" lon="12.242085"><ele>697.0</ele><time>2026-03-29T08:04:13.321Z</time></trkpt><trkpt lat="43.240495" lon="12.2422933"><ele>697.0</ele><time>2026-03-29T08:04:14.32Z</time></trkpt><trkpt lat="43.24057" lon="12.2424867"><ele>697.0</ele><time>2026-03-29T08:04:21.321Z</time></trkpt><trkpt lat="43.2405367" lon="12.242405"><ele>697.0</ele><time>2026-03-29T08:04:41.318Z</time></trkpt><trkpt lat="43.2405017" lon="12.24233"><ele>697.0</ele><time>2026-03-29T08:07:28.322Z</time></trkpt><trkpt lat="43.24053" lon="12.242225"><ele>696.3333333333334</ele><time>2026-03-29T08:07:31.324Z</time></trkpt><trkpt lat="43.240615" lon="12.2421267"><ele>695.6666666666667</ele><time>2026-03-29T08:07:33.327Z</time></trkpt><trkpt lat="43.240665" lon="12.2420733"><ele>695.0</ele><time>2026-03-29T08:07:34.323Z</time></trkpt><trkpt lat="43.24072" lon="12.2420067"><ele>694.3333333333334</ele><time>2026-03-29T08:07:35.325Z</time></trkpt><trkpt lat="43.2407817" lon="12.2419317"><ele>693.6666666666666</ele><time>2026-03-29T08:07:36.323Z</time></trkpt><trkpt lat="43.2408483" lon="12.241855"><ele>693.0</ele><time>2026-03-29T08:07:37.324Z</time></trkpt><trkpt lat="43.2409267" lon="12.2417817"><ele>694.5999999999999</ele><time>2026-03-29T08:07:38.322Z</time></trkpt><trkpt lat="43.2410117" lon="12.2417183"><ele>696.1999999999999</ele><time>2026-03-29T08:07:39.322Z</time></trkpt><trkpt lat="43.2410967" lon="12.24167"><ele>697.8</ele><time>2026-03-29T08:07:40.321Z</time></trkpt><trkpt lat="43.2411833" lon="12.241625"><ele>699.4</ele><time>2026-03-29T08:07:41.323Z</time></trkpt><trkpt lat="43.2412683" lon="12.241585"><ele>701.0</ele><time>2026-03-29T08:07:42.322Z</time></trkpt><trkpt lat="43.2413517" lon="12.2415367"><ele>701.0</ele><time>2026-03-29T08:07:43.322Z</time></trkpt><trkpt lat="43.241435" lon="12.241485"><ele>701.0</ele><time>2026-03-29T08:07:44.324Z</time></trkpt><trkpt lat="43.241515" lon="12.2414283"><ele>701.0</ele><time>2026-03-29T08:07:45.324Z</time></trkpt><trkpt lat="43.2415933" lon="12.2413683"><ele>701.0</ele><time>2026-03-29T08:07:46.323Z</time></trkpt><trkpt lat="43.24167" lon="12.2413083"><ele>701.0</ele><time>2026-03-29T08:07:47.323Z</time></trkpt><trkpt lat="43.2417467" lon="12.241255"><ele>701.0</ele><time>2026-03-29T08:07:48.325Z</time></trkpt><trkpt lat="43.241825" lon="12.2412033"><ele>702.1666666666666</ele><time>2026-03-29T08:07:49.324Z</time></trkpt><trkpt lat="43.2419067" lon="12.2411633"><ele>703.3333333333333</ele><time>2026-03-29T08:07:50.322Z</time></trkpt><trkpt lat="43.2419917" lon="12.2411367"><ele>704.5</ele><time>2026-03-29T08:07:51.322Z</time></trkpt><trkpt lat="43.24207" lon="12.24113"><ele>705.6666666666666</ele><time>2026-03-29T08:07:52.325Z</time></trkpt><trkpt lat="43.2421467" lon="12.24113"><ele>706.8333333333334</ele><time>2026-03-29T08:07:53.321Z</time></trkpt><trkpt lat="43.2422217" lon="12.2411467"><ele>708.0</ele><time>2026-03-29T08:07:54.321Z</time></trkpt><trkpt lat="43.2423133" lon="12.241165"><ele>708.4</ele><time>2026-03-29T08:07:55.32Z</time></trkpt><trkpt lat="43.2424067" lon="12.241185"><ele>708.8</ele><time>2026-03-29T08:07:56.323Z</time></trkpt><trkpt lat="43.2425" lon="12.2412083"><ele>709.2</ele><time>2026-03-29T08:07:57.321Z</time></trkpt><trkpt lat="43.24267" lon="12.2412433"><ele>709.6</ele><time>2026-03-29T08:07:59.322Z</time></trkpt><trkpt lat="43.2427467" lon="12.24126"><ele>710.0</ele><time>2026-03-29T08:08:00.322Z</time></trkpt><trkpt lat="43.2428267" lon="12.2412717"><ele>710.0</ele><time>2026-03-29T08:08:01.323Z</time></trkpt><trkpt lat="43.24291" lon="12.2412717"><ele>710.0</ele><time>2026-03-29T08:08:02.325Z</time></trkpt><trkpt lat="43.24299" lon="12.2412817"><ele>710.0</ele><time>2026-03-29T08:08:03.324Z</time></trkpt><trkpt lat="43.2430683" lon="12.2413033"><ele>710.0</ele><time>2026-03-29T08:08:04.322Z</time></trkpt><trkpt lat="43.2431433" lon="12.241325"><ele>710.0</ele><time>2026-03-29T08:08:05.321Z</time></trkpt><trkpt lat="43.2432167" lon="12.2413533"><ele>710.0</ele><time>2026-03-29T08:08:06.325Z</time></trkpt><trkpt lat="43.2432867" lon="12.2413783"><ele>709.1666666666666</ele><time>2026-03-29T08:08:07.321Z</time></trkpt><trkpt lat="43.2433517" lon="12.241405"><ele>708.3333333333333</ele><time>2026-03-29T08:08:08.322Z</time></trkpt><trkpt lat="43.2434617" lon="12.2414617"><ele>707.5</ele><time>2026-03-29T08:08:10.323Z</time></trkpt><trkpt lat="43.2435283" lon="12.2415"><ele>706.6666666666666</ele><time>2026-03-29T08:08:11.323Z</time></trkpt><trkpt lat="43.2435967" lon="12.2415517"><ele>705.8333333333334</ele><time>2026-03-29T08:08:12.325Z</time></trkpt><trkpt lat="43.2436667" lon="12.2415983"><ele>705.0</ele><time>2026-03-29T08:08:13.323Z</time></trkpt><trkpt lat="43.2437333" lon="12.24166"><ele>706.2</ele><time>2026-03-29T08:08:14.325Z</time></trkpt><trkpt lat="43.2438133" lon="12.241735"><ele>707.4</ele><time>2026-03-29T08:08:15.324Z</time></trkpt><trkpt lat="43.2439017" lon="12.24183"><ele>708.5999999999999</ele><time>2026-03-29T08:08:16.324Z</time></trkpt><trkpt lat="43.2439933" lon="12.24192"><ele>709.8</ele><time>2026-03-29T08:08:17.321Z</time></trkpt><trkpt lat="43.2440917" lon="12.24202"><ele>711.0</ele><time>2026-03-29T08:08:18.324Z</time></trkpt><trkpt lat="43.2441933" lon="12.2421117"><ele>711.0</ele><time>2026-03-29T08:08:19.323Z</time></trkpt><trkpt lat="43.2443017" lon="12.2421967"><ele>711.0</ele><time>2026-03-29T08:08:20.32Z</time></trkpt><trkpt lat="43.2444217" lon="12.2422733"><ele>711.0</ele><time>2026-03-29T08:08:21.323Z</time></trkpt><trkpt lat="43.244545" lon="12.2423433"><ele>711.0</ele><time>2026-03-29T08:08:22.32Z</time></trkpt><trkpt lat="43.244675" lon="12.2424"><ele>712.75</ele><time>2026-03-29T08:08:23.324Z</time></trkpt><trkpt lat="43.24481" lon="12.2424483"><ele>714.5</ele><time>2026-03-29T08:08:24.32Z</time></trkpt><trkpt lat="43.2449467" lon="12.242495"><ele>716.25</ele><time>2026-03-29T08:08:25.323Z</time></trkpt><trkpt lat="43.24507" lon="12.2425467"><ele>718.0</ele><time>2026-03-29T08:08:26.325Z</time></trkpt><trkpt lat="43.2451883" lon="12.24261"><ele>718.0</ele><time>2026-03-29T08:08:27.327Z</time></trkpt><trkpt lat="43.2452967" lon="12.24269"><ele>718.0</ele><time>2026-03-29T08:08:28.321Z</time></trkpt><trkpt lat="43.245405" lon="12.2427833"><ele>718.0</ele><time>2026-03-29T08:08:29.323Z</time></trkpt><trkpt lat="43.2455167" lon="12.2428783"><ele>718.0</ele><time>2026-03-29T08:08:30.321Z</time></trkpt><trkpt lat="43.24563" lon="12.2429717"><ele>718.25</ele><time>2026-03-29T08:08:31.321Z</time></trkpt><trkpt lat="43.2457467" lon="12.2430617"><ele>718.5</ele><time>2026-03-29T08:08:32.322Z</time></trkpt><trkpt lat="43.2458667" lon="12.2431383"><ele>718.75</ele><time>2026-03-29T08:08:33.323Z</time></trkpt><trkpt lat="43.2459883" lon="12.243205"><ele>719.0</ele><time>2026-03-29T08:08:34.32Z</time></trkpt><trkpt lat="43.2461117" lon="12.2432617"><ele>720.0</ele><time>2026-03-29T08:08:35.32Z</time></trkpt><trkpt lat="43.2462433" lon="12.243295"><ele>721.0</ele><time>2026-03-29T08:08:36.324Z</time></trkpt><trkpt lat="43.24638" lon="12.2433267"><ele>722.0</ele><time>2026-03-29T08:08:37.323Z</time></trkpt><trkpt lat="43.246515" lon="12.2433617"><ele>723.0</ele><time>2026-03-29T08:08:38.323Z</time></trkpt><trkpt lat="43.2466533" lon="12.2434"><ele>724.25</ele><time>2026-03-29T08:08:39.322Z</time></trkpt><trkpt lat="43.2467917" lon="12.2434367"><ele>725.5</ele><time>2026-03-29T08:08:40.32Z</time></trkpt><trkpt lat="43.2469217" lon="12.243475"><ele>726.75</ele><time>2026-03-29T08:08:41.322Z</time></trkpt><trkpt lat="43.247045" lon="12.243515"><ele>728.0</ele><time>2026-03-29T08:08:42.324Z</time></trkpt><trkpt lat="43.2471617" lon="12.24355"><ele>728.0</ele><time>2026-03-29T08:08:43.324Z</time></trkpt><trkpt lat="43.24727" lon="12.2436017"><ele>728.0</ele><time>2026-03-29T08:08:44.325Z</time></trkpt><trkpt lat="43.2473717" lon="12.2436667"><ele>728.0</ele><time>2026-03-29T08:08:45.323Z</time></trkpt><trkpt lat="43.2474633" lon="12.2437617"><ele>728.0</ele><time>2026-03-29T08:08:46.322Z</time></trkpt><trkpt lat="43.2475533" lon="12.2438667"><ele>728.2</ele><time>2026-03-29T08:08:47.322Z</time></trkpt><trkpt lat="43.2476433" lon="12.2439617"><ele>728.4</ele><time>2026-03-29T08:08:48.324Z</time></trkpt><trkpt lat="43.2477283" lon="12.2440383"><ele>728.6</ele><time>2026-03-29T08:08:49.325Z</time></trkpt><trkpt lat="43.2477983" lon="12.2440767"><ele>728.8000000000001</ele><time>2026-03-29T08:08:50.324Z</time></trkpt><trkpt lat="43.2479067" lon="12.2440533"><ele>729.0</ele><time>2026-03-29T08:08:52.32Z</time></trkpt><trkpt lat="43.2479733" lon="12.24391"><ele>729.8000000000001</ele><time>2026-03-29T08:08:54.322Z</time></trkpt><trkpt lat="43.2479917" lon="12.2438"><ele>730.6</ele><time>2026-03-29T08:08:55.324Z</time></trkpt><trkpt lat="43.2480167" lon="12.2436683"><ele>731.4</ele><time>2026-03-29T08:08:56.321Z</time></trkpt><trkpt lat="43.2480567" lon="12.2435367"><ele>732.2</ele><time>2026-03-29T08:08:57.321Z</time></trkpt><trkpt lat="43.24811" lon="12.24341"><ele>733.0</ele><time>2026-03-29T08:08:58.321Z</time></trkpt><trkpt lat="43.2481817" lon="12.2432917"><ele>734.1666666666667</ele><time>2026-03-29T08:08:59.322Z</time></trkpt><trkpt lat="43.24826" lon="12.2431867"><ele>735.3333333333334</ele><time>2026-03-29T08:09:00.322Z</time></trkpt><trkpt lat="43.2483367" lon="12.2431067"><ele>736.5</ele><time>2026-03-29T08:09:01.322Z</time></trkpt><trkpt lat="43.2484117" lon="12.2430467"><ele>737.6666666666666</ele><time>2026-03-29T08:09:02.321Z</time></trkpt><trkpt lat="43.248485" lon="12.2430133"><ele>738.8333333333333</ele><time>2026-03-29T08:09:03.323Z</time></trkpt><trkpt lat="43.2485633" lon="12.24301"><ele>740.0</ele><time>2026-03-29T08:09:04.323Z</time></trkpt><trkpt lat="43.2486417" lon="12.243015"><ele>740.0</ele><time>2026-03-29T08:09:05.323Z</time></trkpt><trkpt lat="43.2487233" lon="12.2430717"><ele>740.0</ele><time>2026-03-29T08:09:06.325Z</time></trkpt><trkpt lat="43.2488017" lon="12.2431833"><ele>740.0</ele><time>2026-03-29T08:09:07.323Z</time></trkpt><trkpt lat="43.2489067" lon="12.2432967"><ele>740.0</ele><time>2026-03-29T08:09:08.321Z</time></trkpt><trkpt lat="43.2489917" lon="12.243365"><ele>740.0</ele><time>2026-03-29T08:09:09.321Z</time></trkpt><trkpt lat="43.2490983" lon="12.243395"><ele>744.75</ele><time>2026-03-29T08:09:10.322Z</time></trkpt><trkpt lat="43.2492233" lon="12.2433933"><ele>749.5</ele><time>2026-03-29T08:09:11.323Z</time></trkpt><trkpt lat="43.249365" lon="12.2433917"><ele>754.25</ele><time>2026-03-29T08:09:12.322Z</time></trkpt><trkpt lat="43.2495283" lon="12.2433917"><ele>759.0</ele><time>2026-03-29T08:09:13.32Z</time></trkpt><trkpt lat="43.2497067" lon="12.2433933"><ele>759.6666666666666</ele><time>2026-03-29T08:09:14.32Z</time></trkpt><trkpt lat="43.2498733" lon="12.2434"><ele>760.3333333333333</ele><time>2026-03-29T08:09:15.322Z</time></trkpt><trkpt lat="43.25003" lon="12.2434167"><ele>761.0</ele><time>2026-03-29T08:09:16.321Z</time></trkpt><trkpt lat="43.2501783" lon="12.24343"><ele>761.0</ele><time>2026-03-29T08:09:17.323Z</time></trkpt><trkpt lat="43.2503167" lon="12.24344"><ele>761.0</ele><time>2026-03-29T08:09:18.321Z</time></trkpt><trkpt lat="43.2504433" lon="12.2434383"><ele>761.0</ele><time>2026-03-29T08:09:19.322Z</time></trkpt><trkpt lat="43.2505633" lon="12.2434267"><ele>761.0</ele><time>2026-03-29T08:09:20.321Z</time></trkpt><trkpt lat="43.2506933" lon="12.2434083"><ele>761.75</ele><time>2026-03-29T08:09:21.326Z</time></trkpt><trkpt lat="43.2508283" lon="12.2434017"><ele>762.5</ele><time>2026-03-29T08:09:22.321Z</time></trkpt><trkpt lat="43.2509667" lon="12.243405"><ele>763.25</ele><time>2026-03-29T08:09:23.319Z</time></trkpt><trkpt lat="43.251105" lon="12.2434183"><ele>764.0</ele><time>2026-03-29T08:09:24.322Z</time></trkpt><trkpt lat="43.2512433" lon="12.2434233"><ele>764.0</ele><time>2026-03-29T08:09:25.32Z</time></trkpt><trkpt lat="43.2513833" lon="12.2434233"><ele>764.0</ele><time>2026-03-29T08:09:26.321Z</time></trkpt><trkpt lat="43.25152" lon="12.2434183"><ele>764.0</ele><time>2026-03-29T08:09:27.32Z</time></trkpt><trkpt lat="43.25165" lon="12.2434217"><ele>764.0</ele><time>2026-03-29T08:09:28.32Z</time></trkpt><trkpt lat="43.25178" lon="12.243425"><ele>764.5</ele><time>2026-03-29T08:09:29.322Z</time></trkpt><trkpt lat="43.2519017" lon="12.2434383"><ele>765.0</ele><time>2026-03-29T08:09:30.323Z</time></trkpt><trkpt lat="43.252015" lon="12.2434617"><ele>765.5</ele><time>2026-03-29T08:09:31.32Z</time></trkpt><trkpt lat="43.2521283" lon="12.2434933"><ele>766.0</ele><time>2026-03-29T08:09:32.32Z</time></trkpt><trkpt lat="43.252235" lon="12.24353"><ele>765.5</ele><time>2026-03-29T08:09:33.32Z</time></trkpt><trkpt lat="43.25234" lon="12.2435667"><ele>765.0</ele><time>2026-03-29T08:09:34.319Z</time></trkpt><trkpt lat="43.2524533" lon="12.2435883"><ele>764.5</ele><time>2026-03-29T08:09:35.326Z</time></trkpt><trkpt lat="43.25257" lon="12.243605"><ele>764.0</ele><time>2026-03-29T08:09:36.323Z</time></trkpt><trkpt lat="43.252685" lon="12.2436183"><ele>764.0</ele><time>2026-03-29T08:09:37.323Z</time></trkpt><trkpt lat="43.2528033" lon="12.2436283"><ele>764.0</ele><time>2026-03-29T08:09:38.32Z</time></trkpt><trkpt lat="43.2529167" lon="12.2436467"><ele>764.0</ele><time>2026-03-29T08:09:39.324Z</time></trkpt><trkpt lat="43.2530217" lon="12.2436833"><ele>764.0</ele><time>2026-03-29T08:09:40.325Z</time></trkpt><trkpt lat="43.2531233" lon="12.2437233"><ele>764.0</ele><time>2026-03-29T08:09:41.321Z</time></trkpt><trkpt lat="43.25322" lon="12.2437783"><ele>761.75</ele><time>2026-03-29T08:09:42.321Z</time></trkpt><trkpt lat="43.2533167" lon="12.243845"><ele>759.5</ele><time>2026-03-29T08:09:43.322Z</time></trkpt><trkpt lat="43.253415" lon="12.2439267"><ele>757.25</ele><time>2026-03-29T08:09:44.323Z</time></trkpt><trkpt lat="43.2535217" lon="12.2440017"><ele>755.0</ele><time>2026-03-29T08:09:45.322Z</time></trkpt><trkpt lat="43.25364" lon="12.2440567"><ele>754.8</ele><time>2026-03-29T08:09:46.324Z</time></trkpt><trkpt lat="43.2537517" lon="12.2440867"><ele>754.6</ele><time>2026-03-29T08:09:47.324Z</time></trkpt><trkpt lat="43.2538533" lon="12.2441067"><ele>754.4000000000001</ele><time>2026-03-29T08:09:48.323Z</time></trkpt><trkpt lat="43.2539367" lon="12.244135"><ele>754.2</ele><time>2026-03-29T08:09:49.327Z</time></trkpt><trkpt lat="43.25401" lon="12.2441767"><ele>754.0</ele><time>2026-03-29T08:09:50.326Z</time></trkpt><trkpt lat="43.2540667" lon="12.244235"><ele>754.0</ele><time>2026-03-29T08:09:51.324Z</time></trkpt><trkpt lat="43.254115" lon="12.2442933"><ele>754.0</ele><time>2026-03-29T08:09:52.322Z</time></trkpt><trkpt lat="43.2541583" lon="12.2443567"><ele>754.0</ele><time>2026-03-29T08:09:53.321Z</time></trkpt><trkpt lat="43.254245" lon="12.2444733"><ele>754.0</ele><time>2026-03-29T08:09:55.32Z</time></trkpt><trkpt lat="43.2542933" lon="12.2445367"><ele>754.0</ele><time>2026-03-29T08:09:56.321Z</time></trkpt><trkpt lat="43.2543417" lon="12.2446067"><ele>754.0</ele><time>2026-03-29T08:09:57.32Z</time></trkpt><trkpt lat="43.2544017" lon="12.2446633"><ele>754.0</ele><time>2026-03-29T08:09:58.32Z</time></trkpt><trkpt lat="43.25446" lon="12.2447"><ele>754.0</ele><time>2026-03-29T08:09:59.32Z</time></trkpt><trkpt lat="43.254525" lon="12.2447133"><ele>754.0</ele><time>2026-03-29T08:10:00.325Z</time></trkpt><trkpt lat="43.2546517" lon="12.2447083"><ele>754.0</ele><time>2026-03-29T08:10:02.322Z</time></trkpt><trkpt lat="43.2547233" lon="12.2447083"><ele>754.0</ele><time>2026-03-29T08:10:03.323Z</time></trkpt><trkpt lat="43.2548" lon="12.2447167"><ele>754.0</ele><time>2026-03-29T08:10:04.32Z</time></trkpt><trkpt lat="43.25488" lon="12.244725"><ele>754.5</ele><time>2026-03-29T08:10:05.323Z</time></trkpt><trkpt lat="43.25496" lon="12.2447233"><ele>755.0</ele><time>2026-03-29T08:10:06.319Z</time></trkpt><trkpt lat="43.2550417" lon="12.244715"><ele>755.5</ele><time>2026-03-29T08:10:07.325Z</time></trkpt><trkpt lat="43.25511" lon="12.24471"><ele>756.0</ele><time>2026-03-29T08:10:08.324Z</time></trkpt><trkpt lat="43.2551733" lon="12.2447133"><ele>756.5</ele><time>2026-03-29T08:10:09.322Z</time></trkpt><trkpt lat="43.2552833" lon="12.2447667"><ele>757.0</ele><time>2026-03-29T08:10:11.321Z</time></trkpt><trkpt lat="43.255345" lon="12.2448017"><ele>757.0</ele><time>2026-03-29T08:10:12.32Z</time></trkpt><trkpt lat="43.2554683" lon="12.244825"><ele>757.0</ele><time>2026-03-29T08:10:14.325Z</time></trkpt><trkpt lat="43.25553" lon="12.2447967"><ele>757.0</ele><time>2026-03-29T08:10:15.323Z</time></trkpt><trkpt lat="43.2556483" lon="12.24474"><ele>757.0</ele><time>2026-03-29T08:10:17.324Z</time></trkpt><trkpt lat="43.25577" lon="12.24474"><ele>757.0</ele><time>2026-03-29T08:10:19.322Z</time></trkpt><trkpt lat="43.25583" lon="12.24477"><ele>755.5</ele><time>2026-03-29T08:10:20.322Z</time></trkpt><trkpt lat="43.2558833" lon="12.2448183"><ele>754.0</ele><time>2026-03-29T08:10:21.32Z</time></trkpt><trkpt lat="43.2559317" lon="12.24489"><ele>752.5</ele><time>2026-03-29T08:10:22.324Z</time></trkpt><trkpt lat="43.2559817" lon="12.2449733"><ele>751.0</ele><time>2026-03-29T08:10:23.322Z</time></trkpt><trkpt lat="43.256045" lon="12.2450633"><ele>749.5</ele><time>2026-03-29T08:10:24.323Z</time></trkpt><trkpt lat="43.2561083" lon="12.2451517"><ele>748.0</ele><time>2026-03-29T08:10:25.321Z</time></trkpt><trkpt lat="43.256165" lon="12.2452317"><ele>748.0</ele><time>2026-03-29T08:10:26.322Z</time></trkpt><trkpt lat="43.2562083" lon="12.2453067"><ele>748.0</ele><time>2026-03-29T08:10:27.322Z</time></trkpt><trkpt lat="43.2562567" lon="12.2454167"><ele>748.0</ele><time>2026-03-29T08:10:29.321Z</time></trkpt><trkpt lat="43.25632" lon="12.2453983"><ele>748.0</ele><time>2026-03-29T08:10:33.323Z</time></trkpt><trkpt lat="43.25638" lon="12.245335"><ele>748.0</ele><time>2026-03-29T08:10:35.322Z</time></trkpt><trkpt lat="43.2564633" lon="12.2452233"><ele>748.0</ele><time>2026-03-29T08:10:37.325Z</time></trkpt><trkpt lat="43.25651" lon="12.2451633"><ele>746.1428571428571</ele><time>2026-03-29T08:10:38.323Z</time></trkpt><trkpt lat="43.2565783" lon="12.2450717"><ele>744.2857142857143</ele><time>2026-03-29T08:10:39.325Z</time></trkpt><trkpt lat="43.2566433" lon="12.245025"><ele>742.4285714285714</ele><time>2026-03-29T08:10:40.323Z</time></trkpt><trkpt lat="43.2567067" lon="12.2450033"><ele>740.5714285714286</ele><time>2026-03-29T08:10:41.326Z</time></trkpt><trkpt lat="43.2567717" lon="12.24497"><ele>738.7142857142858</ele><time>2026-03-29T08:10:42.325Z</time></trkpt><trkpt lat="43.2568317" lon="12.2449283"><ele>736.8571428571429</ele><time>2026-03-29T08:10:43.323Z</time></trkpt><trkpt lat="43.256885" lon="12.24488"><ele>735.0</ele><time>2026-03-29T08:10:44.325Z</time></trkpt><trkpt lat="43.256935" lon="12.2448217"><ele>733.0</ele><time>2026-03-29T08:10:45.322Z</time></trkpt><trkpt lat="43.2570267" lon="12.2447217"><ele>731.0</ele><time>2026-03-29T08:10:47.325Z</time></trkpt><trkpt lat="43.2571267" lon="12.2446183"><ele>729.0</ele><time>2026-03-29T08:10:49.32Z</time></trkpt><trkpt lat="43.257175" lon="12.2445533"><ele>727.0</ele><time>2026-03-29T08:10:50.32Z</time></trkpt><trkpt lat="43.2572167" lon="12.2444883"><ele>725.0</ele><time>2026-03-29T08:10:51.323Z</time></trkpt><trkpt lat="43.2573" lon="12.2443967"><ele>721.8333333333333</ele><time>2026-03-29T08:10:53.324Z</time></trkpt><trkpt lat="43.2573817" lon="12.244305"><ele>718.6666666666666</ele><time>2026-03-29T08:10:55.321Z</time></trkpt><trkpt lat="43.2574317" lon="12.244245"><ele>715.5</ele><time>2026-03-29T08:10:56.321Z</time></trkpt><trkpt lat="43.2574767" lon="12.2441767"><ele>712.3333333333334</ele><time>2026-03-29T08:10:57.326Z</time></trkpt><trkpt lat="43.2575283" lon="12.2440983"><ele>709.1666666666667</ele><time>2026-03-29T08:10:58.321Z</time></trkpt><trkpt lat="43.2575783" lon="12.2440317"><ele>706.0</ele><time>2026-03-29T08:10:59.321Z</time></trkpt><trkpt lat="43.2576267" lon="12.2439717"><ele>704.5</ele><time>2026-03-29T08:11:00.32Z</time></trkpt><trkpt lat="43.2577217" lon="12.2438567"><ele>703.0</ele><time>2026-03-29T08:11:02.324Z</time></trkpt><trkpt lat="43.25781" lon="12.2437667"><ele>701.5</ele><time>2026-03-29T08:11:04.322Z</time></trkpt><trkpt lat="43.2579117" lon="12.2436917"><ele>700.0</ele><time>2026-03-29T08:11:06.325Z</time></trkpt><trkpt lat="43.25802" lon="12.24361"><ele>697.2</ele><time>2026-03-29T08:11:08.32Z</time></trkpt><trkpt lat="43.2581267" lon="12.243535"><ele>694.4</ele><time>2026-03-29T08:11:10.322Z</time></trkpt><trkpt lat="43.2582333" lon="12.2435283"><ele>691.5999999999999</ele><time>2026-03-29T08:11:12.323Z</time></trkpt><trkpt lat="43.25835" lon="12.2435417"><ele>688.8</ele><time>2026-03-29T08:11:14.323Z</time></trkpt><trkpt lat="43.2584333" lon="12.2435067"><ele>686.0</ele><time>2026-03-29T08:11:16.325Z</time></trkpt><trkpt lat="43.25847" lon="12.2433733"><ele>686.0</ele><time>2026-03-29T08:11:18.321Z</time></trkpt><trkpt lat="43.2584617" lon="12.2432783"><ele>686.0</ele><time>2026-03-29T08:11:19.321Z</time></trkpt><trkpt lat="43.2584567" lon="12.243175"><ele>686.0</ele><time>2026-03-29T08:11:20.326Z</time></trkpt><trkpt lat="43.2584567" lon="12.24308"><ele>686.0</ele><time>2026-03-29T08:11:21.326Z</time></trkpt><trkpt lat="43.2584417" lon="12.2429817"><ele>686.0</ele><time>2026-03-29T08:11:22.323Z</time></trkpt><trkpt lat="43.2584167" lon="12.2429"><ele>686.0</ele><time>2026-03-29T08:11:23.327Z</time></trkpt><trkpt lat="43.258385" lon="12.2427717"><ele>685.0</ele><time>2026-03-29T08:11:25.324Z</time></trkpt><trkpt lat="43.2584067" lon="12.2426383"><ele>684.0</ele><time>2026-03-29T08:11:27.324Z</time></trkpt><trkpt lat="43.2584517" lon="12.2424917"><ele>683.0</ele><time>2026-03-29T08:11:29.323Z</time></trkpt><trkpt lat="43.258475" lon="12.2423317"><ele>682.0</ele><time>2026-03-29T08:11:31.322Z</time></trkpt><trkpt lat="43.2584883" lon="12.24218"><ele>681.0</ele><time>2026-03-29T08:11:33.326Z</time></trkpt><trkpt lat="43.25851" lon="12.2420233"><ele>678.5999999999999</ele><time>2026-03-29T08:11:35.321Z</time></trkpt><trkpt lat="43.25856" lon="12.24189"><ele>676.2</ele><time>2026-03-29T08:11:37.322Z</time></trkpt><trkpt lat="43.2586217" lon="12.24186"><ele>673.8</ele><time>2026-03-29T08:11:41.32Z</time></trkpt><trkpt lat="43.2587233" lon="12.2418267"><ele>671.4000000000001</ele><time>2026-03-29T08:11:43.322Z</time></trkpt><trkpt lat="43.25878" lon="12.24178"><ele>669.0</ele><time>2026-03-29T08:11:44.321Z</time></trkpt><trkpt lat="43.2588817" lon="12.241715"><ele>668.0</ele><time>2026-03-29T08:11:46.324Z</time></trkpt><trkpt lat="43.2590033" lon="12.24173"><ele>667.0</ele><time>2026-03-29T08:11:48.321Z</time></trkpt><trkpt lat="43.2590617" lon="12.2417683"><ele>666.0</ele><time>2026-03-29T08:11:49.32Z</time></trkpt><trkpt lat="43.2591183" lon="12.2418083"><ele>665.0</ele><time>2026-03-29T08:11:50.321Z</time></trkpt><trkpt lat="43.2592233" lon="12.2418883"><ele>664.0</ele><time>2026-03-29T08:11:52.325Z</time></trkpt><trkpt lat="43.25931" lon="12.2419783"><ele>664.0</ele><time>2026-03-29T08:11:54.322Z</time></trkpt><trkpt lat="43.259355" lon="12.2420917"><ele>664.0</ele><time>2026-03-29T08:11:56.329Z</time></trkpt><trkpt lat="43.2593633" lon="12.24222"><ele>664.0</ele><time>2026-03-29T08:11:58.318Z</time></trkpt><trkpt lat="43.2593767" lon="12.24233"><ele>664.0</ele><time>2026-03-29T08:12:00.326Z</time></trkpt><trkpt lat="43.259395" lon="12.242435"><ele>664.0</ele><time>2026-03-29T08:12:02.321Z</time></trkpt><trkpt lat="43.25944" lon="12.2425267"><ele>664.0</ele><time>2026-03-29T08:12:04.323Z</time></trkpt><trkpt lat="43.259495" lon="12.2426117"><ele>665.0</ele><time>2026-03-29T08:12:06.321Z</time></trkpt><trkpt lat="43.2595867" lon="12.2427133"><ele>666.0</ele><time>2026-03-29T08:12:08.33Z</time></trkpt><trkpt lat="43.2596533" lon="12.242775"><ele>667.0</ele><time>2026-03-29T08:12:09.325Z</time></trkpt><trkpt lat="43.2597283" lon="12.2428367"><ele>668.0</ele><time>2026-03-29T08:12:10.324Z</time></trkpt><trkpt lat="43.2598083" lon="12.2428817"><ele>669.0</ele><time>2026-03-29T08:12:11.323Z</time></trkpt><trkpt lat="43.2598833" lon="12.2429283"><ele>666.0</ele><time>2026-03-29T08:12:12.321Z</time></trkpt><trkpt lat="43.25996" lon="12.2429867"><ele>663.0</ele><time>2026-03-29T08:12:13.329Z</time></trkpt><trkpt lat="43.260035" lon="12.243035"><ele>660.0</ele><time>2026-03-29T08:12:14.326Z</time></trkpt><trkpt lat="43.26011" lon="12.2430883"><ele>657.0</ele><time>2026-03-29T08:12:15.324Z</time></trkpt><trkpt lat="43.2601817" lon="12.2431333"><ele>654.0</ele><time>2026-03-29T08:12:16.32Z</time></trkpt><trkpt lat="43.2602433" lon="12.2431817"><ele>651.0</ele><time>2026-03-29T08:12:17.323Z</time></trkpt><trkpt lat="43.26033" lon="12.24327"><ele>650.8333333333334</ele><time>2026-03-29T08:12:19.323Z</time></trkpt><trkpt lat="43.26042" lon="12.2433083"><ele>650.6666666666666</ele><time>2026-03-29T08:12:21.325Z</time></trkpt><trkpt lat="43.2604833" lon="12.2433183"><ele>650.5</ele><time>2026-03-29T08:12:22.324Z</time></trkpt><trkpt lat="43.2605467" lon="12.24333"><ele>650.3333333333333</ele><time>2026-03-29T08:12:23.323Z</time></trkpt><trkpt lat="43.2606133" lon="12.24333"><ele>650.1666666666666</ele><time>2026-03-29T08:12:24.324Z</time></trkpt><trkpt lat="43.26068" lon="12.2433133"><ele>650.0</ele><time>2026-03-29T08:12:25.325Z</time></trkpt><trkpt lat="43.2607933" lon="12.2432767"><ele>648.7142857142857</ele><time>2026-03-29T08:12:27.323Z</time></trkpt><trkpt lat="43.2608583" lon="12.2433133"><ele>647.4285714285714</ele><time>2026-03-29T08:12:29.323Z</time></trkpt><trkpt lat="43.26092" lon="12.2434183"><ele>646.1428571428571</ele><time>2026-03-29T08:12:31.323Z</time></trkpt><trkpt lat="43.2609733" lon="12.2434667"><ele>644.8571428571429</ele><time>2026-03-29T08:12:32.323Z</time></trkpt><trkpt lat="43.2610367" lon="12.24351"><ele>643.5714285714286</ele><time>2026-03-29T08:12:33.323Z</time></trkpt><trkpt lat="43.2610983" lon="12.2435433"><ele>642.2857142857143</ele><time>2026-03-29T08:12:34.325Z</time></trkpt><trkpt lat="43.2611667" lon="12.24356"><ele>641.0</ele><time>2026-03-29T08:12:35.322Z</time></trkpt><trkpt lat="43.2612467" lon="12.24356"><ele>641.0</ele><time>2026-03-29T08:12:36.323Z</time></trkpt><trkpt lat="43.2613283" lon="12.2435483"><ele>641.0</ele><time>2026-03-29T08:12:37.323Z</time></trkpt><trkpt lat="43.2614067" lon="12.2435317"><ele>641.0</ele><time>2026-03-29T08:12:38.323Z</time></trkpt><trkpt lat="43.2614833" lon="12.2435183"><ele>641.0</ele><time>2026-03-29T08:12:39.323Z</time></trkpt><trkpt lat="43.2615583" lon="12.2435183"><ele>641.0</ele><time>2026-03-29T08:12:40.321Z</time></trkpt><trkpt lat="43.2616383" lon="12.2435167"><ele>641.0</ele><time>2026-03-29T08:12:41.32Z</time></trkpt><trkpt lat="43.2617167" lon="12.2435167"><ele>639.1666666666666</ele><time>2026-03-29T08:12:42.327Z</time></trkpt><trkpt lat="43.261795" lon="12.2435283"><ele>637.3333333333333</ele><time>2026-03-29T08:12:43.321Z</time></trkpt><trkpt lat="43.2618717" lon="12.2435517"><ele>635.5</ele><time>2026-03-29T08:12:44.323Z</time></trkpt><trkpt lat="43.2619517" lon="12.2435767"><ele>633.6666666666666</ele><time>2026-03-29T08:12:45.323Z</time></trkpt><trkpt lat="43.2620283" lon="12.2436033"><ele>631.8333333333334</ele><time>2026-03-29T08:12:46.323Z</time></trkpt><trkpt lat="43.262105" lon="12.2436333"><ele>630.0</ele><time>2026-03-29T08:12:47.32Z</time></trkpt><trkpt lat="43.262175" lon="12.243675"><ele>630.0</ele><time>2026-03-29T08:12:48.325Z</time></trkpt><trkpt lat="43.2622433" lon="12.2437233"><ele>630.0</ele><time>2026-03-29T08:12:49.322Z</time></trkpt><trkpt lat="43.2623133" lon="12.2437717"><ele>630.0</ele><time>2026-03-29T08:12:50.322Z</time></trkpt><trkpt lat="43.2623867" lon="12.2438233"><ele>630.0</ele><time>2026-03-29T08:12:51.327Z</time></trkpt><trkpt lat="43.262465" lon="12.2438833"><ele>630.0</ele><time>2026-03-29T08:12:52.322Z</time></trkpt><trkpt lat="43.2625533" lon="12.2439583"><ele>630.0</ele><time>2026-03-29T08:12:53.324Z</time></trkpt><trkpt lat="43.26264" lon="12.2440233"><ele>628.0</ele><time>2026-03-29T08:12:54.322Z</time></trkpt><trkpt lat="43.2627083" lon="12.24408"><ele>626.0</ele><time>2026-03-29T08:12:55.324Z</time></trkpt><trkpt lat="43.2628067" lon="12.244135"><ele>624.0</ele><time>2026-03-29T08:12:57.321Z</time></trkpt><trkpt lat="43.2628667" lon="12.2440467"><ele>622.0</ele><time>2026-03-29T08:13:00.323Z</time></trkpt><trkpt lat="43.2628783" lon="12.2438933"><ele>620.0</ele><time>2026-03-29T08:13:02.323Z</time></trkpt><trkpt lat="43.2628817" lon="12.2437267"><ele>620.0</ele><time>2026-03-29T08:13:04.32Z</time></trkpt><trkpt lat="43.2628783" lon="12.2436267"><ele>620.0</ele><time>2026-03-29T08:13:05.326Z</time></trkpt><trkpt lat="43.2628667" lon="12.2435283"><ele>620.0</ele><time>2026-03-29T08:13:06.324Z</time></trkpt><trkpt lat="43.2628533" lon="12.24342"><ele>620.0</ele><time>2026-03-29T08:13:07.324Z</time></trkpt><trkpt lat="43.2628367" lon="12.2433117"><ele>620.0</ele><time>2026-03-29T08:13:08.323Z</time></trkpt><trkpt lat="43.2628217" lon="12.24321"><ele>620.0</ele><time>2026-03-29T08:13:09.323Z</time></trkpt><trkpt lat="43.262815" lon="12.2431117"><ele>619.8333333333333</ele><time>2026-03-29T08:13:10.324Z</time></trkpt><trkpt lat="43.2628183" lon="12.2430017"><ele>619.6666666666666</ele><time>2026-03-29T08:13:11.322Z</time></trkpt><trkpt lat="43.2628317" lon="12.2428983"><ele>619.5</ele><time>2026-03-29T08:13:12.322Z</time></trkpt><trkpt lat="43.2628417" lon="12.2427933"><ele>619.3333333333334</ele><time>2026-03-29T08:13:13.323Z</time></trkpt><trkpt lat="43.2628333" lon="12.242685"><ele>619.1666666666667</ele><time>2026-03-29T08:13:14.324Z</time></trkpt><trkpt lat="43.2628217" lon="12.2425883"><ele>619.0</ele><time>2026-03-29T08:13:15.322Z</time></trkpt><trkpt lat="43.2628167" lon="12.2424983"><ele>619.0</ele><time>2026-03-29T08:13:16.32Z</time></trkpt><trkpt lat="43.2628367" lon="12.2423467"><ele>619.0</ele><time>2026-03-29T08:13:18.321Z</time></trkpt><trkpt lat="43.2628733" lon="12.2421883"><ele>619.0</ele><time>2026-03-29T08:13:20.322Z</time></trkpt><trkpt lat="43.2629383" lon="12.2420683"><ele>619.0</ele><time>2026-03-29T08:13:22.322Z</time></trkpt><trkpt lat="43.26298" lon="12.2419983"><ele>619.0</ele><time>2026-03-29T08:13:23.325Z</time></trkpt><trkpt lat="43.2630133" lon="12.241905"><ele>617.8333333333334</ele><time>2026-03-29T08:13:24.323Z</time></trkpt><trkpt lat="43.26303" lon="12.2417983"><ele>616.6666666666667</ele><time>2026-03-29T08:13:25.323Z</time></trkpt><trkpt lat="43.2630283" lon="12.24169"><ele>615.5</ele><time>2026-03-29T08:13:26.322Z</time></trkpt><trkpt lat="43.2630117" lon="12.2415783"><ele>614.3333333333334</ele><time>2026-03-29T08:13:27.328Z</time></trkpt><trkpt lat="43.26297" lon="12.2414683"><ele>613.1666666666666</ele><time>2026-03-29T08:13:28.324Z</time></trkpt><trkpt lat="43.26292" lon="12.2413683"><ele>612.0</ele><time>2026-03-29T08:13:29.32Z</time></trkpt><trkpt lat="43.26288" lon="12.2412817"><ele>610.2</ele><time>2026-03-29T08:13:30.32Z</time></trkpt><trkpt lat="43.2628483" lon="12.241195"><ele>608.4000000000001</ele><time>2026-03-29T08:13:31.322Z</time></trkpt><trkpt lat="43.26283" lon="12.24111"><ele>606.5999999999999</ele><time>2026-03-29T08:13:32.323Z</time></trkpt><trkpt lat="43.2627733" lon="12.2409833"><ele>604.8</ele><time>2026-03-29T08:13:34.322Z</time></trkpt><trkpt lat="43.2626467" lon="12.2409583"><ele>603.0</ele><time>2026-03-29T08:13:36.322Z</time></trkpt><trkpt lat="43.26256" lon="12.2409733"><ele>603.0</ele><time>2026-03-29T08:13:37.325Z</time></trkpt><trkpt lat="43.26247" lon="12.2409917"><ele>603.0</ele><time>2026-03-29T08:13:38.322Z</time></trkpt><trkpt lat="43.2623833" lon="12.2410217"><ele>603.0</ele><time>2026-03-29T08:13:39.324Z</time></trkpt><trkpt lat="43.26231" lon="12.2410483"><ele>603.0</ele><time>2026-03-29T08:13:40.325Z</time></trkpt><trkpt lat="43.26221" lon="12.241045"><ele>603.0</ele><time>2026-03-29T08:13:42.321Z</time></trkpt><trkpt lat="43.2621683" lon="12.2409483"><ele>603.0</ele><time>2026-03-29T08:13:44.321Z</time></trkpt><trkpt lat="43.2621617" lon="12.2408583"><ele>602.5</ele><time>2026-03-29T08:13:45.324Z</time></trkpt><trkpt lat="43.2621467" lon="12.24074"><ele>602.0</ele><time>2026-03-29T08:13:46.323Z</time></trkpt><trkpt lat="43.2621333" lon="12.240595"><ele>601.5</ele><time>2026-03-29T08:13:47.322Z</time></trkpt><trkpt lat="43.2621233" lon="12.2404867"><ele>601.0</ele><time>2026-03-29T08:13:48.32Z</time></trkpt><trkpt lat="43.26213" lon="12.2403867"><ele>600.5</ele><time>2026-03-29T08:13:49.321Z</time></trkpt><trkpt lat="43.2621383" lon="12.240295"><ele>600.0</ele><time>2026-03-29T08:13:50.32Z</time></trkpt><trkpt lat="43.2621383" lon="12.2401983"><ele>600.0</ele><time>2026-03-29T08:13:51.321Z</time></trkpt><trkpt lat="43.26213" lon="12.2401083"><ele>600.0</ele><time>2026-03-29T08:13:52.32Z</time></trkpt><trkpt lat="43.26212" lon="12.24002"><ele>600.0</ele><time>2026-03-29T08:13:53.32Z</time></trkpt><trkpt lat="43.2621017" lon="12.2399367"><ele>600.0</ele><time>2026-03-29T08:13:54.322Z</time></trkpt><trkpt lat="43.262045" lon="12.23981"><ele>600.0</ele><time>2026-03-29T08:13:56.322Z</time></trkpt><trkpt lat="43.2619383" lon="12.2397633"><ele>600.0</ele><time>2026-03-29T08:13:58.321Z</time></trkpt><trkpt lat="43.26185" lon="12.2397667"><ele>600.0</ele><time>2026-03-29T08:13:59.322Z</time></trkpt><trkpt lat="43.2617483" lon="12.2397933"><ele>600.0</ele><time>2026-03-29T08:14:00.322Z</time></trkpt><trkpt lat="43.2616517" lon="12.2398383"><ele>600.0</ele><time>2026-03-29T08:14:01.322Z</time></trkpt><trkpt lat="43.2615617" lon="12.2398733"><ele>600.0</ele><time>2026-03-29T08:14:02.321Z</time></trkpt><trkpt lat="43.261495" lon="12.23989"><ele>600.0</ele><time>2026-03-29T08:14:03.322Z</time></trkpt><trkpt lat="43.2614217" lon="12.2398717"><ele>600.0</ele><time>2026-03-29T08:14:05.322Z</time></trkpt><trkpt lat="43.26141" lon="12.2397533"><ele>601.4</ele><time>2026-03-29T08:14:08.324Z</time></trkpt><trkpt lat="43.2613617" lon="12.23963"><ele>602.8</ele><time>2026-03-29T08:14:10.324Z</time></trkpt><trkpt lat="43.2613167" lon="12.2395533"><ele>604.2</ele><time>2026-03-29T08:14:11.323Z</time></trkpt><trkpt lat="43.2612633" lon="12.2394417"><ele>605.6</ele><time>2026-03-29T08:14:12.322Z</time></trkpt><trkpt lat="43.26122" lon="12.2393533"><ele>607.0</ele><time>2026-03-29T08:14:13.325Z</time></trkpt><trkpt lat="43.26115" lon="12.239225"><ele>607.0</ele><time>2026-03-29T08:14:15.32Z</time></trkpt><trkpt lat="43.2611267" lon="12.2390883"><ele>607.0</ele><time>2026-03-29T08:14:17.324Z</time></trkpt><trkpt lat="43.2611667" lon="12.2389533"><ele>607.0</ele><time>2026-03-29T08:14:19.321Z</time></trkpt><trkpt lat="43.2612183" lon="12.2387967"><ele>607.0</ele><time>2026-03-29T08:14:21.324Z</time></trkpt><trkpt lat="43.2612183" lon="12.23869"><ele>607.0</ele><time>2026-03-29T08:14:22.323Z</time></trkpt><trkpt lat="43.26121" lon="12.2385733"><ele>604.6666666666667</ele><time>2026-03-29T08:14:23.32Z</time></trkpt><trkpt lat="43.2611833" lon="12.2384467"><ele>602.3333333333334</ele><time>2026-03-29T08:14:24.32Z</time></trkpt><trkpt lat="43.261155" lon="12.2383333"><ele>600.0</ele><time>2026-03-29T08:14:25.32Z</time></trkpt><trkpt lat="43.2611167" lon="12.238235"><ele>597.6666666666666</ele><time>2026-03-29T08:14:26.32Z</time></trkpt><trkpt lat="43.2610717" lon="12.238165"><ele>595.3333333333333</ele><time>2026-03-29T08:14:27.322Z</time></trkpt><trkpt lat="43.2610217" lon="12.2380967"><ele>593.0</ele><time>2026-03-29T08:14:28.321Z</time></trkpt><trkpt lat="43.2609317" lon="12.2380317"><ele>592.0</ele><time>2026-03-29T08:14:29.32Z</time></trkpt><trkpt lat="43.2608433" lon="12.2379633"><ele>591.0</ele><time>2026-03-29T08:14:30.322Z</time></trkpt><trkpt lat="43.2607633" lon="12.2378967"><ele>590.0</ele><time>2026-03-29T08:14:31.32Z</time></trkpt><trkpt lat="43.26069" lon="12.23783"><ele>589.0</ele><time>2026-03-29T08:14:32.32Z</time></trkpt><trkpt lat="43.2606183" lon="12.2377783"><ele>588.0</ele><time>2026-03-29T08:14:33.32Z</time></trkpt><trkpt lat="43.2605417" lon="12.2377383"><ele>587.0</ele><time>2026-03-29T08:14:34.318Z</time></trkpt><trkpt lat="43.26045" lon="12.2377033"><ele>587.0</ele><time>2026-03-29T08:14:35.319Z</time></trkpt><trkpt lat="43.2603583" lon="12.237675"><ele>587.0</ele><time>2026-03-29T08:14:36.32Z</time></trkpt><trkpt lat="43.260285" lon="12.2376483"><ele>587.0</ele><time>2026-03-29T08:14:37.32Z</time></trkpt><trkpt lat="43.2602167" lon="12.237615"><ele>587.0</ele><time>2026-03-29T08:14:38.324Z</time></trkpt><trkpt lat="43.2601483" lon="12.2375817"><ele>587.0</ele><time>2026-03-29T08:14:39.322Z</time></trkpt><trkpt lat="43.2600883" lon="12.23754"><ele>587.0</ele><time>2026-03-29T08:14:40.321Z</time></trkpt><trkpt lat="43.2600467" lon="12.2374667"><ele>587.0</ele><time>2026-03-29T08:14:41.319Z</time></trkpt><trkpt lat="43.2600217" lon="12.2373617"><ele>587.0</ele><time>2026-03-29T08:14:42.321Z</time></trkpt><trkpt lat="43.2600017" lon="12.2372633"><ele>587.0</ele><time>2026-03-29T08:14:43.323Z</time></trkpt><trkpt lat="43.25998" lon="12.23716"><ele>587.0</ele><time>2026-03-29T08:14:44.322Z</time></trkpt><trkpt lat="43.259955" lon="12.23706"><ele>587.0</ele><time>2026-03-29T08:14:45.322Z</time></trkpt><trkpt lat="43.2599317" lon="12.2369667"><ele>587.0</ele><time>2026-03-29T08:14:46.32Z</time></trkpt><trkpt lat="43.2599217" lon="12.2368783"><ele>587.0</ele><time>2026-03-29T08:14:47.324Z</time></trkpt><trkpt lat="43.2599267" lon="12.236725"><ele>585.0</ele><time>2026-03-29T08:14:49.322Z</time></trkpt><trkpt lat="43.2599667" lon="12.2366333"><ele>583.0</ele><time>2026-03-29T08:14:51.322Z</time></trkpt><trkpt lat="43.2600483" lon="12.23661"><ele>581.0</ele><time>2026-03-29T08:14:53.319Z</time></trkpt><trkpt lat="43.2601717" lon="12.2366"><ele>579.0</ele><time>2026-03-29T08:14:55.32Z</time></trkpt><trkpt lat="43.26024" lon="12.2365783"><ele>577.0</ele><time>2026-03-29T08:14:56.321Z</time></trkpt><trkpt lat="43.2603017" lon="12.236555"><ele>575.0</ele><time>2026-03-29T08:14:57.322Z</time></trkpt><trkpt lat="43.2603967" lon="12.2364883"><ele>572.2</ele><time>2026-03-29T08:14:59.321Z</time></trkpt><trkpt lat="43.2604233" lon="12.236355"><ele>569.4</ele><time>2026-03-29T08:15:01.322Z</time></trkpt><trkpt lat="43.2603833" lon="12.236195"><ele>566.6</ele><time>2026-03-29T08:15:03.324Z</time></trkpt><trkpt lat="43.2603667" lon="12.236095"><ele>563.8</ele><time>2026-03-29T08:15:04.319Z</time></trkpt><trkpt lat="43.2603567" lon="12.23598"><ele>561.0</ele><time>2026-03-29T08:15:05.322Z</time></trkpt><trkpt lat="43.2603483" lon="12.2358717"><ele>561.0</ele><time>2026-03-29T08:15:06.322Z</time></trkpt><trkpt lat="43.2603367" lon="12.2357783"><ele>561.0</ele><time>2026-03-29T08:15:07.321Z</time></trkpt><trkpt lat="43.2603217" lon="12.2356633"><ele>561.0</ele><time>2026-03-29T08:15:09.32Z</time></trkpt><trkpt lat="43.2602333" lon="12.2356583"><ele>561.0</ele><time>2026-03-29T08:15:11.321Z</time></trkpt><trkpt lat="43.260135" lon="12.2356717"><ele>561.0</ele><time>2026-03-29T08:15:12.319Z</time></trkpt><trkpt lat="43.2600583" lon="12.23568"><ele>561.0</ele><time>2026-03-29T08:15:13.322Z</time></trkpt><trkpt lat="43.2599917" lon="12.2356833"><ele>561.0</ele><time>2026-03-29T08:15:14.322Z</time></trkpt><trkpt lat="43.2599217" lon="12.2356767"><ele>561.0</ele><time>2026-03-29T08:15:15.321Z</time></trkpt><trkpt lat="43.2598633" lon="12.2356383"><ele>561.0</ele><time>2026-03-29T08:15:16.324Z</time></trkpt><trkpt lat="43.2598367" lon="12.2355267"><ele>561.0</ele><time>2026-03-29T08:15:18.321Z</time></trkpt><trkpt lat="43.2599333" lon="12.2354"><ele>561.0</ele><time>2026-03-29T08:15:20.321Z</time></trkpt><trkpt lat="43.2599883" lon="12.2353317"><ele>561.0</ele><time>2026-03-29T08:15:21.321Z</time></trkpt><trkpt lat="43.2600383" lon="12.235275"><ele>557.2</ele><time>2026-03-29T08:15:22.323Z</time></trkpt><trkpt lat="43.26009" lon="12.235225"><ele>553.4000000000001</ele><time>2026-03-29T08:15:23.326Z</time></trkpt><trkpt lat="43.2601717" lon="12.23512"><ele>549.6</ele><time>2026-03-29T08:15:25.324Z</time></trkpt><trkpt lat="43.2601867" lon="12.2350033"><ele>545.8000000000001</ele><time>2026-03-29T08:15:27.322Z</time></trkpt><trkpt lat="43.260135" lon="12.2348733"><ele>542.0</ele><time>2026-03-29T08:15:29.321Z</time></trkpt><trkpt lat="43.2600317" lon="12.2347667"><ele>541.75</ele><time>2026-03-29T08:15:31.322Z</time></trkpt><trkpt lat="43.2599283" lon="12.2347633"><ele>541.5</ele><time>2026-03-29T08:15:32.322Z</time></trkpt><trkpt lat="43.25983" lon="12.2347783"><ele>541.25</ele><time>2026-03-29T08:15:33.321Z</time></trkpt><trkpt lat="43.2597017" lon="12.23485"><ele>541.0</ele><time>2026-03-29T08:15:34.322Z</time></trkpt><trkpt lat="43.2595683" lon="12.2349433"><ele>541.0</ele><time>2026-03-29T08:15:35.321Z</time></trkpt><trkpt lat="43.2594233" lon="12.2350183"><ele>541.0</ele><time>2026-03-29T08:15:36.323Z</time></trkpt><trkpt lat="43.2593183" lon="12.2350917"><ele>541.0</ele><time>2026-03-29T08:15:37.319Z</time></trkpt><trkpt lat="43.2592333" lon="12.2351633"><ele>541.0</ele><time>2026-03-29T08:15:38.319Z</time></trkpt><trkpt lat="43.259155" lon="12.2352117"><ele>541.0</ele><time>2026-03-29T08:15:39.325Z</time></trkpt><trkpt lat="43.2590883" lon="12.235245"><ele>541.0</ele><time>2026-03-29T08:15:40.322Z</time></trkpt><trkpt lat="43.258985" lon="12.2352867"><ele>541.0</ele><time>2026-03-29T08:15:42.324Z</time></trkpt><trkpt lat="43.2588983" lon="12.2353167"><ele>541.0</ele><time>2026-03-29T08:15:44.323Z</time></trkpt><trkpt lat="43.2588683" lon="12.2352083"><ele>541.0</ele><time>2026-03-29T08:15:47.326Z</time></trkpt><trkpt lat="43.2588417" lon="12.2350683"><ele>541.8</ele><time>2026-03-29T08:15:49.319Z</time></trkpt><trkpt lat="43.2588467" lon="12.2348917"><ele>542.6</ele><time>2026-03-29T08:15:50.322Z</time></trkpt><trkpt lat="43.258815" lon="12.23478"><ele>543.4</ele><time>2026-03-29T08:15:51.321Z</time></trkpt><trkpt lat="43.2587867" lon="12.234675"><ele>544.2</ele><time>2026-03-29T08:15:52.32Z</time></trkpt><trkpt lat="43.25873" lon="12.234575"><ele>545.0</ele><time>2026-03-29T08:15:53.321Z</time></trkpt><trkpt lat="43.25868" lon="12.2344817"><ele>543.4</ele><time>2026-03-29T08:15:54.324Z</time></trkpt><trkpt lat="43.2585833" lon="12.2344233"><ele>541.8</ele><time>2026-03-29T08:15:55.32Z</time></trkpt><trkpt lat="43.2584967" lon="12.2343667"><ele>540.2</ele><time>2026-03-29T08:15:56.32Z</time></trkpt><trkpt lat="43.2584333" lon="12.2343417"><ele>538.6</ele><time>2026-03-29T08:15:57.326Z</time></trkpt><trkpt lat="43.2583067" lon="12.23433"><ele>537.0</ele><time>2026-03-29T08:15:59.321Z</time></trkpt><trkpt lat="43.2582417" lon="12.2343183"><ele>537.0</ele><time>2026-03-29T08:16:00.321Z</time></trkpt><trkpt lat="43.2581367" lon="12.2342883"><ele>537.0</ele><time>2026-03-29T08:16:02.322Z</time></trkpt><trkpt lat="43.258035" lon="12.2342067"><ele>537.0</ele><time>2026-03-29T08:16:04.321Z</time></trkpt><trkpt lat="43.2579783" lon="12.2341517"><ele>537.0</ele><time>2026-03-29T08:16:05.325Z</time></trkpt><trkpt lat="43.2579317" lon="12.2340817"><ele>537.0</ele><time>2026-03-29T08:16:06.32Z</time></trkpt><trkpt lat="43.2578683" lon="12.2339533"><ele>538.2</ele><time>2026-03-29T08:16:08.321Z</time></trkpt><trkpt lat="43.2578133" lon="12.2338167"><ele>539.4000000000001</ele><time>2026-03-29T08:16:10.323Z</time></trkpt><trkpt lat="43.2577333" lon="12.2337167"><ele>540.5999999999999</ele><time>2026-03-29T08:16:12.321Z</time></trkpt><trkpt lat="43.2576483" lon="12.2336517"><ele>541.8</ele><time>2026-03-29T08:16:14.325Z</time></trkpt><trkpt lat="43.2575567" lon="12.2336417"><ele>543.0</ele><time>2026-03-29T08:16:16.322Z</time></trkpt><trkpt lat="43.2574467" lon="12.233615"><ele>543.0</ele><time>2026-03-29T08:16:18.322Z</time></trkpt><trkpt lat="43.2573483" lon="12.2335083"><ele>543.0</ele><time>2026-03-29T08:16:20.324Z</time></trkpt><trkpt lat="43.25731" lon="12.2334217"><ele>543.0</ele><time>2026-03-29T08:16:21.321Z</time></trkpt><trkpt lat="43.2572817" lon="12.2333383"><ele>543.0</ele><time>2026-03-29T08:16:22.321Z</time></trkpt><trkpt lat="43.2572633" lon="12.2332533"><ele>543.0</ele><time>2026-03-29T08:16:23.326Z</time></trkpt><trkpt lat="43.2572433" lon="12.233155"><ele>543.0</ele><time>2026-03-29T08:16:24.324Z</time></trkpt><trkpt lat="43.2572117" lon="12.233055"><ele>546.1999999999999</ele><time>2026-03-29T08:16:26.323Z</time></trkpt><trkpt lat="43.257165" lon="12.23317"><ele>549.4</ele><time>2026-03-29T08:16:28.327Z</time></trkpt><trkpt lat="43.2571283" lon="12.2332883"><ele>552.5999999999999</ele><time>2026-03-29T08:16:30.322Z</time></trkpt><trkpt lat="43.25703" lon="12.23339"><ele>555.8</ele><time>2026-03-29T08:16:32.321Z</time></trkpt><trkpt lat="43.25695" lon="12.2334767"><ele>559.0</ele><time>2026-03-29T08:16:34.32Z</time></trkpt><trkpt lat="43.2569017" lon="12.23356"><ele>559.0</ele><time>2026-03-29T08:16:36.327Z</time></trkpt><trkpt lat="43.256845" lon="12.2336167"><ele>559.0</ele><time>2026-03-29T08:16:38.322Z</time></trkpt><trkpt lat="43.2567783" lon="12.233665"><ele>559.0</ele><time>2026-03-29T08:16:40.323Z</time></trkpt><trkpt lat="43.2566717" lon="12.23374"><ele>559.0</ele><time>2026-03-29T08:16:42.321Z</time></trkpt><trkpt lat="43.2565933" lon="12.23382"><ele>559.0</ele><time>2026-03-29T08:16:44.32Z</time></trkpt><trkpt lat="43.2565417" lon="12.2338867"><ele>559.0</ele><time>2026-03-29T08:16:46.323Z</time></trkpt><trkpt lat="43.2564833" lon="12.2339333"><ele>562.6</ele><time>2026-03-29T08:16:48.326Z</time></trkpt><trkpt lat="43.2564133" lon="12.2339717"><ele>566.2</ele><time>2026-03-29T08:16:50.325Z</time></trkpt><trkpt lat="43.25632" lon="12.234"><ele>569.8000000000001</ele><time>2026-03-29T08:16:52.322Z</time></trkpt><trkpt lat="43.2562267" lon="12.2340483"><ele>573.4</ele><time>2026-03-29T08:16:54.322Z</time></trkpt><trkpt lat="43.2561833" lon="12.2341617"><ele>577.0</ele><time>2026-03-29T08:16:56.324Z</time></trkpt><trkpt lat="43.256195" lon="12.2343467"><ele>577.0</ele><time>2026-03-29T08:16:58.327Z</time></trkpt><trkpt lat="43.2562167" lon="12.2344667"><ele>577.0</ele><time>2026-03-29T08:16:59.32Z</time></trkpt><trkpt lat="43.2562367" lon="12.2346"><ele>577.0</ele><time>2026-03-29T08:17:01.322Z</time></trkpt><trkpt lat="43.2562417" lon="12.2346967"><ele>577.0</ele><time>2026-03-29T08:17:03.323Z</time></trkpt><trkpt lat="43.2562117" lon="12.2347983"><ele>577.0</ele><time>2026-03-29T08:17:05.322Z</time></trkpt><trkpt lat="43.2562417" lon="12.2349267"><ele>577.0</ele><time>2026-03-29T08:17:07.322Z</time></trkpt><trkpt lat="43.2563133" lon="12.2350267"><ele>579.6</ele><time>2026-03-29T08:17:09.324Z</time></trkpt><trkpt lat="43.25633" lon="12.23514"><ele>582.2</ele><time>2026-03-29T08:17:12.323Z</time></trkpt><trkpt lat="43.2562883" lon="12.23526"><ele>584.8</ele><time>2026-03-29T08:17:14.322Z</time></trkpt><trkpt lat="43.256255" lon="12.23537"><ele>587.4</ele><time>2026-03-29T08:17:16.324Z</time></trkpt><trkpt lat="43.256245" lon="12.2354833"><ele>590.0</ele><time>2026-03-29T08:17:18.321Z</time></trkpt><trkpt lat="43.2562633" lon="12.2356333"><ele>593.2</ele><time>2026-03-29T08:17:19.325Z</time></trkpt><trkpt lat="43.2562067" lon="12.2357083"><ele>596.4</ele><time>2026-03-29T08:17:22.328Z</time></trkpt><trkpt lat="43.256175" lon="12.2357833"><ele>599.6</ele><time>2026-03-29T08:17:28.323Z</time></trkpt><trkpt lat="43.2561383" lon="12.2359017"><ele>602.8</ele><time>2026-03-29T08:17:30.321Z</time></trkpt><trkpt lat="43.2560933" lon="12.236045"><ele>606.0</ele><time>2026-03-29T08:17:32.322Z</time></trkpt><trkpt lat="43.25601" lon="12.236175"><ele>606.0</ele><time>2026-03-29T08:17:34.324Z</time></trkpt><trkpt lat="43.2559533" lon="12.2362467"><ele>606.0</ele><time>2026-03-29T08:17:35.323Z</time></trkpt><trkpt lat="43.2558933" lon="12.2363117"><ele>606.0</ele><time>2026-03-29T08:17:36.323Z</time></trkpt><trkpt lat="43.2558383" lon="12.2363717"><ele>606.0</ele><time>2026-03-29T08:17:37.324Z</time></trkpt><trkpt lat="43.255745" lon="12.23642"><ele>606.0</ele><time>2026-03-29T08:17:39.322Z</time></trkpt><trkpt lat="43.2556317" lon="12.2364"><ele>606.0</ele><time>2026-03-29T08:17:41.326Z</time></trkpt><trkpt lat="43.255525" lon="12.2363467"><ele>607.8</ele><time>2026-03-29T08:17:43.323Z</time></trkpt><trkpt lat="43.2554617" lon="12.236325"><ele>609.6</ele><time>2026-03-29T08:17:44.323Z</time></trkpt><trkpt lat="43.2553833" lon="12.23632"><ele>611.4</ele><time>2026-03-29T08:17:45.326Z</time></trkpt><trkpt lat="43.2553183" lon="12.2363417"><ele>613.2</ele><time>2026-03-29T08:17:46.325Z</time></trkpt><trkpt lat="43.25523" lon="12.2364533"><ele>615.0</ele><time>2026-03-29T08:17:48.321Z</time></trkpt><trkpt lat="43.2551917" lon="12.2366333"><ele>616.6666666666666</ele><time>2026-03-29T08:17:50.327Z</time></trkpt><trkpt lat="43.255185" lon="12.2367283"><ele>618.3333333333334</ele><time>2026-03-29T08:17:51.325Z</time></trkpt><trkpt lat="43.25519" lon="12.2368367"><ele>620.0</ele><time>2026-03-29T08:17:52.325Z</time></trkpt><trkpt lat="43.2552117" lon="12.2369717"><ele>621.6666666666667</ele><time>2026-03-29T08:17:53.324Z</time></trkpt><trkpt lat="43.25524" lon="12.237085"><ele>623.3333333333334</ele><time>2026-03-29T08:17:54.321Z</time></trkpt><trkpt lat="43.25525" lon="12.237185"><ele>625.0</ele><time>2026-03-29T08:17:55.326Z</time></trkpt><trkpt lat="43.2552633" lon="12.23734"><ele>626.8</ele><time>2026-03-29T08:17:57.325Z</time></trkpt><trkpt lat="43.2552967" lon="12.2374833"><ele>628.6</ele><time>2026-03-29T08:17:58.323Z</time></trkpt><trkpt lat="43.2553067" lon="12.237575"><ele>630.4</ele><time>2026-03-29T08:17:59.32Z</time></trkpt><trkpt lat="43.2552283" lon="12.2376083"><ele>632.2</ele><time>2026-03-29T08:18:01.321Z</time></trkpt><trkpt lat="43.2550667" lon="12.2376"><ele>634.0</ele><time>2026-03-29T08:18:03.322Z</time></trkpt><trkpt lat="43.2549583" lon="12.2376433"><ele>634.0</ele><time>2026-03-29T08:18:05.324Z</time></trkpt><trkpt lat="43.2548683" lon="12.2377233"><ele>634.0</ele><time>2026-03-29T08:18:07.323Z</time></trkpt><trkpt lat="43.2548267" lon="12.2378017"><ele>634.0</ele><time>2026-03-29T08:18:08.321Z</time></trkpt><trkpt lat="43.2547817" lon="12.237865"><ele>634.0</ele><time>2026-03-29T08:18:09.321Z</time></trkpt><trkpt lat="43.2547483" lon="12.2379467"><ele>634.0</ele><time>2026-03-29T08:18:10.323Z</time></trkpt><trkpt lat="43.2547133" lon="12.23802"><ele>634.0</ele><time>2026-03-29T08:18:11.323Z</time></trkpt><trkpt lat="43.2546933" lon="12.2381517"><ele>633.6</ele><time>2026-03-29T08:18:12.323Z</time></trkpt><trkpt lat="43.254675" lon="12.238265"><ele>633.2</ele><time>2026-03-29T08:18:13.325Z</time></trkpt><trkpt lat="43.25465" lon="12.2383867"><ele>632.8000000000001</ele><time>2026-03-29T08:18:14.324Z</time></trkpt><trkpt lat="43.2546583" lon="12.2385733"><ele>632.4</ele><time>2026-03-29T08:18:15.322Z</time></trkpt><trkpt lat="43.2546367" lon="12.23866"><ele>632.0</ele><time>2026-03-29T08:18:16.323Z</time></trkpt><trkpt lat="43.2546117" lon="12.23875"><ele>632.0</ele><time>2026-03-29T08:18:17.321Z</time></trkpt><trkpt lat="43.2545717" lon="12.238885"><ele>632.0</ele><time>2026-03-29T08:18:19.325Z</time></trkpt><trkpt lat="43.2545483" lon="12.2390183"><ele>632.0</ele><time>2026-03-29T08:18:21.321Z</time></trkpt><trkpt lat="43.25451" lon="12.2391767"><ele>632.0</ele><time>2026-03-29T08:18:23.326Z</time></trkpt><trkpt lat="43.25443" lon="12.23929"><ele>632.0</ele><time>2026-03-29T08:18:25.319Z</time></trkpt><trkpt lat="43.2543567" lon="12.2393433"><ele>633.1666666666666</ele><time>2026-03-29T08:18:27.321Z</time></trkpt><trkpt lat="43.2542817" lon="12.2393733"><ele>634.3333333333333</ele><time>2026-03-29T08:18:29.32Z</time></trkpt><trkpt lat="43.254205" lon="12.23939"><ele>635.5</ele><time>2026-03-29T08:18:31.322Z</time></trkpt><trkpt lat="43.25412" lon="12.2394133"><ele>636.6666666666666</ele><time>2026-03-29T08:18:33.325Z</time></trkpt><trkpt lat="43.254025" lon="12.239435"><ele>637.8333333333334</ele><time>2026-03-29T08:18:35.321Z</time></trkpt><trkpt lat="43.2539367" lon="12.239395"><ele>639.0</ele><time>2026-03-29T08:18:39.321Z</time></trkpt><trkpt lat="43.2538617" lon="12.2393533"><ele>639.5</ele><time>2026-03-29T08:18:41.322Z</time></trkpt><trkpt lat="43.25372" lon="12.2393333"><ele>640.0</ele><time>2026-03-29T08:18:43.321Z</time></trkpt><trkpt lat="43.253635" lon="12.23935"><ele>640.5</ele><time>2026-03-29T08:18:44.32Z</time></trkpt><trkpt lat="43.2535567" lon="12.239375"><ele>641.0</ele><time>2026-03-29T08:18:45.321Z</time></trkpt><trkpt lat="43.25349" lon="12.2394067"><ele>641.5</ele><time>2026-03-29T08:18:46.323Z</time></trkpt><trkpt lat="43.2534283" lon="12.239445"><ele>642.0</ele><time>2026-03-29T08:18:47.322Z</time></trkpt><trkpt lat="43.2533183" lon="12.2395333"><ele>642.0</ele><time>2026-03-29T08:18:49.32Z</time></trkpt><trkpt lat="43.2532217" lon="12.2396067"><ele>642.0</ele><time>2026-03-29T08:18:51.32Z</time></trkpt><trkpt lat="43.2531267" lon="12.2396367"><ele>642.0</ele><time>2026-03-29T08:18:53.321Z</time></trkpt><trkpt lat="43.2530217" lon="12.2396033"><ele>642.0</ele><time>2026-03-29T08:18:55.323Z</time></trkpt><trkpt lat="43.2529167" lon="12.2395867"><ele>642.0</ele><time>2026-03-29T08:18:57.32Z</time></trkpt><trkpt lat="43.2527967" lon="12.2396033"><ele>641.6</ele><time>2026-03-29T08:18:59.324Z</time></trkpt><trkpt lat="43.25269" lon="12.2396183"><ele>641.2</ele><time>2026-03-29T08:19:01.32Z</time></trkpt><trkpt lat="43.2525783" lon="12.239615"><ele>640.8</ele><time>2026-03-29T08:19:03.325Z</time></trkpt><trkpt lat="43.2524617" lon="12.239575"><ele>640.4</ele><time>2026-03-29T08:19:05.32Z</time></trkpt><trkpt lat="43.2523633" lon="12.2395383"><ele>640.0</ele><time>2026-03-29T08:19:07.321Z</time></trkpt><trkpt lat="43.2522617" lon="12.2395267"><ele>641.3333333333334</ele><time>2026-03-29T08:19:09.323Z</time></trkpt><trkpt lat="43.25215" lon="12.2395033"><ele>642.6666666666667</ele><time>2026-03-29T08:19:11.323Z</time></trkpt><trkpt lat="43.2520783" lon="12.2394883"><ele>644.0</ele><time>2026-03-29T08:19:12.321Z</time></trkpt><trkpt lat="43.252" lon="12.239465"><ele>645.3333333333334</ele><time>2026-03-29T08:19:13.322Z</time></trkpt><trkpt lat="43.2519233" lon="12.239435"><ele>646.6666666666666</ele><time>2026-03-29T08:19:14.321Z</time></trkpt><trkpt lat="43.2518483" lon="12.2394067"><ele>648.0</ele><time>2026-03-29T08:19:15.321Z</time></trkpt><trkpt lat="43.2517767" lon="12.23939"><ele>648.0</ele><time>2026-03-29T08:19:16.32Z</time></trkpt><trkpt lat="43.2517083" lon="12.2393733"><ele>648.0</ele><time>2026-03-29T08:19:17.32Z</time></trkpt><trkpt lat="43.2515933" lon="12.2393067"><ele>648.0</ele><time>2026-03-29T08:19:19.321Z</time></trkpt><trkpt lat="43.251545" lon="12.2392317"><ele>648.0</ele><time>2026-03-29T08:19:20.324Z</time></trkpt><trkpt lat="43.251465" lon="12.2391033"><ele>648.0</ele><time>2026-03-29T08:19:22.321Z</time></trkpt><trkpt lat="43.2514033" lon="12.2389583"><ele>648.0</ele><time>2026-03-29T08:19:24.325Z</time></trkpt><trkpt lat="43.2513767" lon="12.2388667"><ele>648.0</ele><time>2026-03-29T08:19:25.326Z</time></trkpt><trkpt lat="43.2513283" lon="12.2387717"><ele>648.0</ele><time>2026-03-29T08:19:26.331Z</time></trkpt><trkpt lat="43.2512817" lon="12.238685"><ele>648.0</ele><time>2026-03-29T08:19:27.321Z</time></trkpt><trkpt lat="43.25122" lon="12.2386017"><ele>648.0</ele><time>2026-03-29T08:19:28.321Z</time></trkpt><trkpt lat="43.2511417" lon="12.23853"><ele>648.0</ele><time>2026-03-29T08:19:29.323Z</time></trkpt><trkpt lat="43.2510667" lon="12.2384633"><ele>648.0</ele><time>2026-03-29T08:19:30.322Z</time></trkpt><trkpt lat="43.2509867" lon="12.2384217"><ele>648.0</ele><time>2026-03-29T08:19:31.321Z</time></trkpt><trkpt lat="43.250905" lon="12.2383967"><ele>648.0</ele><time>2026-03-29T08:19:32.324Z</time></trkpt><trkpt lat="43.2508167" lon="12.238395"><ele>648.0</ele><time>2026-03-29T08:19:33.323Z</time></trkpt><trkpt lat="43.2507233" lon="12.2384033"><ele>648.0</ele><time>2026-03-29T08:19:34.323Z</time></trkpt><trkpt lat="43.25064" lon="12.2384083"><ele>648.0</ele><time>2026-03-29T08:19:35.323Z</time></trkpt><trkpt lat="43.2505567" lon="12.2384167"><ele>648.1666666666666</ele><time>2026-03-29T08:19:36.322Z</time></trkpt><trkpt lat="43.2504667" lon="12.2384283"><ele>648.3333333333334</ele><time>2026-03-29T08:19:37.323Z</time></trkpt><trkpt lat="43.2503733" lon="12.2384417"><ele>648.5</ele><time>2026-03-29T08:19:38.324Z</time></trkpt><trkpt lat="43.25029" lon="12.2384567"><ele>648.6666666666667</ele><time>2026-03-29T08:19:39.324Z</time></trkpt><trkpt lat="43.2502033" lon="12.2384733"><ele>648.8333333333334</ele><time>2026-03-29T08:19:40.323Z</time></trkpt><trkpt lat="43.250115" lon="12.2384767"><ele>649.0</ele><time>2026-03-29T08:19:41.32Z</time></trkpt><trkpt lat="43.25003" lon="12.2384767"><ele>649.0</ele><time>2026-03-29T08:19:42.325Z</time></trkpt><trkpt lat="43.2499483" lon="12.2384683"><ele>649.0</ele><time>2026-03-29T08:19:43.323Z</time></trkpt><trkpt lat="43.249875" lon="12.2384467"><ele>649.0</ele><time>2026-03-29T08:19:44.322Z</time></trkpt><trkpt lat="43.249805" lon="12.2384133"><ele>649.0</ele><time>2026-03-29T08:19:45.322Z</time></trkpt><trkpt lat="43.24973" lon="12.238375"><ele>649.0</ele><time>2026-03-29T08:19:46.325Z</time></trkpt><trkpt lat="43.2496617" lon="12.2383233"><ele>649.0</ele><time>2026-03-29T08:19:47.325Z</time></trkpt><trkpt lat="43.249595" lon="12.2382517"><ele>648.6666666666667</ele><time>2026-03-29T08:19:48.323Z</time></trkpt><trkpt lat="43.2495217" lon="12.2381783"><ele>648.3333333333334</ele><time>2026-03-29T08:19:49.322Z</time></trkpt><trkpt lat="43.2494467" lon="12.2381033"><ele>648.0</ele><time>2026-03-29T08:19:50.32Z</time></trkpt><trkpt lat="43.249375" lon="12.2380333"><ele>647.6666666666666</ele><time>2026-03-29T08:19:51.321Z</time></trkpt><trkpt lat="43.2493267" lon="12.2379633"><ele>647.3333333333333</ele><time>2026-03-29T08:19:52.323Z</time></trkpt><trkpt lat="43.24929" lon="12.2378917"><ele>647.0</ele><time>2026-03-29T08:19:53.321Z</time></trkpt><trkpt lat="43.249265" lon="12.2378117"><ele>647.0</ele><time>2026-03-29T08:19:54.322Z</time></trkpt><trkpt lat="43.2492333" lon="12.2377267"><ele>647.0</ele><time>2026-03-29T08:19:55.32Z</time></trkpt><trkpt lat="43.2491833" lon="12.23763"><ele>647.0</ele><time>2026-03-29T08:19:56.32Z</time></trkpt><trkpt lat="43.2491217" lon="12.2375283"><ele>647.0</ele><time>2026-03-29T08:19:57.323Z</time></trkpt><trkpt lat="43.2490683" lon="12.237415"><ele>647.0</ele><time>2026-03-29T08:19:58.322Z</time></trkpt><trkpt lat="43.24902" lon="12.237295"><ele>648.0</ele><time>2026-03-29T08:19:59.322Z</time></trkpt><trkpt lat="43.24898" lon="12.2371733"><ele>649.0</ele><time>2026-03-29T08:20:00.322Z</time></trkpt><trkpt lat="43.2489533" lon="12.2370533"><ele>650.0</ele><time>2026-03-29T08:20:01.32Z</time></trkpt><trkpt lat="43.24894" lon="12.2369383"><ele>651.0</ele><time>2026-03-29T08:20:02.322Z</time></trkpt><trkpt lat="43.248935" lon="12.23683"><ele>652.0</ele><time>2026-03-29T08:20:03.324Z</time></trkpt><trkpt lat="43.2489317" lon="12.2367267"><ele>653.0</ele><time>2026-03-29T08:20:04.324Z</time></trkpt><trkpt lat="43.24892" lon="12.2366183"><ele>653.0</ele><time>2026-03-29T08:20:05.324Z</time></trkpt><trkpt lat="43.2488867" lon="12.2365017"><ele>653.0</ele><time>2026-03-29T08:20:06.319Z</time></trkpt><trkpt lat="43.2488517" lon="12.2363833"><ele>653.0</ele><time>2026-03-29T08:20:07.321Z</time></trkpt><trkpt lat="43.248815" lon="12.2362717"><ele>653.0</ele><time>2026-03-29T08:20:08.322Z</time></trkpt><trkpt lat="43.248775" lon="12.23617"><ele>653.0</ele><time>2026-03-29T08:20:09.325Z</time></trkpt><trkpt lat="43.2487417" lon="12.2360833"><ele>653.0</ele><time>2026-03-29T08:20:10.323Z</time></trkpt><trkpt lat="43.2487083" lon="12.23601"><ele>650.8333333333333</ele><time>2026-03-29T08:20:11.322Z</time></trkpt><trkpt lat="43.248665" lon="12.2359383"><ele>648.6666666666666</ele><time>2026-03-29T08:20:12.325Z</time></trkpt><trkpt lat="43.2486133" lon="12.235865"><ele>646.5</ele><time>2026-03-29T08:20:13.32Z</time></trkpt><trkpt lat="43.2485517" lon="12.2357883"><ele>644.3333333333334</ele><time>2026-03-29T08:20:14.323Z</time></trkpt><trkpt lat="43.2484817" lon="12.2357167"><ele>642.1666666666667</ele><time>2026-03-29T08:20:15.321Z</time></trkpt><trkpt lat="43.248415" lon="12.2356567"><ele>640.0</ele><time>2026-03-29T08:20:16.322Z</time></trkpt><trkpt lat="43.2483467" lon="12.2356117"><ele>637.8</ele><time>2026-03-29T08:20:17.32Z</time></trkpt><trkpt lat="43.2482583" lon="12.2355333"><ele>635.6</ele><time>2026-03-29T08:20:19.322Z</time></trkpt><trkpt lat="43.2481933" lon="12.235425"><ele>633.4</ele><time>2026-03-29T08:20:21.322Z</time></trkpt><trkpt lat="43.24816" lon="12.2353317"><ele>631.2</ele><time>2026-03-29T08:20:23.321Z</time></trkpt><trkpt lat="43.24814" lon="12.235165"><ele>629.0</ele><time>2026-03-29T08:20:31.321Z</time></trkpt><trkpt lat="43.2481033" lon="12.235045"><ele>628.6</ele><time>2026-03-29T08:20:33.324Z</time></trkpt><trkpt lat="43.248035" lon="12.2349133"><ele>628.2</ele><time>2026-03-29T08:20:35.321Z</time></trkpt><trkpt lat="43.2479467" lon="12.23478"><ele>627.8000000000001</ele><time>2026-03-29T08:20:37.32Z</time></trkpt><trkpt lat="43.2478967" lon="12.2347083"><ele>627.4</ele><time>2026-03-29T08:20:38.32Z</time></trkpt><trkpt lat="43.247835" lon="12.234645"><ele>627.0</ele><time>2026-03-29T08:20:39.321Z</time></trkpt><trkpt lat="43.2477733" lon="12.2345833"><ele>627.0</ele><time>2026-03-29T08:20:40.321Z</time></trkpt><trkpt lat="43.2477133" lon="12.2345133"><ele>627.0</ele><time>2026-03-29T08:20:41.32Z</time></trkpt><trkpt lat="43.24766" lon="12.234435"><ele>627.0</ele><time>2026-03-29T08:20:42.32Z</time></trkpt><trkpt lat="43.2476117" lon="12.23436"><ele>627.0</ele><time>2026-03-29T08:20:43.321Z</time></trkpt><trkpt lat="43.2475667" lon="12.2342783"><ele>627.0</ele><time>2026-03-29T08:20:44.32Z</time></trkpt><trkpt lat="43.247525" lon="12.2341967"><ele>627.0</ele><time>2026-03-29T08:20:45.322Z</time></trkpt><trkpt lat="43.2474867" lon="12.2341133"><ele>627.0</ele><time>2026-03-29T08:20:46.319Z</time></trkpt><trkpt lat="43.2474567" lon="12.2340283"><ele>628.0</ele><time>2026-03-29T08:20:47.321Z</time></trkpt><trkpt lat="43.2474333" lon="12.2339333"><ele>629.0</ele><time>2026-03-29T08:20:48.323Z</time></trkpt><trkpt lat="43.2473883" lon="12.23375"><ele>630.0</ele><time>2026-03-29T08:20:50.32Z</time></trkpt><trkpt lat="43.2473583" lon="12.233655"><ele>631.0</ele><time>2026-03-29T08:20:51.322Z</time></trkpt><trkpt lat="43.2473283" lon="12.2335633"><ele>632.0</ele><time>2026-03-29T08:20:52.319Z</time></trkpt><trkpt lat="43.247305" lon="12.2334717"><ele>633.0</ele><time>2026-03-29T08:20:53.323Z</time></trkpt><trkpt lat="43.2472867" lon="12.233375"><ele>629.5</ele><time>2026-03-29T08:20:54.32Z</time></trkpt><trkpt lat="43.2472733" lon="12.233275"><ele>626.0</ele><time>2026-03-29T08:20:55.322Z</time></trkpt><trkpt lat="43.247255" lon="12.233175"><ele>622.5</ele><time>2026-03-29T08:20:56.322Z</time></trkpt><trkpt lat="43.24723" lon="12.2330783"><ele>619.0</ele><time>2026-03-29T08:20:57.321Z</time></trkpt><trkpt lat="43.2471967" lon="12.2329883"><ele>615.5</ele><time>2026-03-29T08:20:58.321Z</time></trkpt><trkpt lat="43.2471517" lon="12.2329"><ele>612.0</ele><time>2026-03-29T08:20:59.322Z</time></trkpt><trkpt lat="43.2471" lon="12.23281"><ele>612.0</ele><time>2026-03-29T08:21:00.32Z</time></trkpt><trkpt lat="43.247055" lon="12.232725"><ele>612.0</ele><time>2026-03-29T08:21:01.322Z</time></trkpt><trkpt lat="43.24701" lon="12.23264"><ele>612.0</ele><time>2026-03-29T08:21:02.321Z</time></trkpt><trkpt lat="43.24697" lon="12.2325517"><ele>612.0</ele><time>2026-03-29T08:21:03.324Z</time></trkpt><trkpt lat="43.2469333" lon="12.2324533"><ele>612.0</ele><time>2026-03-29T08:21:04.323Z</time></trkpt><trkpt lat="43.2468983" lon="12.2323483"><ele>612.0</ele><time>2026-03-29T08:21:05.321Z</time></trkpt><trkpt lat="43.2468667" lon="12.2322517"><ele>612.5714285714286</ele><time>2026-03-29T08:21:06.323Z</time></trkpt><trkpt lat="43.2468367" lon="12.23216"><ele>613.1428571428571</ele><time>2026-03-29T08:21:07.322Z</time></trkpt><trkpt lat="43.246805" lon="12.2320733"><ele>613.7142857142858</ele><time>2026-03-29T08:21:08.323Z</time></trkpt><trkpt lat="43.24677" lon="12.2319883"><ele>614.2857142857142</ele><time>2026-03-29T08:21:09.32Z</time></trkpt><trkpt lat="43.246735" lon="12.23191"><ele>614.8571428571429</ele><time>2026-03-29T08:21:10.322Z</time></trkpt><trkpt lat="43.246695" lon="12.2318283"><ele>615.4285714285714</ele><time>2026-03-29T08:21:11.319Z</time></trkpt><trkpt lat="43.2466617" lon="12.2317517"><ele>616.0</ele><time>2026-03-29T08:21:12.323Z</time></trkpt><trkpt lat="43.24663" lon="12.2316767"><ele>616.0</ele><time>2026-03-29T08:21:13.32Z</time></trkpt><trkpt lat="43.246575" lon="12.231525"><ele>616.0</ele><time>2026-03-29T08:21:15.321Z</time></trkpt><trkpt lat="43.246535" lon="12.2314567"><ele>616.0</ele><time>2026-03-29T08:21:16.322Z</time></trkpt><trkpt lat="43.2464867" lon="12.23139"><ele>616.0</ele><time>2026-03-29T08:21:17.321Z</time></trkpt><trkpt lat="43.24642" lon="12.2313133"><ele>616.0</ele><time>2026-03-29T08:21:18.321Z</time></trkpt><trkpt lat="43.2463517" lon="12.2312417"><ele>616.0</ele><time>2026-03-29T08:21:19.321Z</time></trkpt><trkpt lat="43.2462783" lon="12.2311717"><ele>613.0</ele><time>2026-03-29T08:21:20.32Z</time></trkpt><trkpt lat="43.246205" lon="12.2311033"><ele>610.0</ele><time>2026-03-29T08:21:21.326Z</time></trkpt><trkpt lat="43.246135" lon="12.2310383"><ele>607.0</ele><time>2026-03-29T08:21:22.323Z</time></trkpt><trkpt lat="43.2460617" lon="12.2309817"><ele>604.0</ele><time>2026-03-29T08:21:23.319Z</time></trkpt><trkpt lat="43.24599" lon="12.2309217"><ele>601.0</ele><time>2026-03-29T08:21:24.321Z</time></trkpt><trkpt lat="43.2459217" lon="12.2308683"><ele>598.0</ele><time>2026-03-29T08:21:25.321Z</time></trkpt><trkpt lat="43.2458533" lon="12.2308167"><ele>598.0</ele><time>2026-03-29T08:21:26.319Z</time></trkpt><trkpt lat="43.2457883" lon="12.2307617"><ele>598.0</ele><time>2026-03-29T08:21:27.32Z</time></trkpt><trkpt lat="43.245725" lon="12.2307"><ele>598.0</ele><time>2026-03-29T08:21:28.32Z</time></trkpt><trkpt lat="43.2456533" lon="12.2306267"><ele>598.0</ele><time>2026-03-29T08:21:29.325Z</time></trkpt><trkpt lat="43.2455767" lon="12.2305467"><ele>598.0</ele><time>2026-03-29T08:21:30.322Z</time></trkpt><trkpt lat="43.245495" lon="12.230465"><ele>598.0</ele><time>2026-03-29T08:21:31.321Z</time></trkpt><trkpt lat="43.24542" lon="12.2303833"><ele>595.75</ele><time>2026-03-29T08:21:32.32Z</time></trkpt><trkpt lat="43.24533" lon="12.2303067"><ele>593.5</ele><time>2026-03-29T08:21:33.321Z</time></trkpt><trkpt lat="43.245225" lon="12.23022"><ele>591.25</ele><time>2026-03-29T08:21:34.323Z</time></trkpt><trkpt lat="43.2451067" lon="12.23011"><ele>589.0</ele><time>2026-03-29T08:21:35.321Z</time></trkpt><trkpt lat="43.244965" lon="12.2299733"><ele>589.0</ele><time>2026-03-29T08:21:36.318Z</time></trkpt><trkpt lat="43.2448133" lon="12.2298233"><ele>589.0</ele><time>2026-03-29T08:21:37.321Z</time></trkpt><trkpt lat="43.2446683" lon="12.2296817"><ele>589.0</ele><time>2026-03-29T08:21:38.323Z</time></trkpt><trkpt lat="43.24454" lon="12.2295533"><ele>586.8</ele><time>2026-03-29T08:21:39.325Z</time></trkpt><trkpt lat="43.244435" lon="12.22944"><ele>584.5999999999999</ele><time>2026-03-29T08:21:40.32Z</time></trkpt><trkpt lat="43.2443467" lon="12.2293383"><ele>582.4</ele><time>2026-03-29T08:21:41.32Z</time></trkpt><trkpt lat="43.24428" lon="12.2292383"><ele>580.1999999999999</ele><time>2026-03-29T08:21:42.324Z</time></trkpt><trkpt lat="43.2442333" lon="12.2291267"><ele>578.0</ele><time>2026-03-29T08:21:43.321Z</time></trkpt><trkpt lat="43.24421" lon="12.2290033"><ele>577.0</ele><time>2026-03-29T08:21:44.326Z</time></trkpt><trkpt lat="43.2442167" lon="12.2288783"><ele>576.0</ele><time>2026-03-29T08:21:45.322Z</time></trkpt><trkpt lat="43.2442583" lon="12.2287467"><ele>575.0</ele><time>2026-03-29T08:21:46.321Z</time></trkpt><trkpt lat="43.244325" lon="12.2286133"><ele>574.0</ele><time>2026-03-29T08:21:47.324Z</time></trkpt><trkpt lat="43.2444017" lon="12.228475"><ele>573.0</ele><time>2026-03-29T08:21:48.32Z</time></trkpt><trkpt lat="43.2444717" lon="12.228345"><ele>573.0</ele><time>2026-03-29T08:21:49.322Z</time></trkpt><trkpt lat="43.2445333" lon="12.2282117"><ele>573.0</ele><time>2026-03-29T08:21:50.32Z</time></trkpt><trkpt lat="43.2445867" lon="12.2280767"><ele>573.0</ele><time>2026-03-29T08:21:51.325Z</time></trkpt><trkpt lat="43.244625" lon="12.2279317"><ele>573.0</ele><time>2026-03-29T08:21:52.323Z</time></trkpt><trkpt lat="43.24464" lon="12.2277833"><ele>573.0</ele><time>2026-03-29T08:21:53.321Z</time></trkpt><trkpt lat="43.2446283" lon="12.2276367"><ele>573.0</ele><time>2026-03-29T08:21:54.324Z</time></trkpt><trkpt lat="43.2445917" lon="12.22749"><ele>573.0</ele><time>2026-03-29T08:21:55.321Z</time></trkpt><trkpt lat="43.2445333" lon="12.2273533"><ele>573.0</ele><time>2026-03-29T08:21:56.321Z</time></trkpt><trkpt lat="43.2444617" lon="12.2272183"><ele>573.0</ele><time>2026-03-29T08:21:57.321Z</time></trkpt><trkpt lat="43.2443833" lon="12.2270783"><ele>573.0</ele><time>2026-03-29T08:21:58.32Z</time></trkpt><trkpt lat="43.2443067" lon="12.2269317"><ele>573.0</ele><time>2026-03-29T08:21:59.32Z</time></trkpt><trkpt lat="43.2442333" lon="12.22679"><ele>573.0</ele><time>2026-03-29T08:22:00.323Z</time></trkpt><trkpt lat="43.24416" lon="12.226655"><ele>573.0</ele><time>2026-03-29T08:22:01.323Z</time></trkpt><trkpt lat="43.2440833" lon="12.226525"><ele>573.1999999999999</ele><time>2026-03-29T08:22:02.32Z</time></trkpt><trkpt lat="43.2440133" lon="12.2264"><ele>573.4</ele><time>2026-03-29T08:22:03.323Z</time></trkpt><trkpt lat="43.24395" lon="12.2262783"><ele>573.5999999999999</ele><time>2026-03-29T08:22:04.319Z</time></trkpt><trkpt lat="43.2439" lon="12.2261583"><ele>573.8</ele><time>2026-03-29T08:22:05.323Z</time></trkpt><trkpt lat="43.2438667" lon="12.2260533"><ele>574.0</ele><time>2026-03-29T08:22:06.321Z</time></trkpt><trkpt lat="43.2438367" lon="12.2259617"><ele>575.6666666666667</ele><time>2026-03-29T08:22:07.322Z</time></trkpt><trkpt lat="43.2437983" lon="12.22589"><ele>577.3333333333334</ele><time>2026-03-29T08:22:08.324Z</time></trkpt><trkpt lat="43.24375" lon="12.2258333"><ele>579.0</ele><time>2026-03-29T08:22:09.321Z</time></trkpt><trkpt lat="43.2436383" lon="12.2257617"><ele>580.6666666666666</ele><time>2026-03-29T08:22:11.324Z</time></trkpt><trkpt lat="43.2435583" lon="12.2257317"><ele>582.3333333333333</ele><time>2026-03-29T08:22:12.323Z</time></trkpt><trkpt lat="43.2434683" lon="12.2257017"><ele>584.0</ele><time>2026-03-29T08:22:13.322Z</time></trkpt><trkpt lat="43.24336" lon="12.2256667"><ele>590.75</ele><time>2026-03-29T08:22:14.323Z</time></trkpt><trkpt lat="43.2432467" lon="12.22563"><ele>597.5</ele><time>2026-03-29T08:22:15.323Z</time></trkpt><trkpt lat="43.24313" lon="12.2255867"><ele>604.25</ele><time>2026-03-29T08:22:16.321Z</time></trkpt><trkpt lat="43.243005" lon="12.2255333"><ele>611.0</ele><time>2026-03-29T08:22:17.321Z</time></trkpt><trkpt lat="43.24288" lon="12.2254667"><ele>611.0</ele><time>2026-03-29T08:22:18.32Z</time></trkpt><trkpt lat="43.2427583" lon="12.2253883"><ele>611.0</ele><time>2026-03-29T08:22:19.321Z</time></trkpt><trkpt lat="43.2426383" lon="12.2252983"><ele>611.0</ele><time>2026-03-29T08:22:20.322Z</time></trkpt><trkpt lat="43.24253" lon="12.2252083"><ele>611.0</ele><time>2026-03-29T08:22:21.322Z</time></trkpt><trkpt lat="43.2424367" lon="12.2251317"><ele>611.0</ele><time>2026-03-29T08:22:22.324Z</time></trkpt><trkpt lat="43.2423633" lon="12.225065"><ele>611.0</ele><time>2026-03-29T08:22:23.323Z</time></trkpt><trkpt lat="43.2423" lon="12.2250167"><ele>611.0</ele><time>2026-03-29T08:22:24.324Z</time></trkpt><trkpt lat="43.242215" lon="12.224915"><ele>611.0</ele><time>2026-03-29T08:22:26.321Z</time></trkpt><trkpt lat="43.242175" lon="12.2247983"><ele>611.0</ele><time>2026-03-29T08:22:28.322Z</time></trkpt><trkpt lat="43.2421167" lon="12.224695"><ele>611.3333333333333</ele><time>2026-03-29T08:22:30.32Z</time></trkpt><trkpt lat="43.2420233" lon="12.2246333"><ele>611.6666666666666</ele><time>2026-03-29T08:22:32.322Z</time></trkpt><trkpt lat="43.2419317" lon="12.22456"><ele>612.0</ele><time>2026-03-29T08:22:34.32Z</time></trkpt><trkpt lat="43.2418767" lon="12.2245117"><ele>612.3333333333334</ele><time>2026-03-29T08:22:35.321Z</time></trkpt><trkpt lat="43.241825" lon="12.2244567"><ele>612.6666666666667</ele><time>2026-03-29T08:22:36.323Z</time></trkpt><trkpt lat="43.24178" lon="12.2243417"><ele>613.0</ele><time>2026-03-29T08:22:38.32Z</time></trkpt><trkpt lat="43.2417867" lon="12.2241617"><ele>613.0</ele><time>2026-03-29T08:22:40.319Z</time></trkpt><trkpt lat="43.2418067" lon="12.2240617"><ele>613.0</ele><time>2026-03-29T08:22:41.322Z</time></trkpt><trkpt lat="43.2418317" lon="12.223965"><ele>613.0</ele><time>2026-03-29T08:22:42.322Z</time></trkpt><trkpt lat="43.2418533" lon="12.2238783"><ele>613.0</ele><time>2026-03-29T08:22:43.319Z</time></trkpt><trkpt lat="43.2418633" lon="12.2237917"><ele>613.0</ele><time>2026-03-29T08:22:44.319Z</time></trkpt><trkpt lat="43.2418517" lon="12.2236333"><ele>613.0</ele><time>2026-03-29T08:22:46.324Z</time></trkpt><trkpt lat="43.2418467" lon="12.2235217"><ele>614.4</ele><time>2026-03-29T08:22:48.325Z</time></trkpt><trkpt lat="43.2418333" lon="12.223385"><ele>615.8</ele><time>2026-03-29T08:22:51.322Z</time></trkpt><trkpt lat="43.241745" lon="12.2232717"><ele>617.2</ele><time>2026-03-29T08:22:53.32Z</time></trkpt><trkpt lat="43.2416933" lon="12.2232167"><ele>618.6</ele><time>2026-03-29T08:22:54.324Z</time></trkpt><trkpt lat="43.2416067" lon="12.22313"><ele>620.0</ele><time>2026-03-29T08:22:56.322Z</time></trkpt><trkpt lat="43.241555" lon="12.22305"><ele>620.0</ele><time>2026-03-29T08:22:58.321Z</time></trkpt><trkpt lat="43.2415467" lon="12.2229567"><ele>620.0</ele><time>2026-03-29T08:23:00.32Z</time></trkpt><trkpt lat="43.241485" lon="12.22289"><ele>620.0</ele><time>2026-03-29T08:23:03.322Z</time></trkpt><trkpt lat="43.2414067" lon="12.2228367"><ele>620.0</ele><time>2026-03-29T08:23:05.324Z</time></trkpt><trkpt lat="43.2413417" lon="12.222795"><ele>620.0</ele><time>2026-03-29T08:23:07.32Z</time></trkpt><trkpt lat="43.2413117" lon="12.2227183"><ele>620.0</ele><time>2026-03-29T08:23:10.316Z</time></trkpt><trkpt lat="43.2413183" lon="12.2225933"><ele>617.4</ele><time>2026-03-29T08:23:12.317Z</time></trkpt><trkpt lat="43.241345" lon="12.222455"><ele>614.8</ele><time>2026-03-29T08:23:14.319Z</time></trkpt><trkpt lat="43.2413167" lon="12.2223533"><ele>612.2</ele><time>2026-03-29T08:23:16.319Z</time></trkpt><trkpt lat="43.2412467" lon="12.2222733"><ele>609.6</ele><time>2026-03-29T08:23:18.322Z</time></trkpt><trkpt lat="43.2411017" lon="12.2222417"><ele>607.0</ele><time>2026-03-29T08:23:20.324Z</time></trkpt><trkpt lat="43.2409967" lon="12.2222567"><ele>607.0</ele><time>2026-03-29T08:23:21.323Z</time></trkpt><trkpt lat="43.240875" lon="12.22229"><ele>607.0</ele><time>2026-03-29T08:23:22.322Z</time></trkpt><trkpt lat="43.2407517" lon="12.2223417"><ele>607.0</ele><time>2026-03-29T08:23:23.32Z</time></trkpt><trkpt lat="43.240625" lon="12.2224033"><ele>607.0</ele><time>2026-03-29T08:23:24.321Z</time></trkpt><trkpt lat="43.24051" lon="12.222465"><ele>604.75</ele><time>2026-03-29T08:23:25.322Z</time></trkpt><trkpt lat="43.2403917" lon="12.22252"><ele>602.5</ele><time>2026-03-29T08:23:26.32Z</time></trkpt><trkpt lat="43.2402733" lon="12.2225583"><ele>600.25</ele><time>2026-03-29T08:23:27.321Z</time></trkpt><trkpt lat="43.2401583" lon="12.22257"><ele>598.0</ele><time>2026-03-29T08:23:28.324Z</time></trkpt><trkpt lat="43.2400433" lon="12.2225633"><ele>598.0</ele><time>2026-03-29T08:23:29.321Z</time></trkpt><trkpt lat="43.239935" lon="12.222525"><ele>598.0</ele><time>2026-03-29T08:23:30.323Z</time></trkpt><trkpt lat="43.2398217" lon="12.2224633"><ele>598.0</ele><time>2026-03-29T08:23:31.322Z</time></trkpt><trkpt lat="43.2397017" lon="12.222395"><ele>598.0</ele><time>2026-03-29T08:23:32.32Z</time></trkpt><trkpt lat="43.2395733" lon="12.2223233"><ele>597.0</ele><time>2026-03-29T08:23:33.322Z</time></trkpt><trkpt lat="43.23945" lon="12.2222433"><ele>596.0</ele><time>2026-03-29T08:23:34.321Z</time></trkpt><trkpt lat="43.2393217" lon="12.2221617"><ele>595.0</ele><time>2026-03-29T08:23:35.324Z</time></trkpt><trkpt lat="43.2391883" lon="12.222085"><ele>594.0</ele><time>2026-03-29T08:23:36.322Z</time></trkpt><trkpt lat="43.239055" lon="12.2220067"><ele>596.5</ele><time>2026-03-29T08:23:37.322Z</time></trkpt><trkpt lat="43.2389267" lon="12.22193"><ele>599.0</ele><time>2026-03-29T08:23:38.321Z</time></trkpt><trkpt lat="43.2387967" lon="12.221855"><ele>601.5</ele><time>2026-03-29T08:23:39.327Z</time></trkpt><trkpt lat="43.2386717" lon="12.2217817"><ele>604.0</ele><time>2026-03-29T08:23:40.325Z</time></trkpt><trkpt lat="43.23855" lon="12.22171"><ele>604.0</ele><time>2026-03-29T08:23:41.32Z</time></trkpt><trkpt lat="43.2384283" lon="12.2216383"><ele>604.0</ele><time>2026-03-29T08:23:42.319Z</time></trkpt><trkpt lat="43.23831" lon="12.2215617"><ele>604.0</ele><time>2026-03-29T08:23:43.32Z</time></trkpt><trkpt lat="43.2381983" lon="12.2214833"><ele>604.0</ele><time>2026-03-29T08:23:44.323Z</time></trkpt><trkpt lat="43.2380917" lon="12.22141"><ele>601.2</ele><time>2026-03-29T08:23:45.321Z</time></trkpt><trkpt lat="43.2379917" lon="12.2213367"><ele>598.4</ele><time>2026-03-29T08:23:46.32Z</time></trkpt><trkpt lat="43.2378883" lon="12.2212733"><ele>595.6</ele><time>2026-03-29T08:23:47.321Z</time></trkpt><trkpt lat="43.2377867" lon="12.22122"><ele>592.8</ele><time>2026-03-29T08:23:48.32Z</time></trkpt><trkpt lat="43.2376833" lon="12.2211833"><ele>590.0</ele><time>2026-03-29T08:23:49.321Z</time></trkpt><trkpt lat="43.2375683" lon="12.2211617"><ele>590.0</ele><time>2026-03-29T08:23:50.321Z</time></trkpt><trkpt lat="43.2374533" lon="12.2211433"><ele>590.0</ele><time>2026-03-29T08:23:51.322Z</time></trkpt><trkpt lat="43.2373417" lon="12.221125"><ele>590.0</ele><time>2026-03-29T08:23:52.319Z</time></trkpt><trkpt lat="43.2372283" lon="12.2211067"><ele>590.0</ele><time>2026-03-29T08:23:53.322Z</time></trkpt><trkpt lat="43.23712" lon="12.2210883"><ele>588.6</ele><time>2026-03-29T08:23:54.319Z</time></trkpt><trkpt lat="43.2370083" lon="12.2210717"><ele>587.2</ele><time>2026-03-29T08:23:55.32Z</time></trkpt><trkpt lat="43.2369" lon="12.2210483"><ele>585.8</ele><time>2026-03-29T08:23:56.319Z</time></trkpt><trkpt lat="43.2367883" lon="12.2210133"><ele>584.4</ele><time>2026-03-29T08:23:57.321Z</time></trkpt><trkpt lat="43.236685" lon="12.2209733"><ele>583.0</ele><time>2026-03-29T08:23:58.32Z</time></trkpt><trkpt lat="43.2365933" lon="12.2209183"><ele>583.0</ele><time>2026-03-29T08:23:59.321Z</time></trkpt><trkpt lat="43.236515" lon="12.2208433"><ele>583.0</ele><time>2026-03-29T08:24:00.321Z</time></trkpt><trkpt lat="43.2364333" lon="12.2207517"><ele>583.0</ele><time>2026-03-29T08:24:01.321Z</time></trkpt><trkpt lat="43.2363683" lon="12.2206383"><ele>583.0</ele><time>2026-03-29T08:24:02.323Z</time></trkpt><trkpt lat="43.2363217" lon="12.2205133"><ele>583.0</ele><time>2026-03-29T08:24:03.325Z</time></trkpt><trkpt lat="43.2362783" lon="12.22038"><ele>579.8</ele><time>2026-03-29T08:24:04.321Z</time></trkpt><trkpt lat="43.2362417" lon="12.220245"><ele>576.5999999999999</ele><time>2026-03-29T08:24:05.319Z</time></trkpt><trkpt lat="43.2362083" lon="12.2201033"><ele>573.4000000000001</ele><time>2026-03-29T08:24:06.321Z</time></trkpt><trkpt lat="43.2361817" lon="12.21996"><ele>570.2</ele><time>2026-03-29T08:24:07.321Z</time></trkpt><trkpt lat="43.2361533" lon="12.2198133"><ele>567.0</ele><time>2026-03-29T08:24:08.321Z</time></trkpt><trkpt lat="43.23613" lon="12.2196733"><ele>567.0</ele><time>2026-03-29T08:24:09.32Z</time></trkpt><trkpt lat="43.2361067" lon="12.2195333"><ele>567.0</ele><time>2026-03-29T08:24:10.322Z</time></trkpt><trkpt lat="43.2360867" lon="12.2193917"><ele>567.0</ele><time>2026-03-29T08:24:11.324Z</time></trkpt><trkpt lat="43.236065" lon="12.2192483"><ele>567.0</ele><time>2026-03-29T08:24:12.321Z</time></trkpt><trkpt lat="43.2360383" lon="12.21912"><ele>567.0</ele><time>2026-03-29T08:24:13.324Z</time></trkpt><trkpt lat="43.2360067" lon="12.218995"><ele>567.2</ele><time>2026-03-29T08:24:14.321Z</time></trkpt><trkpt lat="43.2359667" lon="12.2188817"><ele>567.4000000000001</ele><time>2026-03-29T08:24:15.32Z</time></trkpt><trkpt lat="43.235915" lon="12.2187783"><ele>567.5999999999999</ele><time>2026-03-29T08:24:16.322Z</time></trkpt><trkpt lat="43.23585" lon="12.2186833"><ele>567.8</ele><time>2026-03-29T08:24:17.32Z</time></trkpt><trkpt lat="43.235775" lon="12.2185983"><ele>568.0</ele><time>2026-03-29T08:24:18.319Z</time></trkpt><trkpt lat="43.2357" lon="12.2185217"><ele>566.8333333333334</ele><time>2026-03-29T08:24:19.319Z</time></trkpt><trkpt lat="43.23562" lon="12.21845"><ele>565.6666666666667</ele><time>2026-03-29T08:24:20.321Z</time></trkpt><trkpt lat="43.2355433" lon="12.2183883"><ele>564.5</ele><time>2026-03-29T08:24:21.324Z</time></trkpt><trkpt lat="43.2354717" lon="12.2183333"><ele>563.3333333333334</ele><time>2026-03-29T08:24:22.319Z</time></trkpt><trkpt lat="43.235405" lon="12.2182833"><ele>562.1666666666666</ele><time>2026-03-29T08:24:23.321Z</time></trkpt><trkpt lat="43.2353433" lon="12.21824"><ele>561.0</ele><time>2026-03-29T08:24:24.32Z</time></trkpt><trkpt lat="43.2352783" lon="12.2182133"><ele>561.5</ele><time>2026-03-29T08:24:25.321Z</time></trkpt><trkpt lat="43.2351583" lon="12.2181433"><ele>562.0</ele><time>2026-03-29T08:24:27.321Z</time></trkpt><trkpt lat="43.2350917" lon="12.2180967"><ele>562.5</ele><time>2026-03-29T08:24:28.32Z</time></trkpt><trkpt lat="43.235025" lon="12.2180517"><ele>563.0</ele><time>2026-03-29T08:24:29.32Z</time></trkpt><trkpt lat="43.234955" lon="12.218"><ele>563.5</ele><time>2026-03-29T08:24:30.323Z</time></trkpt><trkpt lat="43.23488" lon="12.2179417"><ele>564.0</ele><time>2026-03-29T08:24:31.323Z</time></trkpt><trkpt lat="43.234805" lon="12.2178783"><ele>562.3333333333334</ele><time>2026-03-29T08:24:32.326Z</time></trkpt><trkpt lat="43.2347317" lon="12.2178017"><ele>560.6666666666666</ele><time>2026-03-29T08:24:33.323Z</time></trkpt><trkpt lat="43.234665" lon="12.217715"><ele>559.0</ele><time>2026-03-29T08:24:34.319Z</time></trkpt><trkpt lat="43.2346067" lon="12.2176233"><ele>557.3333333333333</ele><time>2026-03-29T08:24:35.321Z</time></trkpt><trkpt lat="43.2345517" lon="12.21753"><ele>555.6666666666666</ele><time>2026-03-29T08:24:36.322Z</time></trkpt><trkpt lat="43.234495" lon="12.2174383"><ele>554.0</ele><time>2026-03-29T08:24:37.321Z</time></trkpt><trkpt lat="43.2344417" lon="12.2173467"><ele>554.3333333333333</ele><time>2026-03-29T08:24:38.323Z</time></trkpt><trkpt lat="43.2343917" lon="12.2172483"><ele>554.6666666666666</ele><time>2026-03-29T08:24:39.323Z</time></trkpt><trkpt lat="43.2343517" lon="12.217145"><ele>555.0</ele><time>2026-03-29T08:24:40.326Z</time></trkpt><trkpt lat="43.2343217" lon="12.2170383"><ele>555.3333333333334</ele><time>2026-03-29T08:24:41.322Z</time></trkpt><trkpt lat="43.2342933" lon="12.21692"><ele>555.6666666666667</ele><time>2026-03-29T08:24:42.319Z</time></trkpt><trkpt lat="43.2342667" lon="12.2167967"><ele>556.0</ele><time>2026-03-29T08:24:43.322Z</time></trkpt><trkpt lat="43.2342417" lon="12.2166717"><ele>556.0</ele><time>2026-03-29T08:24:44.32Z</time></trkpt><trkpt lat="43.23421" lon="12.2165367"><ele>556.0</ele><time>2026-03-29T08:24:45.32Z</time></trkpt><trkpt lat="43.2341817" lon="12.2163917"><ele>556.0</ele><time>2026-03-29T08:24:46.324Z</time></trkpt><trkpt lat="43.2341483" lon="12.2162517"><ele>556.0</ele><time>2026-03-29T08:24:47.319Z</time></trkpt><trkpt lat="43.234115" lon="12.2161117"><ele>556.0</ele><time>2026-03-29T08:24:48.322Z</time></trkpt><trkpt lat="43.2340633" lon="12.2159767"><ele>555.4</ele><time>2026-03-29T08:24:49.322Z</time></trkpt><trkpt lat="43.2339967" lon="12.21586"><ele>554.8</ele><time>2026-03-29T08:24:50.321Z</time></trkpt><trkpt lat="43.233925" lon="12.215765"><ele>554.1999999999999</ele><time>2026-03-29T08:24:51.323Z</time></trkpt><trkpt lat="43.2338433" lon="12.2156867"><ele>553.6</ele><time>2026-03-29T08:24:52.321Z</time></trkpt><trkpt lat="43.2337633" lon="12.2156117"><ele>553.0</ele><time>2026-03-29T08:24:53.32Z</time></trkpt><trkpt lat="43.23369" lon="12.215525"><ele>551.4</ele><time>2026-03-29T08:24:54.324Z</time></trkpt><trkpt lat="43.23363" lon="12.2154233"><ele>549.8</ele><time>2026-03-29T08:24:55.322Z</time></trkpt><trkpt lat="43.233585" lon="12.2153117"><ele>548.2</ele><time>2026-03-29T08:24:56.321Z</time></trkpt><trkpt lat="43.2335583" lon="12.2151917"><ele>546.6</ele><time>2026-03-29T08:24:57.323Z</time></trkpt><trkpt lat="43.233555" lon="12.215075"><ele>545.0</ele><time>2026-03-29T08:24:58.326Z</time></trkpt><trkpt lat="43.2335783" lon="12.2149617"><ele>545.0</ele><time>2026-03-29T08:24:59.326Z</time></trkpt><trkpt lat="43.233625" lon="12.21486"><ele>545.0</ele><time>2026-03-29T08:25:00.32Z</time></trkpt><trkpt lat="43.2336933" lon="12.214765"><ele>545.0</ele><time>2026-03-29T08:25:01.32Z</time></trkpt><trkpt lat="43.23377" lon="12.2146733"><ele>545.0</ele><time>2026-03-29T08:25:02.321Z</time></trkpt><trkpt lat="43.2338517" lon="12.2145867"><ele>545.0</ele><time>2026-03-29T08:25:03.324Z</time></trkpt><trkpt lat="43.2339417" lon="12.2145267"><ele>544.6</ele><time>2026-03-29T08:25:04.323Z</time></trkpt><trkpt lat="43.23404" lon="12.2144783"><ele>544.2</ele><time>2026-03-29T08:25:05.32Z</time></trkpt><trkpt lat="43.234145" lon="12.2144583"><ele>543.8</ele><time>2026-03-29T08:25:06.321Z</time></trkpt><trkpt lat="43.2342517" lon="12.21444"><ele>543.4</ele><time>2026-03-29T08:25:07.32Z</time></trkpt><trkpt lat="43.2343567" lon="12.214425"><ele>543.0</ele><time>2026-03-29T08:25:08.324Z</time></trkpt><trkpt lat="43.234455" lon="12.2144117"><ele>543.0</ele><time>2026-03-29T08:25:09.32Z</time></trkpt><trkpt lat="43.2345433" lon="12.2144217"><ele>543.0</ele><time>2026-03-29T08:25:10.32Z</time></trkpt><trkpt lat="43.23462" lon="12.2144583"><ele>543.0</ele><time>2026-03-29T08:25:11.322Z</time></trkpt><trkpt lat="43.2346933" lon="12.214515"><ele>543.0</ele><time>2026-03-29T08:25:12.323Z</time></trkpt><trkpt lat="43.2347567" lon="12.2145983"><ele>543.0</ele><time>2026-03-29T08:25:13.32Z</time></trkpt><trkpt lat="43.2348033" lon="12.2147283"><ele>543.0</ele><time>2026-03-29T08:25:14.323Z</time></trkpt><trkpt lat="43.23484" lon="12.214865"><ele>542.6666666666666</ele><time>2026-03-29T08:25:15.32Z</time></trkpt><trkpt lat="43.2348767" lon="12.2149933"><ele>542.3333333333334</ele><time>2026-03-29T08:25:16.32Z</time></trkpt><trkpt lat="43.23491" lon="12.215115"><ele>542.0</ele><time>2026-03-29T08:25:17.32Z</time></trkpt><trkpt lat="43.2349433" lon="12.215225"><ele>541.6666666666667</ele><time>2026-03-29T08:25:18.322Z</time></trkpt><trkpt lat="43.23499" lon="12.21532"><ele>541.3333333333334</ele><time>2026-03-29T08:25:19.323Z</time></trkpt><trkpt lat="43.235045" lon="12.2153917"><ele>541.0</ele><time>2026-03-29T08:25:20.323Z</time></trkpt><trkpt lat="43.235105" lon="12.2154317"><ele>541.0</ele><time>2026-03-29T08:25:21.321Z</time></trkpt><trkpt lat="43.2352333" lon="12.2154"><ele>541.0</ele><time>2026-03-29T08:25:23.325Z</time></trkpt><trkpt lat="43.2352833" lon="12.2153233"><ele>541.0</ele><time>2026-03-29T08:25:24.321Z</time></trkpt><trkpt lat="43.2353133" lon="12.2152367"><ele>541.0</ele><time>2026-03-29T08:25:25.324Z</time></trkpt><trkpt lat="43.23533" lon="12.2151433"><ele>541.0</ele><time>2026-03-29T08:25:26.322Z</time></trkpt><trkpt lat="43.235295" lon="12.2150217"><ele>541.0</ele><time>2026-03-29T08:25:27.324Z</time></trkpt><trkpt lat="43.2352517" lon="12.2149067"><ele>539.4</ele><time>2026-03-29T08:25:28.321Z</time></trkpt><trkpt lat="43.2352083" lon="12.2147833"><ele>537.8</ele><time>2026-03-29T08:25:29.32Z</time></trkpt><trkpt lat="43.23516" lon="12.21466"><ele>536.1999999999999</ele><time>2026-03-29T08:25:30.326Z</time></trkpt><trkpt lat="43.2351267" lon="12.2145333"><ele>534.6</ele><time>2026-03-29T08:25:31.322Z</time></trkpt><trkpt lat="43.2351" lon="12.2143983"><ele>533.0</ele><time>2026-03-29T08:25:32.322Z</time></trkpt><trkpt lat="43.2350783" lon="12.2142617"><ele>533.0</ele><time>2026-03-29T08:25:33.322Z</time></trkpt><trkpt lat="43.2350583" lon="12.2141233"><ele>533.0</ele><time>2026-03-29T08:25:34.322Z</time></trkpt><trkpt lat="43.2350333" lon="12.2139783"><ele>533.0</ele><time>2026-03-29T08:25:35.321Z</time></trkpt><trkpt lat="43.235005" lon="12.213825"><ele>533.0</ele><time>2026-03-29T08:25:36.32Z</time></trkpt><trkpt lat="43.2349783" lon="12.2136733"><ele>533.0</ele><time>2026-03-29T08:25:37.322Z</time></trkpt><trkpt lat="43.2349567" lon="12.213535"><ele>529.8333333333333</ele><time>2026-03-29T08:25:38.32Z</time></trkpt><trkpt lat="43.23493" lon="12.213405"><ele>526.6666666666666</ele><time>2026-03-29T08:25:39.324Z</time></trkpt><trkpt lat="43.2349083" lon="12.2132883"><ele>523.5</ele><time>2026-03-29T08:25:40.321Z</time></trkpt><trkpt lat="43.2348967" lon="12.21318"><ele>520.3333333333334</ele><time>2026-03-29T08:25:41.321Z</time></trkpt><trkpt lat="43.2348983" lon="12.21308"><ele>517.1666666666667</ele><time>2026-03-29T08:25:42.32Z</time></trkpt><trkpt lat="43.23493" lon="12.213"><ele>514.0</ele><time>2026-03-29T08:25:43.321Z</time></trkpt><trkpt lat="43.2349867" lon="12.2129333"><ele>511.79999999999995</ele><time>2026-03-29T08:25:44.324Z</time></trkpt><trkpt lat="43.2350667" lon="12.2128817"><ele>509.59999999999997</ele><time>2026-03-29T08:25:45.321Z</time></trkpt><trkpt lat="43.2351667" lon="12.2128433"><ele>507.4</ele><time>2026-03-29T08:25:46.321Z</time></trkpt><trkpt lat="43.235265" lon="12.2128083"><ele>505.2</ele><time>2026-03-29T08:25:47.323Z</time></trkpt><trkpt lat="43.2353533" lon="12.2127783"><ele>503.0</ele><time>2026-03-29T08:25:48.323Z</time></trkpt><trkpt lat="43.2354317" lon="12.2127483"><ele>503.0</ele><time>2026-03-29T08:25:49.323Z</time></trkpt><trkpt lat="43.2354967" lon="12.2127"><ele>503.00000000000006</ele><time>2026-03-29T08:25:50.322Z</time></trkpt><trkpt lat="43.2355467" lon="12.21263"><ele>503.0</ele><time>2026-03-29T08:25:51.322Z</time></trkpt><trkpt lat="43.23557" lon="12.2125483"><ele>503.0</ele><time>2026-03-29T08:25:52.322Z</time></trkpt><trkpt lat="43.2355717" lon="12.2124517"><ele>503.00000000000006</ele><time>2026-03-29T08:25:53.325Z</time></trkpt><trkpt lat="43.2355467" lon="12.212355"><ele>503.0</ele><time>2026-03-29T08:25:54.322Z</time></trkpt><trkpt lat="43.2355117" lon="12.21228"><ele>503.0</ele><time>2026-03-29T08:25:55.32Z</time></trkpt><trkpt lat="43.2353717" lon="12.212265"><ele>503.0</ele><time>2026-03-29T08:25:57.324Z</time></trkpt><trkpt lat="43.2352667" lon="12.2122967"><ele>503.0</ele><time>2026-03-29T08:25:58.324Z</time></trkpt><trkpt lat="43.235165" lon="12.2123317"><ele>503.0</ele><time>2026-03-29T08:25:59.32Z</time></trkpt><trkpt lat="43.23505" lon="12.212375"><ele>503.0</ele><time>2026-03-29T08:26:00.32Z</time></trkpt><trkpt lat="43.2349283" lon="12.2124217"><ele>503.0</ele><time>2026-03-29T08:26:01.318Z</time></trkpt><trkpt lat="43.2348117" lon="12.2124683"><ele>502.99999999999994</ele><time>2026-03-29T08:26:02.32Z</time></trkpt><trkpt lat="43.234705" lon="12.2125183"><ele>502.99999999999994</ele><time>2026-03-29T08:26:03.323Z</time></trkpt><trkpt lat="43.234605" lon="12.21257"><ele>503.0</ele><time>2026-03-29T08:26:04.32Z</time></trkpt><trkpt lat="43.2345183" lon="12.21261"><ele>503.0</ele><time>2026-03-29T08:26:05.32Z</time></trkpt><trkpt lat="43.2344433" lon="12.2126317"><ele>502.8333333333333</ele><time>2026-03-29T08:26:06.321Z</time></trkpt><trkpt lat="43.2343733" lon="12.2126367"><ele>502.66666666666663</ele><time>2026-03-29T08:26:07.323Z</time></trkpt><trkpt lat="43.2343067" lon="12.2126267"><ele>502.5</ele><time>2026-03-29T08:26:08.32Z</time></trkpt><trkpt lat="43.2342417" lon="12.2125767"><ele>502.33333333333337</ele><time>2026-03-29T08:26:09.325Z</time></trkpt><trkpt lat="43.2341767" lon="12.2124867"><ele>502.1666666666667</ele><time>2026-03-29T08:26:10.321Z</time></trkpt><trkpt lat="43.23412" lon="12.2123917"><ele>502.0</ele><time>2026-03-29T08:26:11.319Z</time></trkpt><trkpt lat="43.23406" lon="12.2123083"><ele>497.20000000000005</ele><time>2026-03-29T08:26:12.322Z</time></trkpt><trkpt lat="43.234" lon="12.2122433"><ele>492.40000000000003</ele><time>2026-03-29T08:26:13.32Z</time></trkpt><trkpt lat="43.2339217" lon="12.2122183"><ele>487.59999999999997</ele><time>2026-03-29T08:26:14.321Z</time></trkpt><trkpt lat="43.2338267" lon="12.2122133"><ele>482.79999999999995</ele><time>2026-03-29T08:26:15.323Z</time></trkpt><trkpt lat="43.233735" lon="12.2122183"><ele>478.0</ele><time>2026-03-29T08:26:16.32Z</time></trkpt><trkpt lat="43.2336283" lon="12.21225"><ele>481.79999999999995</ele><time>2026-03-29T08:26:17.321Z</time></trkpt><trkpt lat="43.2335383" lon="12.2123317"><ele>485.59999999999997</ele><time>2026-03-29T08:26:18.323Z</time></trkpt><trkpt lat="43.2334567" lon="12.2124117"><ele>489.40000000000003</ele><time>2026-03-29T08:26:19.319Z</time></trkpt><trkpt lat="43.2333883" lon="12.2124917"><ele>493.20000000000005</ele><time>2026-03-29T08:26:20.32Z</time></trkpt><trkpt lat="43.23332" lon="12.21255"><ele>497.0</ele><time>2026-03-29T08:26:21.32Z</time></trkpt><trkpt lat="43.2332533" lon="12.2125867"><ele>497.0</ele><time>2026-03-29T08:26:22.32Z</time></trkpt><trkpt lat="43.23313" lon="12.2125683"><ele>497.00000000000006</ele><time>2026-03-29T08:26:24.321Z</time></trkpt><trkpt lat="43.2330967" lon="12.2124783"><ele>497.00000000000006</ele><time>2026-03-29T08:26:25.322Z</time></trkpt><trkpt lat="43.2330333" lon="12.2123667"><ele>497.0</ele><time>2026-03-29T08:26:26.322Z</time></trkpt><trkpt lat="43.2329767" lon="12.21226"><ele>497.0</ele><time>2026-03-29T08:26:27.32Z</time></trkpt><trkpt lat="43.232915" lon="12.2121933"><ele>492.20000000000005</ele><time>2026-03-29T08:26:28.321Z</time></trkpt><trkpt lat="43.2328483" lon="12.2121433"><ele>487.40000000000003</ele><time>2026-03-29T08:26:29.32Z</time></trkpt><trkpt lat="43.2327433" lon="12.2121117"><ele>482.59999999999997</ele><time>2026-03-29T08:26:30.322Z</time></trkpt><trkpt lat="43.2326483" lon="12.2121167"><ele>477.79999999999995</ele><time>2026-03-29T08:26:31.321Z</time></trkpt><trkpt lat="43.2325517" lon="12.2121167"><ele>473.0</ele><time>2026-03-29T08:26:32.319Z</time></trkpt><trkpt lat="43.2324517" lon="12.2121317"><ele>473.0</ele><time>2026-03-29T08:26:33.322Z</time></trkpt><trkpt lat="43.2323667" lon="12.21215"><ele>472.99999999999994</ele><time>2026-03-29T08:26:34.32Z</time></trkpt><trkpt lat="43.23229" lon="12.2121767"><ele>472.99999999999994</ele><time>2026-03-29T08:26:35.321Z</time></trkpt><trkpt lat="43.2322183" lon="12.21218"><ele>473.0</ele><time>2026-03-29T08:26:36.327Z</time></trkpt><trkpt lat="43.2321433" lon="12.2120567"><ele>473.0</ele><time>2026-03-29T08:26:38.321Z</time></trkpt><trkpt lat="43.232045" lon="12.2119467"><ele>473.2</ele><time>2026-03-29T08:26:40.32Z</time></trkpt><trkpt lat="43.2319867" lon="12.2119"><ele>473.4</ele><time>2026-03-29T08:26:41.323Z</time></trkpt><trkpt lat="43.2319033" lon="12.2118783"><ele>473.59999999999997</ele><time>2026-03-29T08:26:42.32Z</time></trkpt><trkpt lat="43.2317733" lon="12.2118567"><ele>473.79999999999995</ele><time>2026-03-29T08:26:43.32Z</time></trkpt><trkpt lat="43.2316567" lon="12.2118733"><ele>474.0</ele><time>2026-03-29T08:26:44.319Z</time></trkpt><trkpt lat="43.2315217" lon="12.2118883"><ele>473.2</ele><time>2026-03-29T08:26:45.322Z</time></trkpt><trkpt lat="43.2314067" lon="12.211905"><ele>472.4</ele><time>2026-03-29T08:26:46.323Z</time></trkpt><trkpt lat="43.2312917" lon="12.2119067"><ele>471.6</ele><time>2026-03-29T08:26:47.32Z</time></trkpt><trkpt lat="43.23119" lon="12.2119067"><ele>470.8</ele><time>2026-03-29T08:26:48.32Z</time></trkpt><trkpt lat="43.2310833" lon="12.211885"><ele>470.0</ele><time>2026-03-29T08:26:49.327Z</time></trkpt><trkpt lat="43.2309817" lon="12.2118367"><ele>470.0</ele><time>2026-03-29T08:26:50.322Z</time></trkpt><trkpt lat="43.23091" lon="12.2117583"><ele>470.0</ele><time>2026-03-29T08:26:51.323Z</time></trkpt><trkpt lat="43.230835" lon="12.2116767"><ele>470.0</ele><time>2026-03-29T08:26:52.32Z</time></trkpt><trkpt lat="43.23077" lon="12.2115917"><ele>470.0</ele><time>2026-03-29T08:26:53.319Z</time></trkpt><trkpt lat="43.2307033" lon="12.211505"><ele>470.0</ele><time>2026-03-29T08:26:54.321Z</time></trkpt><trkpt lat="43.230645" lon="12.211415"><ele>467.8</ele><time>2026-03-29T08:26:55.32Z</time></trkpt><trkpt lat="43.230615" lon="12.2113067"><ele>465.6</ele><time>2026-03-29T08:26:56.322Z</time></trkpt><trkpt lat="43.2306033" lon="12.2111867"><ele>463.4</ele><time>2026-03-29T08:26:57.321Z</time></trkpt><trkpt lat="43.2306167" lon="12.2110633"><ele>461.2</ele><time>2026-03-29T08:26:58.321Z</time></trkpt><trkpt lat="43.2306433" lon="12.210935"><ele>459.0</ele><time>2026-03-29T08:26:59.324Z</time></trkpt><trkpt lat="43.2306833" lon="12.2107917"><ele>457.25</ele><time>2026-03-29T08:27:00.325Z</time></trkpt><trkpt lat="43.2307267" lon="12.210645"><ele>455.5</ele><time>2026-03-29T08:27:01.322Z</time></trkpt><trkpt lat="43.2307667" lon="12.21049"><ele>453.75</ele><time>2026-03-29T08:27:02.321Z</time></trkpt><trkpt lat="43.230805" lon="12.2103317"><ele>452.0</ele><time>2026-03-29T08:27:03.321Z</time></trkpt><trkpt lat="43.2308467" lon="12.2101783"><ele>452.0</ele><time>2026-03-29T08:27:04.326Z</time></trkpt><trkpt lat="43.2308883" lon="12.21002"><ele>452.0</ele><time>2026-03-29T08:27:05.324Z</time></trkpt><trkpt lat="43.2309317" lon="12.209865"><ele>452.0</ele><time>2026-03-29T08:27:06.325Z</time></trkpt><trkpt lat="43.2309717" lon="12.20971"><ele>452.0</ele><time>2026-03-29T08:27:07.323Z</time></trkpt><trkpt lat="43.2310117" lon="12.20956"><ele>452.0</ele><time>2026-03-29T08:27:08.321Z</time></trkpt><trkpt lat="43.2310483" lon="12.209415"><ele>452.00000000000006</ele><time>2026-03-29T08:27:09.321Z</time></trkpt><trkpt lat="43.231085" lon="12.2092783"><ele>452.00000000000006</ele><time>2026-03-29T08:27:10.324Z</time></trkpt><trkpt lat="43.2311233" lon="12.2091433"><ele>452.0</ele><time>2026-03-29T08:27:11.324Z</time></trkpt><trkpt lat="43.2311567" lon="12.209005"><ele>452.0</ele><time>2026-03-29T08:27:12.321Z</time></trkpt><trkpt lat="43.2311867" lon="12.2088583"><ele>451.0</ele><time>2026-03-29T08:27:13.319Z</time></trkpt><trkpt lat="43.23121" lon="12.2087083"><ele>450.00000000000006</ele><time>2026-03-29T08:27:14.323Z</time></trkpt><trkpt lat="43.23123" lon="12.2085617"><ele>449.00000000000006</ele><time>2026-03-29T08:27:15.321Z</time></trkpt><trkpt lat="43.23125" lon="12.2084083"><ele>448.0</ele><time>2026-03-29T08:27:16.326Z</time></trkpt><trkpt lat="43.2312667" lon="12.2082583"><ele>447.0</ele><time>2026-03-29T08:27:17.324Z</time></trkpt><trkpt lat="43.231285" lon="12.2081133"><ele>447.0</ele><time>2026-03-29T08:27:18.324Z</time></trkpt><trkpt lat="43.231305" lon="12.2079667"><ele>447.0</ele><time>2026-03-29T08:27:19.321Z</time></trkpt><trkpt lat="43.2313167" lon="12.2078333"><ele>447.0</ele><time>2026-03-29T08:27:20.323Z</time></trkpt><trkpt lat="43.2313167" lon="12.2077167"><ele>447.0</ele><time>2026-03-29T08:27:21.325Z</time></trkpt><trkpt lat="43.231315" lon="12.2076117"><ele>447.0</ele><time>2026-03-29T08:27:22.323Z</time></trkpt><trkpt lat="43.2313167" lon="12.2075117"><ele>447.0</ele><time>2026-03-29T08:27:23.323Z</time></trkpt><trkpt lat="43.2313217" lon="12.2074167"><ele>448.1666666666667</ele><time>2026-03-29T08:27:24.323Z</time></trkpt><trkpt lat="43.2313283" lon="12.2073233"><ele>449.33333333333337</ele><time>2026-03-29T08:27:25.324Z</time></trkpt><trkpt lat="43.2313383" lon="12.20723"><ele>450.5</ele><time>2026-03-29T08:27:26.321Z</time></trkpt><trkpt lat="43.2313467" lon="12.20714"><ele>451.6666666666667</ele><time>2026-03-29T08:27:27.327Z</time></trkpt><trkpt lat="43.2313417" lon="12.2069833"><ele>452.83333333333337</ele><time>2026-03-29T08:27:29.322Z</time></trkpt><trkpt lat="43.2312933" lon="12.2068783"><ele>454.0</ele><time>2026-03-29T08:27:31.322Z</time></trkpt><trkpt lat="43.2312317" lon="12.20683"><ele>454.00000000000006</ele><time>2026-03-29T08:27:33.326Z</time></trkpt><trkpt lat="43.2311533" lon="12.2068283"><ele>454.0</ele><time>2026-03-29T08:27:35.326Z</time></trkpt><trkpt lat="43.2310817" lon="12.20686"><ele>454.0</ele><time>2026-03-29T08:27:37.323Z</time></trkpt><trkpt lat="43.2310117" lon="12.20692"><ele>454.0</ele><time>2026-03-29T08:27:39.327Z</time></trkpt><trkpt lat="43.23093" lon="12.20698"><ele>454.00000000000006</ele><time>2026-03-29T08:27:41.32Z</time></trkpt><trkpt lat="43.230835" lon="12.2070433"><ele>454.0</ele><time>2026-03-29T08:27:43.324Z</time></trkpt><trkpt lat="43.2307733" lon="12.2070867"><ele>454.0</ele><time>2026-03-29T08:27:44.32Z</time></trkpt><trkpt lat="43.2306683" lon="12.20716"><ele>454.0</ele><time>2026-03-29T08:27:46.323Z</time></trkpt><trkpt lat="43.2305683" lon="12.2072467"><ele>454.0</ele><time>2026-03-29T08:27:48.324Z</time></trkpt><trkpt lat="43.2304767" lon="12.2073033"><ele>454.0</ele><time>2026-03-29T08:27:50.325Z</time></trkpt><trkpt lat="43.2303767" lon="12.2073733"><ele>454.0</ele><time>2026-03-29T08:27:52.325Z</time></trkpt><trkpt lat="43.2302833" lon="12.207415"><ele>452.83333333333337</ele><time>2026-03-29T08:27:54.322Z</time></trkpt><trkpt lat="43.23021" lon="12.207455"><ele>451.6666666666667</ele><time>2026-03-29T08:27:56.324Z</time></trkpt><trkpt lat="43.2301317" lon="12.20749"><ele>450.5</ele><time>2026-03-29T08:27:58.322Z</time></trkpt><trkpt lat="43.2300417" lon="12.20753"><ele>449.33333333333337</ele><time>2026-03-29T08:28:00.324Z</time></trkpt><trkpt lat="43.2299717" lon="12.2075667"><ele>448.1666666666667</ele><time>2026-03-29T08:28:02.321Z</time></trkpt><trkpt lat="43.2299117" lon="12.2076133"><ele>447.0</ele><time>2026-03-29T08:28:06.324Z</time></trkpt><trkpt lat="43.2298483" lon="12.2076717"><ele>446.6</ele><time>2026-03-29T08:28:08.323Z</time></trkpt><trkpt lat="43.2297517" lon="12.2077533"><ele>446.20000000000005</ele><time>2026-03-29T08:28:10.325Z</time></trkpt><trkpt lat="43.229635" lon="12.2077983"><ele>445.8</ele><time>2026-03-29T08:28:12.322Z</time></trkpt><trkpt lat="43.229565" lon="12.2078117"><ele>445.4</ele><time>2026-03-29T08:28:13.324Z</time></trkpt><trkpt lat="43.2294567" lon="12.2078517"><ele>445.0</ele><time>2026-03-29T08:28:15.324Z</time></trkpt><trkpt lat="43.2293583" lon="12.20785"><ele>445.0</ele><time>2026-03-29T08:28:17.323Z</time></trkpt><trkpt lat="43.229255" lon="12.2078067"><ele>445.0</ele><time>2026-03-29T08:28:19.324Z</time></trkpt><trkpt lat="43.229155" lon="12.20776"><ele>445.0</ele><time>2026-03-29T08:28:21.322Z</time></trkpt><trkpt lat="43.22904" lon="12.2077433"><ele>445.0</ele><time>2026-03-29T08:28:23.321Z</time></trkpt><trkpt lat="43.2289767" lon="12.2077567"><ele>445.0</ele><time>2026-03-29T08:28:24.323Z</time></trkpt><trkpt lat="43.228865" lon="12.207815"><ele>444.2</ele><time>2026-03-29T08:28:26.32Z</time></trkpt><trkpt lat="43.22875" lon="12.2078633"><ele>443.4</ele><time>2026-03-29T08:28:28.322Z</time></trkpt><trkpt lat="43.228635" lon="12.20791"><ele>442.6</ele><time>2026-03-29T08:28:30.323Z</time></trkpt><trkpt lat="43.2285317" lon="12.2079533"><ele>441.8</ele><time>2026-03-29T08:28:32.322Z</time></trkpt><trkpt lat="43.228435" lon="12.2079883"><ele>441.0</ele><time>2026-03-29T08:28:43.322Z</time></trkpt><trkpt lat="43.228515" lon="12.208085"><ele>436.20000000000005</ele><time>2026-03-29T08:28:45.322Z</time></trkpt><trkpt lat="43.2286" lon="12.2081767"><ele>431.40000000000003</ele><time>2026-03-29T08:28:47.32Z</time></trkpt><trkpt lat="43.22867" lon="12.2082517"><ele>426.6</ele><time>2026-03-29T08:28:49.322Z</time></trkpt><trkpt lat="43.2287067" lon="12.2083533"><ele>421.8</ele><time>2026-03-29T08:28:51.322Z</time></trkpt><trkpt lat="43.22869" lon="12.2084933"><ele>417.0</ele><time>2026-03-29T08:28:53.328Z</time></trkpt><trkpt lat="43.2286217" lon="12.2085733"><ele>417.0</ele><time>2026-03-29T08:28:55.324Z</time></trkpt><trkpt lat="43.2285283" lon="12.208625"><ele>417.0</ele><time>2026-03-29T08:28:57.326Z</time></trkpt><trkpt lat="43.22843" lon="12.208635"><ele>417.0</ele><time>2026-03-29T08:28:59.321Z</time></trkpt><trkpt lat="43.2283383" lon="12.2086183"><ele>417.0</ele><time>2026-03-29T08:29:01.32Z</time></trkpt><trkpt lat="43.228245" lon="12.2086067"><ele>417.0</ele><time>2026-03-29T08:29:03.326Z</time></trkpt><trkpt lat="43.2281667" lon="12.2085933"><ele>417.3333333333333</ele><time>2026-03-29T08:29:05.322Z</time></trkpt><trkpt lat="43.2280917" lon="12.2086417"><ele>417.66666666666663</ele><time>2026-03-29T08:29:08.324Z</time></trkpt><trkpt lat="43.2280617" lon="12.20875"><ele>418.0</ele><time>2026-03-29T08:29:10.325Z</time></trkpt><trkpt lat="43.22802" lon="12.2088233"><ele>418.3333333333333</ele><time>2026-03-29T08:29:12.324Z</time></trkpt><trkpt lat="43.2279517" lon="12.2088833"><ele>418.66666666666663</ele><time>2026-03-29T08:29:15.325Z</time></trkpt><trkpt lat="43.2278933" lon="12.2089517"><ele>419.0</ele><time>2026-03-29T08:29:17.324Z</time></trkpt><trkpt lat="43.2278433" lon="12.2090083"><ele>418.99999999999994</ele><time>2026-03-29T08:29:19.323Z</time></trkpt><trkpt lat="43.2277667" lon="12.20897"><ele>419.0</ele><time>2026-03-29T08:29:23.321Z</time></trkpt><trkpt lat="43.2276983" lon="12.2089433"><ele>419.0</ele><time>2026-03-29T08:29:25.324Z</time></trkpt><trkpt lat="43.2275967" lon="12.2089783"><ele>419.0</ele><time>2026-03-29T08:29:27.322Z</time></trkpt><trkpt lat="43.2275283" lon="12.2090167"><ele>418.99999999999994</ele><time>2026-03-29T08:29:28.322Z</time></trkpt><trkpt lat="43.2274583" lon="12.2090583"><ele>419.0</ele><time>2026-03-29T08:29:29.325Z</time></trkpt><trkpt lat="43.2273817" lon="12.209085"><ele>414.3333333333333</ele><time>2026-03-29T08:29:30.325Z</time></trkpt><trkpt lat="43.2273" lon="12.2091033"><ele>409.66666666666663</ele><time>2026-03-29T08:29:31.322Z</time></trkpt><trkpt lat="43.2272083" lon="12.2091233"><ele>405.0</ele><time>2026-03-29T08:29:32.325Z</time></trkpt><trkpt lat="43.2271183" lon="12.2091233"><ele>400.33333333333337</ele><time>2026-03-29T08:29:33.324Z</time></trkpt><trkpt lat="43.227035" lon="12.209125"><ele>395.6666666666667</ele><time>2026-03-29T08:29:34.327Z</time></trkpt><trkpt lat="43.2269583" lon="12.2091167"><ele>391.0</ele><time>2026-03-29T08:29:35.321Z</time></trkpt><trkpt lat="43.2268867" lon="12.209095"><ele>391.0</ele><time>2026-03-29T08:29:36.322Z</time></trkpt><trkpt lat="43.2267633" lon="12.2090733"><ele>391.0</ele><time>2026-03-29T08:29:38.324Z</time></trkpt><trkpt lat="43.2266983" lon="12.2090667"><ele>391.0</ele><time>2026-03-29T08:29:39.322Z</time></trkpt><trkpt lat="43.226625" lon="12.2090683"><ele>391.0</ele><time>2026-03-29T08:29:40.322Z</time></trkpt><trkpt lat="43.2265483" lon="12.2090767"><ele>391.0</ele><time>2026-03-29T08:29:41.321Z</time></trkpt><trkpt lat="43.226425" lon="12.2090617"><ele>393.33333333333337</ele><time>2026-03-29T08:29:43.323Z</time></trkpt><trkpt lat="43.2263317" lon="12.20903"><ele>395.6666666666667</ele><time>2026-03-29T08:29:45.322Z</time></trkpt><trkpt lat="43.2262667" lon="12.2090517"><ele>398.0</ele><time>2026-03-29T08:29:47.322Z</time></trkpt><trkpt lat="43.2262167" lon="12.2092"><ele>400.33333333333337</ele><time>2026-03-29T08:29:49.321Z</time></trkpt><trkpt lat="43.2261833" lon="12.2092783"><ele>402.6666666666667</ele><time>2026-03-29T08:29:50.323Z</time></trkpt><trkpt lat="43.2261467" lon="12.2093517"><ele>405.0</ele><time>2026-03-29T08:29:51.323Z</time></trkpt><trkpt lat="43.2260817" lon="12.2094817"><ele>405.0</ele><time>2026-03-29T08:29:53.322Z</time></trkpt><trkpt lat="43.2259983" lon="12.2095983"><ele>405.0</ele><time>2026-03-29T08:29:55.327Z</time></trkpt><trkpt lat="43.22592" lon="12.2096883"><ele>405.0</ele><time>2026-03-29T08:29:57.324Z</time></trkpt><trkpt lat="43.22586" lon="12.20979"><ele>405.0</ele><time>2026-03-29T08:29:59.322Z</time></trkpt><trkpt lat="43.2258" lon="12.209905"><ele>405.0</ele><time>2026-03-29T08:30:01.324Z</time></trkpt><trkpt lat="43.22573" lon="12.210005"><ele>399.6666666666667</ele><time>2026-03-29T08:30:03.323Z</time></trkpt><trkpt lat="43.2256617" lon="12.2100867"><ele>394.3333333333333</ele><time>2026-03-29T08:30:05.323Z</time></trkpt><trkpt lat="43.2255983" lon="12.2101467"><ele>389.0</ele><time>2026-03-29T08:30:07.322Z</time></trkpt><trkpt lat="43.225535" lon="12.210195"><ele>383.66666666666663</ele><time>2026-03-29T08:30:09.324Z</time></trkpt><trkpt lat="43.2254617" lon="12.2102533"><ele>378.3333333333333</ele><time>2026-03-29T08:30:11.322Z</time></trkpt><trkpt lat="43.22539" lon="12.210315"><ele>373.0</ele><time>2026-03-29T08:30:13.323Z</time></trkpt><trkpt lat="43.22531" lon="12.21038"><ele>372.8333333333333</ele><time>2026-03-29T08:30:15.321Z</time></trkpt><trkpt lat="43.2252283" lon="12.2104333"><ele>372.66666666666663</ele><time>2026-03-29T08:30:17.321Z</time></trkpt><trkpt lat="43.22516" lon="12.2104883"><ele>372.5</ele><time>2026-03-29T08:30:19.321Z</time></trkpt><trkpt lat="43.2250867" lon="12.2105367"><ele>372.3333333333333</ele><time>2026-03-29T08:30:21.321Z</time></trkpt><trkpt lat="43.2250117" lon="12.210535"><ele>372.1666666666667</ele><time>2026-03-29T08:30:23.321Z</time></trkpt><trkpt lat="43.2249333" lon="12.2105483"><ele>372.0</ele><time>2026-03-29T08:30:25.321Z</time></trkpt><trkpt lat="43.2248567" lon="12.2105633"><ele>370.0</ele><time>2026-03-29T08:30:27.323Z</time></trkpt><trkpt lat="43.2247717" lon="12.2105833"><ele>368.0</ele><time>2026-03-29T08:30:29.322Z</time></trkpt><trkpt lat="43.2246683" lon="12.2105917"><ele>366.0</ele><time>2026-03-29T08:30:31.321Z</time></trkpt><trkpt lat="43.224555" lon="12.2106017"><ele>364.0</ele><time>2026-03-29T08:30:33.321Z</time></trkpt><trkpt lat="43.2244367" lon="12.2106283"><ele>362.0</ele><time>2026-03-29T08:30:35.321Z</time></trkpt><trkpt lat="43.22436" lon="12.2106267"><ele>362.0</ele><time>2026-03-29T08:30:37.322Z</time></trkpt><trkpt lat="43.224295" lon="12.2105767"><ele>362.0</ele><time>2026-03-29T08:30:40.326Z</time></trkpt><trkpt lat="43.2242133" lon="12.2105"><ele>362.0</ele><time>2026-03-29T08:30:42.322Z</time></trkpt><trkpt lat="43.2241133" lon="12.2104517"><ele>362.0</ele><time>2026-03-29T08:30:44.321Z</time></trkpt><trkpt lat="43.2240217" lon="12.2104383"><ele>362.0</ele><time>2026-03-29T08:30:46.321Z</time></trkpt><trkpt lat="43.2239383" lon="12.2103967"><ele>357.8</ele><time>2026-03-29T08:30:49.321Z</time></trkpt><trkpt lat="43.2238183" lon="12.210295"><ele>353.6</ele><time>2026-03-29T08:30:51.328Z</time></trkpt><trkpt lat="43.2237417" lon="12.21024"><ele>349.40000000000003</ele><time>2026-03-29T08:30:52.323Z</time></trkpt><trkpt lat="43.223675" lon="12.21018"><ele>345.20000000000005</ele><time>2026-03-29T08:30:53.322Z</time></trkpt><trkpt lat="43.2235783" lon="12.2100933"><ele>341.0</ele><time>2026-03-29T08:30:55.323Z</time></trkpt><trkpt lat="43.2235033" lon="12.2100233"><ele>341.0</ele><time>2026-03-29T08:30:57.322Z</time></trkpt><trkpt lat="43.2233933" lon="12.2099067"><ele>341.0</ele><time>2026-03-29T08:30:59.321Z</time></trkpt><trkpt lat="43.223325" lon="12.20984"><ele>341.0</ele><time>2026-03-29T08:31:00.322Z</time></trkpt><trkpt lat="43.2232633" lon="12.2097733"><ele>341.0</ele><time>2026-03-29T08:31:01.325Z</time></trkpt><trkpt lat="43.2232" lon="12.2097067"><ele>341.0</ele><time>2026-03-29T08:31:02.32Z</time></trkpt><trkpt lat="43.223125" lon="12.2096467"><ele>340.5</ele><time>2026-03-29T08:31:03.321Z</time></trkpt><trkpt lat="43.22304" lon="12.2096033"><ele>340.0</ele><time>2026-03-29T08:31:04.325Z</time></trkpt><trkpt lat="43.2229567" lon="12.20956"><ele>339.5</ele><time>2026-03-29T08:31:05.324Z</time></trkpt><trkpt lat="43.2228767" lon="12.2095183"><ele>339.0</ele><time>2026-03-29T08:31:06.323Z</time></trkpt><trkpt lat="43.2227967" lon="12.2094767"><ele>338.5</ele><time>2026-03-29T08:31:07.323Z</time></trkpt><trkpt lat="43.2227183" lon="12.2094333"><ele>338.0</ele><time>2026-03-29T08:31:08.323Z</time></trkpt><trkpt lat="43.2226467" lon="12.2093817"><ele>338.0</ele><time>2026-03-29T08:31:09.321Z</time></trkpt><trkpt lat="43.2225867" lon="12.2093133"><ele>338.0</ele><time>2026-03-29T08:31:10.321Z</time></trkpt><trkpt lat="43.222525" lon="12.209245"><ele>338.0</ele><time>2026-03-29T08:31:11.323Z</time></trkpt><trkpt lat="43.22246" lon="12.2091733"><ele>338.0</ele><time>2026-03-29T08:31:12.325Z</time></trkpt><trkpt lat="43.2223967" lon="12.2091033"><ele>338.0</ele><time>2026-03-29T08:31:13.323Z</time></trkpt><trkpt lat="43.222335" lon="12.209035"><ele>338.0</ele><time>2026-03-29T08:31:14.322Z</time></trkpt><trkpt lat="43.2222783" lon="12.208965"><ele>337.0</ele><time>2026-03-29T08:31:15.322Z</time></trkpt><trkpt lat="43.222225" lon="12.208885"><ele>336.0</ele><time>2026-03-29T08:31:16.326Z</time></trkpt><trkpt lat="43.2221733" lon="12.2088"><ele>335.0</ele><time>2026-03-29T08:31:17.323Z</time></trkpt><trkpt lat="43.2221267" lon="12.20873"><ele>334.0</ele><time>2026-03-29T08:31:18.322Z</time></trkpt><trkpt lat="43.2220683" lon="12.2086717"><ele>333.0</ele><time>2026-03-29T08:31:19.323Z</time></trkpt><trkpt lat="43.2220033" lon="12.20861"><ele>332.0</ele><time>2026-03-29T08:31:20.321Z</time></trkpt><trkpt lat="43.221945" lon="12.2085417"><ele>332.0</ele><time>2026-03-29T08:31:21.324Z</time></trkpt><trkpt lat="43.2218867" lon="12.2084733"><ele>332.0</ele><time>2026-03-29T08:31:22.322Z</time></trkpt><trkpt lat="43.22182" lon="12.2083983"><ele>332.0</ele><time>2026-03-29T08:31:23.321Z</time></trkpt><trkpt lat="43.221755" lon="12.2083183"><ele>332.0</ele><time>2026-03-29T08:31:24.321Z</time></trkpt><trkpt lat="43.221685" lon="12.208235"><ele>332.0</ele><time>2026-03-29T08:31:25.32Z</time></trkpt><trkpt lat="43.2216067" lon="12.2081567"><ele>332.0</ele><time>2026-03-29T08:31:26.321Z</time></trkpt><trkpt lat="43.2215133" lon="12.2080817"><ele>332.6666666666667</ele><time>2026-03-29T08:31:27.323Z</time></trkpt><trkpt lat="43.2214233" lon="12.208015"><ele>333.33333333333337</ele><time>2026-03-29T08:31:28.322Z</time></trkpt><trkpt lat="43.22134" lon="12.2079617"><ele>334.0</ele><time>2026-03-29T08:31:29.324Z</time></trkpt><trkpt lat="43.2212633" lon="12.20792"><ele>334.6666666666667</ele><time>2026-03-29T08:31:30.322Z</time></trkpt><trkpt lat="43.2211983" lon="12.20789"><ele>335.3333333333333</ele><time>2026-03-29T08:31:31.323Z</time></trkpt><trkpt lat="43.22113" lon="12.20787"><ele>336.0</ele><time>2026-03-29T08:31:32.321Z</time></trkpt><trkpt lat="43.2210617" lon="12.207865"><ele>336.0</ele><time>2026-03-29T08:31:33.321Z</time></trkpt><trkpt lat="43.2209483" lon="12.2078817"><ele>336.0</ele><time>2026-03-29T08:31:35.324Z</time></trkpt><trkpt lat="43.2208833" lon="12.2078883"><ele>336.0</ele><time>2026-03-29T08:31:36.321Z</time></trkpt><trkpt lat="43.220815" lon="12.2078767"><ele>336.0</ele><time>2026-03-29T08:31:37.322Z</time></trkpt><trkpt lat="43.22074" lon="12.20786"><ele>336.0</ele><time>2026-03-29T08:31:38.32Z</time></trkpt><trkpt lat="43.2206633" lon="12.2078433"><ele>336.0</ele><time>2026-03-29T08:31:39.323Z</time></trkpt><trkpt lat="43.22059" lon="12.2078417"><ele>333.6</ele><time>2026-03-29T08:31:40.322Z</time></trkpt><trkpt lat="43.220525" lon="12.2078467"><ele>331.20000000000005</ele><time>2026-03-29T08:31:41.321Z</time></trkpt><trkpt lat="43.2204133" lon="12.2078817"><ele>328.79999999999995</ele><time>2026-03-29T08:31:43.321Z</time></trkpt><trkpt lat="43.220315" lon="12.20792"><ele>326.4</ele><time>2026-03-29T08:31:45.323Z</time></trkpt><trkpt lat="43.2201983" lon="12.2079267"><ele>324.0</ele><time>2026-03-29T08:31:47.323Z</time></trkpt><trkpt lat="43.2201367" lon="12.207905"><ele>324.0</ele><time>2026-03-29T08:31:48.325Z</time></trkpt><trkpt lat="43.2200767" lon="12.2078567"><ele>324.0</ele><time>2026-03-29T08:31:49.32Z</time></trkpt><trkpt lat="43.22002" lon="12.2077683"><ele>324.0</ele><time>2026-03-29T08:31:50.323Z</time></trkpt><trkpt lat="43.219965" lon="12.2076583"><ele>324.0</ele><time>2026-03-29T08:31:51.32Z</time></trkpt><trkpt lat="43.219915" lon="12.2075183"><ele>324.0</ele><time>2026-03-29T08:31:52.32Z</time></trkpt><trkpt lat="43.219865" lon="12.2073683"><ele>323.25</ele><time>2026-03-29T08:31:53.32Z</time></trkpt><trkpt lat="43.219815" lon="12.207205"><ele>322.5</ele><time>2026-03-29T08:31:54.323Z</time></trkpt><trkpt lat="43.2197567" lon="12.2070417"><ele>321.75</ele><time>2026-03-29T08:31:55.321Z</time></trkpt><trkpt lat="43.2197017" lon="12.2068783"><ele>321.0</ele><time>2026-03-29T08:31:56.322Z</time></trkpt><trkpt lat="43.2196383" lon="12.2067133"><ele>321.0</ele><time>2026-03-29T08:31:57.324Z</time></trkpt><trkpt lat="43.21957" lon="12.206545"><ele>321.0</ele><time>2026-03-29T08:31:58.321Z</time></trkpt><trkpt lat="43.2195" lon="12.2063817"><ele>321.0</ele><time>2026-03-29T08:31:59.321Z</time></trkpt><trkpt lat="43.2194367" lon="12.2062233"><ele>321.0</ele><time>2026-03-29T08:32:00.323Z</time></trkpt><trkpt lat="43.2193867" lon="12.2060683"><ele>320.8</ele><time>2026-03-29T08:32:01.322Z</time></trkpt><trkpt lat="43.2193517" lon="12.2059183"><ele>320.6</ele><time>2026-03-29T08:32:02.324Z</time></trkpt><trkpt lat="43.2193183" lon="12.2057767"><ele>320.4</ele><time>2026-03-29T08:32:03.323Z</time></trkpt><trkpt lat="43.2192883" lon="12.2056383"><ele>320.2</ele><time>2026-03-29T08:32:04.32Z</time></trkpt><trkpt lat="43.2192567" lon="12.205495"><ele>320.0</ele><time>2026-03-29T08:32:05.323Z</time></trkpt><trkpt lat="43.21923" lon="12.20534"><ele>320.0</ele><time>2026-03-29T08:32:06.323Z</time></trkpt><trkpt lat="43.2192083" lon="12.205175"><ele>320.0</ele><time>2026-03-29T08:32:07.323Z</time></trkpt><trkpt lat="43.2191917" lon="12.205005"><ele>320.0</ele><time>2026-03-29T08:32:08.322Z</time></trkpt><trkpt lat="43.21919" lon="12.204835"><ele>320.0</ele><time>2026-03-29T08:32:09.326Z</time></trkpt><trkpt lat="43.2192" lon="12.20467"><ele>320.25</ele><time>2026-03-29T08:32:10.322Z</time></trkpt><trkpt lat="43.2192283" lon="12.204515"><ele>320.5</ele><time>2026-03-29T08:32:11.323Z</time></trkpt><trkpt lat="43.2192733" lon="12.2043717"><ele>320.75</ele><time>2026-03-29T08:32:12.321Z</time></trkpt><trkpt lat="43.2193267" lon="12.2042317"><ele>321.0</ele><time>2026-03-29T08:32:13.324Z</time></trkpt><trkpt lat="43.2193667" lon="12.204085"><ele>320.25</ele><time>2026-03-29T08:32:14.324Z</time></trkpt><trkpt lat="43.219395" lon="12.20393"><ele>319.5</ele><time>2026-03-29T08:32:15.321Z</time></trkpt><trkpt lat="43.219425" lon="12.20377"><ele>318.75</ele><time>2026-03-29T08:32:16.322Z</time></trkpt><trkpt lat="43.2194583" lon="12.2036083"><ele>318.0</ele><time>2026-03-29T08:32:17.323Z</time></trkpt><trkpt lat="43.219495" lon="12.2034483"><ele>318.0</ele><time>2026-03-29T08:32:18.322Z</time></trkpt><trkpt lat="43.2195367" lon="12.2032983"><ele>318.0</ele><time>2026-03-29T08:32:19.322Z</time></trkpt><trkpt lat="43.219585" lon="12.2031567"><ele>318.0</ele><time>2026-03-29T08:32:20.324Z</time></trkpt><trkpt lat="43.2196433" lon="12.20302"><ele>318.0</ele><time>2026-03-29T08:32:21.321Z</time></trkpt><trkpt lat="43.2197067" lon="12.202875"><ele>318.0</ele><time>2026-03-29T08:32:22.32Z</time></trkpt><trkpt lat="43.2197733" lon="12.20273"><ele>318.0</ele><time>2026-03-29T08:32:23.323Z</time></trkpt><trkpt lat="43.219835" lon="12.202585"><ele>318.0</ele><time>2026-03-29T08:32:24.322Z</time></trkpt><trkpt lat="43.21989" lon="12.2024467"><ele>318.0</ele><time>2026-03-29T08:32:25.323Z</time></trkpt><trkpt lat="43.219935" lon="12.2023183"><ele>318.0</ele><time>2026-03-29T08:32:26.319Z</time></trkpt><trkpt lat="43.2199683" lon="12.2021917"><ele>318.0</ele><time>2026-03-29T08:32:27.322Z</time></trkpt><trkpt lat="43.2199817" lon="12.2020733"><ele>318.0</ele><time>2026-03-29T08:32:28.321Z</time></trkpt><trkpt lat="43.2199767" lon="12.2019667"><ele>318.0</ele><time>2026-03-29T08:32:29.322Z</time></trkpt><trkpt lat="43.2199533" lon="12.2018717"><ele>318.0</ele><time>2026-03-29T08:32:30.322Z</time></trkpt><trkpt lat="43.21991" lon="12.201805"><ele>318.0</ele><time>2026-03-29T08:32:31.32Z</time></trkpt><trkpt lat="43.2198533" lon="12.2017667"><ele>317.4</ele><time>2026-03-29T08:32:32.32Z</time></trkpt><trkpt lat="43.2197583" lon="12.2016867"><ele>316.8</ele><time>2026-03-29T08:32:34.322Z</time></trkpt><trkpt lat="43.2196817" lon="12.2015917"><ele>316.2</ele><time>2026-03-29T08:32:36.32Z</time></trkpt><trkpt lat="43.219565" lon="12.2015233"><ele>315.6</ele><time>2026-03-29T08:32:38.324Z</time></trkpt><trkpt lat="43.2194883" lon="12.20153"><ele>315.0</ele><time>2026-03-29T08:32:39.323Z</time></trkpt><trkpt lat="43.2194083" lon="12.20157"><ele>315.0</ele><time>2026-03-29T08:32:40.322Z</time></trkpt><trkpt lat="43.2193267" lon="12.2016383"><ele>315.0</ele><time>2026-03-29T08:32:41.322Z</time></trkpt><trkpt lat="43.2192367" lon="12.2017083"><ele>315.0</ele><time>2026-03-29T08:32:42.32Z</time></trkpt><trkpt lat="43.2191433" lon="12.2017733"><ele>315.0</ele><time>2026-03-29T08:32:43.323Z</time></trkpt><trkpt lat="43.2190483" lon="12.201835"><ele>315.0</ele><time>2026-03-29T08:32:44.321Z</time></trkpt><trkpt lat="43.2189617" lon="12.20189"><ele>314.8</ele><time>2026-03-29T08:32:45.321Z</time></trkpt><trkpt lat="43.218885" lon="12.20194"><ele>314.6</ele><time>2026-03-29T08:32:46.32Z</time></trkpt><trkpt lat="43.2188167" lon="12.2019783"><ele>314.4</ele><time>2026-03-29T08:32:47.321Z</time></trkpt><trkpt lat="43.2187183" lon="12.201955"><ele>314.2</ele><time>2026-03-29T08:32:49.322Z</time></trkpt><trkpt lat="43.2186883" lon="12.2018383"><ele>314.0</ele><time>2026-03-29T08:32:52.322Z</time></trkpt><trkpt lat="43.2186433" lon="12.2016833"><ele>314.0</ele><time>2026-03-29T08:32:54.32Z</time></trkpt><trkpt lat="43.2186067" lon="12.2015783"><ele>314.0</ele><time>2026-03-29T08:32:55.321Z</time></trkpt><trkpt lat="43.218555" lon="12.201455"><ele>314.0</ele><time>2026-03-29T08:32:56.323Z</time></trkpt><trkpt lat="43.2184967" lon="12.2013117"><ele>314.0</ele><time>2026-03-29T08:32:57.321Z</time></trkpt><trkpt lat="43.2184383" lon="12.2011617"><ele>314.0</ele><time>2026-03-29T08:32:58.322Z</time></trkpt><trkpt lat="43.21838" lon="12.2010017"><ele>313.5</ele><time>2026-03-29T08:32:59.319Z</time></trkpt><trkpt lat="43.218315" lon="12.2008383"><ele>313.0</ele><time>2026-03-29T08:33:00.324Z</time></trkpt><trkpt lat="43.218245" lon="12.2006717"><ele>312.5</ele><time>2026-03-29T08:33:01.323Z</time></trkpt><trkpt lat="43.2181733" lon="12.2005"><ele>312.0</ele><time>2026-03-29T08:33:02.319Z</time></trkpt><trkpt lat="43.218105" lon="12.20033"><ele>311.75</ele><time>2026-03-29T08:33:03.321Z</time></trkpt><trkpt lat="43.218035" lon="12.200165"><ele>311.5</ele><time>2026-03-29T08:33:04.321Z</time></trkpt><trkpt lat="43.2179667" lon="12.1999983"><ele>311.25</ele><time>2026-03-29T08:33:05.321Z</time></trkpt><trkpt lat="43.2178983" lon="12.1998317"><ele>311.0</ele><time>2026-03-29T08:33:06.322Z</time></trkpt><trkpt lat="43.2178317" lon="12.199665"><ele>310.75</ele><time>2026-03-29T08:33:07.322Z</time></trkpt><trkpt lat="43.217765" lon="12.1994933"><ele>310.5</ele><time>2026-03-29T08:33:08.321Z</time></trkpt><trkpt lat="43.2177" lon="12.1993233"><ele>310.25</ele><time>2026-03-29T08:33:09.325Z</time></trkpt><trkpt lat="43.2176317" lon="12.1991517"><ele>310.0</ele><time>2026-03-29T08:33:10.321Z</time></trkpt><trkpt lat="43.2175633" lon="12.19898"><ele>310.0</ele><time>2026-03-29T08:33:11.32Z</time></trkpt><trkpt lat="43.217495" lon="12.19881"><ele>310.0</ele><time>2026-03-29T08:33:12.323Z</time></trkpt><trkpt lat="43.21743" lon="12.198635"><ele>310.0</ele><time>2026-03-29T08:33:13.323Z</time></trkpt><trkpt lat="43.217375" lon="12.198455"><ele>310.0</ele><time>2026-03-29T08:33:14.32Z</time></trkpt><trkpt lat="43.2173333" lon="12.1982683"><ele>310.25</ele><time>2026-03-29T08:33:15.327Z</time></trkpt><trkpt lat="43.21731" lon="12.198075"><ele>310.5</ele><time>2026-03-29T08:33:16.321Z</time></trkpt><trkpt lat="43.2172933" lon="12.1978817"><ele>310.75</ele><time>2026-03-29T08:33:17.32Z</time></trkpt><trkpt lat="43.2172767" lon="12.19769"><ele>311.0</ele><time>2026-03-29T08:33:18.322Z</time></trkpt><trkpt lat="43.2172533" lon="12.197495"><ele>311.0</ele><time>2026-03-29T08:33:19.323Z</time></trkpt><trkpt lat="43.217225" lon="12.1973033"><ele>311.0</ele><time>2026-03-29T08:33:20.321Z</time></trkpt><trkpt lat="43.2171983" lon="12.1971167"><ele>311.0</ele><time>2026-03-29T08:33:21.32Z</time></trkpt><trkpt lat="43.2171733" lon="12.1969383"><ele>311.0</ele><time>2026-03-29T08:33:22.321Z</time></trkpt><trkpt lat="43.2171533" lon="12.19677"><ele>311.0</ele><time>2026-03-29T08:33:23.32Z</time></trkpt><trkpt lat="43.21714" lon="12.1966083"><ele>311.0</ele><time>2026-03-29T08:33:24.319Z</time></trkpt><trkpt lat="43.217135" lon="12.1964483"><ele>311.0</ele><time>2026-03-29T08:33:25.319Z</time></trkpt><trkpt lat="43.21714" lon="12.196285"><ele>311.0</ele><time>2026-03-29T08:33:26.319Z</time></trkpt><trkpt lat="43.217155" lon="12.1961283"><ele>311.2</ele><time>2026-03-29T08:33:27.324Z</time></trkpt><trkpt lat="43.2171867" lon="12.1959883"><ele>311.40000000000003</ele><time>2026-03-29T08:33:28.324Z</time></trkpt><trkpt lat="43.21722" lon="12.195845"><ele>311.6</ele><time>2026-03-29T08:33:29.319Z</time></trkpt><trkpt lat="43.217255" lon="12.1957033"><ele>311.8</ele><time>2026-03-29T08:33:30.321Z</time></trkpt><trkpt lat="43.21729" lon="12.1955683"><ele>312.0</ele><time>2026-03-29T08:33:31.326Z</time></trkpt><trkpt lat="43.2173217" lon="12.19545"><ele>312.0</ele><time>2026-03-29T08:33:32.322Z</time></trkpt><trkpt lat="43.21735" lon="12.1953383"><ele>312.0</ele><time>2026-03-29T08:33:33.322Z</time></trkpt><trkpt lat="43.2173767" lon="12.1952433"><ele>312.0</ele><time>2026-03-29T08:33:34.324Z</time></trkpt><trkpt lat="43.2173967" lon="12.1951083"><ele>312.0</ele><time>2026-03-29T08:33:36.323Z</time></trkpt><trkpt lat="43.21743" lon="12.1950033"><ele>312.0</ele><time>2026-03-29T08:35:29.324Z</time></trkpt><trkpt lat="43.2174517" lon="12.194855"><ele>312.0</ele><time>2026-03-29T08:35:31.321Z</time></trkpt><trkpt lat="43.2174483" lon="12.19474"><ele>312.0</ele><time>2026-03-29T08:35:32.321Z</time></trkpt><trkpt lat="43.2174217" lon="12.1946217"><ele>312.0</ele><time>2026-03-29T08:35:33.326Z</time></trkpt><trkpt lat="43.21738" lon="12.194505"><ele>312.0</ele><time>2026-03-29T08:35:34.323Z</time></trkpt><trkpt lat="43.2173283" lon="12.194385"><ele>312.0</ele><time>2026-03-29T08:35:35.319Z</time></trkpt><trkpt lat="43.2172683" lon="12.1942567"><ele>312.25</ele><time>2026-03-29T08:35:36.319Z</time></trkpt><trkpt lat="43.2172067" lon="12.194115"><ele>312.5</ele><time>2026-03-29T08:35:37.32Z</time></trkpt><trkpt lat="43.2171433" lon="12.193965"><ele>312.75</ele><time>2026-03-29T08:35:38.32Z</time></trkpt><trkpt lat="43.2170867" lon="12.1938117"><ele>313.0</ele><time>2026-03-29T08:35:39.325Z</time></trkpt><trkpt lat="43.2170267" lon="12.1936567"><ele>313.0</ele><time>2026-03-29T08:35:40.32Z</time></trkpt><trkpt lat="43.2169667" lon="12.1934933"><ele>313.0</ele><time>2026-03-29T08:35:41.32Z</time></trkpt><trkpt lat="43.2169" lon="12.193325"><ele>313.0</ele><time>2026-03-29T08:35:42.32Z</time></trkpt><trkpt lat="43.2168317" lon="12.1931617"><ele>313.0</ele><time>2026-03-29T08:35:43.322Z</time></trkpt><trkpt lat="43.21676" lon="12.1929967"><ele>313.0</ele><time>2026-03-29T08:35:44.322Z</time></trkpt><trkpt lat="43.2166867" lon="12.1928283"><ele>313.0</ele><time>2026-03-29T08:35:45.324Z</time></trkpt><trkpt lat="43.2166167" lon="12.1926733"><ele>313.0</ele><time>2026-03-29T08:35:46.323Z</time></trkpt><trkpt lat="43.2165617" lon="12.1925217"><ele>313.0</ele><time>2026-03-29T08:35:47.323Z</time></trkpt><trkpt lat="43.2165183" lon="12.1923733"><ele>313.0</ele><time>2026-03-29T08:35:48.323Z</time></trkpt><trkpt lat="43.2164867" lon="12.1922367"><ele>313.0</ele><time>2026-03-29T08:35:49.32Z</time></trkpt><trkpt lat="43.2164667" lon="12.1921117"><ele>313.0</ele><time>2026-03-29T08:35:50.325Z</time></trkpt><trkpt lat="43.216455" lon="12.1920067"><ele>313.0</ele><time>2026-03-29T08:35:51.325Z</time></trkpt><trkpt lat="43.2164567" lon="12.19187"><ele>313.0</ele><time>2026-03-29T08:35:53.321Z</time></trkpt><trkpt lat="43.21652" lon="12.1918267"><ele>313.0</ele><time>2026-03-29T08:35:55.321Z</time></trkpt><trkpt lat="43.2165833" lon="12.191825"><ele>313.0</ele><time>2026-03-29T08:35:56.321Z</time></trkpt><trkpt lat="43.21667" lon="12.1918267"><ele>313.0</ele><time>2026-03-29T08:35:57.322Z</time></trkpt><trkpt lat="43.2167667" lon="12.1918233"><ele>313.0</ele><time>2026-03-29T08:35:58.321Z</time></trkpt><trkpt lat="43.216875" lon="12.1918167"><ele>313.0</ele><time>2026-03-29T08:35:59.322Z</time></trkpt><trkpt lat="43.2169933" lon="12.1918067"><ele>313.0</ele><time>2026-03-29T08:36:00.321Z</time></trkpt><trkpt lat="43.2171183" lon="12.1917917"><ele>313.0</ele><time>2026-03-29T08:36:01.323Z</time></trkpt><trkpt lat="43.2172467" lon="12.1917783"><ele>313.0</ele><time>2026-03-29T08:36:02.323Z</time></trkpt><trkpt lat="43.217375" lon="12.191765"><ele>313.0</ele><time>2026-03-29T08:36:03.324Z</time></trkpt><trkpt lat="43.217505" lon="12.191755"><ele>313.0</ele><time>2026-03-29T08:36:04.323Z</time></trkpt><trkpt lat="43.217635" lon="12.1917433"><ele>312.75</ele><time>2026-03-29T08:36:05.323Z</time></trkpt><trkpt lat="43.2177667" lon="12.19173"><ele>312.5</ele><time>2026-03-29T08:36:06.323Z</time></trkpt><trkpt lat="43.2178983" lon="12.1917167"><ele>312.25</ele><time>2026-03-29T08:36:07.324Z</time></trkpt><trkpt lat="43.21803" lon="12.191705"><ele>312.0</ele><time>2026-03-29T08:36:08.322Z</time></trkpt><trkpt lat="43.2181583" lon="12.1916933"><ele>312.0</ele><time>2026-03-29T08:36:09.321Z</time></trkpt><trkpt lat="43.2182867" lon="12.1916783"><ele>312.0</ele><time>2026-03-29T08:36:10.323Z</time></trkpt><trkpt lat="43.2184133" lon="12.1916617"><ele>312.0</ele><time>2026-03-29T08:36:11.32Z</time></trkpt><trkpt lat="43.2185383" lon="12.1916417"><ele>312.0</ele><time>2026-03-29T08:36:12.324Z</time></trkpt><trkpt lat="43.218665" lon="12.1916117"><ele>312.0</ele><time>2026-03-29T08:36:13.319Z</time></trkpt><trkpt lat="43.2187833" lon="12.191565"><ele>312.0</ele><time>2026-03-29T08:36:14.322Z</time></trkpt><trkpt lat="43.2188883" lon="12.191515"><ele>312.0</ele><time>2026-03-29T08:36:15.324Z</time></trkpt><trkpt lat="43.21898" lon="12.1914617"><ele>312.0</ele><time>2026-03-29T08:36:16.322Z</time></trkpt><trkpt lat="43.2190567" lon="12.1913883"><ele>312.0</ele><time>2026-03-29T08:36:17.32Z</time></trkpt><trkpt lat="43.219125" lon="12.1912883"><ele>313.0</ele><time>2026-03-29T08:36:18.32Z</time></trkpt><trkpt lat="43.2191917" lon="12.1911717"><ele>314.0</ele><time>2026-03-29T08:36:19.322Z</time></trkpt><trkpt lat="43.219265" lon="12.1910467"><ele>315.0</ele><time>2026-03-29T08:36:20.321Z</time></trkpt><trkpt lat="43.2193417" lon="12.1909183"><ele>316.0</ele><time>2026-03-29T08:36:21.323Z</time></trkpt><trkpt lat="43.2194233" lon="12.190785"><ele>315.75</ele><time>2026-03-29T08:36:22.319Z</time></trkpt><trkpt lat="43.2195067" lon="12.1906483"><ele>315.5</ele><time>2026-03-29T08:36:23.319Z</time></trkpt><trkpt lat="43.21959" lon="12.190515"><ele>315.25</ele><time>2026-03-29T08:36:24.322Z</time></trkpt><trkpt lat="43.2196717" lon="12.1903833"><ele>315.0</ele><time>2026-03-29T08:36:25.321Z</time></trkpt><trkpt lat="43.2197517" lon="12.190255"><ele>315.5</ele><time>2026-03-29T08:36:26.322Z</time></trkpt><trkpt lat="43.21983" lon="12.1901317"><ele>316.0</ele><time>2026-03-29T08:36:27.322Z</time></trkpt><trkpt lat="43.2199133" lon="12.1899983"><ele>316.5</ele><time>2026-03-29T08:36:28.324Z</time></trkpt><trkpt lat="43.22" lon="12.1898617"><ele>317.0</ele><time>2026-03-29T08:36:29.324Z</time></trkpt><trkpt lat="43.2200883" lon="12.1897283"><ele>317.0</ele><time>2026-03-29T08:36:30.323Z</time></trkpt><trkpt lat="43.2201767" lon="12.1896017"><ele>317.0</ele><time>2026-03-29T08:36:31.322Z</time></trkpt><trkpt lat="43.2202667" lon="12.1894683"><ele>317.0</ele><time>2026-03-29T08:36:32.32Z</time></trkpt><trkpt lat="43.2203533" lon="12.1893367"><ele>317.0</ele><time>2026-03-29T08:36:33.321Z</time></trkpt><trkpt lat="43.2204367" lon="12.1892117"><ele>317.0</ele><time>2026-03-29T08:36:34.32Z</time></trkpt><trkpt lat="43.220515" lon="12.18908"><ele>317.0</ele><time>2026-03-29T08:36:35.321Z</time></trkpt><trkpt lat="43.2205867" lon="12.1889333"><ele>317.0</ele><time>2026-03-29T08:36:36.32Z</time></trkpt><trkpt lat="43.2206483" lon="12.1887717"><ele>317.0</ele><time>2026-03-29T08:36:37.322Z</time></trkpt><trkpt lat="43.2207017" lon="12.1886"><ele>316.75</ele><time>2026-03-29T08:36:38.322Z</time></trkpt><trkpt lat="43.2207417" lon="12.1884183"><ele>316.5</ele><time>2026-03-29T08:36:39.324Z</time></trkpt><trkpt lat="43.2207717" lon="12.1882283"><ele>316.25</ele><time>2026-03-29T08:36:40.322Z</time></trkpt><trkpt lat="43.2207933" lon="12.188035"><ele>316.0</ele><time>2026-03-29T08:36:41.32Z</time></trkpt><trkpt lat="43.2208133" lon="12.18784"><ele>317.0</ele><time>2026-03-29T08:36:42.324Z</time></trkpt><trkpt lat="43.2208317" lon="12.187645"><ele>318.0</ele><time>2026-03-29T08:36:43.323Z</time></trkpt><trkpt lat="43.2208483" lon="12.1874533"><ele>319.0</ele><time>2026-03-29T08:36:44.326Z</time></trkpt><trkpt lat="43.2208633" lon="12.1872667"><ele>320.0</ele><time>2026-03-29T08:36:45.323Z</time></trkpt><trkpt lat="43.2208783" lon="12.18709"><ele>320.6</ele><time>2026-03-29T08:36:46.325Z</time></trkpt><trkpt lat="43.22089" lon="12.18693"><ele>321.2</ele><time>2026-03-29T08:36:47.324Z</time></trkpt><trkpt lat="43.2209033" lon="12.186785"><ele>321.79999999999995</ele><time>2026-03-29T08:36:48.322Z</time></trkpt><trkpt lat="43.2209217" lon="12.1866567"><ele>322.4</ele><time>2026-03-29T08:36:49.324Z</time></trkpt><trkpt lat="43.2209483" lon="12.1865283"><ele>323.0</ele><time>2026-03-29T08:36:50.325Z</time></trkpt><trkpt lat="43.220985" lon="12.1864"><ele>323.0</ele><time>2026-03-29T08:36:51.327Z</time></trkpt><trkpt lat="43.2210333" lon="12.186275"><ele>323.0</ele><time>2026-03-29T08:36:52.323Z</time></trkpt><trkpt lat="43.22109" lon="12.1861583"><ele>323.0</ele><time>2026-03-29T08:36:53.325Z</time></trkpt><trkpt lat="43.22116" lon="12.1860517"><ele>323.0</ele><time>2026-03-29T08:36:54.321Z</time></trkpt><trkpt lat="43.2212433" lon="12.1859567"><ele>323.0</ele><time>2026-03-29T08:36:55.321Z</time></trkpt><trkpt lat="43.2213317" lon="12.1858733"><ele>323.0</ele><time>2026-03-29T08:36:56.32Z</time></trkpt><trkpt lat="43.2214217" lon="12.1857933"><ele>323.0</ele><time>2026-03-29T08:36:57.324Z</time></trkpt><trkpt lat="43.2215133" lon="12.1857117"><ele>323.0</ele><time>2026-03-29T08:36:58.321Z</time></trkpt><trkpt lat="43.2216067" lon="12.1856333"><ele>323.0</ele><time>2026-03-29T08:36:59.325Z</time></trkpt><trkpt lat="43.2216983" lon="12.185555"><ele>323.0</ele><time>2026-03-29T08:37:00.324Z</time></trkpt><trkpt lat="43.2217833" lon="12.185485"><ele>324.6666666666667</ele><time>2026-03-29T08:37:01.32Z</time></trkpt><trkpt lat="43.2218617" lon="12.1854467"><ele>326.33333333333337</ele><time>2026-03-29T08:37:02.325Z</time></trkpt><trkpt lat="43.2219333" lon="12.1854383"><ele>328.0</ele><time>2026-03-29T08:37:03.325Z</time></trkpt><trkpt lat="43.221995" lon="12.1854583"><ele>329.6666666666667</ele><time>2026-03-29T08:37:04.323Z</time></trkpt><trkpt lat="43.22205" lon="12.18552"><ele>331.3333333333333</ele><time>2026-03-29T08:37:05.324Z</time></trkpt><trkpt lat="43.2221017" lon="12.1856033"><ele>333.0</ele><time>2026-03-29T08:37:06.324Z</time></trkpt><trkpt lat="43.2221667" lon="12.1857"><ele>333.2</ele><time>2026-03-29T08:37:07.324Z</time></trkpt><trkpt lat="43.2222283" lon="12.1857983"><ele>333.4</ele><time>2026-03-29T08:37:08.322Z</time></trkpt><trkpt lat="43.2222967" lon="12.1859067"><ele>333.59999999999997</ele><time>2026-03-29T08:37:09.324Z</time></trkpt><trkpt lat="43.222365" lon="12.1860317"><ele>333.79999999999995</ele><time>2026-03-29T08:37:10.325Z</time></trkpt><trkpt lat="43.2224183" lon="12.1861567"><ele>334.0</ele><time>2026-03-29T08:37:11.322Z</time></trkpt><trkpt lat="43.2224667" lon="12.1862817"><ele>337.2</ele><time>2026-03-29T08:37:12.321Z</time></trkpt><trkpt lat="43.22251" lon="12.1864017"><ele>340.4</ele><time>2026-03-29T08:37:13.318Z</time></trkpt><trkpt lat="43.2225533" lon="12.1865167"><ele>343.6</ele><time>2026-03-29T08:37:14.319Z</time></trkpt><trkpt lat="43.2226" lon="12.1866283"><ele>346.8</ele><time>2026-03-29T08:37:15.321Z</time></trkpt><trkpt lat="43.2226533" lon="12.186725"><ele>350.0</ele><time>2026-03-29T08:37:16.322Z</time></trkpt><trkpt lat="43.2227267" lon="12.1867783"><ele>350.0</ele><time>2026-03-29T08:37:17.323Z</time></trkpt><trkpt lat="43.2228183" lon="12.1868067"><ele>350.0</ele><time>2026-03-29T08:37:18.324Z</time></trkpt><trkpt lat="43.2229117" lon="12.18683"><ele>350.0</ele><time>2026-03-29T08:37:19.323Z</time></trkpt><trkpt lat="43.22301" lon="12.1868533"><ele>350.0</ele><time>2026-03-29T08:37:20.322Z</time></trkpt><trkpt lat="43.2231017" lon="12.1868817"><ele>350.0</ele><time>2026-03-29T08:37:21.323Z</time></trkpt><trkpt lat="43.2231817" lon="12.1868983"><ele>352.5</ele><time>2026-03-29T08:37:22.33Z</time></trkpt><trkpt lat="43.223255" lon="12.1868933"><ele>355.0</ele><time>2026-03-29T08:37:23.323Z</time></trkpt><trkpt lat="43.223315" lon="12.1868667"><ele>357.5</ele><time>2026-03-29T08:37:24.323Z</time></trkpt><trkpt lat="43.22342" lon="12.1868167"><ele>360.0</ele><time>2026-03-29T08:37:26.321Z</time></trkpt><trkpt lat="43.2234917" lon="12.1867833"><ele>362.5</ele><time>2026-03-29T08:37:27.318Z</time></trkpt><trkpt lat="43.2235683" lon="12.1867533"><ele>365.0</ele><time>2026-03-29T08:37:28.319Z</time></trkpt><trkpt lat="43.2236517" lon="12.18671"><ele>365.0</ele><time>2026-03-29T08:37:29.323Z</time></trkpt><trkpt lat="43.22374" lon="12.1866617"><ele>365.0</ele><time>2026-03-29T08:37:30.323Z</time></trkpt><trkpt lat="43.223835" lon="12.1865933"><ele>365.0</ele><time>2026-03-29T08:37:31.319Z</time></trkpt><trkpt lat="43.2239367" lon="12.1865233"><ele>365.0</ele><time>2026-03-29T08:37:32.322Z</time></trkpt><trkpt lat="43.2240317" lon="12.186455"><ele>365.0</ele><time>2026-03-29T08:37:33.322Z</time></trkpt><trkpt lat="43.22412" lon="12.1864067"><ele>366.83333333333337</ele><time>2026-03-29T08:37:34.32Z</time></trkpt><trkpt lat="43.2242033" lon="12.18636"><ele>368.6666666666667</ele><time>2026-03-29T08:37:35.322Z</time></trkpt><trkpt lat="43.2242767" lon="12.1863133"><ele>370.5</ele><time>2026-03-29T08:37:36.324Z</time></trkpt><trkpt lat="43.2243417" lon="12.1862683"><ele>372.3333333333333</ele><time>2026-03-29T08:37:37.323Z</time></trkpt><trkpt lat="43.2243933" lon="12.1862183"><ele>374.16666666666663</ele><time>2026-03-29T08:37:38.324Z</time></trkpt><trkpt lat="43.2244383" lon="12.1860817"><ele>376.0</ele><time>2026-03-29T08:37:40.322Z</time></trkpt><trkpt lat="43.224395" lon="12.1859117"><ele>376.0</ele><time>2026-03-29T08:37:42.322Z</time></trkpt><trkpt lat="43.2243417" lon="12.1858133"><ele>376.0</ele><time>2026-03-29T08:37:43.324Z</time></trkpt><trkpt lat="43.22429" lon="12.1857133"><ele>376.0</ele><time>2026-03-29T08:37:44.325Z</time></trkpt><trkpt lat="43.2242433" lon="12.1856267"><ele>376.0</ele><time>2026-03-29T08:37:45.323Z</time></trkpt><trkpt lat="43.22421" lon="12.185535"><ele>376.0</ele><time>2026-03-29T08:37:46.322Z</time></trkpt><trkpt lat="43.2241867" lon="12.1854317"><ele>376.0</ele><time>2026-03-29T08:37:47.325Z</time></trkpt><trkpt lat="43.2241783" lon="12.18532"><ele>375.6</ele><time>2026-03-29T08:37:48.321Z</time></trkpt><trkpt lat="43.224185" lon="12.1852033"><ele>375.20000000000005</ele><time>2026-03-29T08:37:49.322Z</time></trkpt><trkpt lat="43.2242067" lon="12.1850733"><ele>374.79999999999995</ele><time>2026-03-29T08:37:50.32Z</time></trkpt><trkpt lat="43.2242367" lon="12.1849383"><ele>374.4</ele><time>2026-03-29T08:37:51.324Z</time></trkpt><trkpt lat="43.224265" lon="12.184805"><ele>374.0</ele><time>2026-03-29T08:37:52.323Z</time></trkpt><trkpt lat="43.2242917" lon="12.184665"><ele>373.79999999999995</ele><time>2026-03-29T08:37:53.32Z</time></trkpt><trkpt lat="43.22431" lon="12.18453"><ele>373.59999999999997</ele><time>2026-03-29T08:37:54.322Z</time></trkpt><trkpt lat="43.22432" lon="12.1844017"><ele>373.4</ele><time>2026-03-29T08:37:55.324Z</time></trkpt><trkpt lat="43.2243183" lon="12.1842683"><ele>373.2</ele><time>2026-03-29T08:37:56.323Z</time></trkpt><trkpt lat="43.2243033" lon="12.18413"><ele>373.0</ele><time>2026-03-29T08:37:57.321Z</time></trkpt><trkpt lat="43.224285" lon="12.1839733"><ele>373.59999999999997</ele><time>2026-03-29T08:37:58.325Z</time></trkpt><trkpt lat="43.2242717" lon="12.18382"><ele>374.2</ele><time>2026-03-29T08:37:59.321Z</time></trkpt><trkpt lat="43.224255" lon="12.183675"><ele>374.8</ele><time>2026-03-29T08:38:00.323Z</time></trkpt><trkpt lat="43.2242433" lon="12.1835333"><ele>375.4</ele><time>2026-03-29T08:38:01.322Z</time></trkpt><trkpt lat="43.22423" lon="12.18339"><ele>376.0</ele><time>2026-03-29T08:38:02.326Z</time></trkpt><trkpt lat="43.2241933" lon="12.18326"><ele>377.20000000000005</ele><time>2026-03-29T08:38:03.323Z</time></trkpt><trkpt lat="43.224135" lon="12.1831517"><ele>378.40000000000003</ele><time>2026-03-29T08:38:04.324Z</time></trkpt><trkpt lat="43.2240667" lon="12.1830633"><ele>379.6</ele><time>2026-03-29T08:38:05.325Z</time></trkpt><trkpt lat="43.22399" lon="12.1829767"><ele>380.8</ele><time>2026-03-29T08:38:06.325Z</time></trkpt><trkpt lat="43.2239" lon="12.1828933"><ele>382.0</ele><time>2026-03-29T08:38:07.323Z</time></trkpt><trkpt lat="43.223805" lon="12.1828117"><ele>382.0</ele><time>2026-03-29T08:38:08.321Z</time></trkpt><trkpt lat="43.2237033" lon="12.1827333"><ele>382.0</ele><time>2026-03-29T08:38:09.321Z</time></trkpt><trkpt lat="43.2236017" lon="12.1826583"><ele>382.0</ele><time>2026-03-29T08:38:10.327Z</time></trkpt><trkpt lat="43.2235067" lon="12.182585"><ele>382.0</ele><time>2026-03-29T08:38:11.325Z</time></trkpt><trkpt lat="43.223425" lon="12.1825033"><ele>382.0</ele><time>2026-03-29T08:38:12.321Z</time></trkpt><trkpt lat="43.2233333" lon="12.1824033"><ele>382.75</ele><time>2026-03-29T08:38:13.321Z</time></trkpt><trkpt lat="43.22328" lon="12.182285"><ele>383.5</ele><time>2026-03-29T08:38:14.322Z</time></trkpt><trkpt lat="43.223225" lon="12.1821517"><ele>384.25</ele><time>2026-03-29T08:38:15.323Z</time></trkpt><trkpt lat="43.2231667" lon="12.1820117"><ele>385.0</ele><time>2026-03-29T08:38:16.321Z</time></trkpt><trkpt lat="43.2230967" lon="12.1818767"><ele>385.0</ele><time>2026-03-29T08:38:17.321Z</time></trkpt><trkpt lat="43.2230183" lon="12.1817433"><ele>385.0</ele><time>2026-03-29T08:38:18.319Z</time></trkpt><trkpt lat="43.2229317" lon="12.18163"><ele>385.0</ele><time>2026-03-29T08:38:19.321Z</time></trkpt><trkpt lat="43.2228533" lon="12.181525"><ele>385.0</ele><time>2026-03-29T08:38:20.319Z</time></trkpt><trkpt lat="43.2227833" lon="12.1814183"><ele>386.33333333333337</ele><time>2026-03-29T08:38:21.321Z</time></trkpt><trkpt lat="43.2227233" lon="12.181305"><ele>387.6666666666667</ele><time>2026-03-29T08:38:22.32Z</time></trkpt><trkpt lat="43.22268" lon="12.181205"><ele>389.0</ele><time>2026-03-29T08:38:23.325Z</time></trkpt><trkpt lat="43.2226533" lon="12.181125"><ele>390.33333333333337</ele><time>2026-03-29T08:38:24.321Z</time></trkpt><trkpt lat="43.2226817" lon="12.181045"><ele>391.6666666666667</ele><time>2026-03-29T08:38:32.32Z</time></trkpt><trkpt lat="43.22273" lon="12.1809517"><ele>393.0</ele><time>2026-03-29T08:38:34.322Z</time></trkpt><trkpt lat="43.2228233" lon="12.1808683"><ele>393.0</ele><time>2026-03-29T08:38:36.319Z</time></trkpt><trkpt lat="43.22293" lon="12.1808733"><ele>393.0</ele><time>2026-03-29T08:38:38.323Z</time></trkpt><trkpt lat="43.2230333" lon="12.1809717"><ele>393.0</ele><time>2026-03-29T08:38:40.323Z</time></trkpt><trkpt lat="43.2230917" lon="12.1810183"><ele>393.0</ele><time>2026-03-29T08:38:41.323Z</time></trkpt><trkpt lat="43.22316" lon="12.1810383"><ele>393.0</ele><time>2026-03-29T08:38:42.324Z</time></trkpt><trkpt lat="43.2232417" lon="12.1810317"><ele>396.4</ele><time>2026-03-29T08:38:43.319Z</time></trkpt><trkpt lat="43.2233367" lon="12.18102"><ele>399.79999999999995</ele><time>2026-03-29T08:38:44.322Z</time></trkpt><trkpt lat="43.223445" lon="12.1810167"><ele>403.2</ele><time>2026-03-29T08:38:45.324Z</time></trkpt><trkpt lat="43.22355" lon="12.1810217"><ele>406.6</ele><time>2026-03-29T08:38:46.321Z</time></trkpt><trkpt lat="43.223645" lon="12.1810517"><ele>410.0</ele><time>2026-03-29T08:38:47.325Z</time></trkpt><trkpt lat="43.2237483" lon="12.1811017"><ele>410.0</ele><time>2026-03-29T08:38:48.32Z</time></trkpt><trkpt lat="43.22385" lon="12.18115"><ele>410.0</ele><time>2026-03-29T08:38:49.323Z</time></trkpt><trkpt lat="43.2239517" lon="12.181175"><ele>410.0</ele><time>2026-03-29T08:38:50.32Z</time></trkpt><trkpt lat="43.224055" lon="12.1811783"><ele>410.0</ele><time>2026-03-29T08:38:51.322Z</time></trkpt><trkpt lat="43.224155" lon="12.18116"><ele>410.0</ele><time>2026-03-29T08:38:52.32Z</time></trkpt><trkpt lat="43.2242433" lon="12.1811483"><ele>412.3333333333333</ele><time>2026-03-29T08:38:53.324Z</time></trkpt><trkpt lat="43.2243267" lon="12.1811383"><ele>414.66666666666663</ele><time>2026-03-29T08:38:54.327Z</time></trkpt><trkpt lat="43.224405" lon="12.1811267"><ele>417.0</ele><time>2026-03-29T08:38:55.327Z</time></trkpt><trkpt lat="43.2244783" lon="12.1811167"><ele>419.33333333333337</ele><time>2026-03-29T08:38:56.325Z</time></trkpt><trkpt lat="43.2245417" lon="12.1811133"><ele>421.6666666666667</ele><time>2026-03-29T08:38:57.321Z</time></trkpt><trkpt lat="43.224655" lon="12.1811167"><ele>424.0</ele><time>2026-03-29T08:38:59.321Z</time></trkpt><trkpt lat="43.2247217" lon="12.1811167"><ele>424.0</ele><time>2026-03-29T08:39:00.32Z</time></trkpt><trkpt lat="43.2247867" lon="12.1811183"><ele>424.0</ele><time>2026-03-29T08:39:01.328Z</time></trkpt><trkpt lat="43.2248517" lon="12.1811333"><ele>424.0</ele><time>2026-03-29T08:39:02.323Z</time></trkpt><trkpt lat="43.2249233" lon="12.1811533"><ele>424.0</ele><time>2026-03-29T08:39:03.322Z</time></trkpt><trkpt lat="43.225005" lon="12.1811583"><ele>424.0</ele><time>2026-03-29T08:39:04.323Z</time></trkpt><trkpt lat="43.2250883" lon="12.1811633"><ele>424.0</ele><time>2026-03-29T08:39:05.326Z</time></trkpt><trkpt lat="43.225165" lon="12.181165"><ele>424.0</ele><time>2026-03-29T08:39:06.325Z</time></trkpt><trkpt lat="43.2252717" lon="12.1811667"><ele>425.6</ele><time>2026-03-29T08:39:08.323Z</time></trkpt><trkpt lat="43.2253367" lon="12.18107"><ele>427.2</ele><time>2026-03-29T08:39:10.322Z</time></trkpt><trkpt lat="43.22534" lon="12.18098"><ele>428.80000000000007</ele><time>2026-03-29T08:39:11.323Z</time></trkpt><trkpt lat="43.225315" lon="12.1808633"><ele>430.40000000000003</ele><time>2026-03-29T08:39:12.324Z</time></trkpt><trkpt lat="43.2252667" lon="12.1807317"><ele>432.0</ele><time>2026-03-29T08:39:13.323Z</time></trkpt><trkpt lat="43.2252117" lon="12.1806117"><ele>431.3333333333333</ele><time>2026-03-29T08:39:14.325Z</time></trkpt><trkpt lat="43.22516" lon="12.1805233"><ele>430.66666666666663</ele><time>2026-03-29T08:39:15.324Z</time></trkpt><trkpt lat="43.2251033" lon="12.180455"><ele>430.0</ele><time>2026-03-29T08:39:16.319Z</time></trkpt><trkpt lat="43.22505" lon="12.1803917"><ele>429.3333333333333</ele><time>2026-03-29T08:39:17.323Z</time></trkpt><trkpt lat="43.2250017" lon="12.1803317"><ele>428.66666666666663</ele><time>2026-03-29T08:39:18.324Z</time></trkpt><trkpt lat="43.2249017" lon="12.1802417"><ele>428.0</ele><time>2026-03-29T08:39:20.323Z</time></trkpt><trkpt lat="43.22478" lon="12.1802033"><ele>428.0</ele><time>2026-03-29T08:39:22.325Z</time></trkpt><trkpt lat="43.2246983" lon="12.18015"><ele>427.99999999999994</ele><time>2026-03-29T08:39:24.323Z</time></trkpt><trkpt lat="43.2247267" lon="12.18001"><ele>427.99999999999994</ele><time>2026-03-29T08:39:27.323Z</time></trkpt><trkpt lat="43.2247733" lon="12.179875"><ele>428.0</ele><time>2026-03-29T08:39:29.321Z</time></trkpt><trkpt lat="43.22483" lon="12.17976"><ele>428.0</ele><time>2026-03-29T08:39:31.324Z</time></trkpt><trkpt lat="43.2249067" lon="12.1796917"><ele>430.66666666666663</ele><time>2026-03-29T08:39:33.323Z</time></trkpt><trkpt lat="43.2250217" lon="12.1796317"><ele>433.3333333333333</ele><time>2026-03-29T08:39:35.32Z</time></trkpt><trkpt lat="43.2250883" lon="12.1795983"><ele>436.0</ele><time>2026-03-29T08:39:36.321Z</time></trkpt><trkpt lat="43.2251533" lon="12.1795567"><ele>438.66666666666663</ele><time>2026-03-29T08:39:37.323Z</time></trkpt><trkpt lat="43.22522" lon="12.179515"><ele>441.3333333333333</ele><time>2026-03-29T08:39:38.321Z</time></trkpt><trkpt lat="43.2252867" lon="12.179475"><ele>444.0</ele><time>2026-03-29T08:39:39.321Z</time></trkpt><trkpt lat="43.2253433" lon="12.17943"><ele>444.0</ele><time>2026-03-29T08:39:40.326Z</time></trkpt><trkpt lat="43.2254067" lon="12.1793033"><ele>444.0</ele><time>2026-03-29T08:39:42.321Z</time></trkpt><trkpt lat="43.2254517" lon="12.1791833"><ele>444.0</ele><time>2026-03-29T08:39:44.32Z</time></trkpt><trkpt lat="43.225525" lon="12.1790833"><ele>444.0</ele><time>2026-03-29T08:39:46.323Z</time></trkpt><trkpt lat="43.225585" lon="12.17898"><ele>444.0</ele><time>2026-03-29T08:39:48.323Z</time></trkpt><trkpt lat="43.2255617" lon="12.178885"><ele>445.1666666666667</ele><time>2026-03-29T08:39:50.323Z</time></trkpt><trkpt lat="43.2255267" lon="12.1787833"><ele>446.33333333333337</ele><time>2026-03-29T08:39:52.322Z</time></trkpt><trkpt lat="43.225525" lon="12.1786733"><ele>447.5</ele><time>2026-03-29T08:39:54.322Z</time></trkpt><trkpt lat="43.2255783" lon="12.1785917"><ele>448.6666666666667</ele><time>2026-03-29T08:39:56.324Z</time></trkpt><trkpt lat="43.2256567" lon="12.1785133"><ele>449.83333333333337</ele><time>2026-03-29T08:39:58.333Z</time></trkpt><trkpt lat="43.225715" lon="12.1784183"><ele>451.0</ele><time>2026-03-29T08:40:00.323Z</time></trkpt><trkpt lat="43.2257317" lon="12.1782683"><ele>452.6666666666667</ele><time>2026-03-29T08:40:02.32Z</time></trkpt><trkpt lat="43.22574" lon="12.1781683"><ele>454.33333333333337</ele><time>2026-03-29T08:40:03.324Z</time></trkpt><trkpt lat="43.2257383" lon="12.1780583"><ele>456.0</ele><time>2026-03-29T08:40:04.324Z</time></trkpt><trkpt lat="43.2257217" lon="12.177945"><ele>457.66666666666663</ele><time>2026-03-29T08:40:05.322Z</time></trkpt><trkpt lat="43.2256983" lon="12.1778417"><ele>459.3333333333333</ele><time>2026-03-29T08:40:06.322Z</time></trkpt><trkpt lat="43.2256817" lon="12.1777417"><ele>461.0</ele><time>2026-03-29T08:40:07.324Z</time></trkpt><trkpt lat="43.2256733" lon="12.17765"><ele>461.0</ele><time>2026-03-29T08:40:08.321Z</time></trkpt><trkpt lat="43.22567" lon="12.1775583"><ele>461.0</ele><time>2026-03-29T08:40:09.325Z</time></trkpt><trkpt lat="43.2256683" lon="12.1774517"><ele>461.0</ele><time>2026-03-29T08:40:10.324Z</time></trkpt><trkpt lat="43.2256917" lon="12.177205"><ele>461.0</ele><time>2026-03-29T08:40:12.324Z</time></trkpt><trkpt lat="43.225705" lon="12.177075"><ele>461.0</ele><time>2026-03-29T08:40:13.322Z</time></trkpt><trkpt lat="43.2257217" lon="12.176965"><ele>461.66666666666663</ele><time>2026-03-29T08:40:14.323Z</time></trkpt><trkpt lat="43.2257383" lon="12.176875"><ele>462.3333333333333</ele><time>2026-03-29T08:40:15.32Z</time></trkpt><trkpt lat="43.2257933" lon="12.1767483"><ele>463.0</ele><time>2026-03-29T08:40:17.321Z</time></trkpt><trkpt lat="43.2258433" lon="12.176685"><ele>463.66666666666663</ele><time>2026-03-29T08:40:18.32Z</time></trkpt><trkpt lat="43.2258933" lon="12.1766133"><ele>464.3333333333333</ele><time>2026-03-29T08:40:19.32Z</time></trkpt><trkpt lat="43.2259383" lon="12.1765383"><ele>465.0</ele><time>2026-03-29T08:40:20.327Z</time></trkpt><trkpt lat="43.2259833" lon="12.1764517"><ele>466.3333333333333</ele><time>2026-03-29T08:40:21.324Z</time></trkpt><trkpt lat="43.2260233" lon="12.1763683"><ele>467.66666666666663</ele><time>2026-03-29T08:40:22.323Z</time></trkpt><trkpt lat="43.22605" lon="12.1762833"><ele>469.0</ele><time>2026-03-29T08:40:23.321Z</time></trkpt><trkpt lat="43.2260717" lon="12.1762"><ele>470.3333333333333</ele><time>2026-03-29T08:40:24.323Z</time></trkpt><trkpt lat="43.22611" lon="12.1760583"><ele>471.66666666666663</ele><time>2026-03-29T08:40:26.325Z</time></trkpt><trkpt lat="43.2261317" lon="12.1759233"><ele>473.0</ele><time>2026-03-29T08:40:28.323Z</time></trkpt><trkpt lat="43.22614" lon="12.17578"><ele>475.16666666666663</ele><time>2026-03-29T08:40:30.32Z</time></trkpt><trkpt lat="43.2261667" lon="12.175655"><ele>477.3333333333333</ele><time>2026-03-29T08:40:32.321Z</time></trkpt><trkpt lat="43.2262067" lon="12.175555"><ele>479.5</ele><time>2026-03-29T08:40:35.321Z</time></trkpt><trkpt lat="43.226215" lon="12.1754483"><ele>481.66666666666663</ele><time>2026-03-29T08:40:38.323Z</time></trkpt><trkpt lat="43.2261933" lon="12.1753567"><ele>483.8333333333333</ele><time>2026-03-29T08:40:41.322Z</time></trkpt><trkpt lat="43.2262233" lon="12.1752017"><ele>486.0</ele><time>2026-03-29T08:40:55.323Z</time></trkpt><trkpt lat="43.2262183" lon="12.1750917"><ele>486.0</ele><time>2026-03-29T08:40:59.322Z</time></trkpt><trkpt lat="43.22618" lon="12.1750067"><ele>486.0</ele><time>2026-03-29T08:41:01.321Z</time></trkpt><trkpt lat="43.2261467" lon="12.1749267"><ele>486.0</ele><time>2026-03-29T08:41:03.321Z</time></trkpt><trkpt lat="43.2261167" lon="12.1748233"><ele>486.0</ele><time>2026-03-29T08:41:05.321Z</time></trkpt><trkpt lat="43.2260733" lon="12.1747283"><ele>486.0</ele><time>2026-03-29T08:41:07.32Z</time></trkpt><trkpt lat="43.22602" lon="12.1746417"><ele>486.0</ele><time>2026-03-29T08:41:09.322Z</time></trkpt><trkpt lat="43.2259667" lon="12.174525"><ele>488.0</ele><time>2026-03-29T08:41:11.32Z</time></trkpt><trkpt lat="43.225925" lon="12.1744433"><ele>490.0</ele><time>2026-03-29T08:41:13.322Z</time></trkpt><trkpt lat="43.2259617" lon="12.17437"><ele>492.0</ele><time>2026-03-29T08:41:16.322Z</time></trkpt><trkpt lat="43.2260483" lon="12.1743233"><ele>494.0</ele><time>2026-03-29T08:41:18.324Z</time></trkpt><trkpt lat="43.22615" lon="12.1742783"><ele>496.0</ele><time>2026-03-29T08:41:20.32Z</time></trkpt><trkpt lat="43.2262267" lon="12.17423"><ele>498.0</ele><time>2026-03-29T08:41:22.322Z</time></trkpt><trkpt lat="43.2262917" lon="12.1742"><ele>498.0</ele><time>2026-03-29T08:41:24.323Z</time></trkpt><trkpt lat="43.226365" lon="12.1741533"><ele>498.0</ele><time>2026-03-29T08:41:27.323Z</time></trkpt><trkpt lat="43.2264517" lon="12.174115"><ele>498.0</ele><time>2026-03-29T08:41:30.322Z</time></trkpt><trkpt lat="43.2265167" lon="12.174095"><ele>498.0</ele><time>2026-03-29T08:41:32.323Z</time></trkpt><trkpt lat="43.2265967" lon="12.174045"><ele>498.0</ele><time>2026-03-29T08:41:34.322Z</time></trkpt><trkpt lat="43.2267033" lon="12.1740117"><ele>498.0</ele><time>2026-03-29T08:41:36.323Z</time></trkpt><trkpt lat="43.226825" lon="12.1739917"><ele>502.1666666666667</ele><time>2026-03-29T08:41:38.322Z</time></trkpt><trkpt lat="43.2269067" lon="12.1739517"><ele>506.33333333333337</ele><time>2026-03-29T08:41:40.321Z</time></trkpt><trkpt lat="43.2269517" lon="12.1738617"><ele>510.5</ele><time>2026-03-29T08:41:43.322Z</time></trkpt><trkpt lat="43.2268933" lon="12.17377"><ele>514.6666666666667</ele><time>2026-03-29T08:41:46.321Z</time></trkpt><trkpt lat="43.22685" lon="12.1736633"><ele>518.8333333333334</ele><time>2026-03-29T08:41:49.324Z</time></trkpt><trkpt lat="43.2267983" lon="12.173575"><ele>523.0</ele><time>2026-03-29T08:41:51.324Z</time></trkpt><trkpt lat="43.2267483" lon="12.173495"><ele>523.0</ele><time>2026-03-29T08:41:53.321Z</time></trkpt><trkpt lat="43.226715" lon="12.1733733"><ele>523.0</ele><time>2026-03-29T08:41:55.323Z</time></trkpt><trkpt lat="43.2267067" lon="12.1732783"><ele>523.0</ele><time>2026-03-29T08:41:57.325Z</time></trkpt><trkpt lat="43.2267583" lon="12.17318"><ele>523.0</ele><time>2026-03-29T08:42:00.321Z</time></trkpt><trkpt lat="43.2268683" lon="12.17314"><ele>523.0</ele><time>2026-03-29T08:42:02.33Z</time></trkpt><trkpt lat="43.2269133" lon="12.17306"><ele>523.0</ele><time>2026-03-29T08:42:04.321Z</time></trkpt><trkpt lat="43.2268767" lon="12.172945"><ele>525.0</ele><time>2026-03-29T08:42:06.322Z</time></trkpt><trkpt lat="43.2268617" lon="12.1728233"><ele>527.0</ele><time>2026-03-29T08:42:08.323Z</time></trkpt><trkpt lat="43.22688" lon="12.1727267"><ele>529.0</ele><time>2026-03-29T08:42:10.323Z</time></trkpt><trkpt lat="43.2268967" lon="12.17263"><ele>531.0</ele><time>2026-03-29T08:42:12.323Z</time></trkpt><trkpt lat="43.22692" lon="12.1725283"><ele>533.0</ele><time>2026-03-29T08:42:14.322Z</time></trkpt><trkpt lat="43.2269367" lon="12.1724367"><ele>535.0</ele><time>2026-03-29T08:42:16.32Z</time></trkpt><trkpt lat="43.2269167" lon="12.1723283"><ele>538.0</ele><time>2026-03-29T08:42:18.323Z</time></trkpt><trkpt lat="43.22689" lon="12.1722167"><ele>541.0</ele><time>2026-03-29T08:42:20.322Z</time></trkpt><trkpt lat="43.2268283" lon="12.1720867"><ele>544.0</ele><time>2026-03-29T08:42:22.321Z</time></trkpt><trkpt lat="43.2267683" lon="12.171955"><ele>547.0</ele><time>2026-03-29T08:42:24.319Z</time></trkpt><trkpt lat="43.2267" lon="12.1718633"><ele>550.0</ele><time>2026-03-29T08:42:26.323Z</time></trkpt><trkpt lat="43.2266517" lon="12.1717783"><ele>550.0</ele><time>2026-03-29T08:42:28.324Z</time></trkpt><trkpt lat="43.2266233" lon="12.1716717"><ele>550.0</ele><time>2026-03-29T08:42:31.322Z</time></trkpt><trkpt lat="43.2267017" lon="12.1715783"><ele>550.0</ele><time>2026-03-29T08:42:34.325Z</time></trkpt><trkpt lat="43.2268017" lon="12.17154"><ele>550.0</ele><time>2026-03-29T08:42:36.321Z</time></trkpt><trkpt lat="43.2269183" lon="12.1715133"><ele>550.0</ele><time>2026-03-29T08:42:38.324Z</time></trkpt><trkpt lat="43.2270067" lon="12.1714533"><ele>552.0</ele><time>2026-03-29T08:42:40.321Z</time></trkpt><trkpt lat="43.2270217" lon="12.1713533"><ele>554.0</ele><time>2026-03-29T08:42:42.321Z</time></trkpt><trkpt lat="43.22697" lon="12.171215"><ele>556.0</ele><time>2026-03-29T08:42:44.321Z</time></trkpt><trkpt lat="43.2268883" lon="12.1711067"><ele>558.0</ele><time>2026-03-29T08:42:46.321Z</time></trkpt><trkpt lat="43.2268333" lon="12.1710617"><ele>560.0</ele><time>2026-03-29T08:42:47.321Z</time></trkpt><trkpt lat="43.2267583" lon="12.1709567"><ele>560.0</ele><time>2026-03-29T08:42:49.322Z</time></trkpt><trkpt lat="43.2267517" lon="12.1708317"><ele>560.0</ele><time>2026-03-29T08:42:51.322Z</time></trkpt><trkpt lat="43.22676" lon="12.170685"><ele>560.0</ele><time>2026-03-29T08:42:53.323Z</time></trkpt><trkpt lat="43.2267733" lon="12.1705767"><ele>560.0</ele><time>2026-03-29T08:42:55.32Z</time></trkpt><trkpt lat="43.22688" lon="12.1705867"><ele>560.0</ele><time>2026-03-29T08:42:57.322Z</time></trkpt><trkpt lat="43.2269633" lon="12.1706167"><ele>560.0</ele><time>2026-03-29T08:42:58.322Z</time></trkpt><trkpt lat="43.2270533" lon="12.17065"><ele>560.0</ele><time>2026-03-29T08:42:59.322Z</time></trkpt><trkpt lat="43.2271367" lon="12.17068"><ele>560.0</ele><time>2026-03-29T08:43:00.325Z</time></trkpt><trkpt lat="43.2272067" lon="12.1707033"><ele>560.0</ele><time>2026-03-29T08:43:01.321Z</time></trkpt><trkpt lat="43.2273067" lon="12.1707083"><ele>560.0</ele><time>2026-03-29T08:43:03.321Z</time></trkpt><trkpt lat="43.2273817" lon="12.1706733"><ele>560.0</ele><time>2026-03-29T08:43:06.322Z</time></trkpt><trkpt lat="43.227465" lon="12.1707367"><ele>561.6666666666666</ele><time>2026-03-29T08:43:09.321Z</time></trkpt><trkpt lat="43.2275533" lon="12.17081"><ele>563.3333333333333</ele><time>2026-03-29T08:43:11.324Z</time></trkpt><trkpt lat="43.22767" lon="12.1708667"><ele>565.0</ele><time>2026-03-29T08:43:13.323Z</time></trkpt><trkpt lat="43.22774" lon="12.1708883"><ele>566.6666666666666</ele><time>2026-03-29T08:43:14.323Z</time></trkpt><trkpt lat="43.2278083" lon="12.1709"><ele>568.3333333333334</ele><time>2026-03-29T08:43:15.322Z</time></trkpt><trkpt lat="43.2278783" lon="12.1708917"><ele>570.0</ele><time>2026-03-29T08:43:16.324Z</time></trkpt><trkpt lat="43.2279417" lon="12.1708717"><ele>570.0</ele><time>2026-03-29T08:43:17.321Z</time></trkpt><trkpt lat="43.2280533" lon="12.170845"><ele>570.0</ele><time>2026-03-29T08:43:19.321Z</time></trkpt><trkpt lat="43.2281667" lon="12.1709067"><ele>570.0</ele><time>2026-03-29T08:43:21.321Z</time></trkpt><trkpt lat="43.2282217" lon="12.17096"><ele>570.0</ele><time>2026-03-29T08:43:22.323Z</time></trkpt><trkpt lat="43.22829" lon="12.171085"><ele>570.0</ele><time>2026-03-29T08:43:24.323Z</time></trkpt><trkpt lat="43.22841" lon="12.171215"><ele>570.3333333333334</ele><time>2026-03-29T08:43:27.32Z</time></trkpt><trkpt lat="43.2284867" lon="12.1712417"><ele>570.6666666666666</ele><time>2026-03-29T08:43:28.319Z</time></trkpt><trkpt lat="43.2285617" lon="12.1712767"><ele>571.0</ele><time>2026-03-29T08:43:29.321Z</time></trkpt><trkpt lat="43.228635" lon="12.17132"><ele>571.3333333333333</ele><time>2026-03-29T08:43:30.321Z</time></trkpt><trkpt lat="43.2287" lon="12.1713633"><ele>571.6666666666666</ele><time>2026-03-29T08:43:31.321Z</time></trkpt><trkpt lat="43.22877" lon="12.1714"><ele>572.0</ele><time>2026-03-29T08:43:32.322Z</time></trkpt><trkpt lat="43.2288433" lon="12.171435"><ele>572.0</ele><time>2026-03-29T08:43:33.321Z</time></trkpt><trkpt lat="43.228925" lon="12.1714567"><ele>572.0</ele><time>2026-03-29T08:43:34.32Z</time></trkpt><trkpt lat="43.2290083" lon="12.1714833"><ele>572.0</ele><time>2026-03-29T08:43:35.323Z</time></trkpt><trkpt lat="43.2290983" lon="12.17153"><ele>572.0</ele><time>2026-03-29T08:43:36.322Z</time></trkpt><trkpt lat="43.2291917" lon="12.1715933"><ele>572.0</ele><time>2026-03-29T08:43:37.323Z</time></trkpt><trkpt lat="43.2292733" lon="12.17166"><ele>569.6666666666666</ele><time>2026-03-29T08:43:38.322Z</time></trkpt><trkpt lat="43.229345" lon="12.1717133"><ele>567.3333333333333</ele><time>2026-03-29T08:43:39.321Z</time></trkpt><trkpt lat="43.2294017" lon="12.1717667"><ele>565.0</ele><time>2026-03-29T08:43:40.319Z</time></trkpt><trkpt lat="43.229455" lon="12.171825"><ele>562.6666666666666</ele><time>2026-03-29T08:43:41.32Z</time></trkpt><trkpt lat="43.22951" lon="12.1718833"><ele>560.3333333333334</ele><time>2026-03-29T08:43:42.322Z</time></trkpt><trkpt lat="43.2296183" lon="12.171975"><ele>558.0</ele><time>2026-03-29T08:43:44.321Z</time></trkpt><trkpt lat="43.2296867" lon="12.1720067"><ele>558.0</ele><time>2026-03-29T08:43:45.326Z</time></trkpt><trkpt lat="43.229765" lon="12.172035"><ele>558.0</ele><time>2026-03-29T08:43:46.322Z</time></trkpt><trkpt lat="43.2298417" lon="12.1720583"><ele>558.0</ele><time>2026-03-29T08:43:47.322Z</time></trkpt><trkpt lat="43.2299183" lon="12.172075"><ele>558.0</ele><time>2026-03-29T08:43:48.32Z</time></trkpt><trkpt lat="43.229985" lon="12.172095"><ele>558.0</ele><time>2026-03-29T08:43:49.318Z</time></trkpt><trkpt lat="43.23005" lon="12.1721167"><ele>558.0</ele><time>2026-03-29T08:43:50.321Z</time></trkpt><trkpt lat="43.230175" lon="12.1721267"><ele>558.9999999999999</ele><time>2026-03-29T08:43:52.322Z</time></trkpt><trkpt lat="43.2302367" lon="12.1721067"><ele>560.0</ele><time>2026-03-29T08:43:53.321Z</time></trkpt><trkpt lat="43.2303017" lon="12.1720833"><ele>561.0</ele><time>2026-03-29T08:43:54.32Z</time></trkpt><trkpt lat="43.23037" lon="12.1720633"><ele>562.0</ele><time>2026-03-29T08:43:55.319Z</time></trkpt><trkpt lat="43.2304383" lon="12.172035"><ele>563.0</ele><time>2026-03-29T08:43:56.32Z</time></trkpt><trkpt lat="43.2305017" lon="12.1719967"><ele>563.9999999999999</ele><time>2026-03-29T08:43:57.32Z</time></trkpt><trkpt lat="43.2305583" lon="12.1719483"><ele>565.0</ele><time>2026-03-29T08:43:58.321Z</time></trkpt><trkpt lat="43.2306167" lon="12.171895"><ele>563.2</ele><time>2026-03-29T08:43:59.321Z</time></trkpt><trkpt lat="43.2306717" lon="12.171835"><ele>561.4</ele><time>2026-03-29T08:44:00.32Z</time></trkpt><trkpt lat="43.2307317" lon="12.1717217"><ele>559.6</ele><time>2026-03-29T08:44:02.322Z</time></trkpt><trkpt lat="43.23076" lon="12.1716083"><ele>557.8</ele><time>2026-03-29T08:44:04.321Z</time></trkpt><trkpt lat="43.2308033" lon="12.1714483"><ele>556.0</ele><time>2026-03-29T08:44:06.322Z</time></trkpt><trkpt lat="43.23084" lon="12.1713617"><ele>556.0</ele><time>2026-03-29T08:44:07.32Z</time></trkpt><trkpt lat="43.230885" lon="12.1712733"><ele>556.0</ele><time>2026-03-29T08:44:08.324Z</time></trkpt><trkpt lat="43.2309267" lon="12.171175"><ele>556.0</ele><time>2026-03-29T08:44:09.319Z</time></trkpt><trkpt lat="43.2309633" lon="12.1710817"><ele>556.0</ele><time>2026-03-29T08:44:10.322Z</time></trkpt><trkpt lat="43.230985" lon="12.1709983"><ele>556.0</ele><time>2026-03-29T08:44:11.326Z</time></trkpt><trkpt lat="43.23103" lon="12.1708717"><ele>556.0</ele><time>2026-03-29T08:44:13.321Z</time></trkpt><trkpt lat="43.2311067" lon="12.170805"><ele>556.0</ele><time>2026-03-29T08:44:15.325Z</time></trkpt><trkpt lat="43.2312267" lon="12.170745"><ele>556.0</ele><time>2026-03-29T08:44:17.324Z</time></trkpt><trkpt lat="43.2312767" lon="12.1706917"><ele>556.0</ele><time>2026-03-29T08:44:18.321Z</time></trkpt><trkpt lat="43.2313167" lon="12.1706183"><ele>556.0</ele><time>2026-03-29T08:44:19.321Z</time></trkpt><trkpt lat="43.2313433" lon="12.170535"><ele>556.0</ele><time>2026-03-29T08:44:20.321Z</time></trkpt><trkpt lat="43.2313667" lon="12.1704467"><ele>556.0</ele><time>2026-03-29T08:44:21.323Z</time></trkpt><trkpt lat="43.2313917" lon="12.1703633"><ele>557.0</ele><time>2026-03-29T08:44:22.322Z</time></trkpt><trkpt lat="43.2314633" lon="12.1702433"><ele>558.0</ele><time>2026-03-29T08:44:24.32Z</time></trkpt><trkpt lat="43.23153" lon="12.1701983"><ele>559.0</ele><time>2026-03-29T08:44:25.329Z</time></trkpt><trkpt lat="43.2316317" lon="12.1701967"><ele>560.0</ele><time>2026-03-29T08:44:26.324Z</time></trkpt><trkpt lat="43.231725" lon="12.1701567"><ele>561.0</ele><time>2026-03-29T08:44:27.325Z</time></trkpt><trkpt lat="43.2318117" lon="12.1701067"><ele>561.0</ele><time>2026-03-29T08:44:28.32Z</time></trkpt><trkpt lat="43.2318983" lon="12.170045"><ele>561.0</ele><time>2026-03-29T08:44:29.325Z</time></trkpt><trkpt lat="43.2319833" lon="12.1699817"><ele>561.0</ele><time>2026-03-29T08:44:30.323Z</time></trkpt><trkpt lat="43.232065" lon="12.1699217"><ele>561.0</ele><time>2026-03-29T08:44:31.323Z</time></trkpt><trkpt lat="43.2321433" lon="12.16985"><ele>561.0</ele><time>2026-03-29T08:44:32.32Z</time></trkpt><trkpt lat="43.23221" lon="12.1697567"><ele>562.0</ele><time>2026-03-29T08:44:33.324Z</time></trkpt><trkpt lat="43.232265" lon="12.16965"><ele>563.0</ele><time>2026-03-29T08:44:34.325Z</time></trkpt><trkpt lat="43.232305" lon="12.16955"><ele>564.0</ele><time>2026-03-29T08:44:35.321Z</time></trkpt><trkpt lat="43.2323533" lon="12.1694667"><ele>565.0</ele><time>2026-03-29T08:44:36.325Z</time></trkpt><trkpt lat="43.2324017" lon="12.1693883"><ele>566.0</ele><time>2026-03-29T08:44:37.322Z</time></trkpt><trkpt lat="43.2324533" lon="12.1693217"><ele>567.0</ele><time>2026-03-29T08:44:38.321Z</time></trkpt><trkpt lat="43.23251" lon="12.1692617"><ele>567.0</ele><time>2026-03-29T08:44:39.326Z</time></trkpt><trkpt lat="43.23257" lon="12.1692"><ele>567.0</ele><time>2026-03-29T08:44:40.322Z</time></trkpt><trkpt lat="43.232625" lon="12.16914"><ele>567.0</ele><time>2026-03-29T08:44:41.322Z</time></trkpt><trkpt lat="43.2326867" lon="12.1690717"><ele>567.0</ele><time>2026-03-29T08:44:42.325Z</time></trkpt><trkpt lat="43.232755" lon="12.169"><ele>567.0</ele><time>2026-03-29T08:44:43.322Z</time></trkpt><trkpt lat="43.2328217" lon="12.168925"><ele>567.0</ele><time>2026-03-29T08:44:44.325Z</time></trkpt><trkpt lat="43.2328883" lon="12.168865"><ele>568.8000000000001</ele><time>2026-03-29T08:44:45.325Z</time></trkpt><trkpt lat="43.2329583" lon="12.1688233"><ele>570.6</ele><time>2026-03-29T08:44:46.32Z</time></trkpt><trkpt lat="43.2330283" lon="12.1688067"><ele>572.4000000000001</ele><time>2026-03-29T08:44:47.324Z</time></trkpt><trkpt lat="43.2331383" lon="12.1687933"><ele>574.2</ele><time>2026-03-29T08:44:49.323Z</time></trkpt><trkpt lat="43.2332683" lon="12.16881"><ele>576.0</ele><time>2026-03-29T08:44:51.321Z</time></trkpt><trkpt lat="43.2333333" lon="12.16882"><ele>576.0</ele><time>2026-03-29T08:44:52.325Z</time></trkpt><trkpt lat="43.2334433" lon="12.168825"><ele>576.0</ele><time>2026-03-29T08:44:54.318Z</time></trkpt><trkpt lat="43.2335017" lon="12.1687517"><ele>576.0</ele><time>2026-03-29T08:44:56.323Z</time></trkpt><trkpt lat="43.2334667" lon="12.1686617"><ele>576.0</ele><time>2026-03-29T08:44:58.324Z</time></trkpt><trkpt lat="43.2333767" lon="12.1686017"><ele>576.0</ele><time>2026-03-29T08:45:00.323Z</time></trkpt><trkpt lat="43.2333433" lon="12.1685117"><ele>576.0</ele><time>2026-03-29T08:45:02.323Z</time></trkpt><trkpt lat="43.2333683" lon="12.1683867"><ele>576.0</ele><time>2026-03-29T08:45:04.32Z</time></trkpt><trkpt lat="43.2333883" lon="12.1682883"><ele>576.0</ele><time>2026-03-29T08:45:05.32Z</time></trkpt><trkpt lat="43.2333967" lon="12.1681733"><ele>576.0</ele><time>2026-03-29T08:45:06.321Z</time></trkpt><trkpt lat="43.2333933" lon="12.1680583"><ele>576.0</ele><time>2026-03-29T08:45:07.321Z</time></trkpt><trkpt lat="43.233375" lon="12.1679533"><ele>576.0</ele><time>2026-03-29T08:45:08.321Z</time></trkpt><trkpt lat="43.2333533" lon="12.1678583"><ele>576.0</ele><time>2026-03-29T08:45:09.32Z</time></trkpt><trkpt lat="43.2333333" lon="12.1677633"><ele>577.0</ele><time>2026-03-29T08:45:10.321Z</time></trkpt><trkpt lat="43.23332" lon="12.16767"><ele>578.0</ele><time>2026-03-29T08:45:11.321Z</time></trkpt><trkpt lat="43.2333133" lon="12.1675033"><ele>579.0</ele><time>2026-03-29T08:45:13.319Z</time></trkpt><trkpt lat="43.2333317" lon="12.167345"><ele>580.0</ele><time>2026-03-29T08:45:15.321Z</time></trkpt><trkpt lat="43.23335" lon="12.167185"><ele>581.0</ele><time>2026-03-29T08:45:17.32Z</time></trkpt><trkpt lat="43.2333667" lon="12.1671"><ele>581.4</ele><time>2026-03-29T08:45:18.323Z</time></trkpt><trkpt lat="43.23337" lon="12.1669433"><ele>581.8</ele><time>2026-03-29T08:45:20.322Z</time></trkpt><trkpt lat="43.2333883" lon="12.16682"><ele>582.1999999999999</ele><time>2026-03-29T08:45:22.323Z</time></trkpt><trkpt lat="43.2334567" lon="12.1667633"><ele>582.6</ele><time>2026-03-29T08:45:25.324Z</time></trkpt><trkpt lat="43.2335517" lon="12.16679"><ele>583.0</ele><time>2026-03-29T08:45:27.323Z</time></trkpt><trkpt lat="43.2336617" lon="12.1668033"><ele>583.0</ele><time>2026-03-29T08:45:29.32Z</time></trkpt><trkpt lat="43.2338" lon="12.1667383"><ele>583.0</ele><time>2026-03-29T08:45:31.32Z</time></trkpt><trkpt lat="43.233875" lon="12.16669"><ele>583.0</ele><time>2026-03-29T08:45:32.321Z</time></trkpt><trkpt lat="43.2339633" lon="12.1666383"><ele>583.0</ele><time>2026-03-29T08:45:33.32Z</time></trkpt><trkpt lat="43.2340567" lon="12.166575"><ele>583.0</ele><time>2026-03-29T08:45:34.322Z</time></trkpt><trkpt lat="43.2341383" lon="12.1665267"><ele>582.5</ele><time>2026-03-29T08:45:35.323Z</time></trkpt><trkpt lat="43.234215" lon="12.1664883"><ele>582.0</ele><time>2026-03-29T08:45:36.321Z</time></trkpt><trkpt lat="43.23428" lon="12.1664367"><ele>581.5</ele><time>2026-03-29T08:45:37.32Z</time></trkpt><trkpt lat="43.2343417" lon="12.16632"><ele>581.0</ele><time>2026-03-29T08:45:39.323Z</time></trkpt><trkpt lat="43.2343133" lon="12.1662317"><ele>580.5</ele><time>2026-03-29T08:45:42.32Z</time></trkpt><trkpt lat="43.2343367" lon="12.1663133"><ele>580.0</ele><time>2026-03-29T08:45:45.324Z</time></trkpt><trkpt lat="43.2344117" lon="12.1663783"><ele>580.0</ele><time>2026-03-29T08:45:47.32Z</time></trkpt><trkpt lat="43.2344717" lon="12.16643"><ele>580.0</ele><time>2026-03-29T08:45:48.321Z</time></trkpt><trkpt lat="43.2345317" lon="12.1664633"><ele>580.0</ele><time>2026-03-29T08:45:49.32Z</time></trkpt><trkpt lat="43.2345967" lon="12.1664883"><ele>580.0</ele><time>2026-03-29T08:45:50.323Z</time></trkpt><trkpt lat="43.2346667" lon="12.1665067"><ele>580.0</ele><time>2026-03-29T08:45:51.32Z</time></trkpt><trkpt lat="43.2347367" lon="12.1665267"><ele>580.0</ele><time>2026-03-29T08:45:52.32Z</time></trkpt><trkpt lat="43.2348133" lon="12.16655"><ele>580.0</ele><time>2026-03-29T08:45:53.322Z</time></trkpt><trkpt lat="43.2348867" lon="12.166575"><ele>577.3333333333334</ele><time>2026-03-29T08:45:54.322Z</time></trkpt><trkpt lat="43.23496" lon="12.1666083"><ele>574.6666666666667</ele><time>2026-03-29T08:45:55.323Z</time></trkpt><trkpt lat="43.2350283" lon="12.166655"><ele>572.0</ele><time>2026-03-29T08:45:56.32Z</time></trkpt><trkpt lat="43.2350967" lon="12.1667017"><ele>569.3333333333334</ele><time>2026-03-29T08:45:57.325Z</time></trkpt><trkpt lat="43.235155" lon="12.16675"><ele>566.6666666666666</ele><time>2026-03-29T08:45:58.322Z</time></trkpt><trkpt lat="43.2352483" lon="12.16686"><ele>564.0</ele><time>2026-03-29T08:46:00.319Z</time></trkpt><trkpt lat="43.2352983" lon="12.16692"><ele>564.0</ele><time>2026-03-29T08:46:01.321Z</time></trkpt><trkpt lat="43.2354017" lon="12.1670233"><ele>564.0</ele><time>2026-03-29T08:46:03.324Z</time></trkpt><trkpt lat="43.23547" lon="12.167065"><ele>564.0</ele><time>2026-03-29T08:46:04.319Z</time></trkpt><trkpt lat="43.2355367" lon="12.16711"><ele>564.0</ele><time>2026-03-29T08:46:05.319Z</time></trkpt><trkpt lat="43.2355933" lon="12.1671683"><ele>564.0</ele><time>2026-03-29T08:46:06.321Z</time></trkpt><trkpt lat="43.2356383" lon="12.16723"><ele>564.0</ele><time>2026-03-29T08:46:07.323Z</time></trkpt><trkpt lat="43.23571" lon="12.1673333"><ele>564.6666666666666</ele><time>2026-03-29T08:46:09.319Z</time></trkpt><trkpt lat="43.2357817" lon="12.1674217"><ele>565.3333333333334</ele><time>2026-03-29T08:46:11.321Z</time></trkpt><trkpt lat="43.2358717" lon="12.1673783"><ele>566.0</ele><time>2026-03-29T08:46:13.322Z</time></trkpt><trkpt lat="43.2359133" lon="12.1673"><ele>566.6666666666667</ele><time>2026-03-29T08:46:14.321Z</time></trkpt><trkpt lat="43.2359517" lon="12.1672133"><ele>567.3333333333334</ele><time>2026-03-29T08:46:15.325Z</time></trkpt><trkpt lat="43.235985" lon="12.16713"><ele>568.0</ele><time>2026-03-29T08:46:16.323Z</time></trkpt><trkpt lat="43.2360167" lon="12.16704"><ele>568.0</ele><time>2026-03-29T08:46:17.32Z</time></trkpt><trkpt lat="43.2360517" lon="12.16695"><ele>568.0</ele><time>2026-03-29T08:46:18.32Z</time></trkpt><trkpt lat="43.23608" lon="12.166865"><ele>568.0</ele><time>2026-03-29T08:46:19.323Z</time></trkpt><trkpt lat="43.2361433" lon="12.1667467"><ele>568.0</ele><time>2026-03-29T08:46:21.326Z</time></trkpt><trkpt lat="43.2362233" lon="12.1666933"><ele>568.0</ele><time>2026-03-29T08:46:23.319Z</time></trkpt><trkpt lat="43.2363083" lon="12.166695"><ele>568.0</ele><time>2026-03-29T08:46:25.323Z</time></trkpt><trkpt lat="43.236385" lon="12.166735"><ele>565.5</ele><time>2026-03-29T08:46:27.322Z</time></trkpt><trkpt lat="43.2364967" lon="12.1667983"><ele>563.0</ele><time>2026-03-29T08:46:29.319Z</time></trkpt><trkpt lat="43.2365817" lon="12.1668367"><ele>560.5</ele><time>2026-03-29T08:46:30.32Z</time></trkpt><trkpt lat="43.2366567" lon="12.1668883"><ele>558.0</ele><time>2026-03-29T08:46:31.321Z</time></trkpt><trkpt lat="43.23672" lon="12.1669417"><ele>555.5</ele><time>2026-03-29T08:46:32.32Z</time></trkpt><trkpt lat="43.236775" lon="12.1670033"><ele>553.0</ele><time>2026-03-29T08:46:33.322Z</time></trkpt><trkpt lat="43.2368283" lon="12.16706"><ele>553.0</ele><time>2026-03-29T08:46:34.321Z</time></trkpt><trkpt lat="43.2368833" lon="12.167105"><ele>553.0</ele><time>2026-03-29T08:46:35.323Z</time></trkpt><trkpt lat="43.2370067" lon="12.1671317"><ele>553.0</ele><time>2026-03-29T08:46:37.323Z</time></trkpt><trkpt lat="43.2370767" lon="12.1671217"><ele>553.0</ele><time>2026-03-29T08:46:38.323Z</time></trkpt><trkpt lat="43.2371467" lon="12.1671033"><ele>553.0</ele><time>2026-03-29T08:46:39.32Z</time></trkpt><trkpt lat="43.2372167" lon="12.1670733"><ele>553.0</ele><time>2026-03-29T08:46:40.32Z</time></trkpt><trkpt lat="43.23728" lon="12.16705"><ele>551.4</ele><time>2026-03-29T08:46:41.321Z</time></trkpt><trkpt lat="43.2373817" lon="12.1670183"><ele>549.8</ele><time>2026-03-29T08:46:43.322Z</time></trkpt><trkpt lat="43.237485" lon="12.1670067"><ele>548.2</ele><time>2026-03-29T08:46:45.324Z</time></trkpt><trkpt lat="43.2376067" lon="12.1670067"><ele>546.6</ele><time>2026-03-29T08:46:47.32Z</time></trkpt><trkpt lat="43.2376733" lon="12.1670233"><ele>545.0</ele><time>2026-03-29T08:46:48.32Z</time></trkpt><trkpt lat="43.2377517" lon="12.16704"><ele>545.0</ele><time>2026-03-29T08:46:49.32Z</time></trkpt><trkpt lat="43.2378317" lon="12.1670583"><ele>545.0</ele><time>2026-03-29T08:46:50.32Z</time></trkpt><trkpt lat="43.2379883" lon="12.167075"><ele>545.0</ele><time>2026-03-29T08:46:52.321Z</time></trkpt><trkpt lat="43.238075" lon="12.167055"><ele>545.0</ele><time>2026-03-29T08:46:53.324Z</time></trkpt><trkpt lat="43.238155" lon="12.1670267"><ele>545.0</ele><time>2026-03-29T08:46:54.322Z</time></trkpt><trkpt lat="43.2382233" lon="12.1670033"><ele>542.1666666666666</ele><time>2026-03-29T08:46:55.321Z</time></trkpt><trkpt lat="43.238345" lon="12.167005"><ele>539.3333333333333</ele><time>2026-03-29T08:46:57.322Z</time></trkpt><trkpt lat="43.23841" lon="12.16703"><ele>536.5</ele><time>2026-03-29T08:46:58.322Z</time></trkpt><trkpt lat="43.23848" lon="12.1670533"><ele>533.6666666666666</ele><time>2026-03-29T08:46:59.323Z</time></trkpt><trkpt lat="43.2385417" lon="12.167075"><ele>530.8333333333334</ele><time>2026-03-29T08:47:00.321Z</time></trkpt><trkpt lat="43.238625" lon="12.1670933"><ele>528.0</ele><time>2026-03-29T08:47:02.323Z</time></trkpt><trkpt lat="43.238705" lon="12.16714"><ele>528.0</ele><time>2026-03-29T08:47:05.322Z</time></trkpt><trkpt lat="43.2387417" lon="12.1672217"><ele>528.0</ele><time>2026-03-29T08:47:07.321Z</time></trkpt><trkpt lat="43.2387883" lon="12.1673183"><ele>528.0</ele><time>2026-03-29T08:47:09.321Z</time></trkpt><trkpt lat="43.2388367" lon="12.1674233"><ele>528.0</ele><time>2026-03-29T08:47:11.322Z</time></trkpt><trkpt lat="43.2388683" lon="12.1675017"><ele>528.0</ele><time>2026-03-29T08:47:13.324Z</time></trkpt><trkpt lat="43.23885" lon="12.16738"><ele>528.0</ele><time>2026-03-29T08:47:20.324Z</time></trkpt><trkpt lat="43.2387967" lon="12.16728"><ele>528.0</ele><time>2026-03-29T08:47:22.325Z</time></trkpt><trkpt lat="43.23873" lon="12.1671483"><ele>528.0</ele><time>2026-03-29T08:47:24.324Z</time></trkpt><trkpt lat="43.2386867" lon="12.1669883"><ele>528.0</ele><time>2026-03-29T08:47:26.327Z</time></trkpt><trkpt lat="43.2386717" lon="12.1668833"><ele>528.0</ele><time>2026-03-29T08:47:27.326Z</time></trkpt><trkpt lat="43.2386567" lon="12.1667717"><ele>528.0</ele><time>2026-03-29T08:47:28.324Z</time></trkpt><trkpt lat="43.2386417" lon="12.166655"><ele>528.0</ele><time>2026-03-29T08:47:29.32Z</time></trkpt><trkpt lat="43.2386217" lon="12.1665283"><ele>528.0</ele><time>2026-03-29T08:47:30.321Z</time></trkpt><trkpt lat="43.2385917" lon="12.1663983"><ele>528.0</ele><time>2026-03-29T08:47:31.322Z</time></trkpt><trkpt lat="43.23856" lon="12.1662517"><ele>528.0</ele><time>2026-03-29T08:47:32.321Z</time></trkpt><trkpt lat="43.238535" lon="12.166095"><ele>528.0</ele><time>2026-03-29T08:47:33.323Z</time></trkpt><trkpt lat="43.238505" lon="12.165925"><ele>529.0</ele><time>2026-03-29T08:47:34.323Z</time></trkpt><trkpt lat="43.2384817" lon="12.1657433"><ele>530.0</ele><time>2026-03-29T08:47:35.322Z</time></trkpt><trkpt lat="43.2384517" lon="12.1655567"><ele>531.0</ele><time>2026-03-29T08:47:36.321Z</time></trkpt><trkpt lat="43.2384267" lon="12.165365"><ele>532.0</ele><time>2026-03-29T08:47:37.322Z</time></trkpt><trkpt lat="43.2384083" lon="12.165185"><ele>532.0</ele><time>2026-03-29T08:47:38.322Z</time></trkpt><trkpt lat="43.2383767" lon="12.16501"><ele>532.0</ele><time>2026-03-29T08:47:39.32Z</time></trkpt><trkpt lat="43.23834" lon="12.1648483"><ele>532.0</ele><time>2026-03-29T08:47:40.32Z</time></trkpt><trkpt lat="43.2382917" lon="12.1646933"><ele>532.0</ele><time>2026-03-29T08:47:41.323Z</time></trkpt><trkpt lat="43.2382433" lon="12.1645367"><ele>532.0</ele><time>2026-03-29T08:47:42.321Z</time></trkpt><trkpt lat="43.2382083" lon="12.1643867"><ele>532.0</ele><time>2026-03-29T08:47:43.323Z</time></trkpt><trkpt lat="43.2382" lon="12.164235"><ele>532.0</ele><time>2026-03-29T08:47:44.323Z</time></trkpt><trkpt lat="43.238215" lon="12.16408"><ele>532.0</ele><time>2026-03-29T08:47:45.322Z</time></trkpt><trkpt lat="43.2382333" lon="12.1639333"><ele>532.0</ele><time>2026-03-29T08:47:46.322Z</time></trkpt><trkpt lat="43.2382267" lon="12.1637817"><ele>531.6</ele><time>2026-03-29T08:47:47.322Z</time></trkpt><trkpt lat="43.2382033" lon="12.1636333"><ele>531.2</ele><time>2026-03-29T08:47:48.322Z</time></trkpt><trkpt lat="43.238165" lon="12.16349"><ele>530.8</ele><time>2026-03-29T08:47:49.325Z</time></trkpt><trkpt lat="43.2381183" lon="12.163365"><ele>530.4</ele><time>2026-03-29T08:47:50.32Z</time></trkpt><trkpt lat="43.2380533" lon="12.1632633"><ele>530.0</ele><time>2026-03-29T08:47:51.322Z</time></trkpt><trkpt lat="43.2379933" lon="12.1631833"><ele>533.0</ele><time>2026-03-29T08:47:52.32Z</time></trkpt><trkpt lat="43.2379283" lon="12.163125"><ele>536.0</ele><time>2026-03-29T08:47:53.326Z</time></trkpt><trkpt lat="43.2378533" lon="12.1630883"><ele>539.0</ele><time>2026-03-29T08:47:54.321Z</time></trkpt><trkpt lat="43.2377733" lon="12.1630417"><ele>542.0</ele><time>2026-03-29T08:47:55.321Z</time></trkpt><trkpt lat="43.2377" lon="12.1629767"><ele>545.0</ele><time>2026-03-29T08:47:56.322Z</time></trkpt><trkpt lat="43.23765" lon="12.1628867"><ele>548.0</ele><time>2026-03-29T08:47:57.324Z</time></trkpt><trkpt lat="43.237605" lon="12.1627833"><ele>548.0</ele><time>2026-03-29T08:47:58.325Z</time></trkpt><trkpt lat="43.2375717" lon="12.1626783"><ele>548.0</ele><time>2026-03-29T08:47:59.323Z</time></trkpt><trkpt lat="43.23752" lon="12.162575"><ele>548.0</ele><time>2026-03-29T08:48:00.321Z</time></trkpt><trkpt lat="43.237455" lon="12.1624733"><ele>548.0</ele><time>2026-03-29T08:48:01.326Z</time></trkpt><trkpt lat="43.2373767" lon="12.1623933"><ele>548.0</ele><time>2026-03-29T08:48:02.32Z</time></trkpt><trkpt lat="43.2373" lon="12.1623383"><ele>552.4</ele><time>2026-03-29T08:48:03.322Z</time></trkpt><trkpt lat="43.2372167" lon="12.1623133"><ele>556.8</ele><time>2026-03-29T08:48:04.321Z</time></trkpt><trkpt lat="43.2371333" lon="12.1622933"><ele>561.2</ele><time>2026-03-29T08:48:05.32Z</time></trkpt><trkpt lat="43.2370617" lon="12.1622733"><ele>565.6</ele><time>2026-03-29T08:48:06.324Z</time></trkpt><trkpt lat="43.236985" lon="12.16213"><ele>570.0</ele><time>2026-03-29T08:48:08.321Z</time></trkpt><trkpt lat="43.23698" lon="12.1620083"><ele>570.0</ele><time>2026-03-29T08:48:09.321Z</time></trkpt><trkpt lat="43.2369467" lon="12.16188"><ele>570.0</ele><time>2026-03-29T08:48:10.32Z</time></trkpt><trkpt lat="43.2368983" lon="12.161755"><ele>570.0</ele><time>2026-03-29T08:48:11.324Z</time></trkpt><trkpt lat="43.23684" lon="12.1616533"><ele>570.0</ele><time>2026-03-29T08:48:12.325Z</time></trkpt><trkpt lat="43.23676" lon="12.16158"><ele>570.0</ele><time>2026-03-29T08:48:13.324Z</time></trkpt><trkpt lat="43.2366733" lon="12.1615267"><ele>569.0</ele><time>2026-03-29T08:48:14.327Z</time></trkpt><trkpt lat="43.2365733" lon="12.1615067"><ele>568.0</ele><time>2026-03-29T08:48:15.325Z</time></trkpt><trkpt lat="43.2364917" lon="12.1614817"><ele>567.0</ele><time>2026-03-29T08:48:16.321Z</time></trkpt><trkpt lat="43.236425" lon="12.1614483"><ele>566.0</ele><time>2026-03-29T08:48:17.324Z</time></trkpt><trkpt lat="43.23635" lon="12.16134"><ele>565.0</ele><time>2026-03-29T08:48:19.321Z</time></trkpt><trkpt lat="43.2363967" lon="12.1611283"><ele>570.25</ele><time>2026-03-29T08:48:21.322Z</time></trkpt><trkpt lat="43.2364333" lon="12.1609833"><ele>575.5</ele><time>2026-03-29T08:48:22.321Z</time></trkpt><trkpt lat="43.2364567" lon="12.1608033"><ele>580.75</ele><time>2026-03-29T08:48:23.326Z</time></trkpt><trkpt lat="43.2364517" lon="12.160625"><ele>586.0</ele><time>2026-03-29T08:48:24.324Z</time></trkpt><trkpt lat="43.236435" lon="12.16045"><ele>586.0</ele><time>2026-03-29T08:48:25.32Z</time></trkpt><trkpt lat="43.2364167" lon="12.1602783"><ele>586.0</ele><time>2026-03-29T08:48:26.323Z</time></trkpt><trkpt lat="43.2363967" lon="12.1601267"><ele>586.0</ele><time>2026-03-29T08:48:27.323Z</time></trkpt><trkpt lat="43.23637" lon="12.1599933"><ele>586.0</ele><time>2026-03-29T08:48:28.323Z</time></trkpt><trkpt lat="43.2363383" lon="12.1598883"><ele>586.0</ele><time>2026-03-29T08:48:29.324Z</time></trkpt><trkpt lat="43.2362983" lon="12.1598067"><ele>583.5</ele><time>2026-03-29T08:48:30.32Z</time></trkpt><trkpt lat="43.2362417" lon="12.1596917"><ele>581.0</ele><time>2026-03-29T08:48:32.324Z</time></trkpt><trkpt lat="43.236215" lon="12.1595867"><ele>578.5</ele><time>2026-03-29T08:48:34.322Z</time></trkpt><trkpt lat="43.2361917" lon="12.1594783"><ele>576.0</ele><time>2026-03-29T08:48:36.326Z</time></trkpt><trkpt lat="43.2361783" lon="12.15937"><ele>573.5</ele><time>2026-03-29T08:48:38.323Z</time></trkpt><trkpt lat="43.2362033" lon="12.15924"><ele>571.0</ele><time>2026-03-29T08:48:40.321Z</time></trkpt><trkpt lat="43.236265" lon="12.1591233"><ele>568.2</ele><time>2026-03-29T08:48:42.322Z</time></trkpt><trkpt lat="43.2363417" lon="12.1590133"><ele>565.4000000000001</ele><time>2026-03-29T08:48:44.32Z</time></trkpt><trkpt lat="43.2363983" lon="12.1588983"><ele>562.6</ele><time>2026-03-29T08:48:46.321Z</time></trkpt><trkpt lat="43.2364617" lon="12.1588117"><ele>559.8000000000001</ele><time>2026-03-29T08:48:48.319Z</time></trkpt><trkpt lat="43.2365417" lon="12.1587933"><ele>557.0</ele><time>2026-03-29T08:48:50.323Z</time></trkpt><trkpt lat="43.23664" lon="12.1588217"><ele>553.8000000000001</ele><time>2026-03-29T08:48:52.325Z</time></trkpt><trkpt lat="43.23674" lon="12.1588233"><ele>550.6</ele><time>2026-03-29T08:48:54.325Z</time></trkpt><trkpt lat="43.236835" lon="12.15881"><ele>547.4000000000001</ele><time>2026-03-29T08:48:56.321Z</time></trkpt><trkpt lat="43.236935" lon="12.1587933"><ele>544.2</ele><time>2026-03-29T08:48:58.321Z</time></trkpt><trkpt lat="43.2370333" lon="12.1587517"><ele>541.0</ele><time>2026-03-29T08:49:00.327Z</time></trkpt><trkpt lat="43.2371317" lon="12.1586883"><ele>541.0</ele><time>2026-03-29T08:49:02.321Z</time></trkpt><trkpt lat="43.2372167" lon="12.1586133"><ele>541.0</ele><time>2026-03-29T08:49:04.321Z</time></trkpt><trkpt lat="43.2372767" lon="12.1585033"><ele>541.0</ele><time>2026-03-29T08:49:06.322Z</time></trkpt><trkpt lat="43.237315" lon="12.158375"><ele>541.0</ele><time>2026-03-29T08:49:08.324Z</time></trkpt><trkpt lat="43.2373767" lon="12.1582933"><ele>541.0</ele><time>2026-03-29T08:49:10.324Z</time></trkpt><trkpt lat="43.237445" lon="12.1582267"><ele>536.0</ele><time>2026-03-29T08:49:12.327Z</time></trkpt><trkpt lat="43.2374883" lon="12.15811"><ele>531.0</ele><time>2026-03-29T08:49:14.32Z</time></trkpt><trkpt lat="43.2375" lon="12.1579633"><ele>526.0</ele><time>2026-03-29T08:49:16.321Z</time></trkpt><trkpt lat="43.237505" lon="12.1578233"><ele>521.0</ele><time>2026-03-29T08:49:18.324Z</time></trkpt><trkpt lat="43.23749" lon="12.157685"><ele>516.0</ele><time>2026-03-29T08:49:20.326Z</time></trkpt><trkpt lat="43.237495" lon="12.157545"><ele>516.0</ele><time>2026-03-29T08:49:22.325Z</time></trkpt><trkpt lat="43.23753" lon="12.157385"><ele>516.0</ele><time>2026-03-29T08:49:24.324Z</time></trkpt><trkpt lat="43.2375517" lon="12.1572517"><ele>516.0</ele><time>2026-03-29T08:49:26.325Z</time></trkpt><trkpt lat="43.237535" lon="12.1571083"><ele>516.0</ele><time>2026-03-29T08:49:28.322Z</time></trkpt><trkpt lat="43.2375083" lon="12.15696"><ele>516.0</ele><time>2026-03-29T08:49:30.327Z</time></trkpt><trkpt lat="43.2374783" lon="12.1568233"><ele>513.6666666666666</ele><time>2026-03-29T08:49:32.325Z</time></trkpt><trkpt lat="43.23744" lon="12.1567333"><ele>511.33333333333337</ele><time>2026-03-29T08:49:34.322Z</time></trkpt><trkpt lat="43.2373833" lon="12.1566733"><ele>509.0</ele><time>2026-03-29T08:49:36.321Z</time></trkpt><trkpt lat="43.2373383" lon="12.1565917"><ele>506.6666666666667</ele><time>2026-03-29T08:49:38.321Z</time></trkpt><trkpt lat="43.2373517" lon="12.1564933"><ele>504.33333333333337</ele><time>2026-03-29T08:49:40.324Z</time></trkpt><trkpt lat="43.237415" lon="12.1563917"><ele>502.0</ele><time>2026-03-29T08:49:42.328Z</time></trkpt><trkpt lat="43.2374883" lon="12.1563083"><ele>498.6</ele><time>2026-03-29T08:49:44.322Z</time></trkpt><trkpt lat="43.237565" lon="12.1562333"><ele>495.20000000000005</ele><time>2026-03-29T08:49:46.323Z</time></trkpt><trkpt lat="43.2376433" lon="12.156155"><ele>491.8</ele><time>2026-03-29T08:49:48.323Z</time></trkpt><trkpt lat="43.23771" lon="12.15606"><ele>488.4</ele><time>2026-03-29T08:49:50.321Z</time></trkpt><trkpt lat="43.2377733" lon="12.15596"><ele>485.0</ele><time>2026-03-29T08:49:52.323Z</time></trkpt><trkpt lat="43.23782" lon="12.15589"><ele>484.99999999999994</ele><time>2026-03-29T08:49:54.324Z</time></trkpt><trkpt lat="43.2377267" lon="12.15582"><ele>485.0</ele><time>2026-03-29T08:49:58.322Z</time></trkpt><trkpt lat="43.2376617" lon="12.1557967"><ele>485.0</ele><time>2026-03-29T08:49:59.323Z</time></trkpt><trkpt lat="43.2375917" lon="12.1557733"><ele>485.0</ele><time>2026-03-29T08:50:00.323Z</time></trkpt><trkpt lat="43.237525" lon="12.1557467"><ele>484.99999999999994</ele><time>2026-03-29T08:50:01.32Z</time></trkpt><trkpt lat="43.2374533" lon="12.1557233"><ele>485.0</ele><time>2026-03-29T08:50:02.321Z</time></trkpt><trkpt lat="43.23738" lon="12.1557"><ele>483.99999999999994</ele><time>2026-03-29T08:50:03.322Z</time></trkpt><trkpt lat="43.2373083" lon="12.1556817"><ele>483.0</ele><time>2026-03-29T08:50:04.321Z</time></trkpt><trkpt lat="43.237235" lon="12.1556717"><ele>482.0</ele><time>2026-03-29T08:50:05.322Z</time></trkpt><trkpt lat="43.2371617" lon="12.1556617"><ele>481.0</ele><time>2026-03-29T08:50:06.326Z</time></trkpt><trkpt lat="43.237085" lon="12.1556417"><ele>479.99999999999994</ele><time>2026-03-29T08:50:07.327Z</time></trkpt><trkpt lat="43.23701" lon="12.1555917"><ele>479.0</ele><time>2026-03-29T08:50:08.325Z</time></trkpt><trkpt lat="43.2369383" lon="12.1555317"><ele>479.0</ele><time>2026-03-29T08:50:09.324Z</time></trkpt><trkpt lat="43.23686" lon="12.155475"><ele>479.0</ele><time>2026-03-29T08:50:10.323Z</time></trkpt><trkpt lat="43.2367233" lon="12.155465"><ele>479.0</ele><time>2026-03-29T08:50:12.321Z</time></trkpt><trkpt lat="43.236645" lon="12.155495"><ele>479.0</ele><time>2026-03-29T08:50:13.325Z</time></trkpt><trkpt lat="43.23656" lon="12.1555283"><ele>479.0</ele><time>2026-03-29T08:50:14.32Z</time></trkpt><trkpt lat="43.2364783" lon="12.1555433"><ele>483.16666666666663</ele><time>2026-03-29T08:50:15.324Z</time></trkpt><trkpt lat="43.2364083" lon="12.15554"><ele>487.3333333333333</ele><time>2026-03-29T08:50:16.322Z</time></trkpt><trkpt lat="43.2363383" lon="12.1554983"><ele>491.5</ele><time>2026-03-29T08:50:17.32Z</time></trkpt><trkpt lat="43.2362717" lon="12.15545"><ele>495.66666666666663</ele><time>2026-03-29T08:50:18.32Z</time></trkpt><trkpt lat="43.236165" lon="12.1554017"><ele>499.8333333333333</ele><time>2026-03-29T08:50:20.319Z</time></trkpt><trkpt lat="43.23605" lon="12.15541"><ele>504.0</ele><time>2026-03-29T08:50:22.319Z</time></trkpt><trkpt lat="43.23596" lon="12.1554367"><ele>504.0</ele><time>2026-03-29T08:50:24.322Z</time></trkpt><trkpt lat="43.235885" lon="12.1554017"><ele>504.0</ele><time>2026-03-29T08:50:26.325Z</time></trkpt><trkpt lat="43.235815" lon="12.1553067"><ele>504.0</ele><time>2026-03-29T08:50:28.323Z</time></trkpt><trkpt lat="43.2357517" lon="12.155235"><ele>504.0</ele><time>2026-03-29T08:50:30.32Z</time></trkpt><trkpt lat="43.2356767" lon="12.1552667"><ele>504.0</ele><time>2026-03-29T08:50:32.324Z</time></trkpt><trkpt lat="43.2355633" lon="12.1553667"><ele>510.3333333333333</ele><time>2026-03-29T08:50:34.322Z</time></trkpt><trkpt lat="43.2354867" lon="12.1554267"><ele>516.6666666666666</ele><time>2026-03-29T08:50:35.321Z</time></trkpt><trkpt lat="43.2354217" lon="12.1555"><ele>523.0</ele><time>2026-03-29T08:50:36.322Z</time></trkpt><trkpt lat="43.235365" lon="12.15557"><ele>529.3333333333333</ele><time>2026-03-29T08:50:37.325Z</time></trkpt><trkpt lat="43.2353083" lon="12.1556333"><ele>535.6666666666666</ele><time>2026-03-29T08:50:38.322Z</time></trkpt><trkpt lat="43.2352433" lon="12.1556917"><ele>542.0</ele><time>2026-03-29T08:50:39.32Z</time></trkpt><trkpt lat="43.2351683" lon="12.15575"><ele>542.0</ele><time>2026-03-29T08:50:40.323Z</time></trkpt><trkpt lat="43.2350967" lon="12.1558133"><ele>542.0</ele><time>2026-03-29T08:50:41.322Z</time></trkpt><trkpt lat="43.2350283" lon="12.1558683"><ele>542.0</ele><time>2026-03-29T08:50:42.322Z</time></trkpt><trkpt lat="43.234965" lon="12.1559"><ele>542.0</ele><time>2026-03-29T08:50:43.326Z</time></trkpt><trkpt lat="43.2348983" lon="12.1559033"><ele>542.0</ele><time>2026-03-29T08:50:44.324Z</time></trkpt><trkpt lat="43.234795" lon="12.1558233"><ele>542.0</ele><time>2026-03-29T08:50:46.324Z</time></trkpt><trkpt lat="43.2347767" lon="12.1557217"><ele>545.0</ele><time>2026-03-29T08:50:47.323Z</time></trkpt><trkpt lat="43.2347767" lon="12.1556117"><ele>548.0</ele><time>2026-03-29T08:50:48.324Z</time></trkpt><trkpt lat="43.2348433" lon="12.1554733"><ele>551.0</ele><time>2026-03-29T08:50:49.322Z</time></trkpt><trkpt lat="43.2349433" lon="12.155325"><ele>554.0</ele><time>2026-03-29T08:50:50.322Z</time></trkpt><trkpt lat="43.2350117" lon="12.1551967"><ele>554.0</ele><time>2026-03-29T08:50:51.325Z</time></trkpt><trkpt lat="43.2350417" lon="12.1550867"><ele>554.0</ele><time>2026-03-29T08:50:52.323Z</time></trkpt><trkpt lat="43.2350533" lon="12.154985"><ele>554.0</ele><time>2026-03-29T08:50:53.322Z</time></trkpt><trkpt lat="43.23507" lon="12.1548883"><ele>554.0</ele><time>2026-03-29T08:50:54.321Z</time></trkpt><trkpt lat="43.23508" lon="12.1547933"><ele>554.0</ele><time>2026-03-29T08:50:55.322Z</time></trkpt><trkpt lat="43.23505" lon="12.1546317"><ele>554.0</ele><time>2026-03-29T08:50:57.324Z</time></trkpt><trkpt lat="43.2349633" lon="12.1545217"><ele>554.1666666666666</ele><time>2026-03-29T08:50:59.32Z</time></trkpt><trkpt lat="43.2348983" lon="12.1543867"><ele>554.3333333333333</ele><time>2026-03-29T08:51:01.323Z</time></trkpt><trkpt lat="43.2348767" lon="12.154305"><ele>554.5</ele><time>2026-03-29T08:51:02.32Z</time></trkpt><trkpt lat="43.2348433" lon="12.1542283"><ele>554.6666666666666</ele><time>2026-03-29T08:51:03.32Z</time></trkpt><trkpt lat="43.2347417" lon="12.1541933"><ele>554.8333333333334</ele><time>2026-03-29T08:51:05.322Z</time></trkpt><trkpt lat="43.2346717" lon="12.1542017"><ele>555.0</ele><time>2026-03-29T08:51:06.324Z</time></trkpt><trkpt lat="43.2345933" lon="12.1542217"><ele>559.6666666666666</ele><time>2026-03-29T08:51:07.322Z</time></trkpt><trkpt lat="43.2345167" lon="12.1542433"><ele>564.3333333333334</ele><time>2026-03-29T08:51:08.322Z</time></trkpt><trkpt lat="43.2344217" lon="12.15426"><ele>569.0</ele><time>2026-03-29T08:51:09.322Z</time></trkpt><trkpt lat="43.2343467" lon="12.1542617"><ele>573.6666666666667</ele><time>2026-03-29T08:51:10.32Z</time></trkpt><trkpt lat="43.2342783" lon="12.154235"><ele>578.3333333333334</ele><time>2026-03-29T08:51:11.319Z</time></trkpt><trkpt lat="43.2341867" lon="12.154125"><ele>583.0</ele><time>2026-03-29T08:51:13.322Z</time></trkpt><trkpt lat="43.2340883" lon="12.1540633"><ele>583.0</ele><time>2026-03-29T08:51:15.321Z</time></trkpt><trkpt lat="43.2339783" lon="12.15413"><ele>583.0</ele><time>2026-03-29T08:51:17.322Z</time></trkpt><trkpt lat="43.23393" lon="12.1542"><ele>583.0</ele><time>2026-03-29T08:51:18.325Z</time></trkpt><trkpt lat="43.2338767" lon="12.1543267"><ele>583.0</ele><time>2026-03-29T08:51:20.324Z</time></trkpt><trkpt lat="43.2338917" lon="12.154485"><ele>583.0</ele><time>2026-03-29T08:51:22.32Z</time></trkpt><trkpt lat="43.23394" lon="12.154605"><ele>583.0</ele><time>2026-03-29T08:51:23.323Z</time></trkpt><trkpt lat="43.2339683" lon="12.1547183"><ele>583.0</ele><time>2026-03-29T08:51:24.324Z</time></trkpt><trkpt lat="43.2339867" lon="12.1548233"><ele>583.0</ele><time>2026-03-29T08:51:25.322Z</time></trkpt><trkpt lat="43.2340033" lon="12.1549367"><ele>583.0</ele><time>2026-03-29T08:51:26.323Z</time></trkpt><trkpt lat="43.2340233" lon="12.1550983"><ele>583.0</ele><time>2026-03-29T08:51:27.324Z</time></trkpt><trkpt lat="43.2340233" lon="12.155215"><ele>583.8333333333334</ele><time>2026-03-29T08:51:28.323Z</time></trkpt><trkpt lat="43.23402" lon="12.1553183"><ele>584.6666666666667</ele><time>2026-03-29T08:51:29.325Z</time></trkpt><trkpt lat="43.234015" lon="12.1554383"><ele>585.5</ele><time>2026-03-29T08:51:30.325Z</time></trkpt><trkpt lat="43.2339383" lon="12.1555017"><ele>586.3333333333334</ele><time>2026-03-29T08:51:31.329Z</time></trkpt><trkpt lat="43.2338417" lon="12.1555383"><ele>587.1666666666666</ele><time>2026-03-29T08:51:32.32Z</time></trkpt><trkpt lat="43.2337483" lon="12.1555483"><ele>588.0</ele><time>2026-03-29T08:51:33.325Z</time></trkpt><trkpt lat="43.2336533" lon="12.1554783"><ele>593.4</ele><time>2026-03-29T08:51:34.324Z</time></trkpt><trkpt lat="43.2335867" lon="12.1554133"><ele>598.8</ele><time>2026-03-29T08:51:35.322Z</time></trkpt><trkpt lat="43.2335033" lon="12.1553083"><ele>604.2</ele><time>2026-03-29T08:51:37.324Z</time></trkpt><trkpt lat="43.2334617" lon="12.155235"><ele>609.6</ele><time>2026-03-29T08:51:38.323Z</time></trkpt><trkpt lat="43.2333817" lon="12.1551083"><ele>615.0</ele><time>2026-03-29T08:51:40.32Z</time></trkpt><trkpt lat="43.2332833" lon="12.155085"><ele>615.0</ele><time>2026-03-29T08:51:42.324Z</time></trkpt><trkpt lat="43.2331717" lon="12.1550833"><ele>615.0</ele><time>2026-03-29T08:51:44.32Z</time></trkpt><trkpt lat="43.2331067" lon="12.1550633"><ele>615.0</ele><time>2026-03-29T08:51:45.324Z</time></trkpt><trkpt lat="43.2330367" lon="12.1550433"><ele>615.0</ele><time>2026-03-29T08:51:46.323Z</time></trkpt><trkpt lat="43.2329583" lon="12.155025"><ele>615.0</ele><time>2026-03-29T08:51:47.322Z</time></trkpt><trkpt lat="43.2328733" lon="12.15501"><ele>615.0</ele><time>2026-03-29T08:51:48.325Z</time></trkpt><trkpt lat="43.2327767" lon="12.1549983"><ele>618.5</ele><time>2026-03-29T08:51:49.32Z</time></trkpt><trkpt lat="43.2326817" lon="12.154985"><ele>622.0</ele><time>2026-03-29T08:51:50.325Z</time></trkpt><trkpt lat="43.2325917" lon="12.15497"><ele>625.5</ele><time>2026-03-29T08:51:51.323Z</time></trkpt><trkpt lat="43.2325" lon="12.1549583"><ele>629.0</ele><time>2026-03-29T08:51:52.321Z</time></trkpt><trkpt lat="43.2324117" lon="12.1549617"><ele>632.5</ele><time>2026-03-29T08:51:53.323Z</time></trkpt><trkpt lat="43.23233" lon="12.1549683"><ele>636.0</ele><time>2026-03-29T08:51:54.321Z</time></trkpt><trkpt lat="43.2322517" lon="12.1549883"><ele>638.8333333333334</ele><time>2026-03-29T08:51:55.326Z</time></trkpt><trkpt lat="43.2321783" lon="12.15502"><ele>641.6666666666666</ele><time>2026-03-29T08:51:56.323Z</time></trkpt><trkpt lat="43.23212" lon="12.155075"><ele>644.5</ele><time>2026-03-29T08:51:57.322Z</time></trkpt><trkpt lat="43.2320833" lon="12.1551483"><ele>647.3333333333333</ele><time>2026-03-29T08:51:58.325Z</time></trkpt><trkpt lat="43.2320383" lon="12.15522"><ele>650.1666666666666</ele><time>2026-03-29T08:51:59.322Z</time></trkpt><trkpt lat="43.2319917" lon="12.155315"><ele>653.0</ele><time>2026-03-29T08:52:00.321Z</time></trkpt><trkpt lat="43.2319517" lon="12.15543"><ele>653.0</ele><time>2026-03-29T08:52:01.322Z</time></trkpt><trkpt lat="43.2319183" lon="12.155555"><ele>653.0</ele><time>2026-03-29T08:52:02.323Z</time></trkpt><trkpt lat="43.2319183" lon="12.155695"><ele>653.0</ele><time>2026-03-29T08:52:03.321Z</time></trkpt><trkpt lat="43.2319167" lon="12.1558283"><ele>653.0</ele><time>2026-03-29T08:52:04.325Z</time></trkpt><trkpt lat="43.2319017" lon="12.1559233"><ele>653.0</ele><time>2026-03-29T08:52:05.327Z</time></trkpt><trkpt lat="43.231875" lon="12.1560217"><ele>653.0</ele><time>2026-03-29T08:52:06.325Z</time></trkpt><trkpt lat="43.2318117" lon="12.156"><ele>652.5999999999999</ele><time>2026-03-29T08:52:07.321Z</time></trkpt><trkpt lat="43.2317417" lon="12.1559733"><ele>652.1999999999999</ele><time>2026-03-29T08:52:08.319Z</time></trkpt><trkpt lat="43.2316533" lon="12.155935"><ele>651.8</ele><time>2026-03-29T08:52:09.325Z</time></trkpt><trkpt lat="43.231545" lon="12.155875"><ele>651.4</ele><time>2026-03-29T08:52:10.321Z</time></trkpt><trkpt lat="43.2314517" lon="12.1558183"><ele>651.0</ele><time>2026-03-29T08:52:11.32Z</time></trkpt><trkpt lat="43.231365" lon="12.1557567"><ele>651.0</ele><time>2026-03-29T08:52:12.323Z</time></trkpt><trkpt lat="43.2312933" lon="12.1557133"><ele>651.0</ele><time>2026-03-29T08:52:13.322Z</time></trkpt><trkpt lat="43.2312317" lon="12.1556867"><ele>651.0</ele><time>2026-03-29T08:52:14.32Z</time></trkpt><trkpt lat="43.2311183" lon="12.1556817"><ele>651.0</ele><time>2026-03-29T08:52:16.32Z</time></trkpt><trkpt lat="43.231055" lon="12.1557033"><ele>651.0</ele><time>2026-03-29T08:52:17.321Z</time></trkpt><trkpt lat="43.2309967" lon="12.1557383"><ele>651.0</ele><time>2026-03-29T08:52:18.323Z</time></trkpt><trkpt lat="43.2309483" lon="12.1558183"><ele>651.0</ele><time>2026-03-29T08:52:19.32Z</time></trkpt><trkpt lat="43.230915" lon="12.1559583"><ele>651.0</ele><time>2026-03-29T08:52:20.321Z</time></trkpt><trkpt lat="43.2309017" lon="12.1561133"><ele>651.0</ele><time>2026-03-29T08:52:21.321Z</time></trkpt><trkpt lat="43.23091" lon="12.1562767"><ele>651.0</ele><time>2026-03-29T08:52:22.321Z</time></trkpt><trkpt lat="43.2309167" lon="12.156415"><ele>651.0</ele><time>2026-03-29T08:52:23.321Z</time></trkpt><trkpt lat="43.2309117" lon="12.1565583"><ele>650.6666666666666</ele><time>2026-03-29T08:52:24.322Z</time></trkpt><trkpt lat="43.2308933" lon="12.1566883"><ele>650.3333333333334</ele><time>2026-03-29T08:52:25.322Z</time></trkpt><trkpt lat="43.2308617" lon="12.1568"><ele>650.0</ele><time>2026-03-29T08:52:26.326Z</time></trkpt><trkpt lat="43.230825" lon="12.156895"><ele>649.6666666666667</ele><time>2026-03-29T08:52:27.324Z</time></trkpt><trkpt lat="43.23078" lon="12.1569783"><ele>649.3333333333334</ele><time>2026-03-29T08:52:28.323Z</time></trkpt><trkpt lat="43.23072" lon="12.1570517"><ele>649.0</ele><time>2026-03-29T08:52:29.323Z</time></trkpt><trkpt lat="43.2306717" lon="12.15713"><ele>648.2</ele><time>2026-03-29T08:52:30.324Z</time></trkpt><trkpt lat="43.230605" lon="12.1572067"><ele>647.4000000000001</ele><time>2026-03-29T08:52:31.324Z</time></trkpt><trkpt lat="43.2305283" lon="12.1572767"><ele>646.6</ele><time>2026-03-29T08:52:32.321Z</time></trkpt><trkpt lat="43.230445" lon="12.1573433"><ele>645.8</ele><time>2026-03-29T08:52:33.325Z</time></trkpt><trkpt lat="43.2303617" lon="12.157415"><ele>645.0</ele><time>2026-03-29T08:52:34.32Z</time></trkpt><trkpt lat="43.230285" lon="12.1574967"><ele>645.0</ele><time>2026-03-29T08:52:35.32Z</time></trkpt><trkpt lat="43.2302217" lon="12.1575717"><ele>645.0</ele><time>2026-03-29T08:52:36.321Z</time></trkpt><trkpt lat="43.2301667" lon="12.1576567"><ele>645.0</ele><time>2026-03-29T08:52:37.32Z</time></trkpt><trkpt lat="43.230105" lon="12.157725"><ele>645.0</ele><time>2026-03-29T08:52:38.322Z</time></trkpt><trkpt lat="43.2300017" lon="12.1577583"><ele>645.0</ele><time>2026-03-29T08:52:40.319Z</time></trkpt><trkpt lat="43.2299167" lon="12.1577333"><ele>645.0</ele><time>2026-03-29T08:52:42.32Z</time></trkpt><trkpt lat="43.2299333" lon="12.157635"><ele>645.0</ele><time>2026-03-29T08:52:47.321Z</time></trkpt><trkpt lat="43.22997" lon="12.1574583"><ele>645.0</ele><time>2026-03-29T08:52:49.322Z</time></trkpt><trkpt lat="43.2299767" lon="12.1573417"><ele>645.0</ele><time>2026-03-29T08:52:50.322Z</time></trkpt><trkpt lat="43.2299767" lon="12.1572433"><ele>645.0</ele><time>2026-03-29T08:52:51.32Z</time></trkpt><trkpt lat="43.2299733" lon="12.1571517"><ele>645.0</ele><time>2026-03-29T08:52:52.322Z</time></trkpt><trkpt lat="43.2299733" lon="12.1570633"><ele>645.0</ele><time>2026-03-29T08:52:53.321Z</time></trkpt><trkpt lat="43.2299783" lon="12.1569733"><ele>646.5714285714286</ele><time>2026-03-29T08:52:54.324Z</time></trkpt><trkpt lat="43.22999" lon="12.15688"><ele>648.1428571428571</ele><time>2026-03-29T08:52:55.322Z</time></trkpt><trkpt lat="43.2299983" lon="12.1567817"><ele>649.7142857142857</ele><time>2026-03-29T08:52:56.32Z</time></trkpt><trkpt lat="43.230005" lon="12.156685"><ele>651.2857142857142</ele><time>2026-03-29T08:52:57.325Z</time></trkpt><trkpt lat="43.2300183" lon="12.156585"><ele>652.8571428571429</ele><time>2026-03-29T08:52:58.321Z</time></trkpt><trkpt lat="43.23004" lon="12.156485"><ele>654.4285714285713</ele><time>2026-03-29T08:52:59.321Z</time></trkpt><trkpt lat="43.2300683" lon="12.15639"><ele>656.0</ele><time>2026-03-29T08:53:00.322Z</time></trkpt><trkpt lat="43.2301" lon="12.1563"><ele>656.0</ele><time>2026-03-29T08:53:01.32Z</time></trkpt><trkpt lat="43.2301267" lon="12.1562017"><ele>656.0</ele><time>2026-03-29T08:53:02.319Z</time></trkpt><trkpt lat="43.23015" lon="12.1560933"><ele>656.0</ele><time>2026-03-29T08:53:03.324Z</time></trkpt><trkpt lat="43.2301717" lon="12.1559833"><ele>656.0</ele><time>2026-03-29T08:53:04.327Z</time></trkpt><trkpt lat="43.2301933" lon="12.1558683"><ele>656.0</ele><time>2026-03-29T08:53:05.32Z</time></trkpt><trkpt lat="43.2302167" lon="12.1557567"><ele>656.0</ele><time>2026-03-29T08:53:06.323Z</time></trkpt><trkpt lat="43.230265" lon="12.1555267"><ele>655.3333333333333</ele><time>2026-03-29T08:53:08.325Z</time></trkpt><trkpt lat="43.2302883" lon="12.1554183"><ele>654.6666666666666</ele><time>2026-03-29T08:53:09.32Z</time></trkpt><trkpt lat="43.2303117" lon="12.155315"><ele>654.0</ele><time>2026-03-29T08:53:10.322Z</time></trkpt><trkpt lat="43.2303333" lon="12.155215"><ele>653.3333333333334</ele><time>2026-03-29T08:53:11.322Z</time></trkpt><trkpt lat="43.23035" lon="12.15512"><ele>652.6666666666667</ele><time>2026-03-29T08:53:12.321Z</time></trkpt><trkpt lat="43.2303617" lon="12.1550333"><ele>652.0</ele><time>2026-03-29T08:53:13.319Z</time></trkpt><trkpt lat="43.2304217" lon="12.1549067"><ele>652.0</ele><time>2026-03-29T08:53:15.324Z</time></trkpt><trkpt lat="43.23048" lon="12.15487"><ele>652.0</ele><time>2026-03-29T08:53:16.323Z</time></trkpt><trkpt lat="43.230585" lon="12.1548383"><ele>652.0</ele><time>2026-03-29T08:53:18.322Z</time></trkpt><trkpt lat="43.230515" lon="12.154815"><ele>652.0</ele><time>2026-03-29T08:53:27.323Z</time></trkpt><trkpt lat="43.2305867" lon="12.1550333"><ele>652.0</ele><time>2026-03-29T08:54:04.321Z</time></trkpt><trkpt lat="43.23056" lon="12.155235"><ele>652.0</ele><time>2026-03-29T08:54:13.32Z</time></trkpt><trkpt lat="43.23056" lon="12.15539"><ele>652.0</ele><time>2026-03-29T08:54:15.32Z</time></trkpt><trkpt lat="43.2306033" lon="12.1558567"><ele>652.0</ele><time>2026-03-29T08:54:19.319Z</time></trkpt><trkpt lat="43.2306233" lon="12.1557467"><ele>652.0</ele><time>2026-03-29T08:54:24.705Z</time></trkpt><trkpt lat="43.2306167" lon="12.15562"><ele>652.0</ele><time>2026-03-29T08:54:26.318Z</time></trkpt><trkpt lat="43.23058" lon="12.15542"><ele>652.0</ele><time>2026-03-29T08:54:37.324Z</time></trkpt><trkpt lat="43.2305683" lon="12.15533"><ele>652.0</ele><time>2026-03-29T08:54:55.319Z</time></trkpt><trkpt lat="43.23055" lon="12.1551933"><ele>652.0</ele><time>2026-03-29T08:54:56.318Z</time></trkpt><trkpt lat="43.230555" lon="12.1550083"><ele>652.0</ele><time>2026-03-29T08:55:09.319Z</time></trkpt><trkpt lat="43.23054" lon="12.1548717"><ele>652.0</ele><time>2026-03-29T08:55:59.321Z</time></trkpt><trkpt lat="43.2306367" lon="12.1548283"><ele>652.0</ele><time>2026-03-29T08:56:01.323Z</time></trkpt><trkpt lat="43.2307117" lon="12.15482"><ele>652.0</ele><time>2026-03-29T08:56:02.322Z</time></trkpt><trkpt lat="43.2307933" lon="12.1548217"><ele>652.6</ele><time>2026-03-29T08:56:03.322Z</time></trkpt><trkpt lat="43.23088" lon="12.1548333"><ele>653.2</ele><time>2026-03-29T08:56:04.32Z</time></trkpt><trkpt lat="43.2309717" lon="12.1548517"><ele>653.8</ele><time>2026-03-29T08:56:05.321Z</time></trkpt><trkpt lat="43.2310633" lon="12.15487"><ele>654.4</ele><time>2026-03-29T08:56:06.32Z</time></trkpt><trkpt lat="43.2311583" lon="12.154885"><ele>655.0</ele><time>2026-03-29T08:56:07.319Z</time></trkpt><trkpt lat="43.2312433" lon="12.1549"><ele>655.0</ele><time>2026-03-29T08:56:08.32Z</time></trkpt><trkpt lat="43.2313183" lon="12.1549"><ele>655.0</ele><time>2026-03-29T08:56:09.322Z</time></trkpt><trkpt lat="43.2313867" lon="12.1548883"><ele>655.0</ele><time>2026-03-29T08:56:10.327Z</time></trkpt><trkpt lat="43.2314517" lon="12.1548567"><ele>655.0</ele><time>2026-03-29T08:56:11.32Z</time></trkpt><trkpt lat="43.2315383" lon="12.1547317"><ele>655.0</ele><time>2026-03-29T08:56:13.322Z</time></trkpt><trkpt lat="43.2315717" lon="12.1546417"><ele>655.0</ele><time>2026-03-29T08:56:14.322Z</time></trkpt><trkpt lat="43.231605" lon="12.154555"><ele>655.1666666666667</ele><time>2026-03-29T08:56:15.322Z</time></trkpt><trkpt lat="43.2316717" lon="12.1544533"><ele>655.3333333333334</ele><time>2026-03-29T08:56:17.322Z</time></trkpt><trkpt lat="43.231765" lon="12.1544233"><ele>655.5</ele><time>2026-03-29T08:56:19.32Z</time></trkpt><trkpt lat="43.2318017" lon="12.1543383"><ele>655.6666666666666</ele><time>2026-03-29T08:56:21.319Z</time></trkpt><trkpt lat="43.2317617" lon="12.1541933"><ele>655.8333333333333</ele><time>2026-03-29T08:56:23.322Z</time></trkpt><trkpt lat="43.2317417" lon="12.1541083"><ele>656.0</ele><time>2026-03-29T08:56:24.322Z</time></trkpt><trkpt lat="43.23175" lon="12.1539467"><ele>655.1666666666666</ele><time>2026-03-29T08:56:26.321Z</time></trkpt><trkpt lat="43.2317617" lon="12.153855"><ele>654.3333333333333</ele><time>2026-03-29T08:56:27.321Z</time></trkpt><trkpt lat="43.2317633" lon="12.153765"><ele>653.5</ele><time>2026-03-29T08:56:28.321Z</time></trkpt><trkpt lat="43.2317317" lon="12.15359"><ele>652.6666666666666</ele><time>2026-03-29T08:56:30.321Z</time></trkpt><trkpt lat="43.2316983" lon="12.153495"><ele>651.8333333333334</ele><time>2026-03-29T08:56:31.321Z</time></trkpt><trkpt lat="43.231665" lon="12.1534133"><ele>651.0</ele><time>2026-03-29T08:56:32.321Z</time></trkpt><trkpt lat="43.2316383" lon="12.153335"><ele>651.5999999999999</ele><time>2026-03-29T08:56:33.322Z</time></trkpt><trkpt lat="43.2316067" lon="12.1531883"><ele>652.2</ele><time>2026-03-29T08:56:35.322Z</time></trkpt><trkpt lat="43.2316117" lon="12.153055"><ele>652.8</ele><time>2026-03-29T08:56:37.323Z</time></trkpt><trkpt lat="43.2316667" lon="12.1529533"><ele>653.4000000000001</ele><time>2026-03-29T08:56:39.322Z</time></trkpt><trkpt lat="43.231735" lon="12.1528383"><ele>654.0</ele><time>2026-03-29T08:56:41.319Z</time></trkpt><trkpt lat="43.2317467" lon="12.1527333"><ele>654.0</ele><time>2026-03-29T08:56:43.322Z</time></trkpt><trkpt lat="43.231785" lon="12.1526483"><ele>654.0</ele><time>2026-03-29T08:56:45.322Z</time></trkpt><trkpt lat="43.2319" lon="12.15265"><ele>654.0</ele><time>2026-03-29T08:56:47.32Z</time></trkpt><trkpt lat="43.2320167" lon="12.1526183"><ele>654.0</ele><time>2026-03-29T08:56:49.323Z</time></trkpt><trkpt lat="43.232075" lon="12.1525667"><ele>654.0</ele><time>2026-03-29T08:56:50.323Z</time></trkpt><trkpt lat="43.23214" lon="12.1525033"><ele>654.0</ele><time>2026-03-29T08:56:51.322Z</time></trkpt><trkpt lat="43.232205" lon="12.1524333"><ele>654.0</ele><time>2026-03-29T08:56:52.319Z</time></trkpt><trkpt lat="43.2322683" lon="12.1523733"><ele>654.0</ele><time>2026-03-29T08:56:53.32Z</time></trkpt><trkpt lat="43.2323267" lon="12.1523117"><ele>654.0</ele><time>2026-03-29T08:56:54.321Z</time></trkpt><trkpt lat="43.2323783" lon="12.1522533"><ele>654.0</ele><time>2026-03-29T08:56:55.323Z</time></trkpt><trkpt lat="43.2324517" lon="12.1521283"><ele>654.0</ele><time>2026-03-29T08:56:57.321Z</time></trkpt><trkpt lat="43.2324883" lon="12.1519683"><ele>652.6666666666666</ele><time>2026-03-29T08:56:59.323Z</time></trkpt><trkpt lat="43.2324917" lon="12.15188"><ele>651.3333333333334</ele><time>2026-03-29T08:57:00.326Z</time></trkpt><trkpt lat="43.2324833" lon="12.1517783"><ele>650.0</ele><time>2026-03-29T08:57:01.324Z</time></trkpt><trkpt lat="43.23247" lon="12.15167"><ele>648.6666666666667</ele><time>2026-03-29T08:57:02.322Z</time></trkpt><trkpt lat="43.2324517" lon="12.1515667"><ele>647.3333333333334</ele><time>2026-03-29T08:57:03.322Z</time></trkpt><trkpt lat="43.2324317" lon="12.1514817"><ele>646.0</ele><time>2026-03-29T08:57:04.32Z</time></trkpt><trkpt lat="43.2323833" lon="12.1513533"><ele>646.0</ele><time>2026-03-29T08:57:06.322Z</time></trkpt><trkpt lat="43.23237" lon="12.1512533"><ele>646.0</ele><time>2026-03-29T08:57:08.323Z</time></trkpt><trkpt lat="43.2324267" lon="12.1511683"><ele>646.0</ele><time>2026-03-29T08:57:10.324Z</time></trkpt><trkpt lat="43.23251" lon="12.1511367"><ele>646.0</ele><time>2026-03-29T08:57:12.322Z</time></trkpt><trkpt lat="43.2325733" lon="12.1510733"><ele>646.0</ele><time>2026-03-29T08:57:14.322Z</time></trkpt><trkpt lat="43.2326417" lon="12.151"><ele>646.0</ele><time>2026-03-29T08:57:16.32Z</time></trkpt><trkpt lat="43.23272" lon="12.1509167"><ele>646.0</ele><time>2026-03-29T08:57:18.322Z</time></trkpt><trkpt lat="43.2328183" lon="12.1508567"><ele>646.0</ele><time>2026-03-29T08:57:20.321Z</time></trkpt><trkpt lat="43.2329233" lon="12.1508483"><ele>646.0</ele><time>2026-03-29T08:57:22.319Z</time></trkpt><trkpt lat="43.2330117" lon="12.1507817"><ele>646.0</ele><time>2026-03-29T08:57:24.32Z</time></trkpt><trkpt lat="43.233085" lon="12.1506467"><ele>646.0</ele><time>2026-03-29T08:57:26.323Z</time></trkpt><trkpt lat="43.2331233" lon="12.150565"><ele>642.8333333333334</ele><time>2026-03-29T08:57:27.321Z</time></trkpt><trkpt lat="43.2331717" lon="12.1504883"><ele>639.6666666666667</ele><time>2026-03-29T08:57:28.32Z</time></trkpt><trkpt lat="43.2332233" lon="12.1504283"><ele>636.5</ele><time>2026-03-29T08:57:29.321Z</time></trkpt><trkpt lat="43.2332933" lon="12.1503667"><ele>633.3333333333334</ele><time>2026-03-29T08:57:30.325Z</time></trkpt><trkpt lat="43.23337" lon="12.1503017"><ele>630.1666666666666</ele><time>2026-03-29T08:57:31.324Z</time></trkpt><trkpt lat="43.233435" lon="12.1502433"><ele>627.0</ele><time>2026-03-29T08:57:32.322Z</time></trkpt><trkpt lat="43.23349" lon="12.1501733"><ele>627.0</ele><time>2026-03-29T08:57:33.32Z</time></trkpt><trkpt lat="43.23354" lon="12.1501017"><ele>627.0</ele><time>2026-03-29T08:57:34.32Z</time></trkpt><trkpt lat="43.2335883" lon="12.1500167"><ele>627.0</ele><time>2026-03-29T08:57:35.322Z</time></trkpt><trkpt lat="43.2336333" lon="12.1499383"><ele>627.0</ele><time>2026-03-29T08:57:36.321Z</time></trkpt><trkpt lat="43.2336767" lon="12.149865"><ele>627.0</ele><time>2026-03-29T08:57:37.322Z</time></trkpt><trkpt lat="43.2337717" lon="12.149765"><ele>627.0</ele><time>2026-03-29T08:57:39.323Z</time></trkpt><trkpt lat="43.2338383" lon="12.1497317"><ele>626.4285714285714</ele><time>2026-03-29T08:57:40.319Z</time></trkpt><trkpt lat="43.2339067" lon="12.1497133"><ele>625.8571428571429</ele><time>2026-03-29T08:57:41.323Z</time></trkpt><trkpt lat="43.2339767" lon="12.1496983"><ele>625.2857142857142</ele><time>2026-03-29T08:57:42.322Z</time></trkpt><trkpt lat="43.234055" lon="12.1496817"><ele>624.7142857142858</ele><time>2026-03-29T08:57:43.321Z</time></trkpt><trkpt lat="43.23413" lon="12.1496583"><ele>624.1428571428571</ele><time>2026-03-29T08:57:44.319Z</time></trkpt><trkpt lat="43.2342" lon="12.1496333"><ele>623.5714285714286</ele><time>2026-03-29T08:57:45.321Z</time></trkpt><trkpt lat="43.2342767" lon="12.14962"><ele>623.0</ele><time>2026-03-29T08:57:46.323Z</time></trkpt><trkpt lat="43.234355" lon="12.149625"><ele>620.8333333333333</ele><time>2026-03-29T08:57:47.322Z</time></trkpt><trkpt lat="43.234425" lon="12.1496433"><ele>618.6666666666666</ele><time>2026-03-29T08:57:48.321Z</time></trkpt><trkpt lat="43.2344917" lon="12.1496583"><ele>616.5</ele><time>2026-03-29T08:57:49.321Z</time></trkpt><trkpt lat="43.2346183" lon="12.14968"><ele>614.3333333333334</ele><time>2026-03-29T08:57:51.322Z</time></trkpt><trkpt lat="43.23469" lon="12.1496933"><ele>612.1666666666667</ele><time>2026-03-29T08:57:52.323Z</time></trkpt><trkpt lat="43.2347567" lon="12.1497033"><ele>610.0</ele><time>2026-03-29T08:57:53.321Z</time></trkpt><trkpt lat="43.234865" lon="12.1497283"><ele>609.2</ele><time>2026-03-29T08:57:55.324Z</time></trkpt><trkpt lat="43.23495" lon="12.1497917"><ele>608.4</ele><time>2026-03-29T08:57:57.321Z</time></trkpt><trkpt lat="43.235035" lon="12.14988"><ele>607.6</ele><time>2026-03-29T08:57:59.323Z</time></trkpt><trkpt lat="43.23514" lon="12.1499517"><ele>606.8</ele><time>2026-03-29T08:58:01.32Z</time></trkpt><trkpt lat="43.2352517" lon="12.14999"><ele>606.0</ele><time>2026-03-29T08:58:03.324Z</time></trkpt><trkpt lat="43.2353333" lon="12.1500217"><ele>606.0</ele><time>2026-03-29T08:58:05.32Z</time></trkpt><trkpt lat="43.2353683" lon="12.1501033"><ele>606.0</ele><time>2026-03-29T08:58:07.322Z</time></trkpt><trkpt lat="43.235405" lon="12.1501883"><ele>606.0</ele><time>2026-03-29T08:58:09.321Z</time></trkpt><trkpt lat="43.23545" lon="12.15028"><ele>606.0</ele><time>2026-03-29T08:58:11.321Z</time></trkpt><trkpt lat="43.2355367" lon="12.1503383"><ele>606.0</ele><time>2026-03-29T08:58:13.322Z</time></trkpt><trkpt lat="43.2356417" lon="12.1503517"><ele>606.0</ele><time>2026-03-29T08:58:15.321Z</time></trkpt><trkpt lat="43.2357267" lon="12.1503817"><ele>602.0</ele><time>2026-03-29T08:58:17.322Z</time></trkpt><trkpt lat="43.2357983" lon="12.150445"><ele>598.0</ele><time>2026-03-29T08:58:19.322Z</time></trkpt><trkpt lat="43.2358733" lon="12.1504933"><ele>594.0</ele><time>2026-03-29T08:58:21.323Z</time></trkpt><trkpt lat="43.2359517" lon="12.1505183"><ele>590.0</ele><time>2026-03-29T08:58:23.322Z</time></trkpt><trkpt lat="43.2360317" lon="12.1504717"><ele>586.0</ele><time>2026-03-29T08:58:25.322Z</time></trkpt><trkpt lat="43.2361083" lon="12.15043"><ele>582.0</ele><time>2026-03-29T08:58:27.321Z</time></trkpt><trkpt lat="43.2361983" lon="12.150445"><ele>582.0</ele><time>2026-03-29T08:58:29.322Z</time></trkpt><trkpt lat="43.2363117" lon="12.150445"><ele>582.0</ele><time>2026-03-29T08:58:31.321Z</time></trkpt><trkpt lat="43.2364233" lon="12.1504517"><ele>582.0</ele><time>2026-03-29T08:58:33.323Z</time></trkpt><trkpt lat="43.2365183" lon="12.1504767"><ele>582.0</ele><time>2026-03-29T08:58:35.32Z</time></trkpt><trkpt lat="43.236605" lon="12.15053"><ele>582.0</ele><time>2026-03-29T08:58:37.32Z</time></trkpt><trkpt lat="43.2367017" lon="12.1505533"><ele>578.0</ele><time>2026-03-29T08:58:39.326Z</time></trkpt><trkpt lat="43.2368083" lon="12.1505717"><ele>574.0</ele><time>2026-03-29T08:58:41.32Z</time></trkpt><trkpt lat="43.2369" lon="12.1505517"><ele>570.0</ele><time>2026-03-29T08:58:43.319Z</time></trkpt><trkpt lat="43.236975" lon="12.1505217"><ele>566.0</ele><time>2026-03-29T08:58:45.32Z</time></trkpt><trkpt lat="43.2370483" lon="12.1504733"><ele>562.0</ele><time>2026-03-29T08:58:47.323Z</time></trkpt><trkpt lat="43.2371167" lon="12.1504483"><ele>558.0</ele><time>2026-03-29T08:58:49.326Z</time></trkpt><trkpt lat="43.237195" lon="12.15044"><ele>558.0</ele><time>2026-03-29T08:58:51.321Z</time></trkpt><trkpt lat="43.2372717" lon="12.150415"><ele>558.0</ele><time>2026-03-29T08:58:53.327Z</time></trkpt><trkpt lat="43.2373467" lon="12.15042"><ele>558.0</ele><time>2026-03-29T08:58:55.324Z</time></trkpt><trkpt lat="43.2374433" lon="12.15041"><ele>558.0</ele><time>2026-03-29T08:58:57.322Z</time></trkpt><trkpt lat="43.2375433" lon="12.1503867"><ele>558.0</ele><time>2026-03-29T08:58:59.324Z</time></trkpt><trkpt lat="43.23764" lon="12.1504117"><ele>553.0</ele><time>2026-03-29T08:59:01.323Z</time></trkpt><trkpt lat="43.23773" lon="12.150455"><ele>548.0</ele><time>2026-03-29T08:59:03.321Z</time></trkpt><trkpt lat="43.2378317" lon="12.1504833"><ele>543.0</ele><time>2026-03-29T08:59:05.32Z</time></trkpt><trkpt lat="43.2379517" lon="12.1504783"><ele>538.0</ele><time>2026-03-29T08:59:07.323Z</time></trkpt><trkpt lat="43.2380717" lon="12.1504883"><ele>533.0</ele><time>2026-03-29T08:59:09.324Z</time></trkpt><trkpt lat="43.238175" lon="12.150475"><ele>529.6</ele><time>2026-03-29T08:59:11.323Z</time></trkpt><trkpt lat="43.23826" lon="12.1504533"><ele>526.1999999999999</ele><time>2026-03-29T08:59:13.322Z</time></trkpt><trkpt lat="43.2383617" lon="12.1504217"><ele>522.8</ele><time>2026-03-29T08:59:15.324Z</time></trkpt><trkpt lat="43.2384533" lon="12.1503917"><ele>519.4</ele><time>2026-03-29T08:59:17.322Z</time></trkpt><trkpt lat="43.238535" lon="12.1504017"><ele>516.0</ele><time>2026-03-29T08:59:19.322Z</time></trkpt><trkpt lat="43.2386317" lon="12.1503883"><ele>516.0</ele><time>2026-03-29T08:59:21.325Z</time></trkpt><trkpt lat="43.2387217" lon="12.1503633"><ele>516.0</ele><time>2026-03-29T08:59:23.32Z</time></trkpt><trkpt lat="43.2387917" lon="12.1503333"><ele>516.0</ele><time>2026-03-29T08:59:25.323Z</time></trkpt><trkpt lat="43.2388467" lon="12.1502867"><ele>516.0</ele><time>2026-03-29T08:59:27.323Z</time></trkpt><trkpt lat="43.2389" lon="12.15024"><ele>516.0</ele><time>2026-03-29T08:59:29.323Z</time></trkpt><trkpt lat="43.2389667" lon="12.1501683"><ele>516.0</ele><time>2026-03-29T08:59:31.322Z</time></trkpt><trkpt lat="43.239035" lon="12.150105"><ele>514.1666666666666</ele><time>2026-03-29T08:59:33.326Z</time></trkpt><trkpt lat="43.239095" lon="12.1500433"><ele>512.3333333333334</ele><time>2026-03-29T08:59:35.321Z</time></trkpt><trkpt lat="43.23913" lon="12.1499417"><ele>510.5</ele><time>2026-03-29T08:59:37.322Z</time></trkpt><trkpt lat="43.2391817" lon="12.1498783"><ele>508.6666666666667</ele><time>2026-03-29T08:59:39.325Z</time></trkpt><trkpt lat="43.2392733" lon="12.1498567"><ele>506.83333333333337</ele><time>2026-03-29T08:59:41.321Z</time></trkpt><trkpt lat="43.2393817" lon="12.1498133"><ele>505.0</ele><time>2026-03-29T08:59:43.323Z</time></trkpt><trkpt lat="43.2394933" lon="12.149735"><ele>503.2857142857143</ele><time>2026-03-29T08:59:45.322Z</time></trkpt><trkpt lat="43.2395533" lon="12.14969"><ele>501.57142857142856</ele><time>2026-03-29T08:59:46.328Z</time></trkpt><trkpt lat="43.2396133" lon="12.14964"><ele>499.85714285714283</ele><time>2026-03-29T08:59:47.325Z</time></trkpt><trkpt lat="43.2396683" lon="12.14958"><ele>498.1428571428571</ele><time>2026-03-29T08:59:48.321Z</time></trkpt><trkpt lat="43.2397183" lon="12.1495133"><ele>496.42857142857144</ele><time>2026-03-29T08:59:49.321Z</time></trkpt><trkpt lat="43.2397633" lon="12.1494433"><ele>494.71428571428567</ele><time>2026-03-29T08:59:50.322Z</time></trkpt><trkpt lat="43.2398033" lon="12.1493683"><ele>493.0</ele><time>2026-03-29T08:59:51.325Z</time></trkpt><trkpt lat="43.2398467" lon="12.1492933"><ele>492.0</ele><time>2026-03-29T08:59:52.321Z</time></trkpt><trkpt lat="43.239895" lon="12.1492117"><ele>491.0</ele><time>2026-03-29T08:59:53.321Z</time></trkpt><trkpt lat="43.239945" lon="12.149135"><ele>490.0</ele><time>2026-03-29T08:59:54.322Z</time></trkpt><trkpt lat="43.239995" lon="12.1490617"><ele>489.0</ele><time>2026-03-29T08:59:55.323Z</time></trkpt><trkpt lat="43.240045" lon="12.1489983"><ele>488.0</ele><time>2026-03-29T08:59:56.323Z</time></trkpt><trkpt lat="43.2400917" lon="12.1489383"><ele>487.0</ele><time>2026-03-29T08:59:57.321Z</time></trkpt><trkpt lat="43.24013" lon="12.148825"><ele>486.0</ele><time>2026-03-29T08:59:59.321Z</time></trkpt><trkpt lat="43.240055" lon="12.1487383"><ele>484.6666666666667</ele><time>2026-03-29T09:00:01.322Z</time></trkpt><trkpt lat="43.2399483" lon="12.1487067"><ele>483.33333333333337</ele><time>2026-03-29T09:00:03.323Z</time></trkpt><trkpt lat="43.2398817" lon="12.1487083"><ele>482.0</ele><time>2026-03-29T09:00:04.318Z</time></trkpt><trkpt lat="43.2398167" lon="12.1487017"><ele>480.6666666666667</ele><time>2026-03-29T09:00:05.319Z</time></trkpt><trkpt lat="43.2396917" lon="12.1486967"><ele>479.33333333333337</ele><time>2026-03-29T09:00:07.32Z</time></trkpt><trkpt lat="43.2396267" lon="12.1486883"><ele>478.0</ele><time>2026-03-29T09:00:08.324Z</time></trkpt><trkpt lat="43.23952" lon="12.1486767"><ele>478.00000000000006</ele><time>2026-03-29T09:00:10.322Z</time></trkpt><trkpt lat="43.2394633" lon="12.148605"><ele>478.0</ele><time>2026-03-29T09:00:12.322Z</time></trkpt><trkpt lat="43.2394517" lon="12.1484667"><ele>478.0</ele><time>2026-03-29T09:00:14.323Z</time></trkpt><trkpt lat="43.2394483" lon="12.1482883"><ele>478.0</ele><time>2026-03-29T09:00:16.323Z</time></trkpt><trkpt lat="43.2394367" lon="12.1482"><ele>478.00000000000006</ele><time>2026-03-29T09:00:17.32Z</time></trkpt><trkpt lat="43.239415" lon="12.148115"><ele>478.0</ele><time>2026-03-29T09:00:18.321Z</time></trkpt><trkpt lat="43.2393917" lon="12.1480133"><ele>475.83333333333337</ele><time>2026-03-29T09:00:20.321Z</time></trkpt><trkpt lat="43.2393733" lon="12.147905"><ele>473.6666666666667</ele><time>2026-03-29T09:00:22.322Z</time></trkpt><trkpt lat="43.239385" lon="12.147795"><ele>471.5</ele><time>2026-03-29T09:00:24.321Z</time></trkpt><trkpt lat="43.2393383" lon="12.147685"><ele>469.33333333333337</ele><time>2026-03-29T09:00:26.323Z</time></trkpt><trkpt lat="43.2392617" lon="12.1476317"><ele>467.1666666666667</ele><time>2026-03-29T09:00:28.32Z</time></trkpt><trkpt lat="43.2391867" lon="12.147555"><ele>465.0</ele><time>2026-03-29T09:00:30.323Z</time></trkpt><trkpt lat="43.239125" lon="12.1474767"><ele>465.6666666666667</ele><time>2026-03-29T09:00:32.328Z</time></trkpt><trkpt lat="43.2391" lon="12.1473767"><ele>466.33333333333337</ele><time>2026-03-29T09:00:37.322Z</time></trkpt><trkpt lat="43.239065" lon="12.1473"><ele>467.0</ele><time>2026-03-29T09:00:39.324Z</time></trkpt><trkpt lat="43.23903" lon="12.147195"><ele>467.6666666666667</ele><time>2026-03-29T09:00:41.321Z</time></trkpt><trkpt lat="43.23901" lon="12.1470717"><ele>468.33333333333337</ele><time>2026-03-29T09:00:43.321Z</time></trkpt><trkpt lat="43.2389833" lon="12.1469383"><ele>469.0</ele><time>2026-03-29T09:00:45.323Z</time></trkpt><trkpt lat="43.238935" lon="12.1468183"><ele>469.0</ele><time>2026-03-29T09:00:47.32Z</time></trkpt><trkpt lat="43.2388833" lon="12.1466717"><ele>469.0</ele><time>2026-03-29T09:00:49.32Z</time></trkpt><trkpt lat="43.23885" lon="12.1465933"><ele>469.0</ele><time>2026-03-29T09:00:50.321Z</time></trkpt><trkpt lat="43.238795" lon="12.1464633"><ele>469.0</ele><time>2026-03-29T09:00:52.324Z</time></trkpt><trkpt lat="43.2387617" lon="12.14632"><ele>469.0</ele><time>2026-03-29T09:00:54.321Z</time></trkpt><trkpt lat="43.2387367" lon="12.1462317"><ele>467.33333333333337</ele><time>2026-03-29T09:00:55.325Z</time></trkpt><trkpt lat="43.2387017" lon="12.1461467"><ele>465.6666666666667</ele><time>2026-03-29T09:00:56.322Z</time></trkpt><trkpt lat="43.2386683" lon="12.1460733"><ele>464.0</ele><time>2026-03-29T09:00:57.322Z</time></trkpt><trkpt lat="43.238635" lon="12.145995"><ele>462.33333333333337</ele><time>2026-03-29T09:00:58.323Z</time></trkpt><trkpt lat="43.23859" lon="12.1458717"><ele>460.6666666666667</ele><time>2026-03-29T09:01:00.325Z</time></trkpt><trkpt lat="43.2385483" lon="12.1457983"><ele>459.0</ele><time>2026-03-29T09:01:02.32Z</time></trkpt><trkpt lat="43.23849" lon="12.1457083"><ele>457.2</ele><time>2026-03-29T09:01:05.323Z</time></trkpt><trkpt lat="43.238435" lon="12.1456333"><ele>455.4</ele><time>2026-03-29T09:01:08.32Z</time></trkpt><trkpt lat="43.2383733" lon="12.145525"><ele>453.6</ele><time>2026-03-29T09:01:10.322Z</time></trkpt><trkpt lat="43.2383067" lon="12.1453967"><ele>451.8</ele><time>2026-03-29T09:01:12.321Z</time></trkpt><trkpt lat="43.2382617" lon="12.1452767"><ele>450.0</ele><time>2026-03-29T09:01:14.322Z</time></trkpt><trkpt lat="43.23822" lon="12.1451633"><ele>450.0</ele><time>2026-03-29T09:01:16.324Z</time></trkpt><trkpt lat="43.2382233" lon="12.1450433"><ele>450.0</ele><time>2026-03-29T09:01:18.323Z</time></trkpt><trkpt lat="43.2382617" lon="12.1449383"><ele>450.0</ele><time>2026-03-29T09:01:20.324Z</time></trkpt><trkpt lat="43.2383067" lon="12.14484"><ele>450.0</ele><time>2026-03-29T09:01:22.322Z</time></trkpt><trkpt lat="43.2383433" lon="12.1447333"><ele>450.0</ele><time>2026-03-29T09:01:24.324Z</time></trkpt><trkpt lat="43.2383667" lon="12.14462"><ele>450.0</ele><time>2026-03-29T09:01:26.324Z</time></trkpt><trkpt lat="43.2384017" lon="12.1445383"><ele>449.8</ele><time>2026-03-29T09:01:28.323Z</time></trkpt><trkpt lat="43.2384583" lon="12.1444733"><ele>449.6</ele><time>2026-03-29T09:01:30.323Z</time></trkpt><trkpt lat="43.23854" lon="12.1443867"><ele>449.4</ele><time>2026-03-29T09:01:32.322Z</time></trkpt><trkpt lat="43.23862" lon="12.1443483"><ele>449.2</ele><time>2026-03-29T09:01:34.325Z</time></trkpt><trkpt lat="43.23872" lon="12.1442933"><ele>449.0</ele><time>2026-03-29T09:01:36.322Z</time></trkpt><trkpt lat="43.2388317" lon="12.1442467"><ele>449.0</ele><time>2026-03-29T09:01:38.324Z</time></trkpt><trkpt lat="43.2389483" lon="12.1442033"><ele>449.0</ele><time>2026-03-29T09:01:40.327Z</time></trkpt><trkpt lat="43.2390583" lon="12.1441567"><ele>449.0</ele><time>2026-03-29T09:01:42.325Z</time></trkpt><trkpt lat="43.2391167" lon="12.1441017"><ele>449.0</ele><time>2026-03-29T09:01:43.323Z</time></trkpt><trkpt lat="43.2391683" lon="12.1440517"><ele>449.0</ele><time>2026-03-29T09:01:44.322Z</time></trkpt><trkpt lat="43.2392533" lon="12.1439217"><ele>445.3333333333333</ele><time>2026-03-29T09:01:46.321Z</time></trkpt><trkpt lat="43.2393417" lon="12.1438033"><ele>441.66666666666663</ele><time>2026-03-29T09:01:48.324Z</time></trkpt><trkpt lat="43.239455" lon="12.1437367"><ele>438.0</ele><time>2026-03-29T09:01:50.322Z</time></trkpt><trkpt lat="43.23952" lon="12.1437217"><ele>434.33333333333337</ele><time>2026-03-29T09:01:51.322Z</time></trkpt><trkpt lat="43.239585" lon="12.1437183"><ele>430.6666666666667</ele><time>2026-03-29T09:01:52.324Z</time></trkpt><trkpt lat="43.2396533" lon="12.1437367"><ele>427.0</ele><time>2026-03-29T09:01:53.321Z</time></trkpt><trkpt lat="43.2397283" lon="12.143745"><ele>421.40000000000003</ele><time>2026-03-29T09:01:54.32Z</time></trkpt><trkpt lat="43.2398683" lon="12.1437417"><ele>415.80000000000007</ele><time>2026-03-29T09:01:56.322Z</time></trkpt><trkpt lat="43.2399417" lon="12.1437283"><ele>410.2</ele><time>2026-03-29T09:01:57.322Z</time></trkpt><trkpt lat="43.2400133" lon="12.14372"><ele>404.6</ele><time>2026-03-29T09:01:58.324Z</time></trkpt><trkpt lat="43.2400833" lon="12.1437083"><ele>399.0</ele><time>2026-03-29T09:01:59.321Z</time></trkpt><trkpt lat="43.2401883" lon="12.1436783"><ele>399.0</ele><time>2026-03-29T09:02:01.323Z</time></trkpt><trkpt lat="43.2402833" lon="12.14359"><ele>399.0</ele><time>2026-03-29T09:02:03.322Z</time></trkpt><trkpt lat="43.2403467" lon="12.143465"><ele>399.0</ele><time>2026-03-29T09:02:05.323Z</time></trkpt><trkpt lat="43.2403733" lon="12.14334"><ele>399.0</ele><time>2026-03-29T09:02:07.325Z</time></trkpt><trkpt lat="43.2404267" lon="12.1432333"><ele>399.0</ele><time>2026-03-29T09:02:09.323Z</time></trkpt><trkpt lat="43.2405183" lon="12.1431633"><ele>397.5</ele><time>2026-03-29T09:02:11.324Z</time></trkpt><trkpt lat="43.240555" lon="12.143065"><ele>396.0</ele><time>2026-03-29T09:02:13.323Z</time></trkpt><trkpt lat="43.2405167" lon="12.14295"><ele>394.5</ele><time>2026-03-29T09:02:15.321Z</time></trkpt><trkpt lat="43.2404483" lon="12.1428783"><ele>393.0</ele><time>2026-03-29T09:02:17.321Z</time></trkpt><trkpt lat="43.2404033" lon="12.1427833"><ele>391.5</ele><time>2026-03-29T09:02:19.324Z</time></trkpt><trkpt lat="43.2403983" lon="12.142685"><ele>390.0</ele><time>2026-03-29T09:02:21.321Z</time></trkpt><trkpt lat="43.240445" lon="12.142565"><ele>390.0</ele><time>2026-03-29T09:02:23.321Z</time></trkpt><trkpt lat="43.2405317" lon="12.1424717"><ele>390.0</ele><time>2026-03-29T09:02:25.321Z</time></trkpt><trkpt lat="43.2406133" lon="12.1424367"><ele>390.0</ele><time>2026-03-29T09:02:27.322Z</time></trkpt><trkpt lat="43.2406983" lon="12.1425283"><ele>390.0</ele><time>2026-03-29T09:02:29.319Z</time></trkpt><trkpt lat="43.24082" lon="12.1426083"><ele>390.0</ele><time>2026-03-29T09:02:31.321Z</time></trkpt><trkpt lat="43.2409033" lon="12.14263"><ele>386.3333333333333</ele><time>2026-03-29T09:02:32.321Z</time></trkpt><trkpt lat="43.2409867" lon="12.1426383"><ele>382.6666666666667</ele><time>2026-03-29T09:02:33.321Z</time></trkpt><trkpt lat="43.2410617" lon="12.1426533"><ele>379.0</ele><time>2026-03-29T09:02:34.32Z</time></trkpt><trkpt lat="43.2411317" lon="12.1426783"><ele>375.33333333333337</ele><time>2026-03-29T09:02:35.322Z</time></trkpt><trkpt lat="43.24119" lon="12.1427367"><ele>371.6666666666667</ele><time>2026-03-29T09:02:36.32Z</time></trkpt><trkpt lat="43.2412483" lon="12.1428033"><ele>368.0</ele><time>2026-03-29T09:02:37.322Z</time></trkpt><trkpt lat="43.2413" lon="12.14288"><ele>368.0</ele><time>2026-03-29T09:02:38.321Z</time></trkpt><trkpt lat="43.2413483" lon="12.1429417"><ele>368.0</ele><time>2026-03-29T09:02:39.322Z</time></trkpt><trkpt lat="43.241465" lon="12.1430067"><ele>368.0</ele><time>2026-03-29T09:02:41.321Z</time></trkpt><trkpt lat="43.2415317" lon="12.1430067"><ele>368.0</ele><time>2026-03-29T09:02:42.322Z</time></trkpt><trkpt lat="43.241615" lon="12.142985"><ele>368.0</ele><time>2026-03-29T09:02:43.321Z</time></trkpt><trkpt lat="43.2417017" lon="12.1429483"><ele>368.0</ele><time>2026-03-29T09:02:44.32Z</time></trkpt><trkpt lat="43.2419517" lon="12.1427367"><ele>367.0</ele><time>2026-03-29T09:02:47.322Z</time></trkpt><trkpt lat="43.2420483" lon="12.14267"><ele>366.0</ele><time>2026-03-29T09:02:48.325Z</time></trkpt><trkpt lat="43.2421433" lon="12.1425933"><ele>365.0</ele><time>2026-03-29T09:02:49.321Z</time></trkpt><trkpt lat="43.2422367" lon="12.1425233"><ele>364.0</ele><time>2026-03-29T09:02:50.323Z</time></trkpt><trkpt lat="43.2423333" lon="12.14246"><ele>363.0</ele><time>2026-03-29T09:02:51.325Z</time></trkpt><trkpt lat="43.2424033" lon="12.1424"><ele>362.3333333333333</ele><time>2026-03-29T09:02:52.322Z</time></trkpt><trkpt lat="43.24247" lon="12.1423383"><ele>361.6666666666667</ele><time>2026-03-29T09:02:53.323Z</time></trkpt><trkpt lat="43.2425333" lon="12.1422867"><ele>361.0</ele><time>2026-03-29T09:02:54.323Z</time></trkpt><trkpt lat="43.2425983" lon="12.1422517"><ele>360.33333333333337</ele><time>2026-03-29T09:02:55.321Z</time></trkpt><trkpt lat="43.2426667" lon="12.1422367"><ele>359.6666666666667</ele><time>2026-03-29T09:02:56.322Z</time></trkpt><trkpt lat="43.242745" lon="12.1422517"><ele>359.0</ele><time>2026-03-29T09:02:57.32Z</time></trkpt><trkpt lat="43.2428317" lon="12.1422633"><ele>359.0</ele><time>2026-03-29T09:02:58.324Z</time></trkpt><trkpt lat="43.24291" lon="12.14226"><ele>359.0</ele><time>2026-03-29T09:02:59.322Z</time></trkpt><trkpt lat="43.2430033" lon="12.142255"><ele>359.0</ele><time>2026-03-29T09:03:00.321Z</time></trkpt><trkpt lat="43.2431033" lon="12.1422533"><ele>359.0</ele><time>2026-03-29T09:03:01.325Z</time></trkpt><trkpt lat="43.2432" lon="12.142255"><ele>359.0</ele><time>2026-03-29T09:03:02.325Z</time></trkpt><trkpt lat="43.2432967" lon="12.1422533"><ele>356.79999999999995</ele><time>2026-03-29T09:03:03.322Z</time></trkpt><trkpt lat="43.2433967" lon="12.1422433"><ele>354.59999999999997</ele><time>2026-03-29T09:03:04.324Z</time></trkpt><trkpt lat="43.2434967" lon="12.1422317"><ele>352.4</ele><time>2026-03-29T09:03:05.321Z</time></trkpt><trkpt lat="43.2435967" lon="12.1422183"><ele>350.2</ele><time>2026-03-29T09:03:06.319Z</time></trkpt><trkpt lat="43.2436967" lon="12.1422117"><ele>348.0</ele><time>2026-03-29T09:03:07.323Z</time></trkpt><trkpt lat="43.243795" lon="12.1422083"><ele>348.0</ele><time>2026-03-29T09:03:08.321Z</time></trkpt><trkpt lat="43.2438933" lon="12.1422"><ele>348.0</ele><time>2026-03-29T09:03:09.322Z</time></trkpt><trkpt lat="43.2439867" lon="12.142195"><ele>348.0</ele><time>2026-03-29T09:03:10.32Z</time></trkpt><trkpt lat="43.24408" lon="12.1421983"><ele>348.0</ele><time>2026-03-29T09:03:11.323Z</time></trkpt><trkpt lat="43.2441767" lon="12.1421983"><ele>348.0</ele><time>2026-03-29T09:03:12.323Z</time></trkpt><trkpt lat="43.24427" lon="12.1422133"><ele>345.8333333333333</ele><time>2026-03-29T09:03:13.32Z</time></trkpt><trkpt lat="43.244355" lon="12.1422433"><ele>343.6666666666667</ele><time>2026-03-29T09:03:14.321Z</time></trkpt><trkpt lat="43.2444383" lon="12.1422833"><ele>341.5</ele><time>2026-03-29T09:03:15.32Z</time></trkpt><trkpt lat="43.2445167" lon="12.1423317"><ele>339.33333333333337</ele><time>2026-03-29T09:03:16.321Z</time></trkpt><trkpt lat="43.2445967" lon="12.142385"><ele>337.1666666666667</ele><time>2026-03-29T09:03:17.321Z</time></trkpt><trkpt lat="43.2446817" lon="12.1424383"><ele>335.0</ele><time>2026-03-29T09:03:18.323Z</time></trkpt><trkpt lat="43.2447617" lon="12.14249"><ele>333.0</ele><time>2026-03-29T09:03:19.322Z</time></trkpt><trkpt lat="43.2448483" lon="12.1425467"><ele>331.0</ele><time>2026-03-29T09:03:20.324Z</time></trkpt><trkpt lat="43.2449333" lon="12.1426083"><ele>329.0</ele><time>2026-03-29T09:03:21.32Z</time></trkpt><trkpt lat="43.245025" lon="12.1426617"><ele>327.0</ele><time>2026-03-29T09:03:22.321Z</time></trkpt><trkpt lat="43.245125" lon="12.142715"><ele>325.0</ele><time>2026-03-29T09:03:23.323Z</time></trkpt><trkpt lat="43.24523" lon="12.1427533"><ele>325.0</ele><time>2026-03-29T09:03:24.322Z</time></trkpt><trkpt lat="43.2453367" lon="12.1427767"><ele>325.0</ele><time>2026-03-29T09:03:25.322Z</time></trkpt><trkpt lat="43.2454433" lon="12.1428"><ele>325.0</ele><time>2026-03-29T09:03:26.322Z</time></trkpt><trkpt lat="43.2455467" lon="12.1428233"><ele>325.0</ele><time>2026-03-29T09:03:27.324Z</time></trkpt><trkpt lat="43.2456517" lon="12.142845"><ele>325.0</ele><time>2026-03-29T09:03:28.326Z</time></trkpt><trkpt lat="43.2457517" lon="12.1428617"><ele>323.8</ele><time>2026-03-29T09:03:29.32Z</time></trkpt><trkpt lat="43.24585" lon="12.1428867"><ele>322.6</ele><time>2026-03-29T09:03:30.32Z</time></trkpt><trkpt lat="43.24594" lon="12.14292"><ele>321.4</ele><time>2026-03-29T09:03:31.323Z</time></trkpt><trkpt lat="43.24603" lon="12.1429583"><ele>320.2</ele><time>2026-03-29T09:03:32.324Z</time></trkpt><trkpt lat="43.2461183" lon="12.1430033"><ele>319.0</ele><time>2026-03-29T09:03:33.321Z</time></trkpt><trkpt lat="43.2462033" lon="12.143055"><ele>319.0</ele><time>2026-03-29T09:03:34.321Z</time></trkpt><trkpt lat="43.246275" lon="12.1431167"><ele>319.0</ele><time>2026-03-29T09:03:35.321Z</time></trkpt><trkpt lat="43.246325" lon="12.1431833"><ele>319.0</ele><time>2026-03-29T09:03:36.321Z</time></trkpt><trkpt lat="43.24636" lon="12.1432567"><ele>319.0</ele><time>2026-03-29T09:03:37.324Z</time></trkpt><trkpt lat="43.2463583" lon="12.1433433"><ele>319.0</ele><time>2026-03-29T09:03:38.322Z</time></trkpt><trkpt lat="43.2463383" lon="12.1434267"><ele>319.0</ele><time>2026-03-29T09:03:39.324Z</time></trkpt><trkpt lat="43.2462917" lon="12.1435317"><ele>319.0</ele><time>2026-03-29T09:03:40.324Z</time></trkpt><trkpt lat="43.2462467" lon="12.1436333"><ele>319.0</ele><time>2026-03-29T09:03:41.32Z</time></trkpt><trkpt lat="43.2461933" lon="12.1437317"><ele>319.0</ele><time>2026-03-29T09:03:42.32Z</time></trkpt><trkpt lat="43.24614" lon="12.1438217"><ele>319.0</ele><time>2026-03-29T09:03:43.324Z</time></trkpt><trkpt lat="43.2461083" lon="12.143905"><ele>319.0</ele><time>2026-03-29T09:03:44.32Z</time></trkpt><trkpt lat="43.2460983" lon="12.1439917"><ele>319.0</ele><time>2026-03-29T09:03:45.322Z</time></trkpt><trkpt lat="43.246115" lon="12.14409"><ele>319.0</ele><time>2026-03-29T09:03:46.321Z</time></trkpt><trkpt lat="43.24615" lon="12.144185"><ele>319.16666666666663</ele><time>2026-03-29T09:03:47.324Z</time></trkpt><trkpt lat="43.2462067" lon="12.1442617"><ele>319.3333333333333</ele><time>2026-03-29T09:03:48.325Z</time></trkpt><trkpt lat="43.24626" lon="12.144335"><ele>319.5</ele><time>2026-03-29T09:03:49.321Z</time></trkpt><trkpt lat="43.246315" lon="12.144395"><ele>319.6666666666667</ele><time>2026-03-29T09:03:50.326Z</time></trkpt><trkpt lat="43.24637" lon="12.14445"><ele>319.83333333333337</ele><time>2026-03-29T09:03:51.322Z</time></trkpt><trkpt lat="43.2464717" lon="12.1445533"><ele>320.0</ele><time>2026-03-29T09:03:53.321Z</time></trkpt><trkpt lat="43.2465717" lon="12.14462"><ele>317.0</ele><time>2026-03-29T09:03:55.322Z</time></trkpt><trkpt lat="43.2466417" lon="12.1446667"><ele>314.0</ele><time>2026-03-29T09:03:57.323Z</time></trkpt><trkpt lat="43.246675" lon="12.1445083"><ele>311.0</ele><time>2026-03-29T09:07:05.321Z</time></trkpt><trkpt lat="43.246725" lon="12.1447117"><ele>308.0</ele><time>2026-03-29T09:19:49.32Z</time></trkpt><trkpt lat="43.2467617" lon="12.1449017"><ele>308.0</ele><time>2026-03-29T09:19:54.322Z</time></trkpt><trkpt lat="43.246735" lon="12.1447367"><ele>308.0</ele><time>2026-03-29T09:20:12.319Z</time></trkpt><trkpt lat="43.2467033" lon="12.1445767"><ele>308.0</ele><time>2026-03-29T09:20:25.32Z</time></trkpt><trkpt lat="43.246765" lon="12.1445533"><ele>308.0</ele><time>2026-03-29T09:20:38.322Z</time></trkpt><trkpt lat="43.2466767" lon="12.1445067"><ele>308.0</ele><time>2026-03-29T09:21:01.321Z</time></trkpt><trkpt lat="43.2466167" lon="12.14456"><ele>308.0</ele><time>2026-03-29T09:23:05.322Z</time></trkpt><trkpt lat="43.2466317" lon="12.144645"><ele>308.0</ele><time>2026-03-29T09:23:24.323Z</time></trkpt><trkpt lat="43.2466917" lon="12.1446917"><ele>308.0</ele><time>2026-03-29T09:23:30.318Z</time></trkpt><trkpt lat="43.24677" lon="12.14473"><ele>308.0</ele><time>2026-03-29T09:27:56.321Z</time></trkpt><trkpt lat="43.246855" lon="12.144805"><ele>308.0</ele><time>2026-03-29T09:27:58.322Z</time></trkpt><trkpt lat="43.2469133" lon="12.144845"><ele>308.0</ele><time>2026-03-29T09:27:59.32Z</time></trkpt><trkpt lat="43.2469833" lon="12.14488"><ele>308.0</ele><time>2026-03-29T09:28:00.323Z</time></trkpt><trkpt lat="43.2470567" lon="12.1448967"><ele>308.0</ele><time>2026-03-29T09:28:01.32Z</time></trkpt><trkpt lat="43.2471333" lon="12.1448933"><ele>308.0</ele><time>2026-03-29T09:28:02.323Z</time></trkpt><trkpt lat="43.2472133" lon="12.1448783"><ele>308.0</ele><time>2026-03-29T09:28:03.325Z</time></trkpt><trkpt lat="43.247285" lon="12.1448617"><ele>308.0</ele><time>2026-03-29T09:28:04.32Z</time></trkpt><trkpt lat="43.2473517" lon="12.1448517"><ele>308.0</ele><time>2026-03-29T09:28:05.324Z</time></trkpt><trkpt lat="43.2474133" lon="12.1448333"><ele>308.0</ele><time>2026-03-29T09:28:06.322Z</time></trkpt><trkpt lat="43.2474933" lon="12.1448"><ele>306.4</ele><time>2026-03-29T09:28:08.321Z</time></trkpt><trkpt lat="43.2474767" lon="12.1447017"><ele>304.8</ele><time>2026-03-29T09:28:11.321Z</time></trkpt><trkpt lat="43.2474383" lon="12.1445333"><ele>303.2</ele><time>2026-03-29T09:28:13.322Z</time></trkpt><trkpt lat="43.2474383" lon="12.1444083"><ele>301.6</ele><time>2026-03-29T09:28:14.323Z</time></trkpt><trkpt lat="43.247445" lon="12.1442667"><ele>300.0</ele><time>2026-03-29T09:28:15.32Z</time></trkpt><trkpt lat="43.24745" lon="12.1441183"><ele>300.5</ele><time>2026-03-29T09:28:16.321Z</time></trkpt><trkpt lat="43.2474517" lon="12.1439567"><ele>301.0</ele><time>2026-03-29T09:28:17.32Z</time></trkpt><trkpt lat="43.2474483" lon="12.1437817"><ele>301.5</ele><time>2026-03-29T09:28:18.319Z</time></trkpt><trkpt lat="43.2474417" lon="12.14361"><ele>302.0</ele><time>2026-03-29T09:28:19.324Z</time></trkpt><trkpt lat="43.2474367" lon="12.1434483"><ele>302.0</ele><time>2026-03-29T09:28:20.323Z</time></trkpt><trkpt lat="43.2474317" lon="12.143305"><ele>302.0</ele><time>2026-03-29T09:28:21.323Z</time></trkpt><trkpt lat="43.24742" lon="12.1431767"><ele>302.0</ele><time>2026-03-29T09:28:22.324Z</time></trkpt><trkpt lat="43.2474017" lon="12.1430567"><ele>302.0</ele><time>2026-03-29T09:28:23.321Z</time></trkpt><trkpt lat="43.2473783" lon="12.1429433"><ele>302.0</ele><time>2026-03-29T09:28:24.325Z</time></trkpt><trkpt lat="43.2473517" lon="12.1428333"><ele>302.5</ele><time>2026-03-29T09:28:25.318Z</time></trkpt><trkpt lat="43.2473167" lon="12.1427267"><ele>303.0</ele><time>2026-03-29T09:28:26.321Z</time></trkpt><trkpt lat="43.2472833" lon="12.14262"><ele>303.5</ele><time>2026-03-29T09:28:27.323Z</time></trkpt><trkpt lat="43.2472533" lon="12.1425133"><ele>304.0</ele><time>2026-03-29T09:28:28.321Z</time></trkpt><trkpt lat="43.247225" lon="12.1423917"><ele>304.5</ele><time>2026-03-29T09:28:29.323Z</time></trkpt><trkpt lat="43.24721" lon="12.1422717"><ele>305.0</ele><time>2026-03-29T09:28:30.323Z</time></trkpt><trkpt lat="43.2472117" lon="12.1421683"><ele>305.1666666666667</ele><time>2026-03-29T09:28:31.323Z</time></trkpt><trkpt lat="43.2472183" lon="12.1420383"><ele>305.33333333333337</ele><time>2026-03-29T09:28:33.321Z</time></trkpt><trkpt lat="43.2472317" lon="12.14193"><ele>305.5</ele><time>2026-03-29T09:28:37.32Z</time></trkpt><trkpt lat="43.2472633" lon="12.14185"><ele>305.6666666666667</ele><time>2026-03-29T09:28:39.323Z</time></trkpt><trkpt lat="43.2473383" lon="12.1417483"><ele>305.8333333333333</ele><time>2026-03-29T09:28:41.32Z</time></trkpt><trkpt lat="43.2473883" lon="12.1416817"><ele>306.0</ele><time>2026-03-29T09:28:42.321Z</time></trkpt><trkpt lat="43.2474433" lon="12.141605"><ele>307.40000000000003</ele><time>2026-03-29T09:28:43.321Z</time></trkpt><trkpt lat="43.247505" lon="12.1415217"><ele>308.8</ele><time>2026-03-29T09:28:44.323Z</time></trkpt><trkpt lat="43.2475717" lon="12.141435"><ele>310.20000000000005</ele><time>2026-03-29T09:28:45.32Z</time></trkpt><trkpt lat="43.2476383" lon="12.141345"><ele>311.6</ele><time>2026-03-29T09:28:46.32Z</time></trkpt><trkpt lat="43.2477117" lon="12.1412567"><ele>313.0</ele><time>2026-03-29T09:28:47.319Z</time></trkpt><trkpt lat="43.24779" lon="12.141155"><ele>313.0</ele><time>2026-03-29T09:28:48.325Z</time></trkpt><trkpt lat="43.2478667" lon="12.1410533"><ele>313.0</ele><time>2026-03-29T09:28:49.323Z</time></trkpt><trkpt lat="43.247945" lon="12.1409533"><ele>313.0</ele><time>2026-03-29T09:28:50.321Z</time></trkpt><trkpt lat="43.24802" lon="12.140845"><ele>313.0</ele><time>2026-03-29T09:28:51.323Z</time></trkpt><trkpt lat="43.2481" lon="12.1407367"><ele>313.0</ele><time>2026-03-29T09:28:52.325Z</time></trkpt><trkpt lat="43.2481833" lon="12.140625"><ele>311.75</ele><time>2026-03-29T09:28:53.322Z</time></trkpt><trkpt lat="43.24827" lon="12.1405117"><ele>310.5</ele><time>2026-03-29T09:28:54.321Z</time></trkpt><trkpt lat="43.2483517" lon="12.140395"><ele>309.25</ele><time>2026-03-29T09:28:55.319Z</time></trkpt><trkpt lat="43.248435" lon="12.14029"><ele>308.0</ele><time>2026-03-29T09:28:56.324Z</time></trkpt><trkpt lat="43.248525" lon="12.1401817"><ele>308.0</ele><time>2026-03-29T09:28:57.322Z</time></trkpt><trkpt lat="43.248615" lon="12.1400633"><ele>308.0</ele><time>2026-03-29T09:28:58.324Z</time></trkpt><trkpt lat="43.2487117" lon="12.13994"><ele>308.0</ele><time>2026-03-29T09:28:59.322Z</time></trkpt><trkpt lat="43.2488083" lon="12.1398133"><ele>308.0</ele><time>2026-03-29T09:29:00.32Z</time></trkpt><trkpt lat="43.2489117" lon="12.1396817"><ele>307.75</ele><time>2026-03-29T09:29:01.321Z</time></trkpt><trkpt lat="43.249015" lon="12.1395467"><ele>307.5</ele><time>2026-03-29T09:29:02.321Z</time></trkpt><trkpt lat="43.2491217" lon="12.1394067"><ele>307.25</ele><time>2026-03-29T09:29:03.324Z</time></trkpt><trkpt lat="43.2492267" lon="12.13927"><ele>307.0</ele><time>2026-03-29T09:29:04.322Z</time></trkpt><trkpt lat="43.2493233" lon="12.1391467"><ele>305.6</ele><time>2026-03-29T09:29:05.321Z</time></trkpt><trkpt lat="43.2494083" lon="12.13905"><ele>304.2</ele><time>2026-03-29T09:29:06.325Z</time></trkpt><trkpt lat="43.2494917" lon="12.13896"><ele>302.8</ele><time>2026-03-29T09:29:07.323Z</time></trkpt><trkpt lat="43.2495883" lon="12.138895"><ele>301.4</ele><time>2026-03-29T09:29:08.321Z</time></trkpt><trkpt lat="43.2496983" lon="12.1388617"><ele>300.0</ele><time>2026-03-29T09:29:09.321Z</time></trkpt><trkpt lat="43.2498167" lon="12.138855"><ele>300.0</ele><time>2026-03-29T09:29:10.32Z</time></trkpt><trkpt lat="43.2499417" lon="12.1388817"><ele>300.0</ele><time>2026-03-29T09:29:11.324Z</time></trkpt><trkpt lat="43.25008" lon="12.13891"><ele>300.0</ele><time>2026-03-29T09:29:12.32Z</time></trkpt><trkpt lat="43.250225" lon="12.1389317"><ele>300.0</ele><time>2026-03-29T09:29:13.322Z</time></trkpt><trkpt lat="43.25037" lon="12.1389517"><ele>300.0</ele><time>2026-03-29T09:29:14.32Z</time></trkpt><trkpt lat="43.2505133" lon="12.1389667"><ele>300.0</ele><time>2026-03-29T09:29:15.323Z</time></trkpt><trkpt lat="43.2506533" lon="12.1389817"><ele>300.0</ele><time>2026-03-29T09:29:16.32Z</time></trkpt><trkpt lat="43.250795" lon="12.1389983"><ele>300.0</ele><time>2026-03-29T09:29:17.321Z</time></trkpt><trkpt lat="43.250935" lon="12.1390167"><ele>299.75</ele><time>2026-03-29T09:29:18.32Z</time></trkpt><trkpt lat="43.2510717" lon="12.1390317"><ele>299.5</ele><time>2026-03-29T09:29:19.321Z</time></trkpt><trkpt lat="43.2512067" lon="12.1390483"><ele>299.25</ele><time>2026-03-29T09:29:20.321Z</time></trkpt><trkpt lat="43.2513417" lon="12.139065"><ele>299.0</ele><time>2026-03-29T09:29:21.323Z</time></trkpt><trkpt lat="43.2514733" lon="12.13908"><ele>299.0</ele><time>2026-03-29T09:29:22.322Z</time></trkpt><trkpt lat="43.2516083" lon="12.1390967"><ele>299.0</ele><time>2026-03-29T09:29:23.32Z</time></trkpt><trkpt lat="43.2517483" lon="12.1391117"><ele>299.0</ele><time>2026-03-29T09:29:24.327Z</time></trkpt><trkpt lat="43.2518933" lon="12.1391233"><ele>299.0</ele><time>2026-03-29T09:29:25.321Z</time></trkpt><trkpt lat="43.2520433" lon="12.1391367"><ele>299.0</ele><time>2026-03-29T09:29:26.321Z</time></trkpt><trkpt lat="43.2521917" lon="12.13915"><ele>299.0</ele><time>2026-03-29T09:29:27.323Z</time></trkpt><trkpt lat="43.2523333" lon="12.1391683"><ele>299.0</ele><time>2026-03-29T09:29:28.321Z</time></trkpt><trkpt lat="43.2524717" lon="12.13919"><ele>299.0</ele><time>2026-03-29T09:29:29.322Z</time></trkpt><trkpt lat="43.2526117" lon="12.1392083"><ele>299.25</ele><time>2026-03-29T09:29:30.323Z</time></trkpt><trkpt lat="43.2527467" lon="12.1392283"><ele>299.5</ele><time>2026-03-29T09:29:31.324Z</time></trkpt><trkpt lat="43.2528767" lon="12.139245"><ele>299.75</ele><time>2026-03-29T09:29:32.322Z</time></trkpt><trkpt lat="43.253" lon="12.1392583"><ele>300.0</ele><time>2026-03-29T09:29:33.322Z</time></trkpt><trkpt lat="43.2531117" lon="12.13927"><ele>300.4</ele><time>2026-03-29T09:29:34.32Z</time></trkpt><trkpt lat="43.2532183" lon="12.13928"><ele>300.8</ele><time>2026-03-29T09:29:35.322Z</time></trkpt><trkpt lat="43.2533183" lon="12.1392917"><ele>301.2</ele><time>2026-03-29T09:29:36.321Z</time></trkpt><trkpt lat="43.2534117" lon="12.1393067"><ele>301.6</ele><time>2026-03-29T09:29:37.321Z</time></trkpt><trkpt lat="43.2535" lon="12.1393167"><ele>302.0</ele><time>2026-03-29T09:29:38.319Z</time></trkpt><trkpt lat="43.253585" lon="12.139325"><ele>302.0</ele><time>2026-03-29T09:29:39.326Z</time></trkpt><trkpt lat="43.2536617" lon="12.1393333"><ele>302.0</ele><time>2026-03-29T09:29:40.322Z</time></trkpt><trkpt lat="43.25373" lon="12.1393433"><ele>302.0</ele><time>2026-03-29T09:29:41.32Z</time></trkpt><trkpt lat="43.253835" lon="12.1393483"><ele>302.0</ele><time>2026-03-29T09:29:43.32Z</time></trkpt><trkpt lat="43.2538267" lon="12.1394467"><ele>302.0</ele><time>2026-03-29T09:33:21.328Z</time></trkpt><trkpt lat="43.25391" lon="12.1394967"><ele>302.0</ele><time>2026-03-29T09:35:45.323Z</time></trkpt><trkpt lat="43.2539733" lon="12.1396267"><ele>302.0</ele><time>2026-03-29T09:42:57.323Z</time></trkpt><trkpt lat="43.25393" lon="12.1398"><ele>302.0</ele><time>2026-03-29T09:42:59.319Z</time></trkpt><trkpt lat="43.25386" lon="12.1399083"><ele>302.0</ele><time>2026-03-29T09:43:02.321Z</time></trkpt><trkpt lat="43.2539517" lon="12.1399617"><ele>302.0</ele><time>2026-03-29T09:43:14.321Z</time></trkpt><trkpt lat="43.2540533" lon="12.13982"><ele>302.1666666666667</ele><time>2026-03-29T09:43:25.32Z</time></trkpt><trkpt lat="43.25408" lon="12.1397383"><ele>302.33333333333337</ele><time>2026-03-29T09:43:30.32Z</time></trkpt><trkpt lat="43.2540933" lon="12.13965"><ele>302.5</ele><time>2026-03-29T09:43:37.324Z</time></trkpt><trkpt lat="43.2541283" lon="12.1394817"><ele>302.6666666666667</ele><time>2026-03-29T09:43:38.322Z</time></trkpt><trkpt lat="43.25404" lon="12.13947"><ele>302.8333333333333</ele><time>2026-03-29T09:46:05.323Z</time></trkpt><trkpt lat="43.25398" lon="12.139435"><ele>303.0</ele><time>2026-03-29T09:47:02.324Z</time></trkpt><trkpt lat="43.2540117" lon="12.139525"><ele>303.0</ele><time>2026-03-29T09:48:11.322Z</time></trkpt><trkpt lat="43.2540717" lon="12.1394867"><ele>303.0</ele><time>2026-03-29T09:53:52.322Z</time></trkpt><trkpt lat="43.2540483" lon="12.13938"><ele>303.0</ele><time>2026-03-29T09:53:56.325Z</time></trkpt><trkpt lat="43.2539417" lon="12.139355"><ele>303.0</ele><time>2026-03-29T09:53:58.323Z</time></trkpt><trkpt lat="43.2538767" lon="12.139345"><ele>303.0</ele><time>2026-03-29T09:53:59.326Z</time></trkpt><trkpt lat="43.2537833" lon="12.1393317"><ele>303.0</ele><time>2026-03-29T09:54:00.32Z</time></trkpt><trkpt lat="43.2537" lon="12.1393083"><ele>302.8</ele><time>2026-03-29T09:54:01.322Z</time></trkpt><trkpt lat="43.2536083" lon="12.1392933"><ele>302.6</ele><time>2026-03-29T09:54:02.321Z</time></trkpt><trkpt lat="43.2535017" lon="12.1392817"><ele>302.4</ele><time>2026-03-29T09:54:03.322Z</time></trkpt><trkpt lat="43.2533983" lon="12.1392667"><ele>302.2</ele><time>2026-03-29T09:54:04.32Z</time></trkpt><trkpt lat="43.25329" lon="12.1392533"><ele>302.0</ele><time>2026-03-29T09:54:05.32Z</time></trkpt><trkpt lat="43.253185" lon="12.1392417"><ele>301.6</ele><time>2026-03-29T09:54:06.321Z</time></trkpt><trkpt lat="43.253085" lon="12.139225"><ele>301.2</ele><time>2026-03-29T09:54:07.324Z</time></trkpt><trkpt lat="43.252995" lon="12.1392117"><ele>300.8</ele><time>2026-03-29T09:54:08.32Z</time></trkpt><trkpt lat="43.2529133" lon="12.1392"><ele>300.4</ele><time>2026-03-29T09:54:09.326Z</time></trkpt><trkpt lat="43.2528433" lon="12.1391867"><ele>300.0</ele><time>2026-03-29T09:54:10.322Z</time></trkpt><trkpt lat="43.2527017" lon="12.139165"><ele>300.0</ele><time>2026-03-29T09:54:12.331Z</time></trkpt><trkpt lat="43.2526217" lon="12.1391583"><ele>300.0</ele><time>2026-03-29T09:54:13.326Z</time></trkpt><trkpt lat="43.25254" lon="12.1391517"><ele>300.0</ele><time>2026-03-29T09:54:14.321Z</time></trkpt><trkpt lat="43.2524633" lon="12.139145"><ele>300.0</ele><time>2026-03-29T09:54:15.323Z</time></trkpt><trkpt lat="43.25239" lon="12.1391383"><ele>300.0</ele><time>2026-03-29T09:54:16.322Z</time></trkpt><trkpt lat="43.2523067" lon="12.13913"><ele>300.0</ele><time>2026-03-29T09:54:17.324Z</time></trkpt><trkpt lat="43.2522167" lon="12.1391217"><ele>299.8</ele><time>2026-03-29T09:54:18.323Z</time></trkpt><trkpt lat="43.25212" lon="12.1391133"><ele>299.6</ele><time>2026-03-29T09:54:19.323Z</time></trkpt><trkpt lat="43.252015" lon="12.1391033"><ele>299.4</ele><time>2026-03-29T09:54:20.321Z</time></trkpt><trkpt lat="43.2519" lon="12.1390883"><ele>299.2</ele><time>2026-03-29T09:54:21.321Z</time></trkpt><trkpt lat="43.2517767" lon="12.13907"><ele>299.0</ele><time>2026-03-29T09:54:22.325Z</time></trkpt><trkpt lat="43.25165" lon="12.1390533"><ele>298.75</ele><time>2026-03-29T09:54:23.325Z</time></trkpt><trkpt lat="43.251515" lon="12.139035"><ele>298.5</ele><time>2026-03-29T09:54:24.321Z</time></trkpt><trkpt lat="43.2513733" lon="12.1390183"><ele>298.25</ele><time>2026-03-29T09:54:25.323Z</time></trkpt><trkpt lat="43.2512283" lon="12.1390033"><ele>298.0</ele><time>2026-03-29T09:54:26.321Z</time></trkpt><trkpt lat="43.25107" lon="12.1389917"><ele>298.0</ele><time>2026-03-29T09:54:27.321Z</time></trkpt><trkpt lat="43.2509133" lon="12.1389783"><ele>298.0</ele><time>2026-03-29T09:54:28.322Z</time></trkpt><trkpt lat="43.250755" lon="12.13896"><ele>298.0</ele><time>2026-03-29T09:54:29.321Z</time></trkpt><trkpt lat="43.2506" lon="12.1389417"><ele>298.66666666666663</ele><time>2026-03-29T09:54:30.321Z</time></trkpt><trkpt lat="43.250445" lon="12.138925"><ele>299.3333333333333</ele><time>2026-03-29T09:54:31.321Z</time></trkpt><trkpt lat="43.2502933" lon="12.1389083"><ele>300.0</ele><time>2026-03-29T09:54:32.319Z</time></trkpt><trkpt lat="43.2501483" lon="12.1388917"><ele>300.0</ele><time>2026-03-29T09:54:33.321Z</time></trkpt><trkpt lat="43.2500167" lon="12.1388767"><ele>300.0</ele><time>2026-03-29T09:54:34.321Z</time></trkpt><trkpt lat="43.2498983" lon="12.1388533"><ele>300.0</ele><time>2026-03-29T09:54:35.321Z</time></trkpt><trkpt lat="43.2497983" lon="12.1388167"><ele>300.0</ele><time>2026-03-29T09:54:36.323Z</time></trkpt><trkpt lat="43.2497233" lon="12.1387617"><ele>300.0</ele><time>2026-03-29T09:54:37.32Z</time></trkpt><trkpt lat="43.2496633" lon="12.1386917"><ele>301.0</ele><time>2026-03-29T09:54:38.322Z</time></trkpt><trkpt lat="43.2496517" lon="12.138585"><ele>302.0</ele><time>2026-03-29T09:54:39.324Z</time></trkpt><trkpt lat="43.2496633" lon="12.1384683"><ele>303.0</ele><time>2026-03-29T09:54:40.321Z</time></trkpt><trkpt lat="43.2497033" lon="12.1383417"><ele>304.0</ele><time>2026-03-29T09:54:41.325Z</time></trkpt><trkpt lat="43.2497483" lon="12.1382083"><ele>305.0</ele><time>2026-03-29T09:54:42.32Z</time></trkpt><trkpt lat="43.249795" lon="12.1380617"><ele>305.0</ele><time>2026-03-29T09:54:43.325Z</time></trkpt><trkpt lat="43.249845" lon="12.1379017"><ele>305.0</ele><time>2026-03-29T09:54:44.32Z</time></trkpt><trkpt lat="43.249895" lon="12.13774"><ele>305.0</ele><time>2026-03-29T09:54:45.322Z</time></trkpt><trkpt lat="43.2499467" lon="12.1375767"><ele>305.0</ele><time>2026-03-29T09:54:46.321Z</time></trkpt><trkpt lat="43.25" lon="12.13741"><ele>306.25</ele><time>2026-03-29T09:54:47.322Z</time></trkpt><trkpt lat="43.2500617" lon="12.1372533"><ele>307.5</ele><time>2026-03-29T09:54:48.321Z</time></trkpt><trkpt lat="43.2501317" lon="12.1370967"><ele>308.75</ele><time>2026-03-29T09:54:49.32Z</time></trkpt><trkpt lat="43.2502183" lon="12.1369483"><ele>310.0</ele><time>2026-03-29T09:54:50.32Z</time></trkpt><trkpt lat="43.2503067" lon="12.1368033"><ele>310.0</ele><time>2026-03-29T09:54:51.326Z</time></trkpt><trkpt lat="43.2503917" lon="12.1366633"><ele>310.0</ele><time>2026-03-29T09:54:52.324Z</time></trkpt><trkpt lat="43.2504733" lon="12.1365183"><ele>310.0</ele><time>2026-03-29T09:54:53.32Z</time></trkpt><trkpt lat="43.2505517" lon="12.1363533"><ele>310.0</ele><time>2026-03-29T09:54:54.32Z</time></trkpt><trkpt lat="43.2506217" lon="12.136175"><ele>308.66666666666663</ele><time>2026-03-29T09:54:55.322Z</time></trkpt><trkpt lat="43.2506883" lon="12.135985"><ele>307.3333333333333</ele><time>2026-03-29T09:54:56.321Z</time></trkpt><trkpt lat="43.2507517" lon="12.1357917"><ele>306.0</ele><time>2026-03-29T09:54:57.322Z</time></trkpt><trkpt lat="43.2508167" lon="12.135595"><ele>309.6666666666667</ele><time>2026-03-29T09:54:58.321Z</time></trkpt><trkpt lat="43.250885" lon="12.1353983"><ele>313.33333333333337</ele><time>2026-03-29T09:54:59.321Z</time></trkpt><trkpt lat="43.2509483" lon="12.1352033"><ele>317.0</ele><time>2026-03-29T09:55:00.325Z</time></trkpt><trkpt lat="43.2510133" lon="12.1350067"><ele>320.75</ele><time>2026-03-29T09:55:01.319Z</time></trkpt><trkpt lat="43.2510783" lon="12.1348267"><ele>324.5</ele><time>2026-03-29T09:55:02.322Z</time></trkpt><trkpt lat="43.2511533" lon="12.13466"><ele>328.25</ele><time>2026-03-29T09:55:03.324Z</time></trkpt><trkpt lat="43.2512467" lon="12.1345083"><ele>332.0</ele><time>2026-03-29T09:55:04.32Z</time></trkpt><trkpt lat="43.251355" lon="12.13439"><ele>330.75</ele><time>2026-03-29T09:55:05.325Z</time></trkpt><trkpt lat="43.2514633" lon="12.134285"><ele>329.5</ele><time>2026-03-29T09:55:06.329Z</time></trkpt><trkpt lat="43.2515583" lon="12.1341567"><ele>328.25</ele><time>2026-03-29T09:55:07.321Z</time></trkpt><trkpt lat="43.251635" lon="12.13402"><ele>327.0</ele><time>2026-03-29T09:55:08.322Z</time></trkpt><trkpt lat="43.2517083" lon="12.1338683"><ele>327.0</ele><time>2026-03-29T09:55:09.325Z</time></trkpt><trkpt lat="43.2517817" lon="12.133715"><ele>327.0</ele><time>2026-03-29T09:55:10.32Z</time></trkpt><trkpt lat="43.2518617" lon="12.1335583"><ele>327.0</ele><time>2026-03-29T09:55:11.321Z</time></trkpt><trkpt lat="43.2519517" lon="12.1334183"><ele>327.0</ele><time>2026-03-29T09:55:12.325Z</time></trkpt><trkpt lat="43.2520467" lon="12.1332883"><ele>328.5</ele><time>2026-03-29T09:55:13.323Z</time></trkpt><trkpt lat="43.2521433" lon="12.1331667"><ele>330.0</ele><time>2026-03-29T09:55:14.323Z</time></trkpt><trkpt lat="43.2522367" lon="12.133035"><ele>331.5</ele><time>2026-03-29T09:55:15.321Z</time></trkpt><trkpt lat="43.2523017" lon="12.1328983"><ele>333.0</ele><time>2026-03-29T09:55:16.319Z</time></trkpt><trkpt lat="43.252335" lon="12.1327533"><ele>331.0</ele><time>2026-03-29T09:55:17.324Z</time></trkpt><trkpt lat="43.252335" lon="12.1325983"><ele>329.0</ele><time>2026-03-29T09:55:18.323Z</time></trkpt><trkpt lat="43.25231" lon="12.1324417"><ele>327.0</ele><time>2026-03-29T09:55:19.321Z</time></trkpt><trkpt lat="43.2522767" lon="12.1322833"><ele>325.0</ele><time>2026-03-29T09:55:20.321Z</time></trkpt><trkpt lat="43.2522417" lon="12.1321367"><ele>325.0</ele><time>2026-03-29T09:55:21.321Z</time></trkpt><trkpt lat="43.2522083" lon="12.131995"><ele>325.0</ele><time>2026-03-29T09:55:22.328Z</time></trkpt><trkpt lat="43.252165" lon="12.1318883"><ele>325.0</ele><time>2026-03-29T09:55:23.32Z</time></trkpt><trkpt lat="43.252115" lon="12.1318033"><ele>325.0</ele><time>2026-03-29T09:55:24.323Z</time></trkpt><trkpt lat="43.25206" lon="12.1317433"><ele>325.0</ele><time>2026-03-29T09:55:25.325Z</time></trkpt><trkpt lat="43.2519967" lon="12.131725"><ele>325.0</ele><time>2026-03-29T09:55:26.324Z</time></trkpt><trkpt lat="43.2518967" lon="12.1317267"><ele>325.0</ele><time>2026-03-29T09:55:28.321Z</time></trkpt><trkpt lat="43.2518167" lon="12.1317483"><ele>325.0</ele><time>2026-03-29T09:55:31.324Z</time></trkpt><trkpt lat="43.2517433" lon="12.1317783"><ele>325.0</ele><time>2026-03-29T09:55:33.324Z</time></trkpt><trkpt lat="43.2516433" lon="12.1318433"><ele>325.0</ele><time>2026-03-29T09:55:35.321Z</time></trkpt><trkpt lat="43.25159" lon="12.1318983"><ele>325.0</ele><time>2026-03-29T09:55:36.322Z</time></trkpt><trkpt lat="43.2515483" lon="12.1319683"><ele>325.0</ele><time>2026-03-29T09:55:37.322Z</time></trkpt><trkpt lat="43.2515267" lon="12.1320667"><ele>325.0</ele><time>2026-03-29T09:55:38.32Z</time></trkpt><trkpt lat="43.251515" lon="12.1322083"><ele>325.0</ele><time>2026-03-29T09:55:39.32Z</time></trkpt><trkpt lat="43.2515133" lon="12.1323517"><ele>325.0</ele><time>2026-03-29T09:55:40.32Z</time></trkpt><trkpt lat="43.251515" lon="12.1324867"><ele>325.0</ele><time>2026-03-29T09:55:41.322Z</time></trkpt><trkpt lat="43.251515" lon="12.1326"><ele>325.0</ele><time>2026-03-29T09:55:42.322Z</time></trkpt><trkpt lat="43.2515067" lon="12.1326917"><ele>331.0</ele><time>2026-03-29T09:55:43.323Z</time></trkpt><trkpt lat="43.2514567" lon="12.132835"><ele>337.0</ele><time>2026-03-29T09:55:45.324Z</time></trkpt><trkpt lat="43.251365" lon="12.13293"><ele>343.0</ele><time>2026-03-29T09:55:47.32Z</time></trkpt><trkpt lat="43.2512983" lon="12.1329367"><ele>349.0</ele><time>2026-03-29T09:55:49.323Z</time></trkpt><trkpt lat="43.2512267" lon="12.1328883"><ele>355.0</ele><time>2026-03-29T09:55:51.324Z</time></trkpt><trkpt lat="43.25114" lon="12.132845"><ele>355.0</ele><time>2026-03-29T09:55:53.324Z</time></trkpt><trkpt lat="43.2510883" lon="12.13279"><ele>355.0</ele><time>2026-03-29T09:55:55.323Z</time></trkpt><trkpt lat="43.2510217" lon="12.13276"><ele>355.0</ele><time>2026-03-29T09:55:57.32Z</time></trkpt><trkpt lat="43.2509433" lon="12.13283"><ele>355.0</ele><time>2026-03-29T09:56:00.322Z</time></trkpt><trkpt lat="43.2508717" lon="12.13288"><ele>355.0</ele><time>2026-03-29T09:56:03.322Z</time></trkpt><trkpt lat="43.250795" lon="12.1328417"><ele>355.0</ele><time>2026-03-29T09:56:06.321Z</time></trkpt><trkpt lat="43.2507117" lon="12.1328483"><ele>355.0</ele><time>2026-03-29T09:56:08.321Z</time></trkpt><trkpt lat="43.25064" lon="12.1328517"><ele>355.0</ele><time>2026-03-29T09:56:10.32Z</time></trkpt><trkpt lat="43.2505317" lon="12.1328517"><ele>355.0</ele><time>2026-03-29T09:56:12.321Z</time></trkpt><trkpt lat="43.250465" lon="12.13286"><ele>355.0</ele><time>2026-03-29T09:56:13.321Z</time></trkpt><trkpt lat="43.2503883" lon="12.1328717"><ele>355.0</ele><time>2026-03-29T09:56:14.326Z</time></trkpt><trkpt lat="43.250315" lon="12.1328817"><ele>355.0</ele><time>2026-03-29T09:56:15.324Z</time></trkpt><trkpt lat="43.2502467" lon="12.1328833"><ele>356.66666666666663</ele><time>2026-03-29T09:56:16.322Z</time></trkpt><trkpt lat="43.2501783" lon="12.1328767"><ele>358.3333333333333</ele><time>2026-03-29T09:56:17.32Z</time></trkpt><trkpt lat="43.250115" lon="12.1328667"><ele>360.0</ele><time>2026-03-29T09:56:18.324Z</time></trkpt><trkpt lat="43.2500483" lon="12.1328667"><ele>361.6666666666667</ele><time>2026-03-29T09:56:19.327Z</time></trkpt><trkpt lat="43.2499817" lon="12.132885"><ele>363.33333333333337</ele><time>2026-03-29T09:56:20.324Z</time></trkpt><trkpt lat="43.2499167" lon="12.1329017"><ele>365.0</ele><time>2026-03-29T09:56:21.322Z</time></trkpt><trkpt lat="43.2497983" lon="12.1328967"><ele>366.6</ele><time>2026-03-29T09:56:23.325Z</time></trkpt><trkpt lat="43.2496833" lon="12.1328717"><ele>368.2</ele><time>2026-03-29T09:56:25.32Z</time></trkpt><trkpt lat="43.2495817" lon="12.1328983"><ele>369.79999999999995</ele><time>2026-03-29T09:56:27.324Z</time></trkpt><trkpt lat="43.2494633" lon="12.1329717"><ele>371.4</ele><time>2026-03-29T09:56:29.322Z</time></trkpt><trkpt lat="43.2493983" lon="12.133025"><ele>373.0</ele><time>2026-03-29T09:56:30.322Z</time></trkpt><trkpt lat="43.2493333" lon="12.133075"><ele>373.0</ele><time>2026-03-29T09:56:31.321Z</time></trkpt><trkpt lat="43.2492667" lon="12.1331117"><ele>373.0</ele><time>2026-03-29T09:56:32.322Z</time></trkpt><trkpt lat="43.2491983" lon="12.1331567"><ele>373.0</ele><time>2026-03-29T09:56:33.321Z</time></trkpt><trkpt lat="43.2491317" lon="12.1331883"><ele>373.0</ele><time>2026-03-29T09:56:34.324Z</time></trkpt><trkpt lat="43.2490667" lon="12.1331983"><ele>373.0</ele><time>2026-03-29T09:56:35.319Z</time></trkpt><trkpt lat="43.2490033" lon="12.1332067"><ele>373.0</ele><time>2026-03-29T09:56:36.321Z</time></trkpt><trkpt lat="43.2488833" lon="12.1332283"><ele>377.2</ele><time>2026-03-29T09:56:38.326Z</time></trkpt><trkpt lat="43.2487917" lon="12.13326"><ele>381.4</ele><time>2026-03-29T09:56:40.323Z</time></trkpt><trkpt lat="43.2487117" lon="12.1332917"><ele>385.59999999999997</ele><time>2026-03-29T09:56:42.326Z</time></trkpt><trkpt lat="43.2486267" lon="12.13331"><ele>389.79999999999995</ele><time>2026-03-29T09:56:44.323Z</time></trkpt><trkpt lat="43.2485217" lon="12.13334"><ele>394.0</ele><time>2026-03-29T09:56:46.327Z</time></trkpt><trkpt lat="43.2484067" lon="12.1333383"><ele>394.00000000000006</ele><time>2026-03-29T09:56:48.323Z</time></trkpt><trkpt lat="43.24834" lon="12.1333333"><ele>394.0</ele><time>2026-03-29T09:56:49.327Z</time></trkpt><trkpt lat="43.248275" lon="12.1333217"><ele>394.0</ele><time>2026-03-29T09:56:50.32Z</time></trkpt><trkpt lat="43.248155" lon="12.1333017"><ele>394.0</ele><time>2026-03-29T09:56:52.323Z</time></trkpt><trkpt lat="43.2480883" lon="12.1332833"><ele>394.00000000000006</ele><time>2026-03-29T09:56:53.322Z</time></trkpt><trkpt lat="43.24802" lon="12.1332667"><ele>394.0</ele><time>2026-03-29T09:56:54.323Z</time></trkpt><trkpt lat="43.2479433" lon="12.133245"><ele>394.4</ele><time>2026-03-29T09:56:55.324Z</time></trkpt><trkpt lat="43.2478667" lon="12.1332033"><ele>394.79999999999995</ele><time>2026-03-29T09:56:56.322Z</time></trkpt><trkpt lat="43.2477783" lon="12.1331533"><ele>395.20000000000005</ele><time>2026-03-29T09:56:57.321Z</time></trkpt><trkpt lat="43.2476917" lon="12.1330933"><ele>395.6</ele><time>2026-03-29T09:56:58.322Z</time></trkpt><trkpt lat="43.2476083" lon="12.13304"><ele>396.0</ele><time>2026-03-29T09:56:59.324Z</time></trkpt><trkpt lat="43.2475267" lon="12.132985"><ele>396.0</ele><time>2026-03-29T09:57:00.321Z</time></trkpt><trkpt lat="43.2474517" lon="12.1329233"><ele>396.0</ele><time>2026-03-29T09:57:01.321Z</time></trkpt><trkpt lat="43.2473883" lon="12.13286"><ele>396.0</ele><time>2026-03-29T09:57:02.32Z</time></trkpt><trkpt lat="43.2472967" lon="12.1327483"><ele>396.0</ele><time>2026-03-29T09:57:04.32Z</time></trkpt><trkpt lat="43.2471867" lon="12.1326783"><ele>396.0</ele><time>2026-03-29T09:57:06.321Z</time></trkpt><trkpt lat="43.2471033" lon="12.13265"><ele>398.8</ele><time>2026-03-29T09:57:08.323Z</time></trkpt><trkpt lat="43.2470283" lon="12.1326483"><ele>401.6</ele><time>2026-03-29T09:57:09.323Z</time></trkpt><trkpt lat="43.2469333" lon="12.132715"><ele>404.4</ele><time>2026-03-29T09:57:11.318Z</time></trkpt><trkpt lat="43.2468283" lon="12.132785"><ele>407.2</ele><time>2026-03-29T09:57:13.327Z</time></trkpt><trkpt lat="43.24677" lon="12.1328183"><ele>410.0</ele><time>2026-03-29T09:57:14.321Z</time></trkpt><trkpt lat="43.2466867" lon="12.13287"><ele>410.0</ele><time>2026-03-29T09:57:16.323Z</time></trkpt><trkpt lat="43.2466483" lon="12.132985"><ele>410.0</ele><time>2026-03-29T09:57:29.322Z</time></trkpt><trkpt lat="43.246665" lon="12.1330983"><ele>410.0</ele><time>2026-03-29T09:57:32.323Z</time></trkpt><trkpt lat="43.246665" lon="12.1331917"><ele>410.0</ele><time>2026-03-29T09:57:34.321Z</time></trkpt><trkpt lat="43.2466583" lon="12.133325"><ele>410.0</ele><time>2026-03-29T09:57:36.32Z</time></trkpt><trkpt lat="43.2466583" lon="12.133485"><ele>413.4</ele><time>2026-03-29T09:57:38.32Z</time></trkpt><trkpt lat="43.2466583" lon="12.133605"><ele>416.8</ele><time>2026-03-29T09:57:40.322Z</time></trkpt><trkpt lat="43.246635" lon="12.1337033"><ele>420.20000000000005</ele><time>2026-03-29T09:57:42.322Z</time></trkpt><trkpt lat="43.2465867" lon="12.13384"><ele>423.6</ele><time>2026-03-29T09:57:44.324Z</time></trkpt><trkpt lat="43.2465417" lon="12.1339967"><ele>427.0</ele><time>2026-03-29T09:57:46.321Z</time></trkpt><trkpt lat="43.2464883" lon="12.1341167"><ele>432.6666666666667</ele><time>2026-03-29T09:57:48.32Z</time></trkpt><trkpt lat="43.246445" lon="12.13421"><ele>438.33333333333337</ele><time>2026-03-29T09:57:50.323Z</time></trkpt><trkpt lat="43.2464533" lon="12.134305"><ele>444.0</ele><time>2026-03-29T09:57:52.322Z</time></trkpt><trkpt lat="43.246435" lon="12.1343967"><ele>449.66666666666663</ele><time>2026-03-29T09:57:54.322Z</time></trkpt><trkpt lat="43.2464033" lon="12.1345083"><ele>455.3333333333333</ele><time>2026-03-29T09:57:56.323Z</time></trkpt><trkpt lat="43.2463733" lon="12.1345983"><ele>461.0</ele><time>2026-03-29T09:57:58.321Z</time></trkpt><trkpt lat="43.2462967" lon="12.1345867"><ele>461.0</ele><time>2026-03-29T09:58:01.324Z</time></trkpt><trkpt lat="43.24616" lon="12.1345783"><ele>461.0</ele><time>2026-03-29T09:58:03.326Z</time></trkpt><trkpt lat="43.24605" lon="12.1345767"><ele>461.0</ele><time>2026-03-29T09:58:04.321Z</time></trkpt><trkpt lat="43.245945" lon="12.1345717"><ele>461.0</ele><time>2026-03-29T09:58:05.322Z</time></trkpt><trkpt lat="43.2458467" lon="12.1345617"><ele>461.0</ele><time>2026-03-29T09:58:06.321Z</time></trkpt><trkpt lat="43.2457117" lon="12.134525"><ele>461.0</ele><time>2026-03-29T09:58:07.321Z</time></trkpt><trkpt lat="43.245615" lon="12.1344983"><ele>461.0</ele><time>2026-03-29T09:58:08.322Z</time></trkpt><trkpt lat="43.2455183" lon="12.1344833"><ele>461.0</ele><time>2026-03-29T09:58:09.324Z</time></trkpt><trkpt lat="43.24543" lon="12.134495"><ele>461.0</ele><time>2026-03-29T09:58:10.324Z</time></trkpt><trkpt lat="43.24536" lon="12.1345133"><ele>465.4</ele><time>2026-03-29T09:58:11.324Z</time></trkpt><trkpt lat="43.2452567" lon="12.1345267"><ele>469.8</ele><time>2026-03-29T09:58:13.321Z</time></trkpt><trkpt lat="43.245155" lon="12.13454"><ele>474.19999999999993</ele><time>2026-03-29T09:58:15.323Z</time></trkpt><trkpt lat="43.2450617" lon="12.1345617"><ele>478.59999999999997</ele><time>2026-03-29T09:58:17.32Z</time></trkpt><trkpt lat="43.2449883" lon="12.13458"><ele>483.0</ele><time>2026-03-29T09:58:19.321Z</time></trkpt><trkpt lat="43.244915" lon="12.1346"><ele>487.59999999999997</ele><time>2026-03-29T09:58:23.323Z</time></trkpt><trkpt lat="43.2447617" lon="12.1346317"><ele>492.19999999999993</ele><time>2026-03-29T09:58:33.323Z</time></trkpt><trkpt lat="43.2446967" lon="12.13461"><ele>496.8</ele><time>2026-03-29T09:59:02.321Z</time></trkpt><trkpt lat="43.2446517" lon="12.1345183"><ele>501.4</ele><time>2026-03-29T09:59:04.324Z</time></trkpt><trkpt lat="43.2445867" lon="12.1344667"><ele>506.0</ele><time>2026-03-29T09:59:06.32Z</time></trkpt><trkpt lat="43.244515" lon="12.1344"><ele>506.0</ele><time>2026-03-29T09:59:08.321Z</time></trkpt><trkpt lat="43.2444217" lon="12.1342967"><ele>506.0</ele><time>2026-03-29T09:59:10.321Z</time></trkpt><trkpt lat="43.24434" lon="12.134225"><ele>506.0</ele><time>2026-03-29T09:59:11.321Z</time></trkpt><trkpt lat="43.244255" lon="12.1341567"><ele>506.0</ele><time>2026-03-29T09:59:12.32Z</time></trkpt><trkpt lat="43.2441617" lon="12.1340983"><ele>506.0</ele><time>2026-03-29T09:59:13.324Z</time></trkpt><trkpt lat="43.2440817" lon="12.13405"><ele>502.8</ele><time>2026-03-29T09:59:14.325Z</time></trkpt><trkpt lat="43.2440217" lon="12.1340067"><ele>499.6</ele><time>2026-03-29T09:59:15.325Z</time></trkpt><trkpt lat="43.243945" lon="12.1339083"><ele>496.4</ele><time>2026-03-29T09:59:17.325Z</time></trkpt><trkpt lat="43.2438967" lon="12.1337717"><ele>493.2</ele><time>2026-03-29T09:59:19.322Z</time></trkpt><trkpt lat="43.2437983" lon="12.1336417"><ele>490.0</ele><time>2026-03-29T09:59:21.325Z</time></trkpt><trkpt lat="43.2437233" lon="12.1335817"><ele>492.83333333333337</ele><time>2026-03-29T09:59:22.325Z</time></trkpt><trkpt lat="43.243645" lon="12.1335183"><ele>495.6666666666667</ele><time>2026-03-29T09:59:23.322Z</time></trkpt><trkpt lat="43.243575" lon="12.13344"><ele>498.5</ele><time>2026-03-29T09:59:24.323Z</time></trkpt><trkpt lat="43.243515" lon="12.13336"><ele>501.33333333333337</ele><time>2026-03-29T09:59:25.32Z</time></trkpt><trkpt lat="43.243455" lon="12.13328"><ele>504.1666666666667</ele><time>2026-03-29T09:59:26.319Z</time></trkpt><trkpt lat="43.243395" lon="12.1331883"><ele>507.0</ele><time>2026-03-29T09:59:27.324Z</time></trkpt><trkpt lat="43.2433533" lon="12.13309"><ele>507.0</ele><time>2026-03-29T09:59:28.32Z</time></trkpt><trkpt lat="43.24332" lon="12.132995"><ele>507.00000000000006</ele><time>2026-03-29T09:59:29.325Z</time></trkpt><trkpt lat="43.2432933" lon="12.1329067"><ele>507.00000000000006</ele><time>2026-03-29T09:59:30.323Z</time></trkpt><trkpt lat="43.2432633" lon="12.1328283"><ele>507.0</ele><time>2026-03-29T09:59:31.321Z</time></trkpt><trkpt lat="43.2431933" lon="12.1326833"><ele>507.0</ele><time>2026-03-29T09:59:33.324Z</time></trkpt><trkpt lat="43.2431167" lon="12.1325633"><ele>507.0</ele><time>2026-03-29T09:59:35.324Z</time></trkpt><trkpt lat="43.24305" lon="12.132465"><ele>507.0</ele><time>2026-03-29T09:59:37.329Z</time></trkpt><trkpt lat="43.242975" lon="12.13244"><ele>507.0</ele><time>2026-03-29T09:59:40.323Z</time></trkpt><trkpt lat="43.2430233" lon="12.13252"><ele>507.0</ele><time>2026-03-29T09:59:50.325Z</time></trkpt><trkpt lat="43.2430767" lon="12.1326017"><ele>507.0</ele><time>2026-03-29T09:59:51.324Z</time></trkpt><trkpt lat="43.24311" lon="12.132685"><ele>507.0</ele><time>2026-03-29T09:59:52.32Z</time></trkpt><trkpt lat="43.2431317" lon="12.13278"><ele>507.0</ele><time>2026-03-29T09:59:53.322Z</time></trkpt><trkpt lat="43.2431367" lon="12.1328717"><ele>507.00000000000006</ele><time>2026-03-29T09:59:54.323Z</time></trkpt><trkpt lat="43.243105" lon="12.133035"><ele>507.00000000000006</ele><time>2026-03-29T09:59:56.323Z</time></trkpt><trkpt lat="43.2429967" lon="12.13316"><ele>507.0</ele><time>2026-03-29T09:59:58.324Z</time></trkpt><trkpt lat="43.2429317" lon="12.1331933"><ele>507.0</ele><time>2026-03-29T09:59:59.321Z</time></trkpt><trkpt lat="43.2428567" lon="12.1332017"><ele>511.40000000000003</ele><time>2026-03-29T10:00:00.319Z</time></trkpt><trkpt lat="43.24279" lon="12.1332183"><ele>515.8000000000001</ele><time>2026-03-29T10:00:01.319Z</time></trkpt><trkpt lat="43.2427083" lon="12.1332483"><ele>520.2</ele><time>2026-03-29T10:00:03.322Z</time></trkpt><trkpt lat="43.2427417" lon="12.1334233"><ele>524.6</ele><time>2026-03-29T10:00:06.322Z</time></trkpt><trkpt lat="43.2427733" lon="12.1334983"><ele>529.0</ele><time>2026-03-29T10:00:07.322Z</time></trkpt><trkpt lat="43.2427933" lon="12.1336467"><ele>532.8333333333334</ele><time>2026-03-29T10:00:09.321Z</time></trkpt><trkpt lat="43.2428167" lon="12.1337517"><ele>536.6666666666667</ele><time>2026-03-29T10:00:10.32Z</time></trkpt><trkpt lat="43.2428283" lon="12.1338383"><ele>540.5</ele><time>2026-03-29T10:00:11.32Z</time></trkpt><trkpt lat="43.2428067" lon="12.1340083"><ele>544.3333333333334</ele><time>2026-03-29T10:00:13.323Z</time></trkpt><trkpt lat="43.2427767" lon="12.1341067"><ele>548.1666666666666</ele><time>2026-03-29T10:00:14.324Z</time></trkpt><trkpt lat="43.2427417" lon="12.1341967"><ele>552.0</ele><time>2026-03-29T10:00:15.323Z</time></trkpt><trkpt lat="43.2427" lon="12.13429"><ele>553.1666666666666</ele><time>2026-03-29T10:00:17.323Z</time></trkpt><trkpt lat="43.2426383" lon="12.13427"><ele>554.3333333333334</ele><time>2026-03-29T10:00:33.321Z</time></trkpt><trkpt lat="43.24256" lon="12.134195"><ele>555.5</ele><time>2026-03-29T10:00:35.32Z</time></trkpt><trkpt lat="43.2424467" lon="12.1341333"><ele>556.6666666666667</ele><time>2026-03-29T10:00:37.321Z</time></trkpt><trkpt lat="43.242385" lon="12.134115"><ele>557.8333333333334</ele><time>2026-03-29T10:00:38.321Z</time></trkpt><trkpt lat="43.2423133" lon="12.1340983"><ele>559.0</ele><time>2026-03-29T10:00:39.329Z</time></trkpt><trkpt lat="43.2422433" lon="12.1340733"><ele>561.6666666666667</ele><time>2026-03-29T10:00:40.323Z</time></trkpt><trkpt lat="43.2421733" lon="12.1340417"><ele>564.3333333333334</ele><time>2026-03-29T10:00:41.321Z</time></trkpt><trkpt lat="43.2420967" lon="12.1340067"><ele>567.0</ele><time>2026-03-29T10:00:42.32Z</time></trkpt><trkpt lat="43.2420267" lon="12.1339733"><ele>569.6666666666666</ele><time>2026-03-29T10:00:43.324Z</time></trkpt><trkpt lat="43.241935" lon="12.13391"><ele>572.3333333333333</ele><time>2026-03-29T10:00:45.324Z</time></trkpt><trkpt lat="43.2418283" lon="12.13387"><ele>575.0</ele><time>2026-03-29T10:00:47.326Z</time></trkpt><trkpt lat="43.2417633" lon="12.1338467"><ele>575.0</ele><time>2026-03-29T10:00:48.322Z</time></trkpt><trkpt lat="43.2416983" lon="12.1338233"><ele>575.0</ele><time>2026-03-29T10:00:49.327Z</time></trkpt><trkpt lat="43.2415833" lon="12.1337617"><ele>575.0</ele><time>2026-03-29T10:00:51.321Z</time></trkpt><trkpt lat="43.2414783" lon="12.1337067"><ele>575.0</ele><time>2026-03-29T10:00:53.323Z</time></trkpt><trkpt lat="43.2413667" lon="12.1336583"><ele>575.0</ele><time>2026-03-29T10:00:55.323Z</time></trkpt><trkpt lat="43.241255" lon="12.13363"><ele>580.4</ele><time>2026-03-29T10:00:57.323Z</time></trkpt><trkpt lat="43.2411517" lon="12.133635"><ele>585.8</ele><time>2026-03-29T10:00:59.32Z</time></trkpt><trkpt lat="43.2410533" lon="12.1336433"><ele>591.2</ele><time>2026-03-29T10:01:01.32Z</time></trkpt><trkpt lat="43.2409633" lon="12.1336633"><ele>596.6</ele><time>2026-03-29T10:01:03.322Z</time></trkpt><trkpt lat="43.2408917" lon="12.1336517"><ele>602.0</ele><time>2026-03-29T10:01:05.32Z</time></trkpt><trkpt lat="43.2408067" lon="12.133635"><ele>602.0</ele><time>2026-03-29T10:01:07.327Z</time></trkpt><trkpt lat="43.2407367" lon="12.133595"><ele>602.0</ele><time>2026-03-29T10:01:09.323Z</time></trkpt><trkpt lat="43.2406517" lon="12.1335383"><ele>602.0</ele><time>2026-03-29T10:01:11.322Z</time></trkpt><trkpt lat="43.2405367" lon="12.1335033"><ele>602.0</ele><time>2026-03-29T10:01:13.321Z</time></trkpt><trkpt lat="43.240475" lon="12.13347"><ele>602.0</ele><time>2026-03-29T10:01:14.324Z</time></trkpt><trkpt lat="43.240355" lon="12.13342"><ele>606.3333333333333</ele><time>2026-03-29T10:01:16.322Z</time></trkpt><trkpt lat="43.2402817" lon="12.133405"><ele>610.6666666666666</ele><time>2026-03-29T10:01:17.321Z</time></trkpt><trkpt lat="43.2402" lon="12.1333917"><ele>615.0</ele><time>2026-03-29T10:01:18.323Z</time></trkpt><trkpt lat="43.2401333" lon="12.1333867"><ele>619.3333333333334</ele><time>2026-03-29T10:01:19.321Z</time></trkpt><trkpt lat="43.2400683" lon="12.13338"><ele>623.6666666666667</ele><time>2026-03-29T10:01:20.32Z</time></trkpt><trkpt lat="43.2399633" lon="12.13333"><ele>628.0</ele><time>2026-03-29T10:01:22.322Z</time></trkpt><trkpt lat="43.2398667" lon="12.13326"><ele>631.8333333333334</ele><time>2026-03-29T10:01:24.323Z</time></trkpt><trkpt lat="43.2397683" lon="12.1332"><ele>635.6666666666667</ele><time>2026-03-29T10:01:26.321Z</time></trkpt><trkpt lat="43.2396833" lon="12.1331617"><ele>639.5</ele><time>2026-03-29T10:01:28.323Z</time></trkpt><trkpt lat="43.239615" lon="12.133105"><ele>643.3333333333334</ele><time>2026-03-29T10:01:30.322Z</time></trkpt><trkpt lat="43.2395283" lon="12.13304"><ele>647.1666666666666</ele><time>2026-03-29T10:01:32.325Z</time></trkpt><trkpt lat="43.2394667" lon="12.1330033"><ele>651.0</ele><time>2026-03-29T10:01:33.321Z</time></trkpt><trkpt lat="43.239365" lon="12.1330183"><ele>651.0</ele><time>2026-03-29T10:01:35.32Z</time></trkpt><trkpt lat="43.2393017" lon="12.13306"><ele>651.0</ele><time>2026-03-29T10:01:36.319Z</time></trkpt><trkpt lat="43.2392283" lon="12.1330767"><ele>651.0</ele><time>2026-03-29T10:01:37.323Z</time></trkpt><trkpt lat="43.2391483" lon="12.1330767"><ele>651.0</ele><time>2026-03-29T10:01:38.322Z</time></trkpt><trkpt lat="43.2390733" lon="12.1330667"><ele>651.0</ele><time>2026-03-29T10:01:39.325Z</time></trkpt><trkpt lat="43.23901" lon="12.1330533"><ele>651.0</ele><time>2026-03-29T10:01:40.326Z</time></trkpt><trkpt lat="43.2389183" lon="12.1329633"><ele>651.8333333333334</ele><time>2026-03-29T10:01:42.323Z</time></trkpt><trkpt lat="43.2388767" lon="12.1328767"><ele>652.6666666666666</ele><time>2026-03-29T10:01:43.325Z</time></trkpt><trkpt lat="43.238845" lon="12.1327867"><ele>653.5</ele><time>2026-03-29T10:01:44.321Z</time></trkpt><trkpt lat="43.238815" lon="12.132705"><ele>654.3333333333333</ele><time>2026-03-29T10:01:45.321Z</time></trkpt><trkpt lat="43.23875" lon="12.132605"><ele>655.1666666666666</ele><time>2026-03-29T10:01:47.324Z</time></trkpt><trkpt lat="43.2386533" lon="12.1324783"><ele>656.0</ele><time>2026-03-29T10:02:06.323Z</time></trkpt><trkpt lat="43.23858" lon="12.1324117"><ele>659.8</ele><time>2026-03-29T10:02:08.321Z</time></trkpt><trkpt lat="43.2384733" lon="12.132345"><ele>663.5999999999999</ele><time>2026-03-29T10:02:10.323Z</time></trkpt><trkpt lat="43.2383917" lon="12.1323183"><ele>667.4</ele><time>2026-03-29T10:02:11.323Z</time></trkpt><trkpt lat="43.2382683" lon="12.132305"><ele>671.2</ele><time>2026-03-29T10:02:12.324Z</time></trkpt><trkpt lat="43.2381883" lon="12.1322917"><ele>675.0</ele><time>2026-03-29T10:02:13.324Z</time></trkpt><trkpt lat="43.2380883" lon="12.1322783"><ele>676.0</ele><time>2026-03-29T10:02:14.323Z</time></trkpt><trkpt lat="43.2379883" lon="12.1322667"><ele>677.0</ele><time>2026-03-29T10:02:15.322Z</time></trkpt><trkpt lat="43.237865" lon="12.1322717"><ele>678.0</ele><time>2026-03-29T10:02:16.32Z</time></trkpt><trkpt lat="43.2377417" lon="12.132275"><ele>679.0</ele><time>2026-03-29T10:02:17.32Z</time></trkpt><trkpt lat="43.2376367" lon="12.1322867"><ele>679.0</ele><time>2026-03-29T10:02:18.322Z</time></trkpt><trkpt lat="43.23753" lon="12.1323067"><ele>679.0</ele><time>2026-03-29T10:02:19.322Z</time></trkpt><trkpt lat="43.2374283" lon="12.1323433"><ele>679.0</ele><time>2026-03-29T10:02:20.32Z</time></trkpt><trkpt lat="43.237335" lon="12.13238"><ele>679.0</ele><time>2026-03-29T10:02:21.32Z</time></trkpt><trkpt lat="43.237245" lon="12.1324233"><ele>679.0</ele><time>2026-03-29T10:02:22.322Z</time></trkpt><trkpt lat="43.237155" lon="12.132475"><ele>675.5</ele><time>2026-03-29T10:02:23.319Z</time></trkpt><trkpt lat="43.2370683" lon="12.1325283"><ele>672.0</ele><time>2026-03-29T10:02:24.322Z</time></trkpt><trkpt lat="43.2369967" lon="12.1325683"><ele>668.5</ele><time>2026-03-29T10:02:25.321Z</time></trkpt><trkpt lat="43.2369317" lon="12.1325867"><ele>665.0</ele><time>2026-03-29T10:02:26.327Z</time></trkpt><trkpt lat="43.2368667" lon="12.1325933"><ele>661.5</ele><time>2026-03-29T10:02:27.32Z</time></trkpt><trkpt lat="43.2367917" lon="12.1325567"><ele>658.0</ele><time>2026-03-29T10:02:28.322Z</time></trkpt><trkpt lat="43.2367033" lon="12.1324767"><ele>663.25</ele><time>2026-03-29T10:02:29.321Z</time></trkpt><trkpt lat="43.2366083" lon="12.1323333"><ele>668.5</ele><time>2026-03-29T10:02:30.32Z</time></trkpt><trkpt lat="43.2364967" lon="12.13221"><ele>673.75</ele><time>2026-03-29T10:02:31.325Z</time></trkpt><trkpt lat="43.2363683" lon="12.1321133"><ele>679.0</ele><time>2026-03-29T10:02:32.325Z</time></trkpt><trkpt lat="43.23624" lon="12.1320083"><ele>679.25</ele><time>2026-03-29T10:02:33.321Z</time></trkpt><trkpt lat="43.2361183" lon="12.1319017"><ele>679.5</ele><time>2026-03-29T10:02:34.32Z</time></trkpt><trkpt lat="43.23602" lon="12.1318067"><ele>679.75</ele><time>2026-03-29T10:02:35.323Z</time></trkpt><trkpt lat="43.2359383" lon="12.1317283"><ele>680.0</ele><time>2026-03-29T10:02:36.318Z</time></trkpt><trkpt lat="43.2358467" lon="12.13169"><ele>680.0</ele><time>2026-03-29T10:02:37.32Z</time></trkpt><trkpt lat="43.2357633" lon="12.1316767"><ele>680.0</ele><time>2026-03-29T10:02:38.32Z</time></trkpt><trkpt lat="43.2356867" lon="12.13168"><ele>680.0</ele><time>2026-03-29T10:02:39.321Z</time></trkpt><trkpt lat="43.2356017" lon="12.1317083"><ele>680.0</ele><time>2026-03-29T10:02:40.325Z</time></trkpt><trkpt lat="43.2354917" lon="12.1317683"><ele>680.0</ele><time>2026-03-29T10:02:41.32Z</time></trkpt><trkpt lat="43.235385" lon="12.1318283"><ele>685.5</ele><time>2026-03-29T10:02:42.323Z</time></trkpt><trkpt lat="43.23527" lon="12.1318783"><ele>691.0</ele><time>2026-03-29T10:02:43.323Z</time></trkpt><trkpt lat="43.2351383" lon="12.1319183"><ele>696.5</ele><time>2026-03-29T10:02:44.321Z</time></trkpt><trkpt lat="43.2349983" lon="12.13192"><ele>702.0</ele><time>2026-03-29T10:02:45.321Z</time></trkpt><trkpt lat="43.2348533" lon="12.1319233"><ele>705.6666666666666</ele><time>2026-03-29T10:02:46.323Z</time></trkpt><trkpt lat="43.2346983" lon="12.13194"><ele>709.3333333333333</ele><time>2026-03-29T10:02:47.32Z</time></trkpt><trkpt lat="43.2345433" lon="12.1319767"><ele>713.0</ele><time>2026-03-29T10:02:48.322Z</time></trkpt><trkpt lat="43.2344017" lon="12.1320233"><ele>713.0</ele><time>2026-03-29T10:02:49.324Z</time></trkpt><trkpt lat="43.23427" lon="12.1320567"><ele>713.0</ele><time>2026-03-29T10:02:50.32Z</time></trkpt><trkpt lat="43.2341417" lon="12.1320783"><ele>713.0</ele><time>2026-03-29T10:02:51.322Z</time></trkpt><trkpt lat="43.234025" lon="12.1320733"><ele>713.0</ele><time>2026-03-29T10:02:52.321Z</time></trkpt><trkpt lat="43.23391" lon="12.1320417"><ele>713.8</ele><time>2026-03-29T10:02:53.326Z</time></trkpt><trkpt lat="43.233815" lon="12.1319783"><ele>714.5999999999999</ele><time>2026-03-29T10:02:54.325Z</time></trkpt><trkpt lat="43.2337533" lon="12.131915"><ele>715.4000000000001</ele><time>2026-03-29T10:02:55.32Z</time></trkpt><trkpt lat="43.2336467" lon="12.1318283"><ele>716.2</ele><time>2026-03-29T10:02:56.323Z</time></trkpt><trkpt lat="43.23354" lon="12.131735"><ele>717.0</ele><time>2026-03-29T10:02:57.322Z</time></trkpt><trkpt lat="43.2334467" lon="12.131645"><ele>717.0</ele><time>2026-03-29T10:02:58.323Z</time></trkpt><trkpt lat="43.23334" lon="12.1315583"><ele>717.0</ele><time>2026-03-29T10:03:00.325Z</time></trkpt><trkpt lat="43.23325" lon="12.1315233"><ele>717.0</ele><time>2026-03-29T10:03:02.32Z</time></trkpt><trkpt lat="43.23319" lon="12.1315733"><ele>717.0</ele><time>2026-03-29T10:03:05.32Z</time></trkpt><trkpt lat="43.2331483" lon="12.1316917"><ele>717.0</ele><time>2026-03-29T10:03:06.321Z</time></trkpt><trkpt lat="43.2330567" lon="12.1317817"><ele>719.2</ele><time>2026-03-29T10:03:07.322Z</time></trkpt><trkpt lat="43.23295" lon="12.1318783"><ele>721.4000000000001</ele><time>2026-03-29T10:03:08.322Z</time></trkpt><trkpt lat="43.2328567" lon="12.1319517"><ele>723.5999999999999</ele><time>2026-03-29T10:03:09.323Z</time></trkpt><trkpt lat="43.2327383" lon="12.1319783"><ele>725.8</ele><time>2026-03-29T10:03:10.32Z</time></trkpt><trkpt lat="43.232665" lon="12.1320433"><ele>728.0</ele><time>2026-03-29T10:03:11.32Z</time></trkpt><trkpt lat="43.2325383" lon="12.1320583"><ele>728.0</ele><time>2026-03-29T10:03:12.325Z</time></trkpt><trkpt lat="43.23244" lon="12.132095"><ele>728.0</ele><time>2026-03-29T10:03:13.32Z</time></trkpt><trkpt lat="43.2323217" lon="12.1321467"><ele>728.0</ele><time>2026-03-29T10:03:14.323Z</time></trkpt><trkpt lat="43.2322" lon="12.1322283"><ele>728.0</ele><time>2026-03-29T10:03:15.323Z</time></trkpt><trkpt lat="43.2320767" lon="12.1322983"><ele>728.2</ele><time>2026-03-29T10:03:16.322Z</time></trkpt><trkpt lat="43.2319683" lon="12.1323667"><ele>728.4</ele><time>2026-03-29T10:03:17.321Z</time></trkpt><trkpt lat="43.2318617" lon="12.1324233"><ele>728.6</ele><time>2026-03-29T10:03:18.32Z</time></trkpt><trkpt lat="43.2317567" lon="12.132465"><ele>728.8000000000001</ele><time>2026-03-29T10:03:19.322Z</time></trkpt><trkpt lat="43.2316533" lon="12.1324817"><ele>729.0</ele><time>2026-03-29T10:03:20.32Z</time></trkpt><trkpt lat="43.2315483" lon="12.1324717"><ele>728.1666666666666</ele><time>2026-03-29T10:03:21.325Z</time></trkpt><trkpt lat="43.2314633" lon="12.1324383"><ele>727.3333333333334</ele><time>2026-03-29T10:03:22.324Z</time></trkpt><trkpt lat="43.2313767" lon="12.1324"><ele>726.5</ele><time>2026-03-29T10:03:23.319Z</time></trkpt><trkpt lat="43.2313117" lon="12.1323717"><ele>725.6666666666667</ele><time>2026-03-29T10:03:24.322Z</time></trkpt><trkpt lat="43.2312233" lon="12.1323633"><ele>724.8333333333334</ele><time>2026-03-29T10:03:26.327Z</time></trkpt><trkpt lat="43.2311183" lon="12.13239"><ele>724.0</ele><time>2026-03-29T10:03:45.321Z</time></trkpt><trkpt lat="43.231185" lon="12.13236"><ele>724.0</ele><time>2026-03-29T10:03:51.325Z</time></trkpt><trkpt lat="43.2311367" lon="12.132425"><ele>724.0</ele><time>2026-03-29T10:04:04.323Z</time></trkpt><trkpt lat="43.2310817" lon="12.1325217"><ele>724.0</ele><time>2026-03-29T10:04:06.323Z</time></trkpt><trkpt lat="43.2310483" lon="12.13261"><ele>724.0</ele><time>2026-03-29T10:04:07.322Z</time></trkpt><trkpt lat="43.231015" lon="12.1327267"><ele>724.0</ele><time>2026-03-29T10:04:08.323Z</time></trkpt><trkpt lat="43.23098" lon="12.1328567"><ele>724.0</ele><time>2026-03-29T10:04:09.323Z</time></trkpt><trkpt lat="43.2309583" lon="12.132995"><ele>724.0</ele><time>2026-03-29T10:04:10.323Z</time></trkpt><trkpt lat="43.2309517" lon="12.1331483"><ele>724.0</ele><time>2026-03-29T10:04:11.322Z</time></trkpt><trkpt lat="43.2309567" lon="12.1333033"><ele>724.0</ele><time>2026-03-29T10:04:12.324Z</time></trkpt><trkpt lat="43.2309683" lon="12.1334517"><ele>724.0</ele><time>2026-03-29T10:04:13.322Z</time></trkpt><trkpt lat="43.230985" lon="12.133605"><ele>724.0</ele><time>2026-03-29T10:04:14.327Z</time></trkpt><trkpt lat="43.2310033" lon="12.1337383"><ele>724.2</ele><time>2026-03-29T10:04:15.321Z</time></trkpt><trkpt lat="43.23102" lon="12.1338633"><ele>724.4000000000001</ele><time>2026-03-29T10:04:16.323Z</time></trkpt><trkpt lat="43.2310333" lon="12.133985"><ele>724.6</ele><time>2026-03-29T10:04:17.321Z</time></trkpt><trkpt lat="43.23105" lon="12.13411"><ele>724.8</ele><time>2026-03-29T10:04:18.326Z</time></trkpt><trkpt lat="43.2310717" lon="12.1342467"><ele>725.0</ele><time>2026-03-29T10:04:19.32Z</time></trkpt><trkpt lat="43.2310833" lon="12.1343783"><ele>725.4</ele><time>2026-03-29T10:04:20.324Z</time></trkpt><trkpt lat="43.2310833" lon="12.1345217"><ele>725.8</ele><time>2026-03-29T10:04:21.323Z</time></trkpt><trkpt lat="43.2310833" lon="12.13466"><ele>726.2</ele><time>2026-03-29T10:04:22.322Z</time></trkpt><trkpt lat="43.231075" lon="12.1347967"><ele>726.6</ele><time>2026-03-29T10:04:23.322Z</time></trkpt><trkpt lat="43.2310717" lon="12.1349317"><ele>727.0</ele><time>2026-03-29T10:04:24.326Z</time></trkpt><trkpt lat="43.231065" lon="12.1350633"><ele>725.8333333333334</ele><time>2026-03-29T10:04:25.321Z</time></trkpt><trkpt lat="43.231055" lon="12.1351817"><ele>724.6666666666667</ele><time>2026-03-29T10:04:26.324Z</time></trkpt><trkpt lat="43.23104" lon="12.13529"><ele>723.5</ele><time>2026-03-29T10:04:27.324Z</time></trkpt><trkpt lat="43.231015" lon="12.1353983"><ele>722.3333333333334</ele><time>2026-03-29T10:04:28.325Z</time></trkpt><trkpt lat="43.2309767" lon="12.135505"><ele>721.1666666666666</ele><time>2026-03-29T10:04:29.321Z</time></trkpt><trkpt lat="43.230915" lon="12.135575"><ele>720.0</ele><time>2026-03-29T10:04:30.321Z</time></trkpt><trkpt lat="43.2308333" lon="12.1356133"><ele>720.0</ele><time>2026-03-29T10:04:31.325Z</time></trkpt><trkpt lat="43.2307417" lon="12.1356467"><ele>720.0</ele><time>2026-03-29T10:04:32.324Z</time></trkpt><trkpt lat="43.2306483" lon="12.1356917"><ele>720.0</ele><time>2026-03-29T10:04:33.323Z</time></trkpt><trkpt lat="43.2305483" lon="12.1357333"><ele>720.0</ele><time>2026-03-29T10:04:34.323Z</time></trkpt><trkpt lat="43.2304567" lon="12.1357683"><ele>720.0</ele><time>2026-03-29T10:04:35.323Z</time></trkpt><trkpt lat="43.2303717" lon="12.1358117"><ele>719.0</ele><time>2026-03-29T10:04:36.321Z</time></trkpt><trkpt lat="43.230295" lon="12.1358533"><ele>718.0</ele><time>2026-03-29T10:04:37.322Z</time></trkpt><trkpt lat="43.2302183" lon="12.1358867"><ele>717.0</ele><time>2026-03-29T10:04:38.321Z</time></trkpt><trkpt lat="43.2301517" lon="12.1359233"><ele>716.0</ele><time>2026-03-29T10:04:39.325Z</time></trkpt><trkpt lat="43.2300783" lon="12.13597"><ele>715.0</ele><time>2026-03-29T10:04:40.325Z</time></trkpt><trkpt lat="43.2300067" lon="12.1360317"><ele>714.0</ele><time>2026-03-29T10:04:41.325Z</time></trkpt><trkpt lat="43.2299383" lon="12.13609"><ele>714.0</ele><time>2026-03-29T10:04:42.322Z</time></trkpt><trkpt lat="43.22987" lon="12.136165"><ele>714.0</ele><time>2026-03-29T10:04:43.321Z</time></trkpt><trkpt lat="43.2298067" lon="12.1362683"><ele>714.0</ele><time>2026-03-29T10:04:44.32Z</time></trkpt><trkpt lat="43.2297483" lon="12.136395"><ele>714.0</ele><time>2026-03-29T10:04:45.322Z</time></trkpt><trkpt lat="43.2297" lon="12.1365333"><ele>714.0</ele><time>2026-03-29T10:04:46.327Z</time></trkpt><trkpt lat="43.2296617" lon="12.1366617"><ele>715.6666666666666</ele><time>2026-03-29T10:04:47.322Z</time></trkpt><trkpt lat="43.229645" lon="12.136785"><ele>717.3333333333334</ele><time>2026-03-29T10:04:48.321Z</time></trkpt><trkpt lat="43.22963" lon="12.1368967"><ele>719.0</ele><time>2026-03-29T10:04:49.324Z</time></trkpt><trkpt lat="43.2296267" lon="12.137015"><ele>720.6666666666667</ele><time>2026-03-29T10:04:50.325Z</time></trkpt><trkpt lat="43.2296167" lon="12.1371317"><ele>722.3333333333334</ele><time>2026-03-29T10:04:51.323Z</time></trkpt><trkpt lat="43.2296033" lon="12.1372383"><ele>724.0</ele><time>2026-03-29T10:04:52.322Z</time></trkpt><trkpt lat="43.2295917" lon="12.1373417"><ele>721.6666666666667</ele><time>2026-03-29T10:04:53.322Z</time></trkpt><trkpt lat="43.22957" lon="12.137445"><ele>719.3333333333334</ele><time>2026-03-29T10:04:54.322Z</time></trkpt><trkpt lat="43.2295417" lon="12.1375667"><ele>717.0</ele><time>2026-03-29T10:04:55.322Z</time></trkpt><trkpt lat="43.22951" lon="12.1376783"><ele>714.6666666666666</ele><time>2026-03-29T10:04:56.325Z</time></trkpt><trkpt lat="43.2294817" lon="12.1378"><ele>712.3333333333333</ele><time>2026-03-29T10:04:57.324Z</time></trkpt><trkpt lat="43.22946" lon="12.1379167"><ele>710.0</ele><time>2026-03-29T10:04:58.327Z</time></trkpt><trkpt lat="43.2294517" lon="12.1380367"><ele>710.0</ele><time>2026-03-29T10:04:59.32Z</time></trkpt><trkpt lat="43.2294417" lon="12.1381533"><ele>710.0</ele><time>2026-03-29T10:05:00.323Z</time></trkpt><trkpt lat="43.2294367" lon="12.1382467"><ele>710.0</ele><time>2026-03-29T10:05:01.324Z</time></trkpt><trkpt lat="43.2294483" lon="12.1383667"><ele>710.0</ele><time>2026-03-29T10:05:03.322Z</time></trkpt><trkpt lat="43.2294667" lon="12.13847"><ele>710.0</ele><time>2026-03-29T10:05:05.324Z</time></trkpt><trkpt lat="43.2295017" lon="12.13859"><ele>710.0</ele><time>2026-03-29T10:05:07.323Z</time></trkpt><trkpt lat="43.2295533" lon="12.1387167"><ele>710.0</ele><time>2026-03-29T10:05:09.32Z</time></trkpt><trkpt lat="43.22961" lon="12.1388583"><ele>710.0</ele><time>2026-03-29T10:05:11.321Z</time></trkpt><trkpt lat="43.2296483" lon="12.1389467"><ele>710.0</ele><time>2026-03-29T10:05:12.32Z</time></trkpt><trkpt lat="43.2296883" lon="12.13904"><ele>710.0</ele><time>2026-03-29T10:05:13.322Z</time></trkpt><trkpt lat="43.2297517" lon="12.139185"><ele>710.0</ele><time>2026-03-29T10:05:15.32Z</time></trkpt><trkpt lat="43.2298517" lon="12.1392867"><ele>709.6666666666666</ele><time>2026-03-29T10:05:17.32Z</time></trkpt><trkpt lat="43.2299017" lon="12.1393467"><ele>709.3333333333333</ele><time>2026-03-29T10:05:18.325Z</time></trkpt><trkpt lat="43.2299483" lon="12.139435"><ele>709.0</ele><time>2026-03-29T10:05:19.322Z</time></trkpt><trkpt lat="43.229995" lon="12.1395383"><ele>708.6666666666666</ele><time>2026-03-29T10:05:20.325Z</time></trkpt><trkpt lat="43.2300433" lon="12.139645"><ele>708.3333333333334</ele><time>2026-03-29T10:05:21.324Z</time></trkpt><trkpt lat="43.23008" lon="12.139745"><ele>708.0</ele><time>2026-03-29T10:05:22.323Z</time></trkpt><trkpt lat="43.2301183" lon="12.1398417"><ele>708.2</ele><time>2026-03-29T10:05:23.323Z</time></trkpt><trkpt lat="43.230155" lon="12.139925"><ele>708.4</ele><time>2026-03-29T10:05:24.326Z</time></trkpt><trkpt lat="43.2302" lon="12.1400183"><ele>708.6</ele><time>2026-03-29T10:05:25.321Z</time></trkpt><trkpt lat="43.2302367" lon="12.1400933"><ele>708.8000000000001</ele><time>2026-03-29T10:05:26.322Z</time></trkpt><trkpt lat="43.230305" lon="12.1402283"><ele>709.0</ele><time>2026-03-29T10:05:28.326Z</time></trkpt><trkpt lat="43.2303733" lon="12.1403583"><ele>709.0</ele><time>2026-03-29T10:05:30.322Z</time></trkpt><trkpt lat="43.2304033" lon="12.1404883"><ele>709.0</ele><time>2026-03-29T10:05:32.324Z</time></trkpt><trkpt lat="43.2304167" lon="12.1406117"><ele>709.0</ele><time>2026-03-29T10:05:34.322Z</time></trkpt><trkpt lat="43.23041" lon="12.1407317"><ele>709.0</ele><time>2026-03-29T10:05:36.324Z</time></trkpt><trkpt lat="43.2304017" lon="12.1408633"><ele>709.0</ele><time>2026-03-29T10:05:38.324Z</time></trkpt><trkpt lat="43.230355" lon="12.141005"><ele>706.1666666666667</ele><time>2026-03-29T10:05:40.324Z</time></trkpt><trkpt lat="43.2303167" lon="12.141075"><ele>703.3333333333334</ele><time>2026-03-29T10:05:41.323Z</time></trkpt><trkpt lat="43.230255" lon="12.1412367"><ele>700.5</ele><time>2026-03-29T10:05:43.322Z</time></trkpt><trkpt lat="43.2302267" lon="12.1413383"><ele>697.6666666666666</ele><time>2026-03-29T10:05:44.323Z</time></trkpt><trkpt lat="43.2302017" lon="12.1414467"><ele>694.8333333333333</ele><time>2026-03-29T10:05:45.322Z</time></trkpt><trkpt lat="43.23018" lon="12.1415567"><ele>692.0</ele><time>2026-03-29T10:05:46.321Z</time></trkpt><trkpt lat="43.2301633" lon="12.1416683"><ele>690.5</ele><time>2026-03-29T10:05:47.328Z</time></trkpt><trkpt lat="43.23015" lon="12.1417783"><ele>689.0</ele><time>2026-03-29T10:05:48.324Z</time></trkpt><trkpt lat="43.23013" lon="12.1418783"><ele>687.5</ele><time>2026-03-29T10:05:49.321Z</time></trkpt><trkpt lat="43.23011" lon="12.1419817"><ele>686.0</ele><time>2026-03-29T10:05:50.32Z</time></trkpt><trkpt lat="43.23008" lon="12.1420833"><ele>684.5</ele><time>2026-03-29T10:05:51.323Z</time></trkpt><trkpt lat="43.2300383" lon="12.1421833"><ele>683.0</ele><time>2026-03-29T10:05:52.322Z</time></trkpt><trkpt lat="43.2299933" lon="12.1422933"><ele>681.5999999999999</ele><time>2026-03-29T10:05:53.322Z</time></trkpt><trkpt lat="43.2299533" lon="12.1424133"><ele>680.1999999999999</ele><time>2026-03-29T10:05:54.321Z</time></trkpt><trkpt lat="43.2299267" lon="12.142545"><ele>678.8</ele><time>2026-03-29T10:05:55.326Z</time></trkpt><trkpt lat="43.2299033" lon="12.1426767"><ele>677.4</ele><time>2026-03-29T10:05:56.322Z</time></trkpt><trkpt lat="43.2298767" lon="12.1428033"><ele>676.0</ele><time>2026-03-29T10:05:57.321Z</time></trkpt><trkpt lat="43.2298383" lon="12.1429233"><ele>675.5</ele><time>2026-03-29T10:05:58.322Z</time></trkpt><trkpt lat="43.2297933" lon="12.1430333"><ele>675.0</ele><time>2026-03-29T10:05:59.319Z</time></trkpt><trkpt lat="43.2297433" lon="12.1431367"><ele>674.5</ele><time>2026-03-29T10:06:00.318Z</time></trkpt><trkpt lat="43.229695" lon="12.143235"><ele>674.0</ele><time>2026-03-29T10:06:01.324Z</time></trkpt><trkpt lat="43.2296483" lon="12.1433417"><ele>673.5</ele><time>2026-03-29T10:06:02.321Z</time></trkpt><trkpt lat="43.2296133" lon="12.143455"><ele>673.0</ele><time>2026-03-29T10:06:03.324Z</time></trkpt><trkpt lat="43.2295833" lon="12.1435667"><ele>673.0</ele><time>2026-03-29T10:06:04.323Z</time></trkpt><trkpt lat="43.2295483" lon="12.1436667"><ele>673.0</ele><time>2026-03-29T10:06:05.323Z</time></trkpt><trkpt lat="43.2295067" lon="12.143755"><ele>673.0</ele><time>2026-03-29T10:06:06.322Z</time></trkpt><trkpt lat="43.2294667" lon="12.143835"><ele>673.0</ele><time>2026-03-29T10:06:07.323Z</time></trkpt><trkpt lat="43.2294583" lon="12.143985"><ele>673.0</ele><time>2026-03-29T10:06:09.324Z</time></trkpt><trkpt lat="43.229525" lon="12.14411"><ele>674.5</ele><time>2026-03-29T10:06:11.322Z</time></trkpt><trkpt lat="43.2295733" lon="12.14422"><ele>676.0</ele><time>2026-03-29T10:06:13.321Z</time></trkpt><trkpt lat="43.22956" lon="12.14436"><ele>677.5</ele><time>2026-03-29T10:06:15.322Z</time></trkpt><trkpt lat="43.2295383" lon="12.1444533"><ele>679.0</ele><time>2026-03-29T10:06:16.321Z</time></trkpt><trkpt lat="43.22952" lon="12.14456"><ele>680.5</ele><time>2026-03-29T10:06:17.32Z</time></trkpt><trkpt lat="43.229495" lon="12.1446633"><ele>682.0</ele><time>2026-03-29T10:06:18.322Z</time></trkpt><trkpt lat="43.2294683" lon="12.1447583"><ele>682.0</ele><time>2026-03-29T10:06:19.321Z</time></trkpt><trkpt lat="43.2294567" lon="12.14485"><ele>682.0</ele><time>2026-03-29T10:06:20.321Z</time></trkpt><trkpt lat="43.2294633" lon="12.14494"><ele>682.0</ele><time>2026-03-29T10:06:21.321Z</time></trkpt><trkpt lat="43.2295117" lon="12.1450633"><ele>682.0</ele><time>2026-03-29T10:06:23.321Z</time></trkpt><trkpt lat="43.229535" lon="12.1451983"><ele>682.0</ele><time>2026-03-29T10:06:25.321Z</time></trkpt><trkpt lat="43.2295317" lon="12.1452883"><ele>682.0</ele><time>2026-03-29T10:06:26.323Z</time></trkpt><trkpt lat="43.2295383" lon="12.1454"><ele>684.4000000000001</ele><time>2026-03-29T10:06:27.322Z</time></trkpt><trkpt lat="43.2295483" lon="12.1455233"><ele>686.8000000000001</ele><time>2026-03-29T10:06:28.323Z</time></trkpt><trkpt lat="43.2295483" lon="12.1456517"><ele>689.2</ele><time>2026-03-29T10:06:29.321Z</time></trkpt><trkpt lat="43.22955" lon="12.1457983"><ele>691.6</ele><time>2026-03-29T10:06:30.321Z</time></trkpt><trkpt lat="43.2295483" lon="12.1459233"><ele>694.0</ele><time>2026-03-29T10:06:31.32Z</time></trkpt><trkpt lat="43.2295583" lon="12.1460483"><ele>694.3333333333334</ele><time>2026-03-29T10:06:32.323Z</time></trkpt><trkpt lat="43.2295783" lon="12.1461717"><ele>694.6666666666667</ele><time>2026-03-29T10:06:33.32Z</time></trkpt><trkpt lat="43.2296" lon="12.1462883"><ele>695.0</ele><time>2026-03-29T10:06:34.321Z</time></trkpt><trkpt lat="43.229625" lon="12.1463967"><ele>695.3333333333334</ele><time>2026-03-29T10:06:35.32Z</time></trkpt><trkpt lat="43.2296483" lon="12.1464883"><ele>695.6666666666666</ele><time>2026-03-29T10:06:36.325Z</time></trkpt><trkpt lat="43.229675" lon="12.1465717"><ele>696.0</ele><time>2026-03-29T10:06:37.322Z</time></trkpt><trkpt lat="43.2296983" lon="12.1466567"><ele>695.1666666666666</ele><time>2026-03-29T10:06:38.322Z</time></trkpt><trkpt lat="43.229715" lon="12.1467467"><ele>694.3333333333334</ele><time>2026-03-29T10:06:39.321Z</time></trkpt><trkpt lat="43.2297183" lon="12.1468483"><ele>693.5</ele><time>2026-03-29T10:06:40.321Z</time></trkpt><trkpt lat="43.2297217" lon="12.1469583"><ele>692.6666666666667</ele><time>2026-03-29T10:06:41.323Z</time></trkpt><trkpt lat="43.2297383" lon="12.1470717"><ele>691.8333333333334</ele><time>2026-03-29T10:06:42.322Z</time></trkpt><trkpt lat="43.2297633" lon="12.1471783"><ele>691.0</ele><time>2026-03-29T10:06:43.321Z</time></trkpt><trkpt lat="43.2297933" lon="12.1472867"><ele>691.8</ele><time>2026-03-29T10:06:44.32Z</time></trkpt><trkpt lat="43.22982" lon="12.1473933"><ele>692.5999999999999</ele><time>2026-03-29T10:06:45.321Z</time></trkpt><trkpt lat="43.2298433" lon="12.147515"><ele>693.4</ele><time>2026-03-29T10:06:46.326Z</time></trkpt><trkpt lat="43.2298717" lon="12.1476433"><ele>694.2</ele><time>2026-03-29T10:06:47.319Z</time></trkpt><trkpt lat="43.2299183" lon="12.1477667"><ele>695.0</ele><time>2026-03-29T10:06:48.32Z</time></trkpt><trkpt lat="43.229975" lon="12.1479"><ele>695.0</ele><time>2026-03-29T10:06:49.321Z</time></trkpt><trkpt lat="43.230035" lon="12.14804"><ele>695.0</ele><time>2026-03-29T10:06:50.319Z</time></trkpt><trkpt lat="43.230095" lon="12.14819"><ele>695.0</ele><time>2026-03-29T10:06:51.322Z</time></trkpt><trkpt lat="43.2301533" lon="12.1483433"><ele>695.0</ele><time>2026-03-29T10:06:52.324Z</time></trkpt><trkpt lat="43.2302167" lon="12.148505"><ele>695.0</ele><time>2026-03-29T10:06:53.322Z</time></trkpt><trkpt lat="43.230285" lon="12.14867"><ele>695.0</ele><time>2026-03-29T10:06:54.321Z</time></trkpt><trkpt lat="43.2303517" lon="12.14884"><ele>695.0</ele><time>2026-03-29T10:06:55.321Z</time></trkpt><trkpt lat="43.2304167" lon="12.1490117"><ele>695.0</ele><time>2026-03-29T10:06:56.319Z</time></trkpt><trkpt lat="43.2304833" lon="12.1491767"><ele>695.0</ele><time>2026-03-29T10:06:57.32Z</time></trkpt><trkpt lat="43.2305583" lon="12.1493383"><ele>695.0</ele><time>2026-03-29T10:06:58.325Z</time></trkpt><trkpt lat="43.2306367" lon="12.1494967"><ele>695.0</ele><time>2026-03-29T10:06:59.323Z</time></trkpt><trkpt lat="43.2307167" lon="12.1496517"><ele>695.0</ele><time>2026-03-29T10:07:00.322Z</time></trkpt><trkpt lat="43.2307783" lon="12.1498033"><ele>694.6</ele><time>2026-03-29T10:07:01.324Z</time></trkpt><trkpt lat="43.2308283" lon="12.1499383"><ele>694.2</ele><time>2026-03-29T10:07:02.322Z</time></trkpt><trkpt lat="43.2308783" lon="12.1500567"><ele>693.8</ele><time>2026-03-29T10:07:03.322Z</time></trkpt><trkpt lat="43.2309333" lon="12.15016"><ele>693.4</ele><time>2026-03-29T10:07:04.32Z</time></trkpt><trkpt lat="43.2309917" lon="12.1502567"><ele>693.0</ele><time>2026-03-29T10:07:05.321Z</time></trkpt><trkpt lat="43.2310467" lon="12.1503433"><ele>693.0</ele><time>2026-03-29T10:07:06.321Z</time></trkpt><trkpt lat="43.2310933" lon="12.150435"><ele>693.0</ele><time>2026-03-29T10:07:07.321Z</time></trkpt><trkpt lat="43.2311317" lon="12.15053"><ele>693.0</ele><time>2026-03-29T10:07:08.321Z</time></trkpt><trkpt lat="43.2311533" lon="12.1506267"><ele>693.0</ele><time>2026-03-29T10:07:09.321Z</time></trkpt><trkpt lat="43.231155" lon="12.15073"><ele>693.0</ele><time>2026-03-29T10:07:10.32Z</time></trkpt><trkpt lat="43.2311367" lon="12.150835"><ele>693.0</ele><time>2026-03-29T10:07:11.324Z</time></trkpt><trkpt lat="43.2311017" lon="12.1509383"><ele>692.4285714285714</ele><time>2026-03-29T10:07:12.322Z</time></trkpt><trkpt lat="43.2310467" lon="12.151005"><ele>691.8571428571429</ele><time>2026-03-29T10:07:13.323Z</time></trkpt><trkpt lat="43.2309767" lon="12.1510433"><ele>691.2857142857142</ele><time>2026-03-29T10:07:14.323Z</time></trkpt><trkpt lat="43.230905" lon="12.1510733"><ele>690.7142857142858</ele><time>2026-03-29T10:07:15.323Z</time></trkpt><trkpt lat="43.230835" lon="12.1510933"><ele>690.1428571428571</ele><time>2026-03-29T10:07:16.32Z</time></trkpt><trkpt lat="43.230765" lon="12.1511067"><ele>689.5714285714286</ele><time>2026-03-29T10:07:17.319Z</time></trkpt><trkpt lat="43.2307017" lon="12.1511283"><ele>689.0</ele><time>2026-03-29T10:07:18.32Z</time></trkpt><trkpt lat="43.2305983" lon="12.1512133"><ele>686.8000000000001</ele><time>2026-03-29T10:07:20.32Z</time></trkpt><trkpt lat="43.2305467" lon="12.1513383"><ele>684.6</ele><time>2026-03-29T10:07:22.324Z</time></trkpt><trkpt lat="43.230545" lon="12.1515133"><ele>682.4</ele><time>2026-03-29T10:07:24.321Z</time></trkpt><trkpt lat="43.230555" lon="12.1516267"><ele>680.2</ele><time>2026-03-29T10:07:25.323Z</time></trkpt><trkpt lat="43.230555" lon="12.1517417"><ele>678.0</ele><time>2026-03-29T10:07:26.321Z</time></trkpt><trkpt lat="43.2305383" lon="12.1518583"><ele>675.75</ele><time>2026-03-29T10:07:27.322Z</time></trkpt><trkpt lat="43.2305167" lon="12.151985"><ele>673.5</ele><time>2026-03-29T10:07:28.321Z</time></trkpt><trkpt lat="43.230505" lon="12.1521267"><ele>671.25</ele><time>2026-03-29T10:07:29.322Z</time></trkpt><trkpt lat="43.2305083" lon="12.1522867"><ele>669.0</ele><time>2026-03-29T10:07:30.323Z</time></trkpt><trkpt lat="43.2305183" lon="12.1524733"><ele>669.0</ele><time>2026-03-29T10:07:31.323Z</time></trkpt><trkpt lat="43.2305333" lon="12.1526633"><ele>669.0</ele><time>2026-03-29T10:07:32.324Z</time></trkpt><trkpt lat="43.2305533" lon="12.1528533"><ele>669.0</ele><time>2026-03-29T10:07:33.325Z</time></trkpt><trkpt lat="43.2305767" lon="12.1530383"><ele>669.0</ele><time>2026-03-29T10:07:34.32Z</time></trkpt><trkpt lat="43.2305983" lon="12.1532167"><ele>669.0</ele><time>2026-03-29T10:07:35.322Z</time></trkpt><trkpt lat="43.2306183" lon="12.1533767"><ele>669.0</ele><time>2026-03-29T10:07:36.324Z</time></trkpt><trkpt lat="43.230635" lon="12.1535233"><ele>669.0</ele><time>2026-03-29T10:07:37.321Z</time></trkpt><trkpt lat="43.2306517" lon="12.1536633"><ele>669.0</ele><time>2026-03-29T10:07:38.325Z</time></trkpt><trkpt lat="43.2306683" lon="12.1537933"><ele>669.0</ele><time>2026-03-29T10:07:39.32Z</time></trkpt><trkpt lat="43.2306833" lon="12.1539017"><ele>668.5</ele><time>2026-03-29T10:07:40.324Z</time></trkpt><trkpt lat="43.2306917" lon="12.1539967"><ele>668.0</ele><time>2026-03-29T10:07:41.321Z</time></trkpt><trkpt lat="43.2306933" lon="12.1540867"><ele>667.5</ele><time>2026-03-29T10:07:42.32Z</time></trkpt><trkpt lat="43.2306767" lon="12.1541767"><ele>667.0</ele><time>2026-03-29T10:07:43.32Z</time></trkpt><trkpt lat="43.2306383" lon="12.1542617"><ele>666.5</ele><time>2026-03-29T10:07:44.319Z</time></trkpt><trkpt lat="43.230585" lon="12.15435"><ele>666.0</ele><time>2026-03-29T10:07:45.32Z</time></trkpt><trkpt lat="43.2305217" lon="12.1544517"><ele>664.5999999999999</ele><time>2026-03-29T10:07:46.32Z</time></trkpt><trkpt lat="43.2304583" lon="12.1545567"><ele>663.2</ele><time>2026-03-29T10:07:47.321Z</time></trkpt><trkpt lat="43.2304017" lon="12.1546767"><ele>661.8</ele><time>2026-03-29T10:07:48.319Z</time></trkpt><trkpt lat="43.2303567" lon="12.1548183"><ele>660.4000000000001</ele><time>2026-03-29T10:07:49.321Z</time></trkpt><trkpt lat="43.2303167" lon="12.1549767"><ele>659.0</ele><time>2026-03-29T10:07:50.321Z</time></trkpt><trkpt lat="43.230275" lon="12.1551483"><ele>658.25</ele><time>2026-03-29T10:07:51.322Z</time></trkpt><trkpt lat="43.2302267" lon="12.155325"><ele>657.5</ele><time>2026-03-29T10:07:52.321Z</time></trkpt><trkpt lat="43.2301717" lon="12.155505"><ele>656.75</ele><time>2026-03-29T10:07:53.321Z</time></trkpt><trkpt lat="43.2301183" lon="12.155685"><ele>656.0</ele><time>2026-03-29T10:07:54.322Z</time></trkpt><trkpt lat="43.2300683" lon="12.1558633"><ele>656.0</ele><time>2026-03-29T10:07:55.32Z</time></trkpt><trkpt lat="43.2300183" lon="12.1560367"><ele>656.0</ele><time>2026-03-29T10:07:56.322Z</time></trkpt><trkpt lat="43.2299767" lon="12.1561917"><ele>656.0</ele><time>2026-03-29T10:07:57.32Z</time></trkpt><trkpt lat="43.2299383" lon="12.156325"><ele>656.0</ele><time>2026-03-29T10:07:58.321Z</time></trkpt><trkpt lat="43.2299067" lon="12.1564433"><ele>656.1666666666666</ele><time>2026-03-29T10:07:59.32Z</time></trkpt><trkpt lat="43.229875" lon="12.1565517"><ele>656.3333333333333</ele><time>2026-03-29T10:08:00.32Z</time></trkpt><trkpt lat="43.2298417" lon="12.1566533"><ele>656.5</ele><time>2026-03-29T10:08:01.32Z</time></trkpt><trkpt lat="43.2298083" lon="12.156755"><ele>656.6666666666666</ele><time>2026-03-29T10:08:02.317Z</time></trkpt><trkpt lat="43.22979" lon="12.1568633"><ele>656.8333333333334</ele><time>2026-03-29T10:08:03.32Z</time></trkpt><trkpt lat="43.2297833" lon="12.15698"><ele>657.0</ele><time>2026-03-29T10:08:04.32Z</time></trkpt><trkpt lat="43.2297933" lon="12.1571083"><ele>657.0</ele><time>2026-03-29T10:08:05.322Z</time></trkpt><trkpt lat="43.2298133" lon="12.1572383"><ele>657.0</ele><time>2026-03-29T10:08:06.322Z</time></trkpt><trkpt lat="43.22984" lon="12.1573617"><ele>657.0</ele><time>2026-03-29T10:08:07.321Z</time></trkpt><trkpt lat="43.2298683" lon="12.157485"><ele>657.0</ele><time>2026-03-29T10:08:08.32Z</time></trkpt><trkpt lat="43.2298917" lon="12.1576083"><ele>657.0</ele><time>2026-03-29T10:08:09.32Z</time></trkpt><trkpt lat="43.2299033" lon="12.157735"><ele>654.6</ele><time>2026-03-29T10:08:10.32Z</time></trkpt><trkpt lat="43.2299" lon="12.1578633"><ele>652.2</ele><time>2026-03-29T10:08:11.322Z</time></trkpt><trkpt lat="43.22989" lon="12.1579917"><ele>649.8</ele><time>2026-03-29T10:08:12.32Z</time></trkpt><trkpt lat="43.2298633" lon="12.15812"><ele>647.4</ele><time>2026-03-29T10:08:13.321Z</time></trkpt><trkpt lat="43.2298233" lon="12.1582467"><ele>645.0</ele><time>2026-03-29T10:08:14.322Z</time></trkpt><trkpt lat="43.229775" lon="12.158375"><ele>642.8</ele><time>2026-03-29T10:08:15.324Z</time></trkpt><trkpt lat="43.2297167" lon="12.1585017"><ele>640.6</ele><time>2026-03-29T10:08:16.32Z</time></trkpt><trkpt lat="43.229645" lon="12.1585967"><ele>638.4</ele><time>2026-03-29T10:08:17.322Z</time></trkpt><trkpt lat="43.2295617" lon="12.15868"><ele>636.2</ele><time>2026-03-29T10:08:18.32Z</time></trkpt><trkpt lat="43.229475" lon="12.15876"><ele>634.0</ele><time>2026-03-29T10:08:19.323Z</time></trkpt><trkpt lat="43.2293883" lon="12.1588533"><ele>634.0</ele><time>2026-03-29T10:08:20.321Z</time></trkpt><trkpt lat="43.22931" lon="12.1589467"><ele>634.0</ele><time>2026-03-29T10:08:21.326Z</time></trkpt><trkpt lat="43.2292533" lon="12.15905"><ele>634.0</ele><time>2026-03-29T10:08:22.321Z</time></trkpt><trkpt lat="43.2292167" lon="12.1591633"><ele>634.0</ele><time>2026-03-29T10:08:23.322Z</time></trkpt><trkpt lat="43.2291967" lon="12.15929"><ele>634.0</ele><time>2026-03-29T10:08:24.321Z</time></trkpt><trkpt lat="43.22918" lon="12.1594233"><ele>634.2</ele><time>2026-03-29T10:08:25.323Z</time></trkpt><trkpt lat="43.229165" lon="12.1595617"><ele>634.4</ele><time>2026-03-29T10:08:26.324Z</time></trkpt><trkpt lat="43.22914" lon="12.1597067"><ele>634.6</ele><time>2026-03-29T10:08:27.322Z</time></trkpt><trkpt lat="43.2291" lon="12.159855"><ele>634.8</ele><time>2026-03-29T10:08:28.321Z</time></trkpt><trkpt lat="43.22904" lon="12.15999"><ele>635.0</ele><time>2026-03-29T10:08:29.32Z</time></trkpt><trkpt lat="43.2289683" lon="12.1601133"><ele>635.0</ele><time>2026-03-29T10:08:30.319Z</time></trkpt><trkpt lat="43.2288817" lon="12.1602133"><ele>635.0</ele><time>2026-03-29T10:08:31.321Z</time></trkpt><trkpt lat="43.2287867" lon="12.1602983"><ele>635.0</ele><time>2026-03-29T10:08:32.32Z</time></trkpt><trkpt lat="43.2286883" lon="12.1603683"><ele>635.0</ele><time>2026-03-29T10:08:33.324Z</time></trkpt><trkpt lat="43.2286017" lon="12.1604433"><ele>635.0</ele><time>2026-03-29T10:08:34.32Z</time></trkpt><trkpt lat="43.2285317" lon="12.1605317"><ele>635.0</ele><time>2026-03-29T10:08:35.321Z</time></trkpt><trkpt lat="43.2284783" lon="12.1606167"><ele>635.0</ele><time>2026-03-29T10:08:36.321Z</time></trkpt><trkpt lat="43.2284217" lon="12.1607567"><ele>635.0</ele><time>2026-03-29T10:08:38.319Z</time></trkpt><trkpt lat="43.228415" lon="12.16087"><ele>635.0</ele><time>2026-03-29T10:10:12.321Z</time></trkpt><trkpt lat="43.2284167" lon="12.1610133"><ele>635.0</ele><time>2026-03-29T10:10:14.321Z</time></trkpt><trkpt lat="43.2284267" lon="12.16121"><ele>636.8333333333333</ele><time>2026-03-29T10:10:16.321Z</time></trkpt><trkpt lat="43.2284317" lon="12.16134"><ele>638.6666666666666</ele><time>2026-03-29T10:10:17.321Z</time></trkpt><trkpt lat="43.228435" lon="12.16147"><ele>640.5</ele><time>2026-03-29T10:10:18.323Z</time></trkpt><trkpt lat="43.2284317" lon="12.16159"><ele>642.3333333333334</ele><time>2026-03-29T10:10:19.321Z</time></trkpt><trkpt lat="43.2284233" lon="12.1616983"><ele>644.1666666666667</ele><time>2026-03-29T10:10:20.32Z</time></trkpt><trkpt lat="43.2284133" lon="12.1618"><ele>646.0</ele><time>2026-03-29T10:10:21.325Z</time></trkpt><trkpt lat="43.2283983" lon="12.16189"><ele>645.8</ele><time>2026-03-29T10:10:22.323Z</time></trkpt><trkpt lat="43.2283267" lon="12.1619967"><ele>645.5999999999999</ele><time>2026-03-29T10:10:24.324Z</time></trkpt><trkpt lat="43.22826" lon="12.1620383"><ele>645.4</ele><time>2026-03-29T10:10:25.321Z</time></trkpt><trkpt lat="43.2281733" lon="12.1620883"><ele>645.2</ele><time>2026-03-29T10:10:26.321Z</time></trkpt><trkpt lat="43.22805" lon="12.162175"><ele>645.0</ele><time>2026-03-29T10:10:27.321Z</time></trkpt><trkpt lat="43.2279217" lon="12.1622683"><ele>645.0</ele><time>2026-03-29T10:10:28.322Z</time></trkpt><trkpt lat="43.2277967" lon="12.16236"><ele>645.0</ele><time>2026-03-29T10:10:29.319Z</time></trkpt><trkpt lat="43.2276783" lon="12.162445"><ele>645.0</ele><time>2026-03-29T10:10:30.322Z</time></trkpt><trkpt lat="43.2275617" lon="12.1625267"><ele>645.0</ele><time>2026-03-29T10:10:31.321Z</time></trkpt><trkpt lat="43.2274467" lon="12.1625983"><ele>645.2</ele><time>2026-03-29T10:10:32.321Z</time></trkpt><trkpt lat="43.22734" lon="12.1626633"><ele>645.4</ele><time>2026-03-29T10:10:33.326Z</time></trkpt><trkpt lat="43.22724" lon="12.1627217"><ele>645.5999999999999</ele><time>2026-03-29T10:10:34.32Z</time></trkpt><trkpt lat="43.2271483" lon="12.1627717"><ele>645.8</ele><time>2026-03-29T10:10:35.322Z</time></trkpt><trkpt lat="43.2270567" lon="12.16281"><ele>646.0</ele><time>2026-03-29T10:10:36.323Z</time></trkpt><trkpt lat="43.2269717" lon="12.1628367"><ele>643.8</ele><time>2026-03-29T10:10:37.325Z</time></trkpt><trkpt lat="43.2268867" lon="12.16284"><ele>641.5999999999999</ele><time>2026-03-29T10:10:38.323Z</time></trkpt><trkpt lat="43.2267933" lon="12.1628167"><ele>639.4</ele><time>2026-03-29T10:10:39.324Z</time></trkpt><trkpt lat="43.2267" lon="12.1627833"><ele>637.2</ele><time>2026-03-29T10:10:40.32Z</time></trkpt><trkpt lat="43.2265967" lon="12.1627483"><ele>635.0</ele><time>2026-03-29T10:10:41.321Z</time></trkpt><trkpt lat="43.2264883" lon="12.1627017"><ele>632.75</ele><time>2026-03-29T10:10:42.322Z</time></trkpt><trkpt lat="43.2263717" lon="12.162655"><ele>630.5</ele><time>2026-03-29T10:10:43.324Z</time></trkpt><trkpt lat="43.2262617" lon="12.16261"><ele>628.25</ele><time>2026-03-29T10:10:44.32Z</time></trkpt><trkpt lat="43.22615" lon="12.162565"><ele>626.0</ele><time>2026-03-29T10:10:45.32Z</time></trkpt><trkpt lat="43.2260367" lon="12.16252"><ele>626.0</ele><time>2026-03-29T10:10:46.322Z</time></trkpt><trkpt lat="43.2259183" lon="12.1624733"><ele>626.0</ele><time>2026-03-29T10:10:47.323Z</time></trkpt><trkpt lat="43.2257983" lon="12.1624283"><ele>626.0</ele><time>2026-03-29T10:10:48.323Z</time></trkpt><trkpt lat="43.2256767" lon="12.162385"><ele>626.0</ele><time>2026-03-29T10:10:49.321Z</time></trkpt><trkpt lat="43.2255567" lon="12.162345"><ele>622.75</ele><time>2026-03-29T10:10:50.322Z</time></trkpt><trkpt lat="43.2254417" lon="12.1623067"><ele>619.5</ele><time>2026-03-29T10:10:51.324Z</time></trkpt><trkpt lat="43.2253267" lon="12.1622717"><ele>616.25</ele><time>2026-03-29T10:10:52.321Z</time></trkpt><trkpt lat="43.22521" lon="12.1622417"><ele>613.0</ele><time>2026-03-29T10:10:53.324Z</time></trkpt><trkpt lat="43.2250967" lon="12.1622217"><ele>613.0</ele><time>2026-03-29T10:10:54.322Z</time></trkpt><trkpt lat="43.224975" lon="12.1622217"><ele>613.0</ele><time>2026-03-29T10:10:55.322Z</time></trkpt><trkpt lat="43.2248533" lon="12.1622267"><ele>613.0</ele><time>2026-03-29T10:10:56.319Z</time></trkpt><trkpt lat="43.2247333" lon="12.1622283"><ele>613.0</ele><time>2026-03-29T10:10:57.321Z</time></trkpt><trkpt lat="43.2246133" lon="12.1622183"><ele>611.0</ele><time>2026-03-29T10:10:58.321Z</time></trkpt><trkpt lat="43.224495" lon="12.1622033"><ele>609.0</ele><time>2026-03-29T10:10:59.319Z</time></trkpt><trkpt lat="43.2243783" lon="12.16219"><ele>607.0</ele><time>2026-03-29T10:11:00.321Z</time></trkpt><trkpt lat="43.224255" lon="12.16218"><ele>605.0</ele><time>2026-03-29T10:11:01.324Z</time></trkpt><trkpt lat="43.2241233" lon="12.162185"><ele>605.0</ele><time>2026-03-29T10:11:02.321Z</time></trkpt><trkpt lat="43.2239933" lon="12.1622033"><ele>605.0</ele><time>2026-03-29T10:11:03.322Z</time></trkpt><trkpt lat="43.223865" lon="12.162225"><ele>605.0</ele><time>2026-03-29T10:11:04.319Z</time></trkpt><trkpt lat="43.223735" lon="12.1622467"><ele>605.0</ele><time>2026-03-29T10:11:05.324Z</time></trkpt><trkpt lat="43.223605" lon="12.1622683"><ele>602.5</ele><time>2026-03-29T10:11:06.322Z</time></trkpt><trkpt lat="43.2234783" lon="12.1622917"><ele>600.0</ele><time>2026-03-29T10:11:07.321Z</time></trkpt><trkpt lat="43.2233483" lon="12.162315"><ele>597.5</ele><time>2026-03-29T10:11:08.32Z</time></trkpt><trkpt lat="43.2232217" lon="12.1623317"><ele>595.0</ele><time>2026-03-29T10:11:09.325Z</time></trkpt><trkpt lat="43.2231017" lon="12.1623433"><ele>594.25</ele><time>2026-03-29T10:11:10.321Z</time></trkpt><trkpt lat="43.222985" lon="12.1623633"><ele>593.5</ele><time>2026-03-29T10:11:11.324Z</time></trkpt><trkpt lat="43.2228683" lon="12.1623867"><ele>592.75</ele><time>2026-03-29T10:11:12.321Z</time></trkpt><trkpt lat="43.22275" lon="12.1624133"><ele>592.0</ele><time>2026-03-29T10:11:13.321Z</time></trkpt><trkpt lat="43.222635" lon="12.1624467"><ele>592.0</ele><time>2026-03-29T10:11:14.32Z</time></trkpt><trkpt lat="43.2225283" lon="12.1624783"><ele>592.0</ele><time>2026-03-29T10:11:15.322Z</time></trkpt><trkpt lat="43.2224367" lon="12.1625117"><ele>592.0</ele><time>2026-03-29T10:11:16.324Z</time></trkpt><trkpt lat="43.2223583" lon="12.162545"><ele>592.0</ele><time>2026-03-29T10:11:17.321Z</time></trkpt><trkpt lat="43.22229" lon="12.1625683"><ele>592.0</ele><time>2026-03-29T10:11:18.322Z</time></trkpt><trkpt lat="43.2221767" lon="12.1625667"><ele>590.6</ele><time>2026-03-29T10:11:20.323Z</time></trkpt><trkpt lat="43.2220583" lon="12.1626033"><ele>589.2</ele><time>2026-03-29T10:11:22.32Z</time></trkpt><trkpt lat="43.2219733" lon="12.162645"><ele>587.8</ele><time>2026-03-29T10:11:23.324Z</time></trkpt><trkpt lat="43.2218767" lon="12.1626833"><ele>586.4</ele><time>2026-03-29T10:11:24.321Z</time></trkpt><trkpt lat="43.2217783" lon="12.1627083"><ele>585.0</ele><time>2026-03-29T10:11:25.323Z</time></trkpt><trkpt lat="43.2216817" lon="12.16272"><ele>585.0</ele><time>2026-03-29T10:11:26.324Z</time></trkpt><trkpt lat="43.22159" lon="12.1627367"><ele>585.0</ele><time>2026-03-29T10:11:27.322Z</time></trkpt><trkpt lat="43.2214983" lon="12.1627633"><ele>585.0</ele><time>2026-03-29T10:11:28.322Z</time></trkpt><trkpt lat="43.221415" lon="12.1627867"><ele>585.0</ele><time>2026-03-29T10:11:29.322Z</time></trkpt><trkpt lat="43.2213283" lon="12.1628133"><ele>585.0</ele><time>2026-03-29T10:11:30.321Z</time></trkpt><trkpt lat="43.221245" lon="12.1628467"><ele>585.0</ele><time>2026-03-29T10:11:31.319Z</time></trkpt><trkpt lat="43.22116" lon="12.1628817"><ele>584.1666666666666</ele><time>2026-03-29T10:11:32.323Z</time></trkpt><trkpt lat="43.2210733" lon="12.16291"><ele>583.3333333333334</ele><time>2026-03-29T10:11:33.32Z</time></trkpt><trkpt lat="43.22099" lon="12.16294"><ele>582.5</ele><time>2026-03-29T10:11:34.32Z</time></trkpt><trkpt lat="43.2209083" lon="12.1629833"><ele>581.6666666666667</ele><time>2026-03-29T10:11:35.32Z</time></trkpt><trkpt lat="43.2208367" lon="12.1630433"><ele>580.8333333333334</ele><time>2026-03-29T10:11:36.323Z</time></trkpt><trkpt lat="43.2207833" lon="12.16311"><ele>580.0</ele><time>2026-03-29T10:11:37.321Z</time></trkpt><trkpt lat="43.2207167" lon="12.1632533"><ele>580.0</ele><time>2026-03-29T10:11:39.325Z</time></trkpt><trkpt lat="43.2206917" lon="12.1633367"><ele>580.0</ele><time>2026-03-29T10:11:40.321Z</time></trkpt><trkpt lat="43.220675" lon="12.1634233"><ele>580.0</ele><time>2026-03-29T10:11:41.32Z</time></trkpt><trkpt lat="43.2206717" lon="12.1635183"><ele>580.0</ele><time>2026-03-29T10:11:42.321Z</time></trkpt><trkpt lat="43.220685" lon="12.16362"><ele>580.0</ele><time>2026-03-29T10:11:43.321Z</time></trkpt><trkpt lat="43.2207033" lon="12.1637183"><ele>580.0</ele><time>2026-03-29T10:11:44.32Z</time></trkpt><trkpt lat="43.2207333" lon="12.1638167"><ele>580.0</ele><time>2026-03-29T10:11:45.322Z</time></trkpt><trkpt lat="43.22077" lon="12.1639133"><ele>580.0</ele><time>2026-03-29T10:11:46.319Z</time></trkpt><trkpt lat="43.2208183" lon="12.16401"><ele>580.0</ele><time>2026-03-29T10:11:47.321Z</time></trkpt><trkpt lat="43.220885" lon="12.164095"><ele>580.0</ele><time>2026-03-29T10:11:48.322Z</time></trkpt><trkpt lat="43.2209583" lon="12.1641717"><ele>580.0</ele><time>2026-03-29T10:11:49.322Z</time></trkpt><trkpt lat="43.2210233" lon="12.1642417"><ele>580.0</ele><time>2026-03-29T10:11:50.323Z</time></trkpt><trkpt lat="43.2210817" lon="12.1643133"><ele>580.0</ele><time>2026-03-29T10:11:51.321Z</time></trkpt><trkpt lat="43.22113" lon="12.1643883"><ele>578.4</ele><time>2026-03-29T10:11:52.319Z</time></trkpt><trkpt lat="43.2211717" lon="12.1644567"><ele>576.8</ele><time>2026-03-29T10:11:53.32Z</time></trkpt><trkpt lat="43.22125" lon="12.164575"><ele>575.2</ele><time>2026-03-29T10:11:55.322Z</time></trkpt><trkpt lat="43.2213217" lon="12.164685"><ele>573.6</ele><time>2026-03-29T10:11:57.32Z</time></trkpt><trkpt lat="43.221395" lon="12.1647817"><ele>572.0</ele><time>2026-03-29T10:11:59.323Z</time></trkpt><trkpt lat="43.2214483" lon="12.1648617"><ele>568.6666666666666</ele><time>2026-03-29T10:12:01.322Z</time></trkpt><trkpt lat="43.2213767" lon="12.16495"><ele>565.3333333333333</ele><time>2026-03-29T10:12:04.322Z</time></trkpt><trkpt lat="43.2212883" lon="12.1649433"><ele>562.0</ele><time>2026-03-29T10:12:06.322Z</time></trkpt><trkpt lat="43.22121" lon="12.1649483"><ele>558.6666666666666</ele><time>2026-03-29T10:12:08.322Z</time></trkpt><trkpt lat="43.221185" lon="12.1650567"><ele>555.3333333333334</ele><time>2026-03-29T10:12:11.322Z</time></trkpt><trkpt lat="43.2212583" lon="12.16514"><ele>552.0</ele><time>2026-03-29T10:12:13.324Z</time></trkpt><trkpt lat="43.2213683" lon="12.16521"><ele>552.0</ele><time>2026-03-29T10:12:15.322Z</time></trkpt><trkpt lat="43.221445" lon="12.1652867"><ele>552.0</ele><time>2026-03-29T10:12:17.32Z</time></trkpt><trkpt lat="43.2214283" lon="12.1654217"><ele>552.0</ele><time>2026-03-29T10:12:19.322Z</time></trkpt><trkpt lat="43.2213433" lon="12.1655383"><ele>552.0</ele><time>2026-03-29T10:12:21.322Z</time></trkpt><trkpt lat="43.2212567" lon="12.1656083"><ele>552.0</ele><time>2026-03-29T10:12:23.32Z</time></trkpt><trkpt lat="43.22117" lon="12.1656467"><ele>552.0</ele><time>2026-03-29T10:12:25.322Z</time></trkpt><trkpt lat="43.2211" lon="12.1656783"><ele>552.0</ele><time>2026-03-29T10:12:27.323Z</time></trkpt><trkpt lat="43.221035" lon="12.1657133"><ele>552.0</ele><time>2026-03-29T10:12:29.324Z</time></trkpt><trkpt lat="43.220995" lon="12.165825"><ele>552.0</ele><time>2026-03-29T10:12:32.322Z</time></trkpt><trkpt lat="43.2210033" lon="12.1659483"><ele>552.0</ele><time>2026-03-29T10:12:34.323Z</time></trkpt><trkpt lat="43.220975" lon="12.1660767"><ele>552.0</ele><time>2026-03-29T10:12:36.319Z</time></trkpt><trkpt lat="43.220935" lon="12.1662217"><ele>549.2</ele><time>2026-03-29T10:12:38.321Z</time></trkpt><trkpt lat="43.2209217" lon="12.1663817"><ele>546.4000000000001</ele><time>2026-03-29T10:12:40.319Z</time></trkpt><trkpt lat="43.2209167" lon="12.1665483"><ele>543.5999999999999</ele><time>2026-03-29T10:12:42.32Z</time></trkpt><trkpt lat="43.220915" lon="12.1666933"><ele>540.8</ele><time>2026-03-29T10:12:44.32Z</time></trkpt><trkpt lat="43.2209683" lon="12.1668"><ele>538.0</ele><time>2026-03-29T10:12:46.32Z</time></trkpt><trkpt lat="43.2210433" lon="12.1668933"><ele>535.1999999999999</ele><time>2026-03-29T10:12:48.323Z</time></trkpt><trkpt lat="43.22108" lon="12.1670183"><ele>532.4</ele><time>2026-03-29T10:12:50.32Z</time></trkpt><trkpt lat="43.2210867" lon="12.1671567"><ele>529.5999999999999</ele><time>2026-03-29T10:12:52.323Z</time></trkpt><trkpt lat="43.22104" lon="12.1672767"><ele>526.8</ele><time>2026-03-29T10:12:54.321Z</time></trkpt><trkpt lat="43.2209733" lon="12.167365"><ele>524.0</ele><time>2026-03-29T10:12:56.321Z</time></trkpt><trkpt lat="43.2209417" lon="12.1674617"><ele>521.5</ele><time>2026-03-29T10:12:58.323Z</time></trkpt><trkpt lat="43.220965" lon="12.1675567"><ele>519.0</ele><time>2026-03-29T10:13:00.323Z</time></trkpt><trkpt lat="43.221" lon="12.1676467"><ele>516.5</ele><time>2026-03-29T10:13:02.322Z</time></trkpt><trkpt lat="43.2210183" lon="12.1677567"><ele>514.0</ele><time>2026-03-29T10:13:04.322Z</time></trkpt><trkpt lat="43.2209983" lon="12.167875"><ele>511.49999999999994</ele><time>2026-03-29T10:13:06.323Z</time></trkpt><trkpt lat="43.2209317" lon="12.1679533"><ele>509.0</ele><time>2026-03-29T10:13:08.322Z</time></trkpt><trkpt lat="43.2208533" lon="12.1680117"><ele>508.99999999999994</ele><time>2026-03-29T10:13:10.323Z</time></trkpt><trkpt lat="43.220785" lon="12.1680533"><ele>509.0</ele><time>2026-03-29T10:13:12.323Z</time></trkpt><trkpt lat="43.2207117" lon="12.16809"><ele>509.0</ele><time>2026-03-29T10:13:15.321Z</time></trkpt><trkpt lat="43.2206383" lon="12.1681333"><ele>509.0</ele><time>2026-03-29T10:13:18.324Z</time></trkpt><trkpt lat="43.2205767" lon="12.1681983"><ele>508.99999999999994</ele><time>2026-03-29T10:13:23.325Z</time></trkpt><trkpt lat="43.220555" lon="12.1682933"><ele>509.0</ele><time>2026-03-29T10:13:26.322Z</time></trkpt><trkpt lat="43.22058" lon="12.1684183"><ele>504.66666666666663</ele><time>2026-03-29T10:13:29.325Z</time></trkpt><trkpt lat="43.22059" lon="12.1685183"><ele>500.3333333333333</ele><time>2026-03-29T10:13:31.321Z</time></trkpt><trkpt lat="43.220605" lon="12.1686083"><ele>496.0</ele><time>2026-03-29T10:13:33.321Z</time></trkpt><trkpt lat="43.22058" lon="12.1687033"><ele>491.66666666666663</ele><time>2026-03-29T10:13:35.322Z</time></trkpt><trkpt lat="43.2205033" lon="12.1687883"><ele>487.3333333333333</ele><time>2026-03-29T10:13:37.321Z</time></trkpt><trkpt lat="43.2203933" lon="12.1688733"><ele>483.0</ele><time>2026-03-29T10:13:39.322Z</time></trkpt><trkpt lat="43.220335" lon="12.168915"><ele>483.0</ele><time>2026-03-29T10:13:40.323Z</time></trkpt><trkpt lat="43.2202783" lon="12.168955"><ele>482.99999999999994</ele><time>2026-03-29T10:13:41.321Z</time></trkpt><trkpt lat="43.2201817" lon="12.1690133"><ele>482.99999999999994</ele><time>2026-03-29T10:13:43.319Z</time></trkpt><trkpt lat="43.2201033" lon="12.1690767"><ele>483.0</ele><time>2026-03-29T10:13:45.322Z</time></trkpt><trkpt lat="43.2200333" lon="12.1691683"><ele>483.0</ele><time>2026-03-29T10:13:47.323Z</time></trkpt><trkpt lat="43.2199633" lon="12.16928"><ele>481.1666666666667</ele><time>2026-03-29T10:13:49.322Z</time></trkpt><trkpt lat="43.2198883" lon="12.16937"><ele>479.33333333333337</ele><time>2026-03-29T10:13:51.325Z</time></trkpt><trkpt lat="43.2198233" lon="12.1694233"><ele>477.5</ele><time>2026-03-29T10:13:53.32Z</time></trkpt><trkpt lat="43.219735" lon="12.1694617"><ele>475.6666666666667</ele><time>2026-03-29T10:13:56.321Z</time></trkpt><trkpt lat="43.2196633" lon="12.1694933"><ele>473.83333333333337</ele><time>2026-03-29T10:13:58.322Z</time></trkpt><trkpt lat="43.21958" lon="12.1695133"><ele>472.0</ele><time>2026-03-29T10:14:00.322Z</time></trkpt><trkpt lat="43.2194933" lon="12.1695217"><ele>469.20000000000005</ele><time>2026-03-29T10:14:02.325Z</time></trkpt><trkpt lat="43.2194067" lon="12.1695317"><ele>466.40000000000003</ele><time>2026-03-29T10:14:04.322Z</time></trkpt><trkpt lat="43.2193433" lon="12.169575"><ele>463.59999999999997</ele><time>2026-03-29T10:14:06.32Z</time></trkpt><trkpt lat="43.21932" lon="12.1696933"><ele>460.79999999999995</ele><time>2026-03-29T10:14:08.32Z</time></trkpt><trkpt lat="43.2192583" lon="12.1698233"><ele>458.0</ele><time>2026-03-29T10:14:10.321Z</time></trkpt><trkpt lat="43.219155" lon="12.169905"><ele>457.4</ele><time>2026-03-29T10:14:12.324Z</time></trkpt><trkpt lat="43.2190583" lon="12.169995"><ele>456.79999999999995</ele><time>2026-03-29T10:14:14.323Z</time></trkpt><trkpt lat="43.2190117" lon="12.1701083"><ele>456.2</ele><time>2026-03-29T10:14:16.319Z</time></trkpt><trkpt lat="43.2190417" lon="12.17021"><ele>455.6</ele><time>2026-03-29T10:14:18.321Z</time></trkpt><trkpt lat="43.21912" lon="12.1702433"><ele>455.0</ele><time>2026-03-29T10:14:20.319Z</time></trkpt><trkpt lat="43.2192183" lon="12.1702217"><ele>454.99999999999994</ele><time>2026-03-29T10:15:35.321Z</time></trkpt><trkpt lat="43.219315" lon="12.1702117"><ele>455.0</ele><time>2026-03-29T10:15:37.323Z</time></trkpt><trkpt lat="43.2194017" lon="12.1702433"><ele>455.0</ele><time>2026-03-29T10:15:39.32Z</time></trkpt><trkpt lat="43.2195067" lon="12.1702917"><ele>455.0</ele><time>2026-03-29T10:15:41.326Z</time></trkpt><trkpt lat="43.219575" lon="12.17032"><ele>454.99999999999994</ele><time>2026-03-29T10:15:42.325Z</time></trkpt><trkpt lat="43.2196533" lon="12.17034"><ele>455.0</ele><time>2026-03-29T10:15:43.324Z</time></trkpt><trkpt lat="43.2197317" lon="12.170365"><ele>454.99999999999994</ele><time>2026-03-29T10:15:44.321Z</time></trkpt><trkpt lat="43.2198117" lon="12.17037"><ele>455.0</ele><time>2026-03-29T10:15:45.323Z</time></trkpt><trkpt lat="43.2199183" lon="12.17036"><ele>455.0</ele><time>2026-03-29T10:15:47.324Z</time></trkpt><trkpt lat="43.2200233" lon="12.170335"><ele>455.0</ele><time>2026-03-29T10:15:49.325Z</time></trkpt><trkpt lat="43.2200867" lon="12.1703317"><ele>454.99999999999994</ele><time>2026-03-29T10:15:50.32Z</time></trkpt><trkpt lat="43.2201533" lon="12.1703233"><ele>455.0</ele><time>2026-03-29T10:15:51.322Z</time></trkpt><trkpt lat="43.2202217" lon="12.1703083"><ele>455.7142857142857</ele><time>2026-03-29T10:15:52.322Z</time></trkpt><trkpt lat="43.2202983" lon="12.1702833"><ele>456.42857142857144</ele><time>2026-03-29T10:15:53.326Z</time></trkpt><trkpt lat="43.22037" lon="12.170255"><ele>457.1428571428571</ele><time>2026-03-29T10:15:54.323Z</time></trkpt><trkpt lat="43.2204367" lon="12.17021"><ele>457.85714285714283</ele><time>2026-03-29T10:15:55.327Z</time></trkpt><trkpt lat="43.2204917" lon="12.170155"><ele>458.57142857142856</ele><time>2026-03-29T10:15:56.322Z</time></trkpt><trkpt lat="43.2205417" lon="12.1700833"><ele>459.2857142857142</ele><time>2026-03-29T10:15:57.322Z</time></trkpt><trkpt lat="43.220595" lon="12.1700233"><ele>459.99999999999994</ele><time>2026-03-29T10:15:58.327Z</time></trkpt><trkpt lat="43.2206883" lon="12.1699517"><ele>457.83333333333337</ele><time>2026-03-29T10:16:00.322Z</time></trkpt><trkpt lat="43.2207667" lon="12.169955"><ele>455.6666666666667</ele><time>2026-03-29T10:16:02.321Z</time></trkpt><trkpt lat="43.2208817" lon="12.169965"><ele>453.5</ele><time>2026-03-29T10:16:04.323Z</time></trkpt><trkpt lat="43.2209583" lon="12.16995"><ele>451.33333333333337</ele><time>2026-03-29T10:16:05.323Z</time></trkpt><trkpt lat="43.2210383" lon="12.169915"><ele>449.1666666666667</ele><time>2026-03-29T10:16:06.322Z</time></trkpt><trkpt lat="43.221115" lon="12.1698733"><ele>447.0</ele><time>2026-03-29T10:16:07.322Z</time></trkpt><trkpt lat="43.2211883" lon="12.1698267"><ele>451.5</ele><time>2026-03-29T10:16:08.324Z</time></trkpt><trkpt lat="43.221255" lon="12.169775"><ele>456.0</ele><time>2026-03-29T10:16:09.324Z</time></trkpt><trkpt lat="43.2213183" lon="12.1696817"><ele>460.5</ele><time>2026-03-29T10:16:10.321Z</time></trkpt><trkpt lat="43.2213617" lon="12.1696017"><ele>465.0</ele><time>2026-03-29T10:16:11.323Z</time></trkpt><trkpt lat="43.2213967" lon="12.16952"><ele>469.5</ele><time>2026-03-29T10:16:12.321Z</time></trkpt><trkpt lat="43.2214283" lon="12.1694267"><ele>474.0</ele><time>2026-03-29T10:16:13.32Z</time></trkpt><trkpt lat="43.22146" lon="12.1693233"><ele>474.0</ele><time>2026-03-29T10:16:14.321Z</time></trkpt><trkpt lat="43.2215" lon="12.1692217"><ele>474.0</ele><time>2026-03-29T10:16:15.326Z</time></trkpt><trkpt lat="43.22154" lon="12.1691217"><ele>474.0</ele><time>2026-03-29T10:16:16.323Z</time></trkpt><trkpt lat="43.2215817" lon="12.1690167"><ele>474.0</ele><time>2026-03-29T10:16:17.321Z</time></trkpt><trkpt lat="43.22162" lon="12.1689217"><ele>474.0</ele><time>2026-03-29T10:16:18.32Z</time></trkpt><trkpt lat="43.2216967" lon="12.1688"><ele>474.0</ele><time>2026-03-29T10:16:20.32Z</time></trkpt><trkpt lat="43.2217617" lon="12.16871"><ele>474.0</ele><time>2026-03-29T10:16:22.32Z</time></trkpt><trkpt lat="43.2218067" lon="12.1686467"><ele>474.0</ele><time>2026-03-29T10:16:24.322Z</time></trkpt><trkpt lat="43.2218983" lon="12.1686333"><ele>474.0</ele><time>2026-03-29T10:16:27.321Z</time></trkpt><trkpt lat="43.22195" lon="12.1686883"><ele>474.0</ele><time>2026-03-29T10:16:30.322Z</time></trkpt><trkpt lat="43.222" lon="12.1688033"><ele>474.0</ele><time>2026-03-29T10:16:33.322Z</time></trkpt><trkpt lat="43.222055" lon="12.1688967"><ele>474.0</ele><time>2026-03-29T10:16:35.321Z</time></trkpt><trkpt lat="43.2220967" lon="12.1689867"><ele>474.0</ele><time>2026-03-29T10:16:37.323Z</time></trkpt><trkpt lat="43.2221183" lon="12.16907"><ele>474.0</ele><time>2026-03-29T10:16:39.321Z</time></trkpt><trkpt lat="43.2221183" lon="12.169195"><ele>474.0</ele><time>2026-03-29T10:16:41.322Z</time></trkpt><trkpt lat="43.2221217" lon="12.16929"><ele>474.0</ele><time>2026-03-29T10:16:43.321Z</time></trkpt><trkpt lat="43.2221967" lon="12.1693083"><ele>474.0</ele><time>2026-03-29T10:16:46.321Z</time></trkpt><trkpt lat="43.2222583" lon="12.16939"><ele>470.2</ele><time>2026-03-29T10:16:49.323Z</time></trkpt><trkpt lat="43.2222217" lon="12.1695217"><ele>466.4</ele><time>2026-03-29T10:16:52.321Z</time></trkpt><trkpt lat="43.222175" lon="12.1696817"><ele>462.6</ele><time>2026-03-29T10:16:54.322Z</time></trkpt><trkpt lat="43.2221567" lon="12.1697733"><ele>458.8</ele><time>2026-03-29T10:16:55.411Z</time></trkpt><trkpt lat="43.222135" lon="12.1698683"><ele>455.0</ele><time>2026-03-29T10:16:56.322Z</time></trkpt><trkpt lat="43.2221183" lon="12.1700383"><ele>451.8</ele><time>2026-03-29T10:16:58.32Z</time></trkpt><trkpt lat="43.2221267" lon="12.170145"><ele>448.6</ele><time>2026-03-29T10:16:59.318Z</time></trkpt><trkpt lat="43.2221383" lon="12.1702367"><ele>445.4</ele><time>2026-03-29T10:17:00.322Z</time></trkpt><trkpt lat="43.2221933" lon="12.17037"><ele>442.2</ele><time>2026-03-29T10:17:02.323Z</time></trkpt><trkpt lat="43.2222733" lon="12.170475"><ele>439.0</ele><time>2026-03-29T10:17:04.321Z</time></trkpt><trkpt lat="43.2223533" lon="12.1705883"><ele>436.6</ele><time>2026-03-29T10:17:06.321Z</time></trkpt><trkpt lat="43.2223833" lon="12.1707233"><ele>434.2</ele><time>2026-03-29T10:17:08.323Z</time></trkpt><trkpt lat="43.222455" lon="12.1708467"><ele>431.80000000000007</ele><time>2026-03-29T10:17:10.322Z</time></trkpt><trkpt lat="43.2225" lon="12.1709167"><ele>429.40000000000003</ele><time>2026-03-29T10:17:11.32Z</time></trkpt><trkpt lat="43.22258" lon="12.1710367"><ele>427.0</ele><time>2026-03-29T10:17:13.322Z</time></trkpt><trkpt lat="43.2226117" lon="12.1711183"><ele>427.0</ele><time>2026-03-29T10:17:14.321Z</time></trkpt><trkpt lat="43.2226367" lon="12.171255"><ele>427.00000000000006</ele><time>2026-03-29T10:17:15.324Z</time></trkpt><trkpt lat="43.2226633" lon="12.1713983"><ele>427.00000000000006</ele><time>2026-03-29T10:17:16.322Z</time></trkpt><trkpt lat="43.2226733" lon="12.1715233"><ele>427.0</ele><time>2026-03-29T10:17:17.324Z</time></trkpt><trkpt lat="43.2226683" lon="12.1716533"><ele>427.0</ele><time>2026-03-29T10:17:18.323Z</time></trkpt><trkpt lat="43.2225733" lon="12.1718833"><ele>426.5</ele><time>2026-03-29T10:17:19.323Z</time></trkpt><trkpt lat="43.2225117" lon="12.1720567"><ele>426.0</ele><time>2026-03-29T10:17:20.321Z</time></trkpt><trkpt lat="43.2224683" lon="12.1722117"><ele>425.5</ele><time>2026-03-29T10:17:21.325Z</time></trkpt><trkpt lat="43.222435" lon="12.1723583"><ele>425.0</ele><time>2026-03-29T10:17:22.321Z</time></trkpt><trkpt lat="43.2224067" lon="12.172505"><ele>425.0</ele><time>2026-03-29T10:17:23.325Z</time></trkpt><trkpt lat="43.2223733" lon="12.1726433"><ele>425.0</ele><time>2026-03-29T10:17:24.322Z</time></trkpt><trkpt lat="43.2223283" lon="12.1727733"><ele>425.0</ele><time>2026-03-29T10:17:25.325Z</time></trkpt><trkpt lat="43.2222783" lon="12.1729033"><ele>425.0</ele><time>2026-03-29T10:17:26.318Z</time></trkpt><trkpt lat="43.2222367" lon="12.1730233"><ele>425.0</ele><time>2026-03-29T10:17:27.319Z</time></trkpt><trkpt lat="43.22219" lon="12.1731217"><ele>422.3333333333333</ele><time>2026-03-29T10:17:28.321Z</time></trkpt><trkpt lat="43.2221317" lon="12.1731883"><ele>419.66666666666663</ele><time>2026-03-29T10:17:29.32Z</time></trkpt><trkpt lat="43.2220683" lon="12.1732417"><ele>417.0</ele><time>2026-03-29T10:17:30.321Z</time></trkpt><trkpt lat="43.2219983" lon="12.173285"><ele>414.33333333333337</ele><time>2026-03-29T10:17:31.319Z</time></trkpt><trkpt lat="43.22193" lon="12.1733283"><ele>411.6666666666667</ele><time>2026-03-29T10:17:32.327Z</time></trkpt><trkpt lat="43.221855" lon="12.1734483"><ele>409.0</ele><time>2026-03-29T10:17:34.322Z</time></trkpt><trkpt lat="43.2218383" lon="12.1735367"><ele>409.00000000000006</ele><time>2026-03-29T10:17:35.32Z</time></trkpt><trkpt lat="43.2218367" lon="12.1736383"><ele>409.0</ele><time>2026-03-29T10:17:36.324Z</time></trkpt><trkpt lat="43.2218467" lon="12.1737483"><ele>409.0</ele><time>2026-03-29T10:17:37.323Z</time></trkpt><trkpt lat="43.22186" lon="12.1738667"><ele>409.0</ele><time>2026-03-29T10:17:38.322Z</time></trkpt><trkpt lat="43.2218933" lon="12.1740017"><ele>409.00000000000006</ele><time>2026-03-29T10:17:39.321Z</time></trkpt><trkpt lat="43.2219183" lon="12.1741283"><ele>409.0</ele><time>2026-03-29T10:17:40.325Z</time></trkpt><trkpt lat="43.22193" lon="12.1742483"><ele>408.1666666666667</ele><time>2026-03-29T10:17:41.321Z</time></trkpt><trkpt lat="43.2219567" lon="12.1743767"><ele>407.33333333333337</ele><time>2026-03-29T10:17:42.321Z</time></trkpt><trkpt lat="43.2219717" lon="12.1744917"><ele>406.5</ele><time>2026-03-29T10:17:43.321Z</time></trkpt><trkpt lat="43.2219917" lon="12.1746033"><ele>405.66666666666663</ele><time>2026-03-29T10:17:44.322Z</time></trkpt><trkpt lat="43.2220333" lon="12.1747117"><ele>404.8333333333333</ele><time>2026-03-29T10:17:45.322Z</time></trkpt><trkpt lat="43.2220517" lon="12.174805"><ele>404.0</ele><time>2026-03-29T10:17:46.321Z</time></trkpt><trkpt lat="43.2221" lon="12.1748683"><ele>404.75</ele><time>2026-03-29T10:17:47.321Z</time></trkpt><trkpt lat="43.2221733" lon="12.1749"><ele>405.5</ele><time>2026-03-29T10:17:48.324Z</time></trkpt><trkpt lat="43.22227" lon="12.17493"><ele>406.25</ele><time>2026-03-29T10:17:49.32Z</time></trkpt><trkpt lat="43.2224867" lon="12.174905"><ele>407.0</ele><time>2026-03-29T10:17:50.321Z</time></trkpt><trkpt lat="43.2226717" lon="12.1749217"><ele>407.0</ele><time>2026-03-29T10:17:51.321Z</time></trkpt><trkpt lat="43.2227967" lon="12.1749317"><ele>407.0</ele><time>2026-03-29T10:17:52.321Z</time></trkpt><trkpt lat="43.2228967" lon="12.1749533"><ele>407.0</ele><time>2026-03-29T10:17:53.32Z</time></trkpt><trkpt lat="43.222995" lon="12.17497"><ele>407.0</ele><time>2026-03-29T10:17:54.32Z</time></trkpt><trkpt lat="43.2230917" lon="12.1749867"><ele>407.0</ele><time>2026-03-29T10:17:55.322Z</time></trkpt><trkpt lat="43.2231817" lon="12.1750083"><ele>407.0</ele><time>2026-03-29T10:17:56.32Z</time></trkpt><trkpt lat="43.2232533" lon="12.1750333"><ele>407.0</ele><time>2026-03-29T10:17:57.324Z</time></trkpt><trkpt lat="43.2233567" lon="12.1751183"><ele>407.0</ele><time>2026-03-29T10:17:59.322Z</time></trkpt><trkpt lat="43.2233517" lon="12.17522"><ele>407.0</ele><time>2026-03-29T10:18:01.322Z</time></trkpt><trkpt lat="43.2232717" lon="12.17534"><ele>407.0</ele><time>2026-03-29T10:18:04.322Z</time></trkpt><trkpt lat="43.2231367" lon="12.1754167"><ele>407.0</ele><time>2026-03-29T10:18:05.32Z</time></trkpt><trkpt lat="43.2230383" lon="12.1754867"><ele>407.0</ele><time>2026-03-29T10:18:06.32Z</time></trkpt><trkpt lat="43.22293" lon="12.1755833"><ele>407.0</ele><time>2026-03-29T10:18:07.326Z</time></trkpt><trkpt lat="43.22283" lon="12.1756333"><ele>407.0</ele><time>2026-03-29T10:18:08.322Z</time></trkpt><trkpt lat="43.22273" lon="12.17568"><ele>405.0</ele><time>2026-03-29T10:18:09.324Z</time></trkpt><trkpt lat="43.22263" lon="12.1757383"><ele>403.0</ele><time>2026-03-29T10:18:10.322Z</time></trkpt><trkpt lat="43.2225383" lon="12.175825"><ele>401.0</ele><time>2026-03-29T10:18:11.319Z</time></trkpt><trkpt lat="43.2224217" lon="12.1759383"><ele>399.0</ele><time>2026-03-29T10:18:12.324Z</time></trkpt><trkpt lat="43.2223267" lon="12.1760483"><ele>397.0</ele><time>2026-03-29T10:18:13.32Z</time></trkpt><trkpt lat="43.22224" lon="12.1761517"><ele>395.0</ele><time>2026-03-29T10:18:14.321Z</time></trkpt><trkpt lat="43.2221767" lon="12.1762383"><ele>393.0</ele><time>2026-03-29T10:18:15.324Z</time></trkpt><trkpt lat="43.2221167" lon="12.176325"><ele>391.0</ele><time>2026-03-29T10:18:16.324Z</time></trkpt><trkpt lat="43.222065" lon="12.176395"><ele>389.0</ele><time>2026-03-29T10:18:17.323Z</time></trkpt><trkpt lat="43.222015" lon="12.1764617"><ele>387.0</ele><time>2026-03-29T10:18:18.318Z</time></trkpt><trkpt lat="43.22195" lon="12.1765233"><ele>387.0</ele><time>2026-03-29T10:18:19.32Z</time></trkpt><trkpt lat="43.221885" lon="12.1765567"><ele>387.0</ele><time>2026-03-29T10:18:20.322Z</time></trkpt><trkpt lat="43.22181" lon="12.1765567"><ele>387.0</ele><time>2026-03-29T10:18:21.321Z</time></trkpt><trkpt lat="43.22174" lon="12.1765583"><ele>387.0</ele><time>2026-03-29T10:18:22.321Z</time></trkpt><trkpt lat="43.2216633" lon="12.1765533"><ele>387.0</ele><time>2026-03-29T10:18:23.321Z</time></trkpt><trkpt lat="43.2215883" lon="12.1765417"><ele>387.0</ele><time>2026-03-29T10:18:24.322Z</time></trkpt><trkpt lat="43.221505" lon="12.176525"><ele>385.0</ele><time>2026-03-29T10:18:25.32Z</time></trkpt><trkpt lat="43.221425" lon="12.17649"><ele>383.0</ele><time>2026-03-29T10:18:26.323Z</time></trkpt><trkpt lat="43.22134" lon="12.176455"><ele>381.0</ele><time>2026-03-29T10:18:27.321Z</time></trkpt><trkpt lat="43.22125" lon="12.1764167"><ele>379.0</ele><time>2026-03-29T10:18:28.321Z</time></trkpt><trkpt lat="43.2211517" lon="12.1763783"><ele>377.0</ele><time>2026-03-29T10:18:29.323Z</time></trkpt><trkpt lat="43.2210567" lon="12.1763383"><ele>377.0</ele><time>2026-03-29T10:18:30.32Z</time></trkpt><trkpt lat="43.2209717" lon="12.17631"><ele>377.0</ele><time>2026-03-29T10:18:31.32Z</time></trkpt><trkpt lat="43.22089" lon="12.17629"><ele>377.0</ele><time>2026-03-29T10:18:32.32Z</time></trkpt><trkpt lat="43.220815" lon="12.17628"><ele>377.0</ele><time>2026-03-29T10:18:33.319Z</time></trkpt><trkpt lat="43.22075" lon="12.17628"><ele>377.0</ele><time>2026-03-29T10:18:34.326Z</time></trkpt><trkpt lat="43.22068" lon="12.176285"><ele>377.0</ele><time>2026-03-29T10:18:35.322Z</time></trkpt><trkpt lat="43.2206117" lon="12.1763217"><ele>374.8</ele><time>2026-03-29T10:18:36.321Z</time></trkpt><trkpt lat="43.220555" lon="12.1764033"><ele>372.6</ele><time>2026-03-29T10:18:37.321Z</time></trkpt><trkpt lat="43.220475" lon="12.176465"><ele>370.40000000000003</ele><time>2026-03-29T10:18:38.321Z</time></trkpt><trkpt lat="43.2203867" lon="12.17653"><ele>368.20000000000005</ele><time>2026-03-29T10:18:39.323Z</time></trkpt><trkpt lat="43.2202883" lon="12.17659"><ele>366.0</ele><time>2026-03-29T10:18:40.321Z</time></trkpt><trkpt lat="43.22018" lon="12.176645"><ele>364.75</ele><time>2026-03-29T10:18:41.32Z</time></trkpt><trkpt lat="43.220075" lon="12.1767"><ele>363.5</ele><time>2026-03-29T10:18:42.321Z</time></trkpt><trkpt lat="43.2199667" lon="12.1767517"><ele>362.25</ele><time>2026-03-29T10:18:43.32Z</time></trkpt><trkpt lat="43.2198583" lon="12.176805"><ele>361.0</ele><time>2026-03-29T10:18:44.321Z</time></trkpt><trkpt lat="43.2197533" lon="12.1768583"><ele>359.0</ele><time>2026-03-29T10:18:45.32Z</time></trkpt><trkpt lat="43.2196517" lon="12.1769117"><ele>357.0</ele><time>2026-03-29T10:18:46.326Z</time></trkpt><trkpt lat="43.2195517" lon="12.1769633"><ele>355.0</ele><time>2026-03-29T10:18:47.32Z</time></trkpt><trkpt lat="43.219455" lon="12.1770183"><ele>353.0</ele><time>2026-03-29T10:18:48.32Z</time></trkpt><trkpt lat="43.2193617" lon="12.1770733"><ele>351.0</ele><time>2026-03-29T10:18:49.32Z</time></trkpt><trkpt lat="43.219275" lon="12.1771367"><ele>351.0</ele><time>2026-03-29T10:18:50.319Z</time></trkpt><trkpt lat="43.21919" lon="12.1772117"><ele>351.0</ele><time>2026-03-29T10:18:51.324Z</time></trkpt><trkpt lat="43.2191" lon="12.1773"><ele>351.0</ele><time>2026-03-29T10:18:52.323Z</time></trkpt><trkpt lat="43.2190083" lon="12.1774017"><ele>351.0</ele><time>2026-03-29T10:18:53.32Z</time></trkpt><trkpt lat="43.218915" lon="12.1775017"><ele>351.0</ele><time>2026-03-29T10:18:54.32Z</time></trkpt><trkpt lat="43.2188183" lon="12.1775917"><ele>348.8</ele><time>2026-03-29T10:18:55.322Z</time></trkpt><trkpt lat="43.2187217" lon="12.1776783"><ele>346.6</ele><time>2026-03-29T10:18:56.324Z</time></trkpt><trkpt lat="43.2186283" lon="12.1777567"><ele>344.4</ele><time>2026-03-29T10:18:57.324Z</time></trkpt><trkpt lat="43.21854" lon="12.1778417"><ele>342.2</ele><time>2026-03-29T10:18:58.323Z</time></trkpt><trkpt lat="43.2184567" lon="12.1779367"><ele>340.0</ele><time>2026-03-29T10:18:59.319Z</time></trkpt><trkpt lat="43.2183733" lon="12.1780233"><ele>340.0</ele><time>2026-03-29T10:19:00.32Z</time></trkpt><trkpt lat="43.218285" lon="12.1781017"><ele>340.0</ele><time>2026-03-29T10:19:01.319Z</time></trkpt><trkpt lat="43.218185" lon="12.1781667"><ele>340.0</ele><time>2026-03-29T10:19:02.321Z</time></trkpt><trkpt lat="43.218085" lon="12.1782333"><ele>340.0</ele><time>2026-03-29T10:19:03.322Z</time></trkpt><trkpt lat="43.217985" lon="12.1783067"><ele>340.0</ele><time>2026-03-29T10:19:04.32Z</time></trkpt><trkpt lat="43.2178867" lon="12.17837"><ele>339.3333333333333</ele><time>2026-03-29T10:19:05.323Z</time></trkpt><trkpt lat="43.2177917" lon="12.17843"><ele>338.66666666666663</ele><time>2026-03-29T10:19:06.321Z</time></trkpt><trkpt lat="43.2177" lon="12.1784733"><ele>338.0</ele><time>2026-03-29T10:19:07.321Z</time></trkpt><trkpt lat="43.217615" lon="12.1784967"><ele>337.3333333333333</ele><time>2026-03-29T10:19:08.321Z</time></trkpt><trkpt lat="43.2175333" lon="12.1785067"><ele>336.6666666666667</ele><time>2026-03-29T10:19:09.32Z</time></trkpt><trkpt lat="43.21746" lon="12.1785133"><ele>336.0</ele><time>2026-03-29T10:19:10.321Z</time></trkpt><trkpt lat="43.2173933" lon="12.1785383"><ele>336.0</ele><time>2026-03-29T10:19:11.32Z</time></trkpt><trkpt lat="43.2173333" lon="12.1785667"><ele>336.0</ele><time>2026-03-29T10:19:12.321Z</time></trkpt><trkpt lat="43.2172767" lon="12.1786133"><ele>336.0</ele><time>2026-03-29T10:19:13.321Z</time></trkpt><trkpt lat="43.2171733" lon="12.178715"><ele>336.0</ele><time>2026-03-29T10:19:15.32Z</time></trkpt><trkpt lat="43.2171183" lon="12.1787733"><ele>336.0</ele><time>2026-03-29T10:19:16.321Z</time></trkpt><trkpt lat="43.2170517" lon="12.1788367"><ele>336.0</ele><time>2026-03-29T10:19:17.322Z</time></trkpt><trkpt lat="43.2169717" lon="12.178905"><ele>334.5</ele><time>2026-03-29T10:19:18.322Z</time></trkpt><trkpt lat="43.2168833" lon="12.1789817"><ele>333.0</ele><time>2026-03-29T10:19:19.322Z</time></trkpt><trkpt lat="43.2167867" lon="12.179065"><ele>331.5</ele><time>2026-03-29T10:19:20.321Z</time></trkpt><trkpt lat="43.216685" lon="12.1791483"><ele>330.0</ele><time>2026-03-29T10:19:21.32Z</time></trkpt><trkpt lat="43.2165767" lon="12.17924"><ele>327.75</ele><time>2026-03-29T10:19:22.32Z</time></trkpt><trkpt lat="43.2164667" lon="12.17934"><ele>325.5</ele><time>2026-03-29T10:19:23.324Z</time></trkpt><trkpt lat="43.2163567" lon="12.1794367"><ele>323.25</ele><time>2026-03-29T10:19:24.322Z</time></trkpt><trkpt lat="43.2162433" lon="12.1795383"><ele>321.0</ele><time>2026-03-29T10:19:25.323Z</time></trkpt><trkpt lat="43.2161367" lon="12.1796317"><ele>321.0</ele><time>2026-03-29T10:19:26.322Z</time></trkpt><trkpt lat="43.2160433" lon="12.17972"><ele>321.0</ele><time>2026-03-29T10:19:27.321Z</time></trkpt><trkpt lat="43.2159583" lon="12.1798083"><ele>321.0</ele><time>2026-03-29T10:19:28.319Z</time></trkpt><trkpt lat="43.2158967" lon="12.17991"><ele>321.0</ele><time>2026-03-29T10:19:29.319Z</time></trkpt><trkpt lat="43.2158533" lon="12.1800267"><ele>321.0</ele><time>2026-03-29T10:19:30.322Z</time></trkpt><trkpt lat="43.2158383" lon="12.18015"><ele>320.6</ele><time>2026-03-29T10:19:31.322Z</time></trkpt><trkpt lat="43.21584" lon="12.1802767"><ele>320.20000000000005</ele><time>2026-03-29T10:19:32.319Z</time></trkpt><trkpt lat="43.2158617" lon="12.1804017"><ele>319.79999999999995</ele><time>2026-03-29T10:19:33.321Z</time></trkpt><trkpt lat="43.21591" lon="12.1805233"><ele>319.4</ele><time>2026-03-29T10:19:34.321Z</time></trkpt><trkpt lat="43.2159933" lon="12.1806233"><ele>319.0</ele><time>2026-03-29T10:19:35.321Z</time></trkpt><trkpt lat="43.21608" lon="12.18073"><ele>318.75</ele><time>2026-03-29T10:19:36.32Z</time></trkpt><trkpt lat="43.2161783" lon="12.1808367"><ele>318.5</ele><time>2026-03-29T10:19:37.321Z</time></trkpt><trkpt lat="43.2162833" lon="12.1809333"><ele>318.25</ele><time>2026-03-29T10:19:38.319Z</time></trkpt><trkpt lat="43.2163883" lon="12.1810183"><ele>318.0</ele><time>2026-03-29T10:19:39.321Z</time></trkpt><trkpt lat="43.2164917" lon="12.1811067"><ele>318.25</ele><time>2026-03-29T10:19:40.318Z</time></trkpt><trkpt lat="43.2165883" lon="12.1812067"><ele>318.5</ele><time>2026-03-29T10:19:41.321Z</time></trkpt><trkpt lat="43.2166817" lon="12.181325"><ele>318.75</ele><time>2026-03-29T10:19:42.32Z</time></trkpt><trkpt lat="43.2167767" lon="12.1814517"><ele>319.0</ele><time>2026-03-29T10:19:43.319Z</time></trkpt><trkpt lat="43.2168683" lon="12.1815833"><ele>319.0</ele><time>2026-03-29T10:19:44.321Z</time></trkpt><trkpt lat="43.2169583" lon="12.181715"><ele>319.0</ele><time>2026-03-29T10:19:45.321Z</time></trkpt><trkpt lat="43.21705" lon="12.1818517"><ele>319.0</ele><time>2026-03-29T10:19:46.321Z</time></trkpt><trkpt lat="43.2171433" lon="12.1819933"><ele>319.0</ele><time>2026-03-29T10:19:47.322Z</time></trkpt><trkpt lat="43.2172333" lon="12.18213"><ele>320.0</ele><time>2026-03-29T10:19:48.324Z</time></trkpt><trkpt lat="43.2173317" lon="12.1822767"><ele>321.0</ele><time>2026-03-29T10:19:49.322Z</time></trkpt><trkpt lat="43.21743" lon="12.1824267"><ele>322.0</ele><time>2026-03-29T10:19:50.321Z</time></trkpt><trkpt lat="43.2175283" lon="12.1825783"><ele>323.0</ele><time>2026-03-29T10:19:51.321Z</time></trkpt><trkpt lat="43.2176233" lon="12.1827267"><ele>323.0</ele><time>2026-03-29T10:19:52.323Z</time></trkpt><trkpt lat="43.2177167" lon="12.1828667"><ele>323.0</ele><time>2026-03-29T10:19:53.321Z</time></trkpt><trkpt lat="43.217815" lon="12.18301"><ele>323.0</ele><time>2026-03-29T10:19:54.32Z</time></trkpt><trkpt lat="43.2179117" lon="12.1831417"><ele>323.0</ele><time>2026-03-29T10:19:55.323Z</time></trkpt><trkpt lat="43.2180017" lon="12.1832617"><ele>323.25</ele><time>2026-03-29T10:19:56.321Z</time></trkpt><trkpt lat="43.21808" lon="12.183375"><ele>323.5</ele><time>2026-03-29T10:19:57.321Z</time></trkpt><trkpt lat="43.21816" lon="12.1834983"><ele>323.75</ele><time>2026-03-29T10:19:58.321Z</time></trkpt><trkpt lat="43.2182383" lon="12.183625"><ele>324.0</ele><time>2026-03-29T10:19:59.32Z</time></trkpt><trkpt lat="43.21832" lon="12.1837567"><ele>324.25</ele><time>2026-03-29T10:20:00.322Z</time></trkpt><trkpt lat="43.2184017" lon="12.183885"><ele>324.5</ele><time>2026-03-29T10:20:01.323Z</time></trkpt><trkpt lat="43.2184867" lon="12.184015"><ele>324.75</ele><time>2026-03-29T10:20:02.321Z</time></trkpt><trkpt lat="43.2185717" lon="12.1841467"><ele>325.0</ele><time>2026-03-29T10:20:03.32Z</time></trkpt><trkpt lat="43.2186583" lon="12.1842817"><ele>325.0</ele><time>2026-03-29T10:20:04.324Z</time></trkpt><trkpt lat="43.21875" lon="12.1844133"><ele>325.0</ele><time>2026-03-29T10:20:05.322Z</time></trkpt><trkpt lat="43.2188483" lon="12.18455"><ele>325.0</ele><time>2026-03-29T10:20:06.32Z</time></trkpt><trkpt lat="43.2189417" lon="12.1846767"><ele>325.0</ele><time>2026-03-29T10:20:07.32Z</time></trkpt><trkpt lat="43.2190383" lon="12.1847917"><ele>325.75</ele><time>2026-03-29T10:20:08.32Z</time></trkpt><trkpt lat="43.219125" lon="12.1849017"><ele>326.5</ele><time>2026-03-29T10:20:09.321Z</time></trkpt><trkpt lat="43.21922" lon="12.1850167"><ele>327.25</ele><time>2026-03-29T10:20:10.321Z</time></trkpt><trkpt lat="43.2193083" lon="12.1851217"><ele>328.0</ele><time>2026-03-29T10:20:11.319Z</time></trkpt><trkpt lat="43.2194083" lon="12.1852217"><ele>328.0</ele><time>2026-03-29T10:20:12.32Z</time></trkpt><trkpt lat="43.2195117" lon="12.185325"><ele>328.0</ele><time>2026-03-29T10:20:13.318Z</time></trkpt><trkpt lat="43.219625" lon="12.1854283"><ele>328.0</ele><time>2026-03-29T10:20:14.322Z</time></trkpt><trkpt lat="43.21974" lon="12.185535"><ele>328.0</ele><time>2026-03-29T10:20:15.325Z</time></trkpt><trkpt lat="43.2198567" lon="12.1856417"><ele>325.3333333333333</ele><time>2026-03-29T10:20:16.321Z</time></trkpt><trkpt lat="43.219975" lon="12.1857517"><ele>322.6666666666667</ele><time>2026-03-29T10:20:17.322Z</time></trkpt><trkpt lat="43.220115" lon="12.185875"><ele>320.0</ele><time>2026-03-29T10:20:18.32Z</time></trkpt><trkpt lat="43.2202417" lon="12.1859933"><ele>320.0</ele><time>2026-03-29T10:20:19.32Z</time></trkpt><trkpt lat="43.2203633" lon="12.1861033"><ele>320.0</ele><time>2026-03-29T10:20:20.323Z</time></trkpt><trkpt lat="43.2204717" lon="12.186205"><ele>320.0</ele><time>2026-03-29T10:20:21.32Z</time></trkpt><trkpt lat="43.2205733" lon="12.1863017"><ele>320.0</ele><time>2026-03-29T10:20:22.32Z</time></trkpt><trkpt lat="43.2206683" lon="12.1863967"><ele>320.6</ele><time>2026-03-29T10:20:23.322Z</time></trkpt><trkpt lat="43.22075" lon="12.1864917"><ele>321.2</ele><time>2026-03-29T10:20:24.321Z</time></trkpt><trkpt lat="43.2208167" lon="12.186575"><ele>321.79999999999995</ele><time>2026-03-29T10:20:25.321Z</time></trkpt><trkpt lat="43.22087" lon="12.18665"><ele>322.4</ele><time>2026-03-29T10:20:26.321Z</time></trkpt><trkpt lat="43.2209367" lon="12.186795"><ele>323.0</ele><time>2026-03-29T10:20:28.322Z</time></trkpt><trkpt lat="43.22095" lon="12.186885"><ele>323.2</ele><time>2026-03-29T10:20:29.322Z</time></trkpt><trkpt lat="43.22094" lon="12.18701"><ele>323.4</ele><time>2026-03-29T10:20:30.319Z</time></trkpt><trkpt lat="43.22093" lon="12.1871417"><ele>323.59999999999997</ele><time>2026-03-29T10:20:31.323Z</time></trkpt><trkpt lat="43.2209083" lon="12.1873033"><ele>323.79999999999995</ele><time>2026-03-29T10:20:32.322Z</time></trkpt><trkpt lat="43.2208967" lon="12.187465"><ele>324.0</ele><time>2026-03-29T10:20:33.323Z</time></trkpt><trkpt lat="43.2208817" lon="12.18763"><ele>323.0</ele><time>2026-03-29T10:20:34.321Z</time></trkpt><trkpt lat="43.2208617" lon="12.1878033"><ele>322.0</ele><time>2026-03-29T10:20:35.321Z</time></trkpt><trkpt lat="43.2208433" lon="12.1879783"><ele>321.0</ele><time>2026-03-29T10:20:36.322Z</time></trkpt><trkpt lat="43.2208183" lon="12.1881533"><ele>320.0</ele><time>2026-03-29T10:20:37.324Z</time></trkpt><trkpt lat="43.22079" lon="12.1883367"><ele>319.25</ele><time>2026-03-29T10:20:38.321Z</time></trkpt><trkpt lat="43.220755" lon="12.1885133"><ele>318.5</ele><time>2026-03-29T10:20:39.323Z</time></trkpt><trkpt lat="43.22071" lon="12.18868"><ele>317.75</ele><time>2026-03-29T10:20:40.32Z</time></trkpt><trkpt lat="43.22065" lon="12.1888567"><ele>317.0</ele><time>2026-03-29T10:20:41.321Z</time></trkpt><trkpt lat="43.22058" lon="12.1890167"><ele>317.0</ele><time>2026-03-29T10:20:42.322Z</time></trkpt><trkpt lat="43.2205083" lon="12.1891683"><ele>317.0</ele><time>2026-03-29T10:20:43.321Z</time></trkpt><trkpt lat="43.2204217" lon="12.1893233"><ele>317.0</ele><time>2026-03-29T10:20:44.32Z</time></trkpt><trkpt lat="43.22033" lon="12.18947"><ele>317.0</ele><time>2026-03-29T10:20:45.319Z</time></trkpt><trkpt lat="43.2202267" lon="12.1896067"><ele>317.0</ele><time>2026-03-29T10:20:46.32Z</time></trkpt><trkpt lat="43.2201367" lon="12.18974"><ele>317.0</ele><time>2026-03-29T10:20:47.323Z</time></trkpt><trkpt lat="43.22005" lon="12.1898683"><ele>317.0</ele><time>2026-03-29T10:20:48.32Z</time></trkpt><trkpt lat="43.21997" lon="12.19"><ele>317.0</ele><time>2026-03-29T10:20:49.32Z</time></trkpt><trkpt lat="43.21988" lon="12.19013"><ele>316.8</ele><time>2026-03-29T10:20:50.321Z</time></trkpt><trkpt lat="43.2198017" lon="12.1902467"><ele>316.6</ele><time>2026-03-29T10:20:51.323Z</time></trkpt><trkpt lat="43.2197283" lon="12.1903667"><ele>316.40000000000003</ele><time>2026-03-29T10:20:52.319Z</time></trkpt><trkpt lat="43.2196567" lon="12.1904817"><ele>316.2</ele><time>2026-03-29T10:20:53.322Z</time></trkpt><trkpt lat="43.2195817" lon="12.1905883"><ele>316.0</ele><time>2026-03-29T10:20:54.323Z</time></trkpt><trkpt lat="43.21951" lon="12.1906983"><ele>316.0</ele><time>2026-03-29T10:20:55.321Z</time></trkpt><trkpt lat="43.2194417" lon="12.190805"><ele>316.0</ele><time>2026-03-29T10:20:56.32Z</time></trkpt><trkpt lat="43.2193733" lon="12.1909033"><ele>316.0</ele><time>2026-03-29T10:20:57.32Z</time></trkpt><trkpt lat="43.2193067" lon="12.1909983"><ele>316.0</ele><time>2026-03-29T10:20:58.324Z</time></trkpt><trkpt lat="43.2192467" lon="12.1910917"><ele>316.0</ele><time>2026-03-29T10:20:59.323Z</time></trkpt><trkpt lat="43.219195" lon="12.191185"><ele>316.0</ele><time>2026-03-29T10:21:00.319Z</time></trkpt><trkpt lat="43.2191433" lon="12.19127"><ele>316.0</ele><time>2026-03-29T10:21:01.32Z</time></trkpt><trkpt lat="43.2190917" lon="12.1913567"><ele>316.0</ele><time>2026-03-29T10:21:02.319Z</time></trkpt><trkpt lat="43.219035" lon="12.1914333"><ele>316.0</ele><time>2026-03-29T10:21:03.321Z</time></trkpt><trkpt lat="43.218975" lon="12.1914917"><ele>316.0</ele><time>2026-03-29T10:21:04.32Z</time></trkpt><trkpt lat="43.218895" lon="12.1915333"><ele>316.0</ele><time>2026-03-29T10:21:05.32Z</time></trkpt><trkpt lat="43.2188033" lon="12.19157"><ele>315.0</ele><time>2026-03-29T10:21:06.321Z</time></trkpt><trkpt lat="43.218695" lon="12.1915967"><ele>314.0</ele><time>2026-03-29T10:21:07.321Z</time></trkpt><trkpt lat="43.2185817" lon="12.19162"><ele>313.0</ele><time>2026-03-29T10:21:08.322Z</time></trkpt><trkpt lat="43.218455" lon="12.1916383"><ele>312.0</ele><time>2026-03-29T10:21:09.325Z</time></trkpt><trkpt lat="43.2183217" lon="12.19165"><ele>312.0</ele><time>2026-03-29T10:21:10.319Z</time></trkpt><trkpt lat="43.2181917" lon="12.191665"><ele>312.0</ele><time>2026-03-29T10:21:11.321Z</time></trkpt><trkpt lat="43.21806" lon="12.1916767"><ele>312.0</ele><time>2026-03-29T10:21:12.324Z</time></trkpt><trkpt lat="43.2179267" lon="12.1916967"><ele>312.0</ele><time>2026-03-29T10:21:13.321Z</time></trkpt><trkpt lat="43.2177933" lon="12.191715"><ele>312.0</ele><time>2026-03-29T10:21:14.319Z</time></trkpt><trkpt lat="43.2176567" lon="12.1917333"><ele>312.0</ele><time>2026-03-29T10:21:15.32Z</time></trkpt><trkpt lat="43.2175317" lon="12.1917433"><ele>312.0</ele><time>2026-03-29T10:21:16.321Z</time></trkpt><trkpt lat="43.2174133" lon="12.1917433"><ele>312.0</ele><time>2026-03-29T10:21:17.32Z</time></trkpt><trkpt lat="43.2173017" lon="12.1917483"><ele>312.2</ele><time>2026-03-29T10:21:18.32Z</time></trkpt><trkpt lat="43.2171983" lon="12.1917567"><ele>312.4</ele><time>2026-03-29T10:21:19.319Z</time></trkpt><trkpt lat="43.2170933" lon="12.1917683"><ele>312.6</ele><time>2026-03-29T10:21:20.321Z</time></trkpt><trkpt lat="43.2169917" lon="12.1917817"><ele>312.8</ele><time>2026-03-29T10:21:21.323Z</time></trkpt><trkpt lat="43.2168917" lon="12.1917917"><ele>313.0</ele><time>2026-03-29T10:21:22.323Z</time></trkpt><trkpt lat="43.2167917" lon="12.1918"><ele>313.0</ele><time>2026-03-29T10:21:23.326Z</time></trkpt><trkpt lat="43.2166983" lon="12.1918083"><ele>313.0</ele><time>2026-03-29T10:21:24.32Z</time></trkpt><trkpt lat="43.2166117" lon="12.1918133"><ele>313.0</ele><time>2026-03-29T10:21:25.321Z</time></trkpt><trkpt lat="43.216535" lon="12.191825"><ele>313.0</ele><time>2026-03-29T10:21:26.32Z</time></trkpt><trkpt lat="43.2164733" lon="12.1918467"><ele>313.0</ele><time>2026-03-29T10:21:27.32Z</time></trkpt><trkpt lat="43.21642" lon="12.1919933"><ele>313.0</ele><time>2026-03-29T10:21:29.32Z</time></trkpt><trkpt lat="43.2164167" lon="12.1920933"><ele>313.0</ele><time>2026-03-29T10:21:30.322Z</time></trkpt><trkpt lat="43.2164333" lon="12.1922117"><ele>313.0</ele><time>2026-03-29T10:21:31.322Z</time></trkpt><trkpt lat="43.2164783" lon="12.19236"><ele>313.0</ele><time>2026-03-29T10:21:32.324Z</time></trkpt><trkpt lat="43.2165267" lon="12.1925017"><ele>313.0</ele><time>2026-03-29T10:21:33.323Z</time></trkpt><trkpt lat="43.21658" lon="12.1926433"><ele>313.0</ele><time>2026-03-29T10:21:34.321Z</time></trkpt><trkpt lat="43.2166417" lon="12.1927867"><ele>313.0</ele><time>2026-03-29T10:21:35.323Z</time></trkpt><trkpt lat="43.2167067" lon="12.1929267"><ele>313.0</ele><time>2026-03-29T10:21:36.32Z</time></trkpt><trkpt lat="43.2167717" lon="12.1930683"><ele>313.0</ele><time>2026-03-29T10:21:37.32Z</time></trkpt><trkpt lat="43.2168367" lon="12.1932133"><ele>313.0</ele><time>2026-03-29T10:21:38.32Z</time></trkpt><trkpt lat="43.2169" lon="12.1933617"><ele>313.25</ele><time>2026-03-29T10:21:39.326Z</time></trkpt><trkpt lat="43.2169617" lon="12.193515"><ele>313.5</ele><time>2026-03-29T10:21:40.321Z</time></trkpt><trkpt lat="43.2170233" lon="12.1936633"><ele>313.75</ele><time>2026-03-29T10:21:41.322Z</time></trkpt><trkpt lat="43.2170867" lon="12.193815"><ele>314.0</ele><time>2026-03-29T10:21:42.321Z</time></trkpt><trkpt lat="43.2171517" lon="12.1939667"><ele>313.75</ele><time>2026-03-29T10:21:43.32Z</time></trkpt><trkpt lat="43.217215" lon="12.194115"><ele>313.5</ele><time>2026-03-29T10:21:44.32Z</time></trkpt><trkpt lat="43.2172867" lon="12.194275"><ele>313.25</ele><time>2026-03-29T10:21:45.32Z</time></trkpt><trkpt lat="43.2173517" lon="12.1944233"><ele>313.0</ele><time>2026-03-29T10:21:46.319Z</time></trkpt><trkpt lat="43.21741" lon="12.19456"><ele>312.8</ele><time>2026-03-29T10:21:47.32Z</time></trkpt><trkpt lat="43.2174483" lon="12.19468"><ele>312.6</ele><time>2026-03-29T10:21:48.322Z</time></trkpt><trkpt lat="43.2174667" lon="12.1947933"><ele>312.4</ele><time>2026-03-29T10:21:49.319Z</time></trkpt><trkpt lat="43.2174717" lon="12.1949033"><ele>312.2</ele><time>2026-03-29T10:21:50.32Z</time></trkpt><trkpt lat="43.2174533" lon="12.195025"><ele>312.0</ele><time>2026-03-29T10:21:51.323Z</time></trkpt><trkpt lat="43.217415" lon="12.1951617"><ele>312.0</ele><time>2026-03-29T10:21:52.324Z</time></trkpt><trkpt lat="43.21738" lon="12.1953017"><ele>312.0</ele><time>2026-03-29T10:21:53.319Z</time></trkpt><trkpt lat="43.2173383" lon="12.1954467"><ele>312.0</ele><time>2026-03-29T10:21:54.32Z</time></trkpt><trkpt lat="43.2173017" lon="12.19559"><ele>312.0</ele><time>2026-03-29T10:21:55.322Z</time></trkpt><trkpt lat="43.2172683" lon="12.1957433"><ele>312.0</ele><time>2026-03-29T10:21:56.322Z</time></trkpt><trkpt lat="43.2172317" lon="12.1958967"><ele>312.0</ele><time>2026-03-29T10:21:57.321Z</time></trkpt><trkpt lat="43.217195" lon="12.1960583"><ele>312.0</ele><time>2026-03-29T10:21:58.319Z</time></trkpt><trkpt lat="43.217165" lon="12.1962233"><ele>312.0</ele><time>2026-03-29T10:21:59.322Z</time></trkpt><trkpt lat="43.2171517" lon="12.19639"><ele>312.0</ele><time>2026-03-29T10:22:00.323Z</time></trkpt><trkpt lat="43.2171483" lon="12.19656"><ele>311.75</ele><time>2026-03-29T10:22:01.322Z</time></trkpt><trkpt lat="43.21716" lon="12.1967317"><ele>311.5</ele><time>2026-03-29T10:22:02.323Z</time></trkpt><trkpt lat="43.2171783" lon="12.1969"><ele>311.25</ele><time>2026-03-29T10:22:03.321Z</time></trkpt><trkpt lat="43.2172" lon="12.1970633"><ele>311.0</ele><time>2026-03-29T10:22:04.321Z</time></trkpt><trkpt lat="43.2172217" lon="12.1972283"><ele>311.0</ele><time>2026-03-29T10:22:05.32Z</time></trkpt><trkpt lat="43.2172433" lon="12.197395"><ele>311.0</ele><time>2026-03-29T10:22:06.323Z</time></trkpt><trkpt lat="43.2172667" lon="12.1975683"><ele>311.0</ele><time>2026-03-29T10:22:07.321Z</time></trkpt><trkpt lat="43.2172867" lon="12.1977433"><ele>311.0</ele><time>2026-03-29T10:22:08.32Z</time></trkpt><trkpt lat="43.2173033" lon="12.1979183"><ele>310.75</ele><time>2026-03-29T10:22:09.321Z</time></trkpt><trkpt lat="43.21732" lon="12.1980933"><ele>310.5</ele><time>2026-03-29T10:22:10.323Z</time></trkpt><trkpt lat="43.21734" lon="12.1982717"><ele>310.25</ele><time>2026-03-29T10:22:11.324Z</time></trkpt><trkpt lat="43.2173733" lon="12.1984433"><ele>310.0</ele><time>2026-03-29T10:22:12.322Z</time></trkpt><trkpt lat="43.2174217" lon="12.1986067"><ele>310.0</ele><time>2026-03-29T10:22:13.32Z</time></trkpt><trkpt lat="43.21748" lon="12.198765"><ele>310.0</ele><time>2026-03-29T10:22:14.319Z</time></trkpt><trkpt lat="43.2175417" lon="12.19892"><ele>310.0</ele><time>2026-03-29T10:22:15.323Z</time></trkpt><trkpt lat="43.217605" lon="12.19907"><ele>310.0</ele><time>2026-03-29T10:22:16.324Z</time></trkpt><trkpt lat="43.217665" lon="12.1992167"><ele>310.0</ele><time>2026-03-29T10:22:17.322Z</time></trkpt><trkpt lat="43.21772" lon="12.19936"><ele>310.0</ele><time>2026-03-29T10:22:18.322Z</time></trkpt><trkpt lat="43.2177767" lon="12.199505"><ele>310.0</ele><time>2026-03-29T10:22:19.321Z</time></trkpt><trkpt lat="43.2178317" lon="12.19965"><ele>310.0</ele><time>2026-03-29T10:22:20.32Z</time></trkpt><trkpt lat="43.2178867" lon="12.1997967"><ele>310.25</ele><time>2026-03-29T10:22:21.324Z</time></trkpt><trkpt lat="43.2179417" lon="12.1999417"><ele>310.5</ele><time>2026-03-29T10:22:22.322Z</time></trkpt><trkpt lat="43.2180033" lon="12.2000867"><ele>310.75</ele><time>2026-03-29T10:22:23.32Z</time></trkpt><trkpt lat="43.218065" lon="12.200235"><ele>311.0</ele><time>2026-03-29T10:22:24.319Z</time></trkpt><trkpt lat="43.2181283" lon="12.200385"><ele>310.75</ele><time>2026-03-29T10:22:25.318Z</time></trkpt><trkpt lat="43.21819" lon="12.2005383"><ele>310.5</ele><time>2026-03-29T10:22:26.321Z</time></trkpt><trkpt lat="43.2182517" lon="12.2006917"><ele>310.25</ele><time>2026-03-29T10:22:27.322Z</time></trkpt><trkpt lat="43.2183117" lon="12.2008417"><ele>310.0</ele><time>2026-03-29T10:22:28.32Z</time></trkpt><trkpt lat="43.21837" lon="12.200995"><ele>310.4</ele><time>2026-03-29T10:22:29.325Z</time></trkpt><trkpt lat="43.2184233" lon="12.2011433"><ele>310.8</ele><time>2026-03-29T10:22:30.32Z</time></trkpt><trkpt lat="43.2184733" lon="12.2012817"><ele>311.2</ele><time>2026-03-29T10:22:31.324Z</time></trkpt><trkpt lat="43.21852" lon="12.2014133"><ele>311.6</ele><time>2026-03-29T10:22:32.319Z</time></trkpt><trkpt lat="43.2185667" lon="12.2015367"><ele>312.0</ele><time>2026-03-29T10:22:33.321Z</time></trkpt><trkpt lat="43.2186067" lon="12.20165"><ele>312.4</ele><time>2026-03-29T10:22:34.323Z</time></trkpt><trkpt lat="43.2186433" lon="12.2017567"><ele>312.79999999999995</ele><time>2026-03-29T10:22:35.321Z</time></trkpt><trkpt lat="43.218675" lon="12.20185"><ele>313.2</ele><time>2026-03-29T10:22:36.32Z</time></trkpt><trkpt lat="43.218695" lon="12.2019967"><ele>313.59999999999997</ele><time>2026-03-29T10:22:38.32Z</time></trkpt><trkpt lat="43.21865" lon="12.2021"><ele>314.0</ele><time>2026-03-29T10:22:40.321Z</time></trkpt><trkpt lat="43.21852" lon="12.2021317"><ele>314.0</ele><time>2026-03-29T10:22:42.323Z</time></trkpt><trkpt lat="43.2184333" lon="12.2021417"><ele>314.0</ele><time>2026-03-29T10:22:43.322Z</time></trkpt><trkpt lat="43.2183483" lon="12.202145"><ele>314.0</ele><time>2026-03-29T10:22:44.322Z</time></trkpt><trkpt lat="43.2182683" lon="12.2021517"><ele>314.0</ele><time>2026-03-29T10:22:45.32Z</time></trkpt><trkpt lat="43.2181983" lon="12.202155"><ele>314.0</ele><time>2026-03-29T10:22:46.319Z</time></trkpt><trkpt lat="43.2181333" lon="12.2021567"><ele>314.0</ele><time>2026-03-29T10:22:47.323Z</time></trkpt><trkpt lat="43.2180233" lon="12.2021683"><ele>314.0</ele><time>2026-03-29T10:22:49.321Z</time></trkpt><trkpt lat="43.2179117" lon="12.2021817"><ele>314.0</ele><time>2026-03-29T10:22:51.321Z</time></trkpt><trkpt lat="43.217845" lon="12.202185"><ele>314.0</ele><time>2026-03-29T10:22:52.322Z</time></trkpt><trkpt lat="43.2177633" lon="12.202195"><ele>314.0</ele><time>2026-03-29T10:22:53.32Z</time></trkpt><trkpt lat="43.21767" lon="12.2022117"><ele>314.0</ele><time>2026-03-29T10:22:54.32Z</time></trkpt><trkpt lat="43.21757" lon="12.2022267"><ele>314.0</ele><time>2026-03-29T10:22:55.319Z</time></trkpt><trkpt lat="43.2174567" lon="12.20224"><ele>314.0</ele><time>2026-03-29T10:22:56.32Z</time></trkpt><trkpt lat="43.21734" lon="12.20226"><ele>314.0</ele><time>2026-03-29T10:22:57.32Z</time></trkpt><trkpt lat="43.2172283" lon="12.202285"><ele>314.0</ele><time>2026-03-29T10:22:58.32Z</time></trkpt><trkpt lat="43.217125" lon="12.2023233"><ele>314.0</ele><time>2026-03-29T10:22:59.324Z</time></trkpt><trkpt lat="43.21703" lon="12.2023817"><ele>314.0</ele><time>2026-03-29T10:23:00.32Z</time></trkpt><trkpt lat="43.216955" lon="12.2024517"><ele>314.0</ele><time>2026-03-29T10:23:01.319Z</time></trkpt><trkpt lat="43.2168933" lon="12.2025267"><ele>314.0</ele><time>2026-03-29T10:23:02.32Z</time></trkpt><trkpt lat="43.2168433" lon="12.2025967"><ele>314.0</ele><time>2026-03-29T10:23:03.321Z</time></trkpt><trkpt lat="43.21679" lon="12.2026733"><ele>314.0</ele><time>2026-03-29T10:23:04.322Z</time></trkpt><trkpt lat="43.2167317" lon="12.202755"><ele>314.0</ele><time>2026-03-29T10:23:05.319Z</time></trkpt><trkpt lat="43.2166633" lon="12.202855"><ele>314.0</ele><time>2026-03-29T10:23:06.32Z</time></trkpt><trkpt lat="43.2165917" lon="12.2029667"><ele>314.0</ele><time>2026-03-29T10:23:07.319Z</time></trkpt><trkpt lat="43.216515" lon="12.20308"><ele>314.0</ele><time>2026-03-29T10:23:08.32Z</time></trkpt><trkpt lat="43.216435" lon="12.2032067"><ele>314.0</ele><time>2026-03-29T10:23:09.323Z</time></trkpt><trkpt lat="43.2163483" lon="12.20333"><ele>315.2</ele><time>2026-03-29T10:23:10.319Z</time></trkpt><trkpt lat="43.2162667" lon="12.2034367"><ele>316.4</ele><time>2026-03-29T10:23:11.319Z</time></trkpt><trkpt lat="43.2161933" lon="12.2035533"><ele>317.6</ele><time>2026-03-29T10:23:12.318Z</time></trkpt><trkpt lat="43.2161267" lon="12.2036833"><ele>318.8</ele><time>2026-03-29T10:23:13.317Z</time></trkpt><trkpt lat="43.2160667" lon="12.2038067"><ele>320.0</ele><time>2026-03-29T10:23:14.319Z</time></trkpt><trkpt lat="43.2160117" lon="12.2039167"><ele>320.5</ele><time>2026-03-29T10:23:15.319Z</time></trkpt><trkpt lat="43.21596" lon="12.2040133"><ele>321.0</ele><time>2026-03-29T10:23:16.319Z</time></trkpt><trkpt lat="43.21591" lon="12.2041017"><ele>321.5</ele><time>2026-03-29T10:23:17.319Z</time></trkpt><trkpt lat="43.2158583" lon="12.2041917"><ele>322.0</ele><time>2026-03-29T10:23:18.318Z</time></trkpt><trkpt lat="43.2158033" lon="12.204275"><ele>322.5</ele><time>2026-03-29T10:23:19.32Z</time></trkpt><trkpt lat="43.21574" lon="12.2043517"><ele>323.0</ele><time>2026-03-29T10:23:20.318Z</time></trkpt><trkpt lat="43.2156717" lon="12.2044183"><ele>323.33333333333337</ele><time>2026-03-29T10:23:21.318Z</time></trkpt><trkpt lat="43.215605" lon="12.20448"><ele>323.6666666666667</ele><time>2026-03-29T10:23:22.319Z</time></trkpt><trkpt lat="43.21554" lon="12.2045383"><ele>324.0</ele><time>2026-03-29T10:23:23.319Z</time></trkpt><trkpt lat="43.2154767" lon="12.2046183"><ele>324.3333333333333</ele><time>2026-03-29T10:23:24.319Z</time></trkpt><trkpt lat="43.2154033" lon="12.204705"><ele>324.66666666666663</ele><time>2026-03-29T10:23:25.317Z</time></trkpt><trkpt lat="43.2153283" lon="12.2048017"><ele>325.0</ele><time>2026-03-29T10:23:26.321Z</time></trkpt><trkpt lat="43.2152533" lon="12.2048933"><ele>325.6</ele><time>2026-03-29T10:23:27.318Z</time></trkpt><trkpt lat="43.2151717" lon="12.20499"><ele>326.2</ele><time>2026-03-29T10:23:28.321Z</time></trkpt><trkpt lat="43.2150883" lon="12.2050933"><ele>326.79999999999995</ele><time>2026-03-29T10:23:29.32Z</time></trkpt><trkpt lat="43.215005" lon="12.2051767"><ele>327.4</ele><time>2026-03-29T10:23:30.32Z</time></trkpt><trkpt lat="43.2149333" lon="12.2052333"><ele>328.0</ele><time>2026-03-29T10:23:31.32Z</time></trkpt><trkpt lat="43.2148667" lon="12.2052717"><ele>328.0</ele><time>2026-03-29T10:23:32.321Z</time></trkpt><trkpt lat="43.2148" lon="12.2053067"><ele>328.0</ele><time>2026-03-29T10:23:33.32Z</time></trkpt><trkpt lat="43.2147267" lon="12.20536"><ele>328.0</ele><time>2026-03-29T10:23:34.319Z</time></trkpt><trkpt lat="43.21465" lon="12.2054317"><ele>328.0</ele><time>2026-03-29T10:23:35.321Z</time></trkpt><trkpt lat="43.21458" lon="12.2055083"><ele>328.0</ele><time>2026-03-29T10:23:36.323Z</time></trkpt><trkpt lat="43.2145133" lon="12.2056"><ele>328.0</ele><time>2026-03-29T10:23:37.321Z</time></trkpt><trkpt lat="43.2144517" lon="12.2057033"><ele>328.16666666666663</ele><time>2026-03-29T10:23:38.322Z</time></trkpt><trkpt lat="43.214395" lon="12.2058133"><ele>328.3333333333333</ele><time>2026-03-29T10:23:39.319Z</time></trkpt><trkpt lat="43.2143433" lon="12.2059233"><ele>328.5</ele><time>2026-03-29T10:23:40.326Z</time></trkpt><trkpt lat="43.214295" lon="12.2060283"><ele>328.6666666666667</ele><time>2026-03-29T10:23:41.324Z</time></trkpt><trkpt lat="43.2142567" lon="12.206125"><ele>328.83333333333337</ele><time>2026-03-29T10:23:42.32Z</time></trkpt><trkpt lat="43.2142283" lon="12.2062183"><ele>329.0</ele><time>2026-03-29T10:23:43.32Z</time></trkpt><trkpt lat="43.2142133" lon="12.206305"><ele>329.0</ele><time>2026-03-29T10:23:44.319Z</time></trkpt><trkpt lat="43.2141733" lon="12.206465"><ele>329.0</ele><time>2026-03-29T10:23:46.324Z</time></trkpt><trkpt lat="43.2141483" lon="12.2065583"><ele>329.0</ele><time>2026-03-29T10:23:47.323Z</time></trkpt><trkpt lat="43.2141217" lon="12.2066517"><ele>329.0</ele><time>2026-03-29T10:23:48.32Z</time></trkpt><trkpt lat="43.2140817" lon="12.206805"><ele>329.0</ele><time>2026-03-29T10:23:50.32Z</time></trkpt><trkpt lat="43.2140567" lon="12.206955"><ele>329.5</ele><time>2026-03-29T10:23:52.32Z</time></trkpt><trkpt lat="43.2140617" lon="12.2070767"><ele>330.0</ele><time>2026-03-29T10:23:54.321Z</time></trkpt><trkpt lat="43.2140783" lon="12.2071667"><ele>330.5</ele><time>2026-03-29T10:23:56.321Z</time></trkpt><trkpt lat="43.2140683" lon="12.207255"><ele>331.0</ele><time>2026-03-29T10:23:58.32Z</time></trkpt><trkpt lat="43.2139967" lon="12.2073683"><ele>331.5</ele><time>2026-03-29T10:24:00.32Z</time></trkpt><trkpt lat="43.21394" lon="12.2074483"><ele>332.0</ele><time>2026-03-29T10:24:01.32Z</time></trkpt><trkpt lat="43.21388" lon="12.2075333"><ele>332.83333333333337</ele><time>2026-03-29T10:24:02.32Z</time></trkpt><trkpt lat="43.2138367" lon="12.207615"><ele>333.6666666666667</ele><time>2026-03-29T10:24:03.321Z</time></trkpt><trkpt lat="43.2137683" lon="12.2077383"><ele>334.5</ele><time>2026-03-29T10:24:05.32Z</time></trkpt><trkpt lat="43.213705" lon="12.20779"><ele>335.3333333333333</ele><time>2026-03-29T10:24:07.32Z</time></trkpt><trkpt lat="43.2136333" lon="12.2078567"><ele>336.16666666666663</ele><time>2026-03-29T10:24:10.321Z</time></trkpt><trkpt lat="43.2135583" lon="12.20793"><ele>337.0</ele><time>2026-03-29T10:24:12.32Z</time></trkpt><trkpt lat="43.2134717" lon="12.2080017"><ele>337.0</ele><time>2026-03-29T10:24:14.319Z</time></trkpt><trkpt lat="43.213335" lon="12.2080233"><ele>337.0</ele><time>2026-03-29T10:24:16.318Z</time></trkpt><trkpt lat="43.2132517" lon="12.2080467"><ele>337.0</ele><time>2026-03-29T10:24:17.32Z</time></trkpt><trkpt lat="43.2131667" lon="12.2080783"><ele>337.0</ele><time>2026-03-29T10:24:18.319Z</time></trkpt><trkpt lat="43.2130783" lon="12.208115"><ele>337.0</ele><time>2026-03-29T10:24:19.323Z</time></trkpt><trkpt lat="43.2129917" lon="12.2081567"><ele>337.8333333333333</ele><time>2026-03-29T10:24:20.32Z</time></trkpt><trkpt lat="43.2129117" lon="12.2081983"><ele>338.66666666666663</ele><time>2026-03-29T10:24:21.322Z</time></trkpt><trkpt lat="43.2128333" lon="12.2082317"><ele>339.5</ele><time>2026-03-29T10:24:22.322Z</time></trkpt><trkpt lat="43.2127517" lon="12.20826"><ele>340.3333333333333</ele><time>2026-03-29T10:24:23.32Z</time></trkpt><trkpt lat="43.2126717" lon="12.2083033"><ele>341.1666666666667</ele><time>2026-03-29T10:24:24.32Z</time></trkpt><trkpt lat="43.2125933" lon="12.2083567"><ele>342.0</ele><time>2026-03-29T10:24:25.325Z</time></trkpt><trkpt lat="43.21252" lon="12.2084117"><ele>342.0</ele><time>2026-03-29T10:24:26.323Z</time></trkpt><trkpt lat="43.2124483" lon="12.20846"><ele>342.0</ele><time>2026-03-29T10:24:27.321Z</time></trkpt><trkpt lat="43.2123767" lon="12.208505"><ele>342.0</ele><time>2026-03-29T10:24:28.318Z</time></trkpt><trkpt lat="43.2123083" lon="12.208555"><ele>342.0</ele><time>2026-03-29T10:24:29.32Z</time></trkpt><trkpt lat="43.21225" lon="12.2086117"><ele>342.0</ele><time>2026-03-29T10:24:30.323Z</time></trkpt><trkpt lat="43.2121933" lon="12.2086717"><ele>342.0</ele><time>2026-03-29T10:24:31.324Z</time></trkpt><trkpt lat="43.2121417" lon="12.2087383"><ele>342.6666666666667</ele><time>2026-03-29T10:24:32.322Z</time></trkpt><trkpt lat="43.2120883" lon="12.208805"><ele>343.3333333333333</ele><time>2026-03-29T10:24:33.323Z</time></trkpt><trkpt lat="43.2120383" lon="12.2088667"><ele>344.0</ele><time>2026-03-29T10:24:34.32Z</time></trkpt><trkpt lat="43.211945" lon="12.20896"><ele>344.66666666666663</ele><time>2026-03-29T10:24:36.323Z</time></trkpt><trkpt lat="43.2119067" lon="12.209095"><ele>345.3333333333333</ele><time>2026-03-29T10:24:38.322Z</time></trkpt><trkpt lat="43.2119167" lon="12.2091883"><ele>346.0</ele><time>2026-03-29T10:24:39.324Z</time></trkpt><trkpt lat="43.211935" lon="12.2092733"><ele>346.0</ele><time>2026-03-29T10:24:40.321Z</time></trkpt><trkpt lat="43.2119567" lon="12.209355"><ele>346.0</ele><time>2026-03-29T10:24:41.319Z</time></trkpt><trkpt lat="43.21198" lon="12.2094433"><ele>346.0</ele><time>2026-03-29T10:24:42.322Z</time></trkpt><trkpt lat="43.211995" lon="12.2095333"><ele>346.0</ele><time>2026-03-29T10:24:43.319Z</time></trkpt><trkpt lat="43.2119933" lon="12.2096583"><ele>346.0</ele><time>2026-03-29T10:24:45.323Z</time></trkpt><trkpt lat="43.2119517" lon="12.2097467"><ele>346.0</ele><time>2026-03-29T10:25:02.323Z</time></trkpt><trkpt lat="43.2119333" lon="12.2098767"><ele>346.8333333333333</ele><time>2026-03-29T10:25:04.319Z</time></trkpt><trkpt lat="43.2119317" lon="12.2100033"><ele>347.66666666666663</ele><time>2026-03-29T10:25:05.321Z</time></trkpt><trkpt lat="43.2119067" lon="12.21014"><ele>348.5</ele><time>2026-03-29T10:25:06.322Z</time></trkpt><trkpt lat="43.2118933" lon="12.2102767"><ele>349.3333333333333</ele><time>2026-03-29T10:25:07.322Z</time></trkpt><trkpt lat="43.2118833" lon="12.2103767"><ele>350.1666666666667</ele><time>2026-03-29T10:25:08.321Z</time></trkpt><trkpt lat="43.2118733" lon="12.2104683"><ele>351.0</ele><time>2026-03-29T10:25:09.322Z</time></trkpt><trkpt lat="43.2118833" lon="12.21063"><ele>351.0</ele><time>2026-03-29T10:25:10.321Z</time></trkpt><trkpt lat="43.21188" lon="12.21072"><ele>351.0</ele><time>2026-03-29T10:25:11.32Z</time></trkpt><trkpt lat="43.211835" lon="12.2108217"><ele>351.0</ele><time>2026-03-29T10:25:13.32Z</time></trkpt><trkpt lat="43.2117783" lon="12.2108617"><ele>351.0</ele><time>2026-03-29T10:25:15.322Z</time></trkpt><trkpt lat="43.21175" lon="12.2107517"><ele>351.0</ele><time>2026-03-29T10:25:17.32Z</time></trkpt><trkpt lat="43.2117183" lon="12.21065"><ele>351.0</ele><time>2026-03-29T10:25:20.324Z</time></trkpt><trkpt lat="43.2117017" lon="12.2105283"><ele>351.0</ele><time>2026-03-29T10:25:22.323Z</time></trkpt><trkpt lat="43.2116817" lon="12.2103717"><ele>351.0</ele><time>2026-03-29T10:25:24.324Z</time></trkpt><trkpt lat="43.2116717" lon="12.2102767"><ele>351.0</ele><time>2026-03-29T10:25:25.32Z</time></trkpt><trkpt lat="43.2116567" lon="12.2101883"><ele>351.0</ele><time>2026-03-29T10:25:26.321Z</time></trkpt><trkpt lat="43.2116317" lon="12.2100267"><ele>351.0</ele><time>2026-03-29T10:25:28.32Z</time></trkpt><trkpt lat="43.2116067" lon="12.2098917"><ele>350.1666666666667</ele><time>2026-03-29T10:25:30.321Z</time></trkpt><trkpt lat="43.2116117" lon="12.209795"><ele>349.3333333333333</ele><time>2026-03-29T10:25:32.326Z</time></trkpt><trkpt lat="43.21157" lon="12.2096933"><ele>348.5</ele><time>2026-03-29T10:25:35.33Z</time></trkpt><trkpt lat="43.2115133" lon="12.20962"><ele>347.66666666666663</ele><time>2026-03-29T10:25:38.321Z</time></trkpt><trkpt lat="43.2114267" lon="12.2096033"><ele>346.8333333333333</ele><time>2026-03-29T10:25:41.323Z</time></trkpt><trkpt lat="43.2113433" lon="12.2096483"><ele>346.0</ele><time>2026-03-29T10:25:43.32Z</time></trkpt><trkpt lat="43.2112083" lon="12.2097259"><ele>347.3333333333333</ele><time>2026-03-29T10:25:47.348Z</time></trkpt><trkpt lat="43.2111273" lon="12.2097354"><ele>348.66666666666663</ele><time>2026-03-29T10:25:48.321Z</time></trkpt><trkpt lat="43.2110655" lon="12.2097645"><ele>350.0</ele><time>2026-03-29T10:25:49.324Z</time></trkpt><trkpt lat="43.2110011" lon="12.2097995"><ele>351.3333333333333</ele><time>2026-03-29T10:25:50.323Z</time></trkpt><trkpt lat="43.2108853" lon="12.2098536"><ele>352.6666666666667</ele><time>2026-03-29T10:25:52.321Z</time></trkpt><trkpt lat="43.2107938" lon="12.2099076"><ele>354.0</ele><time>2026-03-29T10:25:54.321Z</time></trkpt><trkpt lat="43.2107291" lon="12.2099619"><ele>354.0</ele><time>2026-03-29T10:25:56.323Z</time></trkpt><trkpt lat="43.2106748" lon="12.2100189"><ele>354.0</ele><time>2026-03-29T10:25:58.323Z</time></trkpt><trkpt lat="43.2106036" lon="12.2100679"><ele>354.0</ele><time>2026-03-29T10:26:02.432Z</time></trkpt><trkpt lat="43.21048" lon="12.2102083"><ele>354.0</ele><time>2026-03-29T10:26:04.32Z</time></trkpt><trkpt lat="43.210415" lon="12.2102617"><ele>354.0</ele><time>2026-03-29T10:26:06.323Z</time></trkpt><trkpt lat="43.210335" lon="12.21029"><ele>356.4</ele><time>2026-03-29T10:26:10.323Z</time></trkpt><trkpt lat="43.2102733" lon="12.2103383"><ele>358.79999999999995</ele><time>2026-03-29T10:26:12.323Z</time></trkpt><trkpt lat="43.210195" lon="12.2104583"><ele>361.20000000000005</ele><time>2026-03-29T10:26:14.327Z</time></trkpt><trkpt lat="43.21012" lon="12.210585"><ele>363.6</ele><time>2026-03-29T10:26:16.321Z</time></trkpt><trkpt lat="43.2100417" lon="12.2106583"><ele>366.0</ele><time>2026-03-29T10:26:18.323Z</time></trkpt><trkpt lat="43.2099633" lon="12.2107117"><ele>366.0</ele><time>2026-03-29T10:26:20.32Z</time></trkpt><trkpt lat="43.20987" lon="12.2107567"><ele>366.0</ele><time>2026-03-29T10:26:23.323Z</time></trkpt><trkpt lat="43.2097667" lon="12.2108133"><ele>366.0</ele><time>2026-03-29T10:26:33.324Z</time></trkpt><trkpt lat="43.2096967" lon="12.2108417"><ele>366.0</ele><time>2026-03-29T10:26:36.324Z</time></trkpt><trkpt lat="43.2096133" lon="12.2108833"><ele>366.0</ele><time>2026-03-29T10:26:39.324Z</time></trkpt><trkpt lat="43.20952" lon="12.210925"><ele>368.75</ele><time>2026-03-29T10:26:42.323Z</time></trkpt><trkpt lat="43.20945" lon="12.2109933"><ele>371.5</ele><time>2026-03-29T10:26:45.325Z</time></trkpt><trkpt lat="43.2093883" lon="12.21107"><ele>374.25</ele><time>2026-03-29T10:26:47.32Z</time></trkpt><trkpt lat="43.2093117" lon="12.2111917"><ele>377.0</ele><time>2026-03-29T10:26:55.324Z</time></trkpt><trkpt lat="43.209195" lon="12.2113783"><ele>377.0</ele><time>2026-03-29T10:27:12.322Z</time></trkpt><trkpt lat="43.20914" lon="12.211435"><ele>377.0</ele><time>2026-03-29T10:27:16.321Z</time></trkpt><trkpt lat="43.2091017" lon="12.2115467"><ele>377.0</ele><time>2026-03-29T10:28:09.323Z</time></trkpt><trkpt lat="43.209035" lon="12.2116117"><ele>377.0</ele><time>2026-03-29T10:28:13.323Z</time></trkpt><trkpt lat="43.2089767" lon="12.211645"><ele>377.0</ele><time>2026-03-29T10:28:17.323Z</time></trkpt><trkpt lat="43.2089183" lon="12.2117417"><ele>377.0</ele><time>2026-03-29T10:28:38.322Z</time></trkpt><trkpt lat="43.208915" lon="12.2118333"><ele>376.4285714285714</ele><time>2026-03-29T10:28:42.322Z</time></trkpt><trkpt lat="43.208915" lon="12.211925"><ele>375.85714285714283</ele><time>2026-03-29T10:28:47.32Z</time></trkpt><trkpt lat="43.2089283" lon="12.2120133"><ele>375.2857142857143</ele><time>2026-03-29T10:28:51.321Z</time></trkpt><trkpt lat="43.2090167" lon="12.2120333"><ele>374.71428571428567</ele><time>2026-03-29T10:29:02.321Z</time></trkpt><trkpt lat="43.2090917" lon="12.2119967"><ele>374.14285714285717</ele><time>2026-03-29T10:29:05.321Z</time></trkpt><trkpt lat="43.2091617" lon="12.2120117"><ele>373.57142857142856</ele><time>2026-03-29T10:29:13.322Z</time></trkpt><trkpt lat="43.2092233" lon="12.2119933"><ele>373.0</ele><time>2026-03-29T10:29:19.321Z</time></trkpt><trkpt lat="43.2092483" lon="12.21185"><ele>373.0</ele><time>2026-03-29T10:30:05.32Z</time></trkpt><trkpt lat="43.2093017" lon="12.2119833"><ele>373.0</ele><time>2026-03-29T10:30:07.322Z</time></trkpt><trkpt lat="43.2093467" lon="12.21214"><ele>373.0</ele><time>2026-03-29T10:30:09.324Z</time></trkpt><trkpt lat="43.2093767" lon="12.2122833"><ele>373.0</ele><time>2026-03-29T10:30:11.323Z</time></trkpt><trkpt lat="43.2094167" lon="12.21236"><ele>373.0</ele><time>2026-03-29T10:30:15.324Z</time></trkpt><trkpt lat="43.2094267" lon="12.2124717"><ele>374.79999999999995</ele><time>2026-03-29T10:30:18.324Z</time></trkpt><trkpt lat="43.2094833" lon="12.2126083"><ele>376.6</ele><time>2026-03-29T10:30:20.322Z</time></trkpt><trkpt lat="43.2095233" lon="12.2127283"><ele>378.4</ele><time>2026-03-29T10:30:22.325Z</time></trkpt><trkpt lat="43.209525" lon="12.212865"><ele>380.20000000000005</ele><time>2026-03-29T10:30:29.321Z</time></trkpt><trkpt lat="43.20946" lon="12.2130033"><ele>382.0</ele><time>2026-03-29T10:30:31.324Z</time></trkpt><trkpt lat="43.209425" lon="12.2130817"><ele>384.66666666666663</ele><time>2026-03-29T10:30:32.327Z</time></trkpt><trkpt lat="43.2094017" lon="12.213165"><ele>387.3333333333333</ele><time>2026-03-29T10:30:33.323Z</time></trkpt><trkpt lat="43.2093483" lon="12.213305"><ele>390.0</ele><time>2026-03-29T10:30:35.322Z</time></trkpt><trkpt lat="43.2093233" lon="12.2133917"><ele>392.66666666666663</ele><time>2026-03-29T10:30:36.323Z</time></trkpt><trkpt lat="43.2093" lon="12.213475"><ele>395.3333333333333</ele><time>2026-03-29T10:30:37.321Z</time></trkpt><trkpt lat="43.209285" lon="12.2135667"><ele>398.0</ele><time>2026-03-29T10:30:38.321Z</time></trkpt><trkpt lat="43.2092717" lon="12.2136633"><ele>397.99999999999994</ele><time>2026-03-29T10:30:39.323Z</time></trkpt><trkpt lat="43.2092483" lon="12.21376"><ele>398.0</ele><time>2026-03-29T10:30:40.323Z</time></trkpt><trkpt lat="43.2092283" lon="12.2138433"><ele>398.0</ele><time>2026-03-29T10:30:41.322Z</time></trkpt><trkpt lat="43.20921" lon="12.21393"><ele>398.0</ele><time>2026-03-29T10:30:42.323Z</time></trkpt><trkpt lat="43.2092017" lon="12.2140167"><ele>397.99999999999994</ele><time>2026-03-29T10:30:43.321Z</time></trkpt><trkpt lat="43.209205" lon="12.21417"><ele>398.0</ele><time>2026-03-29T10:30:45.326Z</time></trkpt><trkpt lat="43.2091817" lon="12.2142983"><ele>397.66666666666663</ele><time>2026-03-29T10:30:47.323Z</time></trkpt><trkpt lat="43.209105" lon="12.214435"><ele>397.3333333333333</ele><time>2026-03-29T10:30:49.319Z</time></trkpt><trkpt lat="43.2090617" lon="12.2145117"><ele>397.0</ele><time>2026-03-29T10:30:50.32Z</time></trkpt><trkpt lat="43.209015" lon="12.2145867"><ele>396.66666666666663</ele><time>2026-03-29T10:30:51.324Z</time></trkpt><trkpt lat="43.208975" lon="12.21466"><ele>396.3333333333333</ele><time>2026-03-29T10:30:52.32Z</time></trkpt><trkpt lat="43.2089433" lon="12.2147467"><ele>396.0</ele><time>2026-03-29T10:30:53.324Z</time></trkpt><trkpt lat="43.2089183" lon="12.2148433"><ele>399.20000000000005</ele><time>2026-03-29T10:30:54.319Z</time></trkpt><trkpt lat="43.2089" lon="12.2149433"><ele>402.40000000000003</ele><time>2026-03-29T10:30:55.324Z</time></trkpt><trkpt lat="43.2088767" lon="12.21506"><ele>405.6</ele><time>2026-03-29T10:30:56.323Z</time></trkpt><trkpt lat="43.2088517" lon="12.2152033"><ele>408.8</ele><time>2026-03-29T10:30:57.321Z</time></trkpt><trkpt lat="43.208835" lon="12.2153533"><ele>412.0</ele><time>2026-03-29T10:30:58.319Z</time></trkpt><trkpt lat="43.2088167" lon="12.2155067"><ele>412.0</ele><time>2026-03-29T10:30:59.32Z</time></trkpt><trkpt lat="43.208795" lon="12.2156533"><ele>412.0</ele><time>2026-03-29T10:31:00.322Z</time></trkpt><trkpt lat="43.2087783" lon="12.2157933"><ele>412.0</ele><time>2026-03-29T10:31:01.321Z</time></trkpt><trkpt lat="43.2087683" lon="12.21591"><ele>412.0</ele><time>2026-03-29T10:31:02.321Z</time></trkpt><trkpt lat="43.20877" lon="12.2160083"><ele>412.0</ele><time>2026-03-29T10:31:03.323Z</time></trkpt><trkpt lat="43.208825" lon="12.2161733"><ele>414.33333333333337</ele><time>2026-03-29T10:31:05.323Z</time></trkpt><trkpt lat="43.2088733" lon="12.2162517"><ele>416.6666666666667</ele><time>2026-03-29T10:31:06.319Z</time></trkpt><trkpt lat="43.2089317" lon="12.2163233"><ele>419.0</ele><time>2026-03-29T10:31:07.321Z</time></trkpt><trkpt lat="43.2090017" lon="12.2163917"><ele>421.33333333333337</ele><time>2026-03-29T10:31:08.321Z</time></trkpt><trkpt lat="43.2090767" lon="12.2164483"><ele>423.6666666666667</ele><time>2026-03-29T10:31:09.32Z</time></trkpt><trkpt lat="43.2091633" lon="12.21649"><ele>426.0</ele><time>2026-03-29T10:31:10.321Z</time></trkpt><trkpt lat="43.20924" lon="12.2165233"><ele>429.6666666666667</ele><time>2026-03-29T10:31:11.32Z</time></trkpt><trkpt lat="43.2093133" lon="12.2165667"><ele>433.33333333333337</ele><time>2026-03-29T10:31:12.323Z</time></trkpt><trkpt lat="43.2093783" lon="12.2166167"><ele>437.0</ele><time>2026-03-29T10:31:13.324Z</time></trkpt><trkpt lat="43.2094367" lon="12.2166833"><ele>440.6666666666667</ele><time>2026-03-29T10:31:14.321Z</time></trkpt><trkpt lat="43.2095" lon="12.2167583"><ele>444.33333333333337</ele><time>2026-03-29T10:31:15.32Z</time></trkpt><trkpt lat="43.2095733" lon="12.2168283"><ele>448.0</ele><time>2026-03-29T10:31:16.322Z</time></trkpt><trkpt lat="43.20965" lon="12.216895"><ele>448.00000000000006</ele><time>2026-03-29T10:31:17.321Z</time></trkpt><trkpt lat="43.20973" lon="12.21695"><ele>448.0</ele><time>2026-03-29T10:31:18.323Z</time></trkpt><trkpt lat="43.2098133" lon="12.2170217"><ele>448.0</ele><time>2026-03-29T10:31:19.321Z</time></trkpt><trkpt lat="43.20988" lon="12.2171"><ele>448.0</ele><time>2026-03-29T10:31:20.319Z</time></trkpt><trkpt lat="43.2099433" lon="12.2171783"><ele>448.00000000000006</ele><time>2026-03-29T10:31:21.325Z</time></trkpt><trkpt lat="43.2099967" lon="12.2172267"><ele>448.0</ele><time>2026-03-29T10:31:22.32Z</time></trkpt><trkpt lat="43.2101233" lon="12.2172667"><ele>447.6666666666667</ele><time>2026-03-29T10:31:24.322Z</time></trkpt><trkpt lat="43.2102067" lon="12.2172817"><ele>447.33333333333337</ele><time>2026-03-29T10:31:25.325Z</time></trkpt><trkpt lat="43.2102983" lon="12.2173117"><ele>447.0</ele><time>2026-03-29T10:31:26.32Z</time></trkpt><trkpt lat="43.2103883" lon="12.2173467"><ele>446.66666666666663</ele><time>2026-03-29T10:31:27.32Z</time></trkpt><trkpt lat="43.21047" lon="12.21739"><ele>446.3333333333333</ele><time>2026-03-29T10:31:28.321Z</time></trkpt><trkpt lat="43.2105383" lon="12.2174417"><ele>446.0</ele><time>2026-03-29T10:31:29.322Z</time></trkpt><trkpt lat="43.2106083" lon="12.2174967"><ele>449.0</ele><time>2026-03-29T10:31:30.324Z</time></trkpt><trkpt lat="43.2106717" lon="12.217575"><ele>452.0</ele><time>2026-03-29T10:31:32.32Z</time></trkpt><trkpt lat="43.2106617" lon="12.2176617"><ele>455.0</ele><time>2026-03-29T10:31:34.319Z</time></trkpt><trkpt lat="43.2105533" lon="12.2177767"><ele>458.0</ele><time>2026-03-29T10:31:35.323Z</time></trkpt><trkpt lat="43.2104367" lon="12.2179067"><ele>461.0</ele><time>2026-03-29T10:31:36.32Z</time></trkpt><trkpt lat="43.21034" lon="12.2180333"><ele>464.25</ele><time>2026-03-29T10:31:37.322Z</time></trkpt><trkpt lat="43.2102617" lon="12.218165"><ele>467.5</ele><time>2026-03-29T10:31:38.321Z</time></trkpt><trkpt lat="43.2102" lon="12.218305"><ele>470.75</ele><time>2026-03-29T10:31:39.32Z</time></trkpt><trkpt lat="43.210135" lon="12.218435"><ele>474.0</ele><time>2026-03-29T10:31:40.323Z</time></trkpt><trkpt lat="43.210065" lon="12.2185567"><ele>474.0</ele><time>2026-03-29T10:31:41.321Z</time></trkpt><trkpt lat="43.2099817" lon="12.218685"><ele>474.0</ele><time>2026-03-29T10:31:42.32Z</time></trkpt><trkpt lat="43.20991" lon="12.2188067"><ele>474.0</ele><time>2026-03-29T10:31:43.32Z</time></trkpt><trkpt lat="43.2098467" lon="12.218925"><ele>474.0</ele><time>2026-03-29T10:31:44.32Z</time></trkpt><trkpt lat="43.2097833" lon="12.2190467"><ele>477.4</ele><time>2026-03-29T10:31:45.321Z</time></trkpt><trkpt lat="43.209715" lon="12.219165"><ele>480.79999999999995</ele><time>2026-03-29T10:31:46.321Z</time></trkpt><trkpt lat="43.2096433" lon="12.2192733"><ele>484.20000000000005</ele><time>2026-03-29T10:31:47.32Z</time></trkpt><trkpt lat="43.20956" lon="12.219355"><ele>487.6</ele><time>2026-03-29T10:31:48.322Z</time></trkpt><trkpt lat="43.20949" lon="12.219395"><ele>491.0</ele><time>2026-03-29T10:31:49.322Z</time></trkpt><trkpt lat="43.209415" lon="12.2194133"><ele>491.0</ele><time>2026-03-29T10:31:50.324Z</time></trkpt><trkpt lat="43.2093183" lon="12.2193667"><ele>491.0</ele><time>2026-03-29T10:31:51.322Z</time></trkpt><trkpt lat="43.209235" lon="12.2192983"><ele>491.0</ele><time>2026-03-29T10:31:52.318Z</time></trkpt><trkpt lat="43.209145" lon="12.21923"><ele>491.0</ele><time>2026-03-29T10:31:53.323Z</time></trkpt><trkpt lat="43.2090517" lon="12.2191633"><ele>491.0</ele><time>2026-03-29T10:31:54.323Z</time></trkpt><trkpt lat="43.2089683" lon="12.2190983"><ele>490.3333333333333</ele><time>2026-03-29T10:31:55.321Z</time></trkpt><trkpt lat="43.208895" lon="12.2190383"><ele>489.66666666666663</ele><time>2026-03-29T10:31:56.321Z</time></trkpt><trkpt lat="43.2088167" lon="12.2189933"><ele>489.0</ele><time>2026-03-29T10:31:57.322Z</time></trkpt><trkpt lat="43.2087383" lon="12.2189717"><ele>488.33333333333337</ele><time>2026-03-29T10:31:58.323Z</time></trkpt><trkpt lat="43.208665" lon="12.2189633"><ele>487.6666666666667</ele><time>2026-03-29T10:31:59.323Z</time></trkpt><trkpt lat="43.2085967" lon="12.2189767"><ele>487.0</ele><time>2026-03-29T10:32:00.322Z</time></trkpt><trkpt lat="43.20853" lon="12.21901"><ele>487.00000000000006</ele><time>2026-03-29T10:32:01.321Z</time></trkpt><trkpt lat="43.2084717" lon="12.21908"><ele>487.0</ele><time>2026-03-29T10:32:02.321Z</time></trkpt><trkpt lat="43.2084183" lon="12.2191683"><ele>487.0</ele><time>2026-03-29T10:32:03.322Z</time></trkpt><trkpt lat="43.20836" lon="12.2192517"><ele>487.0</ele><time>2026-03-29T10:32:04.321Z</time></trkpt><trkpt lat="43.2082933" lon="12.21934"><ele>487.00000000000006</ele><time>2026-03-29T10:32:05.322Z</time></trkpt><trkpt lat="43.20822" lon="12.2194417"><ele>487.0</ele><time>2026-03-29T10:32:06.32Z</time></trkpt><trkpt lat="43.2081467" lon="12.2195483"><ele>488.20000000000005</ele><time>2026-03-29T10:32:07.324Z</time></trkpt><trkpt lat="43.2080733" lon="12.2196667"><ele>489.40000000000003</ele><time>2026-03-29T10:32:08.319Z</time></trkpt><trkpt lat="43.208" lon="12.21978"><ele>490.59999999999997</ele><time>2026-03-29T10:32:09.322Z</time></trkpt><trkpt lat="43.2079317" lon="12.2198967"><ele>491.79999999999995</ele><time>2026-03-29T10:32:10.32Z</time></trkpt><trkpt lat="43.2078633" lon="12.2200017"><ele>493.0</ele><time>2026-03-29T10:32:11.324Z</time></trkpt><trkpt lat="43.2077983" lon="12.22008"><ele>495.6666666666667</ele><time>2026-03-29T10:32:12.323Z</time></trkpt><trkpt lat="43.2077333" lon="12.22013"><ele>498.33333333333337</ele><time>2026-03-29T10:32:13.322Z</time></trkpt><trkpt lat="43.207645" lon="12.220175"><ele>501.0</ele><time>2026-03-29T10:32:15.322Z</time></trkpt><trkpt lat="43.2075583" lon="12.2201383"><ele>503.66666666666663</ele><time>2026-03-29T10:32:17.324Z</time></trkpt><trkpt lat="43.2075117" lon="12.22007"><ele>506.3333333333333</ele><time>2026-03-29T10:32:18.322Z</time></trkpt><trkpt lat="43.2074567" lon="12.219975"><ele>509.0</ele><time>2026-03-29T10:32:20.32Z</time></trkpt><trkpt lat="43.207335" lon="12.2199633"><ele>510.0</ele><time>2026-03-29T10:32:21.32Z</time></trkpt><trkpt lat="43.2072317" lon="12.2199983"><ele>511.0</ele><time>2026-03-29T10:32:22.321Z</time></trkpt><trkpt lat="43.2071467" lon="12.2200233"><ele>512.0</ele><time>2026-03-29T10:32:23.319Z</time></trkpt><trkpt lat="43.20705" lon="12.22007"><ele>513.0</ele><time>2026-03-29T10:32:24.319Z</time></trkpt><trkpt lat="43.2069433" lon="12.2201467"><ele>514.0</ele><time>2026-03-29T10:32:25.321Z</time></trkpt><trkpt lat="43.2067817" lon="12.220255"><ele>514.0</ele><time>2026-03-29T10:32:26.318Z</time></trkpt><trkpt lat="43.206645" lon="12.2203633"><ele>514.0</ele><time>2026-03-29T10:32:27.323Z</time></trkpt><trkpt lat="43.2065133" lon="12.2204617"><ele>514.0</ele><time>2026-03-29T10:32:28.32Z</time></trkpt><trkpt lat="43.206405" lon="12.220535"><ele>514.0</ele><time>2026-03-29T10:32:29.324Z</time></trkpt><trkpt lat="43.2063067" lon="12.2205967"><ele>515.0</ele><time>2026-03-29T10:32:30.324Z</time></trkpt><trkpt lat="43.2062133" lon="12.2206317"><ele>516.0</ele><time>2026-03-29T10:32:31.323Z</time></trkpt><trkpt lat="43.2061067" lon="12.2206333"><ele>517.0</ele><time>2026-03-29T10:32:32.321Z</time></trkpt><trkpt lat="43.206" lon="12.2205967"><ele>518.0</ele><time>2026-03-29T10:32:33.321Z</time></trkpt><trkpt lat="43.205895" lon="12.22058"><ele>519.0</ele><time>2026-03-29T10:32:34.323Z</time></trkpt><trkpt lat="43.2057933" lon="12.2205833"><ele>519.0</ele><time>2026-03-29T10:32:35.319Z</time></trkpt><trkpt lat="43.2056783" lon="12.2206017"><ele>519.0</ele><time>2026-03-29T10:32:36.321Z</time></trkpt><trkpt lat="43.2055583" lon="12.2206433"><ele>519.0</ele><time>2026-03-29T10:32:37.321Z</time></trkpt><trkpt lat="43.20543" lon="12.2206967"><ele>519.0</ele><time>2026-03-29T10:32:38.32Z</time></trkpt><trkpt lat="43.2053083" lon="12.2207433"><ele>524.2</ele><time>2026-03-29T10:32:39.323Z</time></trkpt><trkpt lat="43.2051983" lon="12.2207783"><ele>529.4</ele><time>2026-03-29T10:32:40.32Z</time></trkpt><trkpt lat="43.2050967" lon="12.2208233"><ele>534.6</ele><time>2026-03-29T10:32:41.32Z</time></trkpt><trkpt lat="43.205" lon="12.220875"><ele>539.8</ele><time>2026-03-29T10:32:42.323Z</time></trkpt><trkpt lat="43.2049233" lon="12.220945"><ele>545.0</ele><time>2026-03-29T10:32:43.32Z</time></trkpt><trkpt lat="43.2048683" lon="12.221025"><ele>545.0</ele><time>2026-03-29T10:32:44.32Z</time></trkpt><trkpt lat="43.2048167" lon="12.2210833"><ele>545.0</ele><time>2026-03-29T10:32:45.325Z</time></trkpt><trkpt lat="43.2047683" lon="12.221195"><ele>545.0</ele><time>2026-03-29T10:32:47.325Z</time></trkpt><trkpt lat="43.2047717" lon="12.2213083"><ele>545.0</ele><time>2026-03-29T10:32:49.32Z</time></trkpt><trkpt lat="43.2048367" lon="12.22142"><ele>545.0</ele><time>2026-03-29T10:32:51.321Z</time></trkpt><trkpt lat="43.2049033" lon="12.22155"><ele>547.8</ele><time>2026-03-29T10:32:53.323Z</time></trkpt><trkpt lat="43.20497" lon="12.221685"><ele>550.6</ele><time>2026-03-29T10:32:55.323Z</time></trkpt><trkpt lat="43.2049983" lon="12.2217817"><ele>553.4</ele><time>2026-03-29T10:32:57.322Z</time></trkpt><trkpt lat="43.204965" lon="12.2219283"><ele>556.2</ele><time>2026-03-29T10:32:59.32Z</time></trkpt><trkpt lat="43.2049217" lon="12.222015"><ele>559.0</ele><time>2026-03-29T10:33:00.317Z</time></trkpt><trkpt lat="43.2048517" lon="12.2221117"><ele>560.0</ele><time>2026-03-29T10:33:01.322Z</time></trkpt><trkpt lat="43.20477" lon="12.2222"><ele>561.0</ele><time>2026-03-29T10:33:02.322Z</time></trkpt><trkpt lat="43.2046483" lon="12.2222833"><ele>562.0</ele><time>2026-03-29T10:33:03.32Z</time></trkpt><trkpt lat="43.204495" lon="12.2223517"><ele>563.0</ele><time>2026-03-29T10:33:04.32Z</time></trkpt><trkpt lat="43.2043717" lon="12.2224117"><ele>566.5</ele><time>2026-03-29T10:33:05.321Z</time></trkpt><trkpt lat="43.20424" lon="12.22248"><ele>570.0</ele><time>2026-03-29T10:33:06.322Z</time></trkpt><trkpt lat="43.2041167" lon="12.22256"><ele>573.5</ele><time>2026-03-29T10:33:07.321Z</time></trkpt><trkpt lat="43.2039967" lon="12.2226483"><ele>577.0</ele><time>2026-03-29T10:33:08.32Z</time></trkpt><trkpt lat="43.2038917" lon="12.2227267"><ele>577.3333333333334</ele><time>2026-03-29T10:33:09.323Z</time></trkpt><trkpt lat="43.2038017" lon="12.2228033"><ele>577.6666666666667</ele><time>2026-03-29T10:33:10.323Z</time></trkpt><trkpt lat="43.2037283" lon="12.2228767"><ele>578.0</ele><time>2026-03-29T10:33:11.318Z</time></trkpt><trkpt lat="43.2036533" lon="12.2229533"><ele>578.3333333333334</ele><time>2026-03-29T10:33:12.319Z</time></trkpt><trkpt lat="43.2035883" lon="12.2230133"><ele>578.6666666666666</ele><time>2026-03-29T10:33:13.32Z</time></trkpt><trkpt lat="43.2035233" lon="12.2230717"><ele>579.0</ele><time>2026-03-29T10:33:14.32Z</time></trkpt><trkpt lat="43.20346" lon="12.22312"><ele>578.9999999999999</ele><time>2026-03-29T10:33:15.32Z</time></trkpt><trkpt lat="43.2033933" lon="12.223145"><ele>579.0</ele><time>2026-03-29T10:33:16.323Z</time></trkpt><trkpt lat="43.203325" lon="12.223165"><ele>579.0</ele><time>2026-03-29T10:33:17.321Z</time></trkpt><trkpt lat="43.2032567" lon="12.22319"><ele>579.0</ele><time>2026-03-29T10:33:18.321Z</time></trkpt><trkpt lat="43.203185" lon="12.2232283"><ele>579.0</ele><time>2026-03-29T10:33:19.321Z</time></trkpt><trkpt lat="43.20311" lon="12.2232683"><ele>578.9999999999999</ele><time>2026-03-29T10:33:20.322Z</time></trkpt><trkpt lat="43.2030333" lon="12.2233"><ele>579.0</ele><time>2026-03-29T10:33:21.321Z</time></trkpt><trkpt lat="43.2029567" lon="12.2233133"><ele>583.2</ele><time>2026-03-29T10:33:22.321Z</time></trkpt><trkpt lat="43.2028833" lon="12.223315"><ele>587.4</ele><time>2026-03-29T10:33:23.32Z</time></trkpt><trkpt lat="43.2027967" lon="12.2232783"><ele>591.6</ele><time>2026-03-29T10:33:25.321Z</time></trkpt><trkpt lat="43.2026733" lon="12.22326"><ele>595.8</ele><time>2026-03-29T10:33:50.32Z</time></trkpt><trkpt lat="43.2025767" lon="12.223335"><ele>600.0</ele><time>2026-03-29T10:33:52.321Z</time></trkpt><trkpt lat="43.202535" lon="12.223405"><ele>600.0</ele><time>2026-03-29T10:33:53.323Z</time></trkpt><trkpt lat="43.2025017" lon="12.22349"><ele>600.0</ele><time>2026-03-29T10:33:54.321Z</time></trkpt><trkpt lat="43.2024767" lon="12.2235767"><ele>600.0</ele><time>2026-03-29T10:33:55.319Z</time></trkpt><trkpt lat="43.20241" lon="12.223705"><ele>600.0</ele><time>2026-03-29T10:33:57.321Z</time></trkpt><trkpt lat="43.2023083" lon="12.223735"><ele>600.0</ele><time>2026-03-29T10:33:59.321Z</time></trkpt><trkpt lat="43.2022417" lon="12.2237317"><ele>600.0</ele><time>2026-03-29T10:34:00.322Z</time></trkpt><trkpt lat="43.2021717" lon="12.2237283"><ele>601.3333333333334</ele><time>2026-03-29T10:34:01.319Z</time></trkpt><trkpt lat="43.2020917" lon="12.2237867"><ele>602.6666666666666</ele><time>2026-03-29T10:34:03.32Z</time></trkpt><trkpt lat="43.2020617" lon="12.223885"><ele>604.0</ele><time>2026-03-29T10:34:05.323Z</time></trkpt><trkpt lat="43.202045" lon="12.2239933"><ele>605.3333333333333</ele><time>2026-03-29T10:34:08.32Z</time></trkpt><trkpt lat="43.2019617" lon="12.2240583"><ele>606.6666666666666</ele><time>2026-03-29T10:34:11.32Z</time></trkpt><trkpt lat="43.2018767" lon="12.2240817"><ele>608.0</ele><time>2026-03-29T10:34:13.323Z</time></trkpt><trkpt lat="43.2017783" lon="12.2241417"><ele>612.4</ele><time>2026-03-29T10:34:15.321Z</time></trkpt><trkpt lat="43.2016783" lon="12.2242367"><ele>616.8</ele><time>2026-03-29T10:34:17.318Z</time></trkpt><trkpt lat="43.2016167" lon="12.224275"><ele>621.2</ele><time>2026-03-29T10:34:18.322Z</time></trkpt><trkpt lat="43.2015533" lon="12.2243"><ele>625.6</ele><time>2026-03-29T10:34:19.319Z</time></trkpt><trkpt lat="43.201465" lon="12.2243767"><ele>630.0</ele><time>2026-03-29T10:34:20.321Z</time></trkpt><trkpt lat="43.2013533" lon="12.22444"><ele>630.2</ele><time>2026-03-29T10:34:21.321Z</time></trkpt><trkpt lat="43.20124" lon="12.2244883"><ele>630.4</ele><time>2026-03-29T10:34:22.32Z</time></trkpt><trkpt lat="43.2011317" lon="12.2245233"><ele>630.6</ele><time>2026-03-29T10:34:23.321Z</time></trkpt><trkpt lat="43.2010267" lon="12.224565"><ele>630.8</ele><time>2026-03-29T10:34:24.321Z</time></trkpt><trkpt lat="43.2009267" lon="12.224585"><ele>631.0</ele><time>2026-03-29T10:34:25.322Z</time></trkpt><trkpt lat="43.20083" lon="12.2247017"><ele>631.0</ele><time>2026-03-29T10:34:26.32Z</time></trkpt><trkpt lat="43.2007183" lon="12.2246967"><ele>631.0</ele><time>2026-03-29T10:34:27.32Z</time></trkpt><trkpt lat="43.200615" lon="12.2246767"><ele>631.0</ele><time>2026-03-29T10:34:28.326Z</time></trkpt><trkpt lat="43.20051" lon="12.2246583"><ele>631.0</ele><time>2026-03-29T10:34:29.321Z</time></trkpt><trkpt lat="43.2004033" lon="12.2246567"><ele>631.0</ele><time>2026-03-29T10:34:30.324Z</time></trkpt><trkpt lat="43.2003117" lon="12.224645"><ele>634.3333333333334</ele><time>2026-03-29T10:34:31.32Z</time></trkpt><trkpt lat="43.2002267" lon="12.2246433"><ele>637.6666666666667</ele><time>2026-03-29T10:34:32.327Z</time></trkpt><trkpt lat="43.2001633" lon="12.2246383"><ele>641.0</ele><time>2026-03-29T10:34:33.321Z</time></trkpt><trkpt lat="43.2000917" lon="12.2246217"><ele>644.3333333333334</ele><time>2026-03-29T10:34:35.323Z</time></trkpt><trkpt lat="43.2000117" lon="12.2246367"><ele>647.6666666666666</ele><time>2026-03-29T10:34:38.319Z</time></trkpt><trkpt lat="43.1999317" lon="12.2246483"><ele>651.0</ele><time>2026-03-29T10:34:41.324Z</time></trkpt><trkpt lat="43.1999517" lon="12.224745"><ele>651.8</ele><time>2026-03-29T10:34:43.322Z</time></trkpt><trkpt lat="43.20001" lon="12.224885"><ele>652.5999999999999</ele><time>2026-03-29T10:34:45.321Z</time></trkpt><trkpt lat="43.200045" lon="12.2249733"><ele>653.4</ele><time>2026-03-29T10:34:46.323Z</time></trkpt><trkpt lat="43.2000867" lon="12.225085"><ele>654.2</ele><time>2026-03-29T10:34:47.322Z</time></trkpt><trkpt lat="43.2001167" lon="12.225235"><ele>655.0</ele><time>2026-03-29T10:34:48.322Z</time></trkpt><trkpt lat="43.2001367" lon="12.2253867"><ele>655.0</ele><time>2026-03-29T10:34:49.322Z</time></trkpt><trkpt lat="43.2001533" lon="12.225545"><ele>655.0</ele><time>2026-03-29T10:34:50.321Z</time></trkpt><trkpt lat="43.2001783" lon="12.2257117"><ele>655.0</ele><time>2026-03-29T10:34:51.322Z</time></trkpt><trkpt lat="43.200195" lon="12.2258817"><ele>655.0</ele><time>2026-03-29T10:34:52.322Z</time></trkpt><trkpt lat="43.2002167" lon="12.2260783"><ele>655.0</ele><time>2026-03-29T10:34:53.32Z</time></trkpt><trkpt lat="43.2002433" lon="12.2262733"><ele>655.0</ele><time>2026-03-29T10:34:54.322Z</time></trkpt><trkpt lat="43.2002717" lon="12.226485"><ele>655.0</ele><time>2026-03-29T10:34:55.32Z</time></trkpt><trkpt lat="43.2003" lon="12.2266867"><ele>655.0</ele><time>2026-03-29T10:34:56.319Z</time></trkpt><trkpt lat="43.2003183" lon="12.2268783"><ele>655.0</ele><time>2026-03-29T10:34:57.322Z</time></trkpt><trkpt lat="43.20034" lon="12.22706"><ele>655.0</ele><time>2026-03-29T10:34:58.319Z</time></trkpt><trkpt lat="43.200355" lon="12.2272283"><ele>655.0</ele><time>2026-03-29T10:34:59.32Z</time></trkpt><trkpt lat="43.2003683" lon="12.2274"><ele>656.0</ele><time>2026-03-29T10:35:00.324Z</time></trkpt><trkpt lat="43.2003833" lon="12.2275733"><ele>657.0</ele><time>2026-03-29T10:35:01.319Z</time></trkpt><trkpt lat="43.2004133" lon="12.227735"><ele>658.0</ele><time>2026-03-29T10:35:02.322Z</time></trkpt><trkpt lat="43.2004533" lon="12.2278883"><ele>659.0</ele><time>2026-03-29T10:35:03.32Z</time></trkpt><trkpt lat="43.2005083" lon="12.2280283"><ele>657.0</ele><time>2026-03-29T10:35:04.323Z</time></trkpt><trkpt lat="43.2005783" lon="12.2281683"><ele>655.0</ele><time>2026-03-29T10:35:05.32Z</time></trkpt><trkpt lat="43.200655" lon="12.2283033"><ele>653.0</ele><time>2026-03-29T10:35:06.32Z</time></trkpt><trkpt lat="43.2007333" lon="12.228435"><ele>651.0</ele><time>2026-03-29T10:35:07.322Z</time></trkpt><trkpt lat="43.2007917" lon="12.2285783"><ele>654.8</ele><time>2026-03-29T10:35:08.321Z</time></trkpt><trkpt lat="43.2008217" lon="12.2287267"><ele>658.5999999999999</ele><time>2026-03-29T10:35:09.321Z</time></trkpt><trkpt lat="43.200825" lon="12.2288833"><ele>662.4</ele><time>2026-03-29T10:35:10.321Z</time></trkpt><trkpt lat="43.200815" lon="12.2290417"><ele>666.2</ele><time>2026-03-29T10:35:11.321Z</time></trkpt><trkpt lat="43.200785" lon="12.22918"><ele>670.0</ele><time>2026-03-29T10:35:12.319Z</time></trkpt><trkpt lat="43.200735" lon="12.2292933"><ele>667.2</ele><time>2026-03-29T10:35:13.321Z</time></trkpt><trkpt lat="43.2006583" lon="12.22938"><ele>664.4</ele><time>2026-03-29T10:35:14.32Z</time></trkpt><trkpt lat="43.200565" lon="12.2294533"><ele>661.5999999999999</ele><time>2026-03-29T10:35:15.324Z</time></trkpt><trkpt lat="43.2004617" lon="12.2295083"><ele>658.8</ele><time>2026-03-29T10:35:16.319Z</time></trkpt><trkpt lat="43.2003567" lon="12.2295567"><ele>656.0</ele><time>2026-03-29T10:35:17.322Z</time></trkpt><trkpt lat="43.2002517" lon="12.2295917"><ele>656.0</ele><time>2026-03-29T10:35:18.324Z</time></trkpt><trkpt lat="43.20015" lon="12.2296217"><ele>656.0</ele><time>2026-03-29T10:35:19.321Z</time></trkpt><trkpt lat="43.2000517" lon="12.2296567"><ele>656.0</ele><time>2026-03-29T10:35:20.322Z</time></trkpt><trkpt lat="43.19996" lon="12.2296967"><ele>656.0</ele><time>2026-03-29T10:35:21.321Z</time></trkpt><trkpt lat="43.1998783" lon="12.2297467"><ele>656.0</ele><time>2026-03-29T10:35:22.322Z</time></trkpt><trkpt lat="43.1998067" lon="12.22981"><ele>655.8333333333333</ele><time>2026-03-29T10:35:23.322Z</time></trkpt><trkpt lat="43.1997483" lon="12.229895"><ele>655.6666666666666</ele><time>2026-03-29T10:35:24.321Z</time></trkpt><trkpt lat="43.1997083" lon="12.2299917"><ele>655.5</ele><time>2026-03-29T10:35:25.323Z</time></trkpt><trkpt lat="43.19968" lon="12.2301033"><ele>655.3333333333334</ele><time>2026-03-29T10:35:26.32Z</time></trkpt><trkpt lat="43.1996783" lon="12.2302117"><ele>655.1666666666667</ele><time>2026-03-29T10:35:27.322Z</time></trkpt><trkpt lat="43.1997417" lon="12.230335"><ele>655.0</ele><time>2026-03-29T10:35:28.323Z</time></trkpt><trkpt lat="43.1998067" lon="12.23045"><ele>655.4</ele><time>2026-03-29T10:35:29.319Z</time></trkpt><trkpt lat="43.1998767" lon="12.2305617"><ele>655.8</ele><time>2026-03-29T10:35:30.32Z</time></trkpt><trkpt lat="43.199945" lon="12.2306717"><ele>656.2</ele><time>2026-03-29T10:35:31.327Z</time></trkpt><trkpt lat="43.2000167" lon="12.2307767"><ele>656.6</ele><time>2026-03-29T10:35:32.323Z</time></trkpt><trkpt lat="43.2000983" lon="12.230875"><ele>657.0</ele><time>2026-03-29T10:35:33.322Z</time></trkpt><trkpt lat="43.2001933" lon="12.2309683"><ele>657.0</ele><time>2026-03-29T10:35:34.321Z</time></trkpt><trkpt lat="43.200305" lon="12.2310533"><ele>657.0</ele><time>2026-03-29T10:35:35.322Z</time></trkpt><trkpt lat="43.2004267" lon="12.231115"><ele>657.0</ele><time>2026-03-29T10:35:36.323Z</time></trkpt><trkpt lat="43.2005567" lon="12.2311617"><ele>657.0</ele><time>2026-03-29T10:35:37.322Z</time></trkpt><trkpt lat="43.2006883" lon="12.2311967"><ele>658.25</ele><time>2026-03-29T10:35:38.32Z</time></trkpt><trkpt lat="43.2008183" lon="12.2312217"><ele>659.5</ele><time>2026-03-29T10:35:39.324Z</time></trkpt><trkpt lat="43.2009433" lon="12.2312467"><ele>660.75</ele><time>2026-03-29T10:35:40.326Z</time></trkpt><trkpt lat="43.2010567" lon="12.23127"><ele>662.0</ele><time>2026-03-29T10:35:41.324Z</time></trkpt><trkpt lat="43.2011617" lon="12.2313117"><ele>662.0</ele><time>2026-03-29T10:35:42.321Z</time></trkpt><trkpt lat="43.20125" lon="12.231375"><ele>662.0</ele><time>2026-03-29T10:35:43.322Z</time></trkpt><trkpt lat="43.2013167" lon="12.2314733"><ele>662.0</ele><time>2026-03-29T10:35:44.32Z</time></trkpt><trkpt lat="43.2013633" lon="12.2315933"><ele>662.0</ele><time>2026-03-29T10:35:45.321Z</time></trkpt><trkpt lat="43.201385" lon="12.23174"><ele>662.0</ele><time>2026-03-29T10:35:46.32Z</time></trkpt><trkpt lat="43.2013733" lon="12.23192"><ele>654.3333333333333</ele><time>2026-03-29T10:35:47.322Z</time></trkpt><trkpt lat="43.20135" lon="12.232115"><ele>646.6666666666666</ele><time>2026-03-29T10:35:48.321Z</time></trkpt><trkpt lat="43.20133" lon="12.232335"><ele>639.0</ele><time>2026-03-29T10:35:49.319Z</time></trkpt><trkpt lat="43.201315" lon="12.232565"><ele>634.3333333333334</ele><time>2026-03-29T10:35:50.323Z</time></trkpt><trkpt lat="43.2013167" lon="12.2327867"><ele>629.6666666666667</ele><time>2026-03-29T10:35:51.319Z</time></trkpt><trkpt lat="43.2013333" lon="12.2330067"><ele>625.0</ele><time>2026-03-29T10:35:52.324Z</time></trkpt><trkpt lat="43.201365" lon="12.2332267"><ele>625.0</ele><time>2026-03-29T10:35:53.319Z</time></trkpt><trkpt lat="43.2014017" lon="12.2334367"><ele>625.0</ele><time>2026-03-29T10:35:54.32Z</time></trkpt><trkpt lat="43.2014367" lon="12.2336483"><ele>625.0</ele><time>2026-03-29T10:35:55.319Z</time></trkpt><trkpt lat="43.2014717" lon="12.23386"><ele>630.3333333333334</ele><time>2026-03-29T10:35:56.319Z</time></trkpt><trkpt lat="43.201505" lon="12.2340717"><ele>635.6666666666666</ele><time>2026-03-29T10:35:57.319Z</time></trkpt><trkpt lat="43.2015433" lon="12.2342783"><ele>641.0</ele><time>2026-03-29T10:35:58.32Z</time></trkpt><trkpt lat="43.201585" lon="12.2344867"><ele>641.0</ele><time>2026-03-29T10:35:59.319Z</time></trkpt><trkpt lat="43.2016233" lon="12.2346917"><ele>641.0</ele><time>2026-03-29T10:36:00.321Z</time></trkpt><trkpt lat="43.20166" lon="12.234895"><ele>641.0</ele><time>2026-03-29T10:36:01.322Z</time></trkpt><trkpt lat="43.201695" lon="12.2351"><ele>641.3333333333333</ele><time>2026-03-29T10:36:02.322Z</time></trkpt><trkpt lat="43.2017333" lon="12.235305"><ele>641.6666666666666</ele><time>2026-03-29T10:36:03.32Z</time></trkpt><trkpt lat="43.20177" lon="12.23551"><ele>642.0</ele><time>2026-03-29T10:36:04.322Z</time></trkpt><trkpt lat="43.2018067" lon="12.235715"><ele>642.0</ele><time>2026-03-29T10:36:05.322Z</time></trkpt><trkpt lat="43.2018533" lon="12.23592"><ele>642.0</ele><time>2026-03-29T10:36:06.319Z</time></trkpt><trkpt lat="43.2019033" lon="12.2361233"><ele>642.0</ele><time>2026-03-29T10:36:07.32Z</time></trkpt><trkpt lat="43.201955" lon="12.23632"><ele>641.25</ele><time>2026-03-29T10:36:08.322Z</time></trkpt><trkpt lat="43.2020083" lon="12.2365117"><ele>640.5</ele><time>2026-03-29T10:36:09.324Z</time></trkpt><trkpt lat="43.20206" lon="12.2367033"><ele>639.75</ele><time>2026-03-29T10:36:10.321Z</time></trkpt><trkpt lat="43.202105" lon="12.2368933"><ele>639.0</ele><time>2026-03-29T10:36:11.32Z</time></trkpt><trkpt lat="43.202145" lon="12.2370817"><ele>639.0</ele><time>2026-03-29T10:36:12.32Z</time></trkpt><trkpt lat="43.20218" lon="12.23726"><ele>639.0</ele><time>2026-03-29T10:36:13.32Z</time></trkpt><trkpt lat="43.20221" lon="12.23744"><ele>639.0</ele><time>2026-03-29T10:36:14.319Z</time></trkpt><trkpt lat="43.2022417" lon="12.2376183"><ele>639.0</ele><time>2026-03-29T10:36:15.323Z</time></trkpt><trkpt lat="43.2022717" lon="12.2377917"><ele>638.75</ele><time>2026-03-29T10:36:16.321Z</time></trkpt><trkpt lat="43.202305" lon="12.23797"><ele>638.5</ele><time>2026-03-29T10:36:17.319Z</time></trkpt><trkpt lat="43.20234" lon="12.2381533"><ele>638.25</ele><time>2026-03-29T10:36:18.319Z</time></trkpt><trkpt lat="43.2023783" lon="12.2383367"><ele>638.0</ele><time>2026-03-29T10:36:19.32Z</time></trkpt><trkpt lat="43.2024217" lon="12.2385183"><ele>641.5</ele><time>2026-03-29T10:36:20.319Z</time></trkpt><trkpt lat="43.2024733" lon="12.2386967"><ele>645.0</ele><time>2026-03-29T10:36:21.321Z</time></trkpt><trkpt lat="43.2025283" lon="12.2388667"><ele>648.5</ele><time>2026-03-29T10:36:22.321Z</time></trkpt><trkpt lat="43.20258" lon="12.2390183"><ele>652.0</ele><time>2026-03-29T10:36:23.322Z</time></trkpt><trkpt lat="43.20263" lon="12.2391567"><ele>652.0</ele><time>2026-03-29T10:36:24.321Z</time></trkpt><trkpt lat="43.2026733" lon="12.23928"><ele>652.0</ele><time>2026-03-29T10:36:25.318Z</time></trkpt><trkpt lat="43.2027083" lon="12.2393917"><ele>652.0</ele><time>2026-03-29T10:36:26.321Z</time></trkpt><trkpt lat="43.20272" lon="12.23948"><ele>652.0</ele><time>2026-03-29T10:36:27.325Z</time></trkpt><trkpt lat="43.20271" lon="12.239615"><ele>652.0</ele><time>2026-03-29T10:36:29.32Z</time></trkpt><trkpt lat="43.2026567" lon="12.23977"><ele>652.1666666666667</ele><time>2026-03-29T10:36:31.32Z</time></trkpt><trkpt lat="43.202605" lon="12.2398683"><ele>652.3333333333334</ele><time>2026-03-29T10:36:32.323Z</time></trkpt><trkpt lat="43.2025483" lon="12.23996"><ele>652.5</ele><time>2026-03-29T10:36:33.321Z</time></trkpt><trkpt lat="43.2024883" lon="12.2400367"><ele>652.6666666666666</ele><time>2026-03-29T10:36:34.321Z</time></trkpt><trkpt lat="43.2024267" lon="12.240115"><ele>652.8333333333333</ele><time>2026-03-29T10:36:35.32Z</time></trkpt><trkpt lat="43.202375" lon="12.2402117"><ele>653.0</ele><time>2026-03-29T10:36:36.319Z</time></trkpt><trkpt lat="43.2023333" lon="12.240295"><ele>652.6666666666666</ele><time>2026-03-29T10:36:37.319Z</time></trkpt><trkpt lat="43.2023067" lon="12.2403733"><ele>652.3333333333333</ele><time>2026-03-29T10:36:38.323Z</time></trkpt><trkpt lat="43.202295" lon="12.24046"><ele>652.0</ele><time>2026-03-29T10:36:39.323Z</time></trkpt><trkpt lat="43.202305" lon="12.240555"><ele>651.6666666666666</ele><time>2026-03-29T10:36:40.323Z</time></trkpt><trkpt lat="43.202335" lon="12.2406783"><ele>651.3333333333334</ele><time>2026-03-29T10:36:41.321Z</time></trkpt><trkpt lat="43.2023783" lon="12.2407867"><ele>651.0</ele><time>2026-03-29T10:36:42.321Z</time></trkpt><trkpt lat="43.2024283" lon="12.2408867"><ele>651.0</ele><time>2026-03-29T10:36:43.322Z</time></trkpt><trkpt lat="43.202485" lon="12.2409633"><ele>651.0</ele><time>2026-03-29T10:36:44.321Z</time></trkpt><trkpt lat="43.2025483" lon="12.241045"><ele>651.0</ele><time>2026-03-29T10:36:45.321Z</time></trkpt><trkpt lat="43.2026117" lon="12.2410967"><ele>651.0</ele><time>2026-03-29T10:36:46.32Z</time></trkpt><trkpt lat="43.202675" lon="12.2411433"><ele>651.0</ele><time>2026-03-29T10:36:47.32Z</time></trkpt><trkpt lat="43.2027433" lon="12.2412067"><ele>651.0</ele><time>2026-03-29T10:36:48.321Z</time></trkpt><trkpt lat="43.202805" lon="12.2412567"><ele>651.0</ele><time>2026-03-29T10:36:49.32Z</time></trkpt><trkpt lat="43.2028683" lon="12.2413133"><ele>651.0</ele><time>2026-03-29T10:36:50.322Z</time></trkpt><trkpt lat="43.20293" lon="12.2413767"><ele>651.0</ele><time>2026-03-29T10:36:51.325Z</time></trkpt><trkpt lat="43.2029933" lon="12.2414483"><ele>651.0</ele><time>2026-03-29T10:36:52.321Z</time></trkpt><trkpt lat="43.2030633" lon="12.24152"><ele>651.0</ele><time>2026-03-29T10:36:53.323Z</time></trkpt><trkpt lat="43.2031383" lon="12.2415983"><ele>651.0</ele><time>2026-03-29T10:36:54.321Z</time></trkpt><trkpt lat="43.20321" lon="12.2416867"><ele>649.4</ele><time>2026-03-29T10:36:55.32Z</time></trkpt><trkpt lat="43.203285" lon="12.2417783"><ele>647.8</ele><time>2026-03-29T10:36:56.323Z</time></trkpt><trkpt lat="43.2033567" lon="12.241865"><ele>646.1999999999999</ele><time>2026-03-29T10:36:57.32Z</time></trkpt><trkpt lat="43.203435" lon="12.2419317"><ele>644.5999999999999</ele><time>2026-03-29T10:36:58.321Z</time></trkpt><trkpt lat="43.20351" lon="12.24199"><ele>643.0</ele><time>2026-03-29T10:36:59.323Z</time></trkpt><trkpt lat="43.2035717" lon="12.2420583"><ele>643.0</ele><time>2026-03-29T10:37:00.321Z</time></trkpt><trkpt lat="43.2036233" lon="12.2421417"><ele>643.0</ele><time>2026-03-29T10:37:01.325Z</time></trkpt><trkpt lat="43.2036667" lon="12.24224"><ele>643.0</ele><time>2026-03-29T10:37:02.325Z</time></trkpt><trkpt lat="43.203735" lon="12.2423483"><ele>643.0</ele><time>2026-03-29T10:37:03.322Z</time></trkpt><trkpt lat="43.2037767" lon="12.242445"><ele>643.0</ele><time>2026-03-29T10:37:04.321Z</time></trkpt><trkpt lat="43.2037783" lon="12.2425683"><ele>643.0</ele><time>2026-03-29T10:37:05.321Z</time></trkpt><trkpt lat="43.2037617" lon="12.2427217"><ele>638.8</ele><time>2026-03-29T10:37:07.321Z</time></trkpt><trkpt lat="43.2036967" lon="12.2428467"><ele>634.5999999999999</ele><time>2026-03-29T10:37:09.322Z</time></trkpt><trkpt lat="43.2036283" lon="12.2428683"><ele>630.4000000000001</ele><time>2026-03-29T10:37:10.325Z</time></trkpt><trkpt lat="43.20353" lon="12.242855"><ele>626.2</ele><time>2026-03-29T10:37:11.32Z</time></trkpt><trkpt lat="43.2034367" lon="12.24288"><ele>622.0</ele><time>2026-03-29T10:37:12.321Z</time></trkpt><trkpt lat="43.2033333" lon="12.242905"><ele>622.0</ele><time>2026-03-29T10:37:13.322Z</time></trkpt><trkpt lat="43.2032317" lon="12.2429183"><ele>622.0</ele><time>2026-03-29T10:37:14.32Z</time></trkpt><trkpt lat="43.20314" lon="12.24296"><ele>622.0</ele><time>2026-03-29T10:37:15.325Z</time></trkpt><trkpt lat="43.203055" lon="12.2430117"><ele>622.0</ele><time>2026-03-29T10:37:16.321Z</time></trkpt><trkpt lat="43.2029683" lon="12.2430467"><ele>622.0</ele><time>2026-03-29T10:37:17.321Z</time></trkpt><trkpt lat="43.2028867" lon="12.243095"><ele>619.5</ele><time>2026-03-29T10:37:18.322Z</time></trkpt><trkpt lat="43.2028083" lon="12.243155"><ele>617.0</ele><time>2026-03-29T10:37:19.322Z</time></trkpt><trkpt lat="43.2027233" lon="12.24323"><ele>614.5</ele><time>2026-03-29T10:37:20.322Z</time></trkpt><trkpt lat="43.2026683" lon="12.2433133"><ele>612.0</ele><time>2026-03-29T10:37:21.323Z</time></trkpt><trkpt lat="43.202615" lon="12.2433833"><ele>609.5</ele><time>2026-03-29T10:37:22.322Z</time></trkpt><trkpt lat="43.2025567" lon="12.24344"><ele>607.0</ele><time>2026-03-29T10:37:23.322Z</time></trkpt><trkpt lat="43.20249" lon="12.2434833"><ele>607.0</ele><time>2026-03-29T10:37:24.324Z</time></trkpt><trkpt lat="43.2024233" lon="12.243515"><ele>607.0</ele><time>2026-03-29T10:37:25.323Z</time></trkpt><trkpt lat="43.2023483" lon="12.2435233"><ele>607.0</ele><time>2026-03-29T10:37:26.321Z</time></trkpt><trkpt lat="43.2022633" lon="12.2435333"><ele>607.0</ele><time>2026-03-29T10:37:27.327Z</time></trkpt><trkpt lat="43.2021733" lon="12.243555"><ele>607.0</ele><time>2026-03-29T10:37:28.319Z</time></trkpt><trkpt lat="43.202065" lon="12.2435983"><ele>607.0</ele><time>2026-03-29T10:37:29.321Z</time></trkpt><trkpt lat="43.20199" lon="12.2437033"><ele>604.0</ele><time>2026-03-29T10:37:30.323Z</time></trkpt><trkpt lat="43.2019217" lon="12.2438333"><ele>601.0</ele><time>2026-03-29T10:37:31.322Z</time></trkpt><trkpt lat="43.2018583" lon="12.24397"><ele>598.0</ele><time>2026-03-29T10:37:32.321Z</time></trkpt><trkpt lat="43.2018" lon="12.2441167"><ele>595.0</ele><time>2026-03-29T10:37:33.327Z</time></trkpt><trkpt lat="43.2017433" lon="12.2442733"><ele>595.0</ele><time>2026-03-29T10:37:34.322Z</time></trkpt><trkpt lat="43.20171" lon="12.2444067"><ele>595.0</ele><time>2026-03-29T10:37:35.323Z</time></trkpt><trkpt lat="43.20169" lon="12.244515"><ele>595.0</ele><time>2026-03-29T10:37:36.322Z</time></trkpt><trkpt lat="43.2016833" lon="12.2446133"><ele>595.0</ele><time>2026-03-29T10:37:37.32Z</time></trkpt><trkpt lat="43.2016833" lon="12.2447283"><ele>595.0</ele><time>2026-03-29T10:37:38.322Z</time></trkpt><trkpt lat="43.2016967" lon="12.2448383"><ele>595.0</ele><time>2026-03-29T10:37:39.321Z</time></trkpt><trkpt lat="43.2017317" lon="12.244955"><ele>595.4</ele><time>2026-03-29T10:37:40.325Z</time></trkpt><trkpt lat="43.2017533" lon="12.2450833"><ele>595.8</ele><time>2026-03-29T10:37:41.324Z</time></trkpt><trkpt lat="43.201775" lon="12.24522"><ele>596.2</ele><time>2026-03-29T10:37:42.321Z</time></trkpt><trkpt lat="43.2017933" lon="12.24537"><ele>596.6</ele><time>2026-03-29T10:37:43.32Z</time></trkpt><trkpt lat="43.20181" lon="12.2455183"><ele>597.0</ele><time>2026-03-29T10:37:44.319Z</time></trkpt><trkpt lat="43.2018417" lon="12.2456567"><ele>594.8000000000001</ele><time>2026-03-29T10:37:45.321Z</time></trkpt><trkpt lat="43.2018733" lon="12.2457767"><ele>592.6</ele><time>2026-03-29T10:37:46.325Z</time></trkpt><trkpt lat="43.2019017" lon="12.2459017"><ele>590.4000000000001</ele><time>2026-03-29T10:37:47.322Z</time></trkpt><trkpt lat="43.201915" lon="12.2460333"><ele>588.2</ele><time>2026-03-29T10:37:48.321Z</time></trkpt><trkpt lat="43.2019183" lon="12.2461933"><ele>586.0</ele><time>2026-03-29T10:37:49.322Z</time></trkpt><trkpt lat="43.2018933" lon="12.2463383"><ele>586.25</ele><time>2026-03-29T10:37:50.322Z</time></trkpt><trkpt lat="43.20184" lon="12.2464883"><ele>586.5</ele><time>2026-03-29T10:37:51.321Z</time></trkpt><trkpt lat="43.2017967" lon="12.2466433"><ele>586.75</ele><time>2026-03-29T10:37:52.322Z</time></trkpt><trkpt lat="43.201775" lon="12.2467967"><ele>587.0</ele><time>2026-03-29T10:37:53.321Z</time></trkpt><trkpt lat="43.2017717" lon="12.2469683"><ele>587.0</ele><time>2026-03-29T10:37:54.32Z</time></trkpt><trkpt lat="43.20178" lon="12.2471167"><ele>587.0</ele><time>2026-03-29T10:37:55.321Z</time></trkpt><trkpt lat="43.2018017" lon="12.2472517"><ele>587.0</ele><time>2026-03-29T10:37:56.322Z</time></trkpt><trkpt lat="43.20183" lon="12.247365"><ele>587.0</ele><time>2026-03-29T10:37:57.322Z</time></trkpt><trkpt lat="43.2018583" lon="12.2474617"><ele>587.0</ele><time>2026-03-29T10:37:58.32Z</time></trkpt><trkpt lat="43.2018783" lon="12.2475467"><ele>587.0</ele><time>2026-03-29T10:37:59.321Z</time></trkpt><trkpt lat="43.2018817" lon="12.247685"><ele>587.8333333333333</ele><time>2026-03-29T10:38:01.322Z</time></trkpt><trkpt lat="43.20184" lon="12.247825"><ele>588.6666666666666</ele><time>2026-03-29T10:38:03.322Z</time></trkpt><trkpt lat="43.2017683" lon="12.2479667"><ele>589.5</ele><time>2026-03-29T10:38:05.321Z</time></trkpt><trkpt lat="43.2017383" lon="12.248045"><ele>590.3333333333334</ele><time>2026-03-29T10:38:06.323Z</time></trkpt><trkpt lat="43.2017133" lon="12.2481283"><ele>591.1666666666667</ele><time>2026-03-29T10:38:07.324Z</time></trkpt><trkpt lat="43.201695" lon="12.2482267"><ele>592.0</ele><time>2026-03-29T10:38:08.32Z</time></trkpt><trkpt lat="43.201685" lon="12.2483333"><ele>592.0</ele><time>2026-03-29T10:38:09.323Z</time></trkpt><trkpt lat="43.201675" lon="12.248445"><ele>592.0</ele><time>2026-03-29T10:38:10.32Z</time></trkpt><trkpt lat="43.201665" lon="12.2485617"><ele>592.0</ele><time>2026-03-29T10:38:11.321Z</time></trkpt><trkpt lat="43.20166" lon="12.2486733"><ele>592.0</ele><time>2026-03-29T10:38:12.322Z</time></trkpt><trkpt lat="43.2016583" lon="12.2487767"><ele>592.0</ele><time>2026-03-29T10:38:13.323Z</time></trkpt><trkpt lat="43.20166" lon="12.248865"><ele>592.0</ele><time>2026-03-29T10:38:14.321Z</time></trkpt><trkpt lat="43.2016783" lon="12.2490083"><ele>588.8000000000001</ele><time>2026-03-29T10:38:16.323Z</time></trkpt><trkpt lat="43.2017333" lon="12.24913"><ele>585.6</ele><time>2026-03-29T10:38:18.32Z</time></trkpt><trkpt lat="43.2018517" lon="12.2492483"><ele>582.4000000000001</ele><time>2026-03-29T10:38:20.324Z</time></trkpt><trkpt lat="43.201935" lon="12.24932"><ele>579.2</ele><time>2026-03-29T10:38:21.323Z</time></trkpt><trkpt lat="43.2020083" lon="12.2493917"><ele>576.0</ele><time>2026-03-29T10:38:22.321Z</time></trkpt><trkpt lat="43.20208" lon="12.24945"><ele>576.0</ele><time>2026-03-29T10:38:23.32Z</time></trkpt><trkpt lat="43.2021583" lon="12.249505"><ele>576.0</ele><time>2026-03-29T10:38:24.322Z</time></trkpt><trkpt lat="43.2022567" lon="12.2495783"><ele>576.0</ele><time>2026-03-29T10:38:25.319Z</time></trkpt><trkpt lat="43.2023233" lon="12.2496433"><ele>576.0</ele><time>2026-03-29T10:38:26.32Z</time></trkpt><trkpt lat="43.2023767" lon="12.24972"><ele>576.0</ele><time>2026-03-29T10:38:27.32Z</time></trkpt><trkpt lat="43.2024183" lon="12.2498017"><ele>576.0</ele><time>2026-03-29T10:38:28.321Z</time></trkpt><trkpt lat="43.2024567" lon="12.249885"><ele>575.1666666666666</ele><time>2026-03-29T10:38:29.323Z</time></trkpt><trkpt lat="43.202465" lon="12.24998"><ele>574.3333333333334</ele><time>2026-03-29T10:38:30.322Z</time></trkpt><trkpt lat="43.202445" lon="12.2500883"><ele>573.5</ele><time>2026-03-29T10:38:31.321Z</time></trkpt><trkpt lat="43.202405" lon="12.250195"><ele>572.6666666666667</ele><time>2026-03-29T10:38:32.321Z</time></trkpt><trkpt lat="43.2023633" lon="12.2502817"><ele>571.8333333333334</ele><time>2026-03-29T10:38:33.326Z</time></trkpt><trkpt lat="43.2022867" lon="12.2503983"><ele>571.0</ele><time>2026-03-29T10:38:35.323Z</time></trkpt><trkpt lat="43.20219" lon="12.250445"><ele>568.6</ele><time>2026-03-29T10:38:37.324Z</time></trkpt><trkpt lat="43.2020183" lon="12.2503933"><ele>566.2</ele><time>2026-03-29T10:38:39.326Z</time></trkpt><trkpt lat="43.2019317" lon="12.2503667"><ele>563.8</ele><time>2026-03-29T10:38:40.321Z</time></trkpt><trkpt lat="43.2018483" lon="12.2503467"><ele>561.4</ele><time>2026-03-29T10:38:41.326Z</time></trkpt><trkpt lat="43.20177" lon="12.2503417"><ele>559.0</ele><time>2026-03-29T10:38:42.328Z</time></trkpt><trkpt lat="43.2017017" lon="12.2503533"><ele>559.0</ele><time>2026-03-29T10:38:43.323Z</time></trkpt><trkpt lat="43.2015933" lon="12.2503717"><ele>559.0</ele><time>2026-03-29T10:38:44.321Z</time></trkpt><trkpt lat="43.2015333" lon="12.2504"><ele>559.0</ele><time>2026-03-29T10:38:45.322Z</time></trkpt><trkpt lat="43.2014717" lon="12.250435"><ele>559.0</ele><time>2026-03-29T10:38:46.324Z</time></trkpt><trkpt lat="43.201435" lon="12.25055"><ele>559.0</ele><time>2026-03-29T10:38:48.322Z</time></trkpt><trkpt lat="43.2014283" lon="12.2507133"><ele>553.4</ele><time>2026-03-29T10:38:50.32Z</time></trkpt><trkpt lat="43.2014217" lon="12.2508033"><ele>547.8</ele><time>2026-03-29T10:38:51.321Z</time></trkpt><trkpt lat="43.201395" lon="12.250975"><ele>542.2</ele><time>2026-03-29T10:38:53.325Z</time></trkpt><trkpt lat="43.2013767" lon="12.2511217"><ele>536.6</ele><time>2026-03-29T10:38:54.322Z</time></trkpt><trkpt lat="43.2013367" lon="12.2512367"><ele>531.0</ele><time>2026-03-29T10:38:55.323Z</time></trkpt><trkpt lat="43.201275" lon="12.251345"><ele>531.5</ele><time>2026-03-29T10:38:56.325Z</time></trkpt><trkpt lat="43.20121" lon="12.2514633"><ele>532.0</ele><time>2026-03-29T10:38:57.325Z</time></trkpt><trkpt lat="43.2011433" lon="12.2515917"><ele>532.5</ele><time>2026-03-29T10:38:58.321Z</time></trkpt><trkpt lat="43.20108" lon="12.2517233"><ele>533.0</ele><time>2026-03-29T10:38:59.32Z</time></trkpt><trkpt lat="43.20102" lon="12.251865"><ele>533.0</ele><time>2026-03-29T10:39:00.322Z</time></trkpt><trkpt lat="43.2009617" lon="12.2520067"><ele>533.0</ele><time>2026-03-29T10:39:01.324Z</time></trkpt><trkpt lat="43.2008983" lon="12.2521633"><ele>533.0</ele><time>2026-03-29T10:39:02.32Z</time></trkpt><trkpt lat="43.2008283" lon="12.2523217"><ele>533.0</ele><time>2026-03-29T10:39:03.327Z</time></trkpt><trkpt lat="43.2007533" lon="12.2524883"><ele>533.25</ele><time>2026-03-29T10:39:04.322Z</time></trkpt><trkpt lat="43.2006767" lon="12.252665"><ele>533.5</ele><time>2026-03-29T10:39:05.321Z</time></trkpt><trkpt lat="43.2006017" lon="12.2528267"><ele>533.75</ele><time>2026-03-29T10:39:06.326Z</time></trkpt><trkpt lat="43.20053" lon="12.2529817"><ele>534.0</ele><time>2026-03-29T10:39:07.319Z</time></trkpt><trkpt lat="43.2004483" lon="12.253115"><ele>533.75</ele><time>2026-03-29T10:39:08.32Z</time></trkpt><trkpt lat="43.200355" lon="12.25323"><ele>533.5</ele><time>2026-03-29T10:39:09.321Z</time></trkpt><trkpt lat="43.200255" lon="12.2533133"><ele>533.25</ele><time>2026-03-29T10:39:10.322Z</time></trkpt><trkpt lat="43.2001467" lon="12.253365"><ele>533.0</ele><time>2026-03-29T10:39:11.321Z</time></trkpt><trkpt lat="43.200035" lon="12.2534017"><ele>533.0</ele><time>2026-03-29T10:39:12.321Z</time></trkpt><trkpt lat="43.1999217" lon="12.2534267"><ele>533.0</ele><time>2026-03-29T10:39:13.321Z</time></trkpt><trkpt lat="43.199815" lon="12.25345"><ele>533.0</ele><time>2026-03-29T10:39:14.322Z</time></trkpt><trkpt lat="43.1997067" lon="12.2534717"><ele>533.0</ele><time>2026-03-29T10:39:15.321Z</time></trkpt><trkpt lat="43.1995933" lon="12.2535067"><ele>533.0</ele><time>2026-03-29T10:39:16.32Z</time></trkpt><trkpt lat="43.199485" lon="12.253555"><ele>531.5</ele><time>2026-03-29T10:39:17.323Z</time></trkpt><trkpt lat="43.1993733" lon="12.2536133"><ele>530.0</ele><time>2026-03-29T10:39:18.322Z</time></trkpt><trkpt lat="43.1992667" lon="12.2536783"><ele>528.5</ele><time>2026-03-29T10:39:19.32Z</time></trkpt><trkpt lat="43.1991583" lon="12.2537417"><ele>527.0</ele><time>2026-03-29T10:39:20.321Z</time></trkpt><trkpt lat="43.1990633" lon="12.2538"><ele>527.5</ele><time>2026-03-29T10:39:21.325Z</time></trkpt><trkpt lat="43.19898" lon="12.2538617"><ele>528.0</ele><time>2026-03-29T10:39:22.324Z</time></trkpt><trkpt lat="43.198915" lon="12.2539367"><ele>528.5</ele><time>2026-03-29T10:39:23.323Z</time></trkpt><trkpt lat="43.1988567" lon="12.2540217"><ele>529.0</ele><time>2026-03-29T10:39:24.32Z</time></trkpt><trkpt lat="43.1987933" lon="12.2541017"><ele>529.5</ele><time>2026-03-29T10:39:25.32Z</time></trkpt><trkpt lat="43.1987233" lon="12.2541767"><ele>530.0</ele><time>2026-03-29T10:39:26.322Z</time></trkpt><trkpt lat="43.19863" lon="12.2542183"><ele>530.0</ele><time>2026-03-29T10:39:27.323Z</time></trkpt><trkpt lat="43.1985267" lon="12.2542583"><ele>530.0</ele><time>2026-03-29T10:39:28.32Z</time></trkpt><trkpt lat="43.1984217" lon="12.254295"><ele>530.0</ele><time>2026-03-29T10:39:29.32Z</time></trkpt><trkpt lat="43.1983167" lon="12.254325"><ele>530.0</ele><time>2026-03-29T10:39:30.321Z</time></trkpt><trkpt lat="43.1982167" lon="12.2543533"><ele>530.0</ele><time>2026-03-29T10:39:31.324Z</time></trkpt><trkpt lat="43.1981183" lon="12.2543783"><ele>527.4</ele><time>2026-03-29T10:39:32.324Z</time></trkpt><trkpt lat="43.1980233" lon="12.2544"><ele>524.8</ele><time>2026-03-29T10:39:33.321Z</time></trkpt><trkpt lat="43.19793" lon="12.2544183"><ele>522.2</ele><time>2026-03-29T10:39:34.32Z</time></trkpt><trkpt lat="43.19784" lon="12.254435"><ele>519.6</ele><time>2026-03-29T10:39:35.324Z</time></trkpt><trkpt lat="43.1977517" lon="12.2544617"><ele>517.0</ele><time>2026-03-29T10:39:36.321Z</time></trkpt><trkpt lat="43.1976667" lon="12.254505"><ele>517.0</ele><time>2026-03-29T10:39:37.322Z</time></trkpt><trkpt lat="43.1975867" lon="12.2545633"><ele>517.0</ele><time>2026-03-29T10:39:38.325Z</time></trkpt><trkpt lat="43.1975117" lon="12.254635"><ele>517.0</ele><time>2026-03-29T10:39:39.323Z</time></trkpt><trkpt lat="43.197445" lon="12.2547167"><ele>517.0</ele><time>2026-03-29T10:39:40.322Z</time></trkpt><trkpt lat="43.1973883" lon="12.2548067"><ele>517.0</ele><time>2026-03-29T10:39:41.321Z</time></trkpt><trkpt lat="43.197345" lon="12.2549017"><ele>517.0</ele><time>2026-03-29T10:39:42.325Z</time></trkpt><trkpt lat="43.197325" lon="12.2549983"><ele>516.5</ele><time>2026-03-29T10:39:43.324Z</time></trkpt><trkpt lat="43.1973233" lon="12.2551017"><ele>516.0</ele><time>2026-03-29T10:39:44.324Z</time></trkpt><trkpt lat="43.197335" lon="12.255205"><ele>515.5</ele><time>2026-03-29T10:39:45.323Z</time></trkpt><trkpt lat="43.1973517" lon="12.2553017"><ele>515.0</ele><time>2026-03-29T10:39:46.325Z</time></trkpt><trkpt lat="43.1973683" lon="12.2554417"><ele>514.5</ele><time>2026-03-29T10:39:48.322Z</time></trkpt><trkpt lat="43.1973117" lon="12.25555"><ele>514.0</ele><time>2026-03-29T10:39:50.32Z</time></trkpt><trkpt lat="43.1972583" lon="12.2556"><ele>510.25</ele><time>2026-03-29T10:39:51.324Z</time></trkpt><trkpt lat="43.1971817" lon="12.255665"><ele>506.5</ele><time>2026-03-29T10:39:52.323Z</time></trkpt><trkpt lat="43.19707" lon="12.2557483"><ele>502.75</ele><time>2026-03-29T10:39:53.321Z</time></trkpt><trkpt lat="43.1969617" lon="12.2558417"><ele>499.0</ele><time>2026-03-29T10:39:54.323Z</time></trkpt><trkpt lat="43.196855" lon="12.2559233"><ele>499.0</ele><time>2026-03-29T10:39:55.327Z</time></trkpt><trkpt lat="43.19676" lon="12.25599"><ele>499.0</ele><time>2026-03-29T10:39:56.328Z</time></trkpt><trkpt lat="43.19666" lon="12.2560267"><ele>499.0</ele><time>2026-03-29T10:39:57.321Z</time></trkpt><trkpt lat="43.1965383" lon="12.2560367"><ele>499.0</ele><time>2026-03-29T10:39:58.322Z</time></trkpt><trkpt lat="43.1964133" lon="12.25604"><ele>497.25</ele><time>2026-03-29T10:39:59.32Z</time></trkpt><trkpt lat="43.1962833" lon="12.2560483"><ele>495.5</ele><time>2026-03-29T10:40:00.324Z</time></trkpt><trkpt lat="43.19615" lon="12.2560683"><ele>493.75</ele><time>2026-03-29T10:40:01.322Z</time></trkpt><trkpt lat="43.1960333" lon="12.2560967"><ele>492.0</ele><time>2026-03-29T10:40:02.32Z</time></trkpt><trkpt lat="43.195935" lon="12.25613"><ele>492.00000000000006</ele><time>2026-03-29T10:40:03.318Z</time></trkpt><trkpt lat="43.19586" lon="12.256155"><ele>492.0</ele><time>2026-03-29T10:40:04.321Z</time></trkpt><trkpt lat="43.1957933" lon="12.2561667"><ele>492.00000000000006</ele><time>2026-03-29T10:40:05.322Z</time></trkpt><trkpt lat="43.1957267" lon="12.25616"><ele>492.00000000000006</ele><time>2026-03-29T10:40:06.322Z</time></trkpt><trkpt lat="43.1956617" lon="12.256135"><ele>492.0</ele><time>2026-03-29T10:40:07.322Z</time></trkpt><trkpt lat="43.19562" lon="12.25607"><ele>492.00000000000006</ele><time>2026-03-29T10:40:08.324Z</time></trkpt><trkpt lat="43.1955733" lon="12.255945"><ele>492.00000000000006</ele><time>2026-03-29T10:40:09.325Z</time></trkpt><trkpt lat="43.1954967" lon="12.2558217"><ele>490.0</ele><time>2026-03-29T10:40:10.322Z</time></trkpt><trkpt lat="43.195425" lon="12.25571"><ele>488.00000000000006</ele><time>2026-03-29T10:40:11.323Z</time></trkpt><trkpt lat="43.1953617" lon="12.25561"><ele>486.00000000000006</ele><time>2026-03-29T10:40:12.318Z</time></trkpt><trkpt lat="43.1953017" lon="12.2555167"><ele>484.0</ele><time>2026-03-29T10:40:13.321Z</time></trkpt><trkpt lat="43.1952483" lon="12.255425"><ele>482.0</ele><time>2026-03-29T10:40:14.32Z</time></trkpt><trkpt lat="43.1952083" lon="12.2553483"><ele>482.0</ele><time>2026-03-29T10:40:15.319Z</time></trkpt><trkpt lat="43.1951733" lon="12.255275"><ele>482.00000000000006</ele><time>2026-03-29T10:40:16.32Z</time></trkpt><trkpt lat="43.1950867" lon="12.255165"><ele>482.00000000000006</ele><time>2026-03-29T10:40:18.321Z</time></trkpt><trkpt lat="43.194985" lon="12.25514"><ele>482.0</ele><time>2026-03-29T10:40:20.324Z</time></trkpt><trkpt lat="43.1948817" lon="12.2551617"><ele>482.0</ele><time>2026-03-29T10:40:22.324Z</time></trkpt><trkpt lat="43.1948033" lon="12.255235"><ele>480.20000000000005</ele><time>2026-03-29T10:40:25.321Z</time></trkpt><trkpt lat="43.1947517" lon="12.255285"><ele>478.40000000000003</ele><time>2026-03-29T10:40:27.325Z</time></trkpt><trkpt lat="43.1946567" lon="12.2552733"><ele>476.59999999999997</ele><time>2026-03-29T10:40:29.321Z</time></trkpt><trkpt lat="43.1945667" lon="12.2552733"><ele>474.79999999999995</ele><time>2026-03-29T10:40:30.321Z</time></trkpt><trkpt lat="43.19444" lon="12.2552983"><ele>473.0</ele><time>2026-03-29T10:40:31.323Z</time></trkpt><trkpt lat="43.1943083" lon="12.2553417"><ele>473.0</ele><time>2026-03-29T10:40:32.32Z</time></trkpt><trkpt lat="43.194185" lon="12.2553833"><ele>473.0</ele><time>2026-03-29T10:40:33.323Z</time></trkpt><trkpt lat="43.194075" lon="12.2554267"><ele>473.0</ele><time>2026-03-29T10:40:34.323Z</time></trkpt><trkpt lat="43.1939783" lon="12.2554717"><ele>473.0</ele><time>2026-03-29T10:40:35.325Z</time></trkpt><trkpt lat="43.1938783" lon="12.25552"><ele>473.5</ele><time>2026-03-29T10:40:36.322Z</time></trkpt><trkpt lat="43.1937683" lon="12.2555767"><ele>474.0</ele><time>2026-03-29T10:40:37.323Z</time></trkpt><trkpt lat="43.193655" lon="12.25564"><ele>474.5</ele><time>2026-03-29T10:40:38.323Z</time></trkpt><trkpt lat="43.1935533" lon="12.2557133"><ele>475.0</ele><time>2026-03-29T10:40:39.322Z</time></trkpt><trkpt lat="43.1934583" lon="12.25579"><ele>475.00000000000006</ele><time>2026-03-29T10:40:40.322Z</time></trkpt><trkpt lat="43.1933683" lon="12.2558633"><ele>475.0</ele><time>2026-03-29T10:40:41.322Z</time></trkpt><trkpt lat="43.193285" lon="12.2559233"><ele>475.0</ele><time>2026-03-29T10:40:42.319Z</time></trkpt><trkpt lat="43.1932067" lon="12.2559683"><ele>475.0</ele><time>2026-03-29T10:40:43.321Z</time></trkpt><trkpt lat="43.1931333" lon="12.256"><ele>475.00000000000006</ele><time>2026-03-29T10:40:44.319Z</time></trkpt><trkpt lat="43.1930533" lon="12.2559733"><ele>475.0</ele><time>2026-03-29T10:40:45.324Z</time></trkpt><trkpt lat="43.1929733" lon="12.25591"><ele>475.8</ele><time>2026-03-29T10:40:46.321Z</time></trkpt><trkpt lat="43.19288" lon="12.2558367"><ele>476.6</ele><time>2026-03-29T10:40:47.322Z</time></trkpt><trkpt lat="43.1927867" lon="12.2557717"><ele>477.4</ele><time>2026-03-29T10:40:48.322Z</time></trkpt><trkpt lat="43.19269" lon="12.2557233"><ele>478.2</ele><time>2026-03-29T10:40:49.323Z</time></trkpt><trkpt lat="43.1925983" lon="12.2556933"><ele>479.0</ele><time>2026-03-29T10:40:50.321Z</time></trkpt><trkpt lat="43.1925" lon="12.2556867"><ele>478.99999999999994</ele><time>2026-03-29T10:40:51.322Z</time></trkpt><trkpt lat="43.192405" lon="12.2557"><ele>479.0</ele><time>2026-03-29T10:40:52.324Z</time></trkpt><trkpt lat="43.1923167" lon="12.2557317"><ele>479.0</ele><time>2026-03-29T10:40:53.325Z</time></trkpt><trkpt lat="43.1922317" lon="12.255775"><ele>479.0</ele><time>2026-03-29T10:40:54.324Z</time></trkpt><trkpt lat="43.1921617" lon="12.2558183"><ele>478.99999999999994</ele><time>2026-03-29T10:40:55.323Z</time></trkpt><trkpt lat="43.192095" lon="12.2558517"><ele>479.0</ele><time>2026-03-29T10:40:56.324Z</time></trkpt><trkpt lat="43.1920167" lon="12.255835"><ele>477.2</ele><time>2026-03-29T10:40:58.321Z</time></trkpt><trkpt lat="43.192005" lon="12.2557383"><ele>475.4</ele><time>2026-03-29T10:41:00.324Z</time></trkpt><trkpt lat="43.192015" lon="12.255585"><ele>473.6</ele><time>2026-03-29T10:41:02.321Z</time></trkpt><trkpt lat="43.1920267" lon="12.25541"><ele>471.8</ele><time>2026-03-29T10:41:04.32Z</time></trkpt><trkpt lat="43.192015" lon="12.2552417"><ele>470.0</ele><time>2026-03-29T10:41:06.324Z</time></trkpt><trkpt lat="43.192" lon="12.255155"><ele>467.0</ele><time>2026-03-29T10:41:07.32Z</time></trkpt><trkpt lat="43.191975" lon="12.255075"><ele>464.0</ele><time>2026-03-29T10:41:08.319Z</time></trkpt><trkpt lat="43.1919433" lon="12.255"><ele>461.0</ele><time>2026-03-29T10:41:09.324Z</time></trkpt><trkpt lat="43.1918733" lon="12.2548567"><ele>458.0</ele><time>2026-03-29T10:41:11.32Z</time></trkpt><trkpt lat="43.1917983" lon="12.2547117"><ele>455.0</ele><time>2026-03-29T10:41:13.323Z</time></trkpt><trkpt lat="43.1917517" lon="12.25458"><ele>452.6</ele><time>2026-03-29T10:41:15.321Z</time></trkpt><trkpt lat="43.1917817" lon="12.25448"><ele>450.2</ele><time>2026-03-29T10:41:17.323Z</time></trkpt><trkpt lat="43.1918533" lon="12.25441"><ele>447.79999999999995</ele><time>2026-03-29T10:41:19.326Z</time></trkpt><trkpt lat="43.191995" lon="12.254435"><ele>445.4</ele><time>2026-03-29T10:41:21.32Z</time></trkpt><trkpt lat="43.192105" lon="12.254435"><ele>443.0</ele><time>2026-03-29T10:41:22.321Z</time></trkpt><trkpt lat="43.19222" lon="12.254415"><ele>442.99999999999994</ele><time>2026-03-29T10:41:23.324Z</time></trkpt><trkpt lat="43.1923117" lon="12.2543967"><ele>443.0</ele><time>2026-03-29T10:41:24.323Z</time></trkpt><trkpt lat="43.1923983" lon="12.2543717"><ele>443.0</ele><time>2026-03-29T10:41:25.322Z</time></trkpt><trkpt lat="43.1924817" lon="12.25436"><ele>443.0</ele><time>2026-03-29T10:41:26.321Z</time></trkpt><trkpt lat="43.19257" lon="12.25436"><ele>442.99999999999994</ele><time>2026-03-29T10:41:27.323Z</time></trkpt><trkpt lat="43.19266" lon="12.2543817"><ele>443.0</ele><time>2026-03-29T10:41:28.32Z</time></trkpt><trkpt lat="43.1927367" lon="12.2544167"><ele>445.16666666666663</ele><time>2026-03-29T10:41:29.32Z</time></trkpt><trkpt lat="43.1927983" lon="12.25444"><ele>447.3333333333333</ele><time>2026-03-29T10:41:30.323Z</time></trkpt><trkpt lat="43.1928867" lon="12.2544017"><ele>449.5</ele><time>2026-03-29T10:41:32.327Z</time></trkpt><trkpt lat="43.1928967" lon="12.2542917"><ele>451.66666666666663</ele><time>2026-03-29T10:41:34.32Z</time></trkpt><trkpt lat="43.1928367" lon="12.2542183"><ele>453.8333333333333</ele><time>2026-03-29T10:41:35.32Z</time></trkpt><trkpt lat="43.1927583" lon="12.2541733"><ele>456.0</ele><time>2026-03-29T10:41:36.322Z</time></trkpt><trkpt lat="43.19268" lon="12.2541433"><ele>456.0</ele><time>2026-03-29T10:41:37.322Z</time></trkpt><trkpt lat="43.192615" lon="12.2541083"><ele>456.0</ele><time>2026-03-29T10:41:38.323Z</time></trkpt><trkpt lat="43.19254" lon="12.2540717"><ele>456.0</ele><time>2026-03-29T10:41:39.322Z</time></trkpt><trkpt lat="43.19246" lon="12.2540483"><ele>456.0</ele><time>2026-03-29T10:41:40.321Z</time></trkpt><trkpt lat="43.1923783" lon="12.2540283"><ele>456.0</ele><time>2026-03-29T10:41:41.321Z</time></trkpt><trkpt lat="43.1923067" lon="12.254005"><ele>456.0</ele><time>2026-03-29T10:41:42.32Z</time></trkpt><trkpt lat="43.192225" lon="12.2539883"><ele>453.8333333333333</ele><time>2026-03-29T10:41:43.321Z</time></trkpt><trkpt lat="43.1921433" lon="12.2539717"><ele>451.66666666666663</ele><time>2026-03-29T10:41:44.32Z</time></trkpt><trkpt lat="43.1920683" lon="12.25396"><ele>449.5</ele><time>2026-03-29T10:41:45.325Z</time></trkpt><trkpt lat="43.192005" lon="12.25395"><ele>447.3333333333333</ele><time>2026-03-29T10:41:46.321Z</time></trkpt><trkpt lat="43.191905" lon="12.253935"><ele>445.16666666666663</ele><time>2026-03-29T10:41:48.321Z</time></trkpt><trkpt lat="43.1918083" lon="12.253905"><ele>443.0</ele><time>2026-03-29T10:41:50.323Z</time></trkpt><trkpt lat="43.1917133" lon="12.253835"><ele>439.2</ele><time>2026-03-29T10:41:52.322Z</time></trkpt><trkpt lat="43.1916233" lon="12.2537883"><ele>435.4</ele><time>2026-03-29T10:41:54.323Z</time></trkpt><trkpt lat="43.1915417" lon="12.253745"><ele>431.59999999999997</ele><time>2026-03-29T10:41:56.32Z</time></trkpt><trkpt lat="43.19144" lon="12.2537217"><ele>427.79999999999995</ele><time>2026-03-29T10:41:58.32Z</time></trkpt><trkpt lat="43.191335" lon="12.2536933"><ele>424.0</ele><time>2026-03-29T10:42:00.323Z</time></trkpt><trkpt lat="43.1912683" lon="12.25366"><ele>421.50000000000006</ele><time>2026-03-29T10:42:02.323Z</time></trkpt><trkpt lat="43.1912017" lon="12.2535933"><ele>419.0</ele><time>2026-03-29T10:42:04.32Z</time></trkpt><trkpt lat="43.1910933" lon="12.2535867"><ele>416.5</ele><time>2026-03-29T10:42:06.322Z</time></trkpt><trkpt lat="43.19103" lon="12.2536533"><ele>414.0</ele><time>2026-03-29T10:42:08.32Z</time></trkpt><trkpt lat="43.191" lon="12.2537583"><ele>411.50000000000006</ele><time>2026-03-29T10:42:10.32Z</time></trkpt><trkpt lat="43.1909683" lon="12.25384"><ele>409.0</ele><time>2026-03-29T10:42:12.321Z</time></trkpt><trkpt lat="43.19095" lon="12.253935"><ele>411.2</ele><time>2026-03-29T10:42:14.32Z</time></trkpt><trkpt lat="43.1909367" lon="12.25406"><ele>413.4</ele><time>2026-03-29T10:42:16.322Z</time></trkpt><trkpt lat="43.1909183" lon="12.254185"><ele>415.6</ele><time>2026-03-29T10:42:18.321Z</time></trkpt><trkpt lat="43.19086" lon="12.2542867"><ele>417.8</ele><time>2026-03-29T10:42:20.319Z</time></trkpt><trkpt lat="43.19079" lon="12.2544417"><ele>420.0</ele><time>2026-03-29T10:42:22.32Z</time></trkpt><trkpt lat="43.1907617" lon="12.2545367"><ele>420.0</ele><time>2026-03-29T10:42:23.321Z</time></trkpt><trkpt lat="43.190735" lon="12.2546267"><ele>420.0</ele><time>2026-03-29T10:42:24.321Z</time></trkpt><trkpt lat="43.1907117" lon="12.25471"><ele>420.0</ele><time>2026-03-29T10:42:25.319Z</time></trkpt><trkpt lat="43.1906633" lon="12.25484"><ele>420.0</ele><time>2026-03-29T10:42:27.321Z</time></trkpt><trkpt lat="43.190555" lon="12.254915"><ele>420.0</ele><time>2026-03-29T10:42:29.321Z</time></trkpt><trkpt lat="43.1904117" lon="12.2549617"><ele>419.6</ele><time>2026-03-29T10:42:31.32Z</time></trkpt><trkpt lat="43.1903117" lon="12.2549833"><ele>419.2</ele><time>2026-03-29T10:42:32.323Z</time></trkpt><trkpt lat="43.1902367" lon="12.2550367"><ele>418.79999999999995</ele><time>2026-03-29T10:42:33.326Z</time></trkpt><trkpt lat="43.1901333" lon="12.255085"><ele>418.4</ele><time>2026-03-29T10:42:34.321Z</time></trkpt><trkpt lat="43.1900483" lon="12.25512"><ele>418.0</ele><time>2026-03-29T10:42:35.321Z</time></trkpt><trkpt lat="43.1900017" lon="12.2551883"><ele>418.0</ele><time>2026-03-29T10:42:36.321Z</time></trkpt><trkpt lat="43.1899383" lon="12.255235"><ele>418.0</ele><time>2026-03-29T10:42:37.322Z</time></trkpt><trkpt lat="43.1898767" lon="12.2552983"><ele>418.0</ele><time>2026-03-29T10:42:39.321Z</time></trkpt><trkpt lat="43.18967" lon="12.2552233"><ele>418.0</ele><time>2026-03-29T10:42:43.321Z</time></trkpt><trkpt lat="43.1895433" lon="12.25525"><ele>416.0</ele><time>2026-03-29T10:42:45.322Z</time></trkpt><trkpt lat="43.1893367" lon="12.255145"><ele>414.0</ele><time>2026-03-29T10:42:46.32Z</time></trkpt><trkpt lat="43.189265" lon="12.2551317"><ele>412.0</ele><time>2026-03-29T10:42:47.321Z</time></trkpt><trkpt lat="43.189175" lon="12.2550833"><ele>410.0</ele><time>2026-03-29T10:42:48.322Z</time></trkpt><trkpt lat="43.189075" lon="12.2549867"><ele>409.6</ele><time>2026-03-29T10:42:50.32Z</time></trkpt><trkpt lat="43.18899" lon="12.254925"><ele>409.2</ele><time>2026-03-29T10:42:51.321Z</time></trkpt><trkpt lat="43.188895" lon="12.254885"><ele>408.79999999999995</ele><time>2026-03-29T10:42:52.323Z</time></trkpt><trkpt lat="43.18877" lon="12.2548533"><ele>408.4</ele><time>2026-03-29T10:42:53.324Z</time></trkpt><trkpt lat="43.1886967" lon="12.2548433"><ele>408.0</ele><time>2026-03-29T10:42:54.323Z</time></trkpt><trkpt lat="43.1886233" lon="12.254845"><ele>408.0</ele><time>2026-03-29T10:42:55.328Z</time></trkpt><trkpt lat="43.18856" lon="12.254855"><ele>408.0</ele><time>2026-03-29T10:42:56.321Z</time></trkpt><trkpt lat="43.1884467" lon="12.2548633"><ele>408.0</ele><time>2026-03-29T10:42:58.324Z</time></trkpt><trkpt lat="43.1883783" lon="12.254855"><ele>408.0</ele><time>2026-03-29T10:42:59.323Z</time></trkpt><trkpt lat="43.1883133" lon="12.2548283"><ele>408.0</ele><time>2026-03-29T10:43:00.322Z</time></trkpt><trkpt lat="43.1882417" lon="12.2547967"><ele>408.0</ele><time>2026-03-29T10:43:01.323Z</time></trkpt><trkpt lat="43.1881867" lon="12.2547467"><ele>405.0</ele><time>2026-03-29T10:43:02.323Z</time></trkpt><trkpt lat="43.1881383" lon="12.25468"><ele>402.0</ele><time>2026-03-29T10:43:03.321Z</time></trkpt><trkpt lat="43.1880983" lon="12.2545967"><ele>399.0</ele><time>2026-03-29T10:43:04.32Z</time></trkpt><trkpt lat="43.1880483" lon="12.2545233"><ele>396.0</ele><time>2026-03-29T10:43:05.321Z</time></trkpt><trkpt lat="43.1879767" lon="12.2544683"><ele>393.0</ele><time>2026-03-29T10:43:06.32Z</time></trkpt><trkpt lat="43.1878967" lon="12.2544317"><ele>390.0</ele><time>2026-03-29T10:43:07.322Z</time></trkpt><trkpt lat="43.187795" lon="12.25441"><ele>390.0</ele><time>2026-03-29T10:43:08.321Z</time></trkpt><trkpt lat="43.1877033" lon="12.254405"><ele>390.0</ele><time>2026-03-29T10:43:09.323Z</time></trkpt><trkpt lat="43.1876017" lon="12.254415"><ele>390.0</ele><time>2026-03-29T10:43:10.324Z</time></trkpt><trkpt lat="43.18752" lon="12.2544267"><ele>390.0</ele><time>2026-03-29T10:43:11.321Z</time></trkpt><trkpt lat="43.1874483" lon="12.2544517"><ele>390.0</ele><time>2026-03-29T10:43:12.325Z</time></trkpt><trkpt lat="43.18738" lon="12.25447"><ele>390.0</ele><time>2026-03-29T10:43:13.32Z</time></trkpt><trkpt lat="43.1873017" lon="12.25448"><ele>388.5</ele><time>2026-03-29T10:43:14.324Z</time></trkpt><trkpt lat="43.18722" lon="12.2544883"><ele>387.0</ele><time>2026-03-29T10:43:15.32Z</time></trkpt><trkpt lat="43.1871367" lon="12.254495"><ele>385.5</ele><time>2026-03-29T10:43:16.321Z</time></trkpt><trkpt lat="43.1870467" lon="12.254515"><ele>384.0</ele><time>2026-03-29T10:43:17.322Z</time></trkpt><trkpt lat="43.1869583" lon="12.254535"><ele>382.5</ele><time>2026-03-29T10:43:18.321Z</time></trkpt><trkpt lat="43.1868833" lon="12.2545733"><ele>381.0</ele><time>2026-03-29T10:43:19.323Z</time></trkpt><trkpt lat="43.1867617" lon="12.254655"><ele>381.0</ele><time>2026-03-29T10:43:21.323Z</time></trkpt><trkpt lat="43.1867033" lon="12.2546933"><ele>381.0</ele><time>2026-03-29T10:43:22.321Z</time></trkpt><trkpt lat="43.1866367" lon="12.2547167"><ele>381.0</ele><time>2026-03-29T10:43:23.325Z</time></trkpt><trkpt lat="43.1865633" lon="12.2547283"><ele>381.0</ele><time>2026-03-29T10:43:24.325Z</time></trkpt><trkpt lat="43.1864917" lon="12.2547433"><ele>381.0</ele><time>2026-03-29T10:43:25.322Z</time></trkpt><trkpt lat="43.1864167" lon="12.2547633"><ele>381.0</ele><time>2026-03-29T10:43:26.321Z</time></trkpt><trkpt lat="43.1863417" lon="12.2547867"><ele>381.0</ele><time>2026-03-29T10:43:27.323Z</time></trkpt><trkpt lat="43.18627" lon="12.2548"><ele>383.4</ele><time>2026-03-29T10:43:28.324Z</time></trkpt><trkpt lat="43.1861517" lon="12.2547933"><ele>385.8</ele><time>2026-03-29T10:43:30.321Z</time></trkpt><trkpt lat="43.1860833" lon="12.2547867"><ele>388.2</ele><time>2026-03-29T10:43:31.321Z</time></trkpt><trkpt lat="43.1860117" lon="12.2547917"><ele>390.59999999999997</ele><time>2026-03-29T10:43:32.324Z</time></trkpt><trkpt lat="43.1858983" lon="12.254825"><ele>393.0</ele><time>2026-03-29T10:43:34.322Z</time></trkpt><trkpt lat="43.1858083" lon="12.2548633"><ele>393.0</ele><time>2026-03-29T10:43:36.323Z</time></trkpt><trkpt lat="43.1857067" lon="12.2548967"><ele>393.0</ele><time>2026-03-29T10:43:38.323Z</time></trkpt><trkpt lat="43.1856083" lon="12.2549433"><ele>393.0</ele><time>2026-03-29T10:43:40.323Z</time></trkpt><trkpt lat="43.1855117" lon="12.2550117"><ele>393.0</ele><time>2026-03-29T10:43:42.321Z</time></trkpt><trkpt lat="43.185425" lon="12.25506"><ele>393.0</ele><time>2026-03-29T10:43:44.322Z</time></trkpt><trkpt lat="43.1853033" lon="12.25504"><ele>390.4</ele><time>2026-03-29T10:43:46.32Z</time></trkpt><trkpt lat="43.1851667" lon="12.255"><ele>387.79999999999995</ele><time>2026-03-29T10:43:48.32Z</time></trkpt><trkpt lat="43.185095" lon="12.2549633"><ele>385.2</ele><time>2026-03-29T10:43:49.32Z</time></trkpt><trkpt lat="43.1850083" lon="12.2549283"><ele>382.6</ele><time>2026-03-29T10:43:50.324Z</time></trkpt><trkpt lat="43.18494" lon="12.2549067"><ele>380.0</ele><time>2026-03-29T10:43:51.321Z</time></trkpt><trkpt lat="43.184825" lon="12.2548983"><ele>377.1666666666667</ele><time>2026-03-29T10:43:53.323Z</time></trkpt><trkpt lat="43.18474" lon="12.254915"><ele>374.33333333333337</ele><time>2026-03-29T10:43:54.324Z</time></trkpt><trkpt lat="43.1846383" lon="12.2549783"><ele>371.5</ele><time>2026-03-29T10:43:56.321Z</time></trkpt><trkpt lat="43.1845867" lon="12.2550317"><ele>368.6666666666667</ele><time>2026-03-29T10:43:57.328Z</time></trkpt><trkpt lat="43.1845317" lon="12.2551017"><ele>365.8333333333333</ele><time>2026-03-29T10:43:58.321Z</time></trkpt><trkpt lat="43.1844733" lon="12.2551633"><ele>363.0</ele><time>2026-03-29T10:43:59.319Z</time></trkpt><trkpt lat="43.1844" lon="12.2552233"><ele>363.0</ele><time>2026-03-29T10:44:00.322Z</time></trkpt><trkpt lat="43.184325" lon="12.2552817"><ele>363.0</ele><time>2026-03-29T10:44:01.321Z</time></trkpt><trkpt lat="43.18425" lon="12.2553533"><ele>363.0</ele><time>2026-03-29T10:44:02.324Z</time></trkpt><trkpt lat="43.1841733" lon="12.2554083"><ele>363.0</ele><time>2026-03-29T10:44:03.325Z</time></trkpt><trkpt lat="43.18409" lon="12.2554883"><ele>363.0</ele><time>2026-03-29T10:44:04.323Z</time></trkpt><trkpt lat="43.18402" lon="12.2555683"><ele>360.2</ele><time>2026-03-29T10:44:05.32Z</time></trkpt><trkpt lat="43.18397" lon="12.2556383"><ele>357.4</ele><time>2026-03-29T10:44:06.319Z</time></trkpt><trkpt lat="43.183915" lon="12.25577"><ele>354.59999999999997</ele><time>2026-03-29T10:44:08.319Z</time></trkpt><trkpt lat="43.1839067" lon="12.2559617"><ele>351.79999999999995</ele><time>2026-03-29T10:44:10.321Z</time></trkpt><trkpt lat="43.183915" lon="12.2560733"><ele>349.0</ele><time>2026-03-29T10:44:11.319Z</time></trkpt><trkpt lat="43.1839233" lon="12.2562"><ele>349.0</ele><time>2026-03-29T10:44:13.32Z</time></trkpt><trkpt lat="43.1838467" lon="12.2562033"><ele>349.0</ele><time>2026-03-29T10:44:19.322Z</time></trkpt><trkpt lat="43.1837733" lon="12.2560717"><ele>349.0</ele><time>2026-03-29T10:44:27.322Z</time></trkpt><trkpt lat="43.183695" lon="12.2559617"><ele>349.0</ele><time>2026-03-29T10:44:29.323Z</time></trkpt><trkpt lat="43.1836233" lon="12.255835"><ele>349.0</ele><time>2026-03-29T10:44:31.321Z</time></trkpt><trkpt lat="43.1835933" lon="12.2557533"><ele>349.0</ele><time>2026-03-29T10:44:32.319Z</time></trkpt><trkpt lat="43.1835333" lon="12.2556417"><ele>349.0</ele><time>2026-03-29T10:44:34.324Z</time></trkpt><trkpt lat="43.1834767" lon="12.2555433"><ele>349.0</ele><time>2026-03-29T10:44:36.32Z</time></trkpt><trkpt lat="43.1834067" lon="12.2554483"><ele>349.0</ele><time>2026-03-29T10:44:38.322Z</time></trkpt><trkpt lat="43.1833217" lon="12.2553617"><ele>349.0</ele><time>2026-03-29T10:44:40.321Z</time></trkpt><trkpt lat="43.1832433" lon="12.2553133"><ele>344.2</ele><time>2026-03-29T10:44:42.319Z</time></trkpt><trkpt lat="43.18317" lon="12.2552717"><ele>339.4</ele><time>2026-03-29T10:44:44.324Z</time></trkpt><trkpt lat="43.183125" lon="12.2551933"><ele>334.6</ele><time>2026-03-29T10:44:46.322Z</time></trkpt><trkpt lat="43.1831033" lon="12.25505"><ele>329.8</ele><time>2026-03-29T10:44:48.32Z</time></trkpt><trkpt lat="43.1830733" lon="12.2549067"><ele>325.0</ele><time>2026-03-29T10:44:50.324Z</time></trkpt><trkpt lat="43.183015" lon="12.2548167"><ele>325.0</ele><time>2026-03-29T10:44:52.321Z</time></trkpt><trkpt lat="43.1829267" lon="12.2548767"><ele>325.0</ele><time>2026-03-29T10:44:54.321Z</time></trkpt><trkpt lat="43.1828833" lon="12.254965"><ele>325.0</ele><time>2026-03-29T10:44:55.321Z</time></trkpt><trkpt lat="43.1828583" lon="12.25505"><ele>325.0</ele><time>2026-03-29T10:44:56.322Z</time></trkpt><trkpt lat="43.182845" lon="12.25515"><ele>325.0</ele><time>2026-03-29T10:44:57.323Z</time></trkpt><trkpt lat="43.1828433" lon="12.2552417"><ele>325.0</ele><time>2026-03-29T10:44:58.322Z</time></trkpt><trkpt lat="43.1828733" lon="12.2553983"><ele>325.0</ele><time>2026-03-29T10:45:00.321Z</time></trkpt><trkpt lat="43.1829017" lon="12.255485"><ele>325.0</ele><time>2026-03-29T10:45:02.32Z</time></trkpt><trkpt lat="43.1828617" lon="12.2555683"><ele>325.0</ele><time>2026-03-29T10:45:14.323Z</time></trkpt><trkpt lat="43.1828017" lon="12.2555983"><ele>325.0</ele><time>2026-03-29T10:45:16.321Z</time></trkpt><trkpt lat="43.1827417" lon="12.25557"><ele>325.0</ele><time>2026-03-29T10:45:19.323Z</time></trkpt><trkpt lat="43.1826517" lon="12.25549"><ele>325.0</ele><time>2026-03-29T10:45:21.32Z</time></trkpt><trkpt lat="43.1825933" lon="12.2554333"><ele>325.0</ele><time>2026-03-29T10:45:22.321Z</time></trkpt><trkpt lat="43.18254" lon="12.255355"><ele>325.0</ele><time>2026-03-29T10:45:23.322Z</time></trkpt><trkpt lat="43.18248" lon="12.2552567"><ele>325.0</ele><time>2026-03-29T10:45:24.318Z</time></trkpt><trkpt lat="43.18241" lon="12.255155"><ele>325.0</ele><time>2026-03-29T10:45:25.323Z</time></trkpt><trkpt lat="43.1823367" lon="12.2550533"><ele>325.0</ele><time>2026-03-29T10:45:26.32Z</time></trkpt><trkpt lat="43.1822633" lon="12.2549517"><ele>325.0</ele><time>2026-03-29T10:45:27.321Z</time></trkpt><trkpt lat="43.18219" lon="12.2548517"><ele>322.16666666666663</ele><time>2026-03-29T10:45:28.32Z</time></trkpt><trkpt lat="43.1821267" lon="12.25475"><ele>319.3333333333333</ele><time>2026-03-29T10:45:29.323Z</time></trkpt><trkpt lat="43.1820683" lon="12.254645"><ele>316.5</ele><time>2026-03-29T10:45:30.321Z</time></trkpt><trkpt lat="43.1820167" lon="12.2545433"><ele>313.6666666666667</ele><time>2026-03-29T10:45:31.319Z</time></trkpt><trkpt lat="43.18197" lon="12.2544517"><ele>310.83333333333337</ele><time>2026-03-29T10:45:32.323Z</time></trkpt><trkpt lat="43.1819183" lon="12.2543733"><ele>308.0</ele><time>2026-03-29T10:45:33.32Z</time></trkpt><trkpt lat="43.1818517" lon="12.2543033"><ele>308.0</ele><time>2026-03-29T10:45:34.321Z</time></trkpt><trkpt lat="43.1817683" lon="12.25424"><ele>308.0</ele><time>2026-03-29T10:45:35.319Z</time></trkpt><trkpt lat="43.1816617" lon="12.2541883"><ele>308.0</ele><time>2026-03-29T10:45:36.323Z</time></trkpt><trkpt lat="43.18155" lon="12.2541583"><ele>308.0</ele><time>2026-03-29T10:45:37.321Z</time></trkpt><trkpt lat="43.1814467" lon="12.2541333"><ele>308.0</ele><time>2026-03-29T10:45:38.323Z</time></trkpt><trkpt lat="43.1813583" lon="12.2540917"><ele>308.0</ele><time>2026-03-29T10:45:39.319Z</time></trkpt><trkpt lat="43.1812783" lon="12.2540333"><ele>308.0</ele><time>2026-03-29T10:45:40.321Z</time></trkpt><trkpt lat="43.18122" lon="12.2539583"><ele>308.0</ele><time>2026-03-29T10:45:41.32Z</time></trkpt><trkpt lat="43.1811817" lon="12.2538767"><ele>308.0</ele><time>2026-03-29T10:45:42.321Z</time></trkpt><trkpt lat="43.1811567" lon="12.2537933"><ele>308.0</ele><time>2026-03-29T10:45:43.32Z</time></trkpt><trkpt lat="43.1810917" lon="12.2536733"><ele>308.0</ele><time>2026-03-29T10:45:45.321Z</time></trkpt><trkpt lat="43.1809933" lon="12.25366"><ele>308.0</ele><time>2026-03-29T10:45:46.321Z</time></trkpt><trkpt lat="43.1808717" lon="12.2536483"><ele>308.0</ele><time>2026-03-29T10:45:47.319Z</time></trkpt><trkpt lat="43.18075" lon="12.253615"><ele>308.0</ele><time>2026-03-29T10:45:48.32Z</time></trkpt><trkpt lat="43.1806133" lon="12.2535533"><ele>308.0</ele><time>2026-03-29T10:45:49.32Z</time></trkpt><trkpt lat="43.1804867" lon="12.2534883"><ele>310.0</ele><time>2026-03-29T10:45:50.321Z</time></trkpt><trkpt lat="43.1803733" lon="12.253415"><ele>312.0</ele><time>2026-03-29T10:45:51.321Z</time></trkpt><trkpt lat="43.1802617" lon="12.253325"><ele>314.0</ele><time>2026-03-29T10:45:52.319Z</time></trkpt><trkpt lat="43.1801733" lon="12.2532283"><ele>316.0</ele><time>2026-03-29T10:45:53.321Z</time></trkpt><trkpt lat="43.1801067" lon="12.253135"><ele>314.7142857142857</ele><time>2026-03-29T10:45:54.32Z</time></trkpt><trkpt lat="43.1800567" lon="12.2530617"><ele>313.42857142857144</ele><time>2026-03-29T10:45:55.324Z</time></trkpt><trkpt lat="43.1800217" lon="12.2529783"><ele>312.1428571428571</ele><time>2026-03-29T10:45:57.32Z</time></trkpt><trkpt lat="43.1799733" lon="12.2529117"><ele>310.8571428571429</ele><time>2026-03-29T10:50:00.32Z</time></trkpt><trkpt lat="43.17989" lon="12.25292"><ele>309.57142857142856</ele><time>2026-03-29T10:50:03.324Z</time></trkpt><trkpt lat="43.1798117" lon="12.2529167"><ele>308.2857142857143</ele><time>2026-03-29T10:50:11.321Z</time></trkpt><trkpt lat="43.1797483" lon="12.252945"><ele>307.0</ele><time>2026-03-29T10:50:21.322Z</time></trkpt><trkpt lat="43.179675" lon="12.2530067"><ele>311.3333333333333</ele><time>2026-03-29T10:50:25.324Z</time></trkpt><trkpt lat="43.1796183" lon="12.2530567"><ele>315.66666666666663</ele><time>2026-03-29T10:50:28.321Z</time></trkpt><trkpt lat="43.1795617" lon="12.2531117"><ele>320.0</ele><time>2026-03-29T10:50:31.321Z</time></trkpt><trkpt lat="43.17949" lon="12.253175"><ele>324.3333333333333</ele><time>2026-03-29T10:50:34.323Z</time></trkpt><trkpt lat="43.1794317" lon="12.2532133"><ele>328.6666666666667</ele><time>2026-03-29T10:50:37.322Z</time></trkpt><trkpt lat="43.1793867" lon="12.2533417"><ele>333.0</ele><time>2026-03-29T10:50:43.32Z</time></trkpt><trkpt lat="43.1793633" lon="12.2534383"><ele>334.14285714285717</ele><time>2026-03-29T10:50:49.327Z</time></trkpt><trkpt lat="43.1793233" lon="12.253515"><ele>335.2857142857143</ele><time>2026-03-29T10:50:52.323Z</time></trkpt><trkpt lat="43.1792767" lon="12.25359"><ele>336.42857142857144</ele><time>2026-03-29T10:50:56.321Z</time></trkpt><trkpt lat="43.1792433" lon="12.2536633"><ele>337.57142857142856</ele><time>2026-03-29T10:50:59.32Z</time></trkpt><trkpt lat="43.1791883" lon="12.25373"><ele>338.7142857142857</ele><time>2026-03-29T10:51:03.321Z</time></trkpt><trkpt lat="43.1791333" lon="12.253835"><ele>339.85714285714283</ele><time>2026-03-29T10:51:07.324Z</time></trkpt><trkpt lat="43.1790983" lon="12.2539133"><ele>341.0</ele><time>2026-03-29T10:51:09.327Z</time></trkpt><trkpt lat="43.17906" lon="12.2539983"><ele>342.57142857142856</ele><time>2026-03-29T10:51:11.321Z</time></trkpt><trkpt lat="43.1790417" lon="12.2540883"><ele>344.14285714285717</ele><time>2026-03-29T10:51:15.323Z</time></trkpt><trkpt lat="43.17905" lon="12.2541767"><ele>345.7142857142857</ele><time>2026-03-29T10:51:19.32Z</time></trkpt><trkpt lat="43.179065" lon="12.2542967"><ele>347.2857142857143</ele><time>2026-03-29T10:51:59.323Z</time></trkpt><trkpt lat="43.17902" lon="12.2543633"><ele>348.85714285714283</ele><time>2026-03-29T10:52:03.324Z</time></trkpt><trkpt lat="43.1790083" lon="12.254455"><ele>350.42857142857144</ele><time>2026-03-29T10:52:08.322Z</time></trkpt><trkpt lat="43.1790333" lon="12.2543417"><ele>352.0</ele><time>2026-03-29T10:52:17.325Z</time></trkpt><trkpt lat="43.17902" lon="12.2542483"><ele>354.40000000000003</ele><time>2026-03-29T10:52:20.324Z</time></trkpt><trkpt lat="43.1789017" lon="12.2541517"><ele>356.8</ele><time>2026-03-29T10:52:23.32Z</time></trkpt><trkpt lat="43.1788333" lon="12.254075"><ele>359.2</ele><time>2026-03-29T10:52:25.324Z</time></trkpt><trkpt lat="43.1788117" lon="12.2539383"><ele>361.6</ele><time>2026-03-29T10:52:28.323Z</time></trkpt><trkpt lat="43.178805" lon="12.2538517"><ele>364.0</ele><time>2026-03-29T10:52:30.323Z</time></trkpt><trkpt lat="43.1788" lon="12.2537433"><ele>364.0</ele><time>2026-03-29T10:52:32.323Z</time></trkpt><trkpt lat="43.1787967" lon="12.25364"><ele>364.0</ele><time>2026-03-29T10:52:34.322Z</time></trkpt><trkpt lat="43.178765" lon="12.2535067"><ele>364.0</ele><time>2026-03-29T10:52:36.324Z</time></trkpt><trkpt lat="43.1787317" lon="12.253405"><ele>364.0</ele><time>2026-03-29T10:52:38.321Z</time></trkpt><trkpt lat="43.1786567" lon="12.2532783"><ele>364.0</ele><time>2026-03-29T10:52:40.322Z</time></trkpt><trkpt lat="43.1786567" lon="12.2531883"><ele>364.0</ele><time>2026-03-29T10:52:42.324Z</time></trkpt><trkpt lat="43.1786533" lon="12.25309"><ele>363.0</ele><time>2026-03-29T10:52:43.321Z</time></trkpt><trkpt lat="43.1786367" lon="12.2529983"><ele>362.0</ele><time>2026-03-29T10:52:44.325Z</time></trkpt><trkpt lat="43.178625" lon="12.2528967"><ele>361.0</ele><time>2026-03-29T10:52:45.323Z</time></trkpt><trkpt lat="43.178605" lon="12.2527483"><ele>360.0</ele><time>2026-03-29T10:52:46.32Z</time></trkpt><trkpt lat="43.1785817" lon="12.2526417"><ele>359.0</ele><time>2026-03-29T10:52:47.322Z</time></trkpt><trkpt lat="43.1785533" lon="12.2525217"><ele>358.0</ele><time>2026-03-29T10:52:48.321Z</time></trkpt><trkpt lat="43.1785317" lon="12.2524183"><ele>354.25</ele><time>2026-03-29T10:52:49.32Z</time></trkpt><trkpt lat="43.1784983" lon="12.2522533"><ele>350.5</ele><time>2026-03-29T10:52:51.321Z</time></trkpt><trkpt lat="43.1785033" lon="12.252115"><ele>346.75</ele><time>2026-03-29T10:52:53.321Z</time></trkpt><trkpt lat="43.178525" lon="12.2520283"><ele>343.0</ele><time>2026-03-29T10:52:55.324Z</time></trkpt><trkpt lat="43.17841" lon="12.2518767"><ele>343.0</ele><time>2026-03-29T10:53:05.321Z</time></trkpt><trkpt lat="43.1783333" lon="12.2518717"><ele>343.0</ele><time>2026-03-29T10:53:08.32Z</time></trkpt><trkpt lat="43.1782617" lon="12.2519183"><ele>343.0</ele><time>2026-03-29T10:53:10.321Z</time></trkpt><trkpt lat="43.1781967" lon="12.2519567"><ele>343.0</ele><time>2026-03-29T10:53:12.322Z</time></trkpt><trkpt lat="43.1781167" lon="12.2520033"><ele>343.0</ele><time>2026-03-29T10:53:13.32Z</time></trkpt><trkpt lat="43.1780517" lon="12.2520483"><ele>343.0</ele><time>2026-03-29T10:53:15.322Z</time></trkpt><trkpt lat="43.17797" lon="12.2521283"><ele>344.0</ele><time>2026-03-29T10:53:17.321Z</time></trkpt><trkpt lat="43.177905" lon="12.2522217"><ele>345.0</ele><time>2026-03-29T10:53:19.32Z</time></trkpt><trkpt lat="43.1778533" lon="12.25233"><ele>346.0</ele><time>2026-03-29T10:53:21.322Z</time></trkpt><trkpt lat="43.1778312" lon="12.2524112"><ele>347.0</ele><time>2026-03-29T10:53:23.363Z</time></trkpt><trkpt lat="43.1777828" lon="12.2525317"><ele>348.0</ele><time>2026-03-29T10:53:25.37Z</time></trkpt><trkpt lat="43.1777673" lon="12.252676"><ele>348.0</ele><time>2026-03-29T10:53:27.349Z</time></trkpt><trkpt lat="43.1777685" lon="12.2528329"><ele>348.0</ele><time>2026-03-29T10:53:29.343Z</time></trkpt><trkpt lat="43.1776854" lon="12.2529816"><ele>348.0</ele><time>2026-03-29T10:53:32.052Z</time></trkpt><trkpt lat="43.17772" lon="12.2533083"><ele>350.4</ele><time>2026-03-29T10:53:33.323Z</time></trkpt><trkpt lat="43.1777317" lon="12.25348"><ele>352.79999999999995</ele><time>2026-03-29T10:53:35.321Z</time></trkpt><trkpt lat="43.1777483" lon="12.253635"><ele>355.2</ele><time>2026-03-29T10:53:37.322Z</time></trkpt><trkpt lat="43.177725" lon="12.2537333"><ele>357.6</ele><time>2026-03-29T10:53:39.322Z</time></trkpt><trkpt lat="43.1777233" lon="12.2538233"><ele>360.0</ele><time>2026-03-29T10:53:40.32Z</time></trkpt><trkpt lat="43.1777233" lon="12.2539333"><ele>362.8</ele><time>2026-03-29T10:53:43.322Z</time></trkpt><trkpt lat="43.1777733" lon="12.2540483"><ele>365.6</ele><time>2026-03-29T10:53:46.323Z</time></trkpt><trkpt lat="43.1778333" lon="12.254175"><ele>368.4</ele><time>2026-03-29T10:53:48.322Z</time></trkpt><trkpt lat="43.177905" lon="12.2542883"><ele>371.2</ele><time>2026-03-29T10:53:50.322Z</time></trkpt><trkpt lat="43.17798" lon="12.2544183"><ele>374.0</ele><time>2026-03-29T10:53:52.321Z</time></trkpt><trkpt lat="43.178035" lon="12.2545233"><ele>374.0</ele><time>2026-03-29T10:53:54.321Z</time></trkpt><trkpt lat="43.1780433" lon="12.254695"><ele>374.0</ele><time>2026-03-29T10:53:56.326Z</time></trkpt><trkpt lat="43.178025" lon="12.2548133"><ele>374.0</ele><time>2026-03-29T10:53:58.32Z</time></trkpt><trkpt lat="43.1780283" lon="12.2549383"><ele>374.0</ele><time>2026-03-29T10:54:00.321Z</time></trkpt><trkpt lat="43.17804" lon="12.2550667"><ele>374.0</ele><time>2026-03-29T10:54:02.32Z</time></trkpt><trkpt lat="43.1780467" lon="12.2551817"><ele>377.6</ele><time>2026-03-29T10:54:03.325Z</time></trkpt><trkpt lat="43.1780483" lon="12.2553567"><ele>381.2</ele><time>2026-03-29T10:54:04.32Z</time></trkpt><trkpt lat="43.1780433" lon="12.25547"><ele>384.8</ele><time>2026-03-29T10:54:06.321Z</time></trkpt><trkpt lat="43.1780717" lon="12.2556583"><ele>388.40000000000003</ele><time>2026-03-29T10:54:11.322Z</time></trkpt><trkpt lat="43.1780867" lon="12.25578"><ele>392.0</ele><time>2026-03-29T10:54:14.32Z</time></trkpt><trkpt lat="43.1781267" lon="12.2558517"><ele>391.40000000000003</ele><time>2026-03-29T10:54:16.321Z</time></trkpt><trkpt lat="43.1781867" lon="12.255905"><ele>390.8</ele><time>2026-03-29T10:54:18.323Z</time></trkpt><trkpt lat="43.1782517" lon="12.2559833"><ele>390.2</ele><time>2026-03-29T10:54:20.32Z</time></trkpt><trkpt lat="43.1783483" lon="12.2560683"><ele>389.6</ele><time>2026-03-29T10:54:22.321Z</time></trkpt><trkpt lat="43.1784317" lon="12.2561167"><ele>389.0</ele><time>2026-03-29T10:54:24.319Z</time></trkpt><trkpt lat="43.1785283" lon="12.25618"><ele>389.0</ele><time>2026-03-29T10:54:25.321Z</time></trkpt><trkpt lat="43.1787333" lon="12.2561917"><ele>389.0</ele><time>2026-03-29T10:54:27.323Z</time></trkpt><trkpt lat="43.1787067" lon="12.2563083"><ele>389.0</ele><time>2026-03-29T10:54:30.321Z</time></trkpt><trkpt lat="43.1787" lon="12.2563967"><ele>389.0</ele><time>2026-03-29T10:54:31.32Z</time></trkpt><trkpt lat="43.17865" lon="12.2564717"><ele>389.0</ele><time>2026-03-29T10:54:33.321Z</time></trkpt><trkpt lat="43.1786" lon="12.2565383"><ele>391.16666666666663</ele><time>2026-03-29T10:54:35.321Z</time></trkpt><trkpt lat="43.1785183" lon="12.256635"><ele>393.3333333333333</ele><time>2026-03-29T10:54:37.321Z</time></trkpt><trkpt lat="43.1784433" lon="12.25675"><ele>395.5</ele><time>2026-03-29T10:54:39.323Z</time></trkpt><trkpt lat="43.1784" lon="12.2568533"><ele>397.66666666666663</ele><time>2026-03-29T10:54:40.323Z</time></trkpt><trkpt lat="43.1783533" lon="12.2569133"><ele>399.8333333333333</ele><time>2026-03-29T10:54:41.319Z</time></trkpt><trkpt lat="43.1783183" lon="12.2569983"><ele>402.0</ele><time>2026-03-29T10:54:42.322Z</time></trkpt><trkpt lat="43.17829" lon="12.25708"><ele>402.0</ele><time>2026-03-29T10:54:43.322Z</time></trkpt><trkpt lat="43.1782317" lon="12.2571933"><ele>402.0</ele><time>2026-03-29T10:54:45.321Z</time></trkpt><trkpt lat="43.17819" lon="12.257265"><ele>402.0</ele><time>2026-03-29T10:54:47.323Z</time></trkpt><trkpt lat="43.178125" lon="12.2573167"><ele>402.0</ele><time>2026-03-29T10:54:49.323Z</time></trkpt><trkpt lat="43.1780683" lon="12.2573683"><ele>402.0</ele><time>2026-03-29T10:54:51.321Z</time></trkpt><trkpt lat="43.1780183" lon="12.2574483"><ele>402.0</ele><time>2026-03-29T10:54:55.321Z</time></trkpt><trkpt lat="43.1780267" lon="12.25754"><ele>406.6666666666667</ele><time>2026-03-29T10:54:57.321Z</time></trkpt><trkpt lat="43.1780433" lon="12.2576283"><ele>411.33333333333337</ele><time>2026-03-29T10:54:59.322Z</time></trkpt><trkpt lat="43.1780683" lon="12.2577133"><ele>416.0</ele><time>2026-03-29T10:55:01.32Z</time></trkpt><trkpt lat="43.1780633" lon="12.257875"><ele>420.6666666666667</ele><time>2026-03-29T10:55:03.325Z</time></trkpt><trkpt lat="43.1780583" lon="12.2579733"><ele>425.33333333333337</ele><time>2026-03-29T10:55:04.322Z</time></trkpt><trkpt lat="43.1780517" lon="12.2580733"><ele>430.0</ele><time>2026-03-29T10:55:05.318Z</time></trkpt><trkpt lat="43.1780567" lon="12.25823"><ele>431.2</ele><time>2026-03-29T10:55:07.327Z</time></trkpt><trkpt lat="43.1780733" lon="12.2583683"><ele>432.4</ele><time>2026-03-29T10:55:09.323Z</time></trkpt><trkpt lat="43.1780817" lon="12.2585067"><ele>433.6</ele><time>2026-03-29T10:55:11.323Z</time></trkpt><trkpt lat="43.178075" lon="12.2586317"><ele>434.8</ele><time>2026-03-29T10:55:13.322Z</time></trkpt><trkpt lat="43.1780517" lon="12.2588"><ele>436.0</ele><time>2026-03-29T10:55:15.32Z</time></trkpt><trkpt lat="43.1780117" lon="12.258945"><ele>434.8</ele><time>2026-03-29T10:55:17.32Z</time></trkpt><trkpt lat="43.1779967" lon="12.2590467"><ele>433.6</ele><time>2026-03-29T10:55:21.321Z</time></trkpt><trkpt lat="43.1780417" lon="12.2591117"><ele>432.4</ele><time>2026-03-29T10:55:23.321Z</time></trkpt><trkpt lat="43.1780833" lon="12.2592417"><ele>431.2</ele><time>2026-03-29T10:55:25.324Z</time></trkpt><trkpt lat="43.1781133" lon="12.25938"><ele>430.0</ele><time>2026-03-29T10:55:27.324Z</time></trkpt><trkpt lat="43.1781767" lon="12.2595567"><ele>426.2</ele><time>2026-03-29T10:55:29.322Z</time></trkpt><trkpt lat="43.1782283" lon="12.25962"><ele>422.4</ele><time>2026-03-29T10:55:30.32Z</time></trkpt><trkpt lat="43.1782767" lon="12.2596933"><ele>418.6</ele><time>2026-03-29T10:55:31.321Z</time></trkpt><trkpt lat="43.1783717" lon="12.2598033"><ele>414.8</ele><time>2026-03-29T10:55:33.32Z</time></trkpt><trkpt lat="43.178435" lon="12.2598417"><ele>411.0</ele><time>2026-03-29T10:55:34.327Z</time></trkpt><trkpt lat="43.178525" lon="12.2599833"><ele>411.0</ele><time>2026-03-29T10:55:35.321Z</time></trkpt><trkpt lat="43.1785767" lon="12.2600333"><ele>411.0</ele><time>2026-03-29T10:55:36.321Z</time></trkpt><trkpt lat="43.1786633" lon="12.2601033"><ele>411.0</ele><time>2026-03-29T10:55:37.324Z</time></trkpt><trkpt lat="43.1787333" lon="12.260175"><ele>411.0</ele><time>2026-03-29T10:55:38.323Z</time></trkpt><trkpt lat="43.178795" lon="12.2602517"><ele>411.0</ele><time>2026-03-29T10:55:39.324Z</time></trkpt><trkpt lat="43.1788367" lon="12.2603217"><ele>411.0</ele><time>2026-03-29T10:55:40.319Z</time></trkpt><trkpt lat="43.1789017" lon="12.260445"><ele>411.0</ele><time>2026-03-29T10:55:42.32Z</time></trkpt><trkpt lat="43.178975" lon="12.2605017"><ele>411.0</ele><time>2026-03-29T10:55:44.324Z</time></trkpt><trkpt lat="43.1790667" lon="12.2605117"><ele>411.0</ele><time>2026-03-29T10:55:46.321Z</time></trkpt><trkpt lat="43.1791317" lon="12.26049"><ele>411.0</ele><time>2026-03-29T10:55:47.322Z</time></trkpt><trkpt lat="43.17921" lon="12.26046"><ele>411.0</ele><time>2026-03-29T10:55:48.322Z</time></trkpt><trkpt lat="43.1792917" lon="12.260435"><ele>411.0</ele><time>2026-03-29T10:55:49.32Z</time></trkpt><trkpt lat="43.1793633" lon="12.2604333"><ele>411.5</ele><time>2026-03-29T10:55:50.319Z</time></trkpt><trkpt lat="43.1794817" lon="12.2604733"><ele>412.0</ele><time>2026-03-29T10:55:52.321Z</time></trkpt><trkpt lat="43.1795367" lon="12.2605183"><ele>412.5</ele><time>2026-03-29T10:55:53.32Z</time></trkpt><trkpt lat="43.1795917" lon="12.2605717"><ele>413.0</ele><time>2026-03-29T10:55:54.321Z</time></trkpt><trkpt lat="43.1797033" lon="12.2606467"><ele>413.5</ele><time>2026-03-29T10:55:56.319Z</time></trkpt><trkpt lat="43.1797683" lon="12.2606567"><ele>414.0</ele><time>2026-03-29T10:55:57.323Z</time></trkpt><trkpt lat="43.179835" lon="12.2606583"><ele>414.75</ele><time>2026-03-29T10:55:58.319Z</time></trkpt><trkpt lat="43.1799667" lon="12.2606767"><ele>415.5</ele><time>2026-03-29T10:56:00.323Z</time></trkpt><trkpt lat="43.180035" lon="12.2606917"><ele>416.25</ele><time>2026-03-29T10:56:01.321Z</time></trkpt><trkpt lat="43.180185" lon="12.26071"><ele>417.0</ele><time>2026-03-29T10:56:03.32Z</time></trkpt><trkpt lat="43.1802817" lon="12.2606917"><ele>417.0</ele><time>2026-03-29T10:56:04.32Z</time></trkpt><trkpt lat="43.180375" lon="12.2606767"><ele>417.0</ele><time>2026-03-29T10:56:05.325Z</time></trkpt><trkpt lat="43.1804583" lon="12.2606633"><ele>417.0</ele><time>2026-03-29T10:56:06.319Z</time></trkpt><trkpt lat="43.1805733" lon="12.2606683"><ele>417.0</ele><time>2026-03-29T10:56:08.322Z</time></trkpt><trkpt lat="43.1806833" lon="12.2606967"><ele>417.0</ele><time>2026-03-29T10:56:10.32Z</time></trkpt><trkpt lat="43.1807617" lon="12.2607717"><ele>417.0</ele><time>2026-03-29T10:56:12.32Z</time></trkpt><trkpt lat="43.180745" lon="12.26087"><ele>417.0</ele><time>2026-03-29T10:56:14.322Z</time></trkpt><trkpt lat="43.1806983" lon="12.2609283"><ele>417.0</ele><time>2026-03-29T10:56:15.324Z</time></trkpt><trkpt lat="43.1806" lon="12.261035"><ele>417.0</ele><time>2026-03-29T10:56:16.319Z</time></trkpt><trkpt lat="43.1804733" lon="12.2611333"><ele>417.0</ele><time>2026-03-29T10:56:17.319Z</time></trkpt><trkpt lat="43.1803233" lon="12.2611833"><ele>417.0</ele><time>2026-03-29T10:56:18.324Z</time></trkpt><trkpt lat="43.1802167" lon="12.2612283"><ele>417.0</ele><time>2026-03-29T10:56:19.32Z</time></trkpt><trkpt lat="43.1801167" lon="12.261275"><ele>417.0</ele><time>2026-03-29T10:56:20.327Z</time></trkpt><trkpt lat="43.1800183" lon="12.26134"><ele>417.0</ele><time>2026-03-29T10:56:21.324Z</time></trkpt><trkpt lat="43.17992" lon="12.2614133"><ele>417.0</ele><time>2026-03-29T10:56:22.327Z</time></trkpt><trkpt lat="43.179815" lon="12.2615017"><ele>422.25</ele><time>2026-03-29T10:56:23.321Z</time></trkpt><trkpt lat="43.179705" lon="12.2615833"><ele>427.5</ele><time>2026-03-29T10:56:24.322Z</time></trkpt><trkpt lat="43.179605" lon="12.26166"><ele>432.75</ele><time>2026-03-29T10:56:25.32Z</time></trkpt><trkpt lat="43.1795067" lon="12.2617317"><ele>438.0</ele><time>2026-03-29T10:56:26.319Z</time></trkpt><trkpt lat="43.17941" lon="12.2618067"><ele>438.0</ele><time>2026-03-29T10:56:27.317Z</time></trkpt><trkpt lat="43.1793067" lon="12.2618767"><ele>438.0</ele><time>2026-03-29T10:56:28.317Z</time></trkpt><trkpt lat="43.1791967" lon="12.26195"><ele>438.0</ele><time>2026-03-29T10:56:29.321Z</time></trkpt><trkpt lat="43.1790933" lon="12.2620233"><ele>438.0</ele><time>2026-03-29T10:56:30.321Z</time></trkpt><trkpt lat="43.1790033" lon="12.2620917"><ele>439.2</ele><time>2026-03-29T10:56:31.32Z</time></trkpt><trkpt lat="43.1789267" lon="12.26214"><ele>440.4</ele><time>2026-03-29T10:56:32.318Z</time></trkpt><trkpt lat="43.178845" lon="12.262175"><ele>441.59999999999997</ele><time>2026-03-29T10:56:33.322Z</time></trkpt><trkpt lat="43.1787817" lon="12.262195"><ele>442.79999999999995</ele><time>2026-03-29T10:56:34.32Z</time></trkpt><trkpt lat="43.17868" lon="12.2622017"><ele>444.0</ele><time>2026-03-29T10:56:36.319Z</time></trkpt><trkpt lat="43.1785567" lon="12.2622167"><ele>444.0</ele><time>2026-03-29T10:56:38.32Z</time></trkpt><trkpt lat="43.178475" lon="12.262215"><ele>444.0</ele><time>2026-03-29T10:56:39.319Z</time></trkpt><trkpt lat="43.1783917" lon="12.2622033"><ele>444.0</ele><time>2026-03-29T10:56:40.318Z</time></trkpt><trkpt lat="43.1783117" lon="12.26219"><ele>444.0</ele><time>2026-03-29T10:56:41.317Z</time></trkpt><trkpt lat="43.1782333" lon="12.262175"><ele>444.0</ele><time>2026-03-29T10:56:42.318Z</time></trkpt><trkpt lat="43.1781583" lon="12.262165"><ele>444.0</ele><time>2026-03-29T10:56:43.319Z</time></trkpt><trkpt lat="43.178095" lon="12.2621517"><ele>445.6</ele><time>2026-03-29T10:56:44.318Z</time></trkpt><trkpt lat="43.1780317" lon="12.2621367"><ele>447.2</ele><time>2026-03-29T10:56:45.319Z</time></trkpt><trkpt lat="43.1779233" lon="12.262105"><ele>448.80000000000007</ele><time>2026-03-29T10:56:47.319Z</time></trkpt><trkpt lat="43.1778433" lon="12.262065"><ele>450.40000000000003</ele><time>2026-03-29T10:56:49.319Z</time></trkpt><trkpt lat="43.1777583" lon="12.2619933"><ele>452.0</ele><time>2026-03-29T10:56:51.318Z</time></trkpt><trkpt lat="43.1776417" lon="12.26191"><ele>452.0</ele><time>2026-03-29T10:56:53.32Z</time></trkpt><trkpt lat="43.1775717" lon="12.2618517"><ele>452.00000000000006</ele><time>2026-03-29T10:56:54.318Z</time></trkpt><trkpt lat="43.1774983" lon="12.2617983"><ele>452.00000000000006</ele><time>2026-03-29T10:56:55.319Z</time></trkpt><trkpt lat="43.1774017" lon="12.2617483"><ele>452.0</ele><time>2026-03-29T10:56:56.318Z</time></trkpt><trkpt lat="43.1773183" lon="12.26171"><ele>452.0</ele><time>2026-03-29T10:56:57.321Z</time></trkpt><trkpt lat="43.1772267" lon="12.2616767"><ele>452.8</ele><time>2026-03-29T10:56:58.317Z</time></trkpt><trkpt lat="43.1771267" lon="12.2616433"><ele>453.6</ele><time>2026-03-29T10:56:59.319Z</time></trkpt><trkpt lat="43.1770267" lon="12.2616117"><ele>454.40000000000003</ele><time>2026-03-29T10:57:00.318Z</time></trkpt><trkpt lat="43.17691" lon="12.2615867"><ele>455.20000000000005</ele><time>2026-03-29T10:57:01.318Z</time></trkpt><trkpt lat="43.1768" lon="12.2615583"><ele>456.0</ele><time>2026-03-29T10:57:02.319Z</time></trkpt><trkpt lat="43.1766933" lon="12.2615233"><ele>456.0</ele><time>2026-03-29T10:57:03.318Z</time></trkpt><trkpt lat="43.1765817" lon="12.2614733"><ele>456.0</ele><time>2026-03-29T10:57:04.319Z</time></trkpt><trkpt lat="43.1765017" lon="12.2614117"><ele>456.0</ele><time>2026-03-29T10:57:05.322Z</time></trkpt><trkpt lat="43.1764467" lon="12.2613383"><ele>456.0</ele><time>2026-03-29T10:57:06.322Z</time></trkpt><trkpt lat="43.1763967" lon="12.2612467"><ele>456.0</ele><time>2026-03-29T10:57:07.321Z</time></trkpt><trkpt lat="43.17633" lon="12.26114"><ele>455.4</ele><time>2026-03-29T10:57:08.319Z</time></trkpt><trkpt lat="43.176265" lon="12.2610233"><ele>454.8</ele><time>2026-03-29T10:57:09.323Z</time></trkpt><trkpt lat="43.1762067" lon="12.2608983"><ele>454.19999999999993</ele><time>2026-03-29T10:57:10.32Z</time></trkpt><trkpt lat="43.1761567" lon="12.2607817"><ele>453.59999999999997</ele><time>2026-03-29T10:57:11.321Z</time></trkpt><trkpt lat="43.1761067" lon="12.26066"><ele>453.0</ele><time>2026-03-29T10:57:12.322Z</time></trkpt><trkpt lat="43.1760683" lon="12.2605417"><ele>454.59999999999997</ele><time>2026-03-29T10:57:13.322Z</time></trkpt><trkpt lat="43.176045" lon="12.2604333"><ele>456.19999999999993</ele><time>2026-03-29T10:57:14.321Z</time></trkpt><trkpt lat="43.1760267" lon="12.260325"><ele>457.8</ele><time>2026-03-29T10:57:15.324Z</time></trkpt><trkpt lat="43.1760267" lon="12.2602033"><ele>459.4</ele><time>2026-03-29T10:57:16.321Z</time></trkpt><trkpt lat="43.1760433" lon="12.2600767"><ele>461.0</ele><time>2026-03-29T10:57:17.32Z</time></trkpt><trkpt lat="43.176065" lon="12.2599267"><ele>461.0</ele><time>2026-03-29T10:57:18.322Z</time></trkpt><trkpt lat="43.176085" lon="12.2597867"><ele>461.0</ele><time>2026-03-29T10:57:19.322Z</time></trkpt><trkpt lat="43.1761117" lon="12.2596367"><ele>461.0</ele><time>2026-03-29T10:57:20.325Z</time></trkpt><trkpt lat="43.1761417" lon="12.259495"><ele>461.0</ele><time>2026-03-29T10:57:21.32Z</time></trkpt><trkpt lat="43.1761733" lon="12.2593667"><ele>461.0</ele><time>2026-03-29T10:57:22.322Z</time></trkpt><trkpt lat="43.1761867" lon="12.2592483"><ele>460.4</ele><time>2026-03-29T10:57:23.323Z</time></trkpt><trkpt lat="43.1761817" lon="12.259135"><ele>459.8</ele><time>2026-03-29T10:57:24.325Z</time></trkpt><trkpt lat="43.176155" lon="12.2590267"><ele>459.19999999999993</ele><time>2026-03-29T10:57:25.321Z</time></trkpt><trkpt lat="43.1761" lon="12.2588767"><ele>458.59999999999997</ele><time>2026-03-29T10:57:26.32Z</time></trkpt><trkpt lat="43.176025" lon="12.2587867"><ele>458.0</ele><time>2026-03-29T10:57:27.32Z</time></trkpt><trkpt lat="43.175925" lon="12.2587333"><ele>458.0</ele><time>2026-03-29T10:57:28.323Z</time></trkpt><trkpt lat="43.17582" lon="12.2587083"><ele>458.0</ele><time>2026-03-29T10:57:29.322Z</time></trkpt><trkpt lat="43.1757117" lon="12.2586967"><ele>458.0</ele><time>2026-03-29T10:57:30.321Z</time></trkpt><trkpt lat="43.17559" lon="12.2586983"><ele>458.0</ele><time>2026-03-29T10:57:31.322Z</time></trkpt><trkpt lat="43.175475" lon="12.2586917"><ele>459.25</ele><time>2026-03-29T10:57:32.323Z</time></trkpt><trkpt lat="43.1753583" lon="12.2586967"><ele>460.5</ele><time>2026-03-29T10:57:33.32Z</time></trkpt><trkpt lat="43.1752433" lon="12.2587"><ele>461.75</ele><time>2026-03-29T10:57:34.323Z</time></trkpt><trkpt lat="43.1751317" lon="12.2586883"><ele>463.0</ele><time>2026-03-29T10:57:35.319Z</time></trkpt><trkpt lat="43.1750183" lon="12.2586717"><ele>463.0</ele><time>2026-03-29T10:57:36.328Z</time></trkpt><trkpt lat="43.174905" lon="12.25866"><ele>463.0</ele><time>2026-03-29T10:57:37.324Z</time></trkpt><trkpt lat="43.1747883" lon="12.25864"><ele>463.0</ele><time>2026-03-29T10:57:38.323Z</time></trkpt><trkpt lat="43.17467" lon="12.2586117"><ele>463.0</ele><time>2026-03-29T10:57:39.322Z</time></trkpt><trkpt lat="43.17456" lon="12.2585933"><ele>464.0</ele><time>2026-03-29T10:57:40.321Z</time></trkpt><trkpt lat="43.1744583" lon="12.2585683"><ele>464.99999999999994</ele><time>2026-03-29T10:57:41.323Z</time></trkpt><trkpt lat="43.1743583" lon="12.2585383"><ele>465.99999999999994</ele><time>2026-03-29T10:57:42.322Z</time></trkpt><trkpt lat="43.1742533" lon="12.2584983"><ele>467.0</ele><time>2026-03-29T10:57:43.321Z</time></trkpt><trkpt lat="43.174145" lon="12.25845"><ele>468.0</ele><time>2026-03-29T10:57:44.32Z</time></trkpt><trkpt lat="43.1740333" lon="12.258395"><ele>468.25</ele><time>2026-03-29T10:57:45.324Z</time></trkpt><trkpt lat="43.1739267" lon="12.25833"><ele>468.5</ele><time>2026-03-29T10:57:46.325Z</time></trkpt><trkpt lat="43.1738133" lon="12.2582517"><ele>468.75</ele><time>2026-03-29T10:57:47.319Z</time></trkpt><trkpt lat="43.1736933" lon="12.2581533"><ele>469.0</ele><time>2026-03-29T10:57:48.32Z</time></trkpt><trkpt lat="43.1735683" lon="12.2580317"><ele>469.0</ele><time>2026-03-29T10:57:49.319Z</time></trkpt><trkpt lat="43.173445" lon="12.2578917"><ele>469.0</ele><time>2026-03-29T10:57:50.32Z</time></trkpt><trkpt lat="43.1733267" lon="12.257745"><ele>469.0</ele><time>2026-03-29T10:57:51.323Z</time></trkpt><trkpt lat="43.1732083" lon="12.2576083"><ele>468.5</ele><time>2026-03-29T10:57:52.32Z</time></trkpt><trkpt lat="43.173105" lon="12.2574783"><ele>468.0</ele><time>2026-03-29T10:57:53.319Z</time></trkpt><trkpt lat="43.17301" lon="12.25735"><ele>467.5</ele><time>2026-03-29T10:57:54.32Z</time></trkpt><trkpt lat="43.172915" lon="12.2572267"><ele>467.0</ele><time>2026-03-29T10:57:55.32Z</time></trkpt><trkpt lat="43.17283" lon="12.2571117"><ele>467.0</ele><time>2026-03-29T10:57:56.321Z</time></trkpt><trkpt lat="43.1727367" lon="12.2570083"><ele>467.0</ele><time>2026-03-29T10:57:57.321Z</time></trkpt><trkpt lat="43.1726417" lon="12.2569267"><ele>467.0</ele><time>2026-03-29T10:57:58.322Z</time></trkpt><trkpt lat="43.1725333" lon="12.2568683"><ele>467.0</ele><time>2026-03-29T10:57:59.321Z</time></trkpt><trkpt lat="43.172415" lon="12.2568167"><ele>467.25</ele><time>2026-03-29T10:58:00.322Z</time></trkpt><trkpt lat="43.1722967" lon="12.2567567"><ele>467.5</ele><time>2026-03-29T10:58:01.322Z</time></trkpt><trkpt lat="43.172185" lon="12.2566833"><ele>467.75</ele><time>2026-03-29T10:58:02.323Z</time></trkpt><trkpt lat="43.17207" lon="12.256615"><ele>468.0</ele><time>2026-03-29T10:58:03.324Z</time></trkpt><trkpt lat="43.1719483" lon="12.2565633"><ele>468.0</ele><time>2026-03-29T10:58:04.319Z</time></trkpt><trkpt lat="43.1718317" lon="12.2565333"><ele>468.0</ele><time>2026-03-29T10:58:05.32Z</time></trkpt><trkpt lat="43.171715" lon="12.2565083"><ele>468.0</ele><time>2026-03-29T10:58:06.322Z</time></trkpt><trkpt lat="43.171605" lon="12.2564817"><ele>468.0</ele><time>2026-03-29T10:58:07.32Z</time></trkpt><trkpt lat="43.171505" lon="12.2564417"><ele>466.8333333333333</ele><time>2026-03-29T10:58:08.319Z</time></trkpt><trkpt lat="43.1714183" lon="12.25638"><ele>465.66666666666663</ele><time>2026-03-29T10:58:09.321Z</time></trkpt><trkpt lat="43.1713467" lon="12.2562983"><ele>464.5</ele><time>2026-03-29T10:58:10.32Z</time></trkpt><trkpt lat="43.1712917" lon="12.2562"><ele>463.3333333333333</ele><time>2026-03-29T10:58:11.318Z</time></trkpt><trkpt lat="43.1712433" lon="12.2561"><ele>462.16666666666663</ele><time>2026-03-29T10:58:12.321Z</time></trkpt><trkpt lat="43.1712083" lon="12.2560117"><ele>461.0</ele><time>2026-03-29T10:58:13.321Z</time></trkpt><trkpt lat="43.17117" lon="12.25585"><ele>461.0</ele><time>2026-03-29T10:58:15.325Z</time></trkpt><trkpt lat="43.1711167" lon="12.2557117"><ele>461.0</ele><time>2026-03-29T10:58:17.319Z</time></trkpt><trkpt lat="43.1710467" lon="12.25556"><ele>461.0</ele><time>2026-03-29T10:58:19.324Z</time></trkpt><trkpt lat="43.171015" lon="12.2554683"><ele>461.0</ele><time>2026-03-29T10:58:20.327Z</time></trkpt><trkpt lat="43.170985" lon="12.255365"><ele>461.0</ele><time>2026-03-29T10:58:21.326Z</time></trkpt><trkpt lat="43.1709633" lon="12.2552633"><ele>459.8333333333333</ele><time>2026-03-29T10:58:22.321Z</time></trkpt><trkpt lat="43.170955" lon="12.255165"><ele>458.66666666666663</ele><time>2026-03-29T10:58:23.321Z</time></trkpt><trkpt lat="43.1709667" lon="12.2550717"><ele>457.5</ele><time>2026-03-29T10:58:24.321Z</time></trkpt><trkpt lat="43.17099" lon="12.254985"><ele>456.33333333333337</ele><time>2026-03-29T10:58:25.319Z</time></trkpt><trkpt lat="43.1710283" lon="12.2548583"><ele>455.1666666666667</ele><time>2026-03-29T10:58:27.324Z</time></trkpt><trkpt lat="43.1710817" lon="12.2547767"><ele>454.0</ele><time>2026-03-29T10:58:30.319Z</time></trkpt><trkpt lat="43.1711633" lon="12.2547683"><ele>454.0</ele><time>2026-03-29T10:58:32.322Z</time></trkpt><trkpt lat="43.171275" lon="12.2547867"><ele>454.0</ele><time>2026-03-29T10:58:34.322Z</time></trkpt><trkpt lat="43.1714067" lon="12.2548067"><ele>454.0</ele><time>2026-03-29T10:58:36.323Z</time></trkpt><trkpt lat="43.1714833" lon="12.254805"><ele>454.0</ele><time>2026-03-29T10:58:37.323Z</time></trkpt><trkpt lat="43.17155" lon="12.2548183"><ele>454.0</ele><time>2026-03-29T10:58:38.323Z</time></trkpt><trkpt lat="43.1716167" lon="12.2548367"><ele>454.2</ele><time>2026-03-29T10:58:39.32Z</time></trkpt><trkpt lat="43.1717167" lon="12.2548517"><ele>454.4</ele><time>2026-03-29T10:58:41.322Z</time></trkpt><trkpt lat="43.17183" lon="12.2548683"><ele>454.6</ele><time>2026-03-29T10:58:43.321Z</time></trkpt><trkpt lat="43.1719533" lon="12.254835"><ele>454.8</ele><time>2026-03-29T10:58:45.324Z</time></trkpt><trkpt lat="43.1720217" lon="12.25481"><ele>455.0</ele><time>2026-03-29T10:58:46.323Z</time></trkpt><trkpt lat="43.1720917" lon="12.2547767"><ele>452.16666666666663</ele><time>2026-03-29T10:58:47.319Z</time></trkpt><trkpt lat="43.1721667" lon="12.2547317"><ele>449.3333333333333</ele><time>2026-03-29T10:58:48.319Z</time></trkpt><trkpt lat="43.172245" lon="12.2546633"><ele>446.5</ele><time>2026-03-29T10:58:49.326Z</time></trkpt><trkpt lat="43.17232" lon="12.254605"><ele>443.66666666666663</ele><time>2026-03-29T10:58:50.32Z</time></trkpt><trkpt lat="43.1723833" lon="12.2545383"><ele>440.8333333333333</ele><time>2026-03-29T10:58:51.321Z</time></trkpt><trkpt lat="43.17245" lon="12.2544833"><ele>438.0</ele><time>2026-03-29T10:58:52.326Z</time></trkpt><trkpt lat="43.1725183" lon="12.25445"><ele>438.0</ele><time>2026-03-29T10:58:53.325Z</time></trkpt><trkpt lat="43.1725917" lon="12.254415"><ele>438.0</ele><time>2026-03-29T10:58:54.321Z</time></trkpt><trkpt lat="43.17265" lon="12.2543783"><ele>438.0</ele><time>2026-03-29T10:58:55.32Z</time></trkpt><trkpt lat="43.1727417" lon="12.2542917"><ele>438.0</ele><time>2026-03-29T10:58:57.324Z</time></trkpt><trkpt lat="43.1728267" lon="12.2541767"><ele>438.0</ele><time>2026-03-29T10:58:59.321Z</time></trkpt><trkpt lat="43.17288" lon="12.2541117"><ele>438.0</ele><time>2026-03-29T10:59:00.323Z</time></trkpt><trkpt lat="43.17294" lon="12.25407"><ele>438.0</ele><time>2026-03-29T10:59:01.32Z</time></trkpt><trkpt lat="43.1730083" lon="12.2540217"><ele>438.0</ele><time>2026-03-29T10:59:02.321Z</time></trkpt><trkpt lat="43.1730883" lon="12.2539833"><ele>438.0</ele><time>2026-03-29T10:59:03.323Z</time></trkpt><trkpt lat="43.1731533" lon="12.2539317"><ele>438.0</ele><time>2026-03-29T10:59:04.32Z</time></trkpt><trkpt lat="43.1732283" lon="12.253885"><ele>438.0</ele><time>2026-03-29T10:59:05.324Z</time></trkpt><trkpt lat="43.1733" lon="12.2538333"><ele>438.0</ele><time>2026-03-29T10:59:06.325Z</time></trkpt><trkpt lat="43.1733767" lon="12.2537767"><ele>436.1666666666667</ele><time>2026-03-29T10:59:07.326Z</time></trkpt><trkpt lat="43.1734583" lon="12.2537217"><ele>434.33333333333337</ele><time>2026-03-29T10:59:08.323Z</time></trkpt><trkpt lat="43.1735367" lon="12.2536683"><ele>432.5</ele><time>2026-03-29T10:59:09.323Z</time></trkpt><trkpt lat="43.1736267" lon="12.2536133"><ele>430.6666666666667</ele><time>2026-03-29T10:59:10.322Z</time></trkpt><trkpt lat="43.1737033" lon="12.253555"><ele>428.83333333333337</ele><time>2026-03-29T10:59:11.319Z</time></trkpt><trkpt lat="43.173765" lon="12.2534783"><ele>427.0</ele><time>2026-03-29T10:59:12.321Z</time></trkpt><trkpt lat="43.1738267" lon="12.2533967"><ele>427.0</ele><time>2026-03-29T10:59:13.321Z</time></trkpt><trkpt lat="43.1738717" lon="12.2533267"><ele>427.00000000000006</ele><time>2026-03-29T10:59:14.322Z</time></trkpt><trkpt lat="43.1739517" lon="12.253215"><ele>427.00000000000006</ele><time>2026-03-29T10:59:16.32Z</time></trkpt><trkpt lat="43.1740317" lon="12.2531167"><ele>427.0</ele><time>2026-03-29T10:59:18.323Z</time></trkpt><trkpt lat="43.1741217" lon="12.2530233"><ele>427.0</ele><time>2026-03-29T10:59:20.321Z</time></trkpt><trkpt lat="43.1742217" lon="12.252935"><ele>424.85714285714283</ele><time>2026-03-29T10:59:22.32Z</time></trkpt><trkpt lat="43.1742767" lon="12.252885"><ele>422.7142857142857</ele><time>2026-03-29T10:59:23.321Z</time></trkpt><trkpt lat="43.1743283" lon="12.252825"><ele>420.57142857142856</ele><time>2026-03-29T10:59:24.319Z</time></trkpt><trkpt lat="43.17438" lon="12.2527467"><ele>418.42857142857144</ele><time>2026-03-29T10:59:25.32Z</time></trkpt><trkpt lat="43.1744333" lon="12.2526583"><ele>416.2857142857143</ele><time>2026-03-29T10:59:26.32Z</time></trkpt><trkpt lat="43.1744817" lon="12.2525783"><ele>414.1428571428571</ele><time>2026-03-29T10:59:27.323Z</time></trkpt><trkpt lat="43.1745283" lon="12.2524983"><ele>412.0</ele><time>2026-03-29T10:59:28.319Z</time></trkpt><trkpt lat="43.1745767" lon="12.2524267"><ele>412.0</ele><time>2026-03-29T10:59:29.319Z</time></trkpt><trkpt lat="43.174625" lon="12.25236"><ele>412.0</ele><time>2026-03-29T10:59:30.322Z</time></trkpt><trkpt lat="43.1746733" lon="12.252295"><ele>412.0</ele><time>2026-03-29T10:59:31.322Z</time></trkpt><trkpt lat="43.174755" lon="12.252195"><ele>412.0</ele><time>2026-03-29T10:59:33.319Z</time></trkpt><trkpt lat="43.17483" lon="12.25215"><ele>412.0</ele><time>2026-03-29T10:59:35.32Z</time></trkpt><trkpt lat="43.1749483" lon="12.2521017"><ele>409.50000000000006</ele><time>2026-03-29T10:59:37.319Z</time></trkpt><trkpt lat="43.1750117" lon="12.25207"><ele>407.0</ele><time>2026-03-29T10:59:38.32Z</time></trkpt><trkpt lat="43.1750733" lon="12.252035"><ele>404.5</ele><time>2026-03-29T10:59:39.323Z</time></trkpt><trkpt lat="43.1751767" lon="12.251975"><ele>402.0</ele><time>2026-03-29T10:59:41.323Z</time></trkpt><trkpt lat="43.1752733" lon="12.25193"><ele>399.50000000000006</ele><time>2026-03-29T10:59:43.32Z</time></trkpt><trkpt lat="43.17535" lon="12.2519233"><ele>397.0</ele><time>2026-03-29T10:59:45.319Z</time></trkpt><trkpt lat="43.175445" lon="12.2519417"><ele>397.0</ele><time>2026-03-29T10:59:47.319Z</time></trkpt><trkpt lat="43.1755583" lon="12.25195"><ele>397.0</ele><time>2026-03-29T10:59:49.32Z</time></trkpt><trkpt lat="43.1756683" lon="12.25195"><ele>397.0</ele><time>2026-03-29T10:59:51.32Z</time></trkpt><trkpt lat="43.1757367" lon="12.2518467"><ele>397.0</ele><time>2026-03-29T10:59:53.32Z</time></trkpt><trkpt lat="43.1757317" lon="12.2516983"><ele>397.0</ele><time>2026-03-29T10:59:55.32Z</time></trkpt><trkpt lat="43.1756983" lon="12.251625"><ele>397.00000000000006</ele><time>2026-03-29T10:59:56.324Z</time></trkpt><trkpt lat="43.1756567" lon="12.2515533"><ele>397.0</ele><time>2026-03-29T10:59:57.32Z</time></trkpt><trkpt lat="43.1756167" lon="12.25148"><ele>397.0</ele><time>2026-03-29T10:59:58.32Z</time></trkpt><trkpt lat="43.1755467" lon="12.251365"><ele>397.0</ele><time>2026-03-29T11:00:00.32Z</time></trkpt><trkpt lat="43.1754717" lon="12.2513017"><ele>397.00000000000006</ele><time>2026-03-29T11:00:02.318Z</time></trkpt><trkpt lat="43.1753833" lon="12.2512367"><ele>397.0</ele><time>2026-03-29T11:00:04.324Z</time></trkpt><trkpt lat="43.1753317" lon="12.2511383"><ele>392.40000000000003</ele><time>2026-03-29T11:00:06.323Z</time></trkpt><trkpt lat="43.175365" lon="12.2510267"><ele>387.8</ele><time>2026-03-29T11:00:09.324Z</time></trkpt><trkpt lat="43.1754533" lon="12.2509767"><ele>383.2</ele><time>2026-03-29T11:00:11.32Z</time></trkpt><trkpt lat="43.1755517" lon="12.2509233"><ele>378.6</ele><time>2026-03-29T11:00:13.32Z</time></trkpt><trkpt lat="43.1756433" lon="12.25086"><ele>374.0</ele><time>2026-03-29T11:00:15.323Z</time></trkpt><trkpt lat="43.1757317" lon="12.2508083"><ele>374.0</ele><time>2026-03-29T11:00:17.321Z</time></trkpt><trkpt lat="43.1758267" lon="12.250775"><ele>374.0</ele><time>2026-03-29T11:00:19.322Z</time></trkpt><trkpt lat="43.1759217" lon="12.250745"><ele>374.0</ele><time>2026-03-29T11:00:21.323Z</time></trkpt><trkpt lat="43.1760017" lon="12.2507467"><ele>374.0</ele><time>2026-03-29T11:00:23.322Z</time></trkpt><trkpt lat="43.176105" lon="12.2507617"><ele>374.0</ele><time>2026-03-29T11:00:25.322Z</time></trkpt><trkpt lat="43.1762083" lon="12.2507633"><ele>374.0</ele><time>2026-03-29T11:00:27.322Z</time></trkpt><trkpt lat="43.1762867" lon="12.2507183"><ele>374.0</ele><time>2026-03-29T11:00:29.322Z</time></trkpt><trkpt lat="43.176335" lon="12.250655"><ele>374.0</ele><time>2026-03-29T11:00:31.325Z</time></trkpt><trkpt lat="43.17637" lon="12.25054"><ele>374.0</ele><time>2026-03-29T11:00:33.321Z</time></trkpt><trkpt lat="43.1763817" lon="12.2504367"><ele>374.0</ele><time>2026-03-29T11:00:34.322Z</time></trkpt><trkpt lat="43.1763933" lon="12.250315"><ele>374.0</ele><time>2026-03-29T11:00:35.323Z</time></trkpt><trkpt lat="43.1764083" lon="12.2501967"><ele>370.83333333333337</ele><time>2026-03-29T11:00:36.322Z</time></trkpt><trkpt lat="43.176425" lon="12.2500833"><ele>367.6666666666667</ele><time>2026-03-29T11:00:37.32Z</time></trkpt><trkpt lat="43.1764383" lon="12.2499817"><ele>364.5</ele><time>2026-03-29T11:00:38.321Z</time></trkpt><trkpt lat="43.1764633" lon="12.2498367"><ele>361.3333333333333</ele><time>2026-03-29T11:00:40.322Z</time></trkpt><trkpt lat="43.176475" lon="12.24969"><ele>358.16666666666663</ele><time>2026-03-29T11:00:42.32Z</time></trkpt><trkpt lat="43.1764767" lon="12.2495933"><ele>355.0</ele><time>2026-03-29T11:00:43.323Z</time></trkpt><trkpt lat="43.1764783" lon="12.2494983"><ele>351.4</ele><time>2026-03-29T11:00:44.321Z</time></trkpt><trkpt lat="43.1764733" lon="12.2494083"><ele>347.8</ele><time>2026-03-29T11:00:45.322Z</time></trkpt><trkpt lat="43.1764633" lon="12.2493217"><ele>344.20000000000005</ele><time>2026-03-29T11:00:46.32Z</time></trkpt><trkpt lat="43.17644" lon="12.2491583"><ele>340.6</ele><time>2026-03-29T11:00:48.323Z</time></trkpt><trkpt lat="43.1764433" lon="12.2489983"><ele>337.0</ele><time>2026-03-29T11:00:50.32Z</time></trkpt><trkpt lat="43.1764483" lon="12.2488433"><ele>335.40000000000003</ele><time>2026-03-29T11:00:52.32Z</time></trkpt><trkpt lat="43.1764483" lon="12.2486867"><ele>333.8</ele><time>2026-03-29T11:00:54.32Z</time></trkpt><trkpt lat="43.1764433" lon="12.248525"><ele>332.2</ele><time>2026-03-29T11:00:56.324Z</time></trkpt><trkpt lat="43.176445" lon="12.2483817"><ele>330.6</ele><time>2026-03-29T11:00:58.324Z</time></trkpt><trkpt lat="43.1764433" lon="12.2482467"><ele>329.0</ele><time>2026-03-29T11:01:00.321Z</time></trkpt><trkpt lat="43.1764433" lon="12.24811"><ele>327.2</ele><time>2026-03-29T11:01:02.324Z</time></trkpt><trkpt lat="43.1764383" lon="12.2479783"><ele>325.4</ele><time>2026-03-29T11:01:04.322Z</time></trkpt><trkpt lat="43.17644" lon="12.2478283"><ele>323.6</ele><time>2026-03-29T11:01:06.322Z</time></trkpt><trkpt lat="43.1764233" lon="12.24767"><ele>321.8</ele><time>2026-03-29T11:01:08.322Z</time></trkpt><trkpt lat="43.176425" lon="12.2475467"><ele>320.0</ele><time>2026-03-29T11:01:10.322Z</time></trkpt><trkpt lat="43.1764567" lon="12.2474567"><ele>320.0</ele><time>2026-03-29T11:01:12.323Z</time></trkpt><trkpt lat="43.1764983" lon="12.2473817"><ele>320.0</ele><time>2026-03-29T11:01:14.32Z</time></trkpt><trkpt lat="43.1765417" lon="12.2472833"><ele>320.0</ele><time>2026-03-29T11:01:17.322Z</time></trkpt><trkpt lat="43.17654" lon="12.2471817"><ele>320.0</ele><time>2026-03-29T11:01:21.322Z</time></trkpt><trkpt lat="43.1764767" lon="12.2471233"><ele>320.0</ele><time>2026-03-29T11:01:26.321Z</time></trkpt><trkpt lat="43.1764117" lon="12.2471333"><ele>320.0</ele><time>2026-03-29T11:01:29.321Z</time></trkpt><trkpt lat="43.1763517" lon="12.24717"><ele>320.0</ele><time>2026-03-29T11:01:33.323Z</time></trkpt><trkpt lat="43.1763133" lon="12.2472417"><ele>320.0</ele><time>2026-03-29T11:01:36.32Z</time></trkpt><trkpt lat="43.1762767" lon="12.2473167"><ele>320.0</ele><time>2026-03-29T11:01:39.32Z</time></trkpt><trkpt lat="43.1762167" lon="12.24741"><ele>320.0</ele><time>2026-03-29T11:01:42.323Z</time></trkpt><trkpt lat="43.17617" lon="12.2475"><ele>320.0</ele><time>2026-03-29T11:01:44.32Z</time></trkpt><trkpt lat="43.1761117" lon="12.2476"><ele>320.0</ele><time>2026-03-29T11:01:46.32Z</time></trkpt><trkpt lat="43.1760517" lon="12.2477183"><ele>320.0</ele><time>2026-03-29T11:01:48.322Z</time></trkpt><trkpt lat="43.176005" lon="12.2478517"><ele>320.0</ele><time>2026-03-29T11:01:50.319Z</time></trkpt><trkpt lat="43.1759517" lon="12.2479867"><ele>320.0</ele><time>2026-03-29T11:01:52.32Z</time></trkpt><trkpt lat="43.175905" lon="12.2481033"><ele>320.0</ele><time>2026-03-29T11:01:54.319Z</time></trkpt><trkpt lat="43.1758683" lon="12.2481883"><ele>320.0</ele><time>2026-03-29T11:01:56.322Z</time></trkpt><trkpt lat="43.175845" lon="12.2480933"><ele>320.0</ele><time>2026-03-29T11:02:00.324Z</time></trkpt><trkpt lat="43.1758517" lon="12.2479883"><ele>320.0</ele><time>2026-03-29T11:02:02.321Z</time></trkpt><trkpt lat="43.1758583" lon="12.2478867"><ele>320.0</ele><time>2026-03-29T11:02:04.323Z</time></trkpt><trkpt lat="43.1758583" lon="12.2477733"><ele>320.0</ele><time>2026-03-29T11:02:06.321Z</time></trkpt><trkpt lat="43.1758467" lon="12.2476417"><ele>320.0</ele><time>2026-03-29T11:02:08.322Z</time></trkpt><trkpt lat="43.175825" lon="12.2475033"><ele>320.0</ele><time>2026-03-29T11:02:10.32Z</time></trkpt><trkpt lat="43.1758167" lon="12.2473883"><ele>320.0</ele><time>2026-03-29T11:02:12.321Z</time></trkpt><trkpt lat="43.1757967" lon="12.2472783"><ele>318.33333333333337</ele><time>2026-03-29T11:02:14.32Z</time></trkpt><trkpt lat="43.1757967" lon="12.2471533"><ele>316.6666666666667</ele><time>2026-03-29T11:02:16.319Z</time></trkpt><trkpt lat="43.1758217" lon="12.2470267"><ele>315.0</ele><time>2026-03-29T11:02:18.321Z</time></trkpt><trkpt lat="43.1758467" lon="12.2469433"><ele>313.3333333333333</ele><time>2026-03-29T11:02:19.321Z</time></trkpt><trkpt lat="43.1758733" lon="12.24686"><ele>311.66666666666663</ele><time>2026-03-29T11:02:20.322Z</time></trkpt><trkpt lat="43.1758917" lon="12.2467683"><ele>310.0</ele><time>2026-03-29T11:02:21.323Z</time></trkpt><trkpt lat="43.1759" lon="12.2466817"><ele>310.0</ele><time>2026-03-29T11:02:22.319Z</time></trkpt><trkpt lat="43.17592" lon="12.2465267"><ele>310.0</ele><time>2026-03-29T11:02:24.32Z</time></trkpt><trkpt lat="43.1759717" lon="12.2464"><ele>310.0</ele><time>2026-03-29T11:02:26.323Z</time></trkpt><trkpt lat="43.1760183" lon="12.2462733"><ele>310.0</ele><time>2026-03-29T11:02:28.322Z</time></trkpt><trkpt lat="43.176035" lon="12.2460967"><ele>309.0</ele><time>2026-03-29T11:02:30.324Z</time></trkpt><trkpt lat="43.1760383" lon="12.246"><ele>308.0</ele><time>2026-03-29T11:02:31.322Z</time></trkpt><trkpt lat="43.1760433" lon="12.2459117"><ele>307.0</ele><time>2026-03-29T11:02:32.319Z</time></trkpt><trkpt lat="43.1760683" lon="12.2458017"><ele>306.0</ele><time>2026-03-29T11:02:33.32Z</time></trkpt><trkpt lat="43.1761383" lon="12.245675"><ele>305.0</ele><time>2026-03-29T11:02:34.323Z</time></trkpt><trkpt lat="43.1762117" lon="12.2455517"><ele>305.0</ele><time>2026-03-29T11:02:35.323Z</time></trkpt><trkpt lat="43.1762867" lon="12.2454317"><ele>305.0</ele><time>2026-03-29T11:02:36.321Z</time></trkpt><trkpt lat="43.17636" lon="12.24531"><ele>305.0</ele><time>2026-03-29T11:02:37.321Z</time></trkpt><trkpt lat="43.1764233" lon="12.2451983"><ele>305.0</ele><time>2026-03-29T11:02:38.323Z</time></trkpt><trkpt lat="43.176485" lon="12.2450983"><ele>305.0</ele><time>2026-03-29T11:02:39.324Z</time></trkpt><trkpt lat="43.17654" lon="12.2450083"><ele>303.0</ele><time>2026-03-29T11:02:40.322Z</time></trkpt><trkpt lat="43.17659" lon="12.2449333"><ele>301.0</ele><time>2026-03-29T11:02:41.32Z</time></trkpt><trkpt lat="43.17664" lon="12.2448667"><ele>299.0</ele><time>2026-03-29T11:02:42.32Z</time></trkpt><trkpt lat="43.1767117" lon="12.24473"><ele>297.0</ele><time>2026-03-29T11:02:44.32Z</time></trkpt><trkpt lat="43.176745" lon="12.24465"><ele>295.0</ele><time>2026-03-29T11:02:45.323Z</time></trkpt><trkpt lat="43.1767517" lon="12.2445633"><ele>293.0</ele><time>2026-03-29T11:02:46.319Z</time></trkpt><trkpt lat="43.176755" lon="12.2444467"><ele>292.4</ele><time>2026-03-29T11:02:47.32Z</time></trkpt><trkpt lat="43.176745" lon="12.244325"><ele>291.8</ele><time>2026-03-29T11:02:48.32Z</time></trkpt><trkpt lat="43.1767317" lon="12.2441783"><ele>291.2</ele><time>2026-03-29T11:02:49.319Z</time></trkpt><trkpt lat="43.1767183" lon="12.2440367"><ele>290.6</ele><time>2026-03-29T11:02:50.319Z</time></trkpt><trkpt lat="43.17671" lon="12.24391"><ele>290.0</ele><time>2026-03-29T11:02:51.323Z</time></trkpt><trkpt lat="43.176715" lon="12.2437633"><ele>289.83333333333337</ele><time>2026-03-29T11:02:52.32Z</time></trkpt><trkpt lat="43.1767333" lon="12.2436133"><ele>289.6666666666667</ele><time>2026-03-29T11:02:54.32Z</time></trkpt><trkpt lat="43.1767183" lon="12.2435217"><ele>289.5</ele><time>2026-03-29T11:02:56.322Z</time></trkpt><trkpt lat="43.1766517" lon="12.243395"><ele>289.3333333333333</ele><time>2026-03-29T11:02:58.319Z</time></trkpt><trkpt lat="43.1766033" lon="12.2433317"><ele>289.16666666666663</ele><time>2026-03-29T11:02:59.32Z</time></trkpt><trkpt lat="43.1765433" lon="12.243265"><ele>289.0</ele><time>2026-03-29T11:03:00.32Z</time></trkpt><trkpt lat="43.1764783" lon="12.243195"><ele>288.66666666666663</ele><time>2026-03-29T11:03:01.321Z</time></trkpt><trkpt lat="43.176405" lon="12.243125"><ele>288.3333333333333</ele><time>2026-03-29T11:03:02.318Z</time></trkpt><trkpt lat="43.176335" lon="12.2430533"><ele>288.0</ele><time>2026-03-29T11:03:03.32Z</time></trkpt><trkpt lat="43.1762683" lon="12.2429783"><ele>287.6666666666667</ele><time>2026-03-29T11:03:04.321Z</time></trkpt><trkpt lat="43.1762333" lon="12.24289"><ele>287.33333333333337</ele><time>2026-03-29T11:03:05.319Z</time></trkpt><trkpt lat="43.1762017" lon="12.2427967"><ele>287.0</ele><time>2026-03-29T11:03:06.319Z</time></trkpt><trkpt lat="43.1761867" lon="12.2426917"><ele>287.0</ele><time>2026-03-29T11:03:07.32Z</time></trkpt><trkpt lat="43.1761783" lon="12.242575"><ele>287.0</ele><time>2026-03-29T11:03:08.32Z</time></trkpt><trkpt lat="43.1761683" lon="12.2424533"><ele>287.0</ele><time>2026-03-29T11:03:09.32Z</time></trkpt><trkpt lat="43.1761533" lon="12.24233"><ele>287.0</ele><time>2026-03-29T11:03:10.32Z</time></trkpt><trkpt lat="43.1761083" lon="12.2422017"><ele>287.0</ele><time>2026-03-29T11:03:11.322Z</time></trkpt><trkpt lat="43.1760633" lon="12.2420583"><ele>286.75</ele><time>2026-03-29T11:03:12.321Z</time></trkpt><trkpt lat="43.17601" lon="12.2418983"><ele>286.5</ele><time>2026-03-29T11:03:13.321Z</time></trkpt><trkpt lat="43.17595" lon="12.2417267"><ele>286.25</ele><time>2026-03-29T11:03:14.32Z</time></trkpt><trkpt lat="43.1758917" lon="12.241545"><ele>286.0</ele><time>2026-03-29T11:03:15.324Z</time></trkpt><trkpt lat="43.1758417" lon="12.2413567"><ele>285.5</ele><time>2026-03-29T11:03:16.322Z</time></trkpt><trkpt lat="43.17579" lon="12.2411667"><ele>285.0</ele><time>2026-03-29T11:03:17.319Z</time></trkpt><trkpt lat="43.1757417" lon="12.2409867"><ele>284.5</ele><time>2026-03-29T11:03:18.319Z</time></trkpt><trkpt lat="43.1756967" lon="12.2408017"><ele>284.0</ele><time>2026-03-29T11:03:19.323Z</time></trkpt><trkpt lat="43.175645" lon="12.240615"><ele>284.0</ele><time>2026-03-29T11:03:20.323Z</time></trkpt><trkpt lat="43.17559" lon="12.2404217"><ele>284.0</ele><time>2026-03-29T11:03:21.324Z</time></trkpt><trkpt lat="43.1755433" lon="12.24022"><ele>284.0</ele><time>2026-03-29T11:03:22.324Z</time></trkpt><trkpt lat="43.1755" lon="12.2400183"><ele>284.0</ele><time>2026-03-29T11:03:23.319Z</time></trkpt><trkpt lat="43.1754683" lon="12.239815"><ele>284.0</ele><time>2026-03-29T11:03:24.321Z</time></trkpt><trkpt lat="43.1754367" lon="12.2396117"><ele>284.0</ele><time>2026-03-29T11:03:25.322Z</time></trkpt><trkpt lat="43.1754" lon="12.2394067"><ele>283.6666666666667</ele><time>2026-03-29T11:03:26.324Z</time></trkpt><trkpt lat="43.1753533" lon="12.2391983"><ele>283.3333333333333</ele><time>2026-03-29T11:03:27.321Z</time></trkpt><trkpt lat="43.1753017" lon="12.2389867"><ele>283.0</ele><time>2026-03-29T11:03:28.322Z</time></trkpt><trkpt lat="43.1752483" lon="12.2387817"><ele>282.66666666666663</ele><time>2026-03-29T11:03:29.32Z</time></trkpt><trkpt lat="43.175195" lon="12.2385783"><ele>282.3333333333333</ele><time>2026-03-29T11:03:30.32Z</time></trkpt><trkpt lat="43.1751433" lon="12.238375"><ele>282.0</ele><time>2026-03-29T11:03:31.321Z</time></trkpt><trkpt lat="43.175095" lon="12.2381717"><ele>283.0</ele><time>2026-03-29T11:03:32.32Z</time></trkpt><trkpt lat="43.17506" lon="12.2379733"><ele>284.0</ele><time>2026-03-29T11:03:33.325Z</time></trkpt><trkpt lat="43.175035" lon="12.2377817"><ele>285.0</ele><time>2026-03-29T11:03:34.322Z</time></trkpt><trkpt lat="43.17501" lon="12.2375983"><ele>286.0</ele><time>2026-03-29T11:03:35.32Z</time></trkpt><trkpt lat="43.1749783" lon="12.2374067"><ele>287.66666666666663</ele><time>2026-03-29T11:03:36.319Z</time></trkpt><trkpt lat="43.1749333" lon="12.237215"><ele>289.3333333333333</ele><time>2026-03-29T11:03:37.323Z</time></trkpt><trkpt lat="43.17487" lon="12.2370233"><ele>291.0</ele><time>2026-03-29T11:03:38.322Z</time></trkpt><trkpt lat="43.17479" lon="12.236835"><ele>289.0</ele><time>2026-03-29T11:03:39.323Z</time></trkpt><trkpt lat="43.174695" lon="12.23665"><ele>287.0</ele><time>2026-03-29T11:03:40.324Z</time></trkpt><trkpt lat="43.1745883" lon="12.2364783"><ele>285.0</ele><time>2026-03-29T11:03:41.323Z</time></trkpt><trkpt lat="43.1744867" lon="12.2363217"><ele>285.0</ele><time>2026-03-29T11:03:42.323Z</time></trkpt><trkpt lat="43.1743867" lon="12.23617"><ele>285.0</ele><time>2026-03-29T11:03:43.324Z</time></trkpt><trkpt lat="43.1743" lon="12.236025"><ele>285.0</ele><time>2026-03-29T11:03:44.319Z</time></trkpt><trkpt lat="43.174225" lon="12.23588"><ele>285.0</ele><time>2026-03-29T11:03:45.324Z</time></trkpt><trkpt lat="43.1741533" lon="12.2357417"><ele>286.5</ele><time>2026-03-29T11:03:46.32Z</time></trkpt><trkpt lat="43.1740817" lon="12.2356117"><ele>288.0</ele><time>2026-03-29T11:03:47.319Z</time></trkpt><trkpt lat="43.1740183" lon="12.2354867"><ele>289.5</ele><time>2026-03-29T11:03:48.319Z</time></trkpt><trkpt lat="43.1739433" lon="12.23536"><ele>291.0</ele><time>2026-03-29T11:03:49.32Z</time></trkpt><trkpt lat="43.1738717" lon="12.235235"><ele>288.25</ele><time>2026-03-29T11:03:50.323Z</time></trkpt><trkpt lat="43.1738" lon="12.235105"><ele>285.5</ele><time>2026-03-29T11:03:51.321Z</time></trkpt><trkpt lat="43.1737317" lon="12.2349733"><ele>282.75</ele><time>2026-03-29T11:03:52.32Z</time></trkpt><trkpt lat="43.17366" lon="12.23484"><ele>280.0</ele><time>2026-03-29T11:03:53.32Z</time></trkpt><trkpt lat="43.1735883" lon="12.2347033"><ele>280.0</ele><time>2026-03-29T11:03:54.322Z</time></trkpt><trkpt lat="43.17351" lon="12.2345633"><ele>280.0</ele><time>2026-03-29T11:03:55.32Z</time></trkpt><trkpt lat="43.1734367" lon="12.2344267"><ele>280.0</ele><time>2026-03-29T11:03:56.32Z</time></trkpt><trkpt lat="43.1733717" lon="12.2342883"><ele>280.0</ele><time>2026-03-29T11:03:57.321Z</time></trkpt><trkpt lat="43.1733083" lon="12.2341417"><ele>280.0</ele><time>2026-03-29T11:03:58.32Z</time></trkpt><trkpt lat="43.1732483" lon="12.2339917"><ele>280.0</ele><time>2026-03-29T11:03:59.324Z</time></trkpt><trkpt lat="43.1731783" lon="12.23383"><ele>280.0</ele><time>2026-03-29T11:04:00.321Z</time></trkpt><trkpt lat="43.1731033" lon="12.2336617"><ele>280.0</ele><time>2026-03-29T11:04:01.323Z</time></trkpt><trkpt lat="43.1730183" lon="12.2335017"><ele>281.0</ele><time>2026-03-29T11:04:02.321Z</time></trkpt><trkpt lat="43.1729133" lon="12.2333533"><ele>282.0</ele><time>2026-03-29T11:04:03.32Z</time></trkpt><trkpt lat="43.172795" lon="12.233215"><ele>283.0</ele><time>2026-03-29T11:04:04.327Z</time></trkpt><trkpt lat="43.17267" lon="12.233085"><ele>283.0</ele><time>2026-03-29T11:04:05.321Z</time></trkpt><trkpt lat="43.1725467" lon="12.2329533"><ele>283.0</ele><time>2026-03-29T11:04:06.321Z</time></trkpt><trkpt lat="43.1724333" lon="12.2328233"><ele>283.0</ele><time>2026-03-29T11:04:07.32Z</time></trkpt><trkpt lat="43.17233" lon="12.2326833"><ele>283.0</ele><time>2026-03-29T11:04:08.32Z</time></trkpt><trkpt lat="43.1722267" lon="12.2325367"><ele>282.5</ele><time>2026-03-29T11:04:09.323Z</time></trkpt><trkpt lat="43.1721333" lon="12.2323833"><ele>282.0</ele><time>2026-03-29T11:04:10.32Z</time></trkpt><trkpt lat="43.1720533" lon="12.2322267"><ele>281.5</ele><time>2026-03-29T11:04:11.32Z</time></trkpt><trkpt lat="43.171955" lon="12.2320733"><ele>281.0</ele><time>2026-03-29T11:04:12.319Z</time></trkpt><trkpt lat="43.171865" lon="12.2319083"><ele>281.0</ele><time>2026-03-29T11:04:13.321Z</time></trkpt><trkpt lat="43.1717767" lon="12.23174"><ele>281.0</ele><time>2026-03-29T11:04:14.321Z</time></trkpt><trkpt lat="43.1716883" lon="12.231565"><ele>281.0</ele><time>2026-03-29T11:04:15.321Z</time></trkpt><trkpt lat="43.1716" lon="12.231385"><ele>279.0</ele><time>2026-03-29T11:04:16.321Z</time></trkpt><trkpt lat="43.1715117" lon="12.2311967"><ele>277.0</ele><time>2026-03-29T11:04:17.322Z</time></trkpt><trkpt lat="43.1714183" lon="12.2310067"><ele>275.0</ele><time>2026-03-29T11:04:18.32Z</time></trkpt><trkpt lat="43.1713267" lon="12.230825"><ele>275.0</ele><time>2026-03-29T11:04:19.322Z</time></trkpt><trkpt lat="43.1712317" lon="12.2306567"><ele>275.0</ele><time>2026-03-29T11:04:20.32Z</time></trkpt><trkpt lat="43.1711383" lon="12.2305"><ele>275.0</ele><time>2026-03-29T11:04:21.32Z</time></trkpt><trkpt lat="43.17104" lon="12.230355"><ele>275.0</ele><time>2026-03-29T11:04:22.319Z</time></trkpt><trkpt lat="43.17094" lon="12.23022"><ele>275.5</ele><time>2026-03-29T11:04:23.323Z</time></trkpt><trkpt lat="43.170845" lon="12.2300833"><ele>276.0</ele><time>2026-03-29T11:04:24.321Z</time></trkpt><trkpt lat="43.170755" lon="12.229945"><ele>276.5</ele><time>2026-03-29T11:04:25.324Z</time></trkpt><trkpt lat="43.1706633" lon="12.2298133"><ele>277.0</ele><time>2026-03-29T11:04:26.32Z</time></trkpt><trkpt lat="43.1705767" lon="12.2296933"><ele>275.4</ele><time>2026-03-29T11:04:27.319Z</time></trkpt><trkpt lat="43.1705033" lon="12.2295833"><ele>273.79999999999995</ele><time>2026-03-29T11:04:28.322Z</time></trkpt><trkpt lat="43.1704383" lon="12.2294717"><ele>272.2</ele><time>2026-03-29T11:04:29.32Z</time></trkpt><trkpt lat="43.1703883" lon="12.22934"><ele>270.59999999999997</ele><time>2026-03-29T11:04:30.322Z</time></trkpt><trkpt lat="43.1703633" lon="12.22918"><ele>269.0</ele><time>2026-03-29T11:04:31.322Z</time></trkpt><trkpt lat="43.1703533" lon="12.2290033"><ele>269.5</ele><time>2026-03-29T11:04:32.325Z</time></trkpt><trkpt lat="43.1703517" lon="12.228815"><ele>270.0</ele><time>2026-03-29T11:04:33.322Z</time></trkpt><trkpt lat="43.1703583" lon="12.22862"><ele>270.5</ele><time>2026-03-29T11:04:34.323Z</time></trkpt><trkpt lat="43.17037" lon="12.228435"><ele>271.0</ele><time>2026-03-29T11:04:35.327Z</time></trkpt><trkpt lat="43.170385" lon="12.22826"><ele>271.2</ele><time>2026-03-29T11:04:36.323Z</time></trkpt><trkpt lat="43.1703917" lon="12.2281033"><ele>271.40000000000003</ele><time>2026-03-29T11:04:37.322Z</time></trkpt><trkpt lat="43.170385" lon="12.22797"><ele>271.6</ele><time>2026-03-29T11:04:38.323Z</time></trkpt><trkpt lat="43.170365" lon="12.227865"><ele>271.8</ele><time>2026-03-29T11:04:39.324Z</time></trkpt><trkpt lat="43.170305" lon="12.227745"><ele>272.0</ele><time>2026-03-29T11:04:41.324Z</time></trkpt><trkpt lat="43.17024" lon="12.2277"><ele>272.0</ele><time>2026-03-29T11:04:43.322Z</time></trkpt><trkpt lat="43.1701367" lon="12.2276933"><ele>272.0</ele><time>2026-03-29T11:04:45.323Z</time></trkpt><trkpt lat="43.1700167" lon="12.2276883"><ele>272.0</ele><time>2026-03-29T11:04:47.326Z</time></trkpt><trkpt lat="43.1699433" lon="12.2276883"><ele>272.0</ele><time>2026-03-29T11:04:48.323Z</time></trkpt><trkpt lat="43.1698683" lon="12.2276883"><ele>272.0</ele><time>2026-03-29T11:04:49.322Z</time></trkpt><trkpt lat="43.1697933" lon="12.2276933"><ele>272.0</ele><time>2026-03-29T11:04:50.321Z</time></trkpt><trkpt lat="43.1697217" lon="12.2276917"><ele>272.0</ele><time>2026-03-29T11:04:51.324Z</time></trkpt><trkpt lat="43.1696517" lon="12.2276867"><ele>272.0</ele><time>2026-03-29T11:04:52.324Z</time></trkpt><trkpt lat="43.169585" lon="12.2276733"><ele>272.0</ele><time>2026-03-29T11:04:53.322Z</time></trkpt><trkpt lat="43.1695233" lon="12.22765"><ele>272.0</ele><time>2026-03-29T11:04:54.322Z</time></trkpt><trkpt lat="43.169455" lon="12.2276217"><ele>272.0</ele><time>2026-03-29T11:04:55.327Z</time></trkpt><trkpt lat="43.16939" lon="12.22759"><ele>272.0</ele><time>2026-03-29T11:04:56.321Z</time></trkpt><trkpt lat="43.16928" lon="12.22752"><ele>272.0</ele><time>2026-03-29T11:04:58.324Z</time></trkpt><trkpt lat="43.1691817" lon="12.22746"><ele>272.0</ele><time>2026-03-29T11:05:00.321Z</time></trkpt><trkpt lat="43.1690733" lon="12.227405"><ele>272.0</ele><time>2026-03-29T11:05:02.319Z</time></trkpt><trkpt lat="43.1689517" lon="12.2273517"><ele>272.0</ele><time>2026-03-29T11:05:04.32Z</time></trkpt><trkpt lat="43.1688733" lon="12.2273183"><ele>272.0</ele><time>2026-03-29T11:05:05.321Z</time></trkpt><trkpt lat="43.1688" lon="12.2272833"><ele>270.4</ele><time>2026-03-29T11:05:06.317Z</time></trkpt><trkpt lat="43.1687183" lon="12.227245"><ele>268.79999999999995</ele><time>2026-03-29T11:05:07.322Z</time></trkpt><trkpt lat="43.16863" lon="12.2272"><ele>267.2</ele><time>2026-03-29T11:05:08.321Z</time></trkpt><trkpt lat="43.1685433" lon="12.2271533"><ele>265.59999999999997</ele><time>2026-03-29T11:05:09.321Z</time></trkpt><trkpt lat="43.1684533" lon="12.2271067"><ele>264.0</ele><time>2026-03-29T11:05:10.323Z</time></trkpt><trkpt lat="43.1683567" lon="12.2270567"><ele>264.0</ele><time>2026-03-29T11:05:11.32Z</time></trkpt><trkpt lat="43.16825" lon="12.227005"><ele>264.0</ele><time>2026-03-29T11:05:12.323Z</time></trkpt><trkpt lat="43.1681433" lon="12.2269533"><ele>264.0</ele><time>2026-03-29T11:05:13.323Z</time></trkpt><trkpt lat="43.16804" lon="12.2269"><ele>264.0</ele><time>2026-03-29T11:05:14.323Z</time></trkpt><trkpt lat="43.16794" lon="12.226845"><ele>264.0</ele><time>2026-03-29T11:05:15.322Z</time></trkpt><trkpt lat="43.1678383" lon="12.2267883"><ele>264.2</ele><time>2026-03-29T11:05:16.32Z</time></trkpt><trkpt lat="43.16774" lon="12.2267333"><ele>264.4</ele><time>2026-03-29T11:05:17.321Z</time></trkpt><trkpt lat="43.1676533" lon="12.226685"><ele>264.6</ele><time>2026-03-29T11:05:18.322Z</time></trkpt><trkpt lat="43.1675883" lon="12.2266417"><ele>264.8</ele><time>2026-03-29T11:05:19.32Z</time></trkpt><trkpt lat="43.1674833" lon="12.2265633"><ele>265.0</ele><time>2026-03-29T11:05:21.324Z</time></trkpt><trkpt lat="43.16739" lon="12.2264567"><ele>264.57142857142856</ele><time>2026-03-29T11:05:23.32Z</time></trkpt><trkpt lat="43.16734" lon="12.22639"><ele>264.1428571428571</ele><time>2026-03-29T11:05:24.32Z</time></trkpt><trkpt lat="43.16728" lon="12.2263283"><ele>263.7142857142857</ele><time>2026-03-29T11:05:25.325Z</time></trkpt><trkpt lat="43.167215" lon="12.226265"><ele>263.2857142857143</ele><time>2026-03-29T11:05:26.32Z</time></trkpt><trkpt lat="43.167155" lon="12.2262067"><ele>262.8571428571429</ele><time>2026-03-29T11:05:27.321Z</time></trkpt><trkpt lat="43.1670967" lon="12.226155"><ele>262.42857142857144</ele><time>2026-03-29T11:05:28.32Z</time></trkpt><trkpt lat="43.1670433" lon="12.2261067"><ele>262.0</ele><time>2026-03-29T11:05:29.32Z</time></trkpt><trkpt lat="43.1669783" lon="12.2260433"><ele>262.0</ele><time>2026-03-29T11:05:31.321Z</time></trkpt><trkpt lat="43.1670317" lon="12.22616"><ele>262.0</ele><time>2026-03-29T11:05:40.322Z</time></trkpt><trkpt lat="43.1671" lon="12.2262117"><ele>262.0</ele><time>2026-03-29T11:05:41.322Z</time></trkpt><trkpt lat="43.1671883" lon="12.2262933"><ele>262.0</ele><time>2026-03-29T11:05:42.323Z</time></trkpt><trkpt lat="43.1672883" lon="12.226395"><ele>262.0</ele><time>2026-03-29T11:05:43.322Z</time></trkpt><trkpt lat="43.1673967" lon="12.2264983"><ele>262.75</ele><time>2026-03-29T11:05:44.32Z</time></trkpt><trkpt lat="43.1675117" lon="12.2266017"><ele>263.5</ele><time>2026-03-29T11:05:45.323Z</time></trkpt><trkpt lat="43.1676383" lon="12.2267017"><ele>264.25</ele><time>2026-03-29T11:05:46.321Z</time></trkpt><trkpt lat="43.1677783" lon="12.226795"><ele>265.0</ele><time>2026-03-29T11:05:47.324Z</time></trkpt><trkpt lat="43.167925" lon="12.2268767"><ele>265.0</ele><time>2026-03-29T11:05:48.321Z</time></trkpt><trkpt lat="43.168075" lon="12.226955"><ele>265.0</ele><time>2026-03-29T11:05:49.322Z</time></trkpt><trkpt lat="43.1682283" lon="12.2270333"><ele>265.0</ele><time>2026-03-29T11:05:50.321Z</time></trkpt><trkpt lat="43.16839" lon="12.22711"><ele>264.66666666666663</ele><time>2026-03-29T11:05:51.323Z</time></trkpt><trkpt lat="43.168545" lon="12.2271817"><ele>264.3333333333333</ele><time>2026-03-29T11:05:52.324Z</time></trkpt><trkpt lat="43.1686933" lon="12.2272583"><ele>264.0</ele><time>2026-03-29T11:05:53.32Z</time></trkpt><trkpt lat="43.1688433" lon="12.2273333"><ele>264.5</ele><time>2026-03-29T11:05:54.323Z</time></trkpt><trkpt lat="43.16899" lon="12.2274067"><ele>265.0</ele><time>2026-03-29T11:05:55.327Z</time></trkpt><trkpt lat="43.1691267" lon="12.2274767"><ele>265.5</ele><time>2026-03-29T11:05:56.322Z</time></trkpt><trkpt lat="43.1692533" lon="12.22754"><ele>266.0</ele><time>2026-03-29T11:05:57.321Z</time></trkpt><trkpt lat="43.16937" lon="12.2275967"><ele>267.5</ele><time>2026-03-29T11:05:58.322Z</time></trkpt><trkpt lat="43.1694817" lon="12.2276433"><ele>269.0</ele><time>2026-03-29T11:05:59.321Z</time></trkpt><trkpt lat="43.1695983" lon="12.2276767"><ele>270.5</ele><time>2026-03-29T11:06:00.326Z</time></trkpt><trkpt lat="43.1697117" lon="12.2276967"><ele>272.0</ele><time>2026-03-29T11:06:01.324Z</time></trkpt><trkpt lat="43.1698183" lon="12.22771"><ele>272.0</ele><time>2026-03-29T11:06:02.322Z</time></trkpt><trkpt lat="43.16992" lon="12.2277183"><ele>272.0</ele><time>2026-03-29T11:06:03.322Z</time></trkpt><trkpt lat="43.170015" lon="12.227725"><ele>272.0</ele><time>2026-03-29T11:06:04.321Z</time></trkpt><trkpt lat="43.1701033" lon="12.22773"><ele>272.0</ele><time>2026-03-29T11:06:05.32Z</time></trkpt><trkpt lat="43.1701783" lon="12.2277483"><ele>272.0</ele><time>2026-03-29T11:06:06.321Z</time></trkpt><trkpt lat="43.1702383" lon="12.227785"><ele>272.0</ele><time>2026-03-29T11:06:07.324Z</time></trkpt><trkpt lat="43.17029" lon="12.2278467"><ele>272.0</ele><time>2026-03-29T11:06:08.323Z</time></trkpt><trkpt lat="43.170325" lon="12.22792"><ele>272.0</ele><time>2026-03-29T11:06:09.323Z</time></trkpt><trkpt lat="43.1703567" lon="12.2280183"><ele>272.0</ele><time>2026-03-29T11:06:10.321Z</time></trkpt><trkpt lat="43.1703767" lon="12.228135"><ele>272.0</ele><time>2026-03-29T11:06:11.321Z</time></trkpt><trkpt lat="43.1703783" lon="12.2282883"><ele>272.0</ele><time>2026-03-29T11:06:12.322Z</time></trkpt><trkpt lat="43.1703683" lon="12.2284717"><ele>271.75</ele><time>2026-03-29T11:06:13.329Z</time></trkpt><trkpt lat="43.1703583" lon="12.2286567"><ele>271.5</ele><time>2026-03-29T11:06:14.323Z</time></trkpt><trkpt lat="43.1703483" lon="12.2288467"><ele>271.25</ele><time>2026-03-29T11:06:15.323Z</time></trkpt><trkpt lat="43.1703433" lon="12.2290233"><ele>271.0</ele><time>2026-03-29T11:06:16.322Z</time></trkpt><trkpt lat="43.1703467" lon="12.2291783"><ele>270.5</ele><time>2026-03-29T11:06:17.321Z</time></trkpt><trkpt lat="43.1703717" lon="12.22933"><ele>270.0</ele><time>2026-03-29T11:06:18.321Z</time></trkpt><trkpt lat="43.17042" lon="12.2294733"><ele>269.5</ele><time>2026-03-29T11:06:19.321Z</time></trkpt><trkpt lat="43.170485" lon="12.2296133"><ele>269.0</ele><time>2026-03-29T11:06:20.321Z</time></trkpt><trkpt lat="43.1705667" lon="12.22975"><ele>269.5</ele><time>2026-03-29T11:06:21.324Z</time></trkpt><trkpt lat="43.1706533" lon="12.2298833"><ele>270.0</ele><time>2026-03-29T11:06:22.321Z</time></trkpt><trkpt lat="43.1707433" lon="12.23002"><ele>270.5</ele><time>2026-03-29T11:06:23.323Z</time></trkpt><trkpt lat="43.1708317" lon="12.230155"><ele>271.0</ele><time>2026-03-29T11:06:24.322Z</time></trkpt><trkpt lat="43.170915" lon="12.230275"><ele>271.8</ele><time>2026-03-29T11:06:25.322Z</time></trkpt><trkpt lat="43.170985" lon="12.23038"><ele>272.6</ele><time>2026-03-29T11:06:26.321Z</time></trkpt><trkpt lat="43.1710567" lon="12.23048"><ele>273.4</ele><time>2026-03-29T11:06:27.324Z</time></trkpt><trkpt lat="43.17113" lon="12.23059"><ele>274.2</ele><time>2026-03-29T11:06:28.321Z</time></trkpt><trkpt lat="43.1712" lon="12.23071"><ele>275.0</ele><time>2026-03-29T11:06:29.324Z</time></trkpt><trkpt lat="43.1712633" lon="12.230835"><ele>275.0</ele><time>2026-03-29T11:06:30.323Z</time></trkpt><trkpt lat="43.1713283" lon="12.2309617"><ele>275.0</ele><time>2026-03-29T11:06:31.323Z</time></trkpt><trkpt lat="43.17139" lon="12.2310883"><ele>275.0</ele><time>2026-03-29T11:06:32.321Z</time></trkpt><trkpt lat="43.17145" lon="12.231215"><ele>275.0</ele><time>2026-03-29T11:06:33.323Z</time></trkpt><trkpt lat="43.1715183" lon="12.23135"><ele>276.5</ele><time>2026-03-29T11:06:34.32Z</time></trkpt><trkpt lat="43.171585" lon="12.231485"><ele>278.0</ele><time>2026-03-29T11:06:35.321Z</time></trkpt><trkpt lat="43.17165" lon="12.2316233"><ele>279.5</ele><time>2026-03-29T11:06:36.323Z</time></trkpt><trkpt lat="43.1717167" lon="12.231755"><ele>281.0</ele><time>2026-03-29T11:06:37.324Z</time></trkpt><trkpt lat="43.1717883" lon="12.2318833"><ele>281.0</ele><time>2026-03-29T11:06:38.325Z</time></trkpt><trkpt lat="43.1718583" lon="12.2320117"><ele>281.0</ele><time>2026-03-29T11:06:39.324Z</time></trkpt><trkpt lat="43.1719283" lon="12.232135"><ele>281.0</ele><time>2026-03-29T11:06:40.321Z</time></trkpt><trkpt lat="43.1719967" lon="12.232255"><ele>281.0</ele><time>2026-03-29T11:06:41.322Z</time></trkpt><trkpt lat="43.1720633" lon="12.232375"><ele>281.5</ele><time>2026-03-29T11:06:42.323Z</time></trkpt><trkpt lat="43.1721317" lon="12.232495"><ele>282.0</ele><time>2026-03-29T11:06:43.322Z</time></trkpt><trkpt lat="43.1722133" lon="12.2326167"><ele>282.5</ele><time>2026-03-29T11:06:44.321Z</time></trkpt><trkpt lat="43.1723" lon="12.2327367"><ele>283.0</ele><time>2026-03-29T11:06:45.323Z</time></trkpt><trkpt lat="43.1724" lon="12.23286"><ele>283.0</ele><time>2026-03-29T11:06:46.321Z</time></trkpt><trkpt lat="43.1725017" lon="12.232975"><ele>283.0</ele><time>2026-03-29T11:06:47.326Z</time></trkpt><trkpt lat="43.1726" lon="12.2330817"><ele>283.0</ele><time>2026-03-29T11:06:48.324Z</time></trkpt><trkpt lat="43.1726983" lon="12.2331883"><ele>283.0</ele><time>2026-03-29T11:06:49.323Z</time></trkpt><trkpt lat="43.1727933" lon="12.2332917"><ele>281.4</ele><time>2026-03-29T11:06:50.321Z</time></trkpt><trkpt lat="43.17288" lon="12.233395"><ele>279.8</ele><time>2026-03-29T11:06:51.323Z</time></trkpt><trkpt lat="43.172955" lon="12.2335017"><ele>278.2</ele><time>2026-03-29T11:06:52.322Z</time></trkpt><trkpt lat="43.1730167" lon="12.233615"><ele>276.6</ele><time>2026-03-29T11:06:53.32Z</time></trkpt><trkpt lat="43.1730683" lon="12.2337333"><ele>275.0</ele><time>2026-03-29T11:06:54.321Z</time></trkpt><trkpt lat="43.1731183" lon="12.23385"><ele>275.0</ele><time>2026-03-29T11:06:55.32Z</time></trkpt><trkpt lat="43.17316" lon="12.2339567"><ele>275.0</ele><time>2026-03-29T11:06:56.324Z</time></trkpt><trkpt lat="43.1732017" lon="12.2340683"><ele>275.0</ele><time>2026-03-29T11:06:57.322Z</time></trkpt><trkpt lat="43.17325" lon="12.234185"><ele>275.0</ele><time>2026-03-29T11:06:58.321Z</time></trkpt><trkpt lat="43.173305" lon="12.2343067"><ele>275.0</ele><time>2026-03-29T11:06:59.32Z</time></trkpt><trkpt lat="43.1733683" lon="12.2344317"><ele>275.5</ele><time>2026-03-29T11:07:00.322Z</time></trkpt><trkpt lat="43.1734333" lon="12.234555"><ele>276.0</ele><time>2026-03-29T11:07:01.322Z</time></trkpt><trkpt lat="43.1735017" lon="12.23468"><ele>276.5</ele><time>2026-03-29T11:07:02.323Z</time></trkpt><trkpt lat="43.1735717" lon="12.2348033"><ele>277.0</ele><time>2026-03-29T11:07:03.323Z</time></trkpt><trkpt lat="43.1736417" lon="12.2349283"><ele>277.0</ele><time>2026-03-29T11:07:04.321Z</time></trkpt><trkpt lat="43.17371" lon="12.2350517"><ele>277.0</ele><time>2026-03-29T11:07:05.321Z</time></trkpt><trkpt lat="43.17378" lon="12.235175"><ele>277.0</ele><time>2026-03-29T11:07:06.322Z</time></trkpt><trkpt lat="43.1738517" lon="12.2352967"><ele>277.0</ele><time>2026-03-29T11:07:07.322Z</time></trkpt><trkpt lat="43.17392" lon="12.2354117"><ele>277.0</ele><time>2026-03-29T11:07:08.322Z</time></trkpt><trkpt lat="43.173985" lon="12.235525"><ele>278.3333333333333</ele><time>2026-03-29T11:07:09.321Z</time></trkpt><trkpt lat="43.17405" lon="12.2356367"><ele>279.66666666666663</ele><time>2026-03-29T11:07:10.321Z</time></trkpt><trkpt lat="43.17411" lon="12.2357433"><ele>281.0</ele><time>2026-03-29T11:07:11.324Z</time></trkpt><trkpt lat="43.1741617" lon="12.2358383"><ele>282.3333333333333</ele><time>2026-03-29T11:07:12.323Z</time></trkpt><trkpt lat="43.1742117" lon="12.2359267"><ele>283.6666666666667</ele><time>2026-03-29T11:07:13.321Z</time></trkpt><trkpt lat="43.17426" lon="12.23601"><ele>285.0</ele><time>2026-03-29T11:07:14.322Z</time></trkpt><trkpt lat="43.174305" lon="12.2360867"><ele>285.0</ele><time>2026-03-29T11:07:15.324Z</time></trkpt><trkpt lat="43.1743467" lon="12.2361533"><ele>285.0</ele><time>2026-03-29T11:07:16.32Z</time></trkpt><trkpt lat="43.1744117" lon="12.2362517"><ele>285.0</ele><time>2026-03-29T11:07:18.324Z</time></trkpt><trkpt lat="43.1744139" lon="12.2364054"><ele>285.0</ele><time>2026-03-29T11:07:49.39Z</time></trkpt><trkpt lat="43.1743465" lon="12.2364804"><ele>285.0</ele><time>2026-03-29T11:07:50.416Z</time></trkpt><trkpt lat="43.1742508" lon="12.236589"><ele>284.3333333333333</ele><time>2026-03-29T11:07:52.323Z</time></trkpt><trkpt lat="43.1741917" lon="12.2366467"><ele>283.6666666666667</ele><time>2026-03-29T11:07:53.324Z</time></trkpt><trkpt lat="43.1741212" lon="12.2367036"><ele>283.0</ele><time>2026-03-29T11:07:54.323Z</time></trkpt><trkpt lat="43.1740496" lon="12.2367718"><ele>282.33333333333337</ele><time>2026-03-29T11:07:55.323Z</time></trkpt><trkpt lat="43.1739718" lon="12.2368455"><ele>281.6666666666667</ele><time>2026-03-29T11:07:56.324Z</time></trkpt><trkpt lat="43.173894" lon="12.2369174"><ele>281.0</ele><time>2026-03-29T11:07:57.321Z</time></trkpt><trkpt lat="43.173818" lon="12.2369881"><ele>280.40000000000003</ele><time>2026-03-29T11:07:58.32Z</time></trkpt><trkpt lat="43.1737438" lon="12.2370556"><ele>279.8</ele><time>2026-03-29T11:07:59.323Z</time></trkpt><trkpt lat="43.1736719" lon="12.2371138"><ele>279.20000000000005</ele><time>2026-03-29T11:08:00.327Z</time></trkpt><trkpt lat="43.1736069" lon="12.237166"><ele>278.6</ele><time>2026-03-29T11:08:01.327Z</time></trkpt><trkpt lat="43.1735302" lon="12.2372527"><ele>278.0</ele><time>2026-03-29T11:08:03.323Z</time></trkpt><trkpt lat="43.1735277" lon="12.2373947"><ele>277.8</ele><time>2026-03-29T11:08:06.321Z</time></trkpt><trkpt lat="43.173569" lon="12.2375261"><ele>277.6</ele><time>2026-03-29T11:08:08.323Z</time></trkpt><trkpt lat="43.1735784" lon="12.23763"><ele>277.4</ele><time>2026-03-29T11:08:10.32Z</time></trkpt><trkpt lat="43.1734816" lon="12.2377555"><ele>277.2</ele><time>2026-03-29T11:08:12.322Z</time></trkpt><trkpt lat="43.1733969" lon="12.237803"><ele>277.0</ele><time>2026-03-29T11:08:13.32Z</time></trkpt><trkpt lat="43.1733036" lon="12.2378413"><ele>277.0</ele><time>2026-03-29T11:08:14.323Z</time></trkpt><trkpt lat="43.1732101" lon="12.2378776"><ele>277.0</ele><time>2026-03-29T11:08:15.321Z</time></trkpt><trkpt lat="43.1731217" lon="12.2379153"><ele>277.0</ele><time>2026-03-29T11:08:16.323Z</time></trkpt><trkpt lat="43.1730387" lon="12.2379547"><ele>277.0</ele><time>2026-03-29T11:08:17.324Z</time></trkpt><trkpt lat="43.1729612" lon="12.2380048"><ele>277.0</ele><time>2026-03-29T11:08:18.323Z</time></trkpt><trkpt lat="43.1728876" lon="12.2380709"><ele>277.6</ele><time>2026-03-29T11:08:19.326Z</time></trkpt><trkpt lat="43.172819" lon="12.2381654"><ele>278.2</ele><time>2026-03-29T11:08:20.322Z</time></trkpt><trkpt lat="43.1727527" lon="12.2382722"><ele>278.8</ele><time>2026-03-29T11:08:21.323Z</time></trkpt><trkpt lat="43.172688" lon="12.2383769"><ele>279.4</ele><time>2026-03-29T11:08:22.322Z</time></trkpt><trkpt lat="43.1726233" lon="12.2384715"><ele>280.0</ele><time>2026-03-29T11:08:23.32Z</time></trkpt><trkpt lat="43.1725583" lon="12.2385524"><ele>280.0</ele><time>2026-03-29T11:08:24.323Z</time></trkpt><trkpt lat="43.1724963" lon="12.2386216"><ele>280.0</ele><time>2026-03-29T11:08:25.319Z</time></trkpt><trkpt lat="43.1724404" lon="12.2386833"><ele>280.0</ele><time>2026-03-29T11:08:26.319Z</time></trkpt><trkpt lat="43.1723679" lon="12.2387925"><ele>280.0</ele><time>2026-03-29T11:08:28.32Z</time></trkpt><trkpt lat="43.1723218" lon="12.2389428"><ele>280.0</ele><time>2026-03-29T11:08:30.32Z</time></trkpt><trkpt lat="43.1722923" lon="12.2390408"><ele>281.66666666666663</ele><time>2026-03-29T11:08:31.322Z</time></trkpt><trkpt lat="43.1722551" lon="12.2391399"><ele>283.3333333333333</ele><time>2026-03-29T11:08:32.321Z</time></trkpt><trkpt lat="43.1722139" lon="12.2392285"><ele>285.0</ele><time>2026-03-29T11:08:33.321Z</time></trkpt><trkpt lat="43.1721731" lon="12.2393061"><ele>286.6666666666667</ele><time>2026-03-29T11:08:34.32Z</time></trkpt><trkpt lat="43.1721326" lon="12.2393786"><ele>288.33333333333337</ele><time>2026-03-29T11:08:35.319Z</time></trkpt><trkpt lat="43.1720539" lon="12.2395122"><ele>290.0</ele><time>2026-03-29T11:08:37.32Z</time></trkpt><trkpt lat="43.1719947" lon="12.2396468"><ele>290.0</ele><time>2026-03-29T11:08:39.321Z</time></trkpt><trkpt lat="43.1719287" lon="12.2397699"><ele>290.0</ele><time>2026-03-29T11:08:41.321Z</time></trkpt><trkpt lat="43.1718285" lon="12.2398951"><ele>290.0</ele><time>2026-03-29T11:08:43.321Z</time></trkpt><trkpt lat="43.1717662" lon="12.2399569"><ele>290.0</ele><time>2026-03-29T11:08:44.321Z</time></trkpt><trkpt lat="43.1717006" lon="12.2400181"><ele>290.0</ele><time>2026-03-29T11:08:45.324Z</time></trkpt><trkpt lat="43.1716396" lon="12.2400748"><ele>290.8</ele><time>2026-03-29T11:08:46.321Z</time></trkpt><trkpt lat="43.1715855" lon="12.2401282"><ele>291.6</ele><time>2026-03-29T11:08:47.32Z</time></trkpt><trkpt lat="43.1715122" lon="12.2402564"><ele>292.4</ele><time>2026-03-29T11:08:49.325Z</time></trkpt><trkpt lat="43.1714872" lon="12.2403911"><ele>293.2</ele><time>2026-03-29T11:08:51.321Z</time></trkpt><trkpt lat="43.1715227" lon="12.2404826"><ele>294.0</ele><time>2026-03-29T11:08:52.322Z</time></trkpt><trkpt lat="43.1715738" lon="12.2405838"><ele>296.4</ele><time>2026-03-29T11:08:53.32Z</time></trkpt><trkpt lat="43.1716332" lon="12.2406808"><ele>298.79999999999995</ele><time>2026-03-29T11:08:54.321Z</time></trkpt><trkpt lat="43.1716944" lon="12.2407764"><ele>301.20000000000005</ele><time>2026-03-29T11:08:55.321Z</time></trkpt><trkpt lat="43.1717642" lon="12.2408835"><ele>303.6</ele><time>2026-03-29T11:08:56.321Z</time></trkpt><trkpt lat="43.1718338" lon="12.2409884"><ele>306.0</ele><time>2026-03-29T11:08:57.32Z</time></trkpt><trkpt lat="43.1718964" lon="12.2410898"><ele>306.0</ele><time>2026-03-29T11:08:58.322Z</time></trkpt><trkpt lat="43.1719544" lon="12.2411804"><ele>306.0</ele><time>2026-03-29T11:08:59.32Z</time></trkpt><trkpt lat="43.1720093" lon="12.2412671"><ele>306.0</ele><time>2026-03-29T11:09:00.321Z</time></trkpt><trkpt lat="43.172058" lon="12.2413569"><ele>306.0</ele><time>2026-03-29T11:09:01.32Z</time></trkpt><trkpt lat="43.1721004" lon="12.2414401"><ele>306.0</ele><time>2026-03-29T11:09:02.323Z</time></trkpt><trkpt lat="43.1721476" lon="12.2415859"><ele>306.0</ele><time>2026-03-29T11:09:04.32Z</time></trkpt><trkpt lat="43.1721556" lon="12.2416769"><ele>308.6</ele><time>2026-03-29T11:09:05.321Z</time></trkpt><trkpt lat="43.1721402" lon="12.2417882"><ele>311.20000000000005</ele><time>2026-03-29T11:09:06.322Z</time></trkpt><trkpt lat="43.1721127" lon="12.2419101"><ele>313.79999999999995</ele><time>2026-03-29T11:09:07.319Z</time></trkpt><trkpt lat="43.1720866" lon="12.2420451"><ele>316.4</ele><time>2026-03-29T11:09:08.323Z</time></trkpt><trkpt lat="43.172069" lon="12.2421734"><ele>319.0</ele><time>2026-03-29T11:09:09.32Z</time></trkpt><trkpt lat="43.1720563" lon="12.2422827"><ele>321.5</ele><time>2026-03-29T11:09:10.324Z</time></trkpt><trkpt lat="43.1720373" lon="12.2423851"><ele>324.0</ele><time>2026-03-29T11:09:11.322Z</time></trkpt><trkpt lat="43.1720121" lon="12.2424765"><ele>326.5</ele><time>2026-03-29T11:09:12.322Z</time></trkpt><trkpt lat="43.1719929" lon="12.2425599"><ele>329.0</ele><time>2026-03-29T11:09:13.323Z</time></trkpt><trkpt lat="43.1719699" lon="12.2426409"><ele>331.5</ele><time>2026-03-29T11:09:14.322Z</time></trkpt><trkpt lat="43.1719087" lon="12.242744"><ele>334.0</ele><time>2026-03-29T11:09:16.32Z</time></trkpt><trkpt lat="43.1718461" lon="12.2428397"><ele>334.0</ele><time>2026-03-29T11:09:18.322Z</time></trkpt><trkpt lat="43.1717915" lon="12.2429442"><ele>334.0</ele><time>2026-03-29T11:09:20.323Z</time></trkpt><trkpt lat="43.1718041" lon="12.2431003"><ele>334.0</ele><time>2026-03-29T11:09:22.32Z</time></trkpt><trkpt lat="43.1718255" lon="12.24319"><ele>334.0</ele><time>2026-03-29T11:09:23.321Z</time></trkpt><trkpt lat="43.1718469" lon="12.2432826"><ele>334.0</ele><time>2026-03-29T11:09:24.321Z</time></trkpt><trkpt lat="43.1718665" lon="12.2433862"><ele>334.0</ele><time>2026-03-29T11:09:25.321Z</time></trkpt><trkpt lat="43.171884" lon="12.2434895"><ele>336.16666666666663</ele><time>2026-03-29T11:09:26.324Z</time></trkpt><trkpt lat="43.1719037" lon="12.2435958"><ele>338.3333333333333</ele><time>2026-03-29T11:09:27.323Z</time></trkpt><trkpt lat="43.1719324" lon="12.243696"><ele>340.5</ele><time>2026-03-29T11:09:28.322Z</time></trkpt><trkpt lat="43.1719738" lon="12.243775"><ele>342.6666666666667</ele><time>2026-03-29T11:09:29.321Z</time></trkpt><trkpt lat="43.1720245" lon="12.243828"><ele>344.83333333333337</ele><time>2026-03-29T11:09:30.323Z</time></trkpt><trkpt lat="43.1721126" lon="12.2438989"><ele>347.0</ele><time>2026-03-29T11:09:32.325Z</time></trkpt><trkpt lat="43.1721744" lon="12.2439557"><ele>349.40000000000003</ele><time>2026-03-29T11:09:35.322Z</time></trkpt><trkpt lat="43.1722417" lon="12.2440183"><ele>351.8</ele><time>2026-03-29T11:09:40.321Z</time></trkpt><trkpt lat="43.1722533" lon="12.244145"><ele>354.2</ele><time>2026-03-29T11:09:43.321Z</time></trkpt><trkpt lat="43.1722" lon="12.244255"><ele>356.6</ele><time>2026-03-29T11:09:46.324Z</time></trkpt><trkpt lat="43.172165" lon="12.24438"><ele>359.0</ele><time>2026-03-29T11:09:48.321Z</time></trkpt><trkpt lat="43.172135" lon="12.244505"><ele>359.0</ele><time>2026-03-29T11:09:50.322Z</time></trkpt><trkpt lat="43.1721167" lon="12.2446667"><ele>359.0</ele><time>2026-03-29T11:09:52.322Z</time></trkpt><trkpt lat="43.172105" lon="12.244755"><ele>359.0</ele><time>2026-03-29T11:09:53.32Z</time></trkpt><trkpt lat="43.17209" lon="12.2448967"><ele>359.0</ele><time>2026-03-29T11:09:55.324Z</time></trkpt><trkpt lat="43.1720883" lon="12.245015"><ele>359.0</ele><time>2026-03-29T11:09:57.323Z</time></trkpt><trkpt lat="43.1721533" lon="12.2450917"><ele>362.2</ele><time>2026-03-29T11:10:10.321Z</time></trkpt><trkpt lat="43.1722417" lon="12.2452017"><ele>365.4</ele><time>2026-03-29T11:10:12.321Z</time></trkpt><trkpt lat="43.17228" lon="12.245345"><ele>368.6</ele><time>2026-03-29T11:10:14.324Z</time></trkpt><trkpt lat="43.17224" lon="12.2454983"><ele>371.8</ele><time>2026-03-29T11:10:16.322Z</time></trkpt><trkpt lat="43.1722117" lon="12.2455883"><ele>375.0</ele><time>2026-03-29T11:10:17.322Z</time></trkpt><trkpt lat="43.1721967" lon="12.2456867"><ele>375.5</ele><time>2026-03-29T11:10:18.321Z</time></trkpt><trkpt lat="43.1721933" lon="12.24579"><ele>376.0</ele><time>2026-03-29T11:10:19.324Z</time></trkpt><trkpt lat="43.1721933" lon="12.2458817"><ele>376.5</ele><time>2026-03-29T11:10:20.321Z</time></trkpt><trkpt lat="43.172195" lon="12.2460267"><ele>377.0</ele><time>2026-03-29T11:10:22.321Z</time></trkpt><trkpt lat="43.172215" lon="12.2461333"><ele>377.5</ele><time>2026-03-29T11:10:24.323Z</time></trkpt><trkpt lat="43.1723067" lon="12.2462367"><ele>378.0</ele><time>2026-03-29T11:10:26.322Z</time></trkpt><trkpt lat="43.1723617" lon="12.2463117"><ele>378.0</ele><time>2026-03-29T11:10:27.321Z</time></trkpt><trkpt lat="43.1724533" lon="12.2464133"><ele>378.0</ele><time>2026-03-29T11:10:29.322Z</time></trkpt><trkpt lat="43.172515" lon="12.2464633"><ele>378.0</ele><time>2026-03-29T11:10:30.324Z</time></trkpt><trkpt lat="43.1725933" lon="12.2465133"><ele>378.0</ele><time>2026-03-29T11:10:31.322Z</time></trkpt><trkpt lat="43.1726883" lon="12.2466167"><ele>378.0</ele><time>2026-03-29T11:10:33.321Z</time></trkpt><trkpt lat="43.1727333" lon="12.2466817"><ele>380.1666666666667</ele><time>2026-03-29T11:10:34.325Z</time></trkpt><trkpt lat="43.17278" lon="12.2467533"><ele>382.33333333333337</ele><time>2026-03-29T11:10:35.32Z</time></trkpt><trkpt lat="43.1728283" lon="12.24685"><ele>384.5</ele><time>2026-03-29T11:10:36.322Z</time></trkpt><trkpt lat="43.1728733" lon="12.246955"><ele>386.6666666666667</ele><time>2026-03-29T11:10:37.321Z</time></trkpt><trkpt lat="43.1729067" lon="12.2471167"><ele>388.83333333333337</ele><time>2026-03-29T11:10:38.323Z</time></trkpt><trkpt lat="43.1729" lon="12.2472083"><ele>391.0</ele><time>2026-03-29T11:10:39.32Z</time></trkpt><trkpt lat="43.172825" lon="12.2471767"><ele>390.99999999999994</ele><time>2026-03-29T11:10:50.324Z</time></trkpt><trkpt lat="43.1727783" lon="12.2471117"><ele>391.0</ele><time>2026-03-29T11:10:52.324Z</time></trkpt><trkpt lat="43.1727117" lon="12.24708"><ele>391.0</ele><time>2026-03-29T11:10:53.323Z</time></trkpt><trkpt lat="43.1726483" lon="12.247055"><ele>391.0</ele><time>2026-03-29T11:10:54.322Z</time></trkpt><trkpt lat="43.172585" lon="12.2470217"><ele>391.0</ele><time>2026-03-29T11:10:55.324Z</time></trkpt><trkpt lat="43.1725033" lon="12.246995"><ele>390.99999999999994</ele><time>2026-03-29T11:10:56.326Z</time></trkpt><trkpt lat="43.17243" lon="12.2469783"><ele>391.0</ele><time>2026-03-29T11:10:57.323Z</time></trkpt><trkpt lat="43.1723633" lon="12.2469667"><ele>394.25</ele><time>2026-03-29T11:10:58.323Z</time></trkpt><trkpt lat="43.1722317" lon="12.246985"><ele>397.5</ele><time>2026-03-29T11:11:00.322Z</time></trkpt><trkpt lat="43.1721183" lon="12.24702"><ele>400.75</ele><time>2026-03-29T11:11:02.321Z</time></trkpt><trkpt lat="43.1720417" lon="12.2471183"><ele>404.0</ele><time>2026-03-29T11:11:04.323Z</time></trkpt><trkpt lat="43.17199" lon="12.2472583"><ele>405.6</ele><time>2026-03-29T11:11:06.321Z</time></trkpt><trkpt lat="43.1719733" lon="12.247395"><ele>407.2</ele><time>2026-03-29T11:11:07.325Z</time></trkpt><trkpt lat="43.171965" lon="12.2475133"><ele>408.8</ele><time>2026-03-29T11:11:08.325Z</time></trkpt><trkpt lat="43.171965" lon="12.2476167"><ele>410.40000000000003</ele><time>2026-03-29T11:11:09.322Z</time></trkpt><trkpt lat="43.1719817" lon="12.2477417"><ele>412.0</ele><time>2026-03-29T11:11:11.324Z</time></trkpt><trkpt lat="43.1721033" lon="12.2477883"><ele>412.0</ele><time>2026-03-29T11:12:01.323Z</time></trkpt><trkpt lat="43.1721583" lon="12.2476267"><ele>412.0</ele><time>2026-03-29T11:16:18.319Z</time></trkpt><trkpt lat="43.172125" lon="12.2477283"><ele>412.0</ele><time>2026-03-29T11:16:20.319Z</time></trkpt><trkpt lat="43.17207" lon="12.24787"><ele>412.0</ele><time>2026-03-29T11:16:24.319Z</time></trkpt><trkpt lat="43.1719783" lon="12.2478717"><ele>412.0</ele><time>2026-03-29T11:16:31.319Z</time></trkpt><trkpt lat="43.172085" lon="12.2478033"><ele>411.99999999999994</ele><time>2026-03-29T11:17:12.324Z</time></trkpt><trkpt lat="43.172065" lon="12.2478983"><ele>412.0</ele><time>2026-03-29T11:19:23.322Z</time></trkpt><trkpt lat="43.17204" lon="12.2479783"><ele>412.0</ele><time>2026-03-29T11:19:33.328Z</time></trkpt><trkpt lat="43.1720167" lon="12.2480667"><ele>412.0</ele><time>2026-03-29T11:19:46.323Z</time></trkpt><trkpt lat="43.1719617" lon="12.2481667"><ele>412.0</ele><time>2026-03-29T11:19:48.32Z</time></trkpt><trkpt lat="43.1719233" lon="12.2482417"><ele>411.99999999999994</ele><time>2026-03-29T11:19:49.325Z</time></trkpt><trkpt lat="43.1718733" lon="12.2483283"><ele>412.0</ele><time>2026-03-29T11:19:50.32Z</time></trkpt><trkpt lat="43.171825" lon="12.2484133"><ele>411.83333333333337</ele><time>2026-03-29T11:19:51.325Z</time></trkpt><trkpt lat="43.171785" lon="12.2485"><ele>411.6666666666667</ele><time>2026-03-29T11:19:52.321Z</time></trkpt><trkpt lat="43.1717583" lon="12.2485783"><ele>411.5</ele><time>2026-03-29T11:19:53.324Z</time></trkpt><trkpt lat="43.17174" lon="12.248705"><ele>411.33333333333337</ele><time>2026-03-29T11:19:55.321Z</time></trkpt><trkpt lat="43.171725" lon="12.2488083"><ele>411.1666666666667</ele><time>2026-03-29T11:19:57.322Z</time></trkpt><trkpt lat="43.1717483" lon="12.24889"><ele>411.0</ele><time>2026-03-29T11:19:58.322Z</time></trkpt><trkpt lat="43.1718233" lon="12.2490083"><ele>413.0</ele><time>2026-03-29T11:20:00.325Z</time></trkpt><trkpt lat="43.171895" lon="12.2490333"><ele>415.0</ele><time>2026-03-29T11:20:01.327Z</time></trkpt><trkpt lat="43.1720083" lon="12.2491067"><ele>417.0</ele><time>2026-03-29T11:20:03.324Z</time></trkpt><trkpt lat="43.17209" lon="12.249195"><ele>419.0</ele><time>2026-03-29T11:20:05.321Z</time></trkpt><trkpt lat="43.17216" lon="12.2493167"><ele>421.0</ele><time>2026-03-29T11:20:07.319Z</time></trkpt><trkpt lat="43.172195" lon="12.249395"><ele>421.00000000000006</ele><time>2026-03-29T11:20:08.322Z</time></trkpt><trkpt lat="43.1722267" lon="12.2494883"><ele>421.0</ele><time>2026-03-29T11:20:09.322Z</time></trkpt><trkpt lat="43.1722567" lon="12.2495733"><ele>421.0</ele><time>2026-03-29T11:20:10.323Z</time></trkpt><trkpt lat="43.1722917" lon="12.24965"><ele>421.0</ele><time>2026-03-29T11:20:11.32Z</time></trkpt><trkpt lat="43.172325" lon="12.2497433"><ele>421.00000000000006</ele><time>2026-03-29T11:20:12.321Z</time></trkpt><trkpt lat="43.17235" lon="12.2498267"><ele>421.0</ele><time>2026-03-29T11:20:13.319Z</time></trkpt><trkpt lat="43.172365" lon="12.2499733"><ele>423.4</ele><time>2026-03-29T11:20:15.323Z</time></trkpt><trkpt lat="43.1723467" lon="12.2501183"><ele>425.8</ele><time>2026-03-29T11:20:17.322Z</time></trkpt><trkpt lat="43.17229" lon="12.2502583"><ele>428.19999999999993</ele><time>2026-03-29T11:20:19.325Z</time></trkpt><trkpt lat="43.17225" lon="12.250325"><ele>430.59999999999997</ele><time>2026-03-29T11:20:20.321Z</time></trkpt><trkpt lat="43.17216" lon="12.2504217"><ele>433.0</ele><time>2026-03-29T11:20:22.325Z</time></trkpt><trkpt lat="43.1720517" lon="12.2504767"><ele>433.0</ele><time>2026-03-29T11:20:24.322Z</time></trkpt><trkpt lat="43.171975" lon="12.25049"><ele>432.99999999999994</ele><time>2026-03-29T11:20:25.323Z</time></trkpt><trkpt lat="43.1718917" lon="12.2505033"><ele>432.99999999999994</ele><time>2026-03-29T11:20:26.326Z</time></trkpt><trkpt lat="43.1718083" lon="12.2505267"><ele>433.0</ele><time>2026-03-29T11:20:27.324Z</time></trkpt><trkpt lat="43.1717433" lon="12.2505517"><ele>433.0</ele><time>2026-03-29T11:20:28.322Z</time></trkpt><trkpt lat="43.1717583" lon="12.2485783"><ele>431.00000000000006</ele><time>2026-03-29T11:19:53.324Z</time></trkpt><trkpt lat="43.17174" lon="12.248705"><ele>429.0</ele><time>2026-03-29T11:19:55.321Z</time></trkpt><trkpt lat="43.171725" lon="12.2488083"><ele>427.0</ele><time>2026-03-29T11:19:57.322Z</time></trkpt><trkpt lat="43.1717483" lon="12.24889"><ele>425.0</ele><time>2026-03-29T11:19:58.322Z</time></trkpt><trkpt lat="43.1718233" lon="12.2490083"><ele>423.00000000000006</ele><time>2026-03-29T11:20:00.325Z</time></trkpt><trkpt lat="43.171895" lon="12.2490333"><ele>421.0</ele><time>2026-03-29T11:20:01.327Z</time></trkpt><trkpt lat="43.1720083" lon="12.2491067"><ele>421.00000000000006</ele><time>2026-03-29T11:20:03.324Z</time></trkpt><trkpt lat="43.17209" lon="12.249195"><ele>421.0</ele><time>2026-03-29T11:20:05.321Z</time></trkpt><trkpt lat="43.17216" lon="12.2493167"><ele>421.0</ele><time>2026-03-29T11:20:07.319Z</time></trkpt><trkpt lat="43.172195" lon="12.249395"><ele>421.0</ele><time>2026-03-29T11:20:08.322Z</time></trkpt><trkpt lat="43.1722267" lon="12.2494883"><ele>421.00000000000006</ele><time>2026-03-29T11:20:09.322Z</time></trkpt><trkpt lat="43.1722567" lon="12.2495733"><ele>421.0</ele><time>2026-03-29T11:20:10.323Z</time></trkpt><trkpt lat="43.1722917" lon="12.24965"><ele>421.0</ele><time>2026-03-29T11:20:11.32Z</time></trkpt><trkpt lat="43.172325" lon="12.2497433"><ele>421.0</ele><time>2026-03-29T11:20:12.321Z</time></trkpt><trkpt lat="43.17235" lon="12.2498267"><ele>421.0</ele><time>2026-03-29T11:20:13.319Z</time></trkpt><trkpt lat="43.172365" lon="12.2499733"><ele>421.0</ele><time>2026-03-29T11:20:15.323Z</time></trkpt><trkpt lat="43.1723467" lon="12.2501183"><ele>421.0</ele><time>2026-03-29T11:20:17.322Z</time></trkpt><trkpt lat="43.17229" lon="12.2502583"><ele>423.4</ele><time>2026-03-29T11:20:19.325Z</time></trkpt><trkpt lat="43.17225" lon="12.250325"><ele>425.8</ele><time>2026-03-29T11:20:20.321Z</time></trkpt><trkpt lat="43.17216" lon="12.2504217"><ele>428.19999999999993</ele><time>2026-03-29T11:20:22.325Z</time></trkpt><trkpt lat="43.1720517" lon="12.2504767"><ele>430.59999999999997</ele><time>2026-03-29T11:20:24.322Z</time></trkpt><trkpt lat="43.171975" lon="12.25049"><ele>433.0</ele><time>2026-03-29T11:20:25.323Z</time></trkpt><trkpt lat="43.1718917" lon="12.2505033"><ele>433.00000000000006</ele><time>2026-03-29T11:20:26.326Z</time></trkpt><trkpt lat="43.1718083" lon="12.2505267"><ele>433.0</ele><time>2026-03-29T11:20:27.324Z</time></trkpt><trkpt lat="43.1717433" lon="12.2505517"><ele>433.0</ele><time>2026-03-29T11:20:28.322Z</time></trkpt><trkpt lat="43.17168" lon="12.250585"><ele>433.0</ele><time>2026-03-29T11:20:29.321Z</time></trkpt><trkpt lat="43.1715933" lon="12.2506967"><ele>433.00000000000006</ele><time>2026-03-29T11:20:31.321Z</time></trkpt><trkpt lat="43.1715617" lon="12.2507833"><ele>433.0</ele><time>2026-03-29T11:20:32.322Z</time></trkpt><trkpt lat="43.17154" lon="12.2508833"><ele>431.59999999999997</ele><time>2026-03-29T11:20:33.323Z</time></trkpt><trkpt lat="43.1715383" lon="12.2510233"><ele>430.19999999999993</ele><time>2026-03-29T11:20:34.32Z</time></trkpt><trkpt lat="43.171545" lon="12.25115"><ele>428.8</ele><time>2026-03-29T11:20:35.321Z</time></trkpt><trkpt lat="43.1715533" lon="12.25124"><ele>427.4</ele><time>2026-03-29T11:20:36.322Z</time></trkpt><trkpt lat="43.171565" lon="12.2513667"><ele>426.0</ele><time>2026-03-29T11:20:38.323Z</time></trkpt><trkpt lat="43.1715433" lon="12.25152"><ele>430.6</ele><time>2026-03-29T11:20:40.321Z</time></trkpt><trkpt lat="43.1714717" lon="12.2516683"><ele>435.20000000000005</ele><time>2026-03-29T11:20:42.323Z</time></trkpt><trkpt lat="43.1714167" lon="12.251755"><ele>439.79999999999995</ele><time>2026-03-29T11:20:43.322Z</time></trkpt><trkpt lat="43.1713417" lon="12.25183"><ele>444.4</ele><time>2026-03-29T11:20:44.321Z</time></trkpt><trkpt lat="43.171275" lon="12.2519167"><ele>449.0</ele><time>2026-03-29T11:20:45.322Z</time></trkpt><trkpt lat="43.1712183" lon="12.252005"><ele>448.99999999999994</ele><time>2026-03-29T11:20:46.322Z</time></trkpt><trkpt lat="43.171185" lon="12.2521017"><ele>449.0</ele><time>2026-03-29T11:20:47.324Z</time></trkpt><trkpt lat="43.1711667" lon="12.2521967"><ele>449.0</ele><time>2026-03-29T11:20:48.321Z</time></trkpt><trkpt lat="43.1711483" lon="12.25228"><ele>449.0</ele><time>2026-03-29T11:20:49.323Z</time></trkpt><trkpt lat="43.1710933" lon="12.2523817"><ele>448.99999999999994</ele><time>2026-03-29T11:20:51.319Z</time></trkpt><trkpt lat="43.1709967" lon="12.2524567"><ele>449.0</ele><time>2026-03-29T11:20:53.324Z</time></trkpt><trkpt lat="43.1709217" lon="12.2524933"><ele>447.66666666666663</ele><time>2026-03-29T11:20:54.321Z</time></trkpt><trkpt lat="43.170845" lon="12.2525183"><ele>446.3333333333333</ele><time>2026-03-29T11:20:55.324Z</time></trkpt><trkpt lat="43.1707667" lon="12.252545"><ele>445.0</ele><time>2026-03-29T11:20:56.322Z</time></trkpt><trkpt lat="43.1706983" lon="12.2525683"><ele>443.66666666666663</ele><time>2026-03-29T11:20:57.321Z</time></trkpt><trkpt lat="43.1705983" lon="12.2525867"><ele>442.3333333333333</ele><time>2026-03-29T11:20:59.321Z</time></trkpt><trkpt lat="43.170525" lon="12.252515"><ele>441.0</ele><time>2026-03-29T11:21:01.322Z</time></trkpt><trkpt lat="43.17049" lon="12.25237"><ele>441.20000000000005</ele><time>2026-03-29T11:21:03.323Z</time></trkpt><trkpt lat="43.170475" lon="12.2522"><ele>441.40000000000003</ele><time>2026-03-29T11:21:05.32Z</time></trkpt><trkpt lat="43.170465" lon="12.252085"><ele>441.6</ele><time>2026-03-29T11:21:06.322Z</time></trkpt><trkpt lat="43.1704483" lon="12.2519617"><ele>441.8</ele><time>2026-03-29T11:21:07.322Z</time></trkpt><trkpt lat="43.1704267" lon="12.2518417"><ele>442.0</ele><time>2026-03-29T11:21:08.323Z</time></trkpt><trkpt lat="43.1703983" lon="12.2517267"><ele>442.00000000000006</ele><time>2026-03-29T11:21:09.324Z</time></trkpt><trkpt lat="43.1703567" lon="12.2516267"><ele>442.0</ele><time>2026-03-29T11:21:10.321Z</time></trkpt><trkpt lat="43.1703033" lon="12.2515417"><ele>442.0</ele><time>2026-03-29T11:21:11.321Z</time></trkpt><trkpt lat="43.1702383" lon="12.251465"><ele>442.0</ele><time>2026-03-29T11:21:12.323Z</time></trkpt><trkpt lat="43.1701633" lon="12.2514033"><ele>442.00000000000006</ele><time>2026-03-29T11:21:13.323Z</time></trkpt><trkpt lat="43.1700867" lon="12.2513417"><ele>442.0</ele><time>2026-03-29T11:21:14.326Z</time></trkpt><trkpt lat="43.1700017" lon="12.251285"><ele>444.0</ele><time>2026-03-29T11:21:15.325Z</time></trkpt><trkpt lat="43.1699167" lon="12.2512283"><ele>446.00000000000006</ele><time>2026-03-29T11:21:16.322Z</time></trkpt><trkpt lat="43.1698333" lon="12.251165"><ele>448.00000000000006</ele><time>2026-03-29T11:21:17.322Z</time></trkpt><trkpt lat="43.16975" lon="12.2510883"><ele>450.0</ele><time>2026-03-29T11:21:18.322Z</time></trkpt><trkpt lat="43.1696667" lon="12.2510017"><ele>452.0</ele><time>2026-03-29T11:21:19.322Z</time></trkpt><trkpt lat="43.16959" lon="12.25091"><ele>452.0</ele><time>2026-03-29T11:21:20.32Z</time></trkpt><trkpt lat="43.1695217" lon="12.2508"><ele>452.00000000000006</ele><time>2026-03-29T11:21:21.324Z</time></trkpt><trkpt lat="43.169455" lon="12.2506883"><ele>452.00000000000006</ele><time>2026-03-29T11:21:22.32Z</time></trkpt><trkpt lat="43.1693867" lon="12.2505867"><ele>452.0</ele><time>2026-03-29T11:21:23.321Z</time></trkpt><trkpt lat="43.1693167" lon="12.2504933"><ele>452.0</ele><time>2026-03-29T11:21:24.323Z</time></trkpt><trkpt lat="43.1692367" lon="12.2504067"><ele>454.75</ele><time>2026-03-29T11:21:25.322Z</time></trkpt><trkpt lat="43.1690883" lon="12.250235"><ele>457.5</ele><time>2026-03-29T11:21:27.324Z</time></trkpt><trkpt lat="43.16904" lon="12.2501267"><ele>460.25</ele><time>2026-03-29T11:21:28.325Z</time></trkpt><trkpt lat="43.1689967" lon="12.2500183"><ele>463.0</ele><time>2026-03-29T11:21:29.325Z</time></trkpt><trkpt lat="43.1689517" lon="12.2499267"><ele>462.79999999999995</ele><time>2026-03-29T11:21:30.324Z</time></trkpt><trkpt lat="43.1688967" lon="12.24984"><ele>462.59999999999997</ele><time>2026-03-29T11:21:31.323Z</time></trkpt><trkpt lat="43.1688317" lon="12.2497517"><ele>462.40000000000003</ele><time>2026-03-29T11:21:32.319Z</time></trkpt><trkpt lat="43.16877" lon="12.2496567"><ele>462.20000000000005</ele><time>2026-03-29T11:21:33.323Z</time></trkpt><trkpt lat="43.1687083" lon="12.2495683"><ele>462.0</ele><time>2026-03-29T11:21:34.32Z</time></trkpt><trkpt lat="43.1686367" lon="12.2494817"><ele>462.0</ele><time>2026-03-29T11:21:35.324Z</time></trkpt><trkpt lat="43.168555" lon="12.2494017"><ele>462.00000000000006</ele><time>2026-03-29T11:21:36.319Z</time></trkpt><trkpt lat="43.16848" lon="12.2493117"><ele>462.00000000000006</ele><time>2026-03-29T11:21:37.323Z</time></trkpt><trkpt lat="43.168405" lon="12.2492083"><ele>462.0</ele><time>2026-03-29T11:21:38.321Z</time></trkpt><trkpt lat="43.1683433" lon="12.2490967"><ele>462.0</ele><time>2026-03-29T11:21:39.324Z</time></trkpt><trkpt lat="43.1682717" lon="12.2489867"><ele>462.0</ele><time>2026-03-29T11:21:40.32Z</time></trkpt><trkpt lat="43.1681983" lon="12.2488633"><ele>462.0</ele><time>2026-03-29T11:21:41.323Z</time></trkpt><trkpt lat="43.1681217" lon="12.2487433"><ele>462.0</ele><time>2026-03-29T11:21:42.321Z</time></trkpt><trkpt lat="43.1680417" lon="12.24863"><ele>462.0</ele><time>2026-03-29T11:21:43.322Z</time></trkpt><trkpt lat="43.167955" lon="12.2485033"><ele>462.0</ele><time>2026-03-29T11:21:44.322Z</time></trkpt><trkpt lat="43.167875" lon="12.2483967"><ele>462.00000000000006</ele><time>2026-03-29T11:21:45.323Z</time></trkpt><trkpt lat="43.1678033" lon="12.2483067"><ele>462.00000000000006</ele><time>2026-03-29T11:21:46.32Z</time></trkpt><trkpt lat="43.1677333" lon="12.2482233"><ele>462.0</ele><time>2026-03-29T11:21:47.321Z</time></trkpt><trkpt lat="43.1676633" lon="12.2481517"><ele>462.0</ele><time>2026-03-29T11:21:48.321Z</time></trkpt><trkpt lat="43.167595" lon="12.24809"><ele>459.6</ele><time>2026-03-29T11:21:49.32Z</time></trkpt><trkpt lat="43.1675083" lon="12.2480533"><ele>457.20000000000005</ele><time>2026-03-29T11:21:50.32Z</time></trkpt><trkpt lat="43.1674083" lon="12.2480517"><ele>454.8</ele><time>2026-03-29T11:21:51.323Z</time></trkpt><trkpt lat="43.167305" lon="12.2480583"><ele>452.4</ele><time>2026-03-29T11:21:52.319Z</time></trkpt><trkpt lat="43.1671983" lon="12.2480617"><ele>450.0</ele><time>2026-03-29T11:21:53.321Z</time></trkpt><trkpt lat="43.1670917" lon="12.2480617"><ele>450.0</ele><time>2026-03-29T11:21:54.32Z</time></trkpt><trkpt lat="43.1669967" lon="12.2480583"><ele>450.0</ele><time>2026-03-29T11:21:55.322Z</time></trkpt><trkpt lat="43.1669083" lon="12.2480717"><ele>450.0</ele><time>2026-03-29T11:21:56.323Z</time></trkpt><trkpt lat="43.1668217" lon="12.2481083"><ele>450.0</ele><time>2026-03-29T11:21:57.325Z</time></trkpt><trkpt lat="43.1667167" lon="12.2481633"><ele>450.0</ele><time>2026-03-29T11:21:58.321Z</time></trkpt><trkpt lat="43.1666067" lon="12.2482217"><ele>451.75</ele><time>2026-03-29T11:21:59.32Z</time></trkpt><trkpt lat="43.1665" lon="12.2482767"><ele>453.5</ele><time>2026-03-29T11:22:00.32Z</time></trkpt><trkpt lat="43.1663933" lon="12.248345"><ele>455.25</ele><time>2026-03-29T11:22:01.322Z</time></trkpt><trkpt lat="43.1662817" lon="12.2484267"><ele>457.0</ele><time>2026-03-29T11:22:02.323Z</time></trkpt><trkpt lat="43.16618" lon="12.24852"><ele>457.0</ele><time>2026-03-29T11:22:03.323Z</time></trkpt><trkpt lat="43.1660817" lon="12.2486317"><ele>457.0</ele><time>2026-03-29T11:22:04.324Z</time></trkpt><trkpt lat="43.1659933" lon="12.2487567"><ele>457.0</ele><time>2026-03-29T11:22:05.324Z</time></trkpt><trkpt lat="43.1659067" lon="12.2488783"><ele>457.0</ele><time>2026-03-29T11:22:06.32Z</time></trkpt><trkpt lat="43.165825" lon="12.2490017"><ele>458.5</ele><time>2026-03-29T11:22:07.319Z</time></trkpt><trkpt lat="43.1657417" lon="12.24913"><ele>460.0</ele><time>2026-03-29T11:22:08.319Z</time></trkpt><trkpt lat="43.1656567" lon="12.2492583"><ele>461.5</ele><time>2026-03-29T11:22:09.322Z</time></trkpt><trkpt lat="43.1655733" lon="12.2493767"><ele>463.0</ele><time>2026-03-29T11:22:10.319Z</time></trkpt><trkpt lat="43.165495" lon="12.24948"><ele>463.00000000000006</ele><time>2026-03-29T11:22:11.323Z</time></trkpt><trkpt lat="43.1654233" lon="12.2495717"><ele>463.0</ele><time>2026-03-29T11:22:12.319Z</time></trkpt><trkpt lat="43.1653567" lon="12.2496283"><ele>463.0</ele><time>2026-03-29T11:22:13.32Z</time></trkpt><trkpt lat="43.16529" lon="12.2496667"><ele>463.0</ele><time>2026-03-29T11:22:14.32Z</time></trkpt><trkpt lat="43.165215" lon="12.2496783"><ele>463.00000000000006</ele><time>2026-03-29T11:22:15.322Z</time></trkpt><trkpt lat="43.1651267" lon="12.2496817"><ele>463.0</ele><time>2026-03-29T11:22:16.328Z</time></trkpt><trkpt lat="43.1650333" lon="12.2496817"><ele>463.0</ele><time>2026-03-29T11:22:17.32Z</time></trkpt><trkpt lat="43.1649383" lon="12.2496783"><ele>462.99999999999994</ele><time>2026-03-29T11:22:18.321Z</time></trkpt><trkpt lat="43.164835" lon="12.2496683"><ele>462.99999999999994</ele><time>2026-03-29T11:22:19.324Z</time></trkpt><trkpt lat="43.16474" lon="12.249645"><ele>463.0</ele><time>2026-03-29T11:22:20.324Z</time></trkpt><trkpt lat="43.1646467" lon="12.2496183"><ele>463.0</ele><time>2026-03-29T11:22:21.322Z</time></trkpt><trkpt lat="43.1645567" lon="12.24959"><ele>464.0</ele><time>2026-03-29T11:22:22.319Z</time></trkpt><trkpt lat="43.1644833" lon="12.2495517"><ele>464.99999999999994</ele><time>2026-03-29T11:22:23.32Z</time></trkpt><trkpt lat="43.1644283" lon="12.24949"><ele>466.0</ele><time>2026-03-29T11:22:24.32Z</time></trkpt><trkpt lat="43.1643833" lon="12.2494117"><ele>467.0</ele><time>2026-03-29T11:22:25.321Z</time></trkpt><trkpt lat="43.164335" lon="12.2493233"><ele>467.99999999999994</ele><time>2026-03-29T11:22:26.318Z</time></trkpt><trkpt lat="43.1642917" lon="12.2492417"><ele>469.0</ele><time>2026-03-29T11:22:27.327Z</time></trkpt><trkpt lat="43.1642467" lon="12.249165"><ele>470.0</ele><time>2026-03-29T11:22:28.32Z</time></trkpt><trkpt lat="43.1641867" lon="12.2490917"><ele>469.99999999999994</ele><time>2026-03-29T11:22:29.319Z</time></trkpt><trkpt lat="43.164125" lon="12.2490283"><ele>470.0</ele><time>2026-03-29T11:22:30.322Z</time></trkpt><trkpt lat="43.1640583" lon="12.2489767"><ele>470.0</ele><time>2026-03-29T11:22:31.32Z</time></trkpt><trkpt lat="43.16398" lon="12.248955"><ele>470.0</ele><time>2026-03-29T11:22:32.322Z</time></trkpt><trkpt lat="43.163905" lon="12.2489383"><ele>469.99999999999994</ele><time>2026-03-29T11:22:33.32Z</time></trkpt><trkpt lat="43.16384" lon="12.24891"><ele>470.0</ele><time>2026-03-29T11:22:34.323Z</time></trkpt><trkpt lat="43.163745" lon="12.24878"><ele>471.99999999999994</ele><time>2026-03-29T11:22:36.324Z</time></trkpt><trkpt lat="43.1637033" lon="12.2486817"><ele>474.0</ele><time>2026-03-29T11:22:37.324Z</time></trkpt><trkpt lat="43.1636633" lon="12.2485717"><ele>476.0</ele><time>2026-03-29T11:22:38.322Z</time></trkpt><trkpt lat="43.1636267" lon="12.24847"><ele>478.0</ele><time>2026-03-29T11:22:39.321Z</time></trkpt><trkpt lat="43.1635917" lon="12.2483733"><ele>479.99999999999994</ele><time>2026-03-29T11:22:40.32Z</time></trkpt><trkpt lat="43.1635567" lon="12.24829"><ele>482.0</ele><time>2026-03-29T11:22:41.323Z</time></trkpt><trkpt lat="43.1634633" lon="12.2482033"><ele>482.0</ele><time>2026-03-29T11:22:43.323Z</time></trkpt><trkpt lat="43.1633967" lon="12.2482033"><ele>482.00000000000006</ele><time>2026-03-29T11:22:44.322Z</time></trkpt><trkpt lat="43.1633317" lon="12.24819"><ele>482.0</ele><time>2026-03-29T11:22:45.326Z</time></trkpt><trkpt lat="43.163265" lon="12.24819"><ele>482.0</ele><time>2026-03-29T11:22:46.323Z</time></trkpt><trkpt lat="43.1631933" lon="12.24821"><ele>482.00000000000006</ele><time>2026-03-29T11:22:47.321Z</time></trkpt><trkpt lat="43.163115" lon="12.2482417"><ele>482.0</ele><time>2026-03-29T11:22:48.324Z</time></trkpt><trkpt lat="43.1630367" lon="12.2482833"><ele>482.0</ele><time>2026-03-29T11:22:49.321Z</time></trkpt><trkpt lat="43.1629633" lon="12.2483483"><ele>482.8333333333333</ele><time>2026-03-29T11:22:50.321Z</time></trkpt><trkpt lat="43.1629067" lon="12.248435"><ele>483.66666666666663</ele><time>2026-03-29T11:22:51.323Z</time></trkpt><trkpt lat="43.1628483" lon="12.2485033"><ele>484.5</ele><time>2026-03-29T11:22:52.32Z</time></trkpt><trkpt lat="43.1627917" lon="12.24856"><ele>485.33333333333337</ele><time>2026-03-29T11:22:53.323Z</time></trkpt><trkpt lat="43.1627283" lon="12.248595"><ele>486.1666666666667</ele><time>2026-03-29T11:22:54.32Z</time></trkpt><trkpt lat="43.1626533" lon="12.248595"><ele>487.0</ele><time>2026-03-29T11:22:55.324Z</time></trkpt><trkpt lat="43.162565" lon="12.248565"><ele>487.0</ele><time>2026-03-29T11:22:56.322Z</time></trkpt><trkpt lat="43.162505" lon="12.2485383"><ele>487.00000000000006</ele><time>2026-03-29T11:22:57.326Z</time></trkpt><trkpt lat="43.1624083" lon="12.2485033"><ele>487.00000000000006</ele><time>2026-03-29T11:22:59.319Z</time></trkpt><trkpt lat="43.162295" lon="12.2484633"><ele>487.0</ele><time>2026-03-29T11:23:01.321Z</time></trkpt><trkpt lat="43.16222" lon="12.2484333"><ele>487.0</ele><time>2026-03-29T11:23:02.325Z</time></trkpt><trkpt lat="43.16213" lon="12.2483917"><ele>486.83333333333337</ele><time>2026-03-29T11:23:03.327Z</time></trkpt><trkpt lat="43.1620433" lon="12.2483467"><ele>486.6666666666667</ele><time>2026-03-29T11:23:04.323Z</time></trkpt><trkpt lat="43.1619717" lon="12.2482867"><ele>486.5</ele><time>2026-03-29T11:23:05.321Z</time></trkpt><trkpt lat="43.1618983" lon="12.2482367"><ele>486.33333333333337</ele><time>2026-03-29T11:23:06.319Z</time></trkpt><trkpt lat="43.1618217" lon="12.24818"><ele>486.1666666666667</ele><time>2026-03-29T11:23:07.32Z</time></trkpt><trkpt lat="43.1617317" lon="12.2481183"><ele>486.0</ele><time>2026-03-29T11:23:08.323Z</time></trkpt><trkpt lat="43.1616383" lon="12.24806"><ele>486.0</ele><time>2026-03-29T11:23:09.32Z</time></trkpt><trkpt lat="43.161545" lon="12.2480183"><ele>486.0</ele><time>2026-03-29T11:23:10.319Z</time></trkpt><trkpt lat="43.1614533" lon="12.247965"><ele>486.0</ele><time>2026-03-29T11:23:11.323Z</time></trkpt><trkpt lat="43.1613433" lon="12.2478683"><ele>486.0</ele><time>2026-03-29T11:23:12.322Z</time></trkpt><trkpt lat="43.1612267" lon="12.2477683"><ele>487.8</ele><time>2026-03-29T11:23:13.32Z</time></trkpt><trkpt lat="43.1611167" lon="12.2476867"><ele>489.6</ele><time>2026-03-29T11:23:14.32Z</time></trkpt><trkpt lat="43.161015" lon="12.2476233"><ele>491.4</ele><time>2026-03-29T11:23:15.323Z</time></trkpt><trkpt lat="43.1609267" lon="12.247565"><ele>493.2</ele><time>2026-03-29T11:23:16.322Z</time></trkpt><trkpt lat="43.1608517" lon="12.2474933"><ele>495.0</ele><time>2026-03-29T11:23:17.321Z</time></trkpt><trkpt lat="43.160795" lon="12.247395"><ele>494.4</ele><time>2026-03-29T11:23:18.323Z</time></trkpt><trkpt lat="43.16075" lon="12.247275"><ele>493.8</ele><time>2026-03-29T11:23:19.321Z</time></trkpt><trkpt lat="43.1607083" lon="12.2471483"><ele>493.20000000000005</ele><time>2026-03-29T11:23:20.322Z</time></trkpt><trkpt lat="43.1606683" lon="12.2470217"><ele>492.6</ele><time>2026-03-29T11:23:21.324Z</time></trkpt><trkpt lat="43.1606233" lon="12.2468933"><ele>492.0</ele><time>2026-03-29T11:23:22.322Z</time></trkpt><trkpt lat="43.1605767" lon="12.246775"><ele>495.40000000000003</ele><time>2026-03-29T11:23:23.322Z</time></trkpt><trkpt lat="43.16052" lon="12.2466683"><ele>498.80000000000007</ele><time>2026-03-29T11:23:24.325Z</time></trkpt><trkpt lat="43.16046" lon="12.24657"><ele>502.2</ele><time>2026-03-29T11:23:25.323Z</time></trkpt><trkpt lat="43.16039" lon="12.2464783"><ele>505.6</ele><time>2026-03-29T11:23:26.323Z</time></trkpt><trkpt lat="43.1603117" lon="12.2463867"><ele>509.0</ele><time>2026-03-29T11:23:27.323Z</time></trkpt><trkpt lat="43.1602267" lon="12.2462967"><ele>509.0</ele><time>2026-03-29T11:23:28.323Z</time></trkpt><trkpt lat="43.1601483" lon="12.2462067"><ele>509.0</ele><time>2026-03-29T11:23:29.321Z</time></trkpt><trkpt lat="43.1600867" lon="12.2461133"><ele>509.0</ele><time>2026-03-29T11:23:30.32Z</time></trkpt><trkpt lat="43.1600383" lon="12.2460067"><ele>509.0</ele><time>2026-03-29T11:23:31.319Z</time></trkpt><trkpt lat="43.1600067" lon="12.2459"><ele>509.0</ele><time>2026-03-29T11:23:32.319Z</time></trkpt><trkpt lat="43.159995" lon="12.2457867"><ele>509.0</ele><time>2026-03-29T11:23:33.324Z</time></trkpt><trkpt lat="43.16001" lon="12.2456667"><ele>509.0</ele><time>2026-03-29T11:23:34.319Z</time></trkpt><trkpt lat="43.1600367" lon="12.2454217"><ele>509.0</ele><time>2026-03-29T11:23:36.321Z</time></trkpt><trkpt lat="43.1600567" lon="12.2453017"><ele>509.0</ele><time>2026-03-29T11:23:37.327Z</time></trkpt><trkpt lat="43.1600717" lon="12.2451883"><ele>509.0</ele><time>2026-03-29T11:23:38.323Z</time></trkpt><trkpt lat="43.1600817" lon="12.2450833"><ele>509.16666666666663</ele><time>2026-03-29T11:23:39.322Z</time></trkpt><trkpt lat="43.1600783" lon="12.2449783"><ele>509.3333333333333</ele><time>2026-03-29T11:23:40.321Z</time></trkpt><trkpt lat="43.1600633" lon="12.24487"><ele>509.5</ele><time>2026-03-29T11:23:41.324Z</time></trkpt><trkpt lat="43.16004" lon="12.2447633"><ele>509.66666666666663</ele><time>2026-03-29T11:23:42.327Z</time></trkpt><trkpt lat="43.1600067" lon="12.244655"><ele>509.8333333333333</ele><time>2026-03-29T11:23:43.323Z</time></trkpt><trkpt lat="43.1599683" lon="12.2445483"><ele>510.0</ele><time>2026-03-29T11:23:44.324Z</time></trkpt><trkpt lat="43.1599317" lon="12.244435"><ele>509.2</ele><time>2026-03-29T11:23:45.321Z</time></trkpt><trkpt lat="43.1598983" lon="12.244315"><ele>508.4</ele><time>2026-03-29T11:23:46.321Z</time></trkpt><trkpt lat="43.1598683" lon="12.2441883"><ele>507.6</ele><time>2026-03-29T11:23:47.323Z</time></trkpt><trkpt lat="43.1598367" lon="12.2440583"><ele>506.8</ele><time>2026-03-29T11:23:48.324Z</time></trkpt><trkpt lat="43.1598033" lon="12.2439267"><ele>506.0</ele><time>2026-03-29T11:23:49.321Z</time></trkpt><trkpt lat="43.1597683" lon="12.2437967"><ele>503.6</ele><time>2026-03-29T11:23:50.319Z</time></trkpt><trkpt lat="43.1597333" lon="12.24367"><ele>501.20000000000005</ele><time>2026-03-29T11:23:51.321Z</time></trkpt><trkpt lat="43.1597" lon="12.243545"><ele>498.79999999999995</ele><time>2026-03-29T11:23:52.321Z</time></trkpt><trkpt lat="43.1596667" lon="12.2434283"><ele>496.4</ele><time>2026-03-29T11:23:53.32Z</time></trkpt><trkpt lat="43.1596317" lon="12.2433183"><ele>494.0</ele><time>2026-03-29T11:23:54.319Z</time></trkpt><trkpt lat="43.1595967" lon="12.243215"><ele>491.66666666666663</ele><time>2026-03-29T11:23:55.324Z</time></trkpt><trkpt lat="43.1595583" lon="12.24312"><ele>489.3333333333333</ele><time>2026-03-29T11:23:56.32Z</time></trkpt><trkpt lat="43.1595183" lon="12.2430317"><ele>487.0</ele><time>2026-03-29T11:23:57.319Z</time></trkpt><trkpt lat="43.1594733" lon="12.2429483"><ele>484.66666666666663</ele><time>2026-03-29T11:23:58.319Z</time></trkpt><trkpt lat="43.159435" lon="12.2428567"><ele>482.3333333333333</ele><time>2026-03-29T11:23:59.324Z</time></trkpt><trkpt lat="43.1594033" lon="12.2427583"><ele>480.0</ele><time>2026-03-29T11:24:00.32Z</time></trkpt><trkpt lat="43.159385" lon="12.24266"><ele>480.0</ele><time>2026-03-29T11:24:01.321Z</time></trkpt><trkpt lat="43.1593683" lon="12.2425617"><ele>480.0</ele><time>2026-03-29T11:24:02.321Z</time></trkpt><trkpt lat="43.1593483" lon="12.242465"><ele>480.0</ele><time>2026-03-29T11:24:03.324Z</time></trkpt><trkpt lat="43.159325" lon="12.2423633"><ele>480.0</ele><time>2026-03-29T11:24:04.324Z</time></trkpt><trkpt lat="43.1592967" lon="12.2422617"><ele>480.0</ele><time>2026-03-29T11:24:05.321Z</time></trkpt><trkpt lat="43.1592683" lon="12.242165"><ele>480.0</ele><time>2026-03-29T11:24:06.319Z</time></trkpt><trkpt lat="43.1592367" lon="12.24207"><ele>478.6666666666667</ele><time>2026-03-29T11:24:07.322Z</time></trkpt><trkpt lat="43.1592" lon="12.2419733"><ele>477.33333333333337</ele><time>2026-03-29T11:24:08.319Z</time></trkpt><trkpt lat="43.159165" lon="12.2418733"><ele>476.0</ele><time>2026-03-29T11:24:09.319Z</time></trkpt><trkpt lat="43.1591317" lon="12.241765"><ele>474.6666666666667</ele><time>2026-03-29T11:24:10.322Z</time></trkpt><trkpt lat="43.1590967" lon="12.241655"><ele>473.33333333333337</ele><time>2026-03-29T11:24:11.322Z</time></trkpt><trkpt lat="43.1590633" lon="12.2415517"><ele>472.0</ele><time>2026-03-29T11:24:12.321Z</time></trkpt><trkpt lat="43.1590333" lon="12.2414517"><ele>470.50000000000006</ele><time>2026-03-29T11:24:13.319Z</time></trkpt><trkpt lat="43.1590083" lon="12.2413567"><ele>469.0</ele><time>2026-03-29T11:24:14.322Z</time></trkpt><trkpt lat="43.15899" lon="12.24127"><ele>467.5</ele><time>2026-03-29T11:24:15.321Z</time></trkpt><trkpt lat="43.1589833" lon="12.241135"><ele>466.0</ele><time>2026-03-29T11:24:17.322Z</time></trkpt><trkpt lat="43.1590333" lon="12.2410433"><ele>464.50000000000006</ele><time>2026-03-29T11:24:19.319Z</time></trkpt><trkpt lat="43.1591333" lon="12.2409433"><ele>463.0</ele><time>2026-03-29T11:24:21.324Z</time></trkpt><trkpt lat="43.159195" lon="12.2408717"><ele>463.00000000000006</ele><time>2026-03-29T11:24:22.324Z</time></trkpt><trkpt lat="43.159255" lon="12.2407933"><ele>463.0</ele><time>2026-03-29T11:24:23.32Z</time></trkpt><trkpt lat="43.159315" lon="12.24072"><ele>463.0</ele><time>2026-03-29T11:24:24.321Z</time></trkpt><trkpt lat="43.1593817" lon="12.2406583"><ele>463.0</ele><time>2026-03-29T11:24:25.323Z</time></trkpt><trkpt lat="43.159445" lon="12.240595"><ele>463.00000000000006</ele><time>2026-03-29T11:24:26.322Z</time></trkpt><trkpt lat="43.1594967" lon="12.2405283"><ele>463.0</ele><time>2026-03-29T11:24:27.323Z</time></trkpt><trkpt lat="43.1595483" lon="12.24046"><ele>462.0</ele><time>2026-03-29T11:24:28.321Z</time></trkpt><trkpt lat="43.1595967" lon="12.2403933"><ele>460.99999999999994</ele><time>2026-03-29T11:24:29.323Z</time></trkpt><trkpt lat="43.15965" lon="12.2403333"><ele>460.0</ele><time>2026-03-29T11:24:30.321Z</time></trkpt><trkpt lat="43.15971" lon="12.2402867"><ele>459.0</ele><time>2026-03-29T11:24:31.323Z</time></trkpt><trkpt lat="43.15978" lon="12.2402617"><ele>457.99999999999994</ele><time>2026-03-29T11:24:32.321Z</time></trkpt><trkpt lat="43.1598533" lon="12.2402517"><ele>457.0</ele><time>2026-03-29T11:24:33.321Z</time></trkpt><trkpt lat="43.1599267" lon="12.2402383"><ele>456.0</ele><time>2026-03-29T11:24:34.323Z</time></trkpt><trkpt lat="43.1600083" lon="12.2402233"><ele>455.3333333333333</ele><time>2026-03-29T11:24:35.322Z</time></trkpt><trkpt lat="43.1600917" lon="12.2402133"><ele>454.66666666666663</ele><time>2026-03-29T11:24:36.323Z</time></trkpt><trkpt lat="43.1601717" lon="12.24022"><ele>454.0</ele><time>2026-03-29T11:24:37.319Z</time></trkpt><trkpt lat="43.1602483" lon="12.2402283"><ele>453.3333333333333</ele><time>2026-03-29T11:24:38.321Z</time></trkpt><trkpt lat="43.1603333" lon="12.240225"><ele>452.66666666666663</ele><time>2026-03-29T11:24:39.323Z</time></trkpt><trkpt lat="43.160425" lon="12.2402133"><ele>452.0</ele><time>2026-03-29T11:24:40.323Z</time></trkpt><trkpt lat="43.1605167" lon="12.24021"><ele>451.99999999999994</ele><time>2026-03-29T11:24:41.322Z</time></trkpt><trkpt lat="43.1606" lon="12.24021"><ele>452.0</ele><time>2026-03-29T11:24:42.32Z</time></trkpt><trkpt lat="43.1606767" lon="12.240215"><ele>452.0</ele><time>2026-03-29T11:24:43.323Z</time></trkpt><trkpt lat="43.16075" lon="12.240225"><ele>452.0</ele><time>2026-03-29T11:24:44.321Z</time></trkpt><trkpt lat="43.1608133" lon="12.24025"><ele>451.99999999999994</ele><time>2026-03-29T11:24:45.322Z</time></trkpt><trkpt lat="43.1608717" lon="12.2402867"><ele>452.0</ele><time>2026-03-29T11:24:46.32Z</time></trkpt><trkpt lat="43.1609817" lon="12.2403533"><ele>448.6</ele><time>2026-03-29T11:24:48.326Z</time></trkpt><trkpt lat="43.161085" lon="12.240385"><ele>445.20000000000005</ele><time>2026-03-29T11:24:50.321Z</time></trkpt><trkpt lat="43.1612" lon="12.2404283"><ele>441.8</ele><time>2026-03-29T11:24:52.323Z</time></trkpt><trkpt lat="43.1612683" lon="12.2404717"><ele>438.4</ele><time>2026-03-29T11:24:53.322Z</time></trkpt><trkpt lat="43.16136" lon="12.2405233"><ele>435.0</ele><time>2026-03-29T11:24:54.32Z</time></trkpt><trkpt lat="43.1614667" lon="12.2405817"><ele>435.6</ele><time>2026-03-29T11:24:55.322Z</time></trkpt><trkpt lat="43.161575" lon="12.240635"><ele>436.2</ele><time>2026-03-29T11:24:56.323Z</time></trkpt><trkpt lat="43.1616683" lon="12.2406683"><ele>436.79999999999995</ele><time>2026-03-29T11:24:57.324Z</time></trkpt><trkpt lat="43.161755" lon="12.24068"><ele>437.4</ele><time>2026-03-29T11:24:58.319Z</time></trkpt><trkpt lat="43.1618417" lon="12.2406733"><ele>438.0</ele><time>2026-03-29T11:24:59.32Z</time></trkpt><trkpt lat="43.1619317" lon="12.24065"><ele>435.5</ele><time>2026-03-29T11:25:00.322Z</time></trkpt><trkpt lat="43.162015" lon="12.2406133"><ele>433.0</ele><time>2026-03-29T11:25:01.323Z</time></trkpt><trkpt lat="43.1620917" lon="12.24057"><ele>430.5</ele><time>2026-03-29T11:25:02.323Z</time></trkpt><trkpt lat="43.16217" lon="12.2405167"><ele>428.0</ele><time>2026-03-29T11:25:03.321Z</time></trkpt><trkpt lat="43.162245" lon="12.2404417"><ele>425.5</ele><time>2026-03-29T11:25:04.32Z</time></trkpt><trkpt lat="43.162315" lon="12.240355"><ele>423.0</ele><time>2026-03-29T11:25:05.322Z</time></trkpt><trkpt lat="43.162385" lon="12.2402717"><ele>422.6666666666667</ele><time>2026-03-29T11:25:06.321Z</time></trkpt><trkpt lat="43.1624533" lon="12.2401933"><ele>422.33333333333337</ele><time>2026-03-29T11:25:07.319Z</time></trkpt><trkpt lat="43.162515" lon="12.2401267"><ele>422.0</ele><time>2026-03-29T11:25:08.32Z</time></trkpt><trkpt lat="43.162575" lon="12.2400583"><ele>421.6666666666667</ele><time>2026-03-29T11:25:09.325Z</time></trkpt><trkpt lat="43.1626317" lon="12.2399983"><ele>421.33333333333337</ele><time>2026-03-29T11:25:10.322Z</time></trkpt><trkpt lat="43.162685" lon="12.2399383"><ele>421.0</ele><time>2026-03-29T11:25:11.322Z</time></trkpt><trkpt lat="43.1627383" lon="12.2398733"><ele>421.00000000000006</ele><time>2026-03-29T11:25:12.321Z</time></trkpt><trkpt lat="43.162795" lon="12.2398083"><ele>421.0</ele><time>2026-03-29T11:25:13.324Z</time></trkpt><trkpt lat="43.1628533" lon="12.239745"><ele>421.0</ele><time>2026-03-29T11:25:14.322Z</time></trkpt><trkpt lat="43.1629117" lon="12.2396833"><ele>421.0</ele><time>2026-03-29T11:25:15.323Z</time></trkpt><trkpt lat="43.16297" lon="12.2396167"><ele>421.0</ele><time>2026-03-29T11:25:16.322Z</time></trkpt><trkpt lat="43.1630283" lon="12.239555"><ele>421.00000000000006</ele><time>2026-03-29T11:25:17.323Z</time></trkpt><trkpt lat="43.1630867" lon="12.2394933"><ele>421.0</ele><time>2026-03-29T11:25:18.323Z</time></trkpt><trkpt lat="43.1631433" lon="12.2394317"><ele>418.8571428571429</ele><time>2026-03-29T11:25:19.322Z</time></trkpt><trkpt lat="43.1631983" lon="12.2393683"><ele>416.7142857142857</ele><time>2026-03-29T11:25:20.324Z</time></trkpt><trkpt lat="43.1632517" lon="12.2392983"><ele>414.57142857142856</ele><time>2026-03-29T11:25:21.323Z</time></trkpt><trkpt lat="43.1633083" lon="12.2392383"><ele>412.42857142857144</ele><time>2026-03-29T11:25:22.327Z</time></trkpt><trkpt lat="43.1633683" lon="12.2391783"><ele>410.2857142857143</ele><time>2026-03-29T11:25:23.322Z</time></trkpt><trkpt lat="43.1634283" lon="12.2391183"><ele>408.14285714285717</ele><time>2026-03-29T11:25:24.324Z</time></trkpt><trkpt lat="43.1634867" lon="12.23906"><ele>406.0</ele><time>2026-03-29T11:25:25.329Z</time></trkpt><trkpt lat="43.1635433" lon="12.238995"><ele>403.33333333333337</ele><time>2026-03-29T11:25:26.324Z</time></trkpt><trkpt lat="43.1635933" lon="12.23893"><ele>400.6666666666667</ele><time>2026-03-29T11:25:27.321Z</time></trkpt><trkpt lat="43.163645" lon="12.2388717"><ele>398.0</ele><time>2026-03-29T11:25:28.325Z</time></trkpt><trkpt lat="43.16374" lon="12.23879"><ele>395.33333333333337</ele><time>2026-03-29T11:25:30.322Z</time></trkpt><trkpt lat="43.16383" lon="12.2387533"><ele>392.6666666666667</ele><time>2026-03-29T11:25:32.322Z</time></trkpt><trkpt lat="43.16391" lon="12.2387633"><ele>390.0</ele><time>2026-03-29T11:25:34.322Z</time></trkpt><trkpt lat="43.1639733" lon="12.2387867"><ele>388.0</ele><time>2026-03-29T11:25:36.321Z</time></trkpt><trkpt lat="43.1640483" lon="12.2388017"><ele>386.0</ele><time>2026-03-29T11:25:38.32Z</time></trkpt><trkpt lat="43.16414" lon="12.2387783"><ele>384.0</ele><time>2026-03-29T11:25:40.317Z</time></trkpt><trkpt lat="43.1642" lon="12.2386567"><ele>382.0</ele><time>2026-03-29T11:25:42.321Z</time></trkpt><trkpt lat="43.1642383" lon="12.2385033"><ele>380.0</ele><time>2026-03-29T11:25:44.321Z</time></trkpt><trkpt lat="43.1642517" lon="12.238345"><ele>380.0</ele><time>2026-03-29T11:25:46.319Z</time></trkpt><trkpt lat="43.1642217" lon="12.238225"><ele>380.0</ele><time>2026-03-29T11:25:48.322Z</time></trkpt><trkpt lat="43.1641533" lon="12.2381333"><ele>380.0</ele><time>2026-03-29T11:25:50.322Z</time></trkpt><trkpt lat="43.1641067" lon="12.2380467"><ele>380.0</ele><time>2026-03-29T11:25:52.323Z</time></trkpt><trkpt lat="43.164075" lon="12.23797"><ele>380.0</ele><time>2026-03-29T11:25:54.417Z</time></trkpt><trkpt lat="43.1640067" lon="12.2379133"><ele>380.0</ele><time>2026-03-29T11:26:48.322Z</time></trkpt><trkpt lat="43.1639233" lon="12.2378233"><ele>379.0</ele><time>2026-03-29T11:26:51.323Z</time></trkpt><trkpt lat="43.16389" lon="12.23775"><ele>378.0</ele><time>2026-03-29T11:26:53.322Z</time></trkpt><trkpt lat="43.163915" lon="12.2376633"><ele>377.0</ele><time>2026-03-29T11:26:55.323Z</time></trkpt><trkpt lat="43.164" lon="12.2375933"><ele>376.0</ele><time>2026-03-29T11:26:57.324Z</time></trkpt><trkpt lat="43.164115" lon="12.2375633"><ele>375.0</ele><time>2026-03-29T11:26:59.323Z</time></trkpt><trkpt lat="43.1642333" lon="12.2375417"><ele>373.0</ele><time>2026-03-29T11:27:01.323Z</time></trkpt><trkpt lat="43.1643283" lon="12.237535"><ele>371.0</ele><time>2026-03-29T11:27:03.322Z</time></trkpt><trkpt lat="43.1644067" lon="12.2375333"><ele>369.0</ele><time>2026-03-29T11:27:05.322Z</time></trkpt><trkpt lat="43.1645083" lon="12.23753"><ele>367.0</ele><time>2026-03-29T11:27:07.321Z</time></trkpt><trkpt lat="43.1646067" lon="12.23752"><ele>365.0</ele><time>2026-03-29T11:27:09.321Z</time></trkpt><trkpt lat="43.1647" lon="12.2375067"><ele>365.0</ele><time>2026-03-29T11:27:11.319Z</time></trkpt><trkpt lat="43.1648167" lon="12.2375017"><ele>365.0</ele><time>2026-03-29T11:27:13.323Z</time></trkpt><trkpt lat="43.16488" lon="12.2374917"><ele>365.0</ele><time>2026-03-29T11:27:14.327Z</time></trkpt><trkpt lat="43.1650017" lon="12.237495"><ele>365.0</ele><time>2026-03-29T11:27:16.32Z</time></trkpt><trkpt lat="43.1651017" lon="12.2375483"><ele>365.0</ele><time>2026-03-29T11:27:18.323Z</time></trkpt><trkpt lat="43.16521" lon="12.23755"><ele>362.75</ele><time>2026-03-29T11:27:20.32Z</time></trkpt><trkpt lat="43.1653183" lon="12.2374717"><ele>360.5</ele><time>2026-03-29T11:27:22.322Z</time></trkpt><trkpt lat="43.165405" lon="12.237355"><ele>358.25</ele><time>2026-03-29T11:27:24.322Z</time></trkpt><trkpt lat="43.165475" lon="12.237225"><ele>356.0</ele><time>2026-03-29T11:27:26.321Z</time></trkpt><trkpt lat="43.165505" lon="12.2370933"><ele>353.8</ele><time>2026-03-29T11:27:28.323Z</time></trkpt><trkpt lat="43.1655317" lon="12.23697"><ele>351.6</ele><time>2026-03-29T11:27:30.32Z</time></trkpt><trkpt lat="43.1655883" lon="12.236875"><ele>349.4</ele><time>2026-03-29T11:27:32.32Z</time></trkpt><trkpt lat="43.165655" lon="12.2367867"><ele>347.2</ele><time>2026-03-29T11:27:34.32Z</time></trkpt><trkpt lat="43.16574" lon="12.2366983"><ele>345.0</ele><time>2026-03-29T11:27:36.319Z</time></trkpt><trkpt lat="43.1658133" lon="12.2365867"><ele>343.5</ele><time>2026-03-29T11:27:38.319Z</time></trkpt><trkpt lat="43.1658917" lon="12.23648"><ele>342.0</ele><time>2026-03-29T11:27:40.32Z</time></trkpt><trkpt lat="43.166005" lon="12.2364117"><ele>340.5</ele><time>2026-03-29T11:27:42.32Z</time></trkpt><trkpt lat="43.1660683" lon="12.236385"><ele>339.0</ele><time>2026-03-29T11:27:43.324Z</time></trkpt><trkpt lat="43.1661317" lon="12.2363517"><ele>337.5</ele><time>2026-03-29T11:27:44.321Z</time></trkpt><trkpt lat="43.166195" lon="12.236315"><ele>336.0</ele><time>2026-03-29T11:27:45.322Z</time></trkpt><trkpt lat="43.1662567" lon="12.236275"><ele>335.0</ele><time>2026-03-29T11:27:46.32Z</time></trkpt><trkpt lat="43.1663133" lon="12.23623"><ele>334.0</ele><time>2026-03-29T11:27:47.322Z</time></trkpt><trkpt lat="43.16637" lon="12.2361817"><ele>333.0</ele><time>2026-03-29T11:27:48.323Z</time></trkpt><trkpt lat="43.16646" lon="12.2360683"><ele>332.0</ele><time>2026-03-29T11:27:50.322Z</time></trkpt><trkpt lat="43.166565" lon="12.2358717"><ele>331.0</ele><time>2026-03-29T11:27:53.326Z</time></trkpt><trkpt lat="43.166625" lon="12.2357267"><ele>329.4</ele><time>2026-03-29T11:27:55.322Z</time></trkpt><trkpt lat="43.16665" lon="12.235645"><ele>327.8</ele><time>2026-03-29T11:27:56.322Z</time></trkpt><trkpt lat="43.1667033" lon="12.2355017"><ele>326.2</ele><time>2026-03-29T11:27:58.32Z</time></trkpt><trkpt lat="43.1667783" lon="12.23541"><ele>324.59999999999997</ele><time>2026-03-29T11:28:00.32Z</time></trkpt><trkpt lat="43.1668633" lon="12.2353267"><ele>323.0</ele><time>2026-03-29T11:28:02.324Z</time></trkpt><trkpt lat="43.1669383" lon="12.2352383"><ele>322.4</ele><time>2026-03-29T11:28:04.324Z</time></trkpt><trkpt lat="43.166985" lon="12.2351183"><ele>321.79999999999995</ele><time>2026-03-29T11:28:06.321Z</time></trkpt><trkpt lat="43.1669883" lon="12.234955"><ele>321.2</ele><time>2026-03-29T11:28:08.321Z</time></trkpt><trkpt lat="43.1669367" lon="12.23481"><ele>320.6</ele><time>2026-03-29T11:28:10.323Z</time></trkpt><trkpt lat="43.1668567" lon="12.2347083"><ele>320.0</ele><time>2026-03-29T11:28:12.32Z</time></trkpt><trkpt lat="43.1667583" lon="12.2346167"><ele>317.6</ele><time>2026-03-29T11:28:14.329Z</time></trkpt><trkpt lat="43.1667183" lon="12.234495"><ele>315.2</ele><time>2026-03-29T11:28:16.321Z</time></trkpt><trkpt lat="43.1667017" lon="12.2343567"><ele>312.8</ele><time>2026-03-29T11:28:18.321Z</time></trkpt><trkpt lat="43.1666617" lon="12.23419"><ele>310.4</ele><time>2026-03-29T11:28:20.319Z</time></trkpt><trkpt lat="43.1666333" lon="12.2341083"><ele>308.0</ele><time>2026-03-29T11:28:21.32Z</time></trkpt><trkpt lat="43.1666017" lon="12.23402"><ele>306.5</ele><time>2026-03-29T11:28:22.325Z</time></trkpt><trkpt lat="43.1665733" lon="12.2339267"><ele>305.0</ele><time>2026-03-29T11:28:23.323Z</time></trkpt><trkpt lat="43.1665467" lon="12.2338283"><ele>303.5</ele><time>2026-03-29T11:28:24.324Z</time></trkpt><trkpt lat="43.1665183" lon="12.2337333"><ele>302.0</ele><time>2026-03-29T11:28:25.323Z</time></trkpt><trkpt lat="43.1664933" lon="12.23364"><ele>300.5</ele><time>2026-03-29T11:28:26.324Z</time></trkpt><trkpt lat="43.16647" lon="12.2335467"><ele>299.0</ele><time>2026-03-29T11:28:27.321Z</time></trkpt><trkpt lat="43.16644" lon="12.2334433"><ele>298.33333333333337</ele><time>2026-03-29T11:28:28.321Z</time></trkpt><trkpt lat="43.1664117" lon="12.23334"><ele>297.6666666666667</ele><time>2026-03-29T11:28:29.323Z</time></trkpt><trkpt lat="43.1663817" lon="12.233235"><ele>297.0</ele><time>2026-03-29T11:28:30.321Z</time></trkpt><trkpt lat="43.16635" lon="12.2331283"><ele>296.3333333333333</ele><time>2026-03-29T11:28:31.328Z</time></trkpt><trkpt lat="43.1663233" lon="12.2330133"><ele>295.66666666666663</ele><time>2026-03-29T11:28:32.321Z</time></trkpt><trkpt lat="43.1663017" lon="12.2328983"><ele>295.0</ele><time>2026-03-29T11:28:33.324Z</time></trkpt><trkpt lat="43.1662817" lon="12.2327967"><ele>293.8333333333333</ele><time>2026-03-29T11:28:34.322Z</time></trkpt><trkpt lat="43.166265" lon="12.232705"><ele>292.66666666666663</ele><time>2026-03-29T11:28:35.322Z</time></trkpt><trkpt lat="43.1662567" lon="12.2325583"><ele>291.5</ele><time>2026-03-29T11:28:37.323Z</time></trkpt><trkpt lat="43.166265" lon="12.2324617"><ele>290.3333333333333</ele><time>2026-03-29T11:28:38.324Z</time></trkpt><trkpt lat="43.1662733" lon="12.2323667"><ele>289.1666666666667</ele><time>2026-03-29T11:28:39.325Z</time></trkpt><trkpt lat="43.1662833" lon="12.2322683"><ele>288.0</ele><time>2026-03-29T11:28:40.325Z</time></trkpt><trkpt lat="43.1662917" lon="12.232165"><ele>287.1666666666667</ele><time>2026-03-29T11:28:41.321Z</time></trkpt><trkpt lat="43.1662933" lon="12.23206"><ele>286.3333333333333</ele><time>2026-03-29T11:28:42.324Z</time></trkpt><trkpt lat="43.1662767" lon="12.2319583"><ele>285.5</ele><time>2026-03-29T11:28:43.325Z</time></trkpt><trkpt lat="43.1662467" lon="12.2318567"><ele>284.66666666666663</ele><time>2026-03-29T11:28:44.324Z</time></trkpt><trkpt lat="43.166215" lon="12.2317583"><ele>283.8333333333333</ele><time>2026-03-29T11:28:45.323Z</time></trkpt><trkpt lat="43.166195" lon="12.2316683"><ele>283.0</ele><time>2026-03-29T11:28:46.325Z</time></trkpt><trkpt lat="43.1662167" lon="12.2315067"><ele>281.2</ele><time>2026-03-29T11:28:48.322Z</time></trkpt><trkpt lat="43.1662567" lon="12.2313417"><ele>279.4</ele><time>2026-03-29T11:28:50.323Z</time></trkpt><trkpt lat="43.16626" lon="12.2312517"><ele>277.59999999999997</ele><time>2026-03-29T11:28:51.322Z</time></trkpt><trkpt lat="43.1661817" lon="12.2311367"><ele>275.8</ele><time>2026-03-29T11:28:53.319Z</time></trkpt><trkpt lat="43.16611" lon="12.2311083"><ele>274.0</ele><time>2026-03-29T11:28:54.323Z</time></trkpt><trkpt lat="43.1660367" lon="12.2310967"><ele>274.0</ele><time>2026-03-29T11:28:55.32Z</time></trkpt><trkpt lat="43.1659517" lon="12.2311083"><ele>274.0</ele><time>2026-03-29T11:28:56.325Z</time></trkpt><trkpt lat="43.165865" lon="12.2311333"><ele>274.0</ele><time>2026-03-29T11:28:57.324Z</time></trkpt><trkpt lat="43.1658017" lon="12.2311967"><ele>274.0</ele><time>2026-03-29T11:28:58.328Z</time></trkpt><trkpt lat="43.1657567" lon="12.2312833"><ele>274.0</ele><time>2026-03-29T11:28:59.324Z</time></trkpt><trkpt lat="43.1657283" lon="12.2314"><ele>274.0</ele><time>2026-03-29T11:29:00.324Z</time></trkpt><trkpt lat="43.165705" lon="12.2315383"><ele>274.3333333333333</ele><time>2026-03-29T11:29:01.321Z</time></trkpt><trkpt lat="43.16569" lon="12.23166"><ele>274.66666666666663</ele><time>2026-03-29T11:29:02.322Z</time></trkpt><trkpt lat="43.1656667" lon="12.2317767"><ele>275.0</ele><time>2026-03-29T11:29:03.322Z</time></trkpt><trkpt lat="43.1656333" lon="12.231875"><ele>275.3333333333333</ele><time>2026-03-29T11:29:04.32Z</time></trkpt><trkpt lat="43.16559" lon="12.231945"><ele>275.6666666666667</ele><time>2026-03-29T11:29:05.324Z</time></trkpt><trkpt lat="43.165505" lon="12.2320117"><ele>276.0</ele><time>2026-03-29T11:29:07.321Z</time></trkpt><trkpt lat="43.1654067" lon="12.2319333"><ele>276.0</ele><time>2026-03-29T11:29:09.322Z</time></trkpt><trkpt lat="43.165325" lon="12.2317867"><ele>276.0</ele><time>2026-03-29T11:29:10.319Z</time></trkpt><trkpt lat="43.1652417" lon="12.2316383"><ele>276.0</ele><time>2026-03-29T11:29:11.32Z</time></trkpt><trkpt lat="43.1651533" lon="12.2314783"><ele>276.0</ele><time>2026-03-29T11:29:12.32Z</time></trkpt><trkpt lat="43.1650683" lon="12.23132"><ele>275.0</ele><time>2026-03-29T11:29:13.32Z</time></trkpt><trkpt lat="43.1649833" lon="12.231165"><ele>274.0</ele><time>2026-03-29T11:29:14.32Z</time></trkpt><trkpt lat="43.1649017" lon="12.2310083"><ele>273.0</ele><time>2026-03-29T11:29:15.322Z</time></trkpt><trkpt lat="43.1648283" lon="12.23085"><ele>272.0</ele><time>2026-03-29T11:29:16.319Z</time></trkpt><trkpt lat="43.1647617" lon="12.2306867"><ele>271.5</ele><time>2026-03-29T11:29:17.323Z</time></trkpt><trkpt lat="43.1647017" lon="12.2305167"><ele>271.0</ele><time>2026-03-29T11:29:18.32Z</time></trkpt><trkpt lat="43.1646617" lon="12.2303383"><ele>270.5</ele><time>2026-03-29T11:29:19.322Z</time></trkpt><trkpt lat="43.1646433" lon="12.2301483"><ele>270.0</ele><time>2026-03-29T11:29:20.321Z</time></trkpt><trkpt lat="43.1646467" lon="12.2299533"><ele>269.5</ele><time>2026-03-29T11:29:21.323Z</time></trkpt><trkpt lat="43.1646683" lon="12.2297517"><ele>269.0</ele><time>2026-03-29T11:29:22.325Z</time></trkpt><trkpt lat="43.1647083" lon="12.229555"><ele>268.5</ele><time>2026-03-29T11:29:23.321Z</time></trkpt><trkpt lat="43.1647517" lon="12.2293583"><ele>268.0</ele><time>2026-03-29T11:29:24.321Z</time></trkpt><trkpt lat="43.1648083" lon="12.229185"><ele>267.25</ele><time>2026-03-29T11:29:25.322Z</time></trkpt><trkpt lat="43.164875" lon="12.2290033"><ele>266.5</ele><time>2026-03-29T11:29:26.324Z</time></trkpt><trkpt lat="43.1649433" lon="12.2288183"><ele>265.75</ele><time>2026-03-29T11:29:27.324Z</time></trkpt><trkpt lat="43.16501" lon="12.2286467"><ele>265.0</ele><time>2026-03-29T11:29:28.324Z</time></trkpt><trkpt lat="43.16508" lon="12.228485"><ele>265.0</ele><time>2026-03-29T11:29:29.323Z</time></trkpt><trkpt lat="43.165155" lon="12.2283467"><ele>265.0</ele><time>2026-03-29T11:29:30.32Z</time></trkpt><trkpt lat="43.1652383" lon="12.2282233"><ele>265.0</ele><time>2026-03-29T11:29:31.323Z</time></trkpt><trkpt lat="43.16532" lon="12.2281217"><ele>265.0</ele><time>2026-03-29T11:29:32.321Z</time></trkpt><trkpt lat="43.1653883" lon="12.22802"><ele>264.4</ele><time>2026-03-29T11:29:33.322Z</time></trkpt><trkpt lat="43.1654417" lon="12.2279367"><ele>263.8</ele><time>2026-03-29T11:29:34.323Z</time></trkpt><trkpt lat="43.165495" lon="12.2278633"><ele>263.2</ele><time>2026-03-29T11:29:35.325Z</time></trkpt><trkpt lat="43.1655517" lon="12.227795"><ele>262.6</ele><time>2026-03-29T11:29:36.321Z</time></trkpt><trkpt lat="43.1656283" lon="12.2277317"><ele>262.0</ele><time>2026-03-29T11:29:37.32Z</time></trkpt><trkpt lat="43.1657567" lon="12.22766"><ele>261.66666666666663</ele><time>2026-03-29T11:29:38.321Z</time></trkpt><trkpt lat="43.1658867" lon="12.2275517"><ele>261.3333333333333</ele><time>2026-03-29T11:29:39.324Z</time></trkpt><trkpt lat="43.1660067" lon="12.2274183"><ele>261.0</ele><time>2026-03-29T11:29:40.32Z</time></trkpt><trkpt lat="43.1661317" lon="12.2272833"><ele>261.0</ele><time>2026-03-29T11:29:41.32Z</time></trkpt><trkpt lat="43.1662567" lon="12.2271633"><ele>261.0</ele><time>2026-03-29T11:29:42.324Z</time></trkpt><trkpt lat="43.1663783" lon="12.2270517"><ele>261.0</ele><time>2026-03-29T11:29:43.32Z</time></trkpt><trkpt lat="43.1664917" lon="12.2269333"><ele>261.0</ele><time>2026-03-29T11:29:44.324Z</time></trkpt><trkpt lat="43.166595" lon="12.226795"><ele>261.0</ele><time>2026-03-29T11:29:45.32Z</time></trkpt><trkpt lat="43.166685" lon="12.2266483"><ele>261.0</ele><time>2026-03-29T11:29:46.322Z</time></trkpt><trkpt lat="43.1667617" lon="12.2265167"><ele>261.0</ele><time>2026-03-29T11:29:47.32Z</time></trkpt><trkpt lat="43.1668233" lon="12.2264"><ele>261.0</ele><time>2026-03-29T11:29:48.324Z</time></trkpt><trkpt lat="43.1668717" lon="12.2263033"><ele>261.2</ele><time>2026-03-29T11:29:49.325Z</time></trkpt><trkpt lat="43.1669067" lon="12.2262267"><ele>261.40000000000003</ele><time>2026-03-29T11:29:50.324Z</time></trkpt><trkpt lat="43.1669383" lon="12.226105"><ele>261.6</ele><time>2026-03-29T11:29:52.325Z</time></trkpt><trkpt lat="43.1669067" lon="12.22598"><ele>261.8</ele><time>2026-03-29T11:29:54.326Z</time></trkpt><trkpt lat="43.166805" lon="12.225855"><ele>262.0</ele><time>2026-03-29T11:29:56.323Z</time></trkpt><trkpt lat="43.1667267" lon="12.22579"><ele>262.0</ele><time>2026-03-29T11:29:57.324Z</time></trkpt><trkpt lat="43.166645" lon="12.22572"><ele>262.0</ele><time>2026-03-29T11:29:58.325Z</time></trkpt><trkpt lat="43.16656" lon="12.22564"><ele>262.0</ele><time>2026-03-29T11:29:59.324Z</time></trkpt><trkpt lat="43.1664667" lon="12.2255517"><ele>262.0</ele><time>2026-03-29T11:30:00.322Z</time></trkpt><trkpt lat="43.1663617" lon="12.2254567"><ele>262.0</ele><time>2026-03-29T11:30:01.322Z</time></trkpt><trkpt lat="43.1662483" lon="12.2253483"><ele>261.25</ele><time>2026-03-29T11:30:02.322Z</time></trkpt><trkpt lat="43.1661383" lon="12.2252467"><ele>260.5</ele><time>2026-03-29T11:30:03.325Z</time></trkpt><trkpt lat="43.166025" lon="12.2251383"><ele>259.75</ele><time>2026-03-29T11:30:04.321Z</time></trkpt><trkpt lat="43.1659133" lon="12.2250283"><ele>259.0</ele><time>2026-03-29T11:30:05.322Z</time></trkpt><trkpt lat="43.1658033" lon="12.2249167"><ele>258.75</ele><time>2026-03-29T11:30:06.322Z</time></trkpt><trkpt lat="43.16569" lon="12.2248033"><ele>258.5</ele><time>2026-03-29T11:30:07.322Z</time></trkpt><trkpt lat="43.165575" lon="12.2246833"><ele>258.25</ele><time>2026-03-29T11:30:08.324Z</time></trkpt><trkpt lat="43.165465" lon="12.224555"><ele>258.0</ele><time>2026-03-29T11:30:09.324Z</time></trkpt><trkpt lat="43.1653567" lon="12.224425"><ele>258.0</ele><time>2026-03-29T11:30:10.326Z</time></trkpt><trkpt lat="43.1652483" lon="12.2242883"><ele>258.0</ele><time>2026-03-29T11:30:11.326Z</time></trkpt><trkpt lat="43.1651383" lon="12.2241483"><ele>258.0</ele><time>2026-03-29T11:30:12.326Z</time></trkpt><trkpt lat="43.1650283" lon="12.2240033"><ele>257.75</ele><time>2026-03-29T11:30:13.324Z</time></trkpt><trkpt lat="43.16492" lon="12.22386"><ele>257.5</ele><time>2026-03-29T11:30:14.324Z</time></trkpt><trkpt lat="43.1648133" lon="12.2237183"><ele>257.25</ele><time>2026-03-29T11:30:15.321Z</time></trkpt><trkpt lat="43.164705" lon="12.2235767"><ele>257.0</ele><time>2026-03-29T11:30:16.321Z</time></trkpt><trkpt lat="43.1645967" lon="12.223435"><ele>256.5</ele><time>2026-03-29T11:30:17.321Z</time></trkpt><trkpt lat="43.1644917" lon="12.2232933"><ele>256.0</ele><time>2026-03-29T11:30:18.322Z</time></trkpt><trkpt lat="43.164385" lon="12.22315"><ele>255.5</ele><time>2026-03-29T11:30:19.322Z</time></trkpt><trkpt lat="43.1642833" lon="12.2230067"><ele>255.0</ele><time>2026-03-29T11:30:20.327Z</time></trkpt><trkpt lat="43.1641817" lon="12.2228733"><ele>255.0</ele><time>2026-03-29T11:30:21.326Z</time></trkpt><trkpt lat="43.164085" lon="12.2227417"><ele>255.0</ele><time>2026-03-29T11:30:22.326Z</time></trkpt><trkpt lat="43.1639933" lon="12.222615"><ele>255.0</ele><time>2026-03-29T11:30:23.322Z</time></trkpt><trkpt lat="43.1639083" lon="12.222495"><ele>255.0</ele><time>2026-03-29T11:30:24.324Z</time></trkpt><trkpt lat="43.1638317" lon="12.2223883"><ele>255.0</ele><time>2026-03-29T11:30:25.322Z</time></trkpt><trkpt lat="43.1637617" lon="12.22229"><ele>255.0</ele><time>2026-03-29T11:30:26.328Z</time></trkpt><trkpt lat="43.1637017" lon="12.2222033"><ele>255.0</ele><time>2026-03-29T11:30:27.326Z</time></trkpt><trkpt lat="43.16365" lon="12.2221317"><ele>255.0</ele><time>2026-03-29T11:30:28.325Z</time></trkpt><trkpt lat="43.163585" lon="12.2220267"><ele>255.0</ele><time>2026-03-29T11:30:30.324Z</time></trkpt><trkpt lat="43.16361" lon="12.221945"><ele>255.0</ele><time>2026-03-29T11:30:33.325Z</time></trkpt><trkpt lat="43.1636967" lon="12.2218883"><ele>255.0</ele><time>2026-03-29T11:30:35.323Z</time></trkpt><trkpt lat="43.163765" lon="12.2218433"><ele>255.0</ele><time>2026-03-29T11:30:36.322Z</time></trkpt><trkpt lat="43.1638467" lon="12.2217833"><ele>255.0</ele><time>2026-03-29T11:30:37.323Z</time></trkpt><trkpt lat="43.1639317" lon="12.2217133"><ele>255.0</ele><time>2026-03-29T11:30:38.325Z</time></trkpt><trkpt lat="43.164025" lon="12.221635"><ele>255.0</ele><time>2026-03-29T11:30:39.326Z</time></trkpt><trkpt lat="43.1641167" lon="12.2215583"><ele>255.33333333333334</ele><time>2026-03-29T11:30:40.323Z</time></trkpt><trkpt lat="43.1641983" lon="12.2214917"><ele>255.66666666666669</ele><time>2026-03-29T11:30:41.326Z</time></trkpt><trkpt lat="43.164265" lon="12.2214367"><ele>256.0</ele><time>2026-03-29T11:30:42.322Z</time></trkpt><trkpt lat="43.1643183" lon="12.221385"><ele>256.33333333333337</ele><time>2026-03-29T11:30:43.323Z</time></trkpt><trkpt lat="43.164375" lon="12.2213333"><ele>256.6666666666667</ele><time>2026-03-29T11:30:44.323Z</time></trkpt><trkpt lat="43.16444" lon="12.2212883"><ele>257.0</ele><time>2026-03-29T11:30:45.322Z</time></trkpt><trkpt lat="43.1645167" lon="12.2212367"><ele>257.0</ele><time>2026-03-29T11:30:46.323Z</time></trkpt><trkpt lat="43.1646033" lon="12.221175"><ele>257.0</ele><time>2026-03-29T11:30:47.324Z</time></trkpt><trkpt lat="43.16469" lon="12.2211033"><ele>257.0</ele><time>2026-03-29T11:30:48.326Z</time></trkpt><trkpt lat="43.1647783" lon="12.22103"><ele>257.0</ele><time>2026-03-29T11:30:49.325Z</time></trkpt><trkpt lat="43.164875" lon="12.2209567"><ele>257.0</ele><time>2026-03-29T11:30:50.324Z</time></trkpt><trkpt lat="43.1649783" lon="12.2208867"><ele>257.25</ele><time>2026-03-29T11:30:51.323Z</time></trkpt><trkpt lat="43.1650867" lon="12.2208167"><ele>257.5</ele><time>2026-03-29T11:30:52.322Z</time></trkpt><trkpt lat="43.1652017" lon="12.2207467"><ele>257.75</ele><time>2026-03-29T11:30:53.327Z</time></trkpt><trkpt lat="43.16532" lon="12.22068"><ele>258.0</ele><time>2026-03-29T11:30:54.323Z</time></trkpt><trkpt lat="43.16544" lon="12.2206167"><ele>258.25</ele><time>2026-03-29T11:30:55.324Z</time></trkpt><trkpt lat="43.1655617" lon="12.220555"><ele>258.5</ele><time>2026-03-29T11:30:56.324Z</time></trkpt><trkpt lat="43.1656833" lon="12.2204917"><ele>258.75</ele><time>2026-03-29T11:30:57.327Z</time></trkpt><trkpt lat="43.1658017" lon="12.2204283"><ele>259.0</ele><time>2026-03-29T11:30:58.324Z</time></trkpt><trkpt lat="43.16592" lon="12.2203633"><ele>259.0</ele><time>2026-03-29T11:30:59.323Z</time></trkpt><trkpt lat="43.1660383" lon="12.2202967"><ele>259.0</ele><time>2026-03-29T11:31:00.321Z</time></trkpt><trkpt lat="43.1661567" lon="12.2202317"><ele>259.0</ele><time>2026-03-29T11:31:01.326Z</time></trkpt><trkpt lat="43.166275" lon="12.220165"><ele>259.0</ele><time>2026-03-29T11:31:02.321Z</time></trkpt><trkpt lat="43.1663967" lon="12.220095"><ele>259.0</ele><time>2026-03-29T11:31:03.322Z</time></trkpt><trkpt lat="43.1665217" lon="12.220025"><ele>259.0</ele><time>2026-03-29T11:31:04.324Z</time></trkpt><trkpt lat="43.1666467" lon="12.2199567"><ele>259.0</ele><time>2026-03-29T11:31:05.324Z</time></trkpt><trkpt lat="43.1667733" lon="12.2198883"><ele>259.0</ele><time>2026-03-29T11:31:06.325Z</time></trkpt><trkpt lat="43.1669017" lon="12.2198183"><ele>259.25</ele><time>2026-03-29T11:31:07.323Z</time></trkpt><trkpt lat="43.16703" lon="12.2197467"><ele>259.5</ele><time>2026-03-29T11:31:08.324Z</time></trkpt><trkpt lat="43.1671567" lon="12.219675"><ele>259.75</ele><time>2026-03-29T11:31:09.325Z</time></trkpt><trkpt lat="43.1672867" lon="12.219605"><ele>260.0</ele><time>2026-03-29T11:31:10.324Z</time></trkpt><trkpt lat="43.1674117" lon="12.2195367"><ele>260.25</ele><time>2026-03-29T11:31:11.322Z</time></trkpt><trkpt lat="43.1675367" lon="12.21947"><ele>260.5</ele><time>2026-03-29T11:31:12.324Z</time></trkpt><trkpt lat="43.1676583" lon="12.219405"><ele>260.75</ele><time>2026-03-29T11:31:13.322Z</time></trkpt><trkpt lat="43.1677783" lon="12.21934"><ele>261.0</ele><time>2026-03-29T11:31:14.323Z</time></trkpt><trkpt lat="43.167905" lon="12.2192733"><ele>261.0</ele><time>2026-03-29T11:31:15.327Z</time></trkpt><trkpt lat="43.1680317" lon="12.219205"><ele>261.0</ele><time>2026-03-29T11:31:16.324Z</time></trkpt><trkpt lat="43.1681567" lon="12.2191383"><ele>261.0</ele><time>2026-03-29T11:31:17.323Z</time></trkpt><trkpt lat="43.1682783" lon="12.2190717"><ele>261.0</ele><time>2026-03-29T11:31:18.323Z</time></trkpt><trkpt lat="43.1683967" lon="12.2190083"><ele>261.5</ele><time>2026-03-29T11:31:19.322Z</time></trkpt><trkpt lat="43.1685167" lon="12.2189417"><ele>262.0</ele><time>2026-03-29T11:31:20.323Z</time></trkpt><trkpt lat="43.1686417" lon="12.2188733"><ele>262.5</ele><time>2026-03-29T11:31:21.323Z</time></trkpt><trkpt lat="43.168765" lon="12.2188067"><ele>263.0</ele><time>2026-03-29T11:31:22.323Z</time></trkpt><trkpt lat="43.1688883" lon="12.21874"><ele>263.0</ele><time>2026-03-29T11:31:23.321Z</time></trkpt><trkpt lat="43.1690083" lon="12.2186767"><ele>263.0</ele><time>2026-03-29T11:31:24.321Z</time></trkpt><trkpt lat="43.1691267" lon="12.2186133"><ele>263.0</ele><time>2026-03-29T11:31:25.321Z</time></trkpt><trkpt lat="43.1692383" lon="12.2185533"><ele>263.0</ele><time>2026-03-29T11:31:26.326Z</time></trkpt><trkpt lat="43.169345" lon="12.218495"><ele>263.8</ele><time>2026-03-29T11:31:27.323Z</time></trkpt><trkpt lat="43.1694433" lon="12.2184383"><ele>264.6</ele><time>2026-03-29T11:31:28.326Z</time></trkpt><trkpt lat="43.1695367" lon="12.2183833"><ele>265.4</ele><time>2026-03-29T11:31:29.324Z</time></trkpt><trkpt lat="43.1696217" lon="12.2183333"><ele>266.2</ele><time>2026-03-29T11:31:30.322Z</time></trkpt><trkpt lat="43.1696967" lon="12.2182867"><ele>267.0</ele><time>2026-03-29T11:31:31.325Z</time></trkpt><trkpt lat="43.1697667" lon="12.2182467"><ele>267.0</ele><time>2026-03-29T11:31:32.328Z</time></trkpt><trkpt lat="43.169835" lon="12.218215"><ele>267.0</ele><time>2026-03-29T11:31:33.323Z</time></trkpt><trkpt lat="43.1699017" lon="12.2182"><ele>267.0</ele><time>2026-03-29T11:31:34.318Z</time></trkpt><trkpt lat="43.1700133" lon="12.2181867"><ele>267.0</ele><time>2026-03-29T11:31:36.32Z</time></trkpt><trkpt lat="43.1701317" lon="12.21814"><ele>267.0</ele><time>2026-03-29T11:31:38.319Z</time></trkpt><trkpt lat="43.17023" lon="12.2181"><ele>267.5</ele><time>2026-03-29T11:31:39.32Z</time></trkpt><trkpt lat="43.1703433" lon="12.21805"><ele>268.0</ele><time>2026-03-29T11:31:40.32Z</time></trkpt><trkpt lat="43.1704583" lon="12.2180017"><ele>268.5</ele><time>2026-03-29T11:31:41.32Z</time></trkpt><trkpt lat="43.1705633" lon="12.2179617"><ele>269.0</ele><time>2026-03-29T11:31:42.319Z</time></trkpt><trkpt lat="43.1706617" lon="12.2179167"><ele>270.2</ele><time>2026-03-29T11:31:43.322Z</time></trkpt><trkpt lat="43.1707617" lon="12.21787"><ele>271.4</ele><time>2026-03-29T11:31:44.321Z</time></trkpt><trkpt lat="43.1708583" lon="12.2178217"><ele>272.6</ele><time>2026-03-29T11:31:45.32Z</time></trkpt><trkpt lat="43.17096" lon="12.2177833"><ele>273.8</ele><time>2026-03-29T11:31:46.32Z</time></trkpt><trkpt lat="43.17106" lon="12.21776"><ele>275.0</ele><time>2026-03-29T11:31:47.321Z</time></trkpt><trkpt lat="43.17116" lon="12.2177317"><ele>275.0</ele><time>2026-03-29T11:31:48.32Z</time></trkpt><trkpt lat="43.1712617" lon="12.217695"><ele>275.0</ele><time>2026-03-29T11:31:49.321Z</time></trkpt><trkpt lat="43.1713617" lon="12.2176533"><ele>275.0</ele><time>2026-03-29T11:31:50.324Z</time></trkpt><trkpt lat="43.1714633" lon="12.2176083"><ele>275.0</ele><time>2026-03-29T11:31:51.321Z</time></trkpt><trkpt lat="43.1715633" lon="12.2175633"><ele>275.0</ele><time>2026-03-29T11:31:52.32Z</time></trkpt><trkpt lat="43.1716533" lon="12.2175333"><ele>276.2</ele><time>2026-03-29T11:31:53.32Z</time></trkpt><trkpt lat="43.1717283" lon="12.2175233"><ele>277.4</ele><time>2026-03-29T11:31:54.32Z</time></trkpt><trkpt lat="43.1718333" lon="12.21755"><ele>278.6</ele><time>2026-03-29T11:31:56.32Z</time></trkpt><trkpt lat="43.1719317" lon="12.2176133"><ele>279.8</ele><time>2026-03-29T11:31:58.319Z</time></trkpt><trkpt lat="43.17204" lon="12.2176867"><ele>281.0</ele><time>2026-03-29T11:32:00.32Z</time></trkpt><trkpt lat="43.1721133" lon="12.21772"><ele>281.0</ele><time>2026-03-29T11:32:01.322Z</time></trkpt><trkpt lat="43.1722017" lon="12.2177533"><ele>281.0</ele><time>2026-03-29T11:32:02.32Z</time></trkpt><trkpt lat="43.1722933" lon="12.2177833"><ele>281.0</ele><time>2026-03-29T11:32:03.319Z</time></trkpt><trkpt lat="43.1723883" lon="12.2178167"><ele>281.0</ele><time>2026-03-29T11:32:04.319Z</time></trkpt><trkpt lat="43.172485" lon="12.2178517"><ele>281.0</ele><time>2026-03-29T11:32:05.32Z</time></trkpt><trkpt lat="43.1725833" lon="12.2178883"><ele>282.2</ele><time>2026-03-29T11:32:06.322Z</time></trkpt><trkpt lat="43.17269" lon="12.2179367"><ele>283.40000000000003</ele><time>2026-03-29T11:32:07.32Z</time></trkpt><trkpt lat="43.1727983" lon="12.217985"><ele>284.6</ele><time>2026-03-29T11:32:08.32Z</time></trkpt><trkpt lat="43.1728983" lon="12.218025"><ele>285.8</ele><time>2026-03-29T11:32:09.32Z</time></trkpt><trkpt lat="43.17299" lon="12.2180617"><ele>287.0</ele><time>2026-03-29T11:32:10.319Z</time></trkpt><trkpt lat="43.1730733" lon="12.2180983"><ele>287.0</ele><time>2026-03-29T11:32:11.32Z</time></trkpt><trkpt lat="43.1731467" lon="12.218135"><ele>287.0</ele><time>2026-03-29T11:32:12.32Z</time></trkpt><trkpt lat="43.1732083" lon="12.2181733"><ele>287.0</ele><time>2026-03-29T11:32:13.323Z</time></trkpt><trkpt lat="43.1733017" lon="12.218235"><ele>287.0</ele><time>2026-03-29T11:32:15.321Z</time></trkpt><trkpt lat="43.17337" lon="12.21817"><ele>287.0</ele><time>2026-03-29T11:32:18.324Z</time></trkpt><trkpt lat="43.1733717" lon="12.21807"><ele>287.0</ele><time>2026-03-29T11:32:19.319Z</time></trkpt><trkpt lat="43.1733783" lon="12.2179483"><ele>287.0</ele><time>2026-03-29T11:32:20.324Z</time></trkpt><trkpt lat="43.1733933" lon="12.217815"><ele>287.0</ele><time>2026-03-29T11:32:21.32Z</time></trkpt><trkpt lat="43.1734117" lon="12.21767"><ele>287.0</ele><time>2026-03-29T11:32:22.321Z</time></trkpt><trkpt lat="43.1734367" lon="12.217515"><ele>287.0</ele><time>2026-03-29T11:32:23.32Z</time></trkpt><trkpt lat="43.1734583" lon="12.2173583"><ele>287.0</ele><time>2026-03-29T11:32:24.323Z</time></trkpt><trkpt lat="43.1734817" lon="12.2171933"><ele>287.0</ele><time>2026-03-29T11:32:25.32Z</time></trkpt><trkpt lat="43.1735117" lon="12.2170117"><ele>287.0</ele><time>2026-03-29T11:32:26.32Z</time></trkpt><trkpt lat="43.1735383" lon="12.2168283"><ele>287.0</ele><time>2026-03-29T11:32:27.321Z</time></trkpt><trkpt lat="43.173565" lon="12.2166433"><ele>287.0</ele><time>2026-03-29T11:32:28.32Z</time></trkpt><trkpt lat="43.173595" lon="12.2164433"><ele>286.5</ele><time>2026-03-29T11:32:29.323Z</time></trkpt><trkpt lat="43.173625" lon="12.2162483"><ele>286.0</ele><time>2026-03-29T11:32:30.321Z</time></trkpt><trkpt lat="43.173655" lon="12.2160617"><ele>285.5</ele><time>2026-03-29T11:32:31.32Z</time></trkpt><trkpt lat="43.1736817" lon="12.21589"><ele>285.0</ele><time>2026-03-29T11:32:32.322Z</time></trkpt><trkpt lat="43.1737083" lon="12.2157283"><ele>284.8333333333333</ele><time>2026-03-29T11:32:33.319Z</time></trkpt><trkpt lat="43.1737283" lon="12.21559"><ele>284.6666666666667</ele><time>2026-03-29T11:32:34.318Z</time></trkpt><trkpt lat="43.17374" lon="12.2154583"><ele>284.5</ele><time>2026-03-29T11:32:35.323Z</time></trkpt><trkpt lat="43.1737433" lon="12.215345"><ele>284.33333333333337</ele><time>2026-03-29T11:32:36.322Z</time></trkpt><trkpt lat="43.1737533" lon="12.2152483"><ele>284.1666666666667</ele><time>2026-03-29T11:32:37.321Z</time></trkpt><trkpt lat="43.1737667" lon="12.2151583"><ele>284.0</ele><time>2026-03-29T11:32:38.327Z</time></trkpt><trkpt lat="43.1737767" lon="12.2150083"><ele>284.0</ele><time>2026-03-29T11:32:40.321Z</time></trkpt><trkpt lat="43.173705" lon="12.214905"><ele>284.0</ele><time>2026-03-29T11:32:42.324Z</time></trkpt><trkpt lat="43.1736417" lon="12.214865"><ele>284.0</ele><time>2026-03-29T11:32:43.329Z</time></trkpt><trkpt lat="43.1735583" lon="12.2148233"><ele>284.0</ele><time>2026-03-29T11:32:44.318Z</time></trkpt><trkpt lat="43.17344" lon="12.21478"><ele>284.0</ele><time>2026-03-29T11:32:45.323Z</time></trkpt><trkpt lat="43.1733083" lon="12.2147433"><ele>283.0</ele><time>2026-03-29T11:32:46.324Z</time></trkpt><trkpt lat="43.173185" lon="12.2147"><ele>282.0</ele><time>2026-03-29T11:32:47.325Z</time></trkpt><trkpt lat="43.1730567" lon="12.214645"><ele>281.0</ele><time>2026-03-29T11:32:48.323Z</time></trkpt><trkpt lat="43.1729383" lon="12.21457"><ele>280.0</ele><time>2026-03-29T11:32:49.324Z</time></trkpt><trkpt lat="43.1728383" lon="12.21448"><ele>280.0</ele><time>2026-03-29T11:32:50.323Z</time></trkpt><trkpt lat="43.17275" lon="12.2143733"><ele>280.0</ele><time>2026-03-29T11:32:51.321Z</time></trkpt><trkpt lat="43.1726783" lon="12.214255"><ele>280.0</ele><time>2026-03-29T11:32:52.323Z</time></trkpt><trkpt lat="43.17263" lon="12.2141183"><ele>280.0</ele><time>2026-03-29T11:32:53.322Z</time></trkpt><trkpt lat="43.17261" lon="12.21397"><ele>279.6</ele><time>2026-03-29T11:32:54.325Z</time></trkpt><trkpt lat="43.1726167" lon="12.2138267"><ele>279.2</ele><time>2026-03-29T11:32:55.321Z</time></trkpt><trkpt lat="43.172645" lon="12.213695"><ele>278.8</ele><time>2026-03-29T11:32:56.326Z</time></trkpt><trkpt lat="43.17269" lon="12.2135683"><ele>278.4</ele><time>2026-03-29T11:32:57.322Z</time></trkpt><trkpt lat="43.1727517" lon="12.2134417"><ele>278.0</ele><time>2026-03-29T11:32:58.325Z</time></trkpt><trkpt lat="43.1728217" lon="12.21331"><ele>278.0</ele><time>2026-03-29T11:32:59.32Z</time></trkpt><trkpt lat="43.1728983" lon="12.2131733"><ele>278.0</ele><time>2026-03-29T11:33:00.321Z</time></trkpt><trkpt lat="43.1729783" lon="12.2130367"><ele>278.0</ele><time>2026-03-29T11:33:01.324Z</time></trkpt><trkpt lat="43.1730567" lon="12.212895"><ele>278.0</ele><time>2026-03-29T11:33:02.323Z</time></trkpt><trkpt lat="43.173135" lon="12.212745"><ele>278.0</ele><time>2026-03-29T11:33:03.321Z</time></trkpt><trkpt lat="43.1732067" lon="12.2125767"><ele>278.0</ele><time>2026-03-29T11:33:04.322Z</time></trkpt><trkpt lat="43.1732733" lon="12.212405"><ele>278.0</ele><time>2026-03-29T11:33:05.323Z</time></trkpt><trkpt lat="43.1733367" lon="12.212245"><ele>278.0</ele><time>2026-03-29T11:33:06.323Z</time></trkpt><trkpt lat="43.173395" lon="12.2120917"><ele>278.0</ele><time>2026-03-29T11:33:07.321Z</time></trkpt><trkpt lat="43.1734467" lon="12.2119483"><ele>278.0</ele><time>2026-03-29T11:33:08.324Z</time></trkpt><trkpt lat="43.1734867" lon="12.2118067"><ele>278.0</ele><time>2026-03-29T11:33:09.326Z</time></trkpt><trkpt lat="43.17351" lon="12.2116833"><ele>278.0</ele><time>2026-03-29T11:33:10.322Z</time></trkpt><trkpt lat="43.1735233" lon="12.2115667"><ele>278.0</ele><time>2026-03-29T11:33:11.324Z</time></trkpt><trkpt lat="43.17354" lon="12.2114683"><ele>277.83333333333337</ele><time>2026-03-29T11:33:12.324Z</time></trkpt><trkpt lat="43.1735617" lon="12.2113817"><ele>277.6666666666667</ele><time>2026-03-29T11:33:13.324Z</time></trkpt><trkpt lat="43.17359" lon="12.2112967"><ele>277.5</ele><time>2026-03-29T11:33:14.327Z</time></trkpt><trkpt lat="43.1736283" lon="12.211215"><ele>277.3333333333333</ele><time>2026-03-29T11:33:15.322Z</time></trkpt><trkpt lat="43.17368" lon="12.2111333"><ele>277.16666666666663</ele><time>2026-03-29T11:33:16.322Z</time></trkpt><trkpt lat="43.1737433" lon="12.21106"><ele>277.0</ele><time>2026-03-29T11:33:17.321Z</time></trkpt><trkpt lat="43.17382" lon="12.210995"><ele>277.0</ele><time>2026-03-29T11:33:18.321Z</time></trkpt><trkpt lat="43.1739117" lon="12.210935"><ele>277.0</ele><time>2026-03-29T11:33:19.321Z</time></trkpt><trkpt lat="43.17401" lon="12.2108833"><ele>277.0</ele><time>2026-03-29T11:33:20.326Z</time></trkpt><trkpt lat="43.1741117" lon="12.2108183"><ele>277.0</ele><time>2026-03-29T11:33:21.327Z</time></trkpt><trkpt lat="43.1742083" lon="12.2107333"><ele>277.0</ele><time>2026-03-29T11:33:22.323Z</time></trkpt><trkpt lat="43.1743" lon="12.2106333"><ele>277.6</ele><time>2026-03-29T11:33:23.321Z</time></trkpt><trkpt lat="43.174385" lon="12.2105283"><ele>278.2</ele><time>2026-03-29T11:33:24.323Z</time></trkpt><trkpt lat="43.17447" lon="12.21043"><ele>278.8</ele><time>2026-03-29T11:33:25.324Z</time></trkpt><trkpt lat="43.1745583" lon="12.2103467"><ele>279.4</ele><time>2026-03-29T11:33:26.323Z</time></trkpt><trkpt lat="43.1746517" lon="12.2102817"><ele>280.0</ele><time>2026-03-29T11:33:27.329Z</time></trkpt><trkpt lat="43.1747467" lon="12.210235"><ele>280.0</ele><time>2026-03-29T11:33:28.321Z</time></trkpt><trkpt lat="43.17484" lon="12.2102083"><ele>280.0</ele><time>2026-03-29T11:33:29.324Z</time></trkpt><trkpt lat="43.17493" lon="12.2101767"><ele>280.0</ele><time>2026-03-29T11:33:30.322Z</time></trkpt><trkpt lat="43.175005" lon="12.210135"><ele>280.0</ele><time>2026-03-29T11:33:31.321Z</time></trkpt><trkpt lat="43.1750633" lon="12.2100783"><ele>280.0</ele><time>2026-03-29T11:33:32.322Z</time></trkpt><trkpt lat="43.1751267" lon="12.2099367"><ele>280.8</ele><time>2026-03-29T11:33:34.326Z</time></trkpt><trkpt lat="43.175135" lon="12.2098283"><ele>281.6</ele><time>2026-03-29T11:33:35.324Z</time></trkpt><trkpt lat="43.175145" lon="12.20971"><ele>282.4</ele><time>2026-03-29T11:33:36.328Z</time></trkpt><trkpt lat="43.1751283" lon="12.2095633"><ele>283.2</ele><time>2026-03-29T11:33:37.325Z</time></trkpt><trkpt lat="43.175085" lon="12.20938"><ele>284.0</ele><time>2026-03-29T11:33:38.326Z</time></trkpt><trkpt lat="43.1750467" lon="12.2092417"><ele>284.0</ele><time>2026-03-29T11:33:39.326Z</time></trkpt><trkpt lat="43.1750283" lon="12.2090933"><ele>284.0</ele><time>2026-03-29T11:33:40.322Z</time></trkpt><trkpt lat="43.175025" lon="12.2089367"><ele>284.0</ele><time>2026-03-29T11:33:41.325Z</time></trkpt><trkpt lat="43.1750317" lon="12.2088117"><ele>284.0</ele><time>2026-03-29T11:33:42.322Z</time></trkpt><trkpt lat="43.1750483" lon="12.2086967"><ele>284.0</ele><time>2026-03-29T11:33:43.323Z</time></trkpt><trkpt lat="43.1750783" lon="12.20859"><ele>285.1428571428571</ele><time>2026-03-29T11:33:44.324Z</time></trkpt><trkpt lat="43.17511" lon="12.2085117"><ele>286.2857142857143</ele><time>2026-03-29T11:33:45.323Z</time></trkpt><trkpt lat="43.175145" lon="12.2084333"><ele>287.42857142857144</ele><time>2026-03-29T11:33:46.323Z</time></trkpt><trkpt lat="43.17518" lon="12.2083567"><ele>288.57142857142856</ele><time>2026-03-29T11:33:47.325Z</time></trkpt><trkpt lat="43.17522" lon="12.2082817"><ele>289.7142857142857</ele><time>2026-03-29T11:33:48.321Z</time></trkpt><trkpt lat="43.1752717" lon="12.208205"><ele>290.85714285714283</ele><time>2026-03-29T11:33:49.326Z</time></trkpt><trkpt lat="43.1753433" lon="12.2081217"><ele>292.0</ele><time>2026-03-29T11:33:50.33Z</time></trkpt><trkpt lat="43.17541" lon="12.2080383"><ele>294.0</ele><time>2026-03-29T11:33:51.322Z</time></trkpt><trkpt lat="43.175475" lon="12.2079617"><ele>296.0</ele><time>2026-03-29T11:33:52.324Z</time></trkpt><trkpt lat="43.1755267" lon="12.2078817"><ele>298.0</ele><time>2026-03-29T11:33:53.325Z</time></trkpt><trkpt lat="43.1755667" lon="12.20781"><ele>300.0</ele><time>2026-03-29T11:33:54.32Z</time></trkpt><trkpt lat="43.1755967" lon="12.2077133"><ele>302.0</ele><time>2026-03-29T11:33:56.327Z</time></trkpt><trkpt lat="43.1755817" lon="12.2076233"><ele>304.0</ele><time>2026-03-29T11:33:58.323Z</time></trkpt><trkpt lat="43.1755283" lon="12.2075433"><ele>304.0</ele><time>2026-03-29T11:34:00.322Z</time></trkpt><trkpt lat="43.1755233" lon="12.2074217"><ele>304.0</ele><time>2026-03-29T11:34:02.323Z</time></trkpt><trkpt lat="43.17554" lon="12.2073367"><ele>304.0</ele><time>2026-03-29T11:34:03.325Z</time></trkpt><trkpt lat="43.1755883" lon="12.20718"><ele>304.0</ele><time>2026-03-29T11:34:05.323Z</time></trkpt><trkpt lat="43.175625" lon="12.2070283"><ele>304.0</ele><time>2026-03-29T11:34:07.322Z</time></trkpt><trkpt lat="43.175635" lon="12.20687"><ele>306.3333333333333</ele><time>2026-03-29T11:34:09.324Z</time></trkpt><trkpt lat="43.1756383" lon="12.2067033"><ele>308.66666666666663</ele><time>2026-03-29T11:34:11.322Z</time></trkpt><trkpt lat="43.1756317" lon="12.2066067"><ele>311.0</ele><time>2026-03-29T11:34:12.322Z</time></trkpt><trkpt lat="43.1756233" lon="12.2065083"><ele>313.3333333333333</ele><time>2026-03-29T11:34:13.326Z</time></trkpt><trkpt lat="43.1756183" lon="12.2064167"><ele>315.6666666666667</ele><time>2026-03-29T11:34:14.324Z</time></trkpt><trkpt lat="43.1755917" lon="12.206335"><ele>318.0</ele><time>2026-03-29T11:34:16.323Z</time></trkpt><trkpt lat="43.1755117" lon="12.2063017"><ele>319.4</ele><time>2026-03-29T11:34:19.323Z</time></trkpt><trkpt lat="43.1754533" lon="12.206175"><ele>320.8</ele><time>2026-03-29T11:34:21.327Z</time></trkpt><trkpt lat="43.1753683" lon="12.2060433"><ele>322.2</ele><time>2026-03-29T11:34:23.323Z</time></trkpt><trkpt lat="43.1753233" lon="12.2059683"><ele>323.6</ele><time>2026-03-29T11:34:24.324Z</time></trkpt><trkpt lat="43.175275" lon="12.2058933"><ele>325.0</ele><time>2026-03-29T11:34:25.322Z</time></trkpt><trkpt lat="43.175225" lon="12.20582"><ele>325.0</ele><time>2026-03-29T11:34:26.325Z</time></trkpt><trkpt lat="43.175175" lon="12.20575"><ele>325.0</ele><time>2026-03-29T11:34:27.326Z</time></trkpt><trkpt lat="43.175135" lon="12.2056833"><ele>325.0</ele><time>2026-03-29T11:34:28.323Z</time></trkpt><trkpt lat="43.1750817" lon="12.2055867"><ele>325.0</ele><time>2026-03-29T11:34:30.322Z</time></trkpt><trkpt lat="43.175085" lon="12.2056733"><ele>325.0</ele><time>2026-03-29T11:34:36.325Z</time></trkpt><trkpt lat="43.17509" lon="12.205775"><ele>325.0</ele><time>2026-03-29T11:34:38.322Z</time></trkpt><trkpt lat="43.1751283" lon="12.2058767"><ele>325.0</ele><time>2026-03-29T11:34:40.323Z</time></trkpt><trkpt lat="43.175185" lon="12.206005"><ele>325.0</ele><time>2026-03-29T11:34:42.324Z</time></trkpt><trkpt lat="43.17522" lon="12.20609"><ele>325.0</ele><time>2026-03-29T11:34:43.323Z</time></trkpt><trkpt lat="43.1752383" lon="12.2061733"><ele>325.0</ele><time>2026-03-29T11:34:44.327Z</time></trkpt><trkpt lat="43.175255" lon="12.2062583"><ele>325.0</ele><time>2026-03-29T11:34:45.322Z</time></trkpt><trkpt lat="43.1752633" lon="12.2063483"><ele>325.0</ele><time>2026-03-29T11:34:46.323Z</time></trkpt><trkpt lat="43.175265" lon="12.2064433"><ele>325.0</ele><time>2026-03-29T11:34:47.328Z</time></trkpt><trkpt lat="43.1752567" lon="12.2065317"><ele>325.0</ele><time>2026-03-29T11:34:48.322Z</time></trkpt><trkpt lat="43.17518" lon="12.2066717"><ele>323.8333333333333</ele><time>2026-03-29T11:34:50.329Z</time></trkpt><trkpt lat="43.1751117" lon="12.20677"><ele>322.66666666666663</ele><time>2026-03-29T11:34:51.325Z</time></trkpt><trkpt lat="43.175055" lon="12.2068467"><ele>321.5</ele><time>2026-03-29T11:34:52.322Z</time></trkpt><trkpt lat="43.1749917" lon="12.2068833"><ele>320.3333333333333</ele><time>2026-03-29T11:34:53.325Z</time></trkpt><trkpt lat="43.1748833" lon="12.20693"><ele>319.1666666666667</ele><time>2026-03-29T11:34:55.325Z</time></trkpt><trkpt lat="43.1748067" lon="12.206985"><ele>318.0</ele><time>2026-03-29T11:34:57.322Z</time></trkpt><trkpt lat="43.1747017" lon="12.2070617"><ele>317.8333333333333</ele><time>2026-03-29T11:34:59.323Z</time></trkpt><trkpt lat="43.17464" lon="12.2071183"><ele>317.6666666666667</ele><time>2026-03-29T11:35:00.323Z</time></trkpt><trkpt lat="43.17457" lon="12.2071817"><ele>317.5</ele><time>2026-03-29T11:35:01.322Z</time></trkpt><trkpt lat="43.1744933" lon="12.20725"><ele>317.33333333333337</ele><time>2026-03-29T11:35:02.327Z</time></trkpt><trkpt lat="43.1744133" lon="12.20732"><ele>317.1666666666667</ele><time>2026-03-29T11:35:03.325Z</time></trkpt><trkpt lat="43.1743417" lon="12.2073883"><ele>317.0</ele><time>2026-03-29T11:35:04.324Z</time></trkpt><trkpt lat="43.1742767" lon="12.2074617"><ele>317.0</ele><time>2026-03-29T11:35:05.32Z</time></trkpt><trkpt lat="43.17422" lon="12.2075367"><ele>317.0</ele><time>2026-03-29T11:35:06.323Z</time></trkpt><trkpt lat="43.17416" lon="12.207605"><ele>317.0</ele><time>2026-03-29T11:35:07.324Z</time></trkpt><trkpt lat="43.1740933" lon="12.2076717"><ele>317.0</ele><time>2026-03-29T11:35:08.325Z</time></trkpt><trkpt lat="43.1740167" lon="12.2077383"><ele>317.0</ele><time>2026-03-29T11:35:09.325Z</time></trkpt><trkpt lat="43.1739417" lon="12.2078083"><ele>317.0</ele><time>2026-03-29T11:35:10.322Z</time></trkpt><trkpt lat="43.1738617" lon="12.20788"><ele>315.6</ele><time>2026-03-29T11:35:11.325Z</time></trkpt><trkpt lat="43.173775" lon="12.2079483"><ele>314.2</ele><time>2026-03-29T11:35:12.325Z</time></trkpt><trkpt lat="43.17368" lon="12.20801"><ele>312.8</ele><time>2026-03-29T11:35:13.326Z</time></trkpt><trkpt lat="43.17358" lon="12.208065"><ele>311.4</ele><time>2026-03-29T11:35:14.322Z</time></trkpt><trkpt lat="43.173475" lon="12.2081167"><ele>310.0</ele><time>2026-03-29T11:35:15.324Z</time></trkpt><trkpt lat="43.1733683" lon="12.2081683"><ele>310.0</ele><time>2026-03-29T11:35:16.324Z</time></trkpt><trkpt lat="43.1732617" lon="12.2082183"><ele>310.0</ele><time>2026-03-29T11:35:17.322Z</time></trkpt><trkpt lat="43.173155" lon="12.2082717"><ele>310.0</ele><time>2026-03-29T11:35:18.323Z</time></trkpt><trkpt lat="43.1730467" lon="12.2083217"><ele>310.0</ele><time>2026-03-29T11:35:19.326Z</time></trkpt><trkpt lat="43.1729483" lon="12.20837"><ele>310.0</ele><time>2026-03-29T11:35:20.326Z</time></trkpt><trkpt lat="43.1728633" lon="12.20841"><ele>311.0</ele><time>2026-03-29T11:35:21.327Z</time></trkpt><trkpt lat="43.1727933" lon="12.2084417"><ele>312.0</ele><time>2026-03-29T11:35:22.322Z</time></trkpt><trkpt lat="43.17272" lon="12.20847"><ele>313.0</ele><time>2026-03-29T11:35:23.322Z</time></trkpt><trkpt lat="43.1726467" lon="12.2084983"><ele>314.0</ele><time>2026-03-29T11:35:24.327Z</time></trkpt><trkpt lat="43.1725767" lon="12.2085233"><ele>315.0</ele><time>2026-03-29T11:35:25.322Z</time></trkpt><trkpt lat="43.172505" lon="12.2085267"><ele>316.0</ele><time>2026-03-29T11:35:26.325Z</time></trkpt><trkpt lat="43.1724317" lon="12.2085083"><ele>317.0</ele><time>2026-03-29T11:35:27.322Z</time></trkpt><trkpt lat="43.1723667" lon="12.2084933"><ele>318.1666666666667</ele><time>2026-03-29T11:35:28.324Z</time></trkpt><trkpt lat="43.172255" lon="12.208525"><ele>319.33333333333337</ele><time>2026-03-29T11:35:30.324Z</time></trkpt><trkpt lat="43.1721917" lon="12.2085567"><ele>320.5</ele><time>2026-03-29T11:35:31.326Z</time></trkpt><trkpt lat="43.1721233" lon="12.2085717"><ele>321.6666666666667</ele><time>2026-03-29T11:35:32.325Z</time></trkpt><trkpt lat="43.1720567" lon="12.208565"><ele>322.8333333333333</ele><time>2026-03-29T11:35:33.326Z</time></trkpt><trkpt lat="43.1719933" lon="12.20855"><ele>324.0</ele><time>2026-03-29T11:35:34.323Z</time></trkpt><trkpt lat="43.1718717" lon="12.20855"><ele>324.0</ele><time>2026-03-29T11:35:36.323Z</time></trkpt><trkpt lat="43.1717833" lon="12.2085783"><ele>324.0</ele><time>2026-03-29T11:35:38.321Z</time></trkpt><trkpt lat="43.171715" lon="12.2085283"><ele>324.0</ele><time>2026-03-29T11:35:41.321Z</time></trkpt><trkpt lat="43.1716583" lon="12.2084767"><ele>324.0</ele><time>2026-03-29T11:35:43.322Z</time></trkpt><trkpt lat="43.171555" lon="12.2083817"><ele>324.0</ele><time>2026-03-29T11:35:45.326Z</time></trkpt><trkpt lat="43.17148" lon="12.2083367"><ele>324.0</ele><time>2026-03-29T11:35:46.324Z</time></trkpt><trkpt lat="43.1713967" lon="12.2082983"><ele>325.1666666666667</ele><time>2026-03-29T11:35:47.321Z</time></trkpt><trkpt lat="43.171335" lon="12.2082717"><ele>326.3333333333333</ele><time>2026-03-29T11:35:48.323Z</time></trkpt><trkpt lat="43.17126" lon="12.2082317"><ele>327.5</ele><time>2026-03-29T11:35:50.325Z</time></trkpt><trkpt lat="43.1712383" lon="12.2081333"><ele>328.66666666666663</ele><time>2026-03-29T11:35:52.322Z</time></trkpt><trkpt lat="43.171205" lon="12.2080267"><ele>329.8333333333333</ele><time>2026-03-29T11:35:54.325Z</time></trkpt><trkpt lat="43.1711067" lon="12.2079317"><ele>331.0</ele><time>2026-03-29T11:35:56.321Z</time></trkpt><trkpt lat="43.171035" lon="12.2078867"><ele>334.8333333333333</ele><time>2026-03-29T11:35:57.322Z</time></trkpt><trkpt lat="43.1709667" lon="12.2078483"><ele>338.66666666666663</ele><time>2026-03-29T11:35:58.321Z</time></trkpt><trkpt lat="43.1709017" lon="12.207805"><ele>342.5</ele><time>2026-03-29T11:35:59.327Z</time></trkpt><trkpt lat="43.1708467" lon="12.2077583"><ele>346.3333333333333</ele><time>2026-03-29T11:36:00.324Z</time></trkpt><trkpt lat="43.1707683" lon="12.2076467"><ele>350.1666666666667</ele><time>2026-03-29T11:36:02.321Z</time></trkpt><trkpt lat="43.1707367" lon="12.20755"><ele>354.0</ele><time>2026-03-29T11:36:04.326Z</time></trkpt><trkpt lat="43.1707983" lon="12.2075233"><ele>354.0</ele><time>2026-03-29T11:36:08.323Z</time></trkpt><trkpt lat="43.1708633" lon="12.2075067"><ele>354.0</ele><time>2026-03-29T11:36:11.319Z</time></trkpt><trkpt lat="43.1709317" lon="12.2074233"><ele>354.0</ele><time>2026-03-29T11:36:14.32Z</time></trkpt><trkpt lat="43.171" lon="12.2073367"><ele>354.0</ele><time>2026-03-29T11:36:16.321Z</time></trkpt><trkpt lat="43.1710667" lon="12.2072717"><ele>354.0</ele><time>2026-03-29T11:36:18.322Z</time></trkpt><trkpt lat="43.1711217" lon="12.2071717"><ele>354.0</ele><time>2026-03-29T11:36:20.323Z</time></trkpt><trkpt lat="43.1712017" lon="12.2070583"><ele>356.5</ele><time>2026-03-29T11:36:22.319Z</time></trkpt><trkpt lat="43.171275" lon="12.206965"><ele>359.0</ele><time>2026-03-29T11:36:24.324Z</time></trkpt><trkpt lat="43.1713317" lon="12.2068833"><ele>361.5</ele><time>2026-03-29T11:36:26.326Z</time></trkpt><trkpt lat="43.1713133" lon="12.2067817"><ele>364.0</ele><time>2026-03-29T11:36:30.324Z</time></trkpt><trkpt lat="43.171265" lon="12.2067133"><ele>366.5</ele><time>2026-03-29T11:36:35.321Z</time></trkpt><trkpt lat="43.1712167" lon="12.2066467"><ele>369.0</ele><time>2026-03-29T11:36:38.323Z</time></trkpt><trkpt lat="43.1711633" lon="12.2065617"><ele>369.0</ele><time>2026-03-29T11:36:41.324Z</time></trkpt><trkpt lat="43.1710733" lon="12.206525"><ele>369.0</ele><time>2026-03-29T11:36:44.321Z</time></trkpt><trkpt lat="43.1709833" lon="12.2064517"><ele>369.0</ele><time>2026-03-29T11:36:46.322Z</time></trkpt><trkpt lat="43.1709233" lon="12.2064183"><ele>369.0</ele><time>2026-03-29T11:36:47.321Z</time></trkpt><trkpt lat="43.1708233" lon="12.20638"><ele>369.0</ele><time>2026-03-29T11:36:49.333Z</time></trkpt><trkpt lat="43.170775" lon="12.2063067"><ele>369.0</ele><time>2026-03-29T11:36:52.324Z</time></trkpt><trkpt lat="43.1708383" lon="12.20623"><ele>372.5</ele><time>2026-03-29T11:36:54.322Z</time></trkpt><trkpt lat="43.1708933" lon="12.206165"><ele>376.0</ele><time>2026-03-29T11:36:55.325Z</time></trkpt><trkpt lat="43.1709517" lon="12.2060867"><ele>379.5</ele><time>2026-03-29T11:36:56.323Z</time></trkpt><trkpt lat="43.1710083" lon="12.2059967"><ele>383.0</ele><time>2026-03-29T11:36:57.327Z</time></trkpt><trkpt lat="43.1710667" lon="12.2058867"><ele>386.5</ele><time>2026-03-29T11:36:58.325Z</time></trkpt><trkpt lat="43.1711217" lon="12.2057817"><ele>390.0</ele><time>2026-03-29T11:36:59.324Z</time></trkpt><trkpt lat="43.171185" lon="12.2056633"><ele>393.6</ele><time>2026-03-29T11:37:00.321Z</time></trkpt><trkpt lat="43.17124" lon="12.2055433"><ele>397.2</ele><time>2026-03-29T11:37:01.321Z</time></trkpt><trkpt lat="43.171295" lon="12.2054183"><ele>400.79999999999995</ele><time>2026-03-29T11:37:02.322Z</time></trkpt><trkpt lat="43.1713417" lon="12.2053017"><ele>404.4</ele><time>2026-03-29T11:37:03.324Z</time></trkpt><trkpt lat="43.1713717" lon="12.2051817"><ele>408.0</ele><time>2026-03-29T11:37:04.325Z</time></trkpt><trkpt lat="43.1714017" lon="12.2050817"><ele>408.0</ele><time>2026-03-29T11:37:05.321Z</time></trkpt><trkpt lat="43.1714517" lon="12.204955"><ele>408.0</ele><time>2026-03-29T11:37:07.321Z</time></trkpt><trkpt lat="43.1715233" lon="12.2049183"><ele>408.0</ele><time>2026-03-29T11:37:09.324Z</time></trkpt><trkpt lat="43.17161" lon="12.20489"><ele>408.0</ele><time>2026-03-29T11:37:11.323Z</time></trkpt><trkpt lat="43.1717467" lon="12.20484"><ele>408.0</ele><time>2026-03-29T11:37:13.323Z</time></trkpt><trkpt lat="43.1718117" lon="12.204805"><ele>411.4</ele><time>2026-03-29T11:37:14.323Z</time></trkpt><trkpt lat="43.1718883" lon="12.2047783"><ele>414.79999999999995</ele><time>2026-03-29T11:37:15.323Z</time></trkpt><trkpt lat="43.1719983" lon="12.204755"><ele>418.2</ele><time>2026-03-29T11:37:17.323Z</time></trkpt><trkpt lat="43.1721083" lon="12.20471"><ele>421.6</ele><time>2026-03-29T11:37:19.325Z</time></trkpt><trkpt lat="43.1722133" lon="12.2046383"><ele>425.0</ele><time>2026-03-29T11:37:21.324Z</time></trkpt><trkpt lat="43.172265" lon="12.2045683"><ele>425.0</ele><time>2026-03-29T11:37:22.323Z</time></trkpt><trkpt lat="43.1723" lon="12.204495"><ele>425.0</ele><time>2026-03-29T11:37:23.322Z</time></trkpt><trkpt lat="43.1723417" lon="12.2044083"><ele>425.0</ele><time>2026-03-29T11:37:24.324Z</time></trkpt><trkpt lat="43.1723783" lon="12.2042983"><ele>425.0</ele><time>2026-03-29T11:37:25.325Z</time></trkpt><trkpt lat="43.172435" lon="12.20415"><ele>425.0</ele><time>2026-03-29T11:37:26.326Z</time></trkpt><trkpt lat="43.1724767" lon="12.204005"><ele>425.4</ele><time>2026-03-29T11:37:27.322Z</time></trkpt><trkpt lat="43.172515" lon="12.203865"><ele>425.8</ele><time>2026-03-29T11:37:28.324Z</time></trkpt><trkpt lat="43.172575" lon="12.203715"><ele>426.20000000000005</ele><time>2026-03-29T11:37:29.325Z</time></trkpt><trkpt lat="43.1726317" lon="12.2035833"><ele>426.6</ele><time>2026-03-29T11:37:30.322Z</time></trkpt><trkpt lat="43.1726833" lon="12.2034683"><ele>427.0</ele><time>2026-03-29T11:37:31.325Z</time></trkpt><trkpt lat="43.1727467" lon="12.2033817"><ele>427.00000000000006</ele><time>2026-03-29T11:37:33.322Z</time></trkpt><trkpt lat="43.17286" lon="12.203405"><ele>427.0</ele><time>2026-03-29T11:37:51.325Z</time></trkpt><trkpt lat="43.17292" lon="12.2033283"><ele>427.0</ele><time>2026-03-29T11:37:56.32Z</time></trkpt><trkpt lat="43.1729333" lon="12.2032383"><ele>427.0</ele><time>2026-03-29T11:37:58.322Z</time></trkpt><trkpt lat="43.1729283" lon="12.2031367"><ele>427.00000000000006</ele><time>2026-03-29T11:38:00.32Z</time></trkpt><trkpt lat="43.1729533" lon="12.2030017"><ele>427.0</ele><time>2026-03-29T11:38:02.322Z</time></trkpt><trkpt lat="43.1729783" lon="12.202915"><ele>429.5</ele><time>2026-03-29T11:38:03.323Z</time></trkpt><trkpt lat="43.17302" lon="12.20277"><ele>432.0</ele><time>2026-03-29T11:38:04.323Z</time></trkpt><trkpt lat="43.1730767" lon="12.2025983"><ele>434.5</ele><time>2026-03-29T11:38:05.322Z</time></trkpt><trkpt lat="43.1731167" lon="12.2024433"><ele>437.0</ele><time>2026-03-29T11:38:06.323Z</time></trkpt><trkpt lat="43.1731383" lon="12.2023283"><ele>436.99999999999994</ele><time>2026-03-29T11:38:07.324Z</time></trkpt><trkpt lat="43.1731483" lon="12.2022067"><ele>437.0</ele><time>2026-03-29T11:38:08.329Z</time></trkpt><trkpt lat="43.1731517" lon="12.2020983"><ele>437.0</ele><time>2026-03-29T11:38:09.323Z</time></trkpt><trkpt lat="43.17315" lon="12.202005"><ele>437.0</ele><time>2026-03-29T11:38:10.321Z</time></trkpt><trkpt lat="43.1731317" lon="12.2018983"><ele>436.99999999999994</ele><time>2026-03-29T11:38:11.323Z</time></trkpt><trkpt lat="43.1730917" lon="12.2017567"><ele>437.0</ele><time>2026-03-29T11:38:12.324Z</time></trkpt><trkpt lat="43.173065" lon="12.2016317"><ele>436.99999999999994</ele><time>2026-03-29T11:38:13.322Z</time></trkpt><trkpt lat="43.1730383" lon="12.2015167"><ele>437.0</ele><time>2026-03-29T11:38:14.322Z</time></trkpt><trkpt lat="43.1730133" lon="12.201405"><ele>437.0</ele><time>2026-03-29T11:38:15.322Z</time></trkpt><trkpt lat="43.1729883" lon="12.2013083"><ele>437.0</ele><time>2026-03-29T11:38:16.321Z</time></trkpt><trkpt lat="43.1729267" lon="12.2011833"><ele>436.99999999999994</ele><time>2026-03-29T11:38:18.322Z</time></trkpt><trkpt lat="43.1729067" lon="12.2010983"><ele>437.0</ele><time>2026-03-29T11:38:19.324Z</time></trkpt><trkpt lat="43.172865" lon="12.20096"><ele>434.20000000000005</ele><time>2026-03-29T11:38:21.321Z</time></trkpt><trkpt lat="43.172785" lon="12.2008583"><ele>431.40000000000003</ele><time>2026-03-29T11:38:23.322Z</time></trkpt><trkpt lat="43.1727133" lon="12.20075"><ele>428.6</ele><time>2026-03-29T11:38:25.322Z</time></trkpt><trkpt lat="43.17266" lon="12.200605"><ele>425.79999999999995</ele><time>2026-03-29T11:38:27.323Z</time></trkpt><trkpt lat="43.1725967" lon="12.200495"><ele>423.0</ele><time>2026-03-29T11:38:29.324Z</time></trkpt><trkpt lat="43.1725467" lon="12.2003867"><ele>422.3333333333333</ele><time>2026-03-29T11:38:31.324Z</time></trkpt><trkpt lat="43.1724833" lon="12.2002667"><ele>421.66666666666663</ele><time>2026-03-29T11:38:33.326Z</time></trkpt><trkpt lat="43.1723983" lon="12.20019"><ele>421.0</ele><time>2026-03-29T11:38:35.324Z</time></trkpt><trkpt lat="43.1723133" lon="12.2001667"><ele>420.3333333333333</ele><time>2026-03-29T11:38:37.325Z</time></trkpt><trkpt lat="43.172245" lon="12.2001633"><ele>419.66666666666663</ele><time>2026-03-29T11:38:39.325Z</time></trkpt><trkpt lat="43.1721717" lon="12.2001333"><ele>419.0</ele><time>2026-03-29T11:38:47.323Z</time></trkpt><trkpt lat="43.1721" lon="12.200175"><ele>418.99999999999994</ele><time>2026-03-29T11:38:53.323Z</time></trkpt><trkpt lat="43.1720383" lon="12.2002233"><ele>419.0</ele><time>2026-03-29T11:38:58.323Z</time></trkpt><trkpt lat="43.171955" lon="12.200255"><ele>419.0</ele><time>2026-03-29T11:39:05.324Z</time></trkpt><trkpt lat="43.1718717" lon="12.2003033"><ele>419.0</ele><time>2026-03-29T11:39:08.32Z</time></trkpt><trkpt lat="43.171775" lon="12.2003333"><ele>418.99999999999994</ele><time>2026-03-29T11:39:11.322Z</time></trkpt><trkpt lat="43.1716917" lon="12.2003567"><ele>419.0</ele><time>2026-03-29T11:39:14.325Z</time></trkpt><trkpt lat="43.1716067" lon="12.2004067"><ele>420.66666666666663</ele><time>2026-03-29T11:39:17.323Z</time></trkpt><trkpt lat="43.17152" lon="12.20044"><ele>422.3333333333333</ele><time>2026-03-29T11:39:19.324Z</time></trkpt><trkpt lat="43.1714333" lon="12.2004767"><ele>424.0</ele><time>2026-03-29T11:39:21.323Z</time></trkpt><trkpt lat="43.1713583" lon="12.2004967"><ele>425.66666666666663</ele><time>2026-03-29T11:39:23.32Z</time></trkpt><trkpt lat="43.1712917" lon="12.2005217"><ele>427.3333333333333</ele><time>2026-03-29T11:39:25.323Z</time></trkpt><trkpt lat="43.17121" lon="12.200565"><ele>429.0</ele><time>2026-03-29T11:39:27.324Z</time></trkpt><trkpt lat="43.1711333" lon="12.2006133"><ele>429.0</ele><time>2026-03-29T11:39:29.323Z</time></trkpt><trkpt lat="43.17107" lon="12.2006433"><ele>429.0</ele><time>2026-03-29T11:39:31.321Z</time></trkpt><trkpt lat="43.170995" lon="12.20069"><ele>429.0</ele><time>2026-03-29T11:39:37.323Z</time></trkpt><trkpt lat="43.170915" lon="12.2007233"><ele>429.0</ele><time>2026-03-29T11:39:39.324Z</time></trkpt><trkpt lat="43.170815" lon="12.2007883"><ele>429.0</ele><time>2026-03-29T11:39:41.322Z</time></trkpt><trkpt lat="43.170715" lon="12.2008667"><ele>432.0</ele><time>2026-03-29T11:39:43.326Z</time></trkpt><trkpt lat="43.1706033" lon="12.20092"><ele>435.0</ele><time>2026-03-29T11:39:45.323Z</time></trkpt><trkpt lat="43.1705367" lon="12.2009433"><ele>438.0</ele><time>2026-03-29T11:39:46.323Z</time></trkpt><trkpt lat="43.1704717" lon="12.2009683"><ele>441.0</ele><time>2026-03-29T11:39:47.322Z</time></trkpt><trkpt lat="43.1704117" lon="12.2010083"><ele>444.0</ele><time>2026-03-29T11:39:48.32Z</time></trkpt><trkpt lat="43.1703517" lon="12.2010467"><ele>447.0</ele><time>2026-03-29T11:39:49.326Z</time></trkpt><trkpt lat="43.1702367" lon="12.201085"><ele>447.0</ele><time>2026-03-29T11:39:51.325Z</time></trkpt><trkpt lat="43.1701267" lon="12.2011167"><ele>447.00000000000006</ele><time>2026-03-29T11:39:53.321Z</time></trkpt><trkpt lat="43.1700183" lon="12.2011683"><ele>447.00000000000006</ele><time>2026-03-29T11:39:55.325Z</time></trkpt><trkpt lat="43.1699317" lon="12.20122"><ele>447.0</ele><time>2026-03-29T11:39:57.322Z</time></trkpt><trkpt lat="43.1698333" lon="12.201235"><ele>447.0</ele><time>2026-03-29T11:39:59.323Z</time></trkpt><trkpt lat="43.1697417" lon="12.2011967"><ele>447.0</ele><time>2026-03-29T11:40:01.325Z</time></trkpt><trkpt lat="43.1696733" lon="12.2012033"><ele>447.0</ele><time>2026-03-29T11:40:03.324Z</time></trkpt><trkpt lat="43.1696083" lon="12.2012183"><ele>447.0</ele><time>2026-03-29T11:40:06.321Z</time></trkpt><trkpt lat="43.16985" lon="12.2013133"><ele>447.0</ele><time>2026-03-29T11:41:11.319Z</time></trkpt><trkpt lat="43.1699667" lon="12.2013733"><ele>447.0</ele><time>2026-03-29T11:41:13.322Z</time></trkpt><trkpt lat="43.1700117" lon="12.2014817"><ele>447.00000000000006</ele><time>2026-03-29T11:41:15.318Z</time></trkpt><trkpt lat="43.17002" lon="12.2015967"><ele>447.00000000000006</ele><time>2026-03-29T11:41:17.32Z</time></trkpt><trkpt lat="43.1700783" lon="12.2017833"><ele>447.0</ele><time>2026-03-29T11:41:19.318Z</time></trkpt><trkpt lat="43.1700167" lon="12.2017467"><ele>447.0</ele><time>2026-03-29T11:41:20.321Z</time></trkpt><trkpt lat="43.1699567" lon="12.20172"><ele>446.66666666666663</ele><time>2026-03-29T11:41:21.321Z</time></trkpt><trkpt lat="43.1697333" lon="12.2013917"><ele>446.3333333333333</ele><time>2026-03-29T11:41:23.318Z</time></trkpt><trkpt lat="43.1696733" lon="12.201345"><ele>446.0</ele><time>2026-03-29T11:41:26.321Z</time></trkpt><trkpt lat="43.16958" lon="12.2012917"><ele>446.0</ele><time>2026-03-29T11:41:56.319Z</time></trkpt><trkpt lat="43.1695167" lon="12.2012283"><ele>446.0</ele><time>2026-03-29T11:43:07.325Z</time></trkpt><trkpt lat="43.1694117" lon="12.2012583"><ele>446.0</ele><time>2026-03-29T11:43:09.324Z</time></trkpt><trkpt lat="43.1693033" lon="12.2012833"><ele>446.0</ele><time>2026-03-29T11:43:11.322Z</time></trkpt><trkpt lat="43.1692067" lon="12.201265"><ele>446.0</ele><time>2026-03-29T11:43:13.324Z</time></trkpt><trkpt lat="43.1691283" lon="12.2012467"><ele>446.0</ele><time>2026-03-29T11:43:15.323Z</time></trkpt><trkpt lat="43.1690283" lon="12.2012283"><ele>446.0</ele><time>2026-03-29T11:43:28.325Z</time></trkpt><trkpt lat="43.1689183" lon="12.2012183"><ele>446.0</ele><time>2026-03-29T11:43:30.322Z</time></trkpt><trkpt lat="43.1687967" lon="12.2012017"><ele>446.0</ele><time>2026-03-29T11:43:32.323Z</time></trkpt><trkpt lat="43.16873" lon="12.201185"><ele>446.0</ele><time>2026-03-29T11:43:33.321Z</time></trkpt><trkpt lat="43.168655" lon="12.2011683"><ele>446.0</ele><time>2026-03-29T11:43:34.322Z</time></trkpt><trkpt lat="43.1685717" lon="12.20116"><ele>446.0</ele><time>2026-03-29T11:43:35.321Z</time></trkpt><trkpt lat="43.1684917" lon="12.20115"><ele>446.0</ele><time>2026-03-29T11:43:36.321Z</time></trkpt><trkpt lat="43.1684183" lon="12.2011383"><ele>446.0</ele><time>2026-03-29T11:43:37.322Z</time></trkpt><trkpt lat="43.1683483" lon="12.2011183"><ele>446.0</ele><time>2026-03-29T11:43:38.32Z</time></trkpt><trkpt lat="43.16828" lon="12.2010983"><ele>446.0</ele><time>2026-03-29T11:43:39.325Z</time></trkpt><trkpt lat="43.1682133" lon="12.201085"><ele>446.0</ele><time>2026-03-29T11:43:40.326Z</time></trkpt><trkpt lat="43.16815" lon="12.201075"><ele>446.0</ele><time>2026-03-29T11:43:41.323Z</time></trkpt><trkpt lat="43.1680383" lon="12.2010633"><ele>446.0</ele><time>2026-03-29T11:43:43.32Z</time></trkpt><trkpt lat="43.16794" lon="12.2010733"><ele>446.0</ele><time>2026-03-29T11:43:45.322Z</time></trkpt><trkpt lat="43.1678483" lon="12.2010583"><ele>446.0</ele><time>2026-03-29T11:43:47.322Z</time></trkpt><trkpt lat="43.167725" lon="12.2010033"><ele>446.0</ele><time>2026-03-29T11:43:49.321Z</time></trkpt><trkpt lat="43.1676467" lon="12.2009683"><ele>445.99999999999994</ele><time>2026-03-29T11:43:50.324Z</time></trkpt><trkpt lat="43.16757" lon="12.20094"><ele>446.0</ele><time>2026-03-29T11:43:51.32Z</time></trkpt><trkpt lat="43.1674917" lon="12.2009117"><ele>446.0</ele><time>2026-03-29T11:43:52.32Z</time></trkpt><trkpt lat="43.1674183" lon="12.20088"><ele>446.0</ele><time>2026-03-29T11:43:53.321Z</time></trkpt><trkpt lat="43.1673467" lon="12.2008483"><ele>445.99999999999994</ele><time>2026-03-29T11:43:54.324Z</time></trkpt><trkpt lat="43.1672767" lon="12.20082"><ele>446.0</ele><time>2026-03-29T11:43:55.324Z</time></trkpt><trkpt lat="43.1672067" lon="12.2008033"><ele>445.57142857142856</ele><time>2026-03-29T11:43:56.324Z</time></trkpt><trkpt lat="43.1671383" lon="12.2007933"><ele>445.1428571428571</ele><time>2026-03-29T11:43:57.322Z</time></trkpt><trkpt lat="43.1670717" lon="12.2007867"><ele>444.7142857142857</ele><time>2026-03-29T11:43:58.321Z</time></trkpt><trkpt lat="43.1670033" lon="12.2007767"><ele>444.2857142857143</ele><time>2026-03-29T11:43:59.321Z</time></trkpt><trkpt lat="43.166935" lon="12.2007667"><ele>443.8571428571429</ele><time>2026-03-29T11:44:00.324Z</time></trkpt><trkpt lat="43.1668683" lon="12.2007417"><ele>443.42857142857144</ele><time>2026-03-29T11:44:01.321Z</time></trkpt><trkpt lat="43.166805" lon="12.2006983"><ele>443.0</ele><time>2026-03-29T11:44:02.322Z</time></trkpt><trkpt lat="43.1667383" lon="12.20066"><ele>441.4</ele><time>2026-03-29T11:44:03.325Z</time></trkpt><trkpt lat="43.16666" lon="12.2006433"><ele>439.79999999999995</ele><time>2026-03-29T11:44:04.32Z</time></trkpt><trkpt lat="43.166565" lon="12.20066"><ele>438.2</ele><time>2026-03-29T11:44:05.32Z</time></trkpt><trkpt lat="43.16646" lon="12.2006933"><ele>436.6</ele><time>2026-03-29T11:44:06.324Z</time></trkpt><trkpt lat="43.166355" lon="12.20073"><ele>435.0</ele><time>2026-03-29T11:44:07.322Z</time></trkpt><trkpt lat="43.16625" lon="12.2007583"><ele>435.0</ele><time>2026-03-29T11:44:08.321Z</time></trkpt><trkpt lat="43.16615" lon="12.200785"><ele>435.0</ele><time>2026-03-29T11:44:09.323Z</time></trkpt><trkpt lat="43.1660483" lon="12.2008117"><ele>435.0</ele><time>2026-03-29T11:44:10.32Z</time></trkpt><trkpt lat="43.1659483" lon="12.20084"><ele>435.0</ele><time>2026-03-29T11:44:11.32Z</time></trkpt><trkpt lat="43.1658433" lon="12.2008667"><ele>435.0</ele><time>2026-03-29T11:44:12.325Z</time></trkpt><trkpt lat="43.16574" lon="12.2008933"><ele>433.6</ele><time>2026-03-29T11:44:13.326Z</time></trkpt><trkpt lat="43.1656367" lon="12.2009233"><ele>432.2</ele><time>2026-03-29T11:44:14.321Z</time></trkpt><trkpt lat="43.1655333" lon="12.2009533"><ele>430.79999999999995</ele><time>2026-03-29T11:44:15.321Z</time></trkpt><trkpt lat="43.16543" lon="12.2009817"><ele>429.4</ele><time>2026-03-29T11:44:16.324Z</time></trkpt><trkpt lat="43.1653283" lon="12.2010067"><ele>428.0</ele><time>2026-03-29T11:44:17.323Z</time></trkpt><trkpt lat="43.1652317" lon="12.20103"><ele>427.99999999999994</ele><time>2026-03-29T11:44:18.321Z</time></trkpt><trkpt lat="43.16514" lon="12.201055"><ele>428.0</ele><time>2026-03-29T11:44:19.323Z</time></trkpt><trkpt lat="43.1650517" lon="12.2010767"><ele>428.0</ele><time>2026-03-29T11:44:20.323Z</time></trkpt><trkpt lat="43.164965" lon="12.2010933"><ele>428.0</ele><time>2026-03-29T11:44:21.322Z</time></trkpt><trkpt lat="43.1648867" lon="12.2011117"><ele>427.99999999999994</ele><time>2026-03-29T11:44:22.32Z</time></trkpt><trkpt lat="43.16481" lon="12.2011333"><ele>428.0</ele><time>2026-03-29T11:44:23.322Z</time></trkpt><trkpt lat="43.1647333" lon="12.2011583"><ele>426.16666666666663</ele><time>2026-03-29T11:44:24.321Z</time></trkpt><trkpt lat="43.1646583" lon="12.201185"><ele>424.3333333333333</ele><time>2026-03-29T11:44:25.323Z</time></trkpt><trkpt lat="43.1645933" lon="12.201215"><ele>422.5</ele><time>2026-03-29T11:44:26.322Z</time></trkpt><trkpt lat="43.16453" lon="12.2012433"><ele>420.66666666666663</ele><time>2026-03-29T11:44:27.326Z</time></trkpt><trkpt lat="43.1644633" lon="12.2012617"><ele>418.8333333333333</ele><time>2026-03-29T11:44:28.32Z</time></trkpt><trkpt lat="43.16436" lon="12.201295"><ele>417.0</ele><time>2026-03-29T11:44:30.324Z</time></trkpt><trkpt lat="43.164335" lon="12.2014067"><ele>416.0</ele><time>2026-03-29T11:44:32.32Z</time></trkpt><trkpt lat="43.1643417" lon="12.2015117"><ele>415.0</ele><time>2026-03-29T11:44:34.32Z</time></trkpt><trkpt lat="43.1643267" lon="12.20161"><ele>414.0</ele><time>2026-03-29T11:44:36.323Z</time></trkpt><trkpt lat="43.1643383" lon="12.2017033"><ele>413.0</ele><time>2026-03-29T11:44:38.323Z</time></trkpt><trkpt lat="43.164305" lon="12.2018033"><ele>412.0</ele><time>2026-03-29T11:44:41.322Z</time></trkpt><trkpt lat="43.16421" lon="12.2018083"><ele>411.0</ele><time>2026-03-29T11:44:44.323Z</time></trkpt><trkpt lat="43.1641217" lon="12.2017783"><ele>409.8333333333333</ele><time>2026-03-29T11:44:46.322Z</time></trkpt><trkpt lat="43.1640067" lon="12.2017433"><ele>408.66666666666663</ele><time>2026-03-29T11:44:48.322Z</time></trkpt><trkpt lat="43.1639433" lon="12.201705"><ele>407.5</ele><time>2026-03-29T11:44:49.325Z</time></trkpt><trkpt lat="43.1638717" lon="12.2016667"><ele>406.3333333333333</ele><time>2026-03-29T11:44:50.322Z</time></trkpt><trkpt lat="43.1637917" lon="12.201645"><ele>405.16666666666663</ele><time>2026-03-29T11:44:51.321Z</time></trkpt><trkpt lat="43.163705" lon="12.2016333"><ele>404.0</ele><time>2026-03-29T11:44:52.322Z</time></trkpt><trkpt lat="43.1636133" lon="12.20164"><ele>404.0</ele><time>2026-03-29T11:44:53.324Z</time></trkpt><trkpt lat="43.1635117" lon="12.201665"><ele>404.0</ele><time>2026-03-29T11:44:54.322Z</time></trkpt><trkpt lat="43.1634067" lon="12.2016983"><ele>404.0</ele><time>2026-03-29T11:44:55.32Z</time></trkpt><trkpt lat="43.1632967" lon="12.2017233"><ele>404.0</ele><time>2026-03-29T11:44:56.321Z</time></trkpt><trkpt lat="43.1631917" lon="12.2017267"><ele>404.0</ele><time>2026-03-29T11:44:57.323Z</time></trkpt><trkpt lat="43.1631017" lon="12.2017067"><ele>404.4</ele><time>2026-03-29T11:44:58.322Z</time></trkpt><trkpt lat="43.16302" lon="12.20168"><ele>404.79999999999995</ele><time>2026-03-29T11:44:59.32Z</time></trkpt><trkpt lat="43.1629267" lon="12.2016683"><ele>405.20000000000005</ele><time>2026-03-29T11:45:00.323Z</time></trkpt><trkpt lat="43.1628267" lon="12.20167"><ele>405.6</ele><time>2026-03-29T11:45:01.321Z</time></trkpt><trkpt lat="43.162725" lon="12.201675"><ele>406.0</ele><time>2026-03-29T11:45:02.32Z</time></trkpt><trkpt lat="43.1626317" lon="12.201685"><ele>406.00000000000006</ele><time>2026-03-29T11:45:03.323Z</time></trkpt><trkpt lat="43.1625467" lon="12.201705"><ele>406.0</ele><time>2026-03-29T11:45:04.321Z</time></trkpt><trkpt lat="43.1624683" lon="12.20174"><ele>406.0</ele><time>2026-03-29T11:45:05.32Z</time></trkpt><trkpt lat="43.162395" lon="12.20179"><ele>406.0</ele><time>2026-03-29T11:45:06.322Z</time></trkpt><trkpt lat="43.1623217" lon="12.2018333"><ele>406.00000000000006</ele><time>2026-03-29T11:45:07.322Z</time></trkpt><trkpt lat="43.1622433" lon="12.2018533"><ele>406.0</ele><time>2026-03-29T11:45:08.323Z</time></trkpt><trkpt lat="43.162165" lon="12.2018533"><ele>404.6666666666667</ele><time>2026-03-29T11:45:09.321Z</time></trkpt><trkpt lat="43.1620883" lon="12.2018483"><ele>403.33333333333337</ele><time>2026-03-29T11:45:10.32Z</time></trkpt><trkpt lat="43.1620133" lon="12.201865"><ele>402.0</ele><time>2026-03-29T11:45:11.321Z</time></trkpt><trkpt lat="43.1619383" lon="12.2019167"><ele>400.66666666666663</ele><time>2026-03-29T11:45:12.325Z</time></trkpt><trkpt lat="43.161865" lon="12.202005"><ele>399.3333333333333</ele><time>2026-03-29T11:45:13.324Z</time></trkpt><trkpt lat="43.1617767" lon="12.2020967"><ele>398.0</ele><time>2026-03-29T11:45:14.322Z</time></trkpt><trkpt lat="43.1616817" lon="12.2021833"><ele>398.0</ele><time>2026-03-29T11:45:15.323Z</time></trkpt><trkpt lat="43.1615783" lon="12.2022583"><ele>398.0</ele><time>2026-03-29T11:45:16.325Z</time></trkpt><trkpt lat="43.1614783" lon="12.2023183"><ele>398.0</ele><time>2026-03-29T11:45:17.321Z</time></trkpt><trkpt lat="43.16138" lon="12.2023733"><ele>398.0</ele><time>2026-03-29T11:45:18.323Z</time></trkpt><trkpt lat="43.1612867" lon="12.20243"><ele>398.0</ele><time>2026-03-29T11:45:19.326Z</time></trkpt><trkpt lat="43.1611983" lon="12.202495"><ele>398.79999999999995</ele><time>2026-03-29T11:45:20.324Z</time></trkpt><trkpt lat="43.1611083" lon="12.2025683"><ele>399.6</ele><time>2026-03-29T11:45:21.322Z</time></trkpt><trkpt lat="43.1610133" lon="12.20264"><ele>400.4</ele><time>2026-03-29T11:45:22.322Z</time></trkpt><trkpt lat="43.1609167" lon="12.2027"><ele>401.20000000000005</ele><time>2026-03-29T11:45:23.324Z</time></trkpt><trkpt lat="43.16082" lon="12.2027567"><ele>402.0</ele><time>2026-03-29T11:45:24.324Z</time></trkpt><trkpt lat="43.1607267" lon="12.2028233"><ele>401.40000000000003</ele><time>2026-03-29T11:45:25.321Z</time></trkpt><trkpt lat="43.160645" lon="12.202905"><ele>400.8</ele><time>2026-03-29T11:45:26.324Z</time></trkpt><trkpt lat="43.16056" lon="12.2029833"><ele>400.2</ele><time>2026-03-29T11:45:27.323Z</time></trkpt><trkpt lat="43.1604733" lon="12.2030467"><ele>399.6</ele><time>2026-03-29T11:45:28.327Z</time></trkpt><trkpt lat="43.160385" lon="12.2030883"><ele>399.0</ele><time>2026-03-29T11:45:29.325Z</time></trkpt><trkpt lat="43.1603017" lon="12.2031217"><ele>400.79999999999995</ele><time>2026-03-29T11:45:30.322Z</time></trkpt><trkpt lat="43.16022" lon="12.2031667"><ele>402.59999999999997</ele><time>2026-03-29T11:45:31.321Z</time></trkpt><trkpt lat="43.1601367" lon="12.20323"><ele>404.4</ele><time>2026-03-29T11:45:32.324Z</time></trkpt><trkpt lat="43.16005" lon="12.2033083"><ele>406.2</ele><time>2026-03-29T11:45:33.328Z</time></trkpt><trkpt lat="43.159965" lon="12.203395"><ele>408.0</ele><time>2026-03-29T11:45:34.321Z</time></trkpt><trkpt lat="43.1598833" lon="12.2034817"><ele>406.59999999999997</ele><time>2026-03-29T11:45:35.321Z</time></trkpt><trkpt lat="43.1598033" lon="12.2035567"><ele>405.2</ele><time>2026-03-29T11:45:36.321Z</time></trkpt><trkpt lat="43.1597217" lon="12.2036133"><ele>403.8</ele><time>2026-03-29T11:45:37.321Z</time></trkpt><trkpt lat="43.15963" lon="12.2036583"><ele>402.4</ele><time>2026-03-29T11:45:38.321Z</time></trkpt><trkpt lat="43.1595267" lon="12.203695"><ele>401.0</ele><time>2026-03-29T11:45:39.324Z</time></trkpt><trkpt lat="43.15942" lon="12.2037217"><ele>401.0</ele><time>2026-03-29T11:45:40.324Z</time></trkpt><trkpt lat="43.1593" lon="12.2037417"><ele>401.0</ele><time>2026-03-29T11:45:41.321Z</time></trkpt><trkpt lat="43.1591767" lon="12.2037633"><ele>401.0</ele><time>2026-03-29T11:45:42.323Z</time></trkpt><trkpt lat="43.1590567" lon="12.2037783"><ele>401.0</ele><time>2026-03-29T11:45:43.324Z</time></trkpt><trkpt lat="43.1589417" lon="12.2037883"><ele>400.8</ele><time>2026-03-29T11:45:44.32Z</time></trkpt><trkpt lat="43.1588317" lon="12.203795"><ele>400.6</ele><time>2026-03-29T11:45:45.323Z</time></trkpt><trkpt lat="43.1587317" lon="12.203795"><ele>400.4</ele><time>2026-03-29T11:45:46.321Z</time></trkpt><trkpt lat="43.158645" lon="12.2038"><ele>400.2</ele><time>2026-03-29T11:45:47.322Z</time></trkpt><trkpt lat="43.1585633" lon="12.2038167"><ele>400.0</ele><time>2026-03-29T11:45:48.324Z</time></trkpt><trkpt lat="43.1584833" lon="12.2038383"><ele>400.0</ele><time>2026-03-29T11:45:49.321Z</time></trkpt><trkpt lat="43.1584" lon="12.2038683"><ele>400.0</ele><time>2026-03-29T11:45:50.321Z</time></trkpt><trkpt lat="43.15831" lon="12.2039067"><ele>400.0</ele><time>2026-03-29T11:45:51.322Z</time></trkpt><trkpt lat="43.1582167" lon="12.203945"><ele>400.0</ele><time>2026-03-29T11:45:52.324Z</time></trkpt><trkpt lat="43.1581233" lon="12.2039817"><ele>400.0</ele><time>2026-03-29T11:45:53.321Z</time></trkpt><trkpt lat="43.158025" lon="12.204015"><ele>403.0</ele><time>2026-03-29T11:45:54.322Z</time></trkpt><trkpt lat="43.1579117" lon="12.204055"><ele>406.0</ele><time>2026-03-29T11:45:55.328Z</time></trkpt><trkpt lat="43.15781" lon="12.2040883"><ele>409.0</ele><time>2026-03-29T11:45:56.321Z</time></trkpt><trkpt lat="43.157705" lon="12.2041217"><ele>412.0</ele><time>2026-03-29T11:45:57.322Z</time></trkpt><trkpt lat="43.15758" lon="12.20416"><ele>412.0</ele><time>2026-03-29T11:45:58.321Z</time></trkpt><trkpt lat="43.157465" lon="12.2041883"><ele>412.0</ele><time>2026-03-29T11:45:59.323Z</time></trkpt><trkpt lat="43.1573533" lon="12.20421"><ele>412.0</ele><time>2026-03-29T11:46:00.322Z</time></trkpt><trkpt lat="43.1572367" lon="12.2042333"><ele>412.0</ele><time>2026-03-29T11:46:01.324Z</time></trkpt><trkpt lat="43.157125" lon="12.204255"><ele>413.40000000000003</ele><time>2026-03-29T11:46:02.321Z</time></trkpt><trkpt lat="43.157015" lon="12.204275"><ele>414.8</ele><time>2026-03-29T11:46:03.324Z</time></trkpt><trkpt lat="43.15691" lon="12.2042783"><ele>416.2</ele><time>2026-03-29T11:46:04.322Z</time></trkpt><trkpt lat="43.15681" lon="12.20426"><ele>417.6</ele><time>2026-03-29T11:46:05.322Z</time></trkpt><trkpt lat="43.15672" lon="12.2042217"><ele>419.0</ele><time>2026-03-29T11:46:06.321Z</time></trkpt><trkpt lat="43.1566383" lon="12.2041683"><ele>419.0</ele><time>2026-03-29T11:46:07.324Z</time></trkpt><trkpt lat="43.1565783" lon="12.2040933"><ele>419.0</ele><time>2026-03-29T11:46:08.321Z</time></trkpt><trkpt lat="43.1565067" lon="12.2040167"><ele>419.0</ele><time>2026-03-29T11:46:09.324Z</time></trkpt><trkpt lat="43.156425" lon="12.2039517"><ele>419.0</ele><time>2026-03-29T11:46:10.324Z</time></trkpt><trkpt lat="43.1563367" lon="12.2038967"><ele>419.0</ele><time>2026-03-29T11:46:11.32Z</time></trkpt><trkpt lat="43.156245" lon="12.2038467"><ele>418.2</ele><time>2026-03-29T11:46:12.324Z</time></trkpt><trkpt lat="43.15615" lon="12.203795"><ele>417.4</ele><time>2026-03-29T11:46:13.321Z</time></trkpt><trkpt lat="43.1560517" lon="12.2037333"><ele>416.6</ele><time>2026-03-29T11:46:14.322Z</time></trkpt><trkpt lat="43.1559567" lon="12.20366"><ele>415.8</ele><time>2026-03-29T11:46:15.323Z</time></trkpt><trkpt lat="43.1558633" lon="12.2035783"><ele>415.0</ele><time>2026-03-29T11:46:16.32Z</time></trkpt><trkpt lat="43.1557733" lon="12.20349"><ele>413.25</ele><time>2026-03-29T11:46:17.323Z</time></trkpt><trkpt lat="43.15569" lon="12.2033917"><ele>411.5</ele><time>2026-03-29T11:46:18.32Z</time></trkpt><trkpt lat="43.15561" lon="12.203275"><ele>409.75</ele><time>2026-03-29T11:46:19.321Z</time></trkpt><trkpt lat="43.155525" lon="12.2031467"><ele>408.0</ele><time>2026-03-29T11:46:20.321Z</time></trkpt><trkpt lat="43.1554383" lon="12.20302"><ele>408.0</ele><time>2026-03-29T11:46:21.326Z</time></trkpt><trkpt lat="43.1553633" lon="12.2029033"><ele>408.0</ele><time>2026-03-29T11:46:22.321Z</time></trkpt><trkpt lat="43.1552933" lon="12.2027967"><ele>408.0</ele><time>2026-03-29T11:46:23.322Z</time></trkpt><trkpt lat="43.15522" lon="12.2027"><ele>408.0</ele><time>2026-03-29T11:46:24.321Z</time></trkpt><trkpt lat="43.1551533" lon="12.20261"><ele>408.0</ele><time>2026-03-29T11:46:25.324Z</time></trkpt><trkpt lat="43.1550967" lon="12.2025183"><ele>408.0</ele><time>2026-03-29T11:46:26.322Z</time></trkpt><trkpt lat="43.1550467" lon="12.20242"><ele>408.0</ele><time>2026-03-29T11:46:27.322Z</time></trkpt><trkpt lat="43.1549933" lon="12.202315"><ele>408.0</ele><time>2026-03-29T11:46:28.323Z</time></trkpt><trkpt lat="43.1549317" lon="12.202205"><ele>408.0</ele><time>2026-03-29T11:46:29.322Z</time></trkpt><trkpt lat="43.154855" lon="12.2021"><ele>408.0</ele><time>2026-03-29T11:46:30.321Z</time></trkpt><trkpt lat="43.1547683" lon="12.202"><ele>408.59999999999997</ele><time>2026-03-29T11:46:31.321Z</time></trkpt><trkpt lat="43.1546767" lon="12.2019"><ele>409.2</ele><time>2026-03-29T11:46:32.323Z</time></trkpt><trkpt lat="43.154585" lon="12.201805"><ele>409.8</ele><time>2026-03-29T11:46:33.321Z</time></trkpt><trkpt lat="43.154495" lon="12.201715"><ele>410.4</ele><time>2026-03-29T11:46:34.321Z</time></trkpt><trkpt lat="43.15441" lon="12.2016283"><ele>411.0</ele><time>2026-03-29T11:46:35.326Z</time></trkpt><trkpt lat="43.154335" lon="12.201545"><ele>410.3333333333333</ele><time>2026-03-29T11:46:36.325Z</time></trkpt><trkpt lat="43.1542667" lon="12.201475"><ele>409.66666666666663</ele><time>2026-03-29T11:46:37.321Z</time></trkpt><trkpt lat="43.154205" lon="12.2014233"><ele>409.0</ele><time>2026-03-29T11:46:38.321Z</time></trkpt><trkpt lat="43.154115" lon="12.2014133"><ele>408.3333333333333</ele><time>2026-03-29T11:46:40.319Z</time></trkpt><trkpt lat="43.1540317" lon="12.201485"><ele>407.66666666666663</ele><time>2026-03-29T11:46:42.32Z</time></trkpt><trkpt lat="43.1539333" lon="12.2014967"><ele>407.0</ele><time>2026-03-29T11:46:44.325Z</time></trkpt><trkpt lat="43.1538667" lon="12.20149"><ele>408.6</ele><time>2026-03-29T11:46:45.322Z</time></trkpt><trkpt lat="43.1537833" lon="12.2014867"><ele>410.20000000000005</ele><time>2026-03-29T11:46:46.321Z</time></trkpt><trkpt lat="43.1536883" lon="12.20148"><ele>411.8</ele><time>2026-03-29T11:46:47.321Z</time></trkpt><trkpt lat="43.1535867" lon="12.2014633"><ele>413.4</ele><time>2026-03-29T11:46:48.322Z</time></trkpt><trkpt lat="43.15348" lon="12.2014317"><ele>415.0</ele><time>2026-03-29T11:46:49.325Z</time></trkpt><trkpt lat="43.1533733" lon="12.2013817"><ele>415.0</ele><time>2026-03-29T11:46:50.322Z</time></trkpt><trkpt lat="43.1532733" lon="12.2013217"><ele>415.0</ele><time>2026-03-29T11:46:51.323Z</time></trkpt><trkpt lat="43.15318" lon="12.2012617"><ele>415.0</ele><time>2026-03-29T11:46:52.325Z</time></trkpt><trkpt lat="43.1530817" lon="12.2012117"><ele>415.0</ele><time>2026-03-29T11:46:53.321Z</time></trkpt><trkpt lat="43.1529983" lon="12.2011633"><ele>415.0</ele><time>2026-03-29T11:46:54.321Z</time></trkpt><trkpt lat="43.1529017" lon="12.2011367"><ele>416.0</ele><time>2026-03-29T11:46:55.324Z</time></trkpt><trkpt lat="43.152795" lon="12.2011267"><ele>417.0</ele><time>2026-03-29T11:46:56.325Z</time></trkpt><trkpt lat="43.152685" lon="12.2011267"><ele>418.0</ele><time>2026-03-29T11:46:57.324Z</time></trkpt><trkpt lat="43.1525733" lon="12.20113"><ele>419.0</ele><time>2026-03-29T11:46:58.323Z</time></trkpt><trkpt lat="43.1524717" lon="12.2011317"><ele>420.0</ele><time>2026-03-29T11:46:59.321Z</time></trkpt><trkpt lat="43.15237" lon="12.201125"><ele>420.8</ele><time>2026-03-29T11:47:00.324Z</time></trkpt><trkpt lat="43.1522667" lon="12.2010967"><ele>421.6</ele><time>2026-03-29T11:47:01.322Z</time></trkpt><trkpt lat="43.1521733" lon="12.2010467"><ele>422.4</ele><time>2026-03-29T11:47:02.321Z</time></trkpt><trkpt lat="43.152085" lon="12.20099"><ele>423.2</ele><time>2026-03-29T11:47:03.325Z</time></trkpt><trkpt lat="43.1520083" lon="12.2009417"><ele>424.0</ele><time>2026-03-29T11:47:04.32Z</time></trkpt><trkpt lat="43.1519483" lon="12.200905"><ele>424.0</ele><time>2026-03-29T11:47:05.32Z</time></trkpt><trkpt lat="43.1518733" lon="12.2008733"><ele>424.0</ele><time>2026-03-29T11:47:07.32Z</time></trkpt><trkpt lat="43.1518783" lon="12.20103"><ele>424.0</ele><time>2026-03-29T11:48:29.317Z</time></trkpt><trkpt lat="43.1520767" lon="12.2011733"><ele>424.0</ele><time>2026-03-29T11:48:34.318Z</time></trkpt><trkpt lat="43.1520617" lon="12.2012833"><ele>424.0</ele><time>2026-03-29T11:48:36.322Z</time></trkpt><trkpt lat="43.1520033" lon="12.2013317"><ele>424.0</ele><time>2026-03-29T11:48:37.322Z</time></trkpt><trkpt lat="43.151865" lon="12.2015883"><ele>424.0</ele><time>2026-03-29T11:48:40.321Z</time></trkpt><trkpt lat="43.1519383" lon="12.2014533"><ele>424.0</ele><time>2026-03-29T11:48:43.324Z</time></trkpt><trkpt lat="43.1520583" lon="12.2013533"><ele>424.0</ele><time>2026-03-29T11:48:45.32Z</time></trkpt><trkpt lat="43.1521017" lon="12.2012283"><ele>424.0</ele><time>2026-03-29T11:48:48.317Z</time></trkpt><trkpt lat="43.15204" lon="12.201125"><ele>424.0</ele><time>2026-03-29T11:48:55.324Z</time></trkpt><trkpt lat="43.1519917" lon="12.20106"><ele>424.0</ele><time>2026-03-29T11:48:59.321Z</time></trkpt><trkpt lat="43.1519017" lon="12.2010283"><ele>424.0</ele><time>2026-03-29T11:49:06.326Z</time></trkpt><trkpt lat="43.1519233" lon="12.2009033"><ele>424.00000000000006</ele><time>2026-03-29T11:51:50.323Z</time></trkpt><trkpt lat="43.1519733" lon="12.2008067"><ele>424.0</ele><time>2026-03-29T11:51:52.321Z</time></trkpt><trkpt lat="43.1519933" lon="12.200675"><ele>424.0</ele><time>2026-03-29T11:51:54.323Z</time></trkpt><trkpt lat="43.1519533" lon="12.20052"><ele>424.0</ele><time>2026-03-29T11:51:56.323Z</time></trkpt><trkpt lat="43.1519233" lon="12.2004333"><ele>424.00000000000006</ele><time>2026-03-29T11:51:57.324Z</time></trkpt><trkpt lat="43.151895" lon="12.200345"><ele>424.0</ele><time>2026-03-29T11:51:58.323Z</time></trkpt><trkpt lat="43.1518783" lon="12.20026"><ele>422.5</ele><time>2026-03-29T11:51:59.323Z</time></trkpt><trkpt lat="43.1518783" lon="12.200105"><ele>421.0</ele><time>2026-03-29T11:52:01.321Z</time></trkpt><trkpt lat="43.1518817" lon="12.199945"><ele>419.5</ele><time>2026-03-29T11:52:03.323Z</time></trkpt><trkpt lat="43.1518733" lon="12.1997783"><ele>418.0</ele><time>2026-03-29T11:52:05.32Z</time></trkpt><trkpt lat="43.1518583" lon="12.1996133"><ele>415.6666666666667</ele><time>2026-03-29T11:52:07.322Z</time></trkpt><trkpt lat="43.1518467" lon="12.1994617"><ele>413.33333333333337</ele><time>2026-03-29T11:52:09.321Z</time></trkpt><trkpt lat="43.1518217" lon="12.199315"><ele>411.0</ele><time>2026-03-29T11:52:11.326Z</time></trkpt><trkpt lat="43.1518017" lon="12.1992317"><ele>408.66666666666663</ele><time>2026-03-29T11:52:12.324Z</time></trkpt><trkpt lat="43.1517817" lon="12.1991467"><ele>406.3333333333333</ele><time>2026-03-29T11:52:13.321Z</time></trkpt><trkpt lat="43.1517583" lon="12.19905"><ele>404.0</ele><time>2026-03-29T11:52:14.323Z</time></trkpt><trkpt lat="43.1517317" lon="12.1989467"><ele>402.7142857142857</ele><time>2026-03-29T11:52:15.322Z</time></trkpt><trkpt lat="43.1517067" lon="12.19885"><ele>401.42857142857144</ele><time>2026-03-29T11:52:16.32Z</time></trkpt><trkpt lat="43.1516833" lon="12.1987567"><ele>400.1428571428571</ele><time>2026-03-29T11:52:17.323Z</time></trkpt><trkpt lat="43.151655" lon="12.1986683"><ele>398.8571428571429</ele><time>2026-03-29T11:52:18.321Z</time></trkpt><trkpt lat="43.1516283" lon="12.1985817"><ele>397.5714285714286</ele><time>2026-03-29T11:52:19.321Z</time></trkpt><trkpt lat="43.1516033" lon="12.1984933"><ele>396.2857142857143</ele><time>2026-03-29T11:52:20.321Z</time></trkpt><trkpt lat="43.1515767" lon="12.198405"><ele>395.0</ele><time>2026-03-29T11:52:21.323Z</time></trkpt><trkpt lat="43.1515383" lon="12.1983117"><ele>393.0</ele><time>2026-03-29T11:52:22.326Z</time></trkpt><trkpt lat="43.1514967" lon="12.1982067"><ele>391.0</ele><time>2026-03-29T11:52:23.323Z</time></trkpt><trkpt lat="43.1514433" lon="12.19809"><ele>389.0</ele><time>2026-03-29T11:52:24.322Z</time></trkpt><trkpt lat="43.1513767" lon="12.1979583"><ele>387.0</ele><time>2026-03-29T11:52:25.325Z</time></trkpt><trkpt lat="43.1513017" lon="12.197825"><ele>385.0</ele><time>2026-03-29T11:52:26.325Z</time></trkpt><trkpt lat="43.1512233" lon="12.197695"><ele>385.0</ele><time>2026-03-29T11:52:27.322Z</time></trkpt><trkpt lat="43.1511533" lon="12.1975667"><ele>385.0</ele><time>2026-03-29T11:52:28.324Z</time></trkpt><trkpt lat="43.1510917" lon="12.197455"><ele>385.0</ele><time>2026-03-29T11:52:29.323Z</time></trkpt><trkpt lat="43.15104" lon="12.1973567"><ele>385.0</ele><time>2026-03-29T11:52:30.319Z</time></trkpt><trkpt lat="43.150995" lon="12.197275"><ele>385.0</ele><time>2026-03-29T11:52:31.321Z</time></trkpt><trkpt lat="43.1509217" lon="12.1971283"><ele>385.7142857142857</ele><time>2026-03-29T11:52:33.324Z</time></trkpt><trkpt lat="43.150885" lon="12.19705"><ele>386.42857142857144</ele><time>2026-03-29T11:52:34.32Z</time></trkpt><trkpt lat="43.150845" lon="12.19697"><ele>387.1428571428571</ele><time>2026-03-29T11:52:35.323Z</time></trkpt><trkpt lat="43.1508" lon="12.19689"><ele>387.8571428571429</ele><time>2026-03-29T11:52:36.323Z</time></trkpt><trkpt lat="43.1507583" lon="12.1968117"><ele>388.57142857142856</ele><time>2026-03-29T11:52:37.321Z</time></trkpt><trkpt lat="43.150715" lon="12.1967333"><ele>389.2857142857143</ele><time>2026-03-29T11:52:38.325Z</time></trkpt><trkpt lat="43.150675" lon="12.1966633"><ele>390.0</ele><time>2026-03-29T11:52:39.322Z</time></trkpt><trkpt lat="43.15062" lon="12.1965617"><ele>386.1666666666667</ele><time>2026-03-29T11:52:41.322Z</time></trkpt><trkpt lat="43.1505467" lon="12.1965983"><ele>382.3333333333333</ele><time>2026-03-29T11:52:44.321Z</time></trkpt><trkpt lat="43.1505033" lon="12.196695"><ele>378.5</ele><time>2026-03-29T11:52:46.322Z</time></trkpt><trkpt lat="43.1504217" lon="12.1966817"><ele>374.66666666666663</ele><time>2026-03-29T11:52:48.323Z</time></trkpt><trkpt lat="43.1503733" lon="12.1966167"><ele>370.8333333333333</ele><time>2026-03-29T11:52:49.322Z</time></trkpt><trkpt lat="43.1503283" lon="12.1965217"><ele>367.0</ele><time>2026-03-29T11:52:50.324Z</time></trkpt><trkpt lat="43.1502767" lon="12.196425"><ele>366.85714285714283</ele><time>2026-03-29T11:52:51.325Z</time></trkpt><trkpt lat="43.15023" lon="12.1963267"><ele>366.7142857142857</ele><time>2026-03-29T11:52:52.325Z</time></trkpt><trkpt lat="43.15019" lon="12.1962317"><ele>366.57142857142856</ele><time>2026-03-29T11:52:53.322Z</time></trkpt><trkpt lat="43.15016" lon="12.1961383"><ele>366.42857142857144</ele><time>2026-03-29T11:52:54.323Z</time></trkpt><trkpt lat="43.1501383" lon="12.1960483"><ele>366.28571428571433</ele><time>2026-03-29T11:52:55.324Z</time></trkpt><trkpt lat="43.1501317" lon="12.1959617"><ele>366.14285714285717</ele><time>2026-03-29T11:52:56.325Z</time></trkpt><trkpt lat="43.1501467" lon="12.1958717"><ele>366.0</ele><time>2026-03-29T11:52:57.326Z</time></trkpt><trkpt lat="43.150175" lon="12.195785"><ele>366.0</ele><time>2026-03-29T11:52:58.325Z</time></trkpt><trkpt lat="43.1502217" lon="12.195705"><ele>366.0</ele><time>2026-03-29T11:52:59.325Z</time></trkpt><trkpt lat="43.1502833" lon="12.195635"><ele>366.0</ele><time>2026-03-29T11:53:00.324Z</time></trkpt><trkpt lat="43.1503567" lon="12.19557"><ele>366.0</ele><time>2026-03-29T11:53:01.322Z</time></trkpt><trkpt lat="43.1504317" lon="12.1955167"><ele>366.0</ele><time>2026-03-29T11:53:02.322Z</time></trkpt><trkpt lat="43.1505083" lon="12.19545"><ele>366.0</ele><time>2026-03-29T11:53:03.322Z</time></trkpt><trkpt lat="43.1505783" lon="12.19538"><ele>365.3333333333333</ele><time>2026-03-29T11:53:04.323Z</time></trkpt><trkpt lat="43.1506483" lon="12.1952933"><ele>364.6666666666667</ele><time>2026-03-29T11:53:05.322Z</time></trkpt><trkpt lat="43.1507133" lon="12.195205"><ele>364.0</ele><time>2026-03-29T11:53:06.321Z</time></trkpt><trkpt lat="43.1507733" lon="12.1951283"><ele>363.33333333333337</ele><time>2026-03-29T11:53:07.322Z</time></trkpt><trkpt lat="43.1508367" lon="12.1950567"><ele>362.6666666666667</ele><time>2026-03-29T11:53:08.32Z</time></trkpt><trkpt lat="43.1509183" lon="12.1950033"><ele>362.0</ele><time>2026-03-29T11:53:09.32Z</time></trkpt><trkpt lat="43.1510083" lon="12.1949683"><ele>362.0</ele><time>2026-03-29T11:53:10.32Z</time></trkpt><trkpt lat="43.1510967" lon="12.1949417"><ele>362.0</ele><time>2026-03-29T11:53:11.323Z</time></trkpt><trkpt lat="43.15118" lon="12.1949267"><ele>362.0</ele><time>2026-03-29T11:53:12.324Z</time></trkpt><trkpt lat="43.1512583" lon="12.1949217"><ele>362.0</ele><time>2026-03-29T11:53:13.322Z</time></trkpt><trkpt lat="43.15134" lon="12.19492"><ele>362.0</ele><time>2026-03-29T11:53:14.322Z</time></trkpt><trkpt lat="43.151415" lon="12.1949183"><ele>362.0</ele><time>2026-03-29T11:53:15.321Z</time></trkpt><trkpt lat="43.1514867" lon="12.1949217"><ele>361.8</ele><time>2026-03-29T11:53:16.321Z</time></trkpt><trkpt lat="43.1515533" lon="12.1949333"><ele>361.6</ele><time>2026-03-29T11:53:17.322Z</time></trkpt><trkpt lat="43.1516633" lon="12.1949283"><ele>361.40000000000003</ele><time>2026-03-29T11:53:19.322Z</time></trkpt><trkpt lat="43.15172" lon="12.1948833"><ele>361.20000000000005</ele><time>2026-03-29T11:53:22.328Z</time></trkpt><trkpt lat="43.1516783" lon="12.1947917"><ele>361.0</ele><time>2026-03-29T11:53:25.325Z</time></trkpt><trkpt lat="43.15154" lon="12.1947433"><ele>361.0</ele><time>2026-03-29T11:53:27.32Z</time></trkpt><trkpt lat="43.151455" lon="12.1947267"><ele>361.0</ele><time>2026-03-29T11:53:28.319Z</time></trkpt><trkpt lat="43.1513683" lon="12.194705"><ele>361.0</ele><time>2026-03-29T11:53:29.322Z</time></trkpt><trkpt lat="43.15128" lon="12.19468"><ele>361.0</ele><time>2026-03-29T11:53:30.322Z</time></trkpt><trkpt lat="43.1511917" lon="12.1946617"><ele>361.0</ele><time>2026-03-29T11:53:31.322Z</time></trkpt><trkpt lat="43.1511183" lon="12.1946467"><ele>361.0</ele><time>2026-03-29T11:53:32.32Z</time></trkpt><trkpt lat="43.1510283" lon="12.1946317"><ele>361.0</ele><time>2026-03-29T11:53:34.319Z</time></trkpt><trkpt lat="43.15094" lon="12.194635"><ele>361.0</ele><time>2026-03-29T11:53:42.321Z</time></trkpt><trkpt lat="43.1508783" lon="12.194655"><ele>361.0</ele><time>2026-03-29T11:53:43.322Z</time></trkpt><trkpt lat="43.1507883" lon="12.1946867"><ele>361.0</ele><time>2026-03-29T11:53:44.323Z</time></trkpt><trkpt lat="43.1506867" lon="12.1947217"><ele>361.0</ele><time>2026-03-29T11:53:45.32Z</time></trkpt><trkpt lat="43.1505867" lon="12.19476"><ele>360.5</ele><time>2026-03-29T11:53:46.322Z</time></trkpt><trkpt lat="43.1504933" lon="12.1947933"><ele>360.0</ele><time>2026-03-29T11:53:47.324Z</time></trkpt><trkpt lat="43.1504183" lon="12.1948183"><ele>359.5</ele><time>2026-03-29T11:53:48.321Z</time></trkpt><trkpt lat="43.1503533" lon="12.1948283"><ele>359.0</ele><time>2026-03-29T11:53:49.322Z</time></trkpt><trkpt lat="43.1502883" lon="12.1948183"><ele>358.5</ele><time>2026-03-29T11:53:50.318Z</time></trkpt><trkpt lat="43.1501933" lon="12.1947633"><ele>358.0</ele><time>2026-03-29T11:53:52.32Z</time></trkpt><trkpt lat="43.1501867" lon="12.1946217"><ele>358.0</ele><time>2026-03-29T11:53:54.323Z</time></trkpt><trkpt lat="43.15017" lon="12.1945017"><ele>358.0</ele><time>2026-03-29T11:54:10.321Z</time></trkpt><trkpt lat="43.1501217" lon="12.1943467"><ele>358.0</ele><time>2026-03-29T11:54:12.323Z</time></trkpt><trkpt lat="43.1500817" lon="12.194255"><ele>358.0</ele><time>2026-03-29T11:54:13.319Z</time></trkpt><trkpt lat="43.1500267" lon="12.19416"><ele>358.0</ele><time>2026-03-29T11:54:14.322Z</time></trkpt><trkpt lat="43.149955" lon="12.19407"><ele>358.0</ele><time>2026-03-29T11:54:15.325Z</time></trkpt><trkpt lat="43.149875" lon="12.1939867"><ele>358.0</ele><time>2026-03-29T11:54:16.321Z</time></trkpt><trkpt lat="43.14979" lon="12.1939083"><ele>358.0</ele><time>2026-03-29T11:54:17.321Z</time></trkpt><trkpt lat="43.1497033" lon="12.19382"><ele>358.0</ele><time>2026-03-29T11:54:18.319Z</time></trkpt><trkpt lat="43.14962" lon="12.193725"><ele>358.0</ele><time>2026-03-29T11:54:19.323Z</time></trkpt><trkpt lat="43.149545" lon="12.193615"><ele>358.0</ele><time>2026-03-29T11:54:20.324Z</time></trkpt><trkpt lat="43.1494783" lon="12.1934917"><ele>358.0</ele><time>2026-03-29T11:54:21.321Z</time></trkpt><trkpt lat="43.1494167" lon="12.193365"><ele>358.0</ele><time>2026-03-29T11:54:22.319Z</time></trkpt><trkpt lat="43.1493567" lon="12.1932367"><ele>358.0</ele><time>2026-03-29T11:54:23.32Z</time></trkpt><trkpt lat="43.149305" lon="12.1931083"><ele>358.0</ele><time>2026-03-29T11:54:24.321Z</time></trkpt><trkpt lat="43.1492583" lon="12.1929817"><ele>359.59999999999997</ele><time>2026-03-29T11:54:25.328Z</time></trkpt><trkpt lat="43.14921" lon="12.1928583"><ele>361.2</ele><time>2026-03-29T11:54:26.321Z</time></trkpt><trkpt lat="43.1491617" lon="12.1927417"><ele>362.8</ele><time>2026-03-29T11:54:27.324Z</time></trkpt><trkpt lat="43.1491167" lon="12.1926333"><ele>364.4</ele><time>2026-03-29T11:54:28.32Z</time></trkpt><trkpt lat="43.14907" lon="12.192535"><ele>366.0</ele><time>2026-03-29T11:54:29.32Z</time></trkpt><trkpt lat="43.149035" lon="12.1924283"><ele>366.25</ele><time>2026-03-29T11:54:30.322Z</time></trkpt><trkpt lat="43.1490117" lon="12.1923083"><ele>366.5</ele><time>2026-03-29T11:54:31.32Z</time></trkpt><trkpt lat="43.149005" lon="12.19216"><ele>366.75</ele><time>2026-03-29T11:54:32.325Z</time></trkpt><trkpt lat="43.14902" lon="12.19199"><ele>367.0</ele><time>2026-03-29T11:54:33.322Z</time></trkpt><trkpt lat="43.149055" lon="12.1918083"><ele>367.0</ele><time>2026-03-29T11:54:34.323Z</time></trkpt><trkpt lat="43.1490983" lon="12.19163"><ele>367.0</ele><time>2026-03-29T11:54:35.324Z</time></trkpt><trkpt lat="43.1491467" lon="12.1914533"><ele>367.0</ele><time>2026-03-29T11:54:36.32Z</time></trkpt><trkpt lat="43.149195" lon="12.1912833"><ele>367.0</ele><time>2026-03-29T11:54:37.323Z</time></trkpt><trkpt lat="43.149245" lon="12.191125"><ele>367.0</ele><time>2026-03-29T11:54:38.32Z</time></trkpt><trkpt lat="43.149295" lon="12.1909817"><ele>367.0</ele><time>2026-03-29T11:54:39.321Z</time></trkpt><trkpt lat="43.1493383" lon="12.190855"><ele>367.0</ele><time>2026-03-29T11:54:40.322Z</time></trkpt><trkpt lat="43.149375" lon="12.1907417"><ele>367.0</ele><time>2026-03-29T11:54:41.319Z</time></trkpt><trkpt lat="43.14941" lon="12.190635"><ele>367.0</ele><time>2026-03-29T11:54:42.323Z</time></trkpt><trkpt lat="43.1494367" lon="12.1905233"><ele>367.8</ele><time>2026-03-29T11:54:43.325Z</time></trkpt><trkpt lat="43.1494533" lon="12.1904083"><ele>368.6</ele><time>2026-03-29T11:54:44.324Z</time></trkpt><trkpt lat="43.1494567" lon="12.1902833"><ele>369.40000000000003</ele><time>2026-03-29T11:54:45.322Z</time></trkpt><trkpt lat="43.1494483" lon="12.19015"><ele>370.20000000000005</ele><time>2026-03-29T11:54:46.324Z</time></trkpt><trkpt lat="43.1494333" lon="12.190005"><ele>371.0</ele><time>2026-03-29T11:54:47.324Z</time></trkpt><trkpt lat="43.1494267" lon="12.189855"><ele>372.6</ele><time>2026-03-29T11:54:48.322Z</time></trkpt><trkpt lat="43.1494333" lon="12.189705"><ele>374.20000000000005</ele><time>2026-03-29T11:54:49.321Z</time></trkpt><trkpt lat="43.1494333" lon="12.189555"><ele>375.79999999999995</ele><time>2026-03-29T11:54:50.32Z</time></trkpt><trkpt lat="43.1494267" lon="12.1894033"><ele>377.4</ele><time>2026-03-29T11:54:51.326Z</time></trkpt><trkpt lat="43.1494067" lon="12.1892567"><ele>379.0</ele><time>2026-03-29T11:54:52.322Z</time></trkpt><trkpt lat="43.14937" lon="12.1891167"><ele>378.25</ele><time>2026-03-29T11:54:53.324Z</time></trkpt><trkpt lat="43.1493117" lon="12.1889817"><ele>377.5</ele><time>2026-03-29T11:54:54.321Z</time></trkpt><trkpt lat="43.149235" lon="12.1888617"><ele>376.75</ele><time>2026-03-29T11:54:55.323Z</time></trkpt><trkpt lat="43.1491317" lon="12.18876"><ele>376.0</ele><time>2026-03-29T11:54:56.321Z</time></trkpt><trkpt lat="43.1490083" lon="12.1886717"><ele>379.66666666666663</ele><time>2026-03-29T11:54:57.324Z</time></trkpt><trkpt lat="43.1488633" lon="12.1885883"><ele>383.3333333333333</ele><time>2026-03-29T11:54:58.322Z</time></trkpt><trkpt lat="43.1487067" lon="12.1885033"><ele>387.0</ele><time>2026-03-29T11:54:59.321Z</time></trkpt><trkpt lat="43.148555" lon="12.1884083"><ele>387.0</ele><time>2026-03-29T11:55:00.323Z</time></trkpt><trkpt lat="43.1484083" lon="12.1883117"><ele>387.0</ele><time>2026-03-29T11:55:01.321Z</time></trkpt><trkpt lat="43.14827" lon="12.1882033"><ele>387.0</ele><time>2026-03-29T11:55:02.321Z</time></trkpt><trkpt lat="43.1481383" lon="12.1880933"><ele>387.0</ele><time>2026-03-29T11:55:03.32Z</time></trkpt><trkpt lat="43.1480183" lon="12.1879783"><ele>387.0</ele><time>2026-03-29T11:55:04.325Z</time></trkpt><trkpt lat="43.1479067" lon="12.1878567"><ele>387.0</ele><time>2026-03-29T11:55:05.324Z</time></trkpt><trkpt lat="43.1478033" lon="12.1877267"><ele>387.0</ele><time>2026-03-29T11:55:06.321Z</time></trkpt><trkpt lat="43.1477033" lon="12.1875983"><ele>387.0</ele><time>2026-03-29T11:55:07.321Z</time></trkpt><trkpt lat="43.147605" lon="12.18747"><ele>387.0</ele><time>2026-03-29T11:55:08.323Z</time></trkpt><trkpt lat="43.1475117" lon="12.1873367"><ele>387.0</ele><time>2026-03-29T11:55:09.325Z</time></trkpt><trkpt lat="43.147435" lon="12.1871867"><ele>387.0</ele><time>2026-03-29T11:55:10.323Z</time></trkpt><trkpt lat="43.1473783" lon="12.1870217"><ele>388.0</ele><time>2026-03-29T11:55:11.322Z</time></trkpt><trkpt lat="43.14734" lon="12.1868417"><ele>389.0</ele><time>2026-03-29T11:55:12.326Z</time></trkpt><trkpt lat="43.1473233" lon="12.1866533"><ele>390.0</ele><time>2026-03-29T11:55:13.323Z</time></trkpt><trkpt lat="43.1473283" lon="12.18646"><ele>391.0</ele><time>2026-03-29T11:55:14.321Z</time></trkpt><trkpt lat="43.14735" lon="12.1862733"><ele>390.25</ele><time>2026-03-29T11:55:15.327Z</time></trkpt><trkpt lat="43.1473767" lon="12.1860783"><ele>389.5</ele><time>2026-03-29T11:55:16.321Z</time></trkpt><trkpt lat="43.1474083" lon="12.1858767"><ele>388.75</ele><time>2026-03-29T11:55:17.322Z</time></trkpt><trkpt lat="43.1474433" lon="12.1856733"><ele>388.0</ele><time>2026-03-29T11:55:18.322Z</time></trkpt><trkpt lat="43.1474817" lon="12.185465"><ele>388.0</ele><time>2026-03-29T11:55:19.321Z</time></trkpt><trkpt lat="43.1475233" lon="12.18525"><ele>388.0</ele><time>2026-03-29T11:55:20.321Z</time></trkpt><trkpt lat="43.147565" lon="12.18504"><ele>388.0</ele><time>2026-03-29T11:55:21.326Z</time></trkpt><trkpt lat="43.1476067" lon="12.184845"><ele>388.75</ele><time>2026-03-29T11:55:22.323Z</time></trkpt><trkpt lat="43.1476517" lon="12.18466"><ele>389.5</ele><time>2026-03-29T11:55:23.323Z</time></trkpt><trkpt lat="43.1476967" lon="12.1844833"><ele>390.25</ele><time>2026-03-29T11:55:24.323Z</time></trkpt><trkpt lat="43.1477417" lon="12.18432"><ele>391.0</ele><time>2026-03-29T11:55:25.321Z</time></trkpt><trkpt lat="43.147785" lon="12.1841667"><ele>389.25</ele><time>2026-03-29T11:55:26.321Z</time></trkpt><trkpt lat="43.1478283" lon="12.18401"><ele>387.5</ele><time>2026-03-29T11:55:27.323Z</time></trkpt><trkpt lat="43.1478667" lon="12.18386"><ele>385.75</ele><time>2026-03-29T11:55:28.322Z</time></trkpt><trkpt lat="43.1478917" lon="12.1837167"><ele>384.0</ele><time>2026-03-29T11:55:29.321Z</time></trkpt><trkpt lat="43.1479033" lon="12.18356"><ele>384.0</ele><time>2026-03-29T11:55:30.322Z</time></trkpt><trkpt lat="43.1478917" lon="12.183405"><ele>384.0</ele><time>2026-03-29T11:55:31.322Z</time></trkpt><trkpt lat="43.1478517" lon="12.1832483"><ele>384.0</ele><time>2026-03-29T11:55:32.319Z</time></trkpt><trkpt lat="43.1477933" lon="12.1831017"><ele>384.0</ele><time>2026-03-29T11:55:33.321Z</time></trkpt><trkpt lat="43.147715" lon="12.1829517"><ele>382.5</ele><time>2026-03-29T11:55:34.326Z</time></trkpt><trkpt lat="43.1476233" lon="12.1828"><ele>381.0</ele><time>2026-03-29T11:55:35.319Z</time></trkpt><trkpt lat="43.1475167" lon="12.1826633"><ele>379.5</ele><time>2026-03-29T11:55:36.319Z</time></trkpt><trkpt lat="43.1474" lon="12.182535"><ele>378.0</ele><time>2026-03-29T11:55:37.325Z</time></trkpt><trkpt lat="43.1472767" lon="12.1824183"><ele>374.6666666666667</ele><time>2026-03-29T11:55:38.324Z</time></trkpt><trkpt lat="43.1471517" lon="12.1823117"><ele>371.33333333333337</ele><time>2026-03-29T11:55:39.324Z</time></trkpt><trkpt lat="43.1470233" lon="12.1821983"><ele>368.0</ele><time>2026-03-29T11:55:40.322Z</time></trkpt><trkpt lat="43.1469017" lon="12.182075"><ele>368.0</ele><time>2026-03-29T11:55:41.325Z</time></trkpt><trkpt lat="43.1467933" lon="12.18193"><ele>368.0</ele><time>2026-03-29T11:55:42.322Z</time></trkpt><trkpt lat="43.1466983" lon="12.18178"><ele>368.0</ele><time>2026-03-29T11:55:43.327Z</time></trkpt><trkpt lat="43.1466117" lon="12.1816317"><ele>368.0</ele><time>2026-03-29T11:55:44.326Z</time></trkpt><trkpt lat="43.1465317" lon="12.18148"><ele>370.0</ele><time>2026-03-29T11:55:45.322Z</time></trkpt><trkpt lat="43.1464567" lon="12.18133"><ele>372.0</ele><time>2026-03-29T11:55:46.324Z</time></trkpt><trkpt lat="43.1463867" lon="12.1811733"><ele>374.0</ele><time>2026-03-29T11:55:47.322Z</time></trkpt><trkpt lat="43.1463217" lon="12.180995"><ele>376.0</ele><time>2026-03-29T11:55:48.325Z</time></trkpt><trkpt lat="43.14626" lon="12.180815"><ele>375.0</ele><time>2026-03-29T11:55:49.324Z</time></trkpt><trkpt lat="43.1462017" lon="12.180635"><ele>374.0</ele><time>2026-03-29T11:55:50.321Z</time></trkpt><trkpt lat="43.1461433" lon="12.180455"><ele>373.0</ele><time>2026-03-29T11:55:51.325Z</time></trkpt><trkpt lat="43.1460883" lon="12.1802717"><ele>372.0</ele><time>2026-03-29T11:55:52.321Z</time></trkpt><trkpt lat="43.1460367" lon="12.1800867"><ele>372.0</ele><time>2026-03-29T11:55:53.32Z</time></trkpt><trkpt lat="43.145985" lon="12.1798983"><ele>372.0</ele><time>2026-03-29T11:55:54.326Z</time></trkpt><trkpt lat="43.1459333" lon="12.1797083"><ele>372.0</ele><time>2026-03-29T11:55:55.32Z</time></trkpt><trkpt lat="43.1458817" lon="12.1795233"><ele>372.0</ele><time>2026-03-29T11:55:56.32Z</time></trkpt><trkpt lat="43.14583" lon="12.1793483"><ele>370.25</ele><time>2026-03-29T11:55:57.321Z</time></trkpt><trkpt lat="43.14578" lon="12.1791817"><ele>368.5</ele><time>2026-03-29T11:55:58.322Z</time></trkpt><trkpt lat="43.145725" lon="12.1790233"><ele>366.75</ele><time>2026-03-29T11:55:59.322Z</time></trkpt><trkpt lat="43.145655" lon="12.1788833"><ele>365.0</ele><time>2026-03-29T11:56:00.321Z</time></trkpt><trkpt lat="43.1455683" lon="12.1787617"><ele>365.0</ele><time>2026-03-29T11:56:01.326Z</time></trkpt><trkpt lat="43.145465" lon="12.17866"><ele>365.0</ele><time>2026-03-29T11:56:02.321Z</time></trkpt><trkpt lat="43.1453483" lon="12.1785783"><ele>365.0</ele><time>2026-03-29T11:56:03.324Z</time></trkpt><trkpt lat="43.14523" lon="12.1784917"><ele>365.0</ele><time>2026-03-29T11:56:04.322Z</time></trkpt><trkpt lat="43.1451133" lon="12.1784083"><ele>365.0</ele><time>2026-03-29T11:56:05.325Z</time></trkpt><trkpt lat="43.1449967" lon="12.17832"><ele>365.0</ele><time>2026-03-29T11:56:06.32Z</time></trkpt><trkpt lat="43.1448833" lon="12.1782233"><ele>365.0</ele><time>2026-03-29T11:56:07.319Z</time></trkpt><trkpt lat="43.1447783" lon="12.1781167"><ele>365.0</ele><time>2026-03-29T11:56:08.322Z</time></trkpt><trkpt lat="43.1446783" lon="12.1780017"><ele>367.25</ele><time>2026-03-29T11:56:09.325Z</time></trkpt><trkpt lat="43.1445867" lon="12.1778767"><ele>369.5</ele><time>2026-03-29T11:56:10.32Z</time></trkpt><trkpt lat="43.1445017" lon="12.1777467"><ele>371.75</ele><time>2026-03-29T11:56:11.323Z</time></trkpt><trkpt lat="43.144425" lon="12.17761"><ele>374.0</ele><time>2026-03-29T11:56:12.323Z</time></trkpt><trkpt lat="43.1443567" lon="12.1774667"><ele>373.2</ele><time>2026-03-29T11:56:13.325Z</time></trkpt><trkpt lat="43.144295" lon="12.1773317"><ele>372.4</ele><time>2026-03-29T11:56:14.323Z</time></trkpt><trkpt lat="43.14424" lon="12.177205"><ele>371.6</ele><time>2026-03-29T11:56:15.322Z</time></trkpt><trkpt lat="43.1441867" lon="12.17709"><ele>370.8</ele><time>2026-03-29T11:56:16.326Z</time></trkpt><trkpt lat="43.1441367" lon="12.17698"><ele>370.0</ele><time>2026-03-29T11:56:17.322Z</time></trkpt><trkpt lat="43.1440917" lon="12.1768683"><ele>370.0</ele><time>2026-03-29T11:56:18.321Z</time></trkpt><trkpt lat="43.1440567" lon="12.1767567"><ele>370.0</ele><time>2026-03-29T11:56:19.325Z</time></trkpt><trkpt lat="43.1440317" lon="12.1766433"><ele>370.0</ele><time>2026-03-29T11:56:20.32Z</time></trkpt><trkpt lat="43.1440167" lon="12.1765333"><ele>370.0</ele><time>2026-03-29T11:56:21.323Z</time></trkpt><trkpt lat="43.14401" lon="12.176435"><ele>370.0</ele><time>2026-03-29T11:56:22.324Z</time></trkpt><trkpt lat="43.14401" lon="12.176335"><ele>370.0</ele><time>2026-03-29T11:56:23.322Z</time></trkpt><trkpt lat="43.1440167" lon="12.1762283"><ele>370.16666666666663</ele><time>2026-03-29T11:56:24.324Z</time></trkpt><trkpt lat="43.1440267" lon="12.1761267"><ele>370.3333333333333</ele><time>2026-03-29T11:56:25.322Z</time></trkpt><trkpt lat="43.14404" lon="12.17603"><ele>370.5</ele><time>2026-03-29T11:56:26.322Z</time></trkpt><trkpt lat="43.14405" lon="12.1759267"><ele>370.6666666666667</ele><time>2026-03-29T11:56:27.321Z</time></trkpt><trkpt lat="43.1440617" lon="12.1758267"><ele>370.83333333333337</ele><time>2026-03-29T11:56:28.324Z</time></trkpt><trkpt lat="43.14407" lon="12.1757167"><ele>371.0</ele><time>2026-03-29T11:56:29.324Z</time></trkpt><trkpt lat="43.14408" lon="12.1756117"><ele>370.1666666666667</ele><time>2026-03-29T11:56:30.321Z</time></trkpt><trkpt lat="43.1440883" lon="12.17551"><ele>369.33333333333337</ele><time>2026-03-29T11:56:31.325Z</time></trkpt><trkpt lat="43.1440967" lon="12.17541"><ele>368.5</ele><time>2026-03-29T11:56:32.32Z</time></trkpt><trkpt lat="43.1441" lon="12.175315"><ele>367.6666666666667</ele><time>2026-03-29T11:56:33.32Z</time></trkpt><trkpt lat="43.144095" lon="12.1752083"><ele>366.8333333333333</ele><time>2026-03-29T11:56:34.322Z</time></trkpt><trkpt lat="43.1440833" lon="12.1750983"><ele>366.0</ele><time>2026-03-29T11:56:35.322Z</time></trkpt><trkpt lat="43.14407" lon="12.174985"><ele>366.0</ele><time>2026-03-29T11:56:36.321Z</time></trkpt><trkpt lat="43.144055" lon="12.174875"><ele>366.0</ele><time>2026-03-29T11:56:37.323Z</time></trkpt><trkpt lat="43.1440417" lon="12.174755"><ele>366.0</ele><time>2026-03-29T11:56:38.321Z</time></trkpt><trkpt lat="43.1440333" lon="12.1746233"><ele>366.0</ele><time>2026-03-29T11:56:39.321Z</time></trkpt><trkpt lat="43.1440317" lon="12.1744883"><ele>366.0</ele><time>2026-03-29T11:56:40.325Z</time></trkpt><trkpt lat="43.144035" lon="12.1743467"><ele>365.0</ele><time>2026-03-29T11:56:41.322Z</time></trkpt><trkpt lat="43.1440367" lon="12.174205"><ele>364.0</ele><time>2026-03-29T11:56:42.322Z</time></trkpt><trkpt lat="43.1440383" lon="12.1740633"><ele>363.0</ele><time>2026-03-29T11:56:43.323Z</time></trkpt><trkpt lat="43.1440417" lon="12.17392"><ele>362.0</ele><time>2026-03-29T11:56:44.321Z</time></trkpt><trkpt lat="43.144045" lon="12.1737767"><ele>361.0</ele><time>2026-03-29T11:56:45.323Z</time></trkpt><trkpt lat="43.14405" lon="12.1736383"><ele>360.6</ele><time>2026-03-29T11:56:46.324Z</time></trkpt><trkpt lat="43.14406" lon="12.1735033"><ele>360.20000000000005</ele><time>2026-03-29T11:56:47.322Z</time></trkpt><trkpt lat="43.1440833" lon="12.17338"><ele>359.79999999999995</ele><time>2026-03-29T11:56:48.326Z</time></trkpt><trkpt lat="43.144125" lon="12.1732633"><ele>359.4</ele><time>2026-03-29T11:56:49.32Z</time></trkpt><trkpt lat="43.14419" lon="12.1731533"><ele>359.0</ele><time>2026-03-29T11:56:50.321Z</time></trkpt><trkpt lat="43.14428" lon="12.17305"><ele>356.25</ele><time>2026-03-29T11:56:51.321Z</time></trkpt><trkpt lat="43.1443767" lon="12.1729467"><ele>353.5</ele><time>2026-03-29T11:56:52.322Z</time></trkpt><trkpt lat="43.1444767" lon="12.1728417"><ele>350.75</ele><time>2026-03-29T11:56:53.322Z</time></trkpt><trkpt lat="43.1445733" lon="12.172735"><ele>348.0</ele><time>2026-03-29T11:56:54.323Z</time></trkpt><trkpt lat="43.1446667" lon="12.1726217"><ele>348.0</ele><time>2026-03-29T11:56:55.32Z</time></trkpt><trkpt lat="43.14476" lon="12.172515"><ele>348.0</ele><time>2026-03-29T11:56:56.319Z</time></trkpt><trkpt lat="43.144845" lon="12.1724133"><ele>348.0</ele><time>2026-03-29T11:56:57.323Z</time></trkpt><trkpt lat="43.1449183" lon="12.1722983"><ele>348.0</ele><time>2026-03-29T11:56:58.326Z</time></trkpt><trkpt lat="43.144965" lon="12.1721633"><ele>345.75</ele><time>2026-03-29T11:56:59.319Z</time></trkpt><trkpt lat="43.144985" lon="12.1720133"><ele>343.5</ele><time>2026-03-29T11:57:00.324Z</time></trkpt><trkpt lat="43.1449767" lon="12.17185"><ele>341.25</ele><time>2026-03-29T11:57:01.32Z</time></trkpt><trkpt lat="43.1449433" lon="12.1716967"><ele>339.0</ele><time>2026-03-29T11:57:02.32Z</time></trkpt><trkpt lat="43.14489" lon="12.171545"><ele>335.75</ele><time>2026-03-29T11:57:03.324Z</time></trkpt><trkpt lat="43.1448267" lon="12.1713883"><ele>332.5</ele><time>2026-03-29T11:57:04.32Z</time></trkpt><trkpt lat="43.1447633" lon="12.17123"><ele>329.25</ele><time>2026-03-29T11:57:05.324Z</time></trkpt><trkpt lat="43.1447033" lon="12.17107"><ele>326.0</ele><time>2026-03-29T11:57:06.321Z</time></trkpt><trkpt lat="43.1446433" lon="12.170905"><ele>326.0</ele><time>2026-03-29T11:57:07.321Z</time></trkpt><trkpt lat="43.1445817" lon="12.1707367"><ele>326.0</ele><time>2026-03-29T11:57:08.323Z</time></trkpt><trkpt lat="43.144525" lon="12.1705683"><ele>326.0</ele><time>2026-03-29T11:57:09.32Z</time></trkpt><trkpt lat="43.1444767" lon="12.1704"><ele>326.0</ele><time>2026-03-29T11:57:10.321Z</time></trkpt><trkpt lat="43.1444383" lon="12.1702317"><ele>326.25</ele><time>2026-03-29T11:57:11.318Z</time></trkpt><trkpt lat="43.1444133" lon="12.1700633"><ele>326.5</ele><time>2026-03-29T11:57:12.323Z</time></trkpt><trkpt lat="43.1443933" lon="12.1698967"><ele>326.75</ele><time>2026-03-29T11:57:13.319Z</time></trkpt><trkpt lat="43.1443783" lon="12.1697283"><ele>327.0</ele><time>2026-03-29T11:57:14.322Z</time></trkpt><trkpt lat="43.1443683" lon="12.1695567"><ele>327.0</ele><time>2026-03-29T11:57:15.324Z</time></trkpt><trkpt lat="43.1443633" lon="12.1693833"><ele>327.0</ele><time>2026-03-29T11:57:16.323Z</time></trkpt><trkpt lat="43.14436" lon="12.1692133"><ele>327.0</ele><time>2026-03-29T11:57:17.322Z</time></trkpt><trkpt lat="43.1443717" lon="12.1690483"><ele>327.0</ele><time>2026-03-29T11:57:18.322Z</time></trkpt><trkpt lat="43.14438" lon="12.1688883"><ele>326.5</ele><time>2026-03-29T11:57:19.32Z</time></trkpt><trkpt lat="43.1443783" lon="12.1687317"><ele>326.0</ele><time>2026-03-29T11:57:20.322Z</time></trkpt><trkpt lat="43.1443583" lon="12.1685733"><ele>325.5</ele><time>2026-03-29T11:57:21.324Z</time></trkpt><trkpt lat="43.1443183" lon="12.16841"><ele>325.0</ele><time>2026-03-29T11:57:22.322Z</time></trkpt><trkpt lat="43.144265" lon="12.1682467"><ele>323.75</ele><time>2026-03-29T11:57:23.324Z</time></trkpt><trkpt lat="43.1442067" lon="12.16809"><ele>322.5</ele><time>2026-03-29T11:57:24.321Z</time></trkpt><trkpt lat="43.1441483" lon="12.1679417"><ele>321.25</ele><time>2026-03-29T11:57:25.32Z</time></trkpt><trkpt lat="43.1440917" lon="12.167795"><ele>320.0</ele><time>2026-03-29T11:57:26.319Z</time></trkpt><trkpt lat="43.1440383" lon="12.1676467"><ele>316.25</ele><time>2026-03-29T11:57:27.321Z</time></trkpt><trkpt lat="43.1439883" lon="12.1674967"><ele>312.5</ele><time>2026-03-29T11:57:28.32Z</time></trkpt><trkpt lat="43.1439383" lon="12.167345"><ele>308.75</ele><time>2026-03-29T11:57:29.319Z</time></trkpt><trkpt lat="43.1438967" lon="12.1671883"><ele>305.0</ele><time>2026-03-29T11:57:30.32Z</time></trkpt><trkpt lat="43.14386" lon="12.16703"><ele>304.25</ele><time>2026-03-29T11:57:31.319Z</time></trkpt><trkpt lat="43.14383" lon="12.1668733"><ele>303.5</ele><time>2026-03-29T11:57:32.323Z</time></trkpt><trkpt lat="43.143805" lon="12.16672"><ele>302.75</ele><time>2026-03-29T11:57:33.322Z</time></trkpt><trkpt lat="43.14379" lon="12.1665683"><ele>302.0</ele><time>2026-03-29T11:57:34.321Z</time></trkpt><trkpt lat="43.1437867" lon="12.16642"><ele>302.8</ele><time>2026-03-29T11:57:35.324Z</time></trkpt><trkpt lat="43.1437967" lon="12.16627"><ele>303.6</ele><time>2026-03-29T11:57:36.322Z</time></trkpt><trkpt lat="43.1438333" lon="12.1661283"><ele>304.40000000000003</ele><time>2026-03-29T11:57:37.322Z</time></trkpt><trkpt lat="43.1438883" lon="12.165995"><ele>305.2</ele><time>2026-03-29T11:57:38.32Z</time></trkpt><trkpt lat="43.1439633" lon="12.1658817"><ele>306.0</ele><time>2026-03-29T11:57:39.323Z</time></trkpt><trkpt lat="43.1440567" lon="12.1657767"><ele>302.25</ele><time>2026-03-29T11:57:40.321Z</time></trkpt><trkpt lat="43.1441667" lon="12.1656917"><ele>298.5</ele><time>2026-03-29T11:57:41.323Z</time></trkpt><trkpt lat="43.144285" lon="12.16563"><ele>294.75</ele><time>2026-03-29T11:57:42.32Z</time></trkpt><trkpt lat="43.144405" lon="12.16559"><ele>291.0</ele><time>2026-03-29T11:57:43.32Z</time></trkpt><trkpt lat="43.1445267" lon="12.16556"><ele>291.0</ele><time>2026-03-29T11:57:44.321Z</time></trkpt><trkpt lat="43.1446483" lon="12.1655367"><ele>291.0</ele><time>2026-03-29T11:57:45.322Z</time></trkpt><trkpt lat="43.14477" lon="12.16551"><ele>291.0</ele><time>2026-03-29T11:57:46.321Z</time></trkpt><trkpt lat="43.1448867" lon="12.1654817"><ele>291.0</ele><time>2026-03-29T11:57:47.32Z</time></trkpt><trkpt lat="43.145" lon="12.1654483"><ele>291.75</ele><time>2026-03-29T11:57:48.322Z</time></trkpt><trkpt lat="43.14511" lon="12.16541"><ele>292.5</ele><time>2026-03-29T11:57:49.321Z</time></trkpt><trkpt lat="43.145215" lon="12.1653517"><ele>293.25</ele><time>2026-03-29T11:57:50.32Z</time></trkpt><trkpt lat="43.1453083" lon="12.1652667"><ele>294.0</ele><time>2026-03-29T11:57:51.324Z</time></trkpt><trkpt lat="43.1453817" lon="12.1651517"><ele>294.0</ele><time>2026-03-29T11:57:52.321Z</time></trkpt><trkpt lat="43.1454233" lon="12.16502"><ele>294.0</ele><time>2026-03-29T11:57:53.322Z</time></trkpt><trkpt lat="43.1454267" lon="12.16488"><ele>294.0</ele><time>2026-03-29T11:57:54.322Z</time></trkpt><trkpt lat="43.1453967" lon="12.164745"><ele>294.0</ele><time>2026-03-29T11:57:55.32Z</time></trkpt><trkpt lat="43.145335" lon="12.1646217"><ele>294.0</ele><time>2026-03-29T11:57:56.324Z</time></trkpt><trkpt lat="43.1452517" lon="12.1645133"><ele>293.0</ele><time>2026-03-29T11:57:57.32Z</time></trkpt><trkpt lat="43.1451717" lon="12.1644133"><ele>292.0</ele><time>2026-03-29T11:57:58.322Z</time></trkpt><trkpt lat="43.1451" lon="12.1643133"><ele>291.0</ele><time>2026-03-29T11:57:59.319Z</time></trkpt><trkpt lat="43.1450467" lon="12.164215"><ele>290.0</ele><time>2026-03-29T11:58:00.323Z</time></trkpt><trkpt lat="43.1450083" lon="12.1641133"><ele>289.0</ele><time>2026-03-29T11:58:01.321Z</time></trkpt><trkpt lat="43.14499" lon="12.1640217"><ele>289.0</ele><time>2026-03-29T11:58:02.323Z</time></trkpt><trkpt lat="43.1449933" lon="12.1639"><ele>289.0</ele><time>2026-03-29T11:58:04.32Z</time></trkpt><trkpt lat="43.1449233" lon="12.1639317"><ele>289.0</ele><time>2026-03-29T12:02:43.323Z</time></trkpt><trkpt lat="43.1449633" lon="12.1640733"><ele>289.0</ele><time>2026-03-29T12:02:45.324Z</time></trkpt><trkpt lat="43.1450083" lon="12.1641683"><ele>289.0</ele><time>2026-03-29T12:02:46.323Z</time></trkpt><trkpt lat="43.1450583" lon="12.164255"><ele>289.0</ele><time>2026-03-29T12:02:47.32Z</time></trkpt><trkpt lat="43.1451217" lon="12.164345"><ele>288.59999999999997</ele><time>2026-03-29T12:02:48.32Z</time></trkpt><trkpt lat="43.1451933" lon="12.1644383"><ele>288.2</ele><time>2026-03-29T12:02:49.323Z</time></trkpt><trkpt lat="43.1452717" lon="12.1645367"><ele>287.79999999999995</ele><time>2026-03-29T12:02:50.322Z</time></trkpt><trkpt lat="43.1453367" lon="12.1646433"><ele>287.4</ele><time>2026-03-29T12:02:51.326Z</time></trkpt><trkpt lat="43.1453817" lon="12.1647683"><ele>287.0</ele><time>2026-03-29T12:02:52.325Z</time></trkpt><trkpt lat="43.1453983" lon="12.1649033"><ele>288.4</ele><time>2026-03-29T12:02:53.322Z</time></trkpt><trkpt lat="43.1453783" lon="12.165035"><ele>289.79999999999995</ele><time>2026-03-29T12:02:54.323Z</time></trkpt><trkpt lat="43.145325" lon="12.16515"><ele>291.2</ele><time>2026-03-29T12:02:55.32Z</time></trkpt><trkpt lat="43.145245" lon="12.1652417"><ele>292.59999999999997</ele><time>2026-03-29T12:02:56.322Z</time></trkpt><trkpt lat="43.1451433" lon="12.16531"><ele>294.0</ele><time>2026-03-29T12:02:57.321Z</time></trkpt><trkpt lat="43.145025" lon="12.16536"><ele>294.0</ele><time>2026-03-29T12:02:58.32Z</time></trkpt><trkpt lat="43.1448967" lon="12.1653983"><ele>294.0</ele><time>2026-03-29T12:02:59.322Z</time></trkpt><trkpt lat="43.1447517" lon="12.165435"><ele>294.0</ele><time>2026-03-29T12:03:00.32Z</time></trkpt><trkpt lat="43.1445967" lon="12.1654717"><ele>294.0</ele><time>2026-03-29T12:03:01.321Z</time></trkpt><trkpt lat="43.1444433" lon="12.16551"><ele>293.25</ele><time>2026-03-29T12:03:02.323Z</time></trkpt><trkpt lat="43.1442983" lon="12.1655617"><ele>292.5</ele><time>2026-03-29T12:03:03.323Z</time></trkpt><trkpt lat="43.144165" lon="12.1656333"><ele>291.75</ele><time>2026-03-29T12:03:04.323Z</time></trkpt><trkpt lat="43.1440417" lon="12.1657367"><ele>291.0</ele><time>2026-03-29T12:03:05.323Z</time></trkpt><trkpt lat="43.1439367" lon="12.165865"><ele>292.5</ele><time>2026-03-29T12:03:06.327Z</time></trkpt><trkpt lat="43.1438483" lon="12.1660167"><ele>294.0</ele><time>2026-03-29T12:03:07.322Z</time></trkpt><trkpt lat="43.14379" lon="12.1661833"><ele>295.5</ele><time>2026-03-29T12:03:08.322Z</time></trkpt><trkpt lat="43.143755" lon="12.1663633"><ele>297.0</ele><time>2026-03-29T12:03:09.321Z</time></trkpt><trkpt lat="43.14375" lon="12.1665467"><ele>298.25</ele><time>2026-03-29T12:03:10.323Z</time></trkpt><trkpt lat="43.1437667" lon="12.1667383"><ele>299.5</ele><time>2026-03-29T12:03:11.323Z</time></trkpt><trkpt lat="43.1438033" lon="12.1669317"><ele>300.75</ele><time>2026-03-29T12:03:12.321Z</time></trkpt><trkpt lat="43.1438533" lon="12.167125"><ele>302.0</ele><time>2026-03-29T12:03:13.324Z</time></trkpt><trkpt lat="43.1439167" lon="12.1673233"><ele>303.0</ele><time>2026-03-29T12:03:14.324Z</time></trkpt><trkpt lat="43.1439833" lon="12.16752"><ele>304.0</ele><time>2026-03-29T12:03:15.323Z</time></trkpt><trkpt lat="43.144055" lon="12.167715"><ele>305.0</ele><time>2026-03-29T12:03:16.322Z</time></trkpt><trkpt lat="43.1441317" lon="12.1679117"><ele>310.0</ele><time>2026-03-29T12:03:17.321Z</time></trkpt><trkpt lat="43.1442083" lon="12.1681083"><ele>315.0</ele><time>2026-03-29T12:03:18.325Z</time></trkpt><trkpt lat="43.144275" lon="12.1683"><ele>320.0</ele><time>2026-03-29T12:03:19.317Z</time></trkpt><trkpt lat="43.1443267" lon="12.168485"><ele>321.25</ele><time>2026-03-29T12:03:20.322Z</time></trkpt><trkpt lat="43.14436" lon="12.168675"><ele>322.5</ele><time>2026-03-29T12:03:21.322Z</time></trkpt><trkpt lat="43.1443717" lon="12.1688683"><ele>323.75</ele><time>2026-03-29T12:03:22.323Z</time></trkpt><trkpt lat="43.1443683" lon="12.1690583"><ele>325.0</ele><time>2026-03-29T12:03:23.327Z</time></trkpt><trkpt lat="43.1443583" lon="12.1692533"><ele>325.5</ele><time>2026-03-29T12:03:24.323Z</time></trkpt><trkpt lat="43.1443583" lon="12.1694517"><ele>326.0</ele><time>2026-03-29T12:03:25.325Z</time></trkpt><trkpt lat="43.1443633" lon="12.16965"><ele>326.5</ele><time>2026-03-29T12:03:26.321Z</time></trkpt><trkpt lat="43.144375" lon="12.1698533"><ele>327.0</ele><time>2026-03-29T12:03:27.322Z</time></trkpt><trkpt lat="43.1443967" lon="12.1700583"><ele>328.0</ele><time>2026-03-29T12:03:28.323Z</time></trkpt><trkpt lat="43.1444317" lon="12.170265"><ele>329.0</ele><time>2026-03-29T12:03:29.324Z</time></trkpt><trkpt lat="43.144485" lon="12.1704717"><ele>330.0</ele><time>2026-03-29T12:03:30.322Z</time></trkpt><trkpt lat="43.1445433" lon="12.1706783"><ele>328.6666666666667</ele><time>2026-03-29T12:03:31.324Z</time></trkpt><trkpt lat="43.14461" lon="12.1708817"><ele>327.33333333333337</ele><time>2026-03-29T12:03:32.325Z</time></trkpt><trkpt lat="43.1446833" lon="12.17108"><ele>326.0</ele><time>2026-03-29T12:03:33.325Z</time></trkpt><trkpt lat="43.14476" lon="12.1712733"><ele>326.0</ele><time>2026-03-29T12:03:34.321Z</time></trkpt><trkpt lat="43.1448383" lon="12.1714633"><ele>326.0</ele><time>2026-03-29T12:03:35.321Z</time></trkpt><trkpt lat="43.144905" lon="12.1716433"><ele>326.0</ele><time>2026-03-29T12:03:36.32Z</time></trkpt><trkpt lat="43.1449483" lon="12.1718167"><ele>326.0</ele><time>2026-03-29T12:03:37.322Z</time></trkpt><trkpt lat="43.1449633" lon="12.1719917"><ele>329.25</ele><time>2026-03-29T12:03:38.321Z</time></trkpt><trkpt lat="43.1449433" lon="12.1721533"><ele>332.5</ele><time>2026-03-29T12:03:39.322Z</time></trkpt><trkpt lat="43.14489" lon="12.1722983"><ele>335.75</ele><time>2026-03-29T12:03:40.322Z</time></trkpt><trkpt lat="43.14481" lon="12.1724267"><ele>339.0</ele><time>2026-03-29T12:03:41.322Z</time></trkpt><trkpt lat="43.144715" lon="12.1725467"><ele>341.25</ele><time>2026-03-29T12:03:42.322Z</time></trkpt><trkpt lat="43.144605" lon="12.172665"><ele>343.5</ele><time>2026-03-29T12:03:43.321Z</time></trkpt><trkpt lat="43.144495" lon="12.17278"><ele>345.75</ele><time>2026-03-29T12:03:44.323Z</time></trkpt><trkpt lat="43.1443833" lon="12.1728983"><ele>348.0</ele><time>2026-03-29T12:03:45.321Z</time></trkpt><trkpt lat="43.1442717" lon="12.1730233"><ele>348.0</ele><time>2026-03-29T12:03:46.325Z</time></trkpt><trkpt lat="43.1441667" lon="12.17316"><ele>348.0</ele><time>2026-03-29T12:03:47.321Z</time></trkpt><trkpt lat="43.1440833" lon="12.1733083"><ele>348.0</ele><time>2026-03-29T12:03:48.324Z</time></trkpt><trkpt lat="43.1440333" lon="12.1734683"><ele>348.0</ele><time>2026-03-29T12:03:49.324Z</time></trkpt><trkpt lat="43.1440117" lon="12.17364"><ele>350.75</ele><time>2026-03-29T12:03:50.324Z</time></trkpt><trkpt lat="43.1440067" lon="12.1738233"><ele>353.5</ele><time>2026-03-29T12:03:51.322Z</time></trkpt><trkpt lat="43.144015" lon="12.1740117"><ele>356.25</ele><time>2026-03-29T12:03:52.323Z</time></trkpt><trkpt lat="43.1440217" lon="12.174205"><ele>359.0</ele><time>2026-03-29T12:03:53.322Z</time></trkpt><trkpt lat="43.144025" lon="12.174405"><ele>359.6666666666667</ele><time>2026-03-29T12:03:54.325Z</time></trkpt><trkpt lat="43.1440317" lon="12.1746083"><ele>360.3333333333333</ele><time>2026-03-29T12:03:55.323Z</time></trkpt><trkpt lat="43.1440417" lon="12.174815"><ele>361.0</ele><time>2026-03-29T12:03:56.322Z</time></trkpt><trkpt lat="43.1440533" lon="12.1750217"><ele>362.25</ele><time>2026-03-29T12:03:57.323Z</time></trkpt><trkpt lat="43.14407" lon="12.1752283"><ele>363.5</ele><time>2026-03-29T12:03:58.327Z</time></trkpt><trkpt lat="43.144075" lon="12.175435"><ele>364.75</ele><time>2026-03-29T12:03:59.322Z</time></trkpt><trkpt lat="43.14407" lon="12.1756317"><ele>366.0</ele><time>2026-03-29T12:04:00.322Z</time></trkpt><trkpt lat="43.1440567" lon="12.17581"><ele>367.0</ele><time>2026-03-29T12:04:01.322Z</time></trkpt><trkpt lat="43.1440417" lon="12.17597"><ele>368.0</ele><time>2026-03-29T12:04:02.32Z</time></trkpt><trkpt lat="43.14403" lon="12.1761117"><ele>369.0</ele><time>2026-03-29T12:04:03.323Z</time></trkpt><trkpt lat="43.1440183" lon="12.1762333"><ele>370.0</ele><time>2026-03-29T12:04:04.323Z</time></trkpt><trkpt lat="43.1440017" lon="12.1763283"><ele>371.0</ele><time>2026-03-29T12:04:05.321Z</time></trkpt><trkpt lat="43.1439767" lon="12.1764317"><ele>370.8</ele><time>2026-03-29T12:04:07.323Z</time></trkpt><trkpt lat="43.1439483" lon="12.17652"><ele>370.6</ele><time>2026-03-29T12:04:41.321Z</time></trkpt><trkpt lat="43.1439783" lon="12.1766783"><ele>370.4</ele><time>2026-03-29T12:04:43.323Z</time></trkpt><trkpt lat="43.144005" lon="12.1767817"><ele>370.2</ele><time>2026-03-29T12:04:44.32Z</time></trkpt><trkpt lat="43.1440417" lon="12.1768917"><ele>370.0</ele><time>2026-03-29T12:04:45.324Z</time></trkpt><trkpt lat="43.1440933" lon="12.1770083"><ele>370.0</ele><time>2026-03-29T12:04:46.321Z</time></trkpt><trkpt lat="43.1441483" lon="12.1771333"><ele>370.0</ele><time>2026-03-29T12:04:47.324Z</time></trkpt><trkpt lat="43.1442083" lon="12.1772667"><ele>370.0</ele><time>2026-03-29T12:04:48.322Z</time></trkpt><trkpt lat="43.144275" lon="12.17741"><ele>370.0</ele><time>2026-03-29T12:04:49.323Z</time></trkpt><trkpt lat="43.1443483" lon="12.17756"><ele>371.0</ele><time>2026-03-29T12:04:50.322Z</time></trkpt><trkpt lat="43.14443" lon="12.177715"><ele>372.0</ele><time>2026-03-29T12:04:51.325Z</time></trkpt><trkpt lat="43.144525" lon="12.177865"><ele>373.0</ele><time>2026-03-29T12:04:52.322Z</time></trkpt><trkpt lat="43.144635" lon="12.17801"><ele>374.0</ele><time>2026-03-29T12:04:53.321Z</time></trkpt><trkpt lat="43.1447567" lon="12.1781517"><ele>371.0</ele><time>2026-03-29T12:04:54.321Z</time></trkpt><trkpt lat="43.144885" lon="12.1782817"><ele>368.0</ele><time>2026-03-29T12:04:55.323Z</time></trkpt><trkpt lat="43.1450217" lon="12.1783983"><ele>365.0</ele><time>2026-03-29T12:04:56.323Z</time></trkpt><trkpt lat="43.1451633" lon="12.178505"><ele>365.0</ele><time>2026-03-29T12:04:57.321Z</time></trkpt><trkpt lat="43.1452983" lon="12.1786"><ele>365.0</ele><time>2026-03-29T12:04:58.319Z</time></trkpt><trkpt lat="43.1454233" lon="12.1786917"><ele>365.0</ele><time>2026-03-29T12:04:59.322Z</time></trkpt><trkpt lat="43.145535" lon="12.1787883"><ele>365.0</ele><time>2026-03-29T12:05:00.319Z</time></trkpt><trkpt lat="43.14564" lon="12.1788883"><ele>365.0</ele><time>2026-03-29T12:05:01.321Z</time></trkpt><trkpt lat="43.1457083" lon="12.1790167"><ele>365.0</ele><time>2026-03-29T12:05:02.321Z</time></trkpt><trkpt lat="43.14576" lon="12.1791733"><ele>365.0</ele><time>2026-03-29T12:05:03.321Z</time></trkpt><trkpt lat="43.145805" lon="12.17935"><ele>365.0</ele><time>2026-03-29T12:05:04.323Z</time></trkpt><trkpt lat="43.14585" lon="12.1795283"><ele>365.0</ele><time>2026-03-29T12:05:05.324Z</time></trkpt><trkpt lat="43.1458983" lon="12.1797133"><ele>365.0</ele><time>2026-03-29T12:05:06.321Z</time></trkpt><trkpt lat="43.145955" lon="12.1799083"><ele>365.0</ele><time>2026-03-29T12:05:07.321Z</time></trkpt><trkpt lat="43.146015" lon="12.18011"><ele>367.33333333333337</ele><time>2026-03-29T12:05:08.321Z</time></trkpt><trkpt lat="43.1460767" lon="12.1803117"><ele>369.6666666666667</ele><time>2026-03-29T12:05:09.329Z</time></trkpt><trkpt lat="43.1461383" lon="12.18051"><ele>372.0</ele><time>2026-03-29T12:05:10.321Z</time></trkpt><trkpt lat="43.1461983" lon="12.1807017"><ele>373.0</ele><time>2026-03-29T12:05:11.319Z</time></trkpt><trkpt lat="43.14626" lon="12.1808933"><ele>374.0</ele><time>2026-03-29T12:05:12.321Z</time></trkpt><trkpt lat="43.1463267" lon="12.18108"><ele>375.0</ele><time>2026-03-29T12:05:13.321Z</time></trkpt><trkpt lat="43.1464017" lon="12.18125"><ele>376.0</ele><time>2026-03-29T12:05:14.324Z</time></trkpt><trkpt lat="43.1464783" lon="12.1814217"><ele>374.0</ele><time>2026-03-29T12:05:15.323Z</time></trkpt><trkpt lat="43.1465583" lon="12.1815883"><ele>372.0</ele><time>2026-03-29T12:05:16.321Z</time></trkpt><trkpt lat="43.1466433" lon="12.1817517"><ele>370.0</ele><time>2026-03-29T12:05:17.319Z</time></trkpt><trkpt lat="43.146735" lon="12.1818983"><ele>368.0</ele><time>2026-03-29T12:05:18.322Z</time></trkpt><trkpt lat="43.14683" lon="12.1820333"><ele>368.0</ele><time>2026-03-29T12:05:19.323Z</time></trkpt><trkpt lat="43.1469383" lon="12.1821583"><ele>368.0</ele><time>2026-03-29T12:05:20.322Z</time></trkpt><trkpt lat="43.1470533" lon="12.18227"><ele>368.0</ele><time>2026-03-29T12:05:21.324Z</time></trkpt><trkpt lat="43.1471717" lon="12.1823667"><ele>368.0</ele><time>2026-03-29T12:05:22.324Z</time></trkpt><trkpt lat="43.1472917" lon="12.182465"><ele>368.25</ele><time>2026-03-29T12:05:23.322Z</time></trkpt><trkpt lat="43.1474033" lon="12.1825717"><ele>368.5</ele><time>2026-03-29T12:05:24.321Z</time></trkpt><trkpt lat="43.1475117" lon="12.1826917"><ele>368.75</ele><time>2026-03-29T12:05:25.322Z</time></trkpt><trkpt lat="43.1476117" lon="12.1828267"><ele>369.0</ele><time>2026-03-29T12:05:26.321Z</time></trkpt><trkpt lat="43.1477067" lon="12.18297"><ele>369.0</ele><time>2026-03-29T12:05:27.32Z</time></trkpt><trkpt lat="43.1477833" lon="12.1831167"><ele>369.0</ele><time>2026-03-29T12:05:28.323Z</time></trkpt><trkpt lat="43.147835" lon="12.18327"><ele>369.0</ele><time>2026-03-29T12:05:29.324Z</time></trkpt><trkpt lat="43.14786" lon="12.1834383"><ele>369.0</ele><time>2026-03-29T12:05:30.32Z</time></trkpt><trkpt lat="43.147855" lon="12.1836133"><ele>372.75</ele><time>2026-03-29T12:05:31.322Z</time></trkpt><trkpt lat="43.1478267" lon="12.1837817"><ele>376.5</ele><time>2026-03-29T12:05:32.322Z</time></trkpt><trkpt lat="43.1477833" lon="12.1839483"><ele>380.25</ele><time>2026-03-29T12:05:33.32Z</time></trkpt><trkpt lat="43.1477367" lon="12.184115"><ele>384.0</ele><time>2026-03-29T12:05:34.32Z</time></trkpt><trkpt lat="43.1476933" lon="12.1842867"><ele>385.0</ele><time>2026-03-29T12:05:35.319Z</time></trkpt><trkpt lat="43.1476483" lon="12.1844633"><ele>386.0</ele><time>2026-03-29T12:05:36.32Z</time></trkpt><trkpt lat="43.1476067" lon="12.184645"><ele>387.0</ele><time>2026-03-29T12:05:37.324Z</time></trkpt><trkpt lat="43.1475667" lon="12.1848283"><ele>388.0</ele><time>2026-03-29T12:05:38.322Z</time></trkpt><trkpt lat="43.1475333" lon="12.18502"><ele>388.0</ele><time>2026-03-29T12:05:39.321Z</time></trkpt><trkpt lat="43.147495" lon="12.18521"><ele>388.0</ele><time>2026-03-29T12:05:40.32Z</time></trkpt><trkpt lat="43.1474633" lon="12.1854033"><ele>388.0</ele><time>2026-03-29T12:05:41.322Z</time></trkpt><trkpt lat="43.14743" lon="12.185595"><ele>388.0</ele><time>2026-03-29T12:05:42.321Z</time></trkpt><trkpt lat="43.1473967" lon="12.1857933"><ele>388.75</ele><time>2026-03-29T12:05:43.323Z</time></trkpt><trkpt lat="43.1473633" lon="12.185985"><ele>389.5</ele><time>2026-03-29T12:05:44.321Z</time></trkpt><trkpt lat="43.1473367" lon="12.1861717"><ele>390.25</ele><time>2026-03-29T12:05:45.321Z</time></trkpt><trkpt lat="43.1473167" lon="12.1863517"><ele>391.0</ele><time>2026-03-29T12:05:46.32Z</time></trkpt><trkpt lat="43.1473033" lon="12.1865267"><ele>391.0</ele><time>2026-03-29T12:05:47.32Z</time></trkpt><trkpt lat="43.1473033" lon="12.1867033"><ele>391.0</ele><time>2026-03-29T12:05:48.321Z</time></trkpt><trkpt lat="43.1473217" lon="12.1868717"><ele>391.0</ele><time>2026-03-29T12:05:49.325Z</time></trkpt><trkpt lat="43.1473567" lon="12.1870283"><ele>391.0</ele><time>2026-03-29T12:05:50.321Z</time></trkpt><trkpt lat="43.14741" lon="12.18717"><ele>390.0</ele><time>2026-03-29T12:05:51.32Z</time></trkpt><trkpt lat="43.1474783" lon="12.1872983"><ele>389.0</ele><time>2026-03-29T12:05:52.321Z</time></trkpt><trkpt lat="43.1475617" lon="12.1874183"><ele>388.0</ele><time>2026-03-29T12:05:53.321Z</time></trkpt><trkpt lat="43.1476517" lon="12.187535"><ele>387.0</ele><time>2026-03-29T12:05:54.322Z</time></trkpt><trkpt lat="43.1477383" lon="12.18765"><ele>387.0</ele><time>2026-03-29T12:05:55.321Z</time></trkpt><trkpt lat="43.147825" lon="12.1877667"><ele>387.0</ele><time>2026-03-29T12:05:56.321Z</time></trkpt><trkpt lat="43.14791" lon="12.18787"><ele>387.0</ele><time>2026-03-29T12:05:57.321Z</time></trkpt><trkpt lat="43.1479967" lon="12.187965"><ele>387.0</ele><time>2026-03-29T12:05:58.323Z</time></trkpt><trkpt lat="43.1480917" lon="12.1880567"><ele>387.0</ele><time>2026-03-29T12:05:59.323Z</time></trkpt><trkpt lat="43.1481917" lon="12.1881467"><ele>387.0</ele><time>2026-03-29T12:06:00.322Z</time></trkpt><trkpt lat="43.148295" lon="12.1882367"><ele>387.0</ele><time>2026-03-29T12:06:01.32Z</time></trkpt><trkpt lat="43.1483983" lon="12.1883233"><ele>387.0</ele><time>2026-03-29T12:06:02.322Z</time></trkpt><trkpt lat="43.148505" lon="12.1884033"><ele>387.0</ele><time>2026-03-29T12:06:03.321Z</time></trkpt><trkpt lat="43.1486133" lon="12.1884767"><ele>387.0</ele><time>2026-03-29T12:06:04.322Z</time></trkpt><trkpt lat="43.148725" lon="12.1885433"><ele>387.0</ele><time>2026-03-29T12:06:05.323Z</time></trkpt><trkpt lat="43.14884" lon="12.1886083"><ele>387.0</ele><time>2026-03-29T12:06:06.322Z</time></trkpt><trkpt lat="43.14895" lon="12.1886733"><ele>385.0</ele><time>2026-03-29T12:06:07.322Z</time></trkpt><trkpt lat="43.14906" lon="12.1887417"><ele>383.0</ele><time>2026-03-29T12:06:08.323Z</time></trkpt><trkpt lat="43.149165" lon="12.1888217"><ele>381.0</ele><time>2026-03-29T12:06:09.322Z</time></trkpt><trkpt lat="43.1492567" lon="12.1889183"><ele>379.0</ele><time>2026-03-29T12:06:10.32Z</time></trkpt><trkpt lat="43.1493317" lon="12.1890383"><ele>379.0</ele><time>2026-03-29T12:06:11.321Z</time></trkpt><trkpt lat="43.1493833" lon="12.1891767"><ele>379.0</ele><time>2026-03-29T12:06:12.321Z</time></trkpt><trkpt lat="43.1494167" lon="12.1893167"><ele>379.0</ele><time>2026-03-29T12:06:13.32Z</time></trkpt><trkpt lat="43.14943" lon="12.1894483"><ele>379.0</ele><time>2026-03-29T12:06:14.321Z</time></trkpt><trkpt lat="43.14943" lon="12.18957"><ele>379.0</ele><time>2026-03-29T12:06:15.32Z</time></trkpt><trkpt lat="43.14943" lon="12.1896817"><ele>379.0</ele><time>2026-03-29T12:06:16.32Z</time></trkpt><trkpt lat="43.1494167" lon="12.1897767"><ele>379.0</ele><time>2026-03-29T12:06:17.322Z</time></trkpt><trkpt lat="43.1493817" lon="12.1898967"><ele>379.0</ele><time>2026-03-29T12:06:19.321Z</time></trkpt><trkpt lat="43.149305" lon="12.189925"><ele>379.0</ele><time>2026-03-29T12:06:21.325Z</time></trkpt><trkpt lat="43.149215" lon="12.189895"><ele>379.0</ele><time>2026-03-29T12:06:22.324Z</time></trkpt><trkpt lat="43.1491317" lon="12.1898617"><ele>379.0</ele><time>2026-03-29T12:06:23.319Z</time></trkpt><trkpt lat="43.1490467" lon="12.1898267"><ele>379.4</ele><time>2026-03-29T12:06:24.32Z</time></trkpt><trkpt lat="43.1489617" lon="12.1897933"><ele>379.79999999999995</ele><time>2026-03-29T12:06:25.322Z</time></trkpt><trkpt lat="43.1488683" lon="12.1897617"><ele>380.20000000000005</ele><time>2026-03-29T12:06:26.322Z</time></trkpt><trkpt lat="43.1487783" lon="12.189715"><ele>380.6</ele><time>2026-03-29T12:06:27.323Z</time></trkpt><trkpt lat="43.1486883" lon="12.1896633"><ele>381.0</ele><time>2026-03-29T12:06:28.323Z</time></trkpt><trkpt lat="43.148595" lon="12.1896183"><ele>381.0</ele><time>2026-03-29T12:06:29.322Z</time></trkpt><trkpt lat="43.1485017" lon="12.1895783"><ele>381.0</ele><time>2026-03-29T12:06:30.32Z</time></trkpt><trkpt lat="43.1484083" lon="12.189545"><ele>381.0</ele><time>2026-03-29T12:06:31.321Z</time></trkpt><trkpt lat="43.1483167" lon="12.1895133"><ele>381.0</ele><time>2026-03-29T12:06:32.32Z</time></trkpt><trkpt lat="43.1482217" lon="12.1894883"><ele>381.0</ele><time>2026-03-29T12:06:33.321Z</time></trkpt><trkpt lat="43.14812" lon="12.18947"><ele>378.8</ele><time>2026-03-29T12:06:34.321Z</time></trkpt><trkpt lat="43.1480167" lon="12.1894583"><ele>376.6</ele><time>2026-03-29T12:06:35.322Z</time></trkpt><trkpt lat="43.1479117" lon="12.18945"><ele>374.4</ele><time>2026-03-29T12:06:36.323Z</time></trkpt><trkpt lat="43.1478" lon="12.1894333"><ele>372.2</ele><time>2026-03-29T12:06:37.321Z</time></trkpt><trkpt lat="43.1476817" lon="12.18941"><ele>370.0</ele><time>2026-03-29T12:06:38.321Z</time></trkpt><trkpt lat="43.1475683" lon="12.18939"><ele>370.0</ele><time>2026-03-29T12:06:39.324Z</time></trkpt><trkpt lat="43.147455" lon="12.1893733"><ele>370.0</ele><time>2026-03-29T12:06:40.321Z</time></trkpt><trkpt lat="43.1473417" lon="12.1893567"><ele>370.0</ele><time>2026-03-29T12:06:41.322Z</time></trkpt><trkpt lat="43.1472433" lon="12.1893383"><ele>370.0</ele><time>2026-03-29T12:06:42.325Z</time></trkpt><trkpt lat="43.147155" lon="12.1893183"><ele>370.0</ele><time>2026-03-29T12:06:43.324Z</time></trkpt><trkpt lat="43.1470767" lon="12.1893067"><ele>368.2857142857143</ele><time>2026-03-29T12:06:44.323Z</time></trkpt><trkpt lat="43.147005" lon="12.1893017"><ele>366.57142857142856</ele><time>2026-03-29T12:06:45.322Z</time></trkpt><trkpt lat="43.1469333" lon="12.18931"><ele>364.8571428571429</ele><time>2026-03-29T12:06:46.325Z</time></trkpt><trkpt lat="43.1468633" lon="12.1893283"><ele>363.1428571428571</ele><time>2026-03-29T12:06:47.32Z</time></trkpt><trkpt lat="43.1467883" lon="12.1893483"><ele>361.42857142857144</ele><time>2026-03-29T12:06:48.323Z</time></trkpt><trkpt lat="43.1467183" lon="12.1893633"><ele>359.7142857142857</ele><time>2026-03-29T12:06:49.321Z</time></trkpt><trkpt lat="43.1466517" lon="12.1893717"><ele>358.0</ele><time>2026-03-29T12:06:50.324Z</time></trkpt><trkpt lat="43.146545" lon="12.1893617"><ele>357.16666666666663</ele><time>2026-03-29T12:06:52.322Z</time></trkpt><trkpt lat="43.1464567" lon="12.1892917"><ele>356.3333333333333</ele><time>2026-03-29T12:06:54.319Z</time></trkpt><trkpt lat="43.1464183" lon="12.1892183"><ele>355.5</ele><time>2026-03-29T12:06:55.321Z</time></trkpt><trkpt lat="43.1463667" lon="12.1891183"><ele>354.6666666666667</ele><time>2026-03-29T12:06:56.325Z</time></trkpt><trkpt lat="43.14632" lon="12.18901"><ele>353.83333333333337</ele><time>2026-03-29T12:06:57.32Z</time></trkpt><trkpt lat="43.1462717" lon="12.188905"><ele>353.0</ele><time>2026-03-29T12:06:58.321Z</time></trkpt><trkpt lat="43.1462283" lon="12.188805"><ele>353.0</ele><time>2026-03-29T12:06:59.319Z</time></trkpt><trkpt lat="43.1461883" lon="12.188705"><ele>353.0</ele><time>2026-03-29T12:07:00.321Z</time></trkpt><trkpt lat="43.1461483" lon="12.1886117"><ele>353.0</ele><time>2026-03-29T12:07:01.321Z</time></trkpt><trkpt lat="43.1461083" lon="12.1885217"><ele>353.0</ele><time>2026-03-29T12:07:02.32Z</time></trkpt><trkpt lat="43.146065" lon="12.18844"><ele>353.0</ele><time>2026-03-29T12:07:03.322Z</time></trkpt><trkpt lat="43.1460133" lon="12.1883717"><ele>353.0</ele><time>2026-03-29T12:07:04.321Z</time></trkpt><trkpt lat="43.1459533" lon="12.1883083"><ele>353.0</ele><time>2026-03-29T12:07:05.323Z</time></trkpt><trkpt lat="43.14589" lon="12.18824"><ele>353.0</ele><time>2026-03-29T12:07:06.321Z</time></trkpt><trkpt lat="43.1458233" lon="12.1881667"><ele>353.0</ele><time>2026-03-29T12:07:07.323Z</time></trkpt><trkpt lat="43.14576" lon="12.1880867"><ele>353.0</ele><time>2026-03-29T12:07:08.324Z</time></trkpt><trkpt lat="43.1456933" lon="12.1880133"><ele>353.0</ele><time>2026-03-29T12:07:09.322Z</time></trkpt><trkpt lat="43.145625" lon="12.1879383"><ele>353.0</ele><time>2026-03-29T12:07:10.321Z</time></trkpt><trkpt lat="43.1455617" lon="12.1878583"><ele>354.0</ele><time>2026-03-29T12:07:11.321Z</time></trkpt><trkpt lat="43.1455" lon="12.1877833"><ele>355.0</ele><time>2026-03-29T12:07:12.32Z</time></trkpt><trkpt lat="43.14544" lon="12.1877183"><ele>356.0</ele><time>2026-03-29T12:07:13.32Z</time></trkpt><trkpt lat="43.1453783" lon="12.187665"><ele>357.0</ele><time>2026-03-29T12:07:14.323Z</time></trkpt><trkpt lat="43.145315" lon="12.1876133"><ele>358.0</ele><time>2026-03-29T12:07:15.323Z</time></trkpt><trkpt lat="43.145245" lon="12.187565"><ele>359.0</ele><time>2026-03-29T12:07:16.319Z</time></trkpt><trkpt lat="43.1451667" lon="12.1875333"><ele>359.0</ele><time>2026-03-29T12:07:17.32Z</time></trkpt><trkpt lat="43.1450917" lon="12.187525"><ele>359.0</ele><time>2026-03-29T12:07:18.32Z</time></trkpt><trkpt lat="43.1450017" lon="12.18754"><ele>359.0</ele><time>2026-03-29T12:07:19.32Z</time></trkpt><trkpt lat="43.1449167" lon="12.1875667"><ele>359.0</ele><time>2026-03-29T12:07:20.32Z</time></trkpt><trkpt lat="43.1448367" lon="12.1875983"><ele>359.0</ele><time>2026-03-29T12:07:21.322Z</time></trkpt><trkpt lat="43.1447433" lon="12.1876483"><ele>359.0</ele><time>2026-03-29T12:07:23.324Z</time></trkpt><trkpt lat="43.1446583" lon="12.1876967"><ele>357.79999999999995</ele><time>2026-03-29T12:08:42.322Z</time></trkpt><trkpt lat="43.1445633" lon="12.1877367"><ele>356.59999999999997</ele><time>2026-03-29T12:08:44.32Z</time></trkpt><trkpt lat="43.14446" lon="12.187735"><ele>355.4</ele><time>2026-03-29T12:08:46.319Z</time></trkpt><trkpt lat="43.1443917" lon="12.1876817"><ele>354.2</ele><time>2026-03-29T12:08:48.322Z</time></trkpt><trkpt lat="43.1443683" lon="12.1875783"><ele>353.0</ele><time>2026-03-29T12:08:51.322Z</time></trkpt><trkpt lat="43.144375" lon="12.18745"><ele>354.1666666666667</ele><time>2026-03-29T12:09:02.322Z</time></trkpt><trkpt lat="43.1443633" lon="12.18732"><ele>355.33333333333337</ele><time>2026-03-29T12:09:04.32Z</time></trkpt><trkpt lat="43.1443617" lon="12.1872267"><ele>356.5</ele><time>2026-03-29T12:09:05.32Z</time></trkpt><trkpt lat="43.14436" lon="12.18713"><ele>357.6666666666667</ele><time>2026-03-29T12:09:06.324Z</time></trkpt><trkpt lat="43.14436" lon="12.1870317"><ele>358.8333333333333</ele><time>2026-03-29T12:09:07.321Z</time></trkpt><trkpt lat="43.1443633" lon="12.1869267"><ele>360.0</ele><time>2026-03-29T12:09:08.324Z</time></trkpt><trkpt lat="43.144355" lon="12.1868217"><ele>360.0</ele><time>2026-03-29T12:09:09.324Z</time></trkpt><trkpt lat="43.1443517" lon="12.1867267"><ele>360.0</ele><time>2026-03-29T12:09:10.324Z</time></trkpt><trkpt lat="43.1443567" lon="12.1865783"><ele>360.0</ele><time>2026-03-29T12:09:12.323Z</time></trkpt><trkpt lat="43.1443517" lon="12.1864717"><ele>360.0</ele><time>2026-03-29T12:09:14.325Z</time></trkpt><trkpt lat="43.1443033" lon="12.1864117"><ele>360.0</ele><time>2026-03-29T12:09:18.321Z</time></trkpt><trkpt lat="43.14431" lon="12.18629"><ele>360.0</ele><time>2026-03-29T12:09:22.325Z</time></trkpt><trkpt lat="43.1443483" lon="12.18619"><ele>362.0</ele><time>2026-03-29T12:09:24.322Z</time></trkpt><trkpt lat="43.1443733" lon="12.1860733"><ele>364.0</ele><time>2026-03-29T12:09:26.32Z</time></trkpt><trkpt lat="43.1443683" lon="12.1859217"><ele>366.0</ele><time>2026-03-29T12:09:28.321Z</time></trkpt><trkpt lat="43.1443467" lon="12.185765"><ele>368.0</ele><time>2026-03-29T12:09:30.324Z</time></trkpt><trkpt lat="43.144335" lon="12.18567"><ele>370.0</ele><time>2026-03-29T12:09:31.319Z</time></trkpt><trkpt lat="43.1443117" lon="12.18558"><ele>372.16666666666663</ele><time>2026-03-29T12:09:32.32Z</time></trkpt><trkpt lat="43.1442883" lon="12.1854983"><ele>374.3333333333333</ele><time>2026-03-29T12:09:33.322Z</time></trkpt><trkpt lat="43.1442417" lon="12.185335"><ele>376.5</ele><time>2026-03-29T12:09:35.321Z</time></trkpt><trkpt lat="43.1442133" lon="12.1852467"><ele>378.6666666666667</ele><time>2026-03-29T12:09:36.321Z</time></trkpt><trkpt lat="43.14418" lon="12.18516"><ele>380.83333333333337</ele><time>2026-03-29T12:09:37.325Z</time></trkpt><trkpt lat="43.1441517" lon="12.1850767"><ele>383.0</ele><time>2026-03-29T12:09:38.321Z</time></trkpt><trkpt lat="43.1441283" lon="12.1849883"><ele>383.0</ele><time>2026-03-29T12:09:39.327Z</time></trkpt><trkpt lat="43.144115" lon="12.1848933"><ele>383.0</ele><time>2026-03-29T12:09:40.321Z</time></trkpt><trkpt lat="43.144105" lon="12.1847983"><ele>383.0</ele><time>2026-03-29T12:09:41.323Z</time></trkpt><trkpt lat="43.1440917" lon="12.1847033"><ele>383.0</ele><time>2026-03-29T12:09:42.32Z</time></trkpt><trkpt lat="43.1440783" lon="12.1846133"><ele>383.0</ele><time>2026-03-29T12:09:43.322Z</time></trkpt><trkpt lat="43.144055" lon="12.18452"><ele>383.0</ele><time>2026-03-29T12:09:44.321Z</time></trkpt><trkpt lat="43.1440183" lon="12.1844267"><ele>383.0</ele><time>2026-03-29T12:09:45.324Z</time></trkpt><trkpt lat="43.1439733" lon="12.184335"><ele>383.57142857142856</ele><time>2026-03-29T12:09:46.321Z</time></trkpt><trkpt lat="43.143925" lon="12.1842483"><ele>384.1428571428571</ele><time>2026-03-29T12:09:47.319Z</time></trkpt><trkpt lat="43.1438783" lon="12.18417"><ele>384.7142857142857</ele><time>2026-03-29T12:09:48.32Z</time></trkpt><trkpt lat="43.1438333" lon="12.1841"><ele>385.2857142857143</ele><time>2026-03-29T12:09:49.322Z</time></trkpt><trkpt lat="43.1437833" lon="12.184045"><ele>385.8571428571429</ele><time>2026-03-29T12:09:50.319Z</time></trkpt><trkpt lat="43.1437283" lon="12.183985"><ele>386.42857142857144</ele><time>2026-03-29T12:09:51.32Z</time></trkpt><trkpt lat="43.1436733" lon="12.1839133"><ele>387.0</ele><time>2026-03-29T12:09:52.32Z</time></trkpt><trkpt lat="43.1436117" lon="12.1838383"><ele>389.8333333333333</ele><time>2026-03-29T12:09:53.321Z</time></trkpt><trkpt lat="43.1435517" lon="12.1837667"><ele>392.66666666666663</ele><time>2026-03-29T12:09:54.32Z</time></trkpt><trkpt lat="43.1434883" lon="12.1836967"><ele>395.5</ele><time>2026-03-29T12:09:55.323Z</time></trkpt><trkpt lat="43.143425" lon="12.1836217"><ele>398.3333333333333</ele><time>2026-03-29T12:09:56.321Z</time></trkpt><trkpt lat="43.1433533" lon="12.18354"><ele>401.16666666666663</ele><time>2026-03-29T12:09:57.32Z</time></trkpt><trkpt lat="43.1432867" lon="12.1834617"><ele>404.0</ele><time>2026-03-29T12:09:58.325Z</time></trkpt><trkpt lat="43.1432233" lon="12.1833917"><ele>402.99999999999994</ele><time>2026-03-29T12:09:59.323Z</time></trkpt><trkpt lat="43.14316" lon="12.1833333"><ele>402.0</ele><time>2026-03-29T12:10:00.32Z</time></trkpt><trkpt lat="43.1430917" lon="12.1832833"><ele>401.0</ele><time>2026-03-29T12:10:01.321Z</time></trkpt><trkpt lat="43.14301" lon="12.1832333"><ele>400.0</ele><time>2026-03-29T12:10:02.32Z</time></trkpt><trkpt lat="43.1429283" lon="12.1831867"><ele>398.99999999999994</ele><time>2026-03-29T12:10:03.324Z</time></trkpt><trkpt lat="43.14284" lon="12.18315"><ele>398.0</ele><time>2026-03-29T12:10:04.319Z</time></trkpt><trkpt lat="43.14275" lon="12.1831217"><ele>399.99999999999994</ele><time>2026-03-29T12:10:05.322Z</time></trkpt><trkpt lat="43.14267" lon="12.183095"><ele>402.0</ele><time>2026-03-29T12:10:06.324Z</time></trkpt><trkpt lat="43.1425967" lon="12.1830683"><ele>404.0</ele><time>2026-03-29T12:10:07.323Z</time></trkpt><trkpt lat="43.142515" lon="12.183045"><ele>406.0</ele><time>2026-03-29T12:10:08.32Z</time></trkpt><trkpt lat="43.1424383" lon="12.1830183"><ele>407.99999999999994</ele><time>2026-03-29T12:10:09.32Z</time></trkpt><trkpt lat="43.1423667" lon="12.1829933"><ele>410.0</ele><time>2026-03-29T12:10:10.321Z</time></trkpt><trkpt lat="43.1422983" lon="12.1829633"><ele>410.0</ele><time>2026-03-29T12:10:11.321Z</time></trkpt><trkpt lat="43.14223" lon="12.1829283"><ele>410.0</ele><time>2026-03-29T12:10:12.322Z</time></trkpt><trkpt lat="43.1421683" lon="12.1828933"><ele>410.0</ele><time>2026-03-29T12:10:13.322Z</time></trkpt><trkpt lat="43.1421017" lon="12.1828517"><ele>410.0</ele><time>2026-03-29T12:10:14.319Z</time></trkpt><trkpt lat="43.14203" lon="12.18281"><ele>410.0</ele><time>2026-03-29T12:10:15.328Z</time></trkpt><trkpt lat="43.1419717" lon="12.182765"><ele>410.0</ele><time>2026-03-29T12:10:16.319Z</time></trkpt><trkpt lat="43.1419033" lon="12.1827217"><ele>410.0</ele><time>2026-03-29T12:10:17.319Z</time></trkpt><trkpt lat="43.1418383" lon="12.1826917"><ele>409.99999999999994</ele><time>2026-03-29T12:10:18.324Z</time></trkpt><trkpt lat="43.141755" lon="12.18268"><ele>410.0</ele><time>2026-03-29T12:10:20.324Z</time></trkpt><trkpt lat="43.14168" lon="12.18268"><ele>410.0</ele><time>2026-03-29T12:10:27.323Z</time></trkpt><trkpt lat="43.141575" lon="12.1826617"><ele>410.0</ele><time>2026-03-29T12:10:29.32Z</time></trkpt><trkpt lat="43.1415067" lon="12.1826467"><ele>409.99999999999994</ele><time>2026-03-29T12:10:30.321Z</time></trkpt><trkpt lat="43.14144" lon="12.1826417"><ele>410.0</ele><time>2026-03-29T12:10:31.319Z</time></trkpt><trkpt lat="43.1413333" lon="12.182675"><ele>410.3333333333333</ele><time>2026-03-29T12:10:33.326Z</time></trkpt><trkpt lat="43.14127" lon="12.1827"><ele>410.66666666666663</ele><time>2026-03-29T12:10:34.321Z</time></trkpt><trkpt lat="43.141195" lon="12.1827317"><ele>411.0</ele><time>2026-03-29T12:10:35.321Z</time></trkpt><trkpt lat="43.1411183" lon="12.1827583"><ele>411.33333333333337</ele><time>2026-03-29T12:10:36.321Z</time></trkpt><trkpt lat="43.1410417" lon="12.182775"><ele>411.6666666666667</ele><time>2026-03-29T12:10:37.325Z</time></trkpt><trkpt lat="43.1409617" lon="12.1827867"><ele>412.0</ele><time>2026-03-29T12:10:38.319Z</time></trkpt><trkpt lat="43.1408867" lon="12.182795"><ele>412.0</ele><time>2026-03-29T12:10:39.32Z</time></trkpt><trkpt lat="43.1408083" lon="12.1828133"><ele>412.0</ele><time>2026-03-29T12:10:40.32Z</time></trkpt><trkpt lat="43.14071" lon="12.1828483"><ele>412.0</ele><time>2026-03-29T12:10:41.321Z</time></trkpt><trkpt lat="43.1406" lon="12.18289"><ele>412.0</ele><time>2026-03-29T12:10:42.32Z</time></trkpt><trkpt lat="43.1404817" lon="12.1829333"><ele>412.0</ele><time>2026-03-29T12:10:43.319Z</time></trkpt><trkpt lat="43.1403483" lon="12.1829733"><ele>412.6666666666667</ele><time>2026-03-29T12:10:44.32Z</time></trkpt><trkpt lat="43.1402" lon="12.1830033"><ele>413.33333333333337</ele><time>2026-03-29T12:10:45.321Z</time></trkpt><trkpt lat="43.1400433" lon="12.1830167"><ele>414.0</ele><time>2026-03-29T12:10:46.319Z</time></trkpt><trkpt lat="43.1398833" lon="12.1830233"><ele>414.5</ele><time>2026-03-29T12:10:47.326Z</time></trkpt><trkpt lat="43.1397267" lon="12.1830367"><ele>415.0</ele><time>2026-03-29T12:10:48.322Z</time></trkpt><trkpt lat="43.13958" lon="12.183055"><ele>415.5</ele><time>2026-03-29T12:10:49.324Z</time></trkpt><trkpt lat="43.1394367" lon="12.1830683"><ele>416.0</ele><time>2026-03-29T12:10:50.323Z</time></trkpt><trkpt lat="43.1392933" lon="12.1830867"><ele>416.0</ele><time>2026-03-29T12:10:51.324Z</time></trkpt><trkpt lat="43.1391483" lon="12.1831117"><ele>416.0</ele><time>2026-03-29T12:10:52.323Z</time></trkpt><trkpt lat="43.1390067" lon="12.18313"><ele>416.0</ele><time>2026-03-29T12:10:53.323Z</time></trkpt><trkpt lat="43.1388717" lon="12.1831417"><ele>416.0</ele><time>2026-03-29T12:10:54.322Z</time></trkpt><trkpt lat="43.13873" lon="12.183135"><ele>415.5</ele><time>2026-03-29T12:10:55.323Z</time></trkpt><trkpt lat="43.13859" lon="12.1831183"><ele>415.0</ele><time>2026-03-29T12:10:56.321Z</time></trkpt><trkpt lat="43.1384583" lon="12.1830967"><ele>414.5</ele><time>2026-03-29T12:10:57.321Z</time></trkpt><trkpt lat="43.1383317" lon="12.1830767"><ele>414.0</ele><time>2026-03-29T12:10:58.32Z</time></trkpt><trkpt lat="43.1382067" lon="12.1830617"><ele>412.6</ele><time>2026-03-29T12:10:59.331Z</time></trkpt><trkpt lat="43.1380917" lon="12.1830467"><ele>411.2</ele><time>2026-03-29T12:11:00.321Z</time></trkpt><trkpt lat="43.1379783" lon="12.183035"><ele>409.8</ele><time>2026-03-29T12:11:01.321Z</time></trkpt><trkpt lat="43.1378717" lon="12.1830283"><ele>408.40000000000003</ele><time>2026-03-29T12:11:02.324Z</time></trkpt><trkpt lat="43.1377733" lon="12.18302"><ele>407.0</ele><time>2026-03-29T12:11:03.326Z</time></trkpt><trkpt lat="43.137685" lon="12.1830083"><ele>406.99999999999994</ele><time>2026-03-29T12:11:04.322Z</time></trkpt><trkpt lat="43.1375983" lon="12.183005"><ele>407.0</ele><time>2026-03-29T12:11:05.32Z</time></trkpt><trkpt lat="43.1375267" lon="12.1830183"><ele>407.0</ele><time>2026-03-29T12:11:06.321Z</time></trkpt><trkpt lat="43.1374667" lon="12.1830583"><ele>407.0</ele><time>2026-03-29T12:11:07.322Z</time></trkpt><trkpt lat="43.13741" lon="12.1831433"><ele>406.99999999999994</ele><time>2026-03-29T12:11:09.323Z</time></trkpt><trkpt lat="43.1373733" lon="12.18324"><ele>407.0</ele><time>2026-03-29T12:11:11.323Z</time></trkpt><trkpt lat="43.1373417" lon="12.1833983"><ele>406.8333333333333</ele><time>2026-03-29T12:11:13.32Z</time></trkpt><trkpt lat="43.1373233" lon="12.1834933"><ele>406.66666666666663</ele><time>2026-03-29T12:11:14.323Z</time></trkpt><trkpt lat="43.1373017" lon="12.1836"><ele>406.5</ele><time>2026-03-29T12:11:15.321Z</time></trkpt><trkpt lat="43.1372767" lon="12.18371"><ele>406.33333333333337</ele><time>2026-03-29T12:11:16.323Z</time></trkpt><trkpt lat="43.1372517" lon="12.1838217"><ele>406.1666666666667</ele><time>2026-03-29T12:11:17.321Z</time></trkpt><trkpt lat="43.1372183" lon="12.1839233"><ele>406.0</ele><time>2026-03-29T12:11:18.321Z</time></trkpt><trkpt lat="43.1371733" lon="12.1840083"><ele>407.50000000000006</ele><time>2026-03-29T12:11:19.323Z</time></trkpt><trkpt lat="43.13712" lon="12.1840667"><ele>409.0</ele><time>2026-03-29T12:11:20.32Z</time></trkpt><trkpt lat="43.1370483" lon="12.1840917"><ele>410.5</ele><time>2026-03-29T12:11:21.321Z</time></trkpt><trkpt lat="43.13696" lon="12.1841017"><ele>412.0</ele><time>2026-03-29T12:11:22.321Z</time></trkpt><trkpt lat="43.1368567" lon="12.1841133"><ele>413.50000000000006</ele><time>2026-03-29T12:11:23.324Z</time></trkpt><trkpt lat="43.1367517" lon="12.1841283"><ele>415.0</ele><time>2026-03-29T12:11:24.323Z</time></trkpt><trkpt lat="43.13665" lon="12.1841567"><ele>413.4</ele><time>2026-03-29T12:11:25.322Z</time></trkpt><trkpt lat="43.1365483" lon="12.1842017"><ele>411.8</ele><time>2026-03-29T12:11:26.323Z</time></trkpt><trkpt lat="43.13645" lon="12.184265"><ele>410.20000000000005</ele><time>2026-03-29T12:11:27.323Z</time></trkpt><trkpt lat="43.1363517" lon="12.1843383"><ele>408.6</ele><time>2026-03-29T12:11:28.319Z</time></trkpt><trkpt lat="43.1362583" lon="12.1844117"><ele>407.0</ele><time>2026-03-29T12:11:29.32Z</time></trkpt><trkpt lat="43.1361683" lon="12.1844733"><ele>406.99999999999994</ele><time>2026-03-29T12:11:30.321Z</time></trkpt><trkpt lat="43.136085" lon="12.18451"><ele>407.0</ele><time>2026-03-29T12:11:31.321Z</time></trkpt><trkpt lat="43.136005" lon="12.1845217"><ele>407.0</ele><time>2026-03-29T12:11:32.32Z</time></trkpt><trkpt lat="43.1359283" lon="12.1845017"><ele>407.0</ele><time>2026-03-29T12:11:33.32Z</time></trkpt><trkpt lat="43.1358667" lon="12.1844683"><ele>406.99999999999994</ele><time>2026-03-29T12:11:34.32Z</time></trkpt><trkpt lat="43.1357533" lon="12.1844267"><ele>407.0</ele><time>2026-03-29T12:11:36.322Z</time></trkpt><trkpt lat="43.1356433" lon="12.1844133"><ele>404.40000000000003</ele><time>2026-03-29T12:11:38.321Z</time></trkpt><trkpt lat="43.13553" lon="12.1844"><ele>401.8</ele><time>2026-03-29T12:11:40.32Z</time></trkpt><trkpt lat="43.1354333" lon="12.1844083"><ele>399.2</ele><time>2026-03-29T12:11:42.322Z</time></trkpt><trkpt lat="43.1353633" lon="12.1843967"><ele>396.6</ele><time>2026-03-29T12:11:44.322Z</time></trkpt><trkpt lat="43.135375" lon="12.1842567"><ele>394.0</ele><time>2026-03-29T12:11:46.323Z</time></trkpt><trkpt lat="43.1354117" lon="12.1841583"><ele>394.0</ele><time>2026-03-29T12:11:47.322Z</time></trkpt><trkpt lat="43.1354633" lon="12.1840467"><ele>394.0</ele><time>2026-03-29T12:11:48.321Z</time></trkpt><trkpt lat="43.1355233" lon="12.1839383"><ele>394.0</ele><time>2026-03-29T12:11:49.322Z</time></trkpt><trkpt lat="43.1356033" lon="12.183835"><ele>394.0</ele><time>2026-03-29T12:11:50.32Z</time></trkpt><trkpt lat="43.1356933" lon="12.1837383"><ele>394.0</ele><time>2026-03-29T12:11:51.322Z</time></trkpt><trkpt lat="43.13578" lon="12.1836383"><ele>394.2</ele><time>2026-03-29T12:11:52.32Z</time></trkpt><trkpt lat="43.13586" lon="12.1835317"><ele>394.4</ele><time>2026-03-29T12:11:53.324Z</time></trkpt><trkpt lat="43.1359267" lon="12.1834133"><ele>394.6</ele><time>2026-03-29T12:11:54.322Z</time></trkpt><trkpt lat="43.1359717" lon="12.1832783"><ele>394.8</ele><time>2026-03-29T12:11:55.321Z</time></trkpt><trkpt lat="43.1359967" lon="12.183135"><ele>395.0</ele><time>2026-03-29T12:11:56.321Z</time></trkpt><trkpt lat="43.1360017" lon="12.1829933"><ele>394.6</ele><time>2026-03-29T12:11:57.323Z</time></trkpt><trkpt lat="43.1359833" lon="12.1828617"><ele>394.2</ele><time>2026-03-29T12:11:58.319Z</time></trkpt><trkpt lat="43.13593" lon="12.1827417"><ele>393.79999999999995</ele><time>2026-03-29T12:11:59.321Z</time></trkpt><trkpt lat="43.135855" lon="12.1826283"><ele>393.4</ele><time>2026-03-29T12:12:00.32Z</time></trkpt><trkpt lat="43.1357817" lon="12.1825067"><ele>393.0</ele><time>2026-03-29T12:12:01.323Z</time></trkpt><trkpt lat="43.1357117" lon="12.1823867"><ele>392.25</ele><time>2026-03-29T12:12:02.321Z</time></trkpt><trkpt lat="43.135635" lon="12.1822633"><ele>391.5</ele><time>2026-03-29T12:12:03.324Z</time></trkpt><trkpt lat="43.1355483" lon="12.1821433"><ele>390.75</ele><time>2026-03-29T12:12:04.325Z</time></trkpt><trkpt lat="43.135445" lon="12.18203"><ele>390.0</ele><time>2026-03-29T12:12:05.321Z</time></trkpt><trkpt lat="43.1353183" lon="12.181915"><ele>390.0</ele><time>2026-03-29T12:12:06.319Z</time></trkpt><trkpt lat="43.1351917" lon="12.1817883"><ele>390.0</ele><time>2026-03-29T12:12:07.32Z</time></trkpt><trkpt lat="43.135065" lon="12.1816683"><ele>390.0</ele><time>2026-03-29T12:12:08.319Z</time></trkpt><trkpt lat="43.1349383" lon="12.181555"><ele>391.0</ele><time>2026-03-29T12:12:09.324Z</time></trkpt><trkpt lat="43.1348" lon="12.1814467"><ele>392.0</ele><time>2026-03-29T12:12:10.321Z</time></trkpt><trkpt lat="43.134655" lon="12.1813567"><ele>393.0</ele><time>2026-03-29T12:12:11.322Z</time></trkpt><trkpt lat="43.1345033" lon="12.1812733"><ele>393.0</ele><time>2026-03-29T12:12:12.321Z</time></trkpt><trkpt lat="43.13435" lon="12.18119"><ele>393.0</ele><time>2026-03-29T12:12:13.325Z</time></trkpt><trkpt lat="43.1342017" lon="12.1811067"><ele>393.0</ele><time>2026-03-29T12:12:14.319Z</time></trkpt><trkpt lat="43.13405" lon="12.1810333"><ele>390.66666666666663</ele><time>2026-03-29T12:12:15.32Z</time></trkpt><trkpt lat="43.133905" lon="12.180955"><ele>388.3333333333333</ele><time>2026-03-29T12:12:16.32Z</time></trkpt><trkpt lat="43.1337567" lon="12.1808783"><ele>386.0</ele><time>2026-03-29T12:12:17.327Z</time></trkpt><trkpt lat="43.1336083" lon="12.1808"><ele>386.0</ele><time>2026-03-29T12:12:18.321Z</time></trkpt><trkpt lat="43.133455" lon="12.180725"><ele>386.0</ele><time>2026-03-29T12:12:19.322Z</time></trkpt><trkpt lat="43.1332933" lon="12.1806517"><ele>386.0</ele><time>2026-03-29T12:12:20.321Z</time></trkpt><trkpt lat="43.133125" lon="12.1805817"><ele>386.0</ele><time>2026-03-29T12:12:21.323Z</time></trkpt><trkpt lat="43.132955" lon="12.1805167"><ele>386.0</ele><time>2026-03-29T12:12:22.321Z</time></trkpt><trkpt lat="43.1327917" lon="12.1804567"><ele>386.0</ele><time>2026-03-29T12:12:23.32Z</time></trkpt><trkpt lat="43.1326333" lon="12.1803933"><ele>386.0</ele><time>2026-03-29T12:12:24.322Z</time></trkpt><trkpt lat="43.13248" lon="12.18033"><ele>386.0</ele><time>2026-03-29T12:12:25.321Z</time></trkpt><trkpt lat="43.13234" lon="12.1802617"><ele>386.0</ele><time>2026-03-29T12:12:26.321Z</time></trkpt><trkpt lat="43.1322117" lon="12.18019"><ele>386.0</ele><time>2026-03-29T12:12:27.323Z</time></trkpt><trkpt lat="43.132085" lon="12.18012"><ele>385.25</ele><time>2026-03-29T12:12:28.322Z</time></trkpt><trkpt lat="43.1319517" lon="12.180065"><ele>384.5</ele><time>2026-03-29T12:12:29.319Z</time></trkpt><trkpt lat="43.1318267" lon="12.18002"><ele>383.75</ele><time>2026-03-29T12:12:30.32Z</time></trkpt><trkpt lat="43.1317067" lon="12.17998"><ele>383.0</ele><time>2026-03-29T12:12:31.32Z</time></trkpt><trkpt lat="43.1315883" lon="12.1799333"><ele>381.5</ele><time>2026-03-29T12:12:32.322Z</time></trkpt><trkpt lat="43.1314733" lon="12.1798733"><ele>380.0</ele><time>2026-03-29T12:12:33.325Z</time></trkpt><trkpt lat="43.13136" lon="12.1797983"><ele>378.5</ele><time>2026-03-29T12:12:34.321Z</time></trkpt><trkpt lat="43.1312433" lon="12.179725"><ele>377.0</ele><time>2026-03-29T12:12:35.32Z</time></trkpt><trkpt lat="43.1311217" lon="12.1796617"><ele>377.0</ele><time>2026-03-29T12:12:36.32Z</time></trkpt><trkpt lat="43.1309917" lon="12.1796067"><ele>377.0</ele><time>2026-03-29T12:12:37.319Z</time></trkpt><trkpt lat="43.1308567" lon="12.1795567"><ele>377.0</ele><time>2026-03-29T12:12:38.319Z</time></trkpt><trkpt lat="43.1307183" lon="12.1795033"><ele>377.0</ele><time>2026-03-29T12:12:39.321Z</time></trkpt><trkpt lat="43.13058" lon="12.179445"><ele>377.6666666666667</ele><time>2026-03-29T12:12:40.322Z</time></trkpt><trkpt lat="43.1304367" lon="12.1793867"><ele>378.3333333333333</ele><time>2026-03-29T12:12:41.32Z</time></trkpt><trkpt lat="43.1302917" lon="12.179325"><ele>379.0</ele><time>2026-03-29T12:12:42.319Z</time></trkpt><trkpt lat="43.1301483" lon="12.1792583"><ele>379.0</ele><time>2026-03-29T12:12:43.322Z</time></trkpt><trkpt lat="43.130005" lon="12.17919"><ele>379.0</ele><time>2026-03-29T12:12:44.32Z</time></trkpt><trkpt lat="43.1298617" lon="12.1791283"><ele>379.0</ele><time>2026-03-29T12:12:45.324Z</time></trkpt><trkpt lat="43.1297183" lon="12.179065"><ele>377.0</ele><time>2026-03-29T12:12:46.32Z</time></trkpt><trkpt lat="43.1295717" lon="12.179"><ele>375.0</ele><time>2026-03-29T12:12:47.32Z</time></trkpt><trkpt lat="43.1294283" lon="12.178935"><ele>373.0</ele><time>2026-03-29T12:12:48.321Z</time></trkpt><trkpt lat="43.1292883" lon="12.1788583"><ele>373.0</ele><time>2026-03-29T12:12:49.32Z</time></trkpt><trkpt lat="43.1291417" lon="12.1787783"><ele>373.0</ele><time>2026-03-29T12:12:50.323Z</time></trkpt><trkpt lat="43.1289933" lon="12.1787"><ele>373.0</ele><time>2026-03-29T12:12:51.323Z</time></trkpt><trkpt lat="43.12885" lon="12.1786217"><ele>373.75</ele><time>2026-03-29T12:12:52.32Z</time></trkpt><trkpt lat="43.1287117" lon="12.1785483"><ele>374.5</ele><time>2026-03-29T12:12:53.323Z</time></trkpt><trkpt lat="43.1285817" lon="12.1784783"><ele>375.25</ele><time>2026-03-29T12:12:54.319Z</time></trkpt><trkpt lat="43.12845" lon="12.17841"><ele>376.0</ele><time>2026-03-29T12:12:55.32Z</time></trkpt><trkpt lat="43.12833" lon="12.178325"><ele>375.25</ele><time>2026-03-29T12:12:56.32Z</time></trkpt><trkpt lat="43.1282183" lon="12.1782333"><ele>374.5</ele><time>2026-03-29T12:12:57.324Z</time></trkpt><trkpt lat="43.1281117" lon="12.1781367"><ele>373.75</ele><time>2026-03-29T12:12:58.32Z</time></trkpt><trkpt lat="43.1280033" lon="12.1780317"><ele>373.0</ele><time>2026-03-29T12:12:59.32Z</time></trkpt><trkpt lat="43.1279017" lon="12.1779233"><ele>373.0</ele><time>2026-03-29T12:13:00.319Z</time></trkpt><trkpt lat="43.1278117" lon="12.1778117"><ele>373.0</ele><time>2026-03-29T12:13:01.321Z</time></trkpt><trkpt lat="43.12773" lon="12.1777"><ele>373.0</ele><time>2026-03-29T12:13:02.323Z</time></trkpt><trkpt lat="43.12766" lon="12.1775967"><ele>373.0</ele><time>2026-03-29T12:13:03.321Z</time></trkpt><trkpt lat="43.1275917" lon="12.1775"><ele>373.0</ele><time>2026-03-29T12:13:04.322Z</time></trkpt><trkpt lat="43.1275267" lon="12.1774133"><ele>373.3333333333333</ele><time>2026-03-29T12:13:05.321Z</time></trkpt><trkpt lat="43.12746" lon="12.1773417"><ele>373.66666666666663</ele><time>2026-03-29T12:13:06.321Z</time></trkpt><trkpt lat="43.1273867" lon="12.17729"><ele>374.0</ele><time>2026-03-29T12:13:07.321Z</time></trkpt><trkpt lat="43.1273167" lon="12.17726"><ele>374.3333333333333</ele><time>2026-03-29T12:13:08.321Z</time></trkpt><trkpt lat="43.1272133" lon="12.1772867"><ele>374.6666666666667</ele><time>2026-03-29T12:13:10.321Z</time></trkpt><trkpt lat="43.1271633" lon="12.17735"><ele>375.0</ele><time>2026-03-29T12:13:11.321Z</time></trkpt><trkpt lat="43.1271167" lon="12.177435"><ele>375.0</ele><time>2026-03-29T12:13:12.319Z</time></trkpt><trkpt lat="43.1270667" lon="12.1775283"><ele>375.0</ele><time>2026-03-29T12:13:13.321Z</time></trkpt><trkpt lat="43.126985" lon="12.17763"><ele>375.0</ele><time>2026-03-29T12:13:14.321Z</time></trkpt><trkpt lat="43.1268867" lon="12.17772"><ele>375.0</ele><time>2026-03-29T12:13:15.323Z</time></trkpt><trkpt lat="43.1267833" lon="12.1777867"><ele>375.0</ele><time>2026-03-29T12:13:16.321Z</time></trkpt><trkpt lat="43.1266683" lon="12.1778333"><ele>377.5</ele><time>2026-03-29T12:13:17.322Z</time></trkpt><trkpt lat="43.126545" lon="12.177855"><ele>380.0</ele><time>2026-03-29T12:13:18.324Z</time></trkpt><trkpt lat="43.1264017" lon="12.177865"><ele>382.5</ele><time>2026-03-29T12:13:19.327Z</time></trkpt><trkpt lat="43.1262567" lon="12.1778733"><ele>385.0</ele><time>2026-03-29T12:13:20.324Z</time></trkpt><trkpt lat="43.1261017" lon="12.1778883"><ele>385.0</ele><time>2026-03-29T12:13:21.32Z</time></trkpt><trkpt lat="43.1259533" lon="12.1779067"><ele>385.0</ele><time>2026-03-29T12:13:22.32Z</time></trkpt><trkpt lat="43.1258117" lon="12.177925"><ele>385.0</ele><time>2026-03-29T12:13:23.32Z</time></trkpt><trkpt lat="43.1256783" lon="12.1779533"><ele>385.0</ele><time>2026-03-29T12:13:24.324Z</time></trkpt><trkpt lat="43.1255567" lon="12.178005"><ele>384.25</ele><time>2026-03-29T12:13:25.321Z</time></trkpt><trkpt lat="43.1254417" lon="12.17808"><ele>383.5</ele><time>2026-03-29T12:13:26.319Z</time></trkpt><trkpt lat="43.1253367" lon="12.1781867"><ele>382.75</ele><time>2026-03-29T12:13:27.32Z</time></trkpt><trkpt lat="43.1252383" lon="12.1783117"><ele>382.0</ele><time>2026-03-29T12:13:28.32Z</time></trkpt><trkpt lat="43.12515" lon="12.1784433"><ele>382.0</ele><time>2026-03-29T12:13:29.325Z</time></trkpt><trkpt lat="43.125065" lon="12.178565"><ele>382.0</ele><time>2026-03-29T12:13:30.322Z</time></trkpt><trkpt lat="43.1249867" lon="12.1786683"><ele>382.0</ele><time>2026-03-29T12:13:31.324Z</time></trkpt><trkpt lat="43.1249233" lon="12.1787617"><ele>382.0</ele><time>2026-03-29T12:13:32.32Z</time></trkpt><trkpt lat="43.1248733" lon="12.1788533"><ele>382.0</ele><time>2026-03-29T12:13:33.323Z</time></trkpt><trkpt lat="43.12484" lon="12.1789483"><ele>380.8</ele><time>2026-03-29T12:13:34.32Z</time></trkpt><trkpt lat="43.1248083" lon="12.17906"><ele>379.6</ele><time>2026-03-29T12:13:35.324Z</time></trkpt><trkpt lat="43.1247817" lon="12.179185"><ele>378.40000000000003</ele><time>2026-03-29T12:13:36.324Z</time></trkpt><trkpt lat="43.124765" lon="12.1793183"><ele>377.20000000000005</ele><time>2026-03-29T12:13:37.321Z</time></trkpt><trkpt lat="43.1247517" lon="12.179455"><ele>376.0</ele><time>2026-03-29T12:13:38.322Z</time></trkpt><trkpt lat="43.12474" lon="12.1795867"><ele>376.0</ele><time>2026-03-29T12:13:39.319Z</time></trkpt><trkpt lat="43.1247283" lon="12.1797117"><ele>376.0</ele><time>2026-03-29T12:13:40.323Z</time></trkpt><trkpt lat="43.12472" lon="12.1798333"><ele>376.0</ele><time>2026-03-29T12:13:41.32Z</time></trkpt><trkpt lat="43.12471" lon="12.17996"><ele>376.0</ele><time>2026-03-29T12:13:42.322Z</time></trkpt><trkpt lat="43.1247" lon="12.18009"><ele>376.0</ele><time>2026-03-29T12:13:43.32Z</time></trkpt><trkpt lat="43.1246833" lon="12.1802267"><ele>377.6</ele><time>2026-03-29T12:13:44.319Z</time></trkpt><trkpt lat="43.1246667" lon="12.1803617"><ele>379.20000000000005</ele><time>2026-03-29T12:13:45.322Z</time></trkpt><trkpt lat="43.1246517" lon="12.1805017"><ele>380.79999999999995</ele><time>2026-03-29T12:13:46.319Z</time></trkpt><trkpt lat="43.12464" lon="12.1806417"><ele>382.4</ele><time>2026-03-29T12:13:47.319Z</time></trkpt><trkpt lat="43.124635" lon="12.1807817"><ele>384.0</ele><time>2026-03-29T12:13:48.321Z</time></trkpt><trkpt lat="43.124635" lon="12.1809167"><ele>384.0</ele><time>2026-03-29T12:13:49.324Z</time></trkpt><trkpt lat="43.1246467" lon="12.1810467"><ele>384.0</ele><time>2026-03-29T12:13:50.322Z</time></trkpt><trkpt lat="43.1246667" lon="12.1811883"><ele>384.0</ele><time>2026-03-29T12:13:51.322Z</time></trkpt><trkpt lat="43.1246917" lon="12.1813317"><ele>384.0</ele><time>2026-03-29T12:13:52.326Z</time></trkpt><trkpt lat="43.124715" lon="12.1814767"><ele>384.0</ele><time>2026-03-29T12:13:53.323Z</time></trkpt><trkpt lat="43.12473" lon="12.1816267"><ele>383.0</ele><time>2026-03-29T12:13:54.321Z</time></trkpt><trkpt lat="43.1247383" lon="12.1817717"><ele>382.0</ele><time>2026-03-29T12:13:55.324Z</time></trkpt><trkpt lat="43.1247483" lon="12.1819183"><ele>381.0</ele><time>2026-03-29T12:13:56.323Z</time></trkpt><trkpt lat="43.124755" lon="12.1820567"><ele>380.0</ele><time>2026-03-29T12:13:57.321Z</time></trkpt><trkpt lat="43.1247633" lon="12.1821817"><ele>379.0</ele><time>2026-03-29T12:13:58.321Z</time></trkpt><trkpt lat="43.124765" lon="12.1822967"><ele>380.5</ele><time>2026-03-29T12:13:59.319Z</time></trkpt><trkpt lat="43.1247517" lon="12.1824033"><ele>382.0</ele><time>2026-03-29T12:14:00.323Z</time></trkpt><trkpt lat="43.1247167" lon="12.1824983"><ele>383.5</ele><time>2026-03-29T12:14:01.322Z</time></trkpt><trkpt lat="43.12467" lon="12.182585"><ele>385.0</ele><time>2026-03-29T12:14:02.322Z</time></trkpt><trkpt lat="43.1246133" lon="12.1826667"><ele>386.50000000000006</ele><time>2026-03-29T12:14:03.323Z</time></trkpt><trkpt lat="43.12455" lon="12.1827383"><ele>388.0</ele><time>2026-03-29T12:14:04.32Z</time></trkpt><trkpt lat="43.1244717" lon="12.1827883"><ele>388.00000000000006</ele><time>2026-03-29T12:14:05.322Z</time></trkpt><trkpt lat="43.1243883" lon="12.18283"><ele>388.0</ele><time>2026-03-29T12:14:06.321Z</time></trkpt><trkpt lat="43.124305" lon="12.182865"><ele>388.0</ele><time>2026-03-29T12:14:07.32Z</time></trkpt><trkpt lat="43.1242217" lon="12.1829"><ele>388.0</ele><time>2026-03-29T12:14:08.321Z</time></trkpt><trkpt lat="43.1241483" lon="12.1829433"><ele>388.00000000000006</ele><time>2026-03-29T12:14:09.32Z</time></trkpt><trkpt lat="43.1240867" lon="12.1829933"><ele>388.0</ele><time>2026-03-29T12:14:10.321Z</time></trkpt><trkpt lat="43.1240233" lon="12.183035"><ele>388.0</ele><time>2026-03-29T12:14:11.319Z</time></trkpt><trkpt lat="43.12396" lon="12.1830517"><ele>388.0</ele><time>2026-03-29T12:14:12.321Z</time></trkpt><trkpt lat="43.1238917" lon="12.1830417"><ele>388.0</ele><time>2026-03-29T12:14:13.323Z</time></trkpt><trkpt lat="43.1238167" lon="12.18303"><ele>388.0</ele><time>2026-03-29T12:14:14.323Z</time></trkpt><trkpt lat="43.1237383" lon="12.183035"><ele>388.0</ele><time>2026-03-29T12:14:15.325Z</time></trkpt><trkpt lat="43.1236683" lon="12.1830567"><ele>388.0</ele><time>2026-03-29T12:14:16.321Z</time></trkpt><trkpt lat="43.1236083" lon="12.183105"><ele>388.0</ele><time>2026-03-29T12:14:17.321Z</time></trkpt><trkpt lat="43.123555" lon="12.1831767"><ele>388.6666666666667</ele><time>2026-03-29T12:14:18.319Z</time></trkpt><trkpt lat="43.1235133" lon="12.18326"><ele>389.33333333333337</ele><time>2026-03-29T12:14:19.322Z</time></trkpt><trkpt lat="43.1234717" lon="12.1833433"><ele>390.0</ele><time>2026-03-29T12:14:20.32Z</time></trkpt><trkpt lat="43.1234283" lon="12.1834083"><ele>390.66666666666663</ele><time>2026-03-29T12:14:21.322Z</time></trkpt><trkpt lat="43.1233817" lon="12.1835467"><ele>391.3333333333333</ele><time>2026-03-29T12:14:23.323Z</time></trkpt><trkpt lat="43.123335" lon="12.183655"><ele>392.0</ele><time>2026-03-29T12:14:25.322Z</time></trkpt><trkpt lat="43.1232067" lon="12.18369"><ele>392.0</ele><time>2026-03-29T12:14:27.321Z</time></trkpt><trkpt lat="43.1231317" lon="12.1837333"><ele>392.0</ele><time>2026-03-29T12:14:28.321Z</time></trkpt><trkpt lat="43.1230417" lon="12.1837817"><ele>392.0</ele><time>2026-03-29T12:14:29.321Z</time></trkpt><trkpt lat="43.12294" lon="12.183815"><ele>392.0</ele><time>2026-03-29T12:14:30.322Z</time></trkpt><trkpt lat="43.1228233" lon="12.1838483"><ele>392.0</ele><time>2026-03-29T12:14:31.321Z</time></trkpt><trkpt lat="43.12271" lon="12.18388"><ele>392.0</ele><time>2026-03-29T12:14:32.321Z</time></trkpt><trkpt lat="43.122605" lon="12.1839083"><ele>392.0</ele><time>2026-03-29T12:14:33.323Z</time></trkpt><trkpt lat="43.1225167" lon="12.1839417"><ele>392.0</ele><time>2026-03-29T12:14:34.32Z</time></trkpt><trkpt lat="43.1224333" lon="12.1839933"><ele>392.0</ele><time>2026-03-29T12:14:35.318Z</time></trkpt><trkpt lat="43.122355" lon="12.1840583"><ele>392.0</ele><time>2026-03-29T12:14:36.323Z</time></trkpt><trkpt lat="43.1222883" lon="12.1841383"><ele>394.16666666666663</ele><time>2026-03-29T12:14:37.323Z</time></trkpt><trkpt lat="43.1222233" lon="12.184225"><ele>396.3333333333333</ele><time>2026-03-29T12:14:38.32Z</time></trkpt><trkpt lat="43.1221667" lon="12.1843217"><ele>398.5</ele><time>2026-03-29T12:14:39.322Z</time></trkpt><trkpt lat="43.1221183" lon="12.1844233"><ele>400.66666666666663</ele><time>2026-03-29T12:14:40.321Z</time></trkpt><trkpt lat="43.1220767" lon="12.1845267"><ele>402.8333333333333</ele><time>2026-03-29T12:14:41.322Z</time></trkpt><trkpt lat="43.12204" lon="12.1846383"><ele>405.0</ele><time>2026-03-29T12:14:42.321Z</time></trkpt><trkpt lat="43.1220033" lon="12.1847567"><ele>405.0</ele><time>2026-03-29T12:14:43.319Z</time></trkpt><trkpt lat="43.121975" lon="12.18487"><ele>405.0</ele><time>2026-03-29T12:14:44.321Z</time></trkpt><trkpt lat="43.1219433" lon="12.18497"><ele>405.0</ele><time>2026-03-29T12:14:45.32Z</time></trkpt><trkpt lat="43.121905" lon="12.1850533"><ele>405.0</ele><time>2026-03-29T12:14:46.322Z</time></trkpt><trkpt lat="43.121855" lon="12.1851267"><ele>405.0</ele><time>2026-03-29T12:14:47.321Z</time></trkpt><trkpt lat="43.1217967" lon="12.1851917"><ele>405.0</ele><time>2026-03-29T12:14:48.32Z</time></trkpt><trkpt lat="43.1217333" lon="12.1852533"><ele>405.0</ele><time>2026-03-29T12:14:49.32Z</time></trkpt><trkpt lat="43.1216683" lon="12.1853117"><ele>405.0</ele><time>2026-03-29T12:14:50.32Z</time></trkpt><trkpt lat="43.1216" lon="12.1853767"><ele>405.0</ele><time>2026-03-29T12:14:51.322Z</time></trkpt><trkpt lat="43.121525" lon="12.185455"><ele>405.0</ele><time>2026-03-29T12:14:52.32Z</time></trkpt><trkpt lat="43.1214533" lon="12.1855383"><ele>405.0</ele><time>2026-03-29T12:14:53.32Z</time></trkpt><trkpt lat="43.121375" lon="12.1856183"><ele>405.0</ele><time>2026-03-29T12:14:54.322Z</time></trkpt><trkpt lat="43.1212967" lon="12.18569"><ele>404.3333333333333</ele><time>2026-03-29T12:14:55.323Z</time></trkpt><trkpt lat="43.121225" lon="12.1857617"><ele>403.66666666666663</ele><time>2026-03-29T12:14:56.32Z</time></trkpt><trkpt lat="43.121165" lon="12.1858317"><ele>403.0</ele><time>2026-03-29T12:14:57.325Z</time></trkpt><trkpt lat="43.1211233" lon="12.1859017"><ele>402.3333333333333</ele><time>2026-03-29T12:14:58.32Z</time></trkpt><trkpt lat="43.1210967" lon="12.18605"><ele>401.66666666666663</ele><time>2026-03-29T12:15:00.322Z</time></trkpt><trkpt lat="43.1210767" lon="12.1861667"><ele>401.0</ele><time>2026-03-29T12:15:02.322Z</time></trkpt><trkpt lat="43.1210667" lon="12.18627"><ele>400.99999999999994</ele><time>2026-03-29T12:15:04.32Z</time></trkpt><trkpt lat="43.12105" lon="12.1863633"><ele>401.0</ele><time>2026-03-29T12:15:06.321Z</time></trkpt><trkpt lat="43.1209883" lon="12.186455"><ele>401.0</ele><time>2026-03-29T12:15:08.32Z</time></trkpt><trkpt lat="43.1209067" lon="12.1865583"><ele>401.0</ele><time>2026-03-29T12:15:10.321Z</time></trkpt><trkpt lat="43.1208567" lon="12.1866317"><ele>400.99999999999994</ele><time>2026-03-29T12:15:11.319Z</time></trkpt><trkpt lat="43.120815" lon="12.18671"><ele>401.0</ele><time>2026-03-29T12:15:12.32Z</time></trkpt><trkpt lat="43.1207683" lon="12.1867783"><ele>399.8333333333333</ele><time>2026-03-29T12:15:13.322Z</time></trkpt><trkpt lat="43.1206833" lon="12.1868833"><ele>398.66666666666663</ele><time>2026-03-29T12:15:15.322Z</time></trkpt><trkpt lat="43.1206267" lon="12.186935"><ele>397.5</ele><time>2026-03-29T12:15:16.322Z</time></trkpt><trkpt lat="43.1205667" lon="12.1869917"><ele>396.33333333333337</ele><time>2026-03-29T12:15:17.324Z</time></trkpt><trkpt lat="43.1205017" lon="12.1870417"><ele>395.1666666666667</ele><time>2026-03-29T12:15:18.322Z</time></trkpt><trkpt lat="43.1204333" lon="12.18709"><ele>394.0</ele><time>2026-03-29T12:15:19.322Z</time></trkpt><trkpt lat="43.1203617" lon="12.1871333"><ele>394.0</ele><time>2026-03-29T12:15:20.32Z</time></trkpt><trkpt lat="43.1202883" lon="12.1871667"><ele>394.0</ele><time>2026-03-29T12:15:21.321Z</time></trkpt><trkpt lat="43.1202133" lon="12.1872"><ele>394.0</ele><time>2026-03-29T12:15:22.322Z</time></trkpt><trkpt lat="43.120145" lon="12.187245"><ele>394.0</ele><time>2026-03-29T12:15:23.322Z</time></trkpt><trkpt lat="43.1200917" lon="12.1872983"><ele>394.0</ele><time>2026-03-29T12:15:24.325Z</time></trkpt><trkpt lat="43.1200433" lon="12.1873583"><ele>394.0</ele><time>2026-03-29T12:15:25.32Z</time></trkpt><trkpt lat="43.1199967" lon="12.1874183"><ele>394.0</ele><time>2026-03-29T12:15:26.324Z</time></trkpt><trkpt lat="43.11992" lon="12.187515"><ele>390.79999999999995</ele><time>2026-03-29T12:15:28.324Z</time></trkpt><trkpt lat="43.119815" lon="12.1876033"><ele>387.59999999999997</ele><time>2026-03-29T12:15:37.319Z</time></trkpt><trkpt lat="43.11972" lon="12.1876567"><ele>384.4</ele><time>2026-03-29T12:15:39.322Z</time></trkpt><trkpt lat="43.1196583" lon="12.1876867"><ele>381.2</ele><time>2026-03-29T12:15:40.321Z</time></trkpt><trkpt lat="43.11958" lon="12.1877117"><ele>378.0</ele><time>2026-03-29T12:15:41.322Z</time></trkpt><trkpt lat="43.1195033" lon="12.187745"><ele>378.0</ele><time>2026-03-29T12:15:42.32Z</time></trkpt><trkpt lat="43.1194233" lon="12.1877933"><ele>378.0</ele><time>2026-03-29T12:15:43.326Z</time></trkpt><trkpt lat="43.1193517" lon="12.1878583"><ele>378.0</ele><time>2026-03-29T12:15:44.32Z</time></trkpt><trkpt lat="43.1192833" lon="12.187915"><ele>378.0</ele><time>2026-03-29T12:15:45.325Z</time></trkpt><trkpt lat="43.119225" lon="12.1879617"><ele>378.0</ele><time>2026-03-29T12:15:46.32Z</time></trkpt><trkpt lat="43.1191367" lon="12.188015"><ele>378.0</ele><time>2026-03-29T12:15:48.323Z</time></trkpt><trkpt lat="43.1190733" lon="12.1880933"><ele>377.0</ele><time>2026-03-29T12:15:50.321Z</time></trkpt><trkpt lat="43.11902" lon="12.188235"><ele>376.0</ele><time>2026-03-29T12:15:52.32Z</time></trkpt><trkpt lat="43.1189867" lon="12.1883083"><ele>375.0</ele><time>2026-03-29T12:15:53.319Z</time></trkpt><trkpt lat="43.118945" lon="12.1883767"><ele>374.0</ele><time>2026-03-29T12:15:54.32Z</time></trkpt><trkpt lat="43.1188917" lon="12.18845"><ele>373.0</ele><time>2026-03-29T12:15:55.321Z</time></trkpt><trkpt lat="43.1188317" lon="12.1885333"><ele>372.0</ele><time>2026-03-29T12:15:56.319Z</time></trkpt><trkpt lat="43.1187717" lon="12.18861"><ele>372.0</ele><time>2026-03-29T12:15:57.324Z</time></trkpt><trkpt lat="43.11871" lon="12.1886733"><ele>372.0</ele><time>2026-03-29T12:15:58.325Z</time></trkpt><trkpt lat="43.1186567" lon="12.1887333"><ele>372.0</ele><time>2026-03-29T12:15:59.323Z</time></trkpt><trkpt lat="43.1186017" lon="12.1887867"><ele>372.0</ele><time>2026-03-29T12:16:00.324Z</time></trkpt><trkpt lat="43.1185483" lon="12.188845"><ele>372.0</ele><time>2026-03-29T12:16:01.323Z</time></trkpt><trkpt lat="43.11845" lon="12.188925"><ele>372.0</ele><time>2026-03-29T12:16:03.324Z</time></trkpt><trkpt lat="43.1183417" lon="12.1889617"><ele>373.20000000000005</ele><time>2026-03-29T12:16:05.322Z</time></trkpt><trkpt lat="43.11823" lon="12.18901"><ele>374.4</ele><time>2026-03-29T12:16:07.32Z</time></trkpt><trkpt lat="43.1181667" lon="12.1890167"><ele>375.6</ele><time>2026-03-29T12:16:08.32Z</time></trkpt><trkpt lat="43.118045" lon="12.1890117"><ele>376.79999999999995</ele><time>2026-03-29T12:16:10.32Z</time></trkpt><trkpt lat="43.117925" lon="12.1890517"><ele>378.0</ele><time>2026-03-29T12:16:12.324Z</time></trkpt><trkpt lat="43.117855" lon="12.18906"><ele>378.0</ele><time>2026-03-29T12:16:13.321Z</time></trkpt><trkpt lat="43.117785" lon="12.1890617"><ele>378.0</ele><time>2026-03-29T12:16:14.32Z</time></trkpt><trkpt lat="43.1177217" lon="12.189055"><ele>378.0</ele><time>2026-03-29T12:16:15.325Z</time></trkpt><trkpt lat="43.11761" lon="12.1890333"><ele>378.0</ele><time>2026-03-29T12:16:17.324Z</time></trkpt><trkpt lat="43.11751" lon="12.189035"><ele>378.0</ele><time>2026-03-29T12:16:19.321Z</time></trkpt><trkpt lat="43.1174417" lon="12.1890867"><ele>378.0</ele><time>2026-03-29T12:16:21.326Z</time></trkpt><trkpt lat="43.1173633" lon="12.1891417"><ele>375.1666666666667</ele><time>2026-03-29T12:16:23.324Z</time></trkpt><trkpt lat="43.1172767" lon="12.1892017"><ele>372.3333333333333</ele><time>2026-03-29T12:16:25.325Z</time></trkpt><trkpt lat="43.11721" lon="12.1892817"><ele>369.5</ele><time>2026-03-29T12:16:27.326Z</time></trkpt><trkpt lat="43.1171383" lon="12.1893483"><ele>366.66666666666663</ele><time>2026-03-29T12:16:29.322Z</time></trkpt><trkpt lat="43.1170667" lon="12.1893933"><ele>363.8333333333333</ele><time>2026-03-29T12:16:31.32Z</time></trkpt><trkpt lat="43.1170183" lon="12.1894717"><ele>361.0</ele><time>2026-03-29T12:16:34.32Z</time></trkpt><trkpt lat="43.116995" lon="12.1895717"><ele>361.0</ele><time>2026-03-29T12:16:36.324Z</time></trkpt><trkpt lat="43.1169367" lon="12.1897067"><ele>361.0</ele><time>2026-03-29T12:16:38.321Z</time></trkpt><trkpt lat="43.1169133" lon="12.1898667"><ele>361.0</ele><time>2026-03-29T12:16:40.32Z</time></trkpt><trkpt lat="43.116895" lon="12.1900167"><ele>361.0</ele><time>2026-03-29T12:16:42.321Z</time></trkpt><trkpt lat="43.116825" lon="12.1901483"><ele>361.5</ele><time>2026-03-29T12:16:44.319Z</time></trkpt><trkpt lat="43.1167733" lon="12.19022"><ele>362.0</ele><time>2026-03-29T12:16:45.325Z</time></trkpt><trkpt lat="43.116715" lon="12.1903033"><ele>362.5</ele><time>2026-03-29T12:16:46.322Z</time></trkpt><trkpt lat="43.11666" lon="12.190385"><ele>363.0</ele><time>2026-03-29T12:16:47.319Z</time></trkpt><trkpt lat="43.1166067" lon="12.1904633"><ele>363.5</ele><time>2026-03-29T12:16:48.32Z</time></trkpt><trkpt lat="43.1165533" lon="12.190545"><ele>364.0</ele><time>2026-03-29T12:16:49.325Z</time></trkpt><trkpt lat="43.1165" lon="12.1906183"><ele>364.16666666666663</ele><time>2026-03-29T12:16:50.326Z</time></trkpt><trkpt lat="43.1164417" lon="12.1906983"><ele>364.3333333333333</ele><time>2026-03-29T12:16:51.322Z</time></trkpt><trkpt lat="43.1163933" lon="12.1907817"><ele>364.5</ele><time>2026-03-29T12:16:52.321Z</time></trkpt><trkpt lat="43.116355" lon="12.1908633"><ele>364.6666666666667</ele><time>2026-03-29T12:16:53.323Z</time></trkpt><trkpt lat="43.1163233" lon="12.1909383"><ele>364.83333333333337</ele><time>2026-03-29T12:16:54.322Z</time></trkpt><trkpt lat="43.116285" lon="12.1910467"><ele>365.0</ele><time>2026-03-29T12:16:56.322Z</time></trkpt><trkpt lat="43.116225" lon="12.191145"><ele>365.0</ele><time>2026-03-29T12:16:58.322Z</time></trkpt><trkpt lat="43.1161783" lon="12.191205"><ele>365.0</ele><time>2026-03-29T12:16:59.321Z</time></trkpt><trkpt lat="43.116125" lon="12.1912733"><ele>365.0</ele><time>2026-03-29T12:17:00.321Z</time></trkpt><trkpt lat="43.1160667" lon="12.1913517"><ele>365.0</ele><time>2026-03-29T12:17:01.319Z</time></trkpt><trkpt lat="43.1160117" lon="12.1914467"><ele>365.0</ele><time>2026-03-29T12:17:02.321Z</time></trkpt><trkpt lat="43.1159583" lon="12.1915533"><ele>365.0</ele><time>2026-03-29T12:17:03.324Z</time></trkpt><trkpt lat="43.115915" lon="12.1916717"><ele>363.83333333333337</ele><time>2026-03-29T12:17:04.319Z</time></trkpt><trkpt lat="43.1158817" lon="12.19179"><ele>362.6666666666667</ele><time>2026-03-29T12:17:05.32Z</time></trkpt><trkpt lat="43.1158633" lon="12.1919083"><ele>361.5</ele><time>2026-03-29T12:17:06.321Z</time></trkpt><trkpt lat="43.1158533" lon="12.19203"><ele>360.3333333333333</ele><time>2026-03-29T12:17:07.32Z</time></trkpt><trkpt lat="43.1158433" lon="12.192145"><ele>359.16666666666663</ele><time>2026-03-29T12:17:08.323Z</time></trkpt><trkpt lat="43.1158283" lon="12.1922383"><ele>358.0</ele><time>2026-03-29T12:17:09.327Z</time></trkpt><trkpt lat="43.1158" lon="12.1923167"><ele>357.16666666666663</ele><time>2026-03-29T12:17:10.324Z</time></trkpt><trkpt lat="43.1157533" lon="12.192375"><ele>356.3333333333333</ele><time>2026-03-29T12:17:11.32Z</time></trkpt><trkpt lat="43.1156933" lon="12.1924233"><ele>355.5</ele><time>2026-03-29T12:17:12.322Z</time></trkpt><trkpt lat="43.115625" lon="12.1924683"><ele>354.6666666666667</ele><time>2026-03-29T12:17:13.324Z</time></trkpt><trkpt lat="43.1155483" lon="12.1925133"><ele>353.83333333333337</ele><time>2026-03-29T12:17:14.321Z</time></trkpt><trkpt lat="43.11547" lon="12.192555"><ele>353.0</ele><time>2026-03-29T12:17:15.323Z</time></trkpt><trkpt lat="43.1153883" lon="12.1925933"><ele>353.0</ele><time>2026-03-29T12:17:16.321Z</time></trkpt><trkpt lat="43.1153183" lon="12.1926217"><ele>353.0</ele><time>2026-03-29T12:17:17.323Z</time></trkpt><trkpt lat="43.1152567" lon="12.192645"><ele>353.0</ele><time>2026-03-29T12:17:18.323Z</time></trkpt><trkpt lat="43.115145" lon="12.1927317"><ele>353.0</ele><time>2026-03-29T12:17:20.321Z</time></trkpt><trkpt lat="43.11509" lon="12.192815"><ele>353.0</ele><time>2026-03-29T12:17:21.326Z</time></trkpt><trkpt lat="43.1150467" lon="12.1929133"><ele>353.0</ele><time>2026-03-29T12:17:22.326Z</time></trkpt><trkpt lat="43.1150183" lon="12.1930067"><ele>353.0</ele><time>2026-03-29T12:17:23.325Z</time></trkpt><trkpt lat="43.11498" lon="12.1931267"><ele>353.0</ele><time>2026-03-29T12:17:25.323Z</time></trkpt><trkpt lat="43.1150317" lon="12.1932083"><ele>353.0</ele><time>2026-03-29T12:17:28.321Z</time></trkpt><trkpt lat="43.1151783" lon="12.19327"><ele>353.0</ele><time>2026-03-29T12:17:30.324Z</time></trkpt><trkpt lat="43.1152683" lon="12.1933233"><ele>353.0</ele><time>2026-03-29T12:17:31.326Z</time></trkpt><trkpt lat="43.1153467" lon="12.1933733"><ele>350.2</ele><time>2026-03-29T12:17:32.326Z</time></trkpt><trkpt lat="43.1154283" lon="12.1934183"><ele>347.4</ele><time>2026-03-29T12:17:33.323Z</time></trkpt><trkpt lat="43.1155133" lon="12.1934733"><ele>344.59999999999997</ele><time>2026-03-29T12:17:34.32Z</time></trkpt><trkpt lat="43.115595" lon="12.1935283"><ele>341.79999999999995</ele><time>2026-03-29T12:17:35.324Z</time></trkpt><trkpt lat="43.1156817" lon="12.1935867"><ele>339.0</ele><time>2026-03-29T12:17:36.322Z</time></trkpt><trkpt lat="43.1157567" lon="12.19365"><ele>336.2</ele><time>2026-03-29T12:17:37.321Z</time></trkpt><trkpt lat="43.1158167" lon="12.1937217"><ele>333.4</ele><time>2026-03-29T12:17:38.322Z</time></trkpt><trkpt lat="43.1158633" lon="12.1937933"><ele>330.6</ele><time>2026-03-29T12:17:39.325Z</time></trkpt><trkpt lat="43.11595" lon="12.1938983"><ele>327.8</ele><time>2026-03-29T12:17:41.322Z</time></trkpt><trkpt lat="43.1160667" lon="12.1939417"><ele>325.0</ele><time>2026-03-29T12:17:43.325Z</time></trkpt><trkpt lat="43.1161317" lon="12.19395"><ele>325.0</ele><time>2026-03-29T12:17:44.324Z</time></trkpt><trkpt lat="43.116195" lon="12.1939617"><ele>325.0</ele><time>2026-03-29T12:17:45.325Z</time></trkpt><trkpt lat="43.1162633" lon="12.19398"><ele>325.0</ele><time>2026-03-29T12:17:46.324Z</time></trkpt><trkpt lat="43.1163267" lon="12.1940117"><ele>325.0</ele><time>2026-03-29T12:17:47.321Z</time></trkpt><trkpt lat="43.116385" lon="12.1940683"><ele>325.0</ele><time>2026-03-29T12:17:48.321Z</time></trkpt><trkpt lat="43.1164317" lon="12.19414"><ele>325.0</ele><time>2026-03-29T12:17:49.321Z</time></trkpt><trkpt lat="43.1164817" lon="12.194235"><ele>325.0</ele><time>2026-03-29T12:17:50.321Z</time></trkpt><trkpt lat="43.1165283" lon="12.1943267"><ele>322.0</ele><time>2026-03-29T12:17:51.323Z</time></trkpt><trkpt lat="43.11657" lon="12.1944"><ele>319.0</ele><time>2026-03-29T12:17:52.328Z</time></trkpt><trkpt lat="43.1166183" lon="12.1944567"><ele>316.0</ele><time>2026-03-29T12:17:53.322Z</time></trkpt><trkpt lat="43.116675" lon="12.1945033"><ele>313.0</ele><time>2026-03-29T12:17:54.327Z</time></trkpt><trkpt lat="43.1167383" lon="12.1945433"><ele>310.0</ele><time>2026-03-29T12:17:55.325Z</time></trkpt><trkpt lat="43.1167983" lon="12.1946033"><ele>307.0</ele><time>2026-03-29T12:17:56.324Z</time></trkpt><trkpt lat="43.1168583" lon="12.1946933"><ele>304.0</ele><time>2026-03-29T12:17:57.323Z</time></trkpt><trkpt lat="43.116915" lon="12.194795"><ele>303.0</ele><time>2026-03-29T12:17:58.321Z</time></trkpt><trkpt lat="43.1169833" lon="12.1949"><ele>302.0</ele><time>2026-03-29T12:17:59.322Z</time></trkpt><trkpt lat="43.1170583" lon="12.19502"><ele>301.0</ele><time>2026-03-29T12:18:00.324Z</time></trkpt><trkpt lat="43.117135" lon="12.1951533"><ele>300.0</ele><time>2026-03-29T12:18:01.325Z</time></trkpt><trkpt lat="43.1172067" lon="12.1952867"><ele>300.0</ele><time>2026-03-29T12:18:02.322Z</time></trkpt><trkpt lat="43.117275" lon="12.1954233"><ele>300.0</ele><time>2026-03-29T12:18:03.323Z</time></trkpt><trkpt lat="43.1173417" lon="12.1955533"><ele>300.0</ele><time>2026-03-29T12:18:04.323Z</time></trkpt><trkpt lat="43.1174033" lon="12.1956733"><ele>300.0</ele><time>2026-03-29T12:18:05.32Z</time></trkpt><trkpt lat="43.11746" lon="12.1957783"><ele>300.0</ele><time>2026-03-29T12:18:06.322Z</time></trkpt><trkpt lat="43.1175167" lon="12.1958633"><ele>297.5</ele><time>2026-03-29T12:18:07.321Z</time></trkpt><trkpt lat="43.11758" lon="12.1959233"><ele>295.0</ele><time>2026-03-29T12:18:08.32Z</time></trkpt><trkpt lat="43.1176517" lon="12.19596"><ele>292.5</ele><time>2026-03-29T12:18:09.324Z</time></trkpt><trkpt lat="43.11773" lon="12.1959833"><ele>290.0</ele><time>2026-03-29T12:18:10.323Z</time></trkpt><trkpt lat="43.1178117" lon="12.1960083"><ele>287.5</ele><time>2026-03-29T12:18:11.322Z</time></trkpt><trkpt lat="43.11789" lon="12.19605"><ele>285.0</ele><time>2026-03-29T12:18:12.324Z</time></trkpt><trkpt lat="43.1179617" lon="12.1961083"><ele>285.0</ele><time>2026-03-29T12:18:13.325Z</time></trkpt><trkpt lat="43.1180233" lon="12.196175"><ele>285.0</ele><time>2026-03-29T12:18:14.319Z</time></trkpt><trkpt lat="43.1180683" lon="12.1962667"><ele>285.0</ele><time>2026-03-29T12:18:15.324Z</time></trkpt><trkpt lat="43.1181117" lon="12.1963767"><ele>285.0</ele><time>2026-03-29T12:18:16.32Z</time></trkpt><trkpt lat="43.1181433" lon="12.1964983"><ele>285.0</ele><time>2026-03-29T12:18:17.323Z</time></trkpt><trkpt lat="43.1181567" lon="12.19662"><ele>285.0</ele><time>2026-03-29T12:18:18.321Z</time></trkpt><trkpt lat="43.1181617" lon="12.1967583"><ele>284.3333333333333</ele><time>2026-03-29T12:18:19.32Z</time></trkpt><trkpt lat="43.1181517" lon="12.1968817"><ele>283.6666666666667</ele><time>2026-03-29T12:18:20.321Z</time></trkpt><trkpt lat="43.1181283" lon="12.1970117"><ele>283.0</ele><time>2026-03-29T12:18:21.322Z</time></trkpt><trkpt lat="43.1180883" lon="12.1971233"><ele>282.33333333333337</ele><time>2026-03-29T12:18:22.323Z</time></trkpt><trkpt lat="43.1180383" lon="12.1972083"><ele>281.6666666666667</ele><time>2026-03-29T12:18:23.323Z</time></trkpt><trkpt lat="43.1179883" lon="12.19729"><ele>281.0</ele><time>2026-03-29T12:18:24.323Z</time></trkpt><trkpt lat="43.1179483" lon="12.197375"><ele>278.8</ele><time>2026-03-29T12:18:25.318Z</time></trkpt><trkpt lat="43.1179267" lon="12.1974733"><ele>276.6</ele><time>2026-03-29T12:18:26.32Z</time></trkpt><trkpt lat="43.1179167" lon="12.19759"><ele>274.4</ele><time>2026-03-29T12:18:27.323Z</time></trkpt><trkpt lat="43.1179233" lon="12.1977267"><ele>272.2</ele><time>2026-03-29T12:18:28.322Z</time></trkpt><trkpt lat="43.1179367" lon="12.19789"><ele>270.0</ele><time>2026-03-29T12:18:29.322Z</time></trkpt><trkpt lat="43.1179517" lon="12.1980633"><ele>267.0</ele><time>2026-03-29T12:18:30.32Z</time></trkpt><trkpt lat="43.117965" lon="12.19824"><ele>264.0</ele><time>2026-03-29T12:18:31.323Z</time></trkpt><trkpt lat="43.117975" lon="12.19842"><ele>261.0</ele><time>2026-03-29T12:18:32.322Z</time></trkpt><trkpt lat="43.1179833" lon="12.1986"><ele>258.0</ele><time>2026-03-29T12:18:33.319Z</time></trkpt><trkpt lat="43.1179967" lon="12.1987767"><ele>258.0</ele><time>2026-03-29T12:18:34.322Z</time></trkpt><trkpt lat="43.11802" lon="12.1989517"><ele>258.0</ele><time>2026-03-29T12:18:35.323Z</time></trkpt><trkpt lat="43.1180467" lon="12.199135"><ele>258.0</ele><time>2026-03-29T12:18:36.321Z</time></trkpt><trkpt lat="43.1180683" lon="12.1993283"><ele>258.0</ele><time>2026-03-29T12:18:37.321Z</time></trkpt><trkpt lat="43.118085" lon="12.19952"><ele>256.5</ele><time>2026-03-29T12:18:38.321Z</time></trkpt><trkpt lat="43.1181017" lon="12.1997033"><ele>255.0</ele><time>2026-03-29T12:18:39.325Z</time></trkpt><trkpt lat="43.1181167" lon="12.1998767"><ele>253.5</ele><time>2026-03-29T12:18:40.324Z</time></trkpt><trkpt lat="43.1181283" lon="12.200045"><ele>252.0</ele><time>2026-03-29T12:18:41.325Z</time></trkpt><trkpt lat="43.11814" lon="12.200205"><ele>251.0</ele><time>2026-03-29T12:18:42.322Z</time></trkpt><trkpt lat="43.1181533" lon="12.2003483"><ele>250.0</ele><time>2026-03-29T12:18:43.322Z</time></trkpt><trkpt lat="43.118175" lon="12.2004683"><ele>249.0</ele><time>2026-03-29T12:18:44.321Z</time></trkpt><trkpt lat="43.1182083" lon="12.2005717"><ele>248.0</ele><time>2026-03-29T12:18:45.325Z</time></trkpt><trkpt lat="43.11827" lon="12.2006617"><ele>247.0</ele><time>2026-03-29T12:18:46.323Z</time></trkpt><trkpt lat="43.1183283" lon="12.2007617"><ele>246.0</ele><time>2026-03-29T12:18:47.321Z</time></trkpt><trkpt lat="43.1183733" lon="12.200885"><ele>245.0</ele><time>2026-03-29T12:18:48.32Z</time></trkpt><trkpt lat="43.1183917" lon="12.2010467"><ele>244.0</ele><time>2026-03-29T12:18:49.321Z</time></trkpt><trkpt lat="43.1183917" lon="12.2012317"><ele>243.0</ele><time>2026-03-29T12:18:50.319Z</time></trkpt><trkpt lat="43.1183833" lon="12.2014367"><ele>242.66666666666669</ele><time>2026-03-29T12:18:51.324Z</time></trkpt><trkpt lat="43.11838" lon="12.20165"><ele>242.33333333333334</ele><time>2026-03-29T12:18:52.322Z</time></trkpt><trkpt lat="43.11838" lon="12.201865"><ele>242.0</ele><time>2026-03-29T12:18:53.321Z</time></trkpt><trkpt lat="43.1183817" lon="12.2020783"><ele>242.0</ele><time>2026-03-29T12:18:54.323Z</time></trkpt><trkpt lat="43.118385" lon="12.202285"><ele>242.0</ele><time>2026-03-29T12:18:55.323Z</time></trkpt><trkpt lat="43.1183917" lon="12.2024817"><ele>242.0</ele><time>2026-03-29T12:18:56.322Z</time></trkpt><trkpt lat="43.1183967" lon="12.2026683"><ele>242.0</ele><time>2026-03-29T12:18:57.323Z</time></trkpt><trkpt lat="43.1184017" lon="12.2028467"><ele>242.0</ele><time>2026-03-29T12:18:58.323Z</time></trkpt><trkpt lat="43.1184017" lon="12.20301"><ele>242.0</ele><time>2026-03-29T12:18:59.324Z</time></trkpt><trkpt lat="43.118385" lon="12.2031383"><ele>242.0</ele><time>2026-03-29T12:19:00.324Z</time></trkpt><trkpt lat="43.11835" lon="12.203245"><ele>242.0</ele><time>2026-03-29T12:19:01.32Z</time></trkpt><trkpt lat="43.1182817" lon="12.2033117"><ele>242.0</ele><time>2026-03-29T12:19:02.322Z</time></trkpt><trkpt lat="43.1181917" lon="12.2033583"><ele>242.39999999999998</ele><time>2026-03-29T12:19:03.324Z</time></trkpt><trkpt lat="43.118095" lon="12.2033917"><ele>242.79999999999998</ele><time>2026-03-29T12:19:04.325Z</time></trkpt><trkpt lat="43.1180033" lon="12.2034283"><ele>243.2</ele><time>2026-03-29T12:19:05.324Z</time></trkpt><trkpt lat="43.11792" lon="12.2034767"><ele>243.6</ele><time>2026-03-29T12:19:06.324Z</time></trkpt><trkpt lat="43.11784" lon="12.2035383"><ele>244.0</ele><time>2026-03-29T12:19:07.321Z</time></trkpt><trkpt lat="43.1177683" lon="12.203625"><ele>244.0</ele><time>2026-03-29T12:19:08.324Z</time></trkpt><trkpt lat="43.1177067" lon="12.203735"><ele>243.99999999999997</ele><time>2026-03-29T12:19:09.323Z</time></trkpt><trkpt lat="43.11766" lon="12.2038617"><ele>243.99999999999997</ele><time>2026-03-29T12:19:10.321Z</time></trkpt><trkpt lat="43.1176183" lon="12.204"><ele>244.0</ele><time>2026-03-29T12:19:11.32Z</time></trkpt><trkpt lat="43.11757" lon="12.2041417"><ele>244.0</ele><time>2026-03-29T12:19:12.32Z</time></trkpt><trkpt lat="43.11751" lon="12.2042683"><ele>244.0</ele><time>2026-03-29T12:19:13.324Z</time></trkpt><trkpt lat="43.1174467" lon="12.2043783"><ele>243.99999999999997</ele><time>2026-03-29T12:19:14.321Z</time></trkpt><trkpt lat="43.1173733" lon="12.2044767"><ele>243.99999999999997</ele><time>2026-03-29T12:19:15.323Z</time></trkpt><trkpt lat="43.117285" lon="12.2045583"><ele>244.0</ele><time>2026-03-29T12:19:16.322Z</time></trkpt><trkpt lat="43.1172017" lon="12.20463"><ele>244.0</ele><time>2026-03-29T12:19:17.325Z</time></trkpt><trkpt lat="43.1171283" lon="12.2046967"><ele>244.33333333333331</ele><time>2026-03-29T12:19:18.321Z</time></trkpt><trkpt lat="43.1170617" lon="12.204765"><ele>244.66666666666666</ele><time>2026-03-29T12:19:19.321Z</time></trkpt><trkpt lat="43.117005" lon="12.20484"><ele>245.0</ele><time>2026-03-29T12:19:20.323Z</time></trkpt><trkpt lat="43.11696" lon="12.2049283"><ele>245.33333333333331</ele><time>2026-03-29T12:19:21.321Z</time></trkpt><trkpt lat="43.1169233" lon="12.2050333"><ele>245.66666666666666</ele><time>2026-03-29T12:19:22.32Z</time></trkpt><trkpt lat="43.1168783" lon="12.2051317"><ele>246.0</ele><time>2026-03-29T12:19:23.322Z</time></trkpt><trkpt lat="43.1168167" lon="12.20522"><ele>246.20000000000002</ele><time>2026-03-29T12:19:24.32Z</time></trkpt><trkpt lat="43.1167517" lon="12.2053067"><ele>246.40000000000003</ele><time>2026-03-29T12:19:25.321Z</time></trkpt><trkpt lat="43.116675" lon="12.205395"><ele>246.6</ele><time>2026-03-29T12:19:26.321Z</time></trkpt><trkpt lat="43.116595" lon="12.20549"><ele>246.8</ele><time>2026-03-29T12:19:27.323Z</time></trkpt><trkpt lat="43.1165067" lon="12.2055917"><ele>247.0</ele><time>2026-03-29T12:19:28.322Z</time></trkpt><trkpt lat="43.1164117" lon="12.2056967"><ele>247.5</ele><time>2026-03-29T12:19:29.321Z</time></trkpt><trkpt lat="43.116315" lon="12.2058033"><ele>248.0</ele><time>2026-03-29T12:19:30.323Z</time></trkpt><trkpt lat="43.11622" lon="12.2059067"><ele>248.5</ele><time>2026-03-29T12:19:31.322Z</time></trkpt><trkpt lat="43.1161333" lon="12.206005"><ele>249.0</ele><time>2026-03-29T12:19:32.324Z</time></trkpt><trkpt lat="43.1160567" lon="12.2061067"><ele>249.0</ele><time>2026-03-29T12:19:33.322Z</time></trkpt><trkpt lat="43.1159967" lon="12.2062267"><ele>249.0</ele><time>2026-03-29T12:19:34.323Z</time></trkpt><trkpt lat="43.1159433" lon="12.2063567"><ele>249.0</ele><time>2026-03-29T12:19:35.322Z</time></trkpt><trkpt lat="43.11589" lon="12.2064983"><ele>249.0</ele><time>2026-03-29T12:19:36.323Z</time></trkpt><trkpt lat="43.1158317" lon="12.20664"><ele>249.75</ele><time>2026-03-29T12:19:37.322Z</time></trkpt><trkpt lat="43.1157733" lon="12.2067783"><ele>250.5</ele><time>2026-03-29T12:19:38.322Z</time></trkpt><trkpt lat="43.1157033" lon="12.20691"><ele>251.25</ele><time>2026-03-29T12:19:39.323Z</time></trkpt><trkpt lat="43.11562" lon="12.2070267"><ele>252.0</ele><time>2026-03-29T12:19:40.321Z</time></trkpt><trkpt lat="43.1155333" lon="12.2071283"><ele>252.8</ele><time>2026-03-29T12:19:41.321Z</time></trkpt><trkpt lat="43.1154433" lon="12.2072217"><ele>253.6</ele><time>2026-03-29T12:19:42.324Z</time></trkpt><trkpt lat="43.115365" lon="12.207325"><ele>254.40000000000003</ele><time>2026-03-29T12:19:43.325Z</time></trkpt><trkpt lat="43.115305" lon="12.207445"><ele>255.20000000000002</ele><time>2026-03-29T12:19:44.325Z</time></trkpt><trkpt lat="43.1152783" lon="12.2075783"><ele>256.0</ele><time>2026-03-29T12:19:45.32Z</time></trkpt><trkpt lat="43.115275" lon="12.207725"><ele>256.25</ele><time>2026-03-29T12:19:46.323Z</time></trkpt><trkpt lat="43.1152867" lon="12.2078817"><ele>256.5</ele><time>2026-03-29T12:19:47.325Z</time></trkpt><trkpt lat="43.115305" lon="12.2080433"><ele>256.75</ele><time>2026-03-29T12:19:48.323Z</time></trkpt><trkpt lat="43.1153233" lon="12.2082083"><ele>257.0</ele><time>2026-03-29T12:19:49.323Z</time></trkpt><trkpt lat="43.11534" lon="12.2083717"><ele>257.0</ele><time>2026-03-29T12:19:50.321Z</time></trkpt><trkpt lat="43.1153517" lon="12.208535"><ele>257.0</ele><time>2026-03-29T12:19:51.321Z</time></trkpt><trkpt lat="43.11536" lon="12.2086933"><ele>257.0</ele><time>2026-03-29T12:19:52.32Z</time></trkpt><trkpt lat="43.1153617" lon="12.2088583"><ele>257.0</ele><time>2026-03-29T12:19:53.32Z</time></trkpt><trkpt lat="43.1153717" lon="12.2090183"><ele>258.8</ele><time>2026-03-29T12:19:54.322Z</time></trkpt><trkpt lat="43.1153967" lon="12.2091717"><ele>260.6</ele><time>2026-03-29T12:19:55.324Z</time></trkpt><trkpt lat="43.1154383" lon="12.20932"><ele>262.40000000000003</ele><time>2026-03-29T12:19:56.324Z</time></trkpt><trkpt lat="43.115485" lon="12.2094567"><ele>264.2</ele><time>2026-03-29T12:19:57.322Z</time></trkpt><trkpt lat="43.1155317" lon="12.2095867"><ele>266.0</ele><time>2026-03-29T12:19:58.321Z</time></trkpt><trkpt lat="43.11557" lon="12.20971"><ele>266.2</ele><time>2026-03-29T12:19:59.321Z</time></trkpt><trkpt lat="43.1156033" lon="12.2098267"><ele>266.40000000000003</ele><time>2026-03-29T12:20:00.322Z</time></trkpt><trkpt lat="43.1156367" lon="12.209945"><ele>266.6</ele><time>2026-03-29T12:20:01.321Z</time></trkpt><trkpt lat="43.115675" lon="12.2100667"><ele>266.8</ele><time>2026-03-29T12:20:02.323Z</time></trkpt><trkpt lat="43.1157133" lon="12.2101983"><ele>267.0</ele><time>2026-03-29T12:20:03.322Z</time></trkpt><trkpt lat="43.115745" lon="12.21034"><ele>267.0</ele><time>2026-03-29T12:20:04.325Z</time></trkpt><trkpt lat="43.11577" lon="12.2104883"><ele>267.0</ele><time>2026-03-29T12:20:05.322Z</time></trkpt><trkpt lat="43.1157933" lon="12.2106367"><ele>267.0</ele><time>2026-03-29T12:20:06.322Z</time></trkpt><trkpt lat="43.1158183" lon="12.2107833"><ele>267.0</ele><time>2026-03-29T12:20:07.32Z</time></trkpt><trkpt lat="43.11585" lon="12.2109333"><ele>267.0</ele><time>2026-03-29T12:20:08.324Z</time></trkpt><trkpt lat="43.11588" lon="12.21108"><ele>267.4</ele><time>2026-03-29T12:20:09.322Z</time></trkpt><trkpt lat="43.115905" lon="12.2112267"><ele>267.79999999999995</ele><time>2026-03-29T12:20:10.321Z</time></trkpt><trkpt lat="43.1159283" lon="12.2113767"><ele>268.2</ele><time>2026-03-29T12:20:11.322Z</time></trkpt><trkpt lat="43.11595" lon="12.2115183"><ele>268.59999999999997</ele><time>2026-03-29T12:20:12.321Z</time></trkpt><trkpt lat="43.115965" lon="12.2116517"><ele>269.0</ele><time>2026-03-29T12:20:13.32Z</time></trkpt><trkpt lat="43.1159817" lon="12.2117817"><ele>269.8</ele><time>2026-03-29T12:20:14.325Z</time></trkpt><trkpt lat="43.1159917" lon="12.21192"><ele>270.59999999999997</ele><time>2026-03-29T12:20:15.322Z</time></trkpt><trkpt lat="43.1159883" lon="12.21207"><ele>271.4</ele><time>2026-03-29T12:20:16.321Z</time></trkpt><trkpt lat="43.1159733" lon="12.21223"><ele>272.2</ele><time>2026-03-29T12:20:17.319Z</time></trkpt><trkpt lat="43.1159533" lon="12.21239"><ele>273.0</ele><time>2026-03-29T12:20:18.32Z</time></trkpt><trkpt lat="43.115935" lon="12.21254"><ele>273.0</ele><time>2026-03-29T12:20:19.32Z</time></trkpt><trkpt lat="43.115915" lon="12.2126733"><ele>273.0</ele><time>2026-03-29T12:20:20.317Z</time></trkpt><trkpt lat="43.1159" lon="12.212785"><ele>273.0</ele><time>2026-03-29T12:20:21.322Z</time></trkpt><trkpt lat="43.1158983" lon="12.21289"><ele>273.0</ele><time>2026-03-29T12:20:22.321Z</time></trkpt><trkpt lat="43.115915" lon="12.2129983"><ele>273.0</ele><time>2026-03-29T12:20:23.321Z</time></trkpt><trkpt lat="43.1159583" lon="12.2131167"><ele>273.0</ele><time>2026-03-29T12:20:24.321Z</time></trkpt><trkpt lat="43.1160317" lon="12.213235"><ele>273.0</ele><time>2026-03-29T12:20:25.321Z</time></trkpt><trkpt lat="43.116105" lon="12.2133483"><ele>273.0</ele><time>2026-03-29T12:20:26.32Z</time></trkpt><trkpt lat="43.11617" lon="12.21345"><ele>273.0</ele><time>2026-03-29T12:20:27.328Z</time></trkpt><trkpt lat="43.116225" lon="12.2135383"><ele>273.0</ele><time>2026-03-29T12:20:28.321Z</time></trkpt><trkpt lat="43.1162617" lon="12.2136183"><ele>273.0</ele><time>2026-03-29T12:20:29.323Z</time></trkpt><trkpt lat="43.1162633" lon="12.2137317"><ele>273.0</ele><time>2026-03-29T12:20:31.324Z</time></trkpt><trkpt lat="43.1161867" lon="12.2138"><ele>273.0</ele><time>2026-03-29T12:20:33.323Z</time></trkpt><trkpt lat="43.116125" lon="12.2138267"><ele>273.0</ele><time>2026-03-29T12:20:34.322Z</time></trkpt><trkpt lat="43.1160517" lon="12.2138517"><ele>273.0</ele><time>2026-03-29T12:20:35.322Z</time></trkpt><trkpt lat="43.11596" lon="12.21387"><ele>273.0</ele><time>2026-03-29T12:20:36.323Z</time></trkpt><trkpt lat="43.115875" lon="12.2138833"><ele>273.0</ele><time>2026-03-29T12:20:37.324Z</time></trkpt><trkpt lat="43.115785" lon="12.2138967"><ele>273.0</ele><time>2026-03-29T12:20:38.323Z</time></trkpt><trkpt lat="43.11571" lon="12.2139117"><ele>274.4</ele><time>2026-03-29T12:20:39.324Z</time></trkpt><trkpt lat="43.11565" lon="12.21394"><ele>275.8</ele><time>2026-03-29T12:20:40.327Z</time></trkpt><trkpt lat="43.1155533" lon="12.2140417"><ele>277.2</ele><time>2026-03-29T12:20:42.323Z</time></trkpt><trkpt lat="43.1155033" lon="12.21419"><ele>278.6</ele><time>2026-03-29T12:20:44.323Z</time></trkpt><trkpt lat="43.1154983" lon="12.21437"><ele>280.0</ele><time>2026-03-29T12:20:46.325Z</time></trkpt><trkpt lat="43.1155033" lon="12.214475"><ele>280.66666666666663</ele><time>2026-03-29T12:20:47.322Z</time></trkpt><trkpt lat="43.1155217" lon="12.2145733"><ele>281.3333333333333</ele><time>2026-03-29T12:20:48.322Z</time></trkpt><trkpt lat="43.1155583" lon="12.2146617"><ele>282.0</ele><time>2026-03-29T12:20:49.321Z</time></trkpt><trkpt lat="43.1156183" lon="12.21474"><ele>282.6666666666667</ele><time>2026-03-29T12:20:50.32Z</time></trkpt><trkpt lat="43.1156833" lon="12.21481"><ele>283.33333333333337</ele><time>2026-03-29T12:20:51.325Z</time></trkpt><trkpt lat="43.1157617" lon="12.2148867"><ele>284.0</ele><time>2026-03-29T12:20:52.32Z</time></trkpt><trkpt lat="43.11586" lon="12.2149783"><ele>284.0</ele><time>2026-03-29T12:20:53.32Z</time></trkpt><trkpt lat="43.1159567" lon="12.2150683"><ele>284.0</ele><time>2026-03-29T12:20:54.322Z</time></trkpt><trkpt lat="43.1160467" lon="12.215145"><ele>284.0</ele><time>2026-03-29T12:20:55.322Z</time></trkpt><trkpt lat="43.1161217" lon="12.21521"><ele>284.0</ele><time>2026-03-29T12:20:56.322Z</time></trkpt><trkpt lat="43.11619" lon="12.21528"><ele>284.0</ele><time>2026-03-29T12:20:57.323Z</time></trkpt><trkpt lat="43.1162567" lon="12.21535"><ele>284.0</ele><time>2026-03-29T12:20:58.322Z</time></trkpt><trkpt lat="43.1163217" lon="12.2154267"><ele>284.0</ele><time>2026-03-29T12:20:59.322Z</time></trkpt><trkpt lat="43.116385" lon="12.2154967"><ele>284.0</ele><time>2026-03-29T12:21:00.322Z</time></trkpt><trkpt lat="43.1164367" lon="12.2155467"><ele>284.0</ele><time>2026-03-29T12:21:01.324Z</time></trkpt><trkpt lat="43.1164967" lon="12.2155967"><ele>284.0</ele><time>2026-03-29T12:21:03.322Z</time></trkpt><trkpt lat="43.1164417" lon="12.2156733"><ele>284.0</ele><time>2026-03-29T12:21:06.32Z</time></trkpt><trkpt lat="43.1163783" lon="12.2156817"><ele>284.0</ele><time>2026-03-29T12:21:07.321Z</time></trkpt><trkpt lat="43.1163067" lon="12.2156983"><ele>286.0</ele><time>2026-03-29T12:21:08.324Z</time></trkpt><trkpt lat="43.1162333" lon="12.2157183"><ele>288.0</ele><time>2026-03-29T12:21:09.325Z</time></trkpt><trkpt lat="43.1161567" lon="12.2157317"><ele>290.0</ele><time>2026-03-29T12:21:10.326Z</time></trkpt><trkpt lat="43.1160683" lon="12.2157433"><ele>292.0</ele><time>2026-03-29T12:21:11.323Z</time></trkpt><trkpt lat="43.1159717" lon="12.21577"><ele>294.0</ele><time>2026-03-29T12:21:12.324Z</time></trkpt><trkpt lat="43.1158833" lon="12.2157983"><ele>296.0</ele><time>2026-03-29T12:21:13.32Z</time></trkpt><trkpt lat="43.1157983" lon="12.215835"><ele>296.5</ele><time>2026-03-29T12:21:14.323Z</time></trkpt><trkpt lat="43.1157183" lon="12.21588"><ele>297.0</ele><time>2026-03-29T12:21:15.322Z</time></trkpt><trkpt lat="43.1156383" lon="12.215935"><ele>297.5</ele><time>2026-03-29T12:21:16.321Z</time></trkpt><trkpt lat="43.11556" lon="12.2159917"><ele>298.0</ele><time>2026-03-29T12:21:17.32Z</time></trkpt><trkpt lat="43.1154833" lon="12.216045"><ele>298.5</ele><time>2026-03-29T12:21:18.32Z</time></trkpt><trkpt lat="43.11541" lon="12.2160933"><ele>299.0</ele><time>2026-03-29T12:21:19.321Z</time></trkpt><trkpt lat="43.1153367" lon="12.2161367"><ele>299.0</ele><time>2026-03-29T12:21:20.323Z</time></trkpt><trkpt lat="43.11526" lon="12.2161817"><ele>299.0</ele><time>2026-03-29T12:21:21.321Z</time></trkpt><trkpt lat="43.115195" lon="12.2162433"><ele>299.0</ele><time>2026-03-29T12:21:22.319Z</time></trkpt><trkpt lat="43.11514" lon="12.2163183"><ele>299.0</ele><time>2026-03-29T12:21:23.325Z</time></trkpt><trkpt lat="43.11509" lon="12.2163983"><ele>299.0</ele><time>2026-03-29T12:21:24.324Z</time></trkpt><trkpt lat="43.1150417" lon="12.2164717"><ele>299.0</ele><time>2026-03-29T12:21:25.324Z</time></trkpt><trkpt lat="43.1149617" lon="12.2165783"><ele>301.4</ele><time>2026-03-29T12:21:27.323Z</time></trkpt><trkpt lat="43.114885" lon="12.2166783"><ele>303.79999999999995</ele><time>2026-03-29T12:21:29.321Z</time></trkpt><trkpt lat="43.1148133" lon="12.2167833"><ele>306.20000000000005</ele><time>2026-03-29T12:21:31.322Z</time></trkpt><trkpt lat="43.1148067" lon="12.2168783"><ele>308.6</ele><time>2026-03-29T12:21:33.322Z</time></trkpt><trkpt lat="43.1148867" lon="12.2169217"><ele>311.0</ele><time>2026-03-29T12:21:35.32Z</time></trkpt><trkpt lat="43.1149933" lon="12.2168683"><ele>311.0</ele><time>2026-03-29T12:21:37.318Z</time></trkpt><trkpt lat="43.115115" lon="12.21681"><ele>311.0</ele><time>2026-03-29T12:21:39.322Z</time></trkpt><trkpt lat="43.1151817" lon="12.21678"><ele>311.0</ele><time>2026-03-29T12:21:40.322Z</time></trkpt><trkpt lat="43.115265" lon="12.2167667"><ele>311.0</ele><time>2026-03-29T12:21:41.324Z</time></trkpt><trkpt lat="43.1153617" lon="12.216775"><ele>311.0</ele><time>2026-03-29T12:21:42.32Z</time></trkpt><trkpt lat="43.115455" lon="12.21679"><ele>311.0</ele><time>2026-03-29T12:21:43.32Z</time></trkpt><trkpt lat="43.1155367" lon="12.216805"><ele>311.0</ele><time>2026-03-29T12:21:44.322Z</time></trkpt><trkpt lat="43.1156017" lon="12.2168233"><ele>311.0</ele><time>2026-03-29T12:21:45.324Z</time></trkpt><trkpt lat="43.1156767" lon="12.2168833"><ele>311.0</ele><time>2026-03-29T12:21:47.321Z</time></trkpt><trkpt lat="43.1156217" lon="12.2169483"><ele>311.0</ele><time>2026-03-29T12:21:49.325Z</time></trkpt><trkpt lat="43.11553" lon="12.2169967"><ele>311.0</ele><time>2026-03-29T12:21:51.325Z</time></trkpt><trkpt lat="43.1154217" lon="12.2170767"><ele>311.0</ele><time>2026-03-29T12:21:53.321Z</time></trkpt><trkpt lat="43.1153433" lon="12.2171717"><ele>311.0</ele><time>2026-03-29T12:21:55.323Z</time></trkpt><trkpt lat="43.1152817" lon="12.217285"><ele>311.0</ele><time>2026-03-29T12:21:57.328Z</time></trkpt><trkpt lat="43.1152133" lon="12.2174033"><ele>311.0</ele><time>2026-03-29T12:21:59.321Z</time></trkpt><trkpt lat="43.1151633" lon="12.2174733"><ele>311.0</ele><time>2026-03-29T12:22:00.321Z</time></trkpt><trkpt lat="43.1151017" lon="12.2175433"><ele>313.83333333333337</ele><time>2026-03-29T12:22:01.324Z</time></trkpt><trkpt lat="43.1150333" lon="12.2176233"><ele>316.6666666666667</ele><time>2026-03-29T12:22:02.321Z</time></trkpt><trkpt lat="43.11496" lon="12.2177067"><ele>319.5</ele><time>2026-03-29T12:22:03.323Z</time></trkpt><trkpt lat="43.114885" lon="12.2177767"><ele>322.3333333333333</ele><time>2026-03-29T12:22:04.322Z</time></trkpt><trkpt lat="43.1148117" lon="12.2178333"><ele>325.16666666666663</ele><time>2026-03-29T12:22:05.322Z</time></trkpt><trkpt lat="43.114745" lon="12.2178883"><ele>328.0</ele><time>2026-03-29T12:22:06.323Z</time></trkpt><trkpt lat="43.1147167" lon="12.2179783"><ele>328.0</ele><time>2026-03-29T12:22:08.322Z</time></trkpt><trkpt lat="43.114825" lon="12.2180417"><ele>328.0</ele><time>2026-03-29T12:22:10.321Z</time></trkpt><trkpt lat="43.1148883" lon="12.2180717"><ele>328.0</ele><time>2026-03-29T12:22:11.323Z</time></trkpt><trkpt lat="43.1149867" lon="12.218145"><ele>328.0</ele><time>2026-03-29T12:22:13.323Z</time></trkpt><trkpt lat="43.11506" lon="12.2182667"><ele>328.0</ele><time>2026-03-29T12:22:15.321Z</time></trkpt><trkpt lat="43.1150933" lon="12.2183533"><ele>330.5</ele><time>2026-03-29T12:22:16.321Z</time></trkpt><trkpt lat="43.11512" lon="12.2184617"><ele>333.0</ele><time>2026-03-29T12:22:17.321Z</time></trkpt><trkpt lat="43.1151233" lon="12.218565"><ele>335.5</ele><time>2026-03-29T12:22:18.323Z</time></trkpt><trkpt lat="43.1151033" lon="12.2186667"><ele>338.0</ele><time>2026-03-29T12:22:19.322Z</time></trkpt><trkpt lat="43.1150533" lon="12.2187667"><ele>340.5</ele><time>2026-03-29T12:22:20.32Z</time></trkpt><trkpt lat="43.1149917" lon="12.2188633"><ele>343.0</ele><time>2026-03-29T12:22:21.326Z</time></trkpt><trkpt lat="43.114935" lon="12.2189633"><ele>347.0</ele><time>2026-03-29T12:22:22.324Z</time></trkpt><trkpt lat="43.11489" lon="12.2190817"><ele>351.0</ele><time>2026-03-29T12:22:23.321Z</time></trkpt><trkpt lat="43.114845" lon="12.2192033"><ele>355.0</ele><time>2026-03-29T12:22:24.32Z</time></trkpt><trkpt lat="43.1148083" lon="12.2193183"><ele>359.0</ele><time>2026-03-29T12:22:25.323Z</time></trkpt><trkpt lat="43.114775" lon="12.219425"><ele>363.0</ele><time>2026-03-29T12:22:26.324Z</time></trkpt><trkpt lat="43.1147283" lon="12.2195283"><ele>363.0</ele><time>2026-03-29T12:22:27.323Z</time></trkpt><trkpt lat="43.1146683" lon="12.21962"><ele>363.0</ele><time>2026-03-29T12:22:28.327Z</time></trkpt><trkpt lat="43.1145983" lon="12.2197083"><ele>363.0</ele><time>2026-03-29T12:22:29.321Z</time></trkpt><trkpt lat="43.1145283" lon="12.2197933"><ele>363.0</ele><time>2026-03-29T12:22:30.32Z</time></trkpt><trkpt lat="43.11447" lon="12.2198733"><ele>363.0</ele><time>2026-03-29T12:22:31.321Z</time></trkpt><trkpt lat="43.114415" lon="12.2199383"><ele>363.0</ele><time>2026-03-29T12:22:32.321Z</time></trkpt><trkpt lat="43.1143483" lon="12.2199817"><ele>364.5</ele><time>2026-03-29T12:22:33.321Z</time></trkpt><trkpt lat="43.1142767" lon="12.220005"><ele>366.0</ele><time>2026-03-29T12:22:34.324Z</time></trkpt><trkpt lat="43.1141983" lon="12.2200317"><ele>367.5</ele><time>2026-03-29T12:22:35.325Z</time></trkpt><trkpt lat="43.11412" lon="12.2200683"><ele>369.0</ele><time>2026-03-29T12:22:36.322Z</time></trkpt><trkpt lat="43.1140467" lon="12.2201017"><ele>370.5</ele><time>2026-03-29T12:22:37.325Z</time></trkpt><trkpt lat="43.1139683" lon="12.2201167"><ele>372.0</ele><time>2026-03-29T12:22:38.325Z</time></trkpt><trkpt lat="43.1138717" lon="12.2201217"><ele>373.6666666666667</ele><time>2026-03-29T12:22:39.323Z</time></trkpt><trkpt lat="43.113785" lon="12.2201333"><ele>375.3333333333333</ele><time>2026-03-29T12:22:40.324Z</time></trkpt><trkpt lat="43.113695" lon="12.220155"><ele>377.0</ele><time>2026-03-29T12:22:41.322Z</time></trkpt><trkpt lat="43.1136017" lon="12.220175"><ele>378.66666666666663</ele><time>2026-03-29T12:22:42.328Z</time></trkpt><trkpt lat="43.113515" lon="12.2201833"><ele>380.3333333333333</ele><time>2026-03-29T12:22:43.323Z</time></trkpt><trkpt lat="43.1134317" lon="12.2201967"><ele>382.0</ele><time>2026-03-29T12:22:44.322Z</time></trkpt><trkpt lat="43.11337" lon="12.2202183"><ele>382.0</ele><time>2026-03-29T12:22:45.323Z</time></trkpt><trkpt lat="43.1133367" lon="12.22031"><ele>382.0</ele><time>2026-03-29T12:22:47.321Z</time></trkpt><trkpt lat="43.1133667" lon="12.220395"><ele>382.0</ele><time>2026-03-29T12:22:48.322Z</time></trkpt><trkpt lat="43.1133933" lon="12.220475"><ele>382.0</ele><time>2026-03-29T12:22:49.321Z</time></trkpt><trkpt lat="43.1134267" lon="12.2206333"><ele>382.0</ele><time>2026-03-29T12:22:51.32Z</time></trkpt><trkpt lat="43.113415" lon="12.220805"><ele>385.40000000000003</ele><time>2026-03-29T12:22:53.321Z</time></trkpt><trkpt lat="43.1134583" lon="12.220885"><ele>388.8</ele><time>2026-03-29T12:22:54.323Z</time></trkpt><trkpt lat="43.1135417" lon="12.2209517"><ele>392.2</ele><time>2026-03-29T12:22:55.323Z</time></trkpt><trkpt lat="43.11363" lon="12.2210083"><ele>395.6</ele><time>2026-03-29T12:22:56.32Z</time></trkpt><trkpt lat="43.1137217" lon="12.2210767"><ele>399.0</ele><time>2026-03-29T12:22:57.322Z</time></trkpt><trkpt lat="43.1137883" lon="12.2211583"><ele>399.0</ele><time>2026-03-29T12:22:58.321Z</time></trkpt><trkpt lat="43.1138533" lon="12.2212467"><ele>399.0</ele><time>2026-03-29T12:22:59.323Z</time></trkpt><trkpt lat="43.1139133" lon="12.2213283"><ele>399.0</ele><time>2026-03-29T12:23:00.322Z</time></trkpt><trkpt lat="43.1139683" lon="12.2213983"><ele>399.0</ele><time>2026-03-29T12:23:01.321Z</time></trkpt><trkpt lat="43.11403" lon="12.2214633"><ele>399.0</ele><time>2026-03-29T12:23:02.324Z</time></trkpt><trkpt lat="43.1141117" lon="12.2215483"><ele>399.0</ele><time>2026-03-29T12:23:03.321Z</time></trkpt><trkpt lat="43.11419" lon="12.2216233"><ele>399.0</ele><time>2026-03-29T12:23:04.321Z</time></trkpt><trkpt lat="43.1142683" lon="12.2217067"><ele>399.0</ele><time>2026-03-29T12:23:05.32Z</time></trkpt><trkpt lat="43.1143467" lon="12.221825"><ele>399.0</ele><time>2026-03-29T12:23:06.323Z</time></trkpt><trkpt lat="43.1144167" lon="12.221945"><ele>399.0</ele><time>2026-03-29T12:23:07.326Z</time></trkpt><trkpt lat="43.1144783" lon="12.2220517"><ele>399.0</ele><time>2026-03-29T12:23:08.323Z</time></trkpt><trkpt lat="43.114535" lon="12.2221517"><ele>399.0</ele><time>2026-03-29T12:23:09.323Z</time></trkpt><trkpt lat="43.1145733" lon="12.222245"><ele>399.0</ele><time>2026-03-29T12:23:10.322Z</time></trkpt><trkpt lat="43.1146" lon="12.2223567"><ele>399.0</ele><time>2026-03-29T12:23:11.321Z</time></trkpt><trkpt lat="43.1146117" lon="12.2225"><ele>399.0</ele><time>2026-03-29T12:23:12.32Z</time></trkpt><trkpt lat="43.11461" lon="12.22262"><ele>399.0</ele><time>2026-03-29T12:23:13.321Z</time></trkpt><trkpt lat="43.1146033" lon="12.2227217"><ele>399.0</ele><time>2026-03-29T12:23:14.321Z</time></trkpt><trkpt lat="43.1145983" lon="12.222815"><ele>401.4</ele><time>2026-03-29T12:23:15.322Z</time></trkpt><trkpt lat="43.1146067" lon="12.2229467"><ele>403.79999999999995</ele><time>2026-03-29T12:23:17.319Z</time></trkpt><trkpt lat="43.11471" lon="12.2229617"><ele>406.20000000000005</ele><time>2026-03-29T12:23:19.324Z</time></trkpt><trkpt lat="43.11479" lon="12.2229383"><ele>408.6</ele><time>2026-03-29T12:23:20.319Z</time></trkpt><trkpt lat="43.1148933" lon="12.2229117"><ele>411.0</ele><time>2026-03-29T12:23:21.321Z</time></trkpt><trkpt lat="43.1150467" lon="12.222865"><ele>403.0</ele><time>2026-03-29T12:23:22.32Z</time></trkpt><trkpt lat="43.11521" lon="12.222845"><ele>395.0</ele><time>2026-03-29T12:23:23.32Z</time></trkpt><trkpt lat="43.115375" lon="12.2228167"><ele>387.0</ele><time>2026-03-29T12:23:24.323Z</time></trkpt><trkpt lat="43.1155267" lon="12.2227833"><ele>387.0</ele><time>2026-03-29T12:23:25.321Z</time></trkpt><trkpt lat="43.1156717" lon="12.222755"><ele>387.0</ele><time>2026-03-29T12:23:26.321Z</time></trkpt><trkpt lat="43.1158117" lon="12.2227417"><ele>387.0</ele><time>2026-03-29T12:23:27.321Z</time></trkpt><trkpt lat="43.1159283" lon="12.2227367"><ele>387.0</ele><time>2026-03-29T12:23:28.326Z</time></trkpt><trkpt lat="43.1160417" lon="12.2227483"><ele>383.5</ele><time>2026-03-29T12:23:29.323Z</time></trkpt><trkpt lat="43.1161567" lon="12.22278"><ele>380.0</ele><time>2026-03-29T12:23:30.322Z</time></trkpt><trkpt lat="43.11628" lon="12.2228133"><ele>376.5</ele><time>2026-03-29T12:23:31.32Z</time></trkpt><trkpt lat="43.1164067" lon="12.2228383"><ele>373.0</ele><time>2026-03-29T12:23:32.323Z</time></trkpt><trkpt lat="43.1165317" lon="12.222855"><ele>371.79999999999995</ele><time>2026-03-29T12:23:33.324Z</time></trkpt><trkpt lat="43.1166483" lon="12.222865"><ele>370.6</ele><time>2026-03-29T12:23:34.32Z</time></trkpt><trkpt lat="43.11676" lon="12.2228683"><ele>369.4</ele><time>2026-03-29T12:23:35.323Z</time></trkpt><trkpt lat="43.116865" lon="12.2228717"><ele>368.20000000000005</ele><time>2026-03-29T12:23:36.322Z</time></trkpt><trkpt lat="43.1169583" lon="12.2228783"><ele>367.0</ele><time>2026-03-29T12:23:37.321Z</time></trkpt><trkpt lat="43.11704" lon="12.2228833"><ele>367.0</ele><time>2026-03-29T12:23:38.323Z</time></trkpt><trkpt lat="43.1171117" lon="12.222885"><ele>367.0</ele><time>2026-03-29T12:23:39.321Z</time></trkpt><trkpt lat="43.117215" lon="12.2228933"><ele>367.0</ele><time>2026-03-29T12:23:41.32Z</time></trkpt><trkpt lat="43.11729" lon="12.2229017"><ele>367.0</ele><time>2026-03-29T12:23:44.324Z</time></trkpt><trkpt lat="43.1172383" lon="12.2230033"><ele>367.0</ele><time>2026-03-29T12:24:00.322Z</time></trkpt><trkpt lat="43.1171333" lon="12.2230517"><ele>371.40000000000003</ele><time>2026-03-29T12:24:02.322Z</time></trkpt><trkpt lat="43.1170417" lon="12.2231483"><ele>375.8</ele><time>2026-03-29T12:24:04.321Z</time></trkpt><trkpt lat="43.116995" lon="12.22323"><ele>380.2</ele><time>2026-03-29T12:24:05.322Z</time></trkpt><trkpt lat="43.11695" lon="12.2233133"><ele>384.6</ele><time>2026-03-29T12:24:06.32Z</time></trkpt><trkpt lat="43.1169117" lon="12.2233867"><ele>389.0</ele><time>2026-03-29T12:24:07.321Z</time></trkpt><trkpt lat="43.11681" lon="12.2234817"><ele>388.99999999999994</ele><time>2026-03-29T12:24:09.32Z</time></trkpt><trkpt lat="43.1167467" lon="12.2235167"><ele>389.0</ele><time>2026-03-29T12:24:10.325Z</time></trkpt><trkpt lat="43.11666" lon="12.22355"><ele>389.0</ele><time>2026-03-29T12:24:11.323Z</time></trkpt><trkpt lat="43.1165717" lon="12.22359"><ele>389.0</ele><time>2026-03-29T12:24:12.323Z</time></trkpt><trkpt lat="43.1164767" lon="12.22363"><ele>388.99999999999994</ele><time>2026-03-29T12:24:13.322Z</time></trkpt><trkpt lat="43.1163883" lon="12.2236767"><ele>389.0</ele><time>2026-03-29T12:24:14.322Z</time></trkpt><trkpt lat="43.116305" lon="12.2237317"><ele>389.66666666666663</ele><time>2026-03-29T12:24:15.323Z</time></trkpt><trkpt lat="43.1162233" lon="12.2237683"><ele>390.3333333333333</ele><time>2026-03-29T12:24:16.319Z</time></trkpt><trkpt lat="43.1161467" lon="12.22379"><ele>391.0</ele><time>2026-03-29T12:24:17.323Z</time></trkpt><trkpt lat="43.116065" lon="12.22382"><ele>391.66666666666663</ele><time>2026-03-29T12:24:18.322Z</time></trkpt><trkpt lat="43.1160033" lon="12.2238583"><ele>392.3333333333333</ele><time>2026-03-29T12:24:19.326Z</time></trkpt><trkpt lat="43.1159383" lon="12.2239883"><ele>393.0</ele><time>2026-03-29T12:24:21.323Z</time></trkpt><trkpt lat="43.1160133" lon="12.22409"><ele>395.8333333333333</ele><time>2026-03-29T12:24:23.32Z</time></trkpt><trkpt lat="43.116055" lon="12.2241583"><ele>398.66666666666663</ele><time>2026-03-29T12:24:24.32Z</time></trkpt><trkpt lat="43.1160967" lon="12.2242417"><ele>401.5</ele><time>2026-03-29T12:24:25.321Z</time></trkpt><trkpt lat="43.116135" lon="12.2243217"><ele>404.3333333333333</ele><time>2026-03-29T12:24:26.324Z</time></trkpt><trkpt lat="43.116135" lon="12.224425"><ele>407.16666666666663</ele><time>2026-03-29T12:24:28.325Z</time></trkpt><trkpt lat="43.116025" lon="12.2244817"><ele>410.0</ele><time>2026-03-29T12:24:30.321Z</time></trkpt><trkpt lat="43.115945" lon="12.2244917"><ele>410.0</ele><time>2026-03-29T12:24:31.321Z</time></trkpt><trkpt lat="43.11586" lon="12.224505"><ele>410.0</ele><time>2026-03-29T12:24:32.322Z</time></trkpt><trkpt lat="43.1157617" lon="12.2245333"><ele>410.0</ele><time>2026-03-29T12:24:33.32Z</time></trkpt><trkpt lat="43.1156567" lon="12.2245567"><ele>410.0</ele><time>2026-03-29T12:24:34.321Z</time></trkpt><trkpt lat="43.1155617" lon="12.22457"><ele>410.0</ele><time>2026-03-29T12:24:35.322Z</time></trkpt><trkpt lat="43.11548" lon="12.2245817"><ele>411.49999999999994</ele><time>2026-03-29T12:24:36.32Z</time></trkpt><trkpt lat="43.11541" lon="12.22459"><ele>413.0</ele><time>2026-03-29T12:24:37.322Z</time></trkpt><trkpt lat="43.11531" lon="12.224565"><ele>414.5</ele><time>2026-03-29T12:24:39.324Z</time></trkpt><trkpt lat="43.1152317" lon="12.2245283"><ele>416.0</ele><time>2026-03-29T12:24:41.319Z</time></trkpt><trkpt lat="43.1151583" lon="12.2245417"><ele>417.49999999999994</ele><time>2026-03-29T12:24:43.322Z</time></trkpt><trkpt lat="43.1151217" lon="12.2246167"><ele>419.0</ele><time>2026-03-29T12:24:45.323Z</time></trkpt><trkpt lat="43.1150833" lon="12.2247117"><ele>419.0</ele><time>2026-03-29T12:24:47.323Z</time></trkpt><trkpt lat="43.1150033" lon="12.2248017"><ele>419.0</ele><time>2026-03-29T12:24:49.323Z</time></trkpt><trkpt lat="43.1149067" lon="12.2248917"><ele>419.0</ele><time>2026-03-29T12:24:51.325Z</time></trkpt><trkpt lat="43.1148083" lon="12.2249717"><ele>419.0</ele><time>2026-03-29T12:24:53.325Z</time></trkpt><trkpt lat="43.1147417" lon="12.225055"><ele>419.0</ele><time>2026-03-29T12:24:55.323Z</time></trkpt><trkpt lat="43.11466" lon="12.2251167"><ele>422.79999999999995</ele><time>2026-03-29T12:24:57.321Z</time></trkpt><trkpt lat="43.114565" lon="12.2251383"><ele>426.59999999999997</ele><time>2026-03-29T12:24:59.321Z</time></trkpt><trkpt lat="43.1144717" lon="12.2251333"><ele>430.4</ele><time>2026-03-29T12:25:01.324Z</time></trkpt><trkpt lat="43.11438" lon="12.2251033"><ele>434.2</ele><time>2026-03-29T12:25:03.319Z</time></trkpt><trkpt lat="43.1142633" lon="12.22505"><ele>438.0</ele><time>2026-03-29T12:25:05.324Z</time></trkpt><trkpt lat="43.1141983" lon="12.2250117"><ele>438.0</ele><time>2026-03-29T12:25:06.321Z</time></trkpt><trkpt lat="43.1141317" lon="12.224965"><ele>438.0</ele><time>2026-03-29T12:25:07.322Z</time></trkpt><trkpt lat="43.1140683" lon="12.224925"><ele>438.0</ele><time>2026-03-29T12:25:08.322Z</time></trkpt><trkpt lat="43.113975" lon="12.224835"><ele>438.0</ele><time>2026-03-29T12:25:10.324Z</time></trkpt><trkpt lat="43.11393" lon="12.2247517"><ele>438.0</ele><time>2026-03-29T12:25:12.325Z</time></trkpt><trkpt lat="43.1138583" lon="12.22472"><ele>438.0</ele><time>2026-03-29T12:25:14.324Z</time></trkpt><trkpt lat="43.113745" lon="12.2246883"><ele>440.0</ele><time>2026-03-29T12:25:16.322Z</time></trkpt><trkpt lat="43.11368" lon="12.2246583"><ele>441.99999999999994</ele><time>2026-03-29T12:25:17.321Z</time></trkpt><trkpt lat="43.1135633" lon="12.2245983"><ele>443.99999999999994</ele><time>2026-03-29T12:25:19.32Z</time></trkpt><trkpt lat="43.113455" lon="12.2245133"><ele>446.0</ele><time>2026-03-29T12:25:21.322Z</time></trkpt><trkpt lat="43.1133383" lon="12.2244683"><ele>448.0</ele><time>2026-03-29T12:25:23.322Z</time></trkpt><trkpt lat="43.11325" lon="12.22442"><ele>449.79999999999995</ele><time>2026-03-29T12:25:25.325Z</time></trkpt><trkpt lat="43.1132233" lon="12.224315"><ele>451.59999999999997</ele><time>2026-03-29T12:25:28.321Z</time></trkpt><trkpt lat="43.1131833" lon="12.2242"><ele>453.40000000000003</ele><time>2026-03-29T12:25:30.322Z</time></trkpt><trkpt lat="43.1131317" lon="12.224075"><ele>455.20000000000005</ele><time>2026-03-29T12:25:32.321Z</time></trkpt><trkpt lat="43.1130817" lon="12.22398"><ele>457.0</ele><time>2026-03-29T12:25:34.323Z</time></trkpt><trkpt lat="43.1130367" lon="12.2238633"><ele>457.0</ele><time>2026-03-29T12:25:36.33Z</time></trkpt><trkpt lat="43.1129983" lon="12.22371"><ele>457.00000000000006</ele><time>2026-03-29T12:25:38.322Z</time></trkpt><trkpt lat="43.112965" lon="12.2236033"><ele>457.00000000000006</ele><time>2026-03-29T12:25:39.32Z</time></trkpt><trkpt lat="43.1129333" lon="12.2235067"><ele>457.0</ele><time>2026-03-29T12:25:40.322Z</time></trkpt><trkpt lat="43.1129033" lon="12.2234283"><ele>457.0</ele><time>2026-03-29T12:25:41.323Z</time></trkpt><trkpt lat="43.11284" lon="12.2233017"><ele>457.00000000000006</ele><time>2026-03-29T12:25:43.323Z</time></trkpt><trkpt lat="43.11278" lon="12.2232083"><ele>457.0</ele><time>2026-03-29T12:25:45.327Z</time></trkpt><trkpt lat="43.1126917" lon="12.22319"><ele>457.0</ele><time>2026-03-29T12:25:48.322Z</time></trkpt><trkpt lat="43.1126217" lon="12.2233117"><ele>457.0</ele><time>2026-03-29T12:25:50.321Z</time></trkpt><trkpt lat="43.1125833" lon="12.2233833"><ele>457.00000000000006</ele><time>2026-03-29T12:25:51.321Z</time></trkpt><trkpt lat="43.1125383" lon="12.2234517"><ele>457.0</ele><time>2026-03-29T12:25:52.321Z</time></trkpt><trkpt lat="43.1124883" lon="12.223505"><ele>457.0</ele><time>2026-03-29T12:25:53.32Z</time></trkpt><trkpt lat="43.112415" lon="12.2236217"><ele>457.00000000000006</ele><time>2026-03-29T12:25:55.32Z</time></trkpt><trkpt lat="43.112355" lon="12.223765"><ele>457.00000000000006</ele><time>2026-03-29T12:25:57.321Z</time></trkpt><trkpt lat="43.1122683" lon="12.2238633"><ele>457.0</ele><time>2026-03-29T12:25:59.321Z</time></trkpt><trkpt lat="43.1121817" lon="12.2239217"><ele>457.0</ele><time>2026-03-29T12:26:01.323Z</time></trkpt><trkpt lat="43.11212" lon="12.22399"><ele>461.1666666666667</ele><time>2026-03-29T12:26:03.327Z</time></trkpt><trkpt lat="43.1120583" lon="12.2240183"><ele>465.33333333333337</ele><time>2026-03-29T12:26:05.32Z</time></trkpt><trkpt lat="43.11199" lon="12.2240733"><ele>469.5</ele><time>2026-03-29T12:26:07.324Z</time></trkpt><trkpt lat="43.1118833" lon="12.22413"><ele>473.66666666666663</ele><time>2026-03-29T12:26:09.322Z</time></trkpt><trkpt lat="43.1118217" lon="12.2241617"><ele>477.8333333333333</ele><time>2026-03-29T12:26:10.321Z</time></trkpt><trkpt lat="43.1117633" lon="12.224205"><ele>482.0</ele><time>2026-03-29T12:26:11.323Z</time></trkpt><trkpt lat="43.11171" lon="12.2242617"><ele>481.99999999999994</ele><time>2026-03-29T12:26:12.322Z</time></trkpt><trkpt lat="43.1116583" lon="12.2243183"><ele>482.0</ele><time>2026-03-29T12:26:13.325Z</time></trkpt><trkpt lat="43.1116" lon="12.2243717"><ele>482.0</ele><time>2026-03-29T12:26:14.323Z</time></trkpt><trkpt lat="43.11153" lon="12.2244233"><ele>482.0</ele><time>2026-03-29T12:26:15.325Z</time></trkpt><trkpt lat="43.11147" lon="12.2244683"><ele>481.99999999999994</ele><time>2026-03-29T12:26:16.324Z</time></trkpt><trkpt lat="43.1114117" lon="12.2245083"><ele>482.0</ele><time>2026-03-29T12:26:17.322Z</time></trkpt><trkpt lat="43.1113133" lon="12.2245733"><ele>483.20000000000005</ele><time>2026-03-29T12:26:19.321Z</time></trkpt><trkpt lat="43.1112" lon="12.2246433"><ele>484.40000000000003</ele><time>2026-03-29T12:26:21.325Z</time></trkpt><trkpt lat="43.1111383" lon="12.2246767"><ele>485.59999999999997</ele><time>2026-03-29T12:26:22.321Z</time></trkpt><trkpt lat="43.1110267" lon="12.2246733"><ele>486.79999999999995</ele><time>2026-03-29T12:26:24.322Z</time></trkpt><trkpt lat="43.1109217" lon="12.2245967"><ele>488.0</ele><time>2026-03-29T12:26:26.32Z</time></trkpt><trkpt lat="43.1108467" lon="12.2244583"><ele>487.99999999999994</ele><time>2026-03-29T12:26:28.321Z</time></trkpt><trkpt lat="43.110815" lon="12.22438"><ele>488.0</ele><time>2026-03-29T12:26:29.323Z</time></trkpt><trkpt lat="43.11078" lon="12.224295"><ele>488.0</ele><time>2026-03-29T12:26:30.326Z</time></trkpt><trkpt lat="43.1107467" lon="12.224195"><ele>488.0</ele><time>2026-03-29T12:26:31.319Z</time></trkpt><trkpt lat="43.110715" lon="12.2240983"><ele>487.99999999999994</ele><time>2026-03-29T12:26:32.321Z</time></trkpt><trkpt lat="43.1106917" lon="12.224015"><ele>488.0</ele><time>2026-03-29T12:26:33.323Z</time></trkpt><trkpt lat="43.110665" lon="12.2238733"><ele>486.4</ele><time>2026-03-29T12:26:35.322Z</time></trkpt><trkpt lat="43.1106117" lon="12.22375"><ele>484.79999999999995</ele><time>2026-03-29T12:26:37.324Z</time></trkpt><trkpt lat="43.1104983" lon="12.2236483"><ele>483.2</ele><time>2026-03-29T12:26:39.322Z</time></trkpt><trkpt lat="43.1104333" lon="12.2235717"><ele>481.6</ele><time>2026-03-29T12:26:40.32Z</time></trkpt><trkpt lat="43.11036" lon="12.2234917"><ele>480.0</ele><time>2026-03-29T12:26:41.323Z</time></trkpt><trkpt lat="43.1102933" lon="12.2234033"><ele>480.0</ele><time>2026-03-29T12:26:42.322Z</time></trkpt><trkpt lat="43.110235" lon="12.22332"><ele>480.0</ele><time>2026-03-29T12:26:43.322Z</time></trkpt><trkpt lat="43.1101767" lon="12.2232433"><ele>480.0</ele><time>2026-03-29T12:26:44.323Z</time></trkpt><trkpt lat="43.1101217" lon="12.22316"><ele>480.0</ele><time>2026-03-29T12:26:45.324Z</time></trkpt><trkpt lat="43.1100817" lon="12.2230667"><ele>480.0</ele><time>2026-03-29T12:26:46.322Z</time></trkpt><trkpt lat="43.11005" lon="12.2229717"><ele>480.0</ele><time>2026-03-29T12:26:47.323Z</time></trkpt><trkpt lat="43.110025" lon="12.2228683"><ele>479.1666666666667</ele><time>2026-03-29T12:26:48.322Z</time></trkpt><trkpt lat="43.1099967" lon="12.22277"><ele>478.33333333333337</ele><time>2026-03-29T12:26:49.323Z</time></trkpt><trkpt lat="43.109975" lon="12.2226683"><ele>477.5</ele><time>2026-03-29T12:26:50.323Z</time></trkpt><trkpt lat="43.10994" lon="12.2225633"><ele>476.6666666666667</ele><time>2026-03-29T12:26:51.325Z</time></trkpt><trkpt lat="43.1098933" lon="12.2224533"><ele>475.83333333333337</ele><time>2026-03-29T12:26:52.323Z</time></trkpt><trkpt lat="43.10984" lon="12.222355"><ele>475.0</ele><time>2026-03-29T12:26:53.32Z</time></trkpt><trkpt lat="43.1097917" lon="12.2222567"><ele>473.5714285714286</ele><time>2026-03-29T12:26:54.319Z</time></trkpt><trkpt lat="43.1097317" lon="12.2221717"><ele>472.1428571428572</ele><time>2026-03-29T12:26:55.32Z</time></trkpt><trkpt lat="43.10968" lon="12.2220967"><ele>470.7142857142857</ele><time>2026-03-29T12:26:56.319Z</time></trkpt><trkpt lat="43.1096383" lon="12.22202"><ele>469.28571428571433</ele><time>2026-03-29T12:26:57.322Z</time></trkpt><trkpt lat="43.1096083" lon="12.22194"><ele>467.8571428571429</ele><time>2026-03-29T12:26:58.321Z</time></trkpt><trkpt lat="43.1095817" lon="12.2218567"><ele>466.42857142857144</ele><time>2026-03-29T12:26:59.32Z</time></trkpt><trkpt lat="43.10956" lon="12.2217717"><ele>465.0</ele><time>2026-03-29T12:27:00.32Z</time></trkpt><trkpt lat="43.1095367" lon="12.2216133"><ele>465.0</ele><time>2026-03-29T12:27:02.321Z</time></trkpt><trkpt lat="43.1094817" lon="12.22151"><ele>465.0</ele><time>2026-03-29T12:27:04.321Z</time></trkpt><trkpt lat="43.109445" lon="12.22139"><ele>465.0</ele><time>2026-03-29T12:27:06.321Z</time></trkpt><trkpt lat="43.1094217" lon="12.2212667"><ele>465.0</ele><time>2026-03-29T12:27:08.322Z</time></trkpt><trkpt lat="43.1093617" lon="12.2211917"><ele>465.0</ele><time>2026-03-29T12:27:10.322Z</time></trkpt><trkpt lat="43.1092883" lon="12.221135"><ele>465.0</ele><time>2026-03-29T12:27:12.323Z</time></trkpt><trkpt lat="43.1092083" lon="12.2210133"><ele>463.8333333333333</ele><time>2026-03-29T12:27:14.321Z</time></trkpt><trkpt lat="43.1091717" lon="12.220935"><ele>462.66666666666663</ele><time>2026-03-29T12:27:15.322Z</time></trkpt><trkpt lat="43.10913" lon="12.22086"><ele>461.5</ele><time>2026-03-29T12:27:16.32Z</time></trkpt><trkpt lat="43.1090767" lon="12.2207983"><ele>460.3333333333333</ele><time>2026-03-29T12:27:17.32Z</time></trkpt><trkpt lat="43.1090083" lon="12.2207517"><ele>459.16666666666663</ele><time>2026-03-29T12:27:18.321Z</time></trkpt><trkpt lat="43.1089283" lon="12.2207033"><ele>458.0</ele><time>2026-03-29T12:27:19.324Z</time></trkpt><trkpt lat="43.108845" lon="12.2206517"><ele>457.3333333333333</ele><time>2026-03-29T12:27:20.321Z</time></trkpt><trkpt lat="43.108765" lon="12.2205933"><ele>456.66666666666663</ele><time>2026-03-29T12:27:21.325Z</time></trkpt><trkpt lat="43.108695" lon="12.2205217"><ele>456.0</ele><time>2026-03-29T12:27:22.325Z</time></trkpt><trkpt lat="43.1086317" lon="12.2204433"><ele>455.33333333333337</ele><time>2026-03-29T12:27:23.325Z</time></trkpt><trkpt lat="43.1085767" lon="12.22036"><ele>454.6666666666667</ele><time>2026-03-29T12:27:24.32Z</time></trkpt><trkpt lat="43.1085333" lon="12.22028"><ele>454.0</ele><time>2026-03-29T12:27:25.323Z</time></trkpt><trkpt lat="43.1084567" lon="12.2201533"><ele>454.0</ele><time>2026-03-29T12:27:27.324Z</time></trkpt><trkpt lat="43.108415" lon="12.2200867"><ele>454.00000000000006</ele><time>2026-03-29T12:27:28.323Z</time></trkpt><trkpt lat="43.1083717" lon="12.2200033"><ele>454.0</ele><time>2026-03-29T12:27:29.324Z</time></trkpt><trkpt lat="43.10833" lon="12.2199167"><ele>454.0</ele><time>2026-03-29T12:27:30.322Z</time></trkpt><trkpt lat="43.1082733" lon="12.2198467"><ele>454.00000000000006</ele><time>2026-03-29T12:27:31.322Z</time></trkpt><trkpt lat="43.108205" lon="12.2197967"><ele>454.0</ele><time>2026-03-29T12:27:32.321Z</time></trkpt><trkpt lat="43.108145" lon="12.219755"><ele>454.0</ele><time>2026-03-29T12:27:33.322Z</time></trkpt><trkpt lat="43.10806" lon="12.219685"><ele>456.00000000000006</ele><time>2026-03-29T12:27:35.32Z</time></trkpt><trkpt lat="43.1079933" lon="12.219675"><ele>458.0</ele><time>2026-03-29T12:27:39.322Z</time></trkpt><trkpt lat="43.1079033" lon="12.219695"><ele>460.0</ele><time>2026-03-29T12:27:45.323Z</time></trkpt><trkpt lat="43.1078283" lon="12.219655"><ele>462.0</ele><time>2026-03-29T12:27:47.321Z</time></trkpt><trkpt lat="43.1077517" lon="12.2196183"><ele>464.00000000000006</ele><time>2026-03-29T12:27:49.324Z</time></trkpt><trkpt lat="43.1076533" lon="12.2196367"><ele>466.0</ele><time>2026-03-29T12:27:51.322Z</time></trkpt><trkpt lat="43.10756" lon="12.2196167"><ele>466.00000000000006</ele><time>2026-03-29T12:27:53.324Z</time></trkpt><trkpt lat="43.107475" lon="12.2195883"><ele>466.0</ele><time>2026-03-29T12:27:55.324Z</time></trkpt><trkpt lat="43.1074933" lon="12.2196767"><ele>466.0</ele><time>2026-03-29T12:27:58.322Z</time></trkpt><trkpt lat="43.107575" lon="12.2197167"><ele>466.0</ele><time>2026-03-29T12:28:01.322Z</time></trkpt><trkpt lat="43.10765" lon="12.219795"><ele>466.00000000000006</ele><time>2026-03-29T12:28:04.321Z</time></trkpt><trkpt lat="43.1076983" lon="12.21986"><ele>466.0</ele><time>2026-03-29T12:28:06.322Z</time></trkpt><trkpt lat="43.107745" lon="12.2199433"><ele>462.50000000000006</ele><time>2026-03-29T12:28:08.32Z</time></trkpt><trkpt lat="43.1077883" lon="12.2200117"><ele>459.0</ele><time>2026-03-29T12:28:10.321Z</time></trkpt><trkpt lat="43.107825" lon="12.2200867"><ele>455.5</ele><time>2026-03-29T12:28:12.323Z</time></trkpt><trkpt lat="43.1078567" lon="12.22018"><ele>452.0</ele><time>2026-03-29T12:28:14.32Z</time></trkpt><trkpt lat="43.107885" lon="12.2202733"><ele>448.50000000000006</ele><time>2026-03-29T12:28:16.323Z</time></trkpt><trkpt lat="43.10791" lon="12.2204033"><ele>445.0</ele><time>2026-03-29T12:28:19.32Z</time></trkpt><trkpt lat="43.1079383" lon="12.220505"><ele>445.00000000000006</ele><time>2026-03-29T12:28:21.324Z</time></trkpt><trkpt lat="43.1079783" lon="12.2206"><ele>445.0</ele><time>2026-03-29T12:28:23.321Z</time></trkpt><trkpt lat="43.1080183" lon="12.2207"><ele>445.0</ele><time>2026-03-29T12:28:25.323Z</time></trkpt><trkpt lat="43.1080767" lon="12.220815"><ele>445.0</ele><time>2026-03-29T12:28:27.322Z</time></trkpt><trkpt lat="43.1081333" lon="12.2209133"><ele>445.00000000000006</ele><time>2026-03-29T12:28:29.322Z</time></trkpt><trkpt lat="43.1081883" lon="12.2209817"><ele>445.0</ele><time>2026-03-29T12:28:31.323Z</time></trkpt><trkpt lat="43.1082283" lon="12.2210783"><ele>445.1666666666667</ele><time>2026-03-29T12:28:33.323Z</time></trkpt><trkpt lat="43.108265" lon="12.2212017"><ele>445.33333333333337</ele><time>2026-03-29T12:28:35.319Z</time></trkpt><trkpt lat="43.1082767" lon="12.2212867"><ele>445.5</ele><time>2026-03-29T12:28:36.323Z</time></trkpt><trkpt lat="43.1082867" lon="12.2213817"><ele>445.66666666666663</ele><time>2026-03-29T12:28:37.321Z</time></trkpt><trkpt lat="43.10829" lon="12.22147"><ele>445.8333333333333</ele><time>2026-03-29T12:28:38.322Z</time></trkpt><trkpt lat="43.1082883" lon="12.22165"><ele>446.0</ele><time>2026-03-29T12:28:40.32Z</time></trkpt><trkpt lat="43.108275" lon="12.22174"><ele>444.20000000000005</ele><time>2026-03-29T12:28:41.324Z</time></trkpt><trkpt lat="43.108265" lon="12.2218283"><ele>442.40000000000003</ele><time>2026-03-29T12:28:42.321Z</time></trkpt><trkpt lat="43.1082517" lon="12.2219183"><ele>440.6</ele><time>2026-03-29T12:28:43.323Z</time></trkpt><trkpt lat="43.10824" lon="12.22208"><ele>438.8</ele><time>2026-03-29T12:28:45.322Z</time></trkpt><trkpt lat="43.1082317" lon="12.222235"><ele>437.0</ele><time>2026-03-29T12:28:47.32Z</time></trkpt><trkpt lat="43.108215" lon="12.2223667"><ele>435.49999999999994</ele><time>2026-03-29T12:28:49.323Z</time></trkpt><trkpt lat="43.1081917" lon="12.2224817"><ele>434.0</ele><time>2026-03-29T12:28:51.322Z</time></trkpt><trkpt lat="43.1081883" lon="12.2225883"><ele>432.5</ele><time>2026-03-29T12:28:53.319Z</time></trkpt><trkpt lat="43.1082033" lon="12.2227083"><ele>431.0</ele><time>2026-03-29T12:28:55.326Z</time></trkpt><trkpt lat="43.10825" lon="12.2228167"><ele>429.49999999999994</ele><time>2026-03-29T12:28:57.323Z</time></trkpt><trkpt lat="43.108285" lon="12.2229067"><ele>428.0</ele><time>2026-03-29T12:28:59.324Z</time></trkpt><trkpt lat="43.1083017" lon="12.222995"><ele>428.0</ele><time>2026-03-29T12:29:01.322Z</time></trkpt><trkpt lat="43.1082967" lon="12.2231"><ele>427.99999999999994</ele><time>2026-03-29T12:29:03.326Z</time></trkpt><trkpt lat="43.108205" lon="12.223045"><ele>427.99999999999994</ele><time>2026-03-29T12:29:07.321Z</time></trkpt><trkpt lat="43.1081283" lon="12.2229267"><ele>428.0</ele><time>2026-03-29T12:29:09.322Z</time></trkpt><trkpt lat="43.108045" lon="12.222805"><ele>428.0</ele><time>2026-03-29T12:29:11.323Z</time></trkpt><trkpt lat="43.1080067" lon="12.2227333"><ele>423.49999999999994</ele><time>2026-03-29T12:29:12.321Z</time></trkpt><trkpt lat="43.1079633" lon="12.2226533"><ele>419.0</ele><time>2026-03-29T12:29:13.323Z</time></trkpt><trkpt lat="43.1078883" lon="12.2225117"><ele>414.5</ele><time>2026-03-29T12:29:15.324Z</time></trkpt><trkpt lat="43.1078217" lon="12.222435"><ele>410.0</ele><time>2026-03-29T12:29:17.32Z</time></trkpt><trkpt lat="43.107755" lon="12.2224517"><ele>405.49999999999994</ele><time>2026-03-29T12:29:19.321Z</time></trkpt><trkpt lat="43.1077417" lon="12.22254"><ele>401.0</ele><time>2026-03-29T12:29:21.326Z</time></trkpt><trkpt lat="43.1077733" lon="12.222635"><ele>400.99999999999994</ele><time>2026-03-29T12:29:22.32Z</time></trkpt><trkpt lat="43.1078167" lon="12.2227467"><ele>401.0</ele><time>2026-03-29T12:29:23.32Z</time></trkpt><trkpt lat="43.1078633" lon="12.22286"><ele>401.0</ele><time>2026-03-29T12:29:24.32Z</time></trkpt><trkpt lat="43.1079117" lon="12.2229667"><ele>401.0</ele><time>2026-03-29T12:29:25.326Z</time></trkpt><trkpt lat="43.1079433" lon="12.2230683"><ele>400.99999999999994</ele><time>2026-03-29T12:29:26.321Z</time></trkpt><trkpt lat="43.1079633" lon="12.223165"><ele>401.0</ele><time>2026-03-29T12:29:27.321Z</time></trkpt><trkpt lat="43.1079517" lon="12.2232667"><ele>399.3333333333333</ele><time>2026-03-29T12:29:28.323Z</time></trkpt><trkpt lat="43.1079367" lon="12.2233633"><ele>397.66666666666663</ele><time>2026-03-29T12:29:29.32Z</time></trkpt><trkpt lat="43.1079267" lon="12.2234533"><ele>396.0</ele><time>2026-03-29T12:29:30.323Z</time></trkpt><trkpt lat="43.1079267" lon="12.2235633"><ele>394.33333333333337</ele><time>2026-03-29T12:29:31.321Z</time></trkpt><trkpt lat="43.1079233" lon="12.223675"><ele>392.6666666666667</ele><time>2026-03-29T12:29:32.32Z</time></trkpt><trkpt lat="43.1079067" lon="12.2237683"><ele>391.0</ele><time>2026-03-29T12:29:33.32Z</time></trkpt><trkpt lat="43.1078933" lon="12.22392"><ele>390.6</ele><time>2026-03-29T12:29:35.32Z</time></trkpt><trkpt lat="43.1079183" lon="12.2241"><ele>390.20000000000005</ele><time>2026-03-29T12:29:37.321Z</time></trkpt><trkpt lat="43.107935" lon="12.2242083"><ele>389.79999999999995</ele><time>2026-03-29T12:29:38.32Z</time></trkpt><trkpt lat="43.1079583" lon="12.22432"><ele>389.4</ele><time>2026-03-29T12:29:39.322Z</time></trkpt><trkpt lat="43.1079917" lon="12.2244267"><ele>389.0</ele><time>2026-03-29T12:29:40.32Z</time></trkpt><trkpt lat="43.1080417" lon="12.22453"><ele>388.99999999999994</ele><time>2026-03-29T12:29:41.319Z</time></trkpt><trkpt lat="43.1080983" lon="12.22463"><ele>389.0</ele><time>2026-03-29T12:29:42.322Z</time></trkpt><trkpt lat="43.1081433" lon="12.2247267"><ele>389.0</ele><time>2026-03-29T12:29:43.321Z</time></trkpt><trkpt lat="43.1081717" lon="12.224825"><ele>389.0</ele><time>2026-03-29T12:29:44.321Z</time></trkpt><trkpt lat="43.1081983" lon="12.2249183"><ele>388.99999999999994</ele><time>2026-03-29T12:29:45.321Z</time></trkpt><trkpt lat="43.108215" lon="12.2250117"><ele>389.0</ele><time>2026-03-29T12:29:46.322Z</time></trkpt><trkpt lat="43.1081767" lon="12.2250867"><ele>389.79999999999995</ele><time>2026-03-29T12:29:47.32Z</time></trkpt><trkpt lat="43.108055" lon="12.2252217"><ele>390.59999999999997</ele><time>2026-03-29T12:29:49.321Z</time></trkpt><trkpt lat="43.107965" lon="12.2252783"><ele>391.4</ele><time>2026-03-29T12:29:50.323Z</time></trkpt><trkpt lat="43.107895" lon="12.2253333"><ele>392.2</ele><time>2026-03-29T12:29:51.321Z</time></trkpt><trkpt lat="43.107835" lon="12.22539"><ele>393.0</ele><time>2026-03-29T12:29:52.321Z</time></trkpt><trkpt lat="43.1077833" lon="12.2254467"><ele>393.0</ele><time>2026-03-29T12:29:53.322Z</time></trkpt><trkpt lat="43.107735" lon="12.2255683"><ele>393.0</ele><time>2026-03-29T12:29:55.32Z</time></trkpt><trkpt lat="43.10778" lon="12.2257133"><ele>393.0</ele><time>2026-03-29T12:29:57.322Z</time></trkpt><trkpt lat="43.1078367" lon="12.2257817"><ele>393.0</ele><time>2026-03-29T12:29:58.321Z</time></trkpt><trkpt lat="43.10791" lon="12.2258383"><ele>393.0</ele><time>2026-03-29T12:29:59.322Z</time></trkpt><trkpt lat="43.1079883" lon="12.2258733"><ele>392.75</ele><time>2026-03-29T12:30:00.32Z</time></trkpt><trkpt lat="43.1081" lon="12.2259583"><ele>392.5</ele><time>2026-03-29T12:30:02.323Z</time></trkpt><trkpt lat="43.1081833" lon="12.226075"><ele>392.25</ele><time>2026-03-29T12:30:04.32Z</time></trkpt><trkpt lat="43.1082483" lon="12.2262117"><ele>392.0</ele><time>2026-03-29T12:30:06.324Z</time></trkpt><trkpt lat="43.10831" lon="12.2263467"><ele>391.20000000000005</ele><time>2026-03-29T12:30:08.321Z</time></trkpt><trkpt lat="43.108365" lon="12.226465"><ele>390.4</ele><time>2026-03-29T12:30:10.325Z</time></trkpt><trkpt lat="43.1084083" lon="12.2265717"><ele>389.6</ele><time>2026-03-29T12:30:12.323Z</time></trkpt><trkpt lat="43.1084467" lon="12.2266917"><ele>388.79999999999995</ele><time>2026-03-29T12:30:14.321Z</time></trkpt><trkpt lat="43.1084883" lon="12.2268117"><ele>388.0</ele><time>2026-03-29T12:30:16.323Z</time></trkpt><trkpt lat="43.1085533" lon="12.2269383"><ele>388.0</ele><time>2026-03-29T12:30:18.32Z</time></trkpt><trkpt lat="43.1086083" lon="12.2270667"><ele>388.0</ele><time>2026-03-29T12:30:20.327Z</time></trkpt><trkpt lat="43.108655" lon="12.2271783"><ele>388.0</ele><time>2026-03-29T12:30:22.32Z</time></trkpt><trkpt lat="43.1087117" lon="12.2272867"><ele>388.0</ele><time>2026-03-29T12:30:24.324Z</time></trkpt><trkpt lat="43.108785" lon="12.2273983"><ele>388.0</ele><time>2026-03-29T12:30:26.324Z</time></trkpt><trkpt lat="43.1088817" lon="12.2275"><ele>388.00000000000006</ele><time>2026-03-29T12:30:28.319Z</time></trkpt><trkpt lat="43.1089467" lon="12.2275417"><ele>388.0</ele><time>2026-03-29T12:30:29.321Z</time></trkpt><trkpt lat="43.10902" lon="12.2275783"><ele>388.0</ele><time>2026-03-29T12:30:30.321Z</time></trkpt><trkpt lat="43.1090917" lon="12.227625"><ele>388.0</ele><time>2026-03-29T12:30:31.324Z</time></trkpt><trkpt lat="43.10915" lon="12.2276883"><ele>388.00000000000006</ele><time>2026-03-29T12:30:32.32Z</time></trkpt><trkpt lat="43.1092083" lon="12.227765"><ele>388.0</ele><time>2026-03-29T12:30:33.324Z</time></trkpt><trkpt lat="43.1092183" lon="12.227875"><ele>388.00000000000006</ele><time>2026-03-29T12:30:34.322Z</time></trkpt><trkpt lat="43.1092083" lon="12.2280133"><ele>388.0</ele><time>2026-03-29T12:30:35.319Z</time></trkpt><trkpt lat="43.10921" lon="12.228165"><ele>388.0</ele><time>2026-03-29T12:30:36.323Z</time></trkpt><trkpt lat="43.1091917" lon="12.22828"><ele>388.0</ele><time>2026-03-29T12:30:37.32Z</time></trkpt><trkpt lat="43.10916" lon="12.2283867"><ele>388.00000000000006</ele><time>2026-03-29T12:30:38.323Z</time></trkpt><trkpt lat="43.1091467" lon="12.2284733"><ele>388.0</ele><time>2026-03-29T12:30:39.324Z</time></trkpt><trkpt lat="43.1091417" lon="12.22858"><ele>386.1666666666667</ele><time>2026-03-29T12:30:40.319Z</time></trkpt><trkpt lat="43.1091483" lon="12.2286933"><ele>384.33333333333337</ele><time>2026-03-29T12:30:41.323Z</time></trkpt><trkpt lat="43.109165" lon="12.2288017"><ele>382.5</ele><time>2026-03-29T12:30:42.322Z</time></trkpt><trkpt lat="43.109185" lon="12.2289167"><ele>380.6666666666667</ele><time>2026-03-29T12:30:43.321Z</time></trkpt><trkpt lat="43.109205" lon="12.2290233"><ele>378.83333333333337</ele><time>2026-03-29T12:30:44.32Z</time></trkpt><trkpt lat="43.1092117" lon="12.229125"><ele>377.0</ele><time>2026-03-29T12:30:45.325Z</time></trkpt><trkpt lat="43.10921" lon="12.229235"><ele>376.1666666666667</ele><time>2026-03-29T12:30:46.32Z</time></trkpt><trkpt lat="43.1092" lon="12.2293483"><ele>375.33333333333337</ele><time>2026-03-29T12:30:47.318Z</time></trkpt><trkpt lat="43.1091817" lon="12.2294617"><ele>374.5</ele><time>2026-03-29T12:30:48.32Z</time></trkpt><trkpt lat="43.1091633" lon="12.22957"><ele>373.6666666666667</ele><time>2026-03-29T12:30:49.319Z</time></trkpt><trkpt lat="43.10914" lon="12.2296717"><ele>372.8333333333333</ele><time>2026-03-29T12:30:50.322Z</time></trkpt><trkpt lat="43.1091167" lon="12.2297683"><ele>372.0</ele><time>2026-03-29T12:30:51.323Z</time></trkpt><trkpt lat="43.1090917" lon="12.2298633"><ele>370.8571428571429</ele><time>2026-03-29T12:30:52.32Z</time></trkpt><trkpt lat="43.1090583" lon="12.22995"><ele>369.7142857142857</ele><time>2026-03-29T12:30:53.32Z</time></trkpt><trkpt lat="43.1090367" lon="12.230035"><ele>368.57142857142856</ele><time>2026-03-29T12:30:54.318Z</time></trkpt><trkpt lat="43.109025" lon="12.230125"><ele>367.42857142857144</ele><time>2026-03-29T12:30:55.319Z</time></trkpt><trkpt lat="43.1090167" lon="12.23022"><ele>366.2857142857143</ele><time>2026-03-29T12:30:56.321Z</time></trkpt><trkpt lat="43.1090133" lon="12.23033"><ele>365.14285714285717</ele><time>2026-03-29T12:30:57.321Z</time></trkpt><trkpt lat="43.1090067" lon="12.230455"><ele>364.0</ele><time>2026-03-29T12:30:58.32Z</time></trkpt><trkpt lat="43.1090067" lon="12.2305933"><ele>364.2</ele><time>2026-03-29T12:30:59.321Z</time></trkpt><trkpt lat="43.1089967" lon="12.2307133"><ele>364.4</ele><time>2026-03-29T12:31:00.321Z</time></trkpt><trkpt lat="43.10897" lon="12.23083"><ele>364.6</ele><time>2026-03-29T12:31:01.323Z</time></trkpt><trkpt lat="43.1089217" lon="12.23094"><ele>364.8</ele><time>2026-03-29T12:31:02.321Z</time></trkpt><trkpt lat="43.1088667" lon="12.2310483"><ele>365.0</ele><time>2026-03-29T12:31:03.322Z</time></trkpt><trkpt lat="43.1088217" lon="12.23115"><ele>365.0</ele><time>2026-03-29T12:31:04.321Z</time></trkpt><trkpt lat="43.1087833" lon="12.23125"><ele>365.0</ele><time>2026-03-29T12:31:05.321Z</time></trkpt><trkpt lat="43.1087533" lon="12.2313433"><ele>365.0</ele><time>2026-03-29T12:31:06.324Z</time></trkpt><trkpt lat="43.1087283" lon="12.2314233"><ele>365.0</ele><time>2026-03-29T12:31:07.323Z</time></trkpt><trkpt lat="43.1086817" lon="12.2315733"><ele>365.0</ele><time>2026-03-29T12:31:09.32Z</time></trkpt><trkpt lat="43.10863" lon="12.231735"><ele>364.2</ele><time>2026-03-29T12:31:11.323Z</time></trkpt><trkpt lat="43.1086017" lon="12.231815"><ele>363.4</ele><time>2026-03-29T12:31:12.319Z</time></trkpt><trkpt lat="43.108545" lon="12.2319533"><ele>362.6</ele><time>2026-03-29T12:31:14.323Z</time></trkpt><trkpt lat="43.1084367" lon="12.2319883"><ele>361.8</ele><time>2026-03-29T12:31:16.324Z</time></trkpt><trkpt lat="43.1083167" lon="12.2319867"><ele>361.0</ele><time>2026-03-29T12:31:18.32Z</time></trkpt><trkpt lat="43.1081967" lon="12.2320183"><ele>358.4</ele><time>2026-03-29T12:31:20.324Z</time></trkpt><trkpt lat="43.1080817" lon="12.2320583"><ele>355.8</ele><time>2026-03-29T12:31:22.32Z</time></trkpt><trkpt lat="43.1079967" lon="12.2321167"><ele>353.2</ele><time>2026-03-29T12:31:24.323Z</time></trkpt><trkpt lat="43.1078833" lon="12.2321667"><ele>350.59999999999997</ele><time>2026-03-29T12:31:26.319Z</time></trkpt><trkpt lat="43.1078167" lon="12.232185"><ele>348.0</ele><time>2026-03-29T12:31:27.322Z</time></trkpt><trkpt lat="43.107755" lon="12.2322067"><ele>348.0</ele><time>2026-03-29T12:31:28.324Z</time></trkpt><trkpt lat="43.1076583" lon="12.232265"><ele>348.0</ele><time>2026-03-29T12:31:30.32Z</time></trkpt><trkpt lat="43.1076067" lon="12.2323517"><ele>348.0</ele><time>2026-03-29T12:31:32.322Z</time></trkpt><trkpt lat="43.107535" lon="12.23251"><ele>348.0</ele><time>2026-03-29T12:31:34.323Z</time></trkpt><trkpt lat="43.1074883" lon="12.2325933"><ele>348.0</ele><time>2026-03-29T12:31:35.321Z</time></trkpt><trkpt lat="43.107445" lon="12.232685"><ele>347.1666666666667</ele><time>2026-03-29T12:31:36.321Z</time></trkpt><trkpt lat="43.1074067" lon="12.23279"><ele>346.3333333333333</ele><time>2026-03-29T12:31:37.324Z</time></trkpt><trkpt lat="43.107375" lon="12.2328933"><ele>345.5</ele><time>2026-03-29T12:31:38.324Z</time></trkpt><trkpt lat="43.1073567" lon="12.2330067"><ele>344.66666666666663</ele><time>2026-03-29T12:31:39.322Z</time></trkpt><trkpt lat="43.10734" lon="12.2331217"><ele>343.8333333333333</ele><time>2026-03-29T12:31:40.322Z</time></trkpt><trkpt lat="43.10732" lon="12.2332417"><ele>343.0</ele><time>2026-03-29T12:31:41.322Z</time></trkpt><trkpt lat="43.1072867" lon="12.2333583"><ele>342.8333333333333</ele><time>2026-03-29T12:31:42.322Z</time></trkpt><trkpt lat="43.1072433" lon="12.23346"><ele>342.66666666666663</ele><time>2026-03-29T12:31:43.322Z</time></trkpt><trkpt lat="43.1071933" lon="12.233545"><ele>342.5</ele><time>2026-03-29T12:31:44.322Z</time></trkpt><trkpt lat="43.10715" lon="12.2336117"><ele>342.3333333333333</ele><time>2026-03-29T12:31:45.321Z</time></trkpt><trkpt lat="43.1071117" lon="12.233725"><ele>342.1666666666667</ele><time>2026-03-29T12:31:47.324Z</time></trkpt><trkpt lat="43.1072067" lon="12.2337783"><ele>342.0</ele><time>2026-03-29T12:31:50.324Z</time></trkpt><trkpt lat="43.10731" lon="12.2336967"><ele>342.0</ele><time>2026-03-29T12:31:52.321Z</time></trkpt><trkpt lat="43.107395" lon="12.233645"><ele>342.0</ele><time>2026-03-29T12:31:54.322Z</time></trkpt><trkpt lat="43.1074067" lon="12.233775"><ele>342.0</ele><time>2026-03-29T12:31:56.324Z</time></trkpt><trkpt lat="43.10739" lon="12.23387"><ele>342.0</ele><time>2026-03-29T12:31:57.322Z</time></trkpt><trkpt lat="43.1073617" lon="12.233975"><ele>342.0</ele><time>2026-03-29T12:31:58.321Z</time></trkpt><trkpt lat="43.10732" lon="12.23409"><ele>342.0</ele><time>2026-03-29T12:31:59.323Z</time></trkpt><trkpt lat="43.1072833" lon="12.23419"><ele>338.8333333333333</ele><time>2026-03-29T12:32:00.324Z</time></trkpt><trkpt lat="43.1072383" lon="12.2342617"><ele>335.6666666666667</ele><time>2026-03-29T12:32:01.323Z</time></trkpt><trkpt lat="43.1071833" lon="12.23431"><ele>332.5</ele><time>2026-03-29T12:32:02.321Z</time></trkpt><trkpt lat="43.1071033" lon="12.2343333"><ele>329.33333333333337</ele><time>2026-03-29T12:32:03.328Z</time></trkpt><trkpt lat="43.1070067" lon="12.23435"><ele>326.1666666666667</ele><time>2026-03-29T12:32:04.323Z</time></trkpt><trkpt lat="43.1069067" lon="12.234375"><ele>323.0</ele><time>2026-03-29T12:32:05.322Z</time></trkpt><trkpt lat="43.106825" lon="12.2344083"><ele>323.0</ele><time>2026-03-29T12:32:06.323Z</time></trkpt><trkpt lat="43.10676" lon="12.2344467"><ele>323.0</ele><time>2026-03-29T12:32:07.323Z</time></trkpt><trkpt lat="43.1066817" lon="12.234505"><ele>323.0</ele><time>2026-03-29T12:32:09.322Z</time></trkpt><trkpt lat="43.1067533" lon="12.234595"><ele>323.0</ele><time>2026-03-29T12:32:13.325Z</time></trkpt><trkpt lat="43.1068167" lon="12.23463"><ele>323.0</ele><time>2026-03-29T12:32:14.322Z</time></trkpt><trkpt lat="43.1069033" lon="12.2346817"><ele>323.0</ele><time>2026-03-29T12:32:15.325Z</time></trkpt><trkpt lat="43.1069917" lon="12.2347533"><ele>317.75</ele><time>2026-03-29T12:32:16.323Z</time></trkpt><trkpt lat="43.1071033" lon="12.2348467"><ele>312.5</ele><time>2026-03-29T12:32:17.322Z</time></trkpt><trkpt lat="43.1072117" lon="12.23495"><ele>307.25</ele><time>2026-03-29T12:32:18.323Z</time></trkpt><trkpt lat="43.1072983" lon="12.2350633"><ele>302.0</ele><time>2026-03-29T12:32:19.326Z</time></trkpt><trkpt lat="43.1073833" lon="12.2351783"><ele>302.83333333333337</ele><time>2026-03-29T12:32:20.321Z</time></trkpt><trkpt lat="43.107465" lon="12.2352717"><ele>303.6666666666667</ele><time>2026-03-29T12:32:21.32Z</time></trkpt><trkpt lat="43.107535" lon="12.2353483"><ele>304.5</ele><time>2026-03-29T12:32:22.322Z</time></trkpt><trkpt lat="43.1075983" lon="12.2354133"><ele>305.3333333333333</ele><time>2026-03-29T12:32:23.32Z</time></trkpt><trkpt lat="43.1076583" lon="12.2354567"><ele>306.16666666666663</ele><time>2026-03-29T12:32:24.322Z</time></trkpt><trkpt lat="43.1077333" lon="12.2353983"><ele>307.0</ele><time>2026-03-29T12:32:27.323Z</time></trkpt><trkpt lat="43.1077833" lon="12.235315"><ele>307.0</ele><time>2026-03-29T12:32:29.321Z</time></trkpt><trkpt lat="43.1078317" lon="12.235225"><ele>307.0</ele><time>2026-03-29T12:32:31.323Z</time></trkpt><trkpt lat="43.1078783" lon="12.2351267"><ele>307.0</ele><time>2026-03-29T12:32:33.321Z</time></trkpt><trkpt lat="43.1079017" lon="12.234985"><ele>307.0</ele><time>2026-03-29T12:32:35.323Z</time></trkpt><trkpt lat="43.1079083" lon="12.2348633"><ele>307.0</ele><time>2026-03-29T12:32:36.326Z</time></trkpt><trkpt lat="43.107915" lon="12.234735"><ele>308.8</ele><time>2026-03-29T12:32:37.323Z</time></trkpt><trkpt lat="43.107935" lon="12.2346267"><ele>310.6</ele><time>2026-03-29T12:32:38.322Z</time></trkpt><trkpt lat="43.1079517" lon="12.23453"><ele>312.40000000000003</ele><time>2026-03-29T12:32:39.322Z</time></trkpt><trkpt lat="43.10801" lon="12.234395"><ele>314.2</ele><time>2026-03-29T12:32:41.322Z</time></trkpt><trkpt lat="43.1080967" lon="12.2343417"><ele>316.0</ele><time>2026-03-29T12:32:43.323Z</time></trkpt><trkpt lat="43.1082083" lon="12.2343633"><ele>314.8333333333333</ele><time>2026-03-29T12:32:45.324Z</time></trkpt><trkpt lat="43.10828" lon="12.2343983"><ele>313.66666666666663</ele><time>2026-03-29T12:32:47.323Z</time></trkpt><trkpt lat="43.108355" lon="12.23441"><ele>312.5</ele><time>2026-03-29T12:32:49.324Z</time></trkpt><trkpt lat="43.10848" lon="12.2344717"><ele>311.3333333333333</ele><time>2026-03-29T12:32:51.321Z</time></trkpt><trkpt lat="43.1085417" lon="12.234505"><ele>310.1666666666667</ele><time>2026-03-29T12:32:52.321Z</time></trkpt><trkpt lat="43.1086117" lon="12.234535"><ele>309.0</ele><time>2026-03-29T12:32:53.318Z</time></trkpt><trkpt lat="43.1086833" lon="12.2345583"><ele>309.0</ele><time>2026-03-29T12:32:54.321Z</time></trkpt><trkpt lat="43.1087517" lon="12.2345867"><ele>309.0</ele><time>2026-03-29T12:32:55.322Z</time></trkpt><trkpt lat="43.1088217" lon="12.23463"><ele>309.0</ele><time>2026-03-29T12:32:56.322Z</time></trkpt><trkpt lat="43.1088917" lon="12.2346717"><ele>309.0</ele><time>2026-03-29T12:32:57.322Z</time></trkpt><trkpt lat="43.108965" lon="12.23471"><ele>309.0</ele><time>2026-03-29T12:32:58.32Z</time></trkpt><trkpt lat="43.1090433" lon="12.2347433"><ele>309.0</ele><time>2026-03-29T12:32:59.32Z</time></trkpt><trkpt lat="43.109105" lon="12.2347733"><ele>305.6666666666667</ele><time>2026-03-29T12:33:00.325Z</time></trkpt><trkpt lat="43.1092183" lon="12.2348233"><ele>302.3333333333333</ele><time>2026-03-29T12:33:02.323Z</time></trkpt><trkpt lat="43.1093417" lon="12.23486"><ele>299.0</ele><time>2026-03-29T12:33:04.321Z</time></trkpt><trkpt lat="43.109405" lon="12.2348733"><ele>295.66666666666663</ele><time>2026-03-29T12:33:05.322Z</time></trkpt><trkpt lat="43.109475" lon="12.2348767"><ele>292.3333333333333</ele><time>2026-03-29T12:33:06.322Z</time></trkpt><trkpt lat="43.1095433" lon="12.2348783"><ele>289.0</ele><time>2026-03-29T12:33:07.323Z</time></trkpt><trkpt lat="43.109615" lon="12.2348833"><ele>289.0</ele><time>2026-03-29T12:33:08.323Z</time></trkpt><trkpt lat="43.10968" lon="12.2348967"><ele>289.0</ele><time>2026-03-29T12:33:09.323Z</time></trkpt><trkpt lat="43.109745" lon="12.2349067"><ele>289.0</ele><time>2026-03-29T12:33:10.323Z</time></trkpt><trkpt lat="43.10981" lon="12.2348983"><ele>289.0</ele><time>2026-03-29T12:33:11.323Z</time></trkpt><trkpt lat="43.109875" lon="12.234865"><ele>289.0</ele><time>2026-03-29T12:33:12.323Z</time></trkpt><trkpt lat="43.1099417" lon="12.2348167"><ele>289.0</ele><time>2026-03-29T12:33:13.324Z</time></trkpt><trkpt lat="43.1100017" lon="12.2347567"><ele>289.0</ele><time>2026-03-29T12:33:14.321Z</time></trkpt><trkpt lat="43.11006" lon="12.2346967"><ele>288.3333333333333</ele><time>2026-03-29T12:33:15.322Z</time></trkpt><trkpt lat="43.1101117" lon="12.23464"><ele>287.66666666666663</ele><time>2026-03-29T12:33:16.319Z</time></trkpt><trkpt lat="43.1101967" lon="12.2345367"><ele>287.0</ele><time>2026-03-29T12:33:18.324Z</time></trkpt><trkpt lat="43.1102367" lon="12.2344583"><ele>286.3333333333333</ele><time>2026-03-29T12:33:19.326Z</time></trkpt><trkpt lat="43.110275" lon="12.2343683"><ele>285.6666666666667</ele><time>2026-03-29T12:33:20.321Z</time></trkpt><trkpt lat="43.110315" lon="12.2342833"><ele>285.0</ele><time>2026-03-29T12:33:21.33Z</time></trkpt><trkpt lat="43.1103533" lon="12.2342033"><ele>285.0</ele><time>2026-03-29T12:33:22.322Z</time></trkpt><trkpt lat="43.1104117" lon="12.2340633"><ele>285.0</ele><time>2026-03-29T12:33:24.323Z</time></trkpt><trkpt lat="43.1104833" lon="12.2339633"><ele>285.0</ele><time>2026-03-29T12:33:26.324Z</time></trkpt><trkpt lat="43.1105483" lon="12.2339267"><ele>285.0</ele><time>2026-03-29T12:33:28.323Z</time></trkpt><trkpt lat="43.11057" lon="12.2340417"><ele>285.0</ele><time>2026-03-29T12:33:30.322Z</time></trkpt><trkpt lat="43.1105583" lon="12.2341533"><ele>285.0</ele><time>2026-03-29T12:33:31.321Z</time></trkpt><trkpt lat="43.1105267" lon="12.2342833"><ele>285.0</ele><time>2026-03-29T12:33:32.326Z</time></trkpt><trkpt lat="43.1104917" lon="12.2344167"><ele>285.0</ele><time>2026-03-29T12:33:33.322Z</time></trkpt><trkpt lat="43.1104583" lon="12.234555"><ele>285.0</ele><time>2026-03-29T12:33:34.322Z</time></trkpt><trkpt lat="43.1104267" lon="12.2347017"><ele>285.0</ele><time>2026-03-29T12:33:35.324Z</time></trkpt><trkpt lat="43.110395" lon="12.2348567"><ele>282.4</ele><time>2026-03-29T12:33:36.321Z</time></trkpt><trkpt lat="43.1103667" lon="12.235005"><ele>279.8</ele><time>2026-03-29T12:33:37.322Z</time></trkpt><trkpt lat="43.11034" lon="12.2351333"><ele>277.2</ele><time>2026-03-29T12:33:38.321Z</time></trkpt><trkpt lat="43.1103217" lon="12.2352567"><ele>274.6</ele><time>2026-03-29T12:33:39.322Z</time></trkpt><trkpt lat="43.1103183" lon="12.2353883"><ele>272.0</ele><time>2026-03-29T12:33:40.322Z</time></trkpt><trkpt lat="43.1103217" lon="12.235515"><ele>271.99999999999994</ele><time>2026-03-29T12:33:41.32Z</time></trkpt><trkpt lat="43.1103217" lon="12.2356267"><ele>272.0</ele><time>2026-03-29T12:33:42.323Z</time></trkpt><trkpt lat="43.1103233" lon="12.2357267"><ele>272.0</ele><time>2026-03-29T12:33:43.324Z</time></trkpt><trkpt lat="43.1103183" lon="12.2358167"><ele>272.0</ele><time>2026-03-29T12:33:44.324Z</time></trkpt><trkpt lat="43.11031" lon="12.235905"><ele>272.0</ele><time>2026-03-29T12:33:45.324Z</time></trkpt><trkpt lat="43.1103017" lon="12.2359983"><ele>271.99999999999994</ele><time>2026-03-29T12:33:46.323Z</time></trkpt><trkpt lat="43.110305" lon="12.236095"><ele>272.0</ele><time>2026-03-29T12:33:47.323Z</time></trkpt><trkpt lat="43.11033" lon="12.2361933"><ele>271.71428571428567</ele><time>2026-03-29T12:33:48.32Z</time></trkpt><trkpt lat="43.1103667" lon="12.2362817"><ele>271.42857142857144</ele><time>2026-03-29T12:33:49.321Z</time></trkpt><trkpt lat="43.1104067" lon="12.2363567"><ele>271.1428571428571</ele><time>2026-03-29T12:33:50.323Z</time></trkpt><trkpt lat="43.1104533" lon="12.236425"><ele>270.85714285714283</ele><time>2026-03-29T12:33:51.322Z</time></trkpt><trkpt lat="43.1105117" lon="12.23648"><ele>270.57142857142856</ele><time>2026-03-29T12:33:52.321Z</time></trkpt><trkpt lat="43.1105783" lon="12.23652"><ele>270.2857142857143</ele><time>2026-03-29T12:33:53.324Z</time></trkpt><trkpt lat="43.11065" lon="12.2365433"><ele>270.0</ele><time>2026-03-29T12:33:54.321Z</time></trkpt><trkpt lat="43.1107133" lon="12.2365583"><ele>266.0</ele><time>2026-03-29T12:33:55.324Z</time></trkpt><trkpt lat="43.1108133" lon="12.2366067"><ele>262.0</ele><time>2026-03-29T12:33:57.321Z</time></trkpt><trkpt lat="43.110875" lon="12.236735"><ele>258.0</ele><time>2026-03-29T12:33:59.324Z</time></trkpt><trkpt lat="43.1108933" lon="12.236825"><ele>254.0</ele><time>2026-03-29T12:34:00.32Z</time></trkpt><trkpt lat="43.1109" lon="12.2369167"><ele>250.0</ele><time>2026-03-29T12:34:01.325Z</time></trkpt><trkpt lat="43.1108917" lon="12.237015"><ele>246.0</ele><time>2026-03-29T12:34:02.324Z</time></trkpt><trkpt lat="43.11087" lon="12.2371"><ele>246.0</ele><time>2026-03-29T12:34:03.321Z</time></trkpt><trkpt lat="43.1108117" lon="12.237235"><ele>246.00000000000003</ele><time>2026-03-29T12:34:05.322Z</time></trkpt><trkpt lat="43.1108017" lon="12.2373717"><ele>246.00000000000003</ele><time>2026-03-29T12:34:07.325Z</time></trkpt><trkpt lat="43.1108533" lon="12.23754"><ele>246.0</ele><time>2026-03-29T12:34:09.322Z</time></trkpt><trkpt lat="43.1108867" lon="12.2376433"><ele>246.0</ele><time>2026-03-29T12:34:10.326Z</time></trkpt><trkpt lat="43.1109367" lon="12.2377717"><ele>246.0</ele><time>2026-03-29T12:34:11.322Z</time></trkpt><trkpt lat="43.110985" lon="12.2379017"><ele>246.00000000000003</ele><time>2026-03-29T12:34:12.323Z</time></trkpt><trkpt lat="43.1110317" lon="12.238025"><ele>246.00000000000003</ele><time>2026-03-29T12:34:13.323Z</time></trkpt><trkpt lat="43.1110783" lon="12.2381367"><ele>246.0</ele><time>2026-03-29T12:34:14.32Z</time></trkpt><trkpt lat="43.1111183" lon="12.2382383"><ele>246.0</ele><time>2026-03-29T12:34:15.324Z</time></trkpt><trkpt lat="43.1111433" lon="12.2383267"><ele>246.20000000000002</ele><time>2026-03-29T12:34:16.322Z</time></trkpt><trkpt lat="43.1111417" lon="12.2384567"><ele>246.40000000000003</ele><time>2026-03-29T12:34:18.32Z</time></trkpt><trkpt lat="43.11107" lon="12.2385467"><ele>246.6</ele><time>2026-03-29T12:34:20.322Z</time></trkpt><trkpt lat="43.1110117" lon="12.238625"><ele>246.8</ele><time>2026-03-29T12:34:21.322Z</time></trkpt><trkpt lat="43.11096" lon="12.2387233"><ele>247.0</ele><time>2026-03-29T12:34:22.321Z</time></trkpt><trkpt lat="43.1109133" lon="12.2388367"><ele>246.5</ele><time>2026-03-29T12:34:23.32Z</time></trkpt><trkpt lat="43.11089" lon="12.23898"><ele>246.0</ele><time>2026-03-29T12:34:24.323Z</time></trkpt><trkpt lat="43.1108883" lon="12.2391383"><ele>245.5</ele><time>2026-03-29T12:34:25.32Z</time></trkpt><trkpt lat="43.1109067" lon="12.2393083"><ele>245.0</ele><time>2026-03-29T12:34:26.323Z</time></trkpt><trkpt lat="43.1109233" lon="12.2394833"><ele>245.0</ele><time>2026-03-29T12:34:27.321Z</time></trkpt><trkpt lat="43.1109267" lon="12.2396633"><ele>245.0</ele><time>2026-03-29T12:34:28.32Z</time></trkpt><trkpt lat="43.1109233" lon="12.2398433"><ele>245.0</ele><time>2026-03-29T12:34:29.322Z</time></trkpt><trkpt lat="43.1109183" lon="12.2400067"><ele>245.0</ele><time>2026-03-29T12:34:30.321Z</time></trkpt><trkpt lat="43.1109183" lon="12.240155"><ele>244.25</ele><time>2026-03-29T12:34:31.321Z</time></trkpt><trkpt lat="43.1109317" lon="12.2403033"><ele>243.5</ele><time>2026-03-29T12:34:32.322Z</time></trkpt><trkpt lat="43.1109567" lon="12.2404517"><ele>242.75</ele><time>2026-03-29T12:34:33.325Z</time></trkpt><trkpt lat="43.1109833" lon="12.2406083"><ele>242.0</ele><time>2026-03-29T12:34:34.322Z</time></trkpt><trkpt lat="43.11101" lon="12.2407717"><ele>241.0</ele><time>2026-03-29T12:34:35.322Z</time></trkpt><trkpt lat="43.111035" lon="12.24094"><ele>240.0</ele><time>2026-03-29T12:34:36.322Z</time></trkpt><trkpt lat="43.1110583" lon="12.2411083"><ele>239.0</ele><time>2026-03-29T12:34:37.325Z</time></trkpt><trkpt lat="43.1110817" lon="12.2412733"><ele>238.0</ele><time>2026-03-29T12:34:38.322Z</time></trkpt><trkpt lat="43.1110983" lon="12.2414317"><ele>237.60000000000002</ele><time>2026-03-29T12:34:39.321Z</time></trkpt><trkpt lat="43.1111083" lon="12.2415767"><ele>237.20000000000002</ele><time>2026-03-29T12:34:40.324Z</time></trkpt><trkpt lat="43.1111167" lon="12.2417167"><ele>236.8</ele><time>2026-03-29T12:34:41.322Z</time></trkpt><trkpt lat="43.1111217" lon="12.241845"><ele>236.4</ele><time>2026-03-29T12:34:42.32Z</time></trkpt><trkpt lat="43.111125" lon="12.24196"><ele>236.0</ele><time>2026-03-29T12:34:43.32Z</time></trkpt><trkpt lat="43.1111317" lon="12.2420567"><ele>236.0</ele><time>2026-03-29T12:34:44.319Z</time></trkpt><trkpt lat="43.11115" lon="12.2421767"><ele>236.00000000000003</ele><time>2026-03-29T12:34:46.323Z</time></trkpt><trkpt lat="43.111195" lon="12.2422383"><ele>236.00000000000003</ele><time>2026-03-29T12:34:48.324Z</time></trkpt><trkpt lat="43.111295" lon="12.242215"><ele>236.0</ele><time>2026-03-29T12:34:50.324Z</time></trkpt><trkpt lat="43.1113717" lon="12.2421517"><ele>236.0</ele><time>2026-03-29T12:34:51.323Z</time></trkpt><trkpt lat="43.1114683" lon="12.2420783"><ele>233.75</ele><time>2026-03-29T12:34:52.323Z</time></trkpt><trkpt lat="43.1115767" lon="12.242005"><ele>231.5</ele><time>2026-03-29T12:34:53.324Z</time></trkpt><trkpt lat="43.111695" lon="12.2419267"><ele>229.25</ele><time>2026-03-29T12:34:54.321Z</time></trkpt><trkpt lat="43.1118167" lon="12.2418433"><ele>227.0</ele><time>2026-03-29T12:34:55.321Z</time></trkpt><trkpt lat="43.111945" lon="12.241755"><ele>227.0</ele><time>2026-03-29T12:34:56.324Z</time></trkpt><trkpt lat="43.1120767" lon="12.2416617"><ele>227.0</ele><time>2026-03-29T12:34:57.325Z</time></trkpt><trkpt lat="43.1122117" lon="12.241565"><ele>227.0</ele><time>2026-03-29T12:34:58.323Z</time></trkpt><trkpt lat="43.1123483" lon="12.241465"><ele>228.33333333333334</ele><time>2026-03-29T12:34:59.325Z</time></trkpt><trkpt lat="43.1124883" lon="12.241365"><ele>229.66666666666669</ele><time>2026-03-29T12:35:00.325Z</time></trkpt><trkpt lat="43.1126333" lon="12.2412583"><ele>231.0</ele><time>2026-03-29T12:35:01.322Z</time></trkpt><trkpt lat="43.11278" lon="12.24115"><ele>231.0</ele><time>2026-03-29T12:35:02.325Z</time></trkpt><trkpt lat="43.11293" lon="12.2410417"><ele>231.0</ele><time>2026-03-29T12:35:03.323Z</time></trkpt><trkpt lat="43.11308" lon="12.2409367"><ele>231.0</ele><time>2026-03-29T12:35:04.319Z</time></trkpt><trkpt lat="43.1132283" lon="12.2408333"><ele>230.33333333333331</ele><time>2026-03-29T12:35:05.319Z</time></trkpt><trkpt lat="43.1133783" lon="12.2407267"><ele>229.66666666666666</ele><time>2026-03-29T12:35:06.32Z</time></trkpt><trkpt lat="43.11353" lon="12.2406133"><ele>229.0</ele><time>2026-03-29T12:35:07.322Z</time></trkpt><trkpt lat="43.113685" lon="12.2404917"><ele>228.66666666666666</ele><time>2026-03-29T12:35:08.321Z</time></trkpt><trkpt lat="43.113845" lon="12.240365"><ele>228.33333333333331</ele><time>2026-03-29T12:35:09.323Z</time></trkpt><trkpt lat="43.114005" lon="12.24024"><ele>228.0</ele><time>2026-03-29T12:35:10.323Z</time></trkpt><trkpt lat="43.1141567" lon="12.24012"><ele>228.66666666666669</ele><time>2026-03-29T12:35:11.323Z</time></trkpt><trkpt lat="43.1143033" lon="12.24"><ele>229.33333333333334</ele><time>2026-03-29T12:35:12.319Z</time></trkpt><trkpt lat="43.114445" lon="12.23989"><ele>230.0</ele><time>2026-03-29T12:35:13.323Z</time></trkpt><trkpt lat="43.1145867" lon="12.2397817"><ele>232.25</ele><time>2026-03-29T12:35:14.322Z</time></trkpt><trkpt lat="43.1147267" lon="12.239685"><ele>234.5</ele><time>2026-03-29T12:35:15.322Z</time></trkpt><trkpt lat="43.1148633" lon="12.2396067"><ele>236.75</ele><time>2026-03-29T12:35:16.323Z</time></trkpt><trkpt lat="43.115" lon="12.23956"><ele>239.0</ele><time>2026-03-29T12:35:17.324Z</time></trkpt><trkpt lat="43.1151333" lon="12.2395483"><ele>240.25</ele><time>2026-03-29T12:35:18.321Z</time></trkpt><trkpt lat="43.115275" lon="12.2395633"><ele>241.5</ele><time>2026-03-29T12:35:19.324Z</time></trkpt><trkpt lat="43.11542" lon="12.2395883"><ele>242.75</ele><time>2026-03-29T12:35:20.322Z</time></trkpt><trkpt lat="43.1155617" lon="12.2396167"><ele>244.0</ele><time>2026-03-29T12:35:21.323Z</time></trkpt><trkpt lat="43.1156883" lon="12.2396417"><ele>244.79999999999998</ele><time>2026-03-29T12:35:22.325Z</time></trkpt><trkpt lat="43.11579" lon="12.239665"><ele>245.59999999999997</ele><time>2026-03-29T12:35:23.332Z</time></trkpt><trkpt lat="43.1158817" lon="12.2396917"><ele>246.4</ele><time>2026-03-29T12:35:24.324Z</time></trkpt><trkpt lat="43.1159633" lon="12.2397217"><ele>247.2</ele><time>2026-03-29T12:35:25.324Z</time></trkpt><trkpt lat="43.1160483" lon="12.239755"><ele>248.0</ele><time>2026-03-29T12:35:26.321Z</time></trkpt><trkpt lat="43.1161267" lon="12.2397983"><ele>245.50000000000003</ele><time>2026-03-29T12:35:27.327Z</time></trkpt><trkpt lat="43.1162067" lon="12.23985"><ele>243.0</ele><time>2026-03-29T12:35:28.322Z</time></trkpt><trkpt lat="43.1162867" lon="12.2399017"><ele>240.5</ele><time>2026-03-29T12:35:29.321Z</time></trkpt><trkpt lat="43.1163583" lon="12.2399533"><ele>238.0</ele><time>2026-03-29T12:35:30.324Z</time></trkpt><trkpt lat="43.1164267" lon="12.2400017"><ele>235.50000000000003</ele><time>2026-03-29T12:35:31.325Z</time></trkpt><trkpt lat="43.1164917" lon="12.240055"><ele>233.0</ele><time>2026-03-29T12:35:32.322Z</time></trkpt><trkpt lat="43.116545" lon="12.2401133"><ele>233.0</ele><time>2026-03-29T12:35:33.326Z</time></trkpt><trkpt lat="43.1165867" lon="12.2401783"><ele>233.0</ele><time>2026-03-29T12:35:34.322Z</time></trkpt><trkpt lat="43.11663" lon="12.2403"><ele>233.0</ele><time>2026-03-29T12:35:36.324Z</time></trkpt><trkpt lat="43.1167033" lon="12.2404583"><ele>233.0</ele><time>2026-03-29T12:35:39.32Z</time></trkpt><trkpt lat="43.1167917" lon="12.24055"><ele>233.0</ele><time>2026-03-29T12:35:41.32Z</time></trkpt><trkpt lat="43.1168583" lon="12.2406117"><ele>232.16666666666669</ele><time>2026-03-29T12:35:43.321Z</time></trkpt><trkpt lat="43.1168767" lon="12.2407117"><ele>231.33333333333334</ele><time>2026-03-29T12:35:52.321Z</time></trkpt><trkpt lat="43.1169067" lon="12.2408033"><ele>230.5</ele><time>2026-03-29T12:35:53.325Z</time></trkpt><trkpt lat="43.1169467" lon="12.2409117"><ele>229.66666666666669</ele><time>2026-03-29T12:35:54.323Z</time></trkpt><trkpt lat="43.11698" lon="12.2410167"><ele>228.83333333333334</ele><time>2026-03-29T12:35:55.317Z</time></trkpt><trkpt lat="43.117005" lon="12.2411117"><ele>228.0</ele><time>2026-03-29T12:35:56.324Z</time></trkpt><trkpt lat="43.1170233" lon="12.241255"><ele>228.0</ele><time>2026-03-29T12:35:58.321Z</time></trkpt><trkpt lat="43.1170283" lon="12.2413867"><ele>228.0</ele><time>2026-03-29T12:36:00.327Z</time></trkpt><trkpt lat="43.1170067" lon="12.2415367"><ele>228.0</ele><time>2026-03-29T12:36:02.321Z</time></trkpt><trkpt lat="43.116995" lon="12.2416267"><ele>228.0</ele><time>2026-03-29T12:36:03.323Z</time></trkpt><trkpt lat="43.1169767" lon="12.2417367"><ele>228.0</ele><time>2026-03-29T12:36:04.321Z</time></trkpt><trkpt lat="43.11697" lon="12.2418517"><ele>228.0</ele><time>2026-03-29T12:36:05.319Z</time></trkpt><trkpt lat="43.116975" lon="12.24197"><ele>228.0</ele><time>2026-03-29T12:36:06.322Z</time></trkpt><trkpt lat="43.1169917" lon="12.2420883"><ele>228.0</ele><time>2026-03-29T12:36:07.322Z</time></trkpt><trkpt lat="43.1170233" lon="12.24222"><ele>228.0</ele><time>2026-03-29T12:36:08.322Z</time></trkpt><trkpt lat="43.1170583" lon="12.2423467"><ele>228.0</ele><time>2026-03-29T12:36:09.323Z</time></trkpt><trkpt lat="43.117095" lon="12.2424717"><ele>228.0</ele><time>2026-03-29T12:36:10.32Z</time></trkpt><trkpt lat="43.117125" lon="12.24259"><ele>228.16666666666666</ele><time>2026-03-29T12:36:11.32Z</time></trkpt><trkpt lat="43.1171517" lon="12.2426933"><ele>228.33333333333331</ele><time>2026-03-29T12:36:12.318Z</time></trkpt><trkpt lat="43.1171733" lon="12.242775"><ele>228.5</ele><time>2026-03-29T12:36:13.321Z</time></trkpt><trkpt lat="43.1172333" lon="12.2428667"><ele>228.66666666666666</ele><time>2026-03-29T12:36:15.323Z</time></trkpt><trkpt lat="43.1173183" lon="12.242915"><ele>228.83333333333331</ele><time>2026-03-29T12:36:17.322Z</time></trkpt><trkpt lat="43.1173833" lon="12.2429667"><ele>229.0</ele><time>2026-03-29T12:36:19.322Z</time></trkpt><trkpt lat="43.1174967" lon="12.243025"><ele>229.33333333333331</ele><time>2026-03-29T12:36:21.321Z</time></trkpt><trkpt lat="43.1175617" lon="12.2430583"><ele>229.66666666666666</ele><time>2026-03-29T12:36:22.32Z</time></trkpt><trkpt lat="43.1176233" lon="12.2431083"><ele>230.0</ele><time>2026-03-29T12:36:23.319Z</time></trkpt><trkpt lat="43.1176817" lon="12.24318"><ele>230.33333333333331</ele><time>2026-03-29T12:36:24.32Z</time></trkpt><trkpt lat="43.11775" lon="12.2432833"><ele>230.66666666666666</ele><time>2026-03-29T12:36:25.321Z</time></trkpt><trkpt lat="43.11781" lon="12.24338"><ele>231.0</ele><time>2026-03-29T12:36:26.32Z</time></trkpt><trkpt lat="43.1178633" lon="12.2434783"><ele>231.14285714285714</ele><time>2026-03-29T12:36:27.32Z</time></trkpt><trkpt lat="43.117915" lon="12.24357"><ele>231.28571428571428</ele><time>2026-03-29T12:36:28.323Z</time></trkpt><trkpt lat="43.1179367" lon="12.2436683"><ele>231.42857142857144</ele><time>2026-03-29T12:36:29.324Z</time></trkpt><trkpt lat="43.1179417" lon="12.2437633"><ele>231.57142857142858</ele><time>2026-03-29T12:36:30.322Z</time></trkpt><trkpt lat="43.1179467" lon="12.2438583"><ele>231.71428571428572</ele><time>2026-03-29T12:36:31.323Z</time></trkpt><trkpt lat="43.11795" lon="12.243955"><ele>231.8571428571429</ele><time>2026-03-29T12:36:32.322Z</time></trkpt><trkpt lat="43.117965" lon="12.24406"><ele>232.00000000000003</ele><time>2026-03-29T12:36:33.32Z</time></trkpt><trkpt lat="43.1179817" lon="12.2441683"><ele>231.66666666666666</ele><time>2026-03-29T12:36:34.321Z</time></trkpt><trkpt lat="43.118" lon="12.2442817"><ele>231.33333333333331</ele><time>2026-03-29T12:36:35.323Z</time></trkpt><trkpt lat="43.1180167" lon="12.2443933"><ele>231.0</ele><time>2026-03-29T12:36:36.319Z</time></trkpt><trkpt lat="43.1180317" lon="12.2445"><ele>230.66666666666669</ele><time>2026-03-29T12:36:37.324Z</time></trkpt><trkpt lat="43.11805" lon="12.2446083"><ele>230.33333333333334</ele><time>2026-03-29T12:36:38.322Z</time></trkpt><trkpt lat="43.1180683" lon="12.2447133"><ele>230.0</ele><time>2026-03-29T12:36:39.323Z</time></trkpt><trkpt lat="43.1180883" lon="12.2448267"><ele>229.50000000000003</ele><time>2026-03-29T12:36:40.323Z</time></trkpt><trkpt lat="43.1181117" lon="12.2449433"><ele>229.0</ele><time>2026-03-29T12:36:41.323Z</time></trkpt><trkpt lat="43.11813" lon="12.24506"><ele>228.5</ele><time>2026-03-29T12:36:42.322Z</time></trkpt><trkpt lat="43.1181517" lon="12.2451767"><ele>228.0</ele><time>2026-03-29T12:36:43.322Z</time></trkpt><trkpt lat="43.1181683" lon="12.2452933"><ele>227.50000000000003</ele><time>2026-03-29T12:36:44.321Z</time></trkpt><trkpt lat="43.1181867" lon="12.24541"><ele>227.0</ele><time>2026-03-29T12:36:45.325Z</time></trkpt><trkpt lat="43.1182083" lon="12.2455267"><ele>226.8</ele><time>2026-03-29T12:36:46.319Z</time></trkpt><trkpt lat="43.11823" lon="12.2456433"><ele>226.6</ele><time>2026-03-29T12:36:47.32Z</time></trkpt><trkpt lat="43.1182533" lon="12.2457683"><ele>226.40000000000003</ele><time>2026-03-29T12:36:48.322Z</time></trkpt><trkpt lat="43.118275" lon="12.245895"><ele>226.20000000000002</ele><time>2026-03-29T12:36:49.323Z</time></trkpt><trkpt lat="43.1183" lon="12.2460233"><ele>226.0</ele><time>2026-03-29T12:36:50.319Z</time></trkpt><trkpt lat="43.1183233" lon="12.2461517"><ele>226.0</ele><time>2026-03-29T12:36:51.321Z</time></trkpt><trkpt lat="43.1183467" lon="12.24628"><ele>226.00000000000003</ele><time>2026-03-29T12:36:52.32Z</time></trkpt><trkpt lat="43.1183683" lon="12.2464033"><ele>226.00000000000003</ele><time>2026-03-29T12:36:53.323Z</time></trkpt><trkpt lat="43.1183867" lon="12.2465233"><ele>226.0</ele><time>2026-03-29T12:36:54.319Z</time></trkpt><trkpt lat="43.1184067" lon="12.2466433"><ele>226.0</ele><time>2026-03-29T12:36:55.32Z</time></trkpt><trkpt lat="43.1184283" lon="12.2467617"><ele>226.8</ele><time>2026-03-29T12:36:56.322Z</time></trkpt><trkpt lat="43.1184517" lon="12.2468833"><ele>227.60000000000002</ele><time>2026-03-29T12:36:57.328Z</time></trkpt><trkpt lat="43.118475" lon="12.2470133"><ele>228.4</ele><time>2026-03-29T12:36:58.321Z</time></trkpt><trkpt lat="43.1184917" lon="12.247145"><ele>229.2</ele><time>2026-03-29T12:36:59.323Z</time></trkpt><trkpt lat="43.1184983" lon="12.2472717"><ele>230.0</ele><time>2026-03-29T12:37:00.322Z</time></trkpt><trkpt lat="43.1184933" lon="12.2473983"><ele>230.6</ele><time>2026-03-29T12:37:01.322Z</time></trkpt><trkpt lat="43.1184817" lon="12.2475317"><ele>231.2</ele><time>2026-03-29T12:37:02.322Z</time></trkpt><trkpt lat="43.1184683" lon="12.2476683"><ele>231.8</ele><time>2026-03-29T12:37:03.322Z</time></trkpt><trkpt lat="43.1184533" lon="12.2478083"><ele>232.4</ele><time>2026-03-29T12:37:04.325Z</time></trkpt><trkpt lat="43.1184383" lon="12.2479483"><ele>233.0</ele><time>2026-03-29T12:37:05.323Z</time></trkpt><trkpt lat="43.1184217" lon="12.2480783"><ele>233.33333333333334</ele><time>2026-03-29T12:37:06.324Z</time></trkpt><trkpt lat="43.118405" lon="12.2481967"><ele>233.66666666666669</ele><time>2026-03-29T12:37:07.324Z</time></trkpt><trkpt lat="43.1183933" lon="12.2483033"><ele>234.0</ele><time>2026-03-29T12:37:08.322Z</time></trkpt><trkpt lat="43.1183833" lon="12.2484"><ele>234.33333333333331</ele><time>2026-03-29T12:37:09.323Z</time></trkpt><trkpt lat="43.1183817" lon="12.2485533"><ele>234.66666666666666</ele><time>2026-03-29T12:37:11.321Z</time></trkpt><trkpt lat="43.11842" lon="12.24865"><ele>235.0</ele><time>2026-03-29T12:37:13.321Z</time></trkpt><trkpt lat="43.118505" lon="12.24869"><ele>235.0</ele><time>2026-03-29T12:37:15.322Z</time></trkpt><trkpt lat="43.1185717" lon="12.248715"><ele>234.99999999999997</ele><time>2026-03-29T12:37:16.32Z</time></trkpt><trkpt lat="43.118645" lon="12.2487417"><ele>235.0</ele><time>2026-03-29T12:37:17.319Z</time></trkpt><trkpt lat="43.118715" lon="12.2487667"><ele>235.0</ele><time>2026-03-29T12:37:18.319Z</time></trkpt><trkpt lat="43.11879" lon="12.24879"><ele>234.99999999999997</ele><time>2026-03-29T12:37:19.322Z</time></trkpt><trkpt lat="43.11886" lon="12.2488183"><ele>235.0</ele><time>2026-03-29T12:37:20.322Z</time></trkpt><trkpt lat="43.118925" lon="12.2488367"><ele>235.0</ele><time>2026-03-29T12:37:21.322Z</time></trkpt><trkpt lat="43.118995" lon="12.2488467"><ele>235.0</ele><time>2026-03-29T12:37:22.318Z</time></trkpt><trkpt lat="43.1190583" lon="12.2488567"><ele>235.0</ele><time>2026-03-29T12:37:23.322Z</time></trkpt><trkpt lat="43.1191733" lon="12.2488967"><ele>235.0</ele><time>2026-03-29T12:37:25.322Z</time></trkpt><trkpt lat="43.1192683" lon="12.2489517"><ele>235.0</ele><time>2026-03-29T12:37:27.321Z</time></trkpt><trkpt lat="43.1193267" lon="12.2489983"><ele>235.0</ele><time>2026-03-29T12:37:29.321Z</time></trkpt><trkpt lat="43.11936" lon="12.2491417"><ele>235.6</ele><time>2026-03-29T12:37:32.325Z</time></trkpt><trkpt lat="43.119355" lon="12.2493233"><ele>236.2</ele><time>2026-03-29T12:37:34.321Z</time></trkpt><trkpt lat="43.1193583" lon="12.2494333"><ele>236.8</ele><time>2026-03-29T12:37:35.321Z</time></trkpt><trkpt lat="43.1193617" lon="12.24956"><ele>237.4</ele><time>2026-03-29T12:37:36.323Z</time></trkpt><trkpt lat="43.1193567" lon="12.2496867"><ele>238.0</ele><time>2026-03-29T12:37:37.322Z</time></trkpt><trkpt lat="43.1193483" lon="12.2498133"><ele>239.60000000000002</ele><time>2026-03-29T12:37:38.321Z</time></trkpt><trkpt lat="43.1193433" lon="12.2499417"><ele>241.20000000000002</ele><time>2026-03-29T12:37:39.322Z</time></trkpt><trkpt lat="43.1193383" lon="12.25007"><ele>242.8</ele><time>2026-03-29T12:37:40.321Z</time></trkpt><trkpt lat="43.1193317" lon="12.250195"><ele>244.4</ele><time>2026-03-29T12:37:41.322Z</time></trkpt><trkpt lat="43.1193217" lon="12.25032"><ele>246.0</ele><time>2026-03-29T12:37:42.321Z</time></trkpt><trkpt lat="43.119315" lon="12.25045"><ele>246.0</ele><time>2026-03-29T12:37:43.322Z</time></trkpt><trkpt lat="43.11931" lon="12.2505783"><ele>246.00000000000003</ele><time>2026-03-29T12:37:44.321Z</time></trkpt><trkpt lat="43.11931" lon="12.2507017"><ele>246.00000000000003</ele><time>2026-03-29T12:37:45.323Z</time></trkpt><trkpt lat="43.1193133" lon="12.2508067"><ele>246.0</ele><time>2026-03-29T12:37:46.323Z</time></trkpt><trkpt lat="43.1193217" lon="12.25096"><ele>246.0</ele><time>2026-03-29T12:37:48.322Z</time></trkpt><trkpt lat="43.1193233" lon="12.2510867"><ele>247.16666666666666</ele><time>2026-03-29T12:37:50.32Z</time></trkpt><trkpt lat="43.1193133" lon="12.2512033"><ele>248.33333333333331</ele><time>2026-03-29T12:37:52.319Z</time></trkpt><trkpt lat="43.1193067" lon="12.251305"><ele>249.5</ele><time>2026-03-29T12:37:54.321Z</time></trkpt><trkpt lat="43.1192967" lon="12.2513983"><ele>250.66666666666666</ele><time>2026-03-29T12:37:56.323Z</time></trkpt><trkpt lat="43.1192817" lon="12.251495"><ele>251.83333333333331</ele><time>2026-03-29T12:37:58.321Z</time></trkpt><trkpt lat="43.1192533" lon="12.2516233"><ele>253.0</ele><time>2026-03-29T12:38:00.323Z</time></trkpt><trkpt lat="43.1192367" lon="12.2517633"><ele>254.60000000000002</ele><time>2026-03-29T12:38:02.326Z</time></trkpt><trkpt lat="43.1192233" lon="12.2519183"><ele>256.20000000000005</ele><time>2026-03-29T12:38:04.321Z</time></trkpt><trkpt lat="43.1192017" lon="12.2520567"><ele>257.8</ele><time>2026-03-29T12:38:06.322Z</time></trkpt><trkpt lat="43.1191733" lon="12.2522067"><ele>259.40000000000003</ele><time>2026-03-29T12:38:08.322Z</time></trkpt><trkpt lat="43.119135" lon="12.2523483"><ele>261.0</ele><time>2026-03-29T12:38:10.319Z</time></trkpt><trkpt lat="43.1190917" lon="12.252485"><ele>261.5</ele><time>2026-03-29T12:38:12.321Z</time></trkpt><trkpt lat="43.1190433" lon="12.2526"><ele>262.0</ele><time>2026-03-29T12:38:14.319Z</time></trkpt><trkpt lat="43.119035" lon="12.2527117"><ele>262.5</ele><time>2026-03-29T12:38:16.32Z</time></trkpt><trkpt lat="43.1190667" lon="12.2528267"><ele>263.0</ele><time>2026-03-29T12:38:18.32Z</time></trkpt><trkpt lat="43.119115" lon="12.2529317"><ele>263.5</ele><time>2026-03-29T12:38:20.319Z</time></trkpt><trkpt lat="43.11915" lon="12.253045"><ele>264.0</ele><time>2026-03-29T12:38:22.322Z</time></trkpt><trkpt lat="43.1191683" lon="12.25319"><ele>267.3333333333333</ele><time>2026-03-29T12:38:24.322Z</time></trkpt><trkpt lat="43.1191767" lon="12.2532783"><ele>270.6666666666667</ele><time>2026-03-29T12:38:25.316Z</time></trkpt><trkpt lat="43.119185" lon="12.2533667"><ele>274.0</ele><time>2026-03-29T12:38:26.32Z</time></trkpt><trkpt lat="43.119195" lon="12.2535333"><ele>277.33333333333337</ele><time>2026-03-29T12:38:28.321Z</time></trkpt><trkpt lat="43.1192117" lon="12.25371"><ele>280.6666666666667</ele><time>2026-03-29T12:38:30.319Z</time></trkpt><trkpt lat="43.1192167" lon="12.2538017"><ele>284.0</ele><time>2026-03-29T12:38:31.323Z</time></trkpt><trkpt lat="43.1192217" lon="12.2538883"><ele>284.4</ele><time>2026-03-29T12:38:32.32Z</time></trkpt><trkpt lat="43.1192433" lon="12.254045"><ele>284.79999999999995</ele><time>2026-03-29T12:38:34.32Z</time></trkpt><trkpt lat="43.1192433" lon="12.2541383"><ele>285.20000000000005</ele><time>2026-03-29T12:38:36.324Z</time></trkpt><trkpt lat="43.1191567" lon="12.2540617"><ele>285.6</ele><time>2026-03-29T12:38:39.323Z</time></trkpt><trkpt lat="43.1190783" lon="12.2540517"><ele>286.0</ele><time>2026-03-29T12:38:41.321Z</time></trkpt><trkpt lat="43.1189983" lon="12.2541483"><ele>286.0</ele><time>2026-03-29T12:38:43.322Z</time></trkpt><trkpt lat="43.1189533" lon="12.2543217"><ele>286.0</ele><time>2026-03-29T12:38:45.323Z</time></trkpt><trkpt lat="43.1189367" lon="12.254425"><ele>286.0</ele><time>2026-03-29T12:38:46.321Z</time></trkpt><trkpt lat="43.11893" lon="12.25456"><ele>286.0</ele><time>2026-03-29T12:38:47.319Z</time></trkpt><trkpt lat="43.11892" lon="12.2546867"><ele>286.0</ele><time>2026-03-29T12:38:48.321Z</time></trkpt><trkpt lat="43.1189083" lon="12.2547933"><ele>287.3333333333333</ele><time>2026-03-29T12:38:49.327Z</time></trkpt><trkpt lat="43.1189033" lon="12.2548917"><ele>288.66666666666663</ele><time>2026-03-29T12:38:50.322Z</time></trkpt><trkpt lat="43.1189" lon="12.254985"><ele>290.0</ele><time>2026-03-29T12:38:51.322Z</time></trkpt><trkpt lat="43.11888" lon="12.255075"><ele>291.3333333333333</ele><time>2026-03-29T12:38:52.321Z</time></trkpt><trkpt lat="43.1188433" lon="12.2552533"><ele>292.6666666666667</ele><time>2026-03-29T12:38:54.322Z</time></trkpt><trkpt lat="43.11885" lon="12.2553533"><ele>294.0</ele><time>2026-03-29T12:38:55.319Z</time></trkpt><trkpt lat="43.11887" lon="12.25544"><ele>294.0</ele><time>2026-03-29T12:38:56.32Z</time></trkpt><trkpt lat="43.1189033" lon="12.2555333"><ele>294.0</ele><time>2026-03-29T12:38:57.322Z</time></trkpt><trkpt lat="43.118975" lon="12.2556683"><ele>294.0</ele><time>2026-03-29T12:38:59.324Z</time></trkpt><trkpt lat="43.1190733" lon="12.2556967"><ele>294.0</ele><time>2026-03-29T12:39:01.321Z</time></trkpt><trkpt lat="43.1191867" lon="12.25564"><ele>294.0</ele><time>2026-03-29T12:39:03.327Z</time></trkpt><trkpt lat="43.11926" lon="12.25561"><ele>296.6666666666667</ele><time>2026-03-29T12:39:04.32Z</time></trkpt><trkpt lat="43.1193333" lon="12.2555817"><ele>299.3333333333333</ele><time>2026-03-29T12:39:05.32Z</time></trkpt><trkpt lat="43.1194183" lon="12.2555533"><ele>302.0</ele><time>2026-03-29T12:39:06.321Z</time></trkpt><trkpt lat="43.11949" lon="12.2555367"><ele>304.66666666666663</ele><time>2026-03-29T12:39:07.323Z</time></trkpt><trkpt lat="43.119565" lon="12.2555317"><ele>307.3333333333333</ele><time>2026-03-29T12:39:08.322Z</time></trkpt><trkpt lat="43.11964" lon="12.2555333"><ele>310.0</ele><time>2026-03-29T12:39:09.321Z</time></trkpt><trkpt lat="43.119715" lon="12.2555467"><ele>310.0</ele><time>2026-03-29T12:39:10.32Z</time></trkpt><trkpt lat="43.1197983" lon="12.2555717"><ele>310.0</ele><time>2026-03-29T12:39:11.32Z</time></trkpt><trkpt lat="43.119875" lon="12.255595"><ele>310.0</ele><time>2026-03-29T12:39:12.32Z</time></trkpt><trkpt lat="43.1199417" lon="12.255625"><ele>310.0</ele><time>2026-03-29T12:39:13.32Z</time></trkpt><trkpt lat="43.1200083" lon="12.255645"><ele>310.0</ele><time>2026-03-29T12:39:14.32Z</time></trkpt><trkpt lat="43.1200717" lon="12.255655"><ele>310.0</ele><time>2026-03-29T12:39:15.321Z</time></trkpt><trkpt lat="43.1201817" lon="12.2556683"><ele>313.3333333333333</ele><time>2026-03-29T12:39:17.321Z</time></trkpt><trkpt lat="43.1202733" lon="12.2557267"><ele>316.66666666666663</ele><time>2026-03-29T12:39:19.319Z</time></trkpt><trkpt lat="43.1203867" lon="12.2558033"><ele>320.0</ele><time>2026-03-29T12:39:21.327Z</time></trkpt><trkpt lat="43.1204567" lon="12.2558267"><ele>323.3333333333333</ele><time>2026-03-29T12:39:22.324Z</time></trkpt><trkpt lat="43.1205267" lon="12.2558367"><ele>326.6666666666667</ele><time>2026-03-29T12:39:23.318Z</time></trkpt><trkpt lat="43.1205967" lon="12.255835"><ele>330.0</ele><time>2026-03-29T12:39:24.322Z</time></trkpt><trkpt lat="43.120725" lon="12.2558417"><ele>330.0</ele><time>2026-03-29T12:39:26.32Z</time></trkpt><trkpt lat="43.1208183" lon="12.2558933"><ele>330.0</ele><time>2026-03-29T12:39:28.323Z</time></trkpt><trkpt lat="43.1208783" lon="12.2559517"><ele>330.0</ele><time>2026-03-29T12:39:30.321Z</time></trkpt><trkpt lat="43.12085" lon="12.2560583"><ele>330.0</ele><time>2026-03-29T12:39:37.321Z</time></trkpt><trkpt lat="43.1208033" lon="12.25613"><ele>330.0</ele><time>2026-03-29T12:39:39.322Z</time></trkpt><trkpt lat="43.1207567" lon="12.2562083"><ele>330.0</ele><time>2026-03-29T12:39:41.324Z</time></trkpt><trkpt lat="43.1207083" lon="12.2562783"><ele>330.0</ele><time>2026-03-29T12:39:43.319Z</time></trkpt><trkpt lat="43.1206567" lon="12.256335"><ele>330.0</ele><time>2026-03-29T12:39:45.323Z</time></trkpt><trkpt lat="43.1206033" lon="12.2563983"><ele>330.0</ele><time>2026-03-29T12:39:47.32Z</time></trkpt><trkpt lat="43.1205517" lon="12.2564933"><ele>330.0</ele><time>2026-03-29T12:39:49.319Z</time></trkpt><trkpt lat="43.1204867" lon="12.25659"><ele>330.0</ele><time>2026-03-29T12:39:51.322Z</time></trkpt><trkpt lat="43.1204033" lon="12.2566433"><ele>330.0</ele><time>2026-03-29T12:39:53.321Z</time></trkpt><trkpt lat="43.1202817" lon="12.2567283"><ele>330.6666666666667</ele><time>2026-03-29T12:39:55.321Z</time></trkpt><trkpt lat="43.1202167" lon="12.25678"><ele>331.3333333333333</ele><time>2026-03-29T12:39:56.322Z</time></trkpt><trkpt lat="43.12015" lon="12.25683"><ele>332.0</ele><time>2026-03-29T12:39:57.323Z</time></trkpt><trkpt lat="43.1200867" lon="12.25687"><ele>332.66666666666663</ele><time>2026-03-29T12:39:58.322Z</time></trkpt><trkpt lat="43.1200267" lon="12.2568967"><ele>333.3333333333333</ele><time>2026-03-29T12:39:59.323Z</time></trkpt><trkpt lat="43.1199333" lon="12.2569433"><ele>334.0</ele><time>2026-03-29T12:40:01.32Z</time></trkpt><trkpt lat="43.1198933" lon="12.257025"><ele>334.0</ele><time>2026-03-29T12:40:03.321Z</time></trkpt><trkpt lat="43.1198833" lon="12.2571317"><ele>334.0</ele><time>2026-03-29T12:40:06.323Z</time></trkpt><trkpt lat="43.119855" lon="12.2572117"><ele>334.0</ele><time>2026-03-29T12:40:08.321Z</time></trkpt><trkpt lat="43.1198233" lon="12.257305"><ele>334.0</ele><time>2026-03-29T12:40:10.323Z</time></trkpt><trkpt lat="43.119805" lon="12.2574567"><ele>334.0</ele><time>2026-03-29T12:40:12.322Z</time></trkpt><trkpt lat="43.1197783" lon="12.2575633"><ele>334.0</ele><time>2026-03-29T12:40:13.322Z</time></trkpt><trkpt lat="43.1197383" lon="12.2576967"><ele>336.79999999999995</ele><time>2026-03-29T12:40:14.323Z</time></trkpt><trkpt lat="43.1197" lon="12.257835"><ele>339.59999999999997</ele><time>2026-03-29T12:40:15.322Z</time></trkpt><trkpt lat="43.1196567" lon="12.2579683"><ele>342.4</ele><time>2026-03-29T12:40:16.32Z</time></trkpt><trkpt lat="43.1196067" lon="12.2580933"><ele>345.2</ele><time>2026-03-29T12:40:17.319Z</time></trkpt><trkpt lat="43.119545" lon="12.258215"><ele>348.0</ele><time>2026-03-29T12:40:18.323Z</time></trkpt><trkpt lat="43.1194833" lon="12.2583383"><ele>351.2</ele><time>2026-03-29T12:40:19.32Z</time></trkpt><trkpt lat="43.1194333" lon="12.2584717"><ele>354.4</ele><time>2026-03-29T12:40:20.324Z</time></trkpt><trkpt lat="43.1193883" lon="12.2586017"><ele>357.59999999999997</ele><time>2026-03-29T12:40:21.326Z</time></trkpt><trkpt lat="43.1193517" lon="12.2587183"><ele>360.79999999999995</ele><time>2026-03-29T12:40:22.323Z</time></trkpt><trkpt lat="43.1193183" lon="12.2588333"><ele>364.0</ele><time>2026-03-29T12:40:23.321Z</time></trkpt><trkpt lat="43.11928" lon="12.2589433"><ele>364.16666666666663</ele><time>2026-03-29T12:40:24.32Z</time></trkpt><trkpt lat="43.1192433" lon="12.259055"><ele>364.3333333333333</ele><time>2026-03-29T12:40:25.325Z</time></trkpt><trkpt lat="43.1192067" lon="12.25916"><ele>364.5</ele><time>2026-03-29T12:40:26.32Z</time></trkpt><trkpt lat="43.1191567" lon="12.2592517"><ele>364.6666666666667</ele><time>2026-03-29T12:40:27.32Z</time></trkpt><trkpt lat="43.1190967" lon="12.25934"><ele>364.83333333333337</ele><time>2026-03-29T12:40:28.322Z</time></trkpt><trkpt lat="43.1190367" lon="12.2594267"><ele>365.0</ele><time>2026-03-29T12:40:29.325Z</time></trkpt><trkpt lat="43.1189617" lon="12.2595133"><ele>365.00000000000006</ele><time>2026-03-29T12:40:30.319Z</time></trkpt><trkpt lat="43.1189083" lon="12.259605"><ele>365.0</ele><time>2026-03-29T12:40:31.32Z</time></trkpt><trkpt lat="43.1188717" lon="12.259705"><ele>365.0</ele><time>2026-03-29T12:40:32.319Z</time></trkpt><trkpt lat="43.1188367" lon="12.25979"><ele>365.0</ele><time>2026-03-29T12:40:33.322Z</time></trkpt><trkpt lat="43.1187967" lon="12.2598633"><ele>365.0</ele><time>2026-03-29T12:40:34.322Z</time></trkpt><trkpt lat="43.1187583" lon="12.2599367"><ele>365.00000000000006</ele><time>2026-03-29T12:40:35.324Z</time></trkpt><trkpt lat="43.1187167" lon="12.26002"><ele>365.0</ele><time>2026-03-29T12:40:36.321Z</time></trkpt><trkpt lat="43.1186833" lon="12.2601183"><ele>366.5714285714286</ele><time>2026-03-29T12:40:37.324Z</time></trkpt><trkpt lat="43.1186467" lon="12.260215"><ele>368.14285714285717</ele><time>2026-03-29T12:40:38.323Z</time></trkpt><trkpt lat="43.1186067" lon="12.2602967"><ele>369.7142857142857</ele><time>2026-03-29T12:40:39.322Z</time></trkpt><trkpt lat="43.1185583" lon="12.260375"><ele>371.28571428571433</ele><time>2026-03-29T12:40:40.322Z</time></trkpt><trkpt lat="43.1185117" lon="12.260455"><ele>372.85714285714283</ele><time>2026-03-29T12:40:41.32Z</time></trkpt><trkpt lat="43.1184617" lon="12.2605233"><ele>374.42857142857144</ele><time>2026-03-29T12:40:42.318Z</time></trkpt><trkpt lat="43.11842" lon="12.2605983"><ele>376.0</ele><time>2026-03-29T12:40:43.323Z</time></trkpt><trkpt lat="43.1183617" lon="12.260655"><ele>375.42857142857144</ele><time>2026-03-29T12:40:44.321Z</time></trkpt><trkpt lat="43.1183" lon="12.2607033"><ele>374.85714285714283</ele><time>2026-03-29T12:40:45.32Z</time></trkpt><trkpt lat="43.118235" lon="12.260745"><ele>374.28571428571433</ele><time>2026-03-29T12:40:46.321Z</time></trkpt><trkpt lat="43.1181717" lon="12.26078"><ele>373.7142857142857</ele><time>2026-03-29T12:40:47.321Z</time></trkpt><trkpt lat="43.11809" lon="12.2608367"><ele>373.14285714285717</ele><time>2026-03-29T12:40:49.321Z</time></trkpt><trkpt lat="43.1181367" lon="12.2609033"><ele>372.5714285714286</ele><time>2026-03-29T12:41:04.319Z</time></trkpt><trkpt lat="43.1182117" lon="12.2609383"><ele>372.0</ele><time>2026-03-29T12:41:06.322Z</time></trkpt><trkpt lat="43.118295" lon="12.26094"><ele>373.8333333333333</ele><time>2026-03-29T12:41:08.323Z</time></trkpt><trkpt lat="43.1183633" lon="12.26094"><ele>375.6666666666667</ele><time>2026-03-29T12:41:11.322Z</time></trkpt><trkpt lat="43.118435" lon="12.2609333"><ele>377.5</ele><time>2026-03-29T12:41:14.321Z</time></trkpt><trkpt lat="43.1184967" lon="12.2609117"><ele>379.33333333333337</ele><time>2026-03-29T12:41:16.321Z</time></trkpt><trkpt lat="43.118555" lon="12.2608683"><ele>381.1666666666667</ele><time>2026-03-29T12:41:19.322Z</time></trkpt><trkpt lat="43.1186267" lon="12.2607583"><ele>383.0</ele><time>2026-03-29T12:43:50.322Z</time></trkpt><trkpt lat="43.1187217" lon="12.2607517"><ele>383.0</ele><time>2026-03-29T12:44:19.323Z</time></trkpt><trkpt lat="43.1187917" lon="12.2607517"><ele>383.0</ele><time>2026-03-29T12:44:22.321Z</time></trkpt><trkpt lat="43.1188567" lon="12.26077"><ele>383.0</ele><time>2026-03-29T12:44:26.321Z</time></trkpt><trkpt lat="43.1189133" lon="12.2608267"><ele>383.0</ele><time>2026-03-29T12:44:29.32Z</time></trkpt><trkpt lat="43.1189883" lon="12.2608517"><ele>383.0</ele><time>2026-03-29T12:44:31.323Z</time></trkpt><trkpt lat="43.1190717" lon="12.2608683"><ele>383.0</ele><time>2026-03-29T12:44:34.321Z</time></trkpt><trkpt lat="43.1191717" lon="12.2609417"><ele>384.1428571428571</ele><time>2026-03-29T12:44:49.323Z</time></trkpt><trkpt lat="43.1192183" lon="12.261005"><ele>385.2857142857143</ele><time>2026-03-29T12:44:51.323Z</time></trkpt><trkpt lat="43.1192717" lon="12.2610767"><ele>386.42857142857144</ele><time>2026-03-29T12:44:53.324Z</time></trkpt><trkpt lat="43.119325" lon="12.26113"><ele>387.57142857142856</ele><time>2026-03-29T12:44:55.325Z</time></trkpt><trkpt lat="43.119385" lon="12.26118"><ele>388.7142857142857</ele><time>2026-03-29T12:44:57.322Z</time></trkpt><trkpt lat="43.1194517" lon="12.2612267"><ele>389.85714285714283</ele><time>2026-03-29T12:44:59.322Z</time></trkpt><trkpt lat="43.1195267" lon="12.2612933"><ele>391.0</ele><time>2026-03-29T12:45:01.323Z</time></trkpt><trkpt lat="43.1195833" lon="12.2613367"><ele>390.99999999999994</ele><time>2026-03-29T12:45:03.321Z</time></trkpt><trkpt lat="43.119645" lon="12.261375"><ele>391.0</ele><time>2026-03-29T12:45:05.322Z</time></trkpt><trkpt lat="43.1197233" lon="12.2614217"><ele>391.0</ele><time>2026-03-29T12:45:07.324Z</time></trkpt><trkpt lat="43.1197817" lon="12.2615017"><ele>391.0</ele><time>2026-03-29T12:45:09.325Z</time></trkpt><trkpt lat="43.1198233" lon="12.261585"><ele>391.0</ele><time>2026-03-29T12:45:11.323Z</time></trkpt><trkpt lat="43.119865" lon="12.2616567"><ele>390.99999999999994</ele><time>2026-03-29T12:45:13.32Z</time></trkpt><trkpt lat="43.1199133" lon="12.2617267"><ele>391.0</ele><time>2026-03-29T12:45:15.324Z</time></trkpt><trkpt lat="43.1199667" lon="12.2617867"><ele>388.50000000000006</ele><time>2026-03-29T12:45:17.322Z</time></trkpt><trkpt lat="43.12003" lon="12.2618767"><ele>386.0</ele><time>2026-03-29T12:45:19.324Z</time></trkpt><trkpt lat="43.120045" lon="12.2619767"><ele>383.5</ele><time>2026-03-29T12:45:24.325Z</time></trkpt><trkpt lat="43.1200267" lon="12.262065"><ele>381.0</ele><time>2026-03-29T12:45:28.325Z</time></trkpt><trkpt lat="43.1200983" lon="12.2621317"><ele>378.5</ele><time>2026-03-29T12:45:32.324Z</time></trkpt><trkpt lat="43.1201467" lon="12.2622233"><ele>376.0</ele><time>2026-03-29T12:45:34.326Z</time></trkpt><trkpt lat="43.1201783" lon="12.26231"><ele>374.0</ele><time>2026-03-29T12:45:36.321Z</time></trkpt><trkpt lat="43.120205" lon="12.2624017"><ele>372.0</ele><time>2026-03-29T12:45:38.324Z</time></trkpt><trkpt lat="43.1202517" lon="12.2625167"><ele>370.0</ele><time>2026-03-29T12:45:40.321Z</time></trkpt><trkpt lat="43.1203033" lon="12.262605"><ele>368.0</ele><time>2026-03-29T12:45:42.322Z</time></trkpt><trkpt lat="43.1203417" lon="12.2627"><ele>366.0</ele><time>2026-03-29T12:45:44.323Z</time></trkpt><trkpt lat="43.1203817" lon="12.2628133"><ele>364.0</ele><time>2026-03-29T12:45:47.322Z</time></trkpt><trkpt lat="43.120435" lon="12.2628933"><ele>364.0</ele><time>2026-03-29T12:45:50.321Z</time></trkpt><trkpt lat="43.12046" lon="12.2629733"><ele>364.0</ele><time>2026-03-29T12:45:53.322Z</time></trkpt><trkpt lat="43.1204917" lon="12.2630633"><ele>364.0</ele><time>2026-03-29T12:45:57.323Z</time></trkpt><trkpt lat="43.1205283" lon="12.2631583"><ele>364.0</ele><time>2026-03-29T12:46:01.322Z</time></trkpt><trkpt lat="43.1205383" lon="12.263255"><ele>364.0</ele><time>2026-03-29T12:46:04.32Z</time></trkpt><trkpt lat="43.1205717" lon="12.2633533"><ele>364.0</ele><time>2026-03-29T12:46:07.322Z</time></trkpt><trkpt lat="43.1206317" lon="12.2635117"><ele>362.0</ele><time>2026-03-29T12:46:39.321Z</time></trkpt><trkpt lat="43.1206033" lon="12.2636067"><ele>360.0</ele><time>2026-03-29T12:46:45.326Z</time></trkpt><trkpt lat="43.120565" lon="12.263705"><ele>358.0</ele><time>2026-03-29T12:46:48.324Z</time></trkpt><trkpt lat="43.1206833" lon="12.263705"><ele>356.0</ele><time>2026-03-29T12:46:57.324Z</time></trkpt><trkpt lat="43.1207683" lon="12.2636667"><ele>354.0</ele><time>2026-03-29T12:46:58.324Z</time></trkpt><trkpt lat="43.120845" lon="12.2636417"><ele>352.0</ele><time>2026-03-29T12:46:59.322Z</time></trkpt><trkpt lat="43.1209217" lon="12.2636383"><ele>350.8333333333333</ele><time>2026-03-29T12:47:00.322Z</time></trkpt><trkpt lat="43.1210067" lon="12.263645"><ele>349.66666666666663</ele><time>2026-03-29T12:47:01.324Z</time></trkpt><trkpt lat="43.1210883" lon="12.26365"><ele>348.5</ele><time>2026-03-29T12:47:02.32Z</time></trkpt><trkpt lat="43.1211683" lon="12.26366"><ele>347.3333333333333</ele><time>2026-03-29T12:47:03.32Z</time></trkpt><trkpt lat="43.1212433" lon="12.26367"><ele>346.1666666666667</ele><time>2026-03-29T12:47:04.322Z</time></trkpt><trkpt lat="43.12132" lon="12.263685"><ele>345.0</ele><time>2026-03-29T12:47:05.323Z</time></trkpt><trkpt lat="43.12139" lon="12.2636933"><ele>345.0</ele><time>2026-03-29T12:47:06.323Z</time></trkpt><trkpt lat="43.1214633" lon="12.2636983"><ele>345.0</ele><time>2026-03-29T12:47:07.32Z</time></trkpt><trkpt lat="43.1215367" lon="12.2637"><ele>345.0</ele><time>2026-03-29T12:47:08.321Z</time></trkpt><trkpt lat="43.1216017" lon="12.263695"><ele>345.0</ele><time>2026-03-29T12:47:09.321Z</time></trkpt><trkpt lat="43.1217233" lon="12.26369"><ele>345.0</ele><time>2026-03-29T12:47:11.323Z</time></trkpt><trkpt lat="43.12182" lon="12.263685"><ele>345.0</ele><time>2026-03-29T12:47:13.32Z</time></trkpt><trkpt lat="43.1219217" lon="12.2636817"><ele>342.2</ele><time>2026-03-29T12:47:15.32Z</time></trkpt><trkpt lat="43.1220433" lon="12.2636817"><ele>339.4</ele><time>2026-03-29T12:47:17.322Z</time></trkpt><trkpt lat="43.1221467" lon="12.26368"><ele>336.6</ele><time>2026-03-29T12:47:19.324Z</time></trkpt><trkpt lat="43.1222483" lon="12.2636683"><ele>333.8</ele><time>2026-03-29T12:47:21.322Z</time></trkpt><trkpt lat="43.1223517" lon="12.2636567"><ele>331.0</ele><time>2026-03-29T12:47:23.321Z</time></trkpt><trkpt lat="43.1224633" lon="12.26364"><ele>329.5</ele><time>2026-03-29T12:47:25.32Z</time></trkpt><trkpt lat="43.1225833" lon="12.263625"><ele>328.0</ele><time>2026-03-29T12:47:27.32Z</time></trkpt><trkpt lat="43.12265" lon="12.2636283"><ele>326.5</ele><time>2026-03-29T12:47:28.321Z</time></trkpt><trkpt lat="43.1227167" lon="12.263645"><ele>325.0</ele><time>2026-03-29T12:47:29.324Z</time></trkpt><trkpt lat="43.122785" lon="12.263675"><ele>323.5</ele><time>2026-03-29T12:47:30.322Z</time></trkpt><trkpt lat="43.1228483" lon="12.2637183"><ele>322.0</ele><time>2026-03-29T12:47:31.323Z</time></trkpt><trkpt lat="43.1229083" lon="12.2637717"><ele>322.0</ele><time>2026-03-29T12:47:32.321Z</time></trkpt><trkpt lat="43.1229583" lon="12.2638367"><ele>322.0</ele><time>2026-03-29T12:47:33.322Z</time></trkpt><trkpt lat="43.123025" lon="12.26396"><ele>322.0</ele><time>2026-03-29T12:47:35.321Z</time></trkpt><trkpt lat="43.1231233" lon="12.264065"><ele>322.0</ele><time>2026-03-29T12:47:37.321Z</time></trkpt><trkpt lat="43.123195" lon="12.2641233"><ele>322.0</ele><time>2026-03-29T12:47:38.324Z</time></trkpt><trkpt lat="43.1232783" lon="12.2641817"><ele>321.5</ele><time>2026-03-29T12:47:39.322Z</time></trkpt><trkpt lat="43.123365" lon="12.2642483"><ele>321.0</ele><time>2026-03-29T12:47:40.32Z</time></trkpt><trkpt lat="43.1234467" lon="12.26431"><ele>320.5</ele><time>2026-03-29T12:47:41.319Z</time></trkpt><trkpt lat="43.1235167" lon="12.26437"><ele>320.0</ele><time>2026-03-29T12:47:42.323Z</time></trkpt><trkpt lat="43.1235817" lon="12.2644267"><ele>319.5</ele><time>2026-03-29T12:47:43.321Z</time></trkpt><trkpt lat="43.1236483" lon="12.2645183"><ele>319.0</ele><time>2026-03-29T12:47:45.323Z</time></trkpt><trkpt lat="43.123685" lon="12.2646433"><ele>319.0</ele><time>2026-03-29T12:47:47.323Z</time></trkpt><trkpt lat="43.1236733" lon="12.26477"><ele>319.0</ele><time>2026-03-29T12:47:49.323Z</time></trkpt><trkpt lat="43.1237067" lon="12.26485"><ele>319.0</ele><time>2026-03-29T12:47:51.321Z</time></trkpt><trkpt lat="43.1237733" lon="12.2648633"><ele>319.0</ele><time>2026-03-29T12:47:53.32Z</time></trkpt><trkpt lat="43.123905" lon="12.2648583"><ele>319.0</ele><time>2026-03-29T12:47:55.321Z</time></trkpt><trkpt lat="43.1239917" lon="12.2648467"><ele>319.0</ele><time>2026-03-29T12:47:56.322Z</time></trkpt><trkpt lat="43.1240867" lon="12.2648333"><ele>315.8</ele><time>2026-03-29T12:47:57.323Z</time></trkpt><trkpt lat="43.1241817" lon="12.2648317"><ele>312.59999999999997</ele><time>2026-03-29T12:47:58.321Z</time></trkpt><trkpt lat="43.1242783" lon="12.2648367"><ele>309.4</ele><time>2026-03-29T12:47:59.321Z</time></trkpt><trkpt lat="43.12437" lon="12.264855"><ele>306.2</ele><time>2026-03-29T12:48:00.322Z</time></trkpt><trkpt lat="43.1244633" lon="12.264895"><ele>303.0</ele><time>2026-03-29T12:48:01.331Z</time></trkpt><trkpt lat="43.1245633" lon="12.2649433"><ele>303.0</ele><time>2026-03-29T12:48:02.324Z</time></trkpt><trkpt lat="43.1246767" lon="12.2650033"><ele>303.0</ele><time>2026-03-29T12:48:03.327Z</time></trkpt><trkpt lat="43.1247933" lon="12.2650683"><ele>303.0</ele><time>2026-03-29T12:48:04.324Z</time></trkpt><trkpt lat="43.12492" lon="12.265125"><ele>303.0</ele><time>2026-03-29T12:48:05.323Z</time></trkpt><trkpt lat="43.1250567" lon="12.26519"><ele>302.3333333333333</ele><time>2026-03-29T12:48:06.326Z</time></trkpt><trkpt lat="43.1251983" lon="12.26526"><ele>301.66666666666663</ele><time>2026-03-29T12:48:07.324Z</time></trkpt><trkpt lat="43.1253467" lon="12.2653233"><ele>301.0</ele><time>2026-03-29T12:48:08.328Z</time></trkpt><trkpt lat="43.1254983" lon="12.2653717"><ele>301.0</ele><time>2026-03-29T12:48:09.326Z</time></trkpt><trkpt lat="43.1256467" lon="12.2654183"><ele>301.0</ele><time>2026-03-29T12:48:10.323Z</time></trkpt><trkpt lat="43.1258017" lon="12.2654583"><ele>301.0</ele><time>2026-03-29T12:48:11.323Z</time></trkpt><trkpt lat="43.1259583" lon="12.2654983"><ele>300.3333333333333</ele><time>2026-03-29T12:48:12.323Z</time></trkpt><trkpt lat="43.126115" lon="12.2655317"><ele>299.6666666666667</ele><time>2026-03-29T12:48:13.321Z</time></trkpt><trkpt lat="43.12627" lon="12.265575"><ele>299.0</ele><time>2026-03-29T12:48:14.322Z</time></trkpt><trkpt lat="43.1264217" lon="12.265615"><ele>296.25</ele><time>2026-03-29T12:48:15.324Z</time></trkpt><trkpt lat="43.1265633" lon="12.2656567"><ele>293.5</ele><time>2026-03-29T12:48:16.32Z</time></trkpt><trkpt lat="43.1267017" lon="12.2656983"><ele>290.75</ele><time>2026-03-29T12:48:17.323Z</time></trkpt><trkpt lat="43.126835" lon="12.2657333"><ele>288.0</ele><time>2026-03-29T12:48:18.319Z</time></trkpt><trkpt lat="43.1269633" lon="12.265775"><ele>288.0</ele><time>2026-03-29T12:48:19.326Z</time></trkpt><trkpt lat="43.1270917" lon="12.26581"><ele>288.0</ele><time>2026-03-29T12:48:20.325Z</time></trkpt><trkpt lat="43.127225" lon="12.2658467"><ele>288.0</ele><time>2026-03-29T12:48:21.325Z</time></trkpt><trkpt lat="43.12736" lon="12.2658867"><ele>288.0</ele><time>2026-03-29T12:48:22.323Z</time></trkpt><trkpt lat="43.1274933" lon="12.2659217"><ele>287.5</ele><time>2026-03-29T12:48:23.323Z</time></trkpt><trkpt lat="43.1276233" lon="12.26595"><ele>287.0</ele><time>2026-03-29T12:48:24.322Z</time></trkpt><trkpt lat="43.127755" lon="12.2659667"><ele>286.5</ele><time>2026-03-29T12:48:25.322Z</time></trkpt><trkpt lat="43.12789" lon="12.2659717"><ele>286.0</ele><time>2026-03-29T12:48:26.32Z</time></trkpt><trkpt lat="43.1280283" lon="12.2659617"><ele>286.0</ele><time>2026-03-29T12:48:27.321Z</time></trkpt><trkpt lat="43.12817" lon="12.2659367"><ele>286.0</ele><time>2026-03-29T12:48:28.325Z</time></trkpt><trkpt lat="43.1283133" lon="12.2659033"><ele>286.0</ele><time>2026-03-29T12:48:29.322Z</time></trkpt><trkpt lat="43.1284567" lon="12.2658617"><ele>286.0</ele><time>2026-03-29T12:48:30.322Z</time></trkpt><trkpt lat="43.1286" lon="12.2658067"><ele>284.0</ele><time>2026-03-29T12:48:31.32Z</time></trkpt><trkpt lat="43.1287467" lon="12.2657433"><ele>282.0</ele><time>2026-03-29T12:48:32.321Z</time></trkpt><trkpt lat="43.1288933" lon="12.2656733"><ele>280.0</ele><time>2026-03-29T12:48:33.318Z</time></trkpt><trkpt lat="43.1290383" lon="12.2656083"><ele>278.5</ele><time>2026-03-29T12:48:34.32Z</time></trkpt><trkpt lat="43.1291733" lon="12.26555"><ele>277.0</ele><time>2026-03-29T12:48:35.32Z</time></trkpt><trkpt lat="43.1293033" lon="12.26549"><ele>275.5</ele><time>2026-03-29T12:48:36.322Z</time></trkpt><trkpt lat="43.1294233" lon="12.2654283"><ele>274.0</ele><time>2026-03-29T12:48:37.323Z</time></trkpt><trkpt lat="43.129535" lon="12.2653517"><ele>274.0</ele><time>2026-03-29T12:48:38.321Z</time></trkpt><trkpt lat="43.1296333" lon="12.2652633"><ele>274.0</ele><time>2026-03-29T12:48:39.32Z</time></trkpt><trkpt lat="43.1297167" lon="12.2651667"><ele>274.0</ele><time>2026-03-29T12:48:40.321Z</time></trkpt><trkpt lat="43.1297783" lon="12.2650617"><ele>274.0</ele><time>2026-03-29T12:48:41.323Z</time></trkpt><trkpt lat="43.1298183" lon="12.2649417"><ele>274.0</ele><time>2026-03-29T12:48:42.327Z</time></trkpt><trkpt lat="43.1298383" lon="12.26481"><ele>273.59999999999997</ele><time>2026-03-29T12:48:43.321Z</time></trkpt><trkpt lat="43.129855" lon="12.26467"><ele>273.2</ele><time>2026-03-29T12:48:44.32Z</time></trkpt><trkpt lat="43.1298717" lon="12.2645267"><ele>272.79999999999995</ele><time>2026-03-29T12:48:45.323Z</time></trkpt><trkpt lat="43.1298867" lon="12.2643867"><ele>272.4</ele><time>2026-03-29T12:48:46.323Z</time></trkpt><trkpt lat="43.1298967" lon="12.2642483"><ele>272.0</ele><time>2026-03-29T12:48:47.321Z</time></trkpt><trkpt lat="43.129895" lon="12.2641167"><ele>272.0</ele><time>2026-03-29T12:48:48.321Z</time></trkpt><trkpt lat="43.12988" lon="12.2640067"><ele>272.0</ele><time>2026-03-29T12:48:49.323Z</time></trkpt><trkpt lat="43.1298683" lon="12.263915"><ele>272.0</ele><time>2026-03-29T12:48:50.323Z</time></trkpt><trkpt lat="43.1298883" lon="12.2637717"><ele>272.0</ele><time>2026-03-29T12:48:52.321Z</time></trkpt><trkpt lat="43.1299583" lon="12.2637583"><ele>272.0</ele><time>2026-03-29T12:48:53.32Z</time></trkpt><trkpt lat="43.1300417" lon="12.26378"><ele>272.0</ele><time>2026-03-29T12:48:54.321Z</time></trkpt><trkpt lat="43.1301233" lon="12.2638167"><ele>270.5</ele><time>2026-03-29T12:48:55.319Z</time></trkpt><trkpt lat="43.13021" lon="12.2638633"><ele>269.0</ele><time>2026-03-29T12:48:56.321Z</time></trkpt><trkpt lat="43.1302917" lon="12.2639217"><ele>267.5</ele><time>2026-03-29T12:48:57.322Z</time></trkpt><trkpt lat="43.1303667" lon="12.2639817"><ele>266.0</ele><time>2026-03-29T12:48:58.322Z</time></trkpt><trkpt lat="43.1304367" lon="12.2640417"><ele>264.5</ele><time>2026-03-29T12:48:59.321Z</time></trkpt><trkpt lat="43.130505" lon="12.2640983"><ele>263.0</ele><time>2026-03-29T12:49:00.32Z</time></trkpt><trkpt lat="43.130565" lon="12.26414"><ele>263.0</ele><time>2026-03-29T12:49:01.32Z</time></trkpt><trkpt lat="43.1306267" lon="12.2641583"><ele>263.0</ele><time>2026-03-29T12:49:02.319Z</time></trkpt><trkpt lat="43.13071" lon="12.26415"><ele>263.0</ele><time>2026-03-29T12:49:03.32Z</time></trkpt><trkpt lat="43.1308183" lon="12.2641217"><ele>263.0</ele><time>2026-03-29T12:49:04.323Z</time></trkpt><trkpt lat="43.1309217" lon="12.264085"><ele>263.0</ele><time>2026-03-29T12:49:05.32Z</time></trkpt><trkpt lat="43.1310383" lon="12.264045"><ele>260.0</ele><time>2026-03-29T12:49:06.319Z</time></trkpt><trkpt lat="43.1311567" lon="12.2640067"><ele>257.0</ele><time>2026-03-29T12:49:07.322Z</time></trkpt><trkpt lat="43.1312733" lon="12.2639583"><ele>254.0</ele><time>2026-03-29T12:49:08.323Z</time></trkpt><trkpt lat="43.1313867" lon="12.263905"><ele>251.0</ele><time>2026-03-29T12:49:09.32Z</time></trkpt><trkpt lat="43.1314883" lon="12.2638567"><ele>248.4</ele><time>2026-03-29T12:49:10.319Z</time></trkpt><trkpt lat="43.1315767" lon="12.26382"><ele>245.8</ele><time>2026-03-29T12:49:11.321Z</time></trkpt><trkpt lat="43.13166" lon="12.2637983"><ele>243.20000000000002</ele><time>2026-03-29T12:49:12.32Z</time></trkpt><trkpt lat="43.1317383" lon="12.26379"><ele>240.60000000000002</ele><time>2026-03-29T12:49:13.322Z</time></trkpt><trkpt lat="43.1318467" lon="12.2637883"><ele>238.0</ele><time>2026-03-29T12:49:15.327Z</time></trkpt><trkpt lat="43.1319283" lon="12.2636683"><ele>238.0</ele><time>2026-03-29T12:49:17.321Z</time></trkpt><trkpt lat="43.13197" lon="12.2635533"><ele>238.0</ele><time>2026-03-29T12:49:18.322Z</time></trkpt><trkpt lat="43.1320117" lon="12.2634233"><ele>238.0</ele><time>2026-03-29T12:49:19.323Z</time></trkpt><trkpt lat="43.1320617" lon="12.263275"><ele>238.0</ele><time>2026-03-29T12:49:20.32Z</time></trkpt><trkpt lat="43.1321133" lon="12.2631183"><ele>238.0</ele><time>2026-03-29T12:49:21.321Z</time></trkpt><trkpt lat="43.1321617" lon="12.2629517"><ele>237.5</ele><time>2026-03-29T12:49:22.324Z</time></trkpt><trkpt lat="43.1322033" lon="12.26278"><ele>237.0</ele><time>2026-03-29T12:49:23.321Z</time></trkpt><trkpt lat="43.1322433" lon="12.2626117"><ele>236.5</ele><time>2026-03-29T12:49:24.324Z</time></trkpt><trkpt lat="43.1322883" lon="12.26246"><ele>236.0</ele><time>2026-03-29T12:49:25.326Z</time></trkpt><trkpt lat="43.132345" lon="12.2623317"><ele>235.60000000000002</ele><time>2026-03-29T12:49:26.325Z</time></trkpt><trkpt lat="43.1324167" lon="12.2622283"><ele>235.20000000000002</ele><time>2026-03-29T12:49:27.323Z</time></trkpt><trkpt lat="43.1325017" lon="12.26214"><ele>234.79999999999998</ele><time>2026-03-29T12:49:28.322Z</time></trkpt><trkpt lat="43.1325967" lon="12.2620833"><ele>234.39999999999998</ele><time>2026-03-29T12:49:29.324Z</time></trkpt><trkpt lat="43.1326983" lon="12.2620517"><ele>234.0</ele><time>2026-03-29T12:49:30.323Z</time></trkpt><trkpt lat="43.1327933" lon="12.2620617"><ele>234.0</ele><time>2026-03-29T12:49:31.322Z</time></trkpt><trkpt lat="43.1328883" lon="12.262105"><ele>234.0</ele><time>2026-03-29T12:49:32.325Z</time></trkpt><trkpt lat="43.1329817" lon="12.262175"><ele>234.0</ele><time>2026-03-29T12:49:33.321Z</time></trkpt><trkpt lat="43.1330783" lon="12.2622683"><ele>234.0</ele><time>2026-03-29T12:49:34.321Z</time></trkpt><trkpt lat="43.133175" lon="12.2623783"><ele>234.5</ele><time>2026-03-29T12:49:35.32Z</time></trkpt><trkpt lat="43.1332717" lon="12.2624983"><ele>235.0</ele><time>2026-03-29T12:49:36.321Z</time></trkpt><trkpt lat="43.1333817" lon="12.2626183"><ele>235.5</ele><time>2026-03-29T12:49:37.323Z</time></trkpt><trkpt lat="43.1335" lon="12.2627467"><ele>236.0</ele><time>2026-03-29T12:49:38.324Z</time></trkpt><trkpt lat="43.1336267" lon="12.2628733"><ele>236.0</ele><time>2026-03-29T12:49:39.325Z</time></trkpt><trkpt lat="43.1337583" lon="12.2629867"><ele>236.0</ele><time>2026-03-29T12:49:40.323Z</time></trkpt><trkpt lat="43.1338983" lon="12.263095"><ele>236.0</ele><time>2026-03-29T12:49:41.323Z</time></trkpt><trkpt lat="43.1340433" lon="12.2631967"><ele>235.66666666666669</ele><time>2026-03-29T12:49:42.321Z</time></trkpt><trkpt lat="43.134195" lon="12.2632883"><ele>235.33333333333331</ele><time>2026-03-29T12:49:43.32Z</time></trkpt><trkpt lat="43.1343433" lon="12.26337"><ele>235.0</ele><time>2026-03-29T12:49:44.321Z</time></trkpt><trkpt lat="43.13449" lon="12.2634383"><ele>235.0</ele><time>2026-03-29T12:49:45.324Z</time></trkpt><trkpt lat="43.1346333" lon="12.2634867"><ele>235.0</ele><time>2026-03-29T12:49:46.324Z</time></trkpt><trkpt lat="43.13477" lon="12.2635117"><ele>235.0</ele><time>2026-03-29T12:49:47.32Z</time></trkpt><trkpt lat="43.134905" lon="12.2635233"><ele>235.0</ele><time>2026-03-29T12:49:48.321Z</time></trkpt><trkpt lat="43.1350383" lon="12.2635367"><ele>234.75</ele><time>2026-03-29T12:49:49.323Z</time></trkpt><trkpt lat="43.13517" lon="12.26356"><ele>234.5</ele><time>2026-03-29T12:49:50.32Z</time></trkpt><trkpt lat="43.1352967" lon="12.2635917"><ele>234.25</ele><time>2026-03-29T12:49:51.319Z</time></trkpt><trkpt lat="43.1354183" lon="12.2636317"><ele>234.0</ele><time>2026-03-29T12:49:52.322Z</time></trkpt><trkpt lat="43.13553" lon="12.2636867"><ele>234.0</ele><time>2026-03-29T12:49:53.319Z</time></trkpt><trkpt lat="43.1356233" lon="12.26376"><ele>234.0</ele><time>2026-03-29T12:49:54.323Z</time></trkpt><trkpt lat="43.1357033" lon="12.2638633"><ele>234.0</ele><time>2026-03-29T12:49:55.324Z</time></trkpt><trkpt lat="43.135775" lon="12.2639833"><ele>234.0</ele><time>2026-03-29T12:49:56.32Z</time></trkpt><trkpt lat="43.1358467" lon="12.2641217"><ele>233.75</ele><time>2026-03-29T12:49:57.32Z</time></trkpt><trkpt lat="43.13592" lon="12.2642733"><ele>233.5</ele><time>2026-03-29T12:49:58.326Z</time></trkpt><trkpt lat="43.1359967" lon="12.26443"><ele>233.25</ele><time>2026-03-29T12:49:59.321Z</time></trkpt><trkpt lat="43.1360767" lon="12.2645917"><ele>233.0</ele><time>2026-03-29T12:50:00.322Z</time></trkpt><trkpt lat="43.1361583" lon="12.2647583"><ele>234.0</ele><time>2026-03-29T12:50:01.323Z</time></trkpt><trkpt lat="43.1362433" lon="12.26493"><ele>235.0</ele><time>2026-03-29T12:50:02.325Z</time></trkpt><trkpt lat="43.1363283" lon="12.265105"><ele>236.0</ele><time>2026-03-29T12:50:03.324Z</time></trkpt><trkpt lat="43.1364167" lon="12.2652767"><ele>236.0</ele><time>2026-03-29T12:50:04.323Z</time></trkpt><trkpt lat="43.1365067" lon="12.26545"><ele>236.0</ele><time>2026-03-29T12:50:05.32Z</time></trkpt><trkpt lat="43.1365967" lon="12.2656217"><ele>236.0</ele><time>2026-03-29T12:50:06.322Z</time></trkpt><trkpt lat="43.136685" lon="12.265795"><ele>235.33333333333334</ele><time>2026-03-29T12:50:07.323Z</time></trkpt><trkpt lat="43.1367717" lon="12.2659733"><ele>234.66666666666669</ele><time>2026-03-29T12:50:08.325Z</time></trkpt><trkpt lat="43.13686" lon="12.2661533"><ele>234.0</ele><time>2026-03-29T12:50:09.324Z</time></trkpt><trkpt lat="43.1369483" lon="12.2663317"><ele>234.0</ele><time>2026-03-29T12:50:10.321Z</time></trkpt><trkpt lat="43.1370367" lon="12.2665067"><ele>234.0</ele><time>2026-03-29T12:50:11.321Z</time></trkpt><trkpt lat="43.137125" lon="12.26668"><ele>234.0</ele><time>2026-03-29T12:50:12.321Z</time></trkpt><trkpt lat="43.1372133" lon="12.2668517"><ele>234.0</ele><time>2026-03-29T12:50:13.321Z</time></trkpt><trkpt lat="43.1373017" lon="12.2670217"><ele>234.0</ele><time>2026-03-29T12:50:14.323Z</time></trkpt><trkpt lat="43.13739" lon="12.2671883"><ele>234.0</ele><time>2026-03-29T12:50:15.323Z</time></trkpt><trkpt lat="43.1374767" lon="12.2673533"><ele>234.75</ele><time>2026-03-29T12:50:16.321Z</time></trkpt><trkpt lat="43.137565" lon="12.26752"><ele>235.5</ele><time>2026-03-29T12:50:17.32Z</time></trkpt><trkpt lat="43.1376517" lon="12.2676833"><ele>236.25</ele><time>2026-03-29T12:50:18.322Z</time></trkpt><trkpt lat="43.1377383" lon="12.2678467"><ele>237.0</ele><time>2026-03-29T12:50:19.319Z</time></trkpt><trkpt lat="43.1378233" lon="12.2680117"><ele>236.0</ele><time>2026-03-29T12:50:20.32Z</time></trkpt><trkpt lat="43.13791" lon="12.2681767"><ele>235.0</ele><time>2026-03-29T12:50:21.32Z</time></trkpt><trkpt lat="43.1380033" lon="12.26834"><ele>234.0</ele><time>2026-03-29T12:50:22.319Z</time></trkpt><trkpt lat="43.1380983" lon="12.2685017"><ele>234.0</ele><time>2026-03-29T12:50:23.322Z</time></trkpt><trkpt lat="43.1381983" lon="12.2686583"><ele>234.0</ele><time>2026-03-29T12:50:24.321Z</time></trkpt><trkpt lat="43.1383033" lon="12.2688067"><ele>234.0</ele><time>2026-03-29T12:50:25.322Z</time></trkpt><trkpt lat="43.1384117" lon="12.2689483"><ele>234.5</ele><time>2026-03-29T12:50:26.321Z</time></trkpt><trkpt lat="43.1385233" lon="12.2690817"><ele>235.0</ele><time>2026-03-29T12:50:27.322Z</time></trkpt><trkpt lat="43.1386383" lon="12.2692133"><ele>235.5</ele><time>2026-03-29T12:50:28.321Z</time></trkpt><trkpt lat="43.1387533" lon="12.2693367"><ele>236.0</ele><time>2026-03-29T12:50:29.322Z</time></trkpt><trkpt lat="43.1388617" lon="12.2694517"><ele>236.0</ele><time>2026-03-29T12:50:30.32Z</time></trkpt><trkpt lat="43.1389633" lon="12.2695583"><ele>236.0</ele><time>2026-03-29T12:50:31.322Z</time></trkpt><trkpt lat="43.1390567" lon="12.2696567"><ele>236.0</ele><time>2026-03-29T12:50:32.321Z</time></trkpt><trkpt lat="43.139145" lon="12.2697433"><ele>236.0</ele><time>2026-03-29T12:50:33.324Z</time></trkpt><trkpt lat="43.1392317" lon="12.2698233"><ele>236.20000000000002</ele><time>2026-03-29T12:50:34.322Z</time></trkpt><trkpt lat="43.1393183" lon="12.2699017"><ele>236.40000000000003</ele><time>2026-03-29T12:50:35.326Z</time></trkpt><trkpt lat="43.1394083" lon="12.2699817"><ele>236.6</ele><time>2026-03-29T12:50:36.322Z</time></trkpt><trkpt lat="43.1394983" lon="12.2700683"><ele>236.8</ele><time>2026-03-29T12:50:37.324Z</time></trkpt><trkpt lat="43.1395883" lon="12.2701533"><ele>237.0</ele><time>2026-03-29T12:50:38.322Z</time></trkpt><trkpt lat="43.13967" lon="12.2702333"><ele>237.0</ele><time>2026-03-29T12:50:39.324Z</time></trkpt><trkpt lat="43.13974" lon="12.2703067"><ele>237.0</ele><time>2026-03-29T12:50:40.323Z</time></trkpt><trkpt lat="43.1398" lon="12.2703633"><ele>237.0</ele><time>2026-03-29T12:50:41.322Z</time></trkpt><trkpt lat="43.1399" lon="12.27042"><ele>237.0</ele><time>2026-03-29T12:50:43.321Z</time></trkpt><trkpt lat="43.1400067" lon="12.2703317"><ele>237.0</ele><time>2026-03-29T12:50:45.322Z</time></trkpt><trkpt lat="43.1400567" lon="12.2702267"><ele>237.25</ele><time>2026-03-29T12:50:46.32Z</time></trkpt><trkpt lat="43.1401" lon="12.2700833"><ele>237.5</ele><time>2026-03-29T12:50:47.319Z</time></trkpt><trkpt lat="43.1401517" lon="12.26992"><ele>237.75</ele><time>2026-03-29T12:50:48.319Z</time></trkpt><trkpt lat="43.1402133" lon="12.269765"><ele>238.0</ele><time>2026-03-29T12:50:49.321Z</time></trkpt><trkpt lat="43.1402883" lon="12.2696133"><ele>238.0</ele><time>2026-03-29T12:50:50.321Z</time></trkpt><trkpt lat="43.1403717" lon="12.2694583"><ele>238.0</ele><time>2026-03-29T12:50:51.321Z</time></trkpt><trkpt lat="43.1404567" lon="12.2692983"><ele>238.0</ele><time>2026-03-29T12:50:52.32Z</time></trkpt><trkpt lat="43.1405367" lon="12.2691367"><ele>238.0</ele><time>2026-03-29T12:50:53.32Z</time></trkpt><trkpt lat="43.1406133" lon="12.2689667"><ele>238.0</ele><time>2026-03-29T12:50:54.321Z</time></trkpt><trkpt lat="43.1406933" lon="12.2687983"><ele>238.0</ele><time>2026-03-29T12:50:55.319Z</time></trkpt><trkpt lat="43.1407817" lon="12.26864"><ele>238.0</ele><time>2026-03-29T12:50:56.323Z</time></trkpt><trkpt lat="43.14088" lon="12.2684983"><ele>238.0</ele><time>2026-03-29T12:50:57.321Z</time></trkpt><trkpt lat="43.1409833" lon="12.26837"><ele>238.0</ele><time>2026-03-29T12:50:58.322Z</time></trkpt><trkpt lat="43.14108" lon="12.2682533"><ele>238.0</ele><time>2026-03-29T12:50:59.319Z</time></trkpt><trkpt lat="43.141175" lon="12.2681383"><ele>238.0</ele><time>2026-03-29T12:51:00.32Z</time></trkpt><trkpt lat="43.1412683" lon="12.2680117"><ele>238.0</ele><time>2026-03-29T12:51:01.321Z</time></trkpt><trkpt lat="43.1413683" lon="12.2678817"><ele>238.25</ele><time>2026-03-29T12:51:02.322Z</time></trkpt><trkpt lat="43.1414717" lon="12.2677483"><ele>238.5</ele><time>2026-03-29T12:51:03.32Z</time></trkpt><trkpt lat="43.1415767" lon="12.26761"><ele>238.75</ele><time>2026-03-29T12:51:04.322Z</time></trkpt><trkpt lat="43.1416817" lon="12.2674733"><ele>239.0</ele><time>2026-03-29T12:51:05.322Z</time></trkpt><trkpt lat="43.1417817" lon="12.2673433"><ele>238.79999999999998</ele><time>2026-03-29T12:51:06.32Z</time></trkpt><trkpt lat="43.1418733" lon="12.2672233"><ele>238.59999999999997</ele><time>2026-03-29T12:51:07.324Z</time></trkpt><trkpt lat="43.1419583" lon="12.2671133"><ele>238.4</ele><time>2026-03-29T12:51:08.322Z</time></trkpt><trkpt lat="43.142035" lon="12.2670167"><ele>238.2</ele><time>2026-03-29T12:51:09.32Z</time></trkpt><trkpt lat="43.1421017" lon="12.2669333"><ele>238.0</ele><time>2026-03-29T12:51:10.321Z</time></trkpt><trkpt lat="43.142165" lon="12.2668683"><ele>238.0</ele><time>2026-03-29T12:51:11.321Z</time></trkpt><trkpt lat="43.1422267" lon="12.2668283"><ele>238.0</ele><time>2026-03-29T12:51:12.322Z</time></trkpt><trkpt lat="43.142335" lon="12.2668383"><ele>238.0</ele><time>2026-03-29T12:51:14.321Z</time></trkpt><trkpt lat="43.1424217" lon="12.26687"><ele>238.0</ele><time>2026-03-29T12:51:16.321Z</time></trkpt><trkpt lat="43.1425383" lon="12.266895"><ele>238.0</ele><time>2026-03-29T12:51:18.321Z</time></trkpt><trkpt lat="43.1426083" lon="12.2669133"><ele>238.60000000000002</ele><time>2026-03-29T12:51:19.324Z</time></trkpt><trkpt lat="43.1426883" lon="12.2669333"><ele>239.20000000000002</ele><time>2026-03-29T12:51:20.321Z</time></trkpt><trkpt lat="43.142775" lon="12.266955"><ele>239.8</ele><time>2026-03-29T12:51:21.324Z</time></trkpt><trkpt lat="43.142875" lon="12.2669717"><ele>240.4</ele><time>2026-03-29T12:51:22.322Z</time></trkpt><trkpt lat="43.1429733" lon="12.2669867"><ele>241.0</ele><time>2026-03-29T12:51:23.323Z</time></trkpt><trkpt lat="43.1430717" lon="12.26699"><ele>241.0</ele><time>2026-03-29T12:51:24.321Z</time></trkpt><trkpt lat="43.143165" lon="12.266985"><ele>241.00000000000003</ele><time>2026-03-29T12:51:25.323Z</time></trkpt><trkpt lat="43.1432517" lon="12.2669783"><ele>241.00000000000003</ele><time>2026-03-29T12:51:26.321Z</time></trkpt><trkpt lat="43.1433483" lon="12.26699"><ele>241.0</ele><time>2026-03-29T12:51:27.321Z</time></trkpt><trkpt lat="43.14344" lon="12.2670283"><ele>241.0</ele><time>2026-03-29T12:51:28.321Z</time></trkpt><trkpt lat="43.1435317" lon="12.2671"><ele>241.25</ele><time>2026-03-29T12:51:29.321Z</time></trkpt><trkpt lat="43.1436133" lon="12.267195"><ele>241.5</ele><time>2026-03-29T12:51:30.322Z</time></trkpt><trkpt lat="43.143695" lon="12.2673083"><ele>241.75</ele><time>2026-03-29T12:51:31.321Z</time></trkpt><trkpt lat="43.1437817" lon="12.2674267"><ele>242.0</ele><time>2026-03-29T12:51:32.323Z</time></trkpt><trkpt lat="43.1438683" lon="12.26755"><ele>241.5</ele><time>2026-03-29T12:51:33.323Z</time></trkpt><trkpt lat="43.1439567" lon="12.267675"><ele>241.0</ele><time>2026-03-29T12:51:34.323Z</time></trkpt><trkpt lat="43.1440433" lon="12.2678017"><ele>240.5</ele><time>2026-03-29T12:51:35.323Z</time></trkpt><trkpt lat="43.1441333" lon="12.2679233"><ele>240.0</ele><time>2026-03-29T12:51:36.323Z</time></trkpt><trkpt lat="43.1442317" lon="12.26803"><ele>239.75</ele><time>2026-03-29T12:51:37.319Z</time></trkpt><trkpt lat="43.1443383" lon="12.2681217"><ele>239.5</ele><time>2026-03-29T12:51:38.322Z</time></trkpt><trkpt lat="43.1444517" lon="12.2682017"><ele>239.25</ele><time>2026-03-29T12:51:39.321Z</time></trkpt><trkpt lat="43.1445667" lon="12.2682783"><ele>239.0</ele><time>2026-03-29T12:51:40.321Z</time></trkpt><trkpt lat="43.1446783" lon="12.268365"><ele>239.0</ele><time>2026-03-29T12:51:41.327Z</time></trkpt><trkpt lat="43.1447867" lon="12.26846"><ele>239.0</ele><time>2026-03-29T12:51:42.322Z</time></trkpt><trkpt lat="43.1448867" lon="12.2685667"><ele>239.0</ele><time>2026-03-29T12:51:43.324Z</time></trkpt><trkpt lat="43.1449817" lon="12.2686783"><ele>239.0</ele><time>2026-03-29T12:51:44.321Z</time></trkpt><trkpt lat="43.1450733" lon="12.2687867"><ele>239.5</ele><time>2026-03-29T12:51:45.321Z</time></trkpt><trkpt lat="43.14516" lon="12.268895"><ele>240.0</ele><time>2026-03-29T12:51:46.321Z</time></trkpt><trkpt lat="43.14523" lon="12.2690117"><ele>240.5</ele><time>2026-03-29T12:51:47.32Z</time></trkpt><trkpt lat="43.1452867" lon="12.2691467"><ele>241.0</ele><time>2026-03-29T12:51:48.32Z</time></trkpt><trkpt lat="43.1453267" lon="12.2692917"><ele>241.25</ele><time>2026-03-29T12:51:49.323Z</time></trkpt><trkpt lat="43.1453483" lon="12.26945"><ele>241.5</ele><time>2026-03-29T12:51:50.321Z</time></trkpt><trkpt lat="43.1453533" lon="12.2696117"><ele>241.75</ele><time>2026-03-29T12:51:51.321Z</time></trkpt><trkpt lat="43.1453483" lon="12.2697733"><ele>242.0</ele><time>2026-03-29T12:51:52.321Z</time></trkpt><trkpt lat="43.1453383" lon="12.2699383"><ele>242.39999999999998</ele><time>2026-03-29T12:51:53.325Z</time></trkpt><trkpt lat="43.1453267" lon="12.2701017"><ele>242.79999999999998</ele><time>2026-03-29T12:51:54.327Z</time></trkpt><trkpt lat="43.1453167" lon="12.27026"><ele>243.2</ele><time>2026-03-29T12:51:55.321Z</time></trkpt><trkpt lat="43.1453067" lon="12.2704083"><ele>243.6</ele><time>2026-03-29T12:51:56.321Z</time></trkpt><trkpt lat="43.1452967" lon="12.2705467"><ele>244.0</ele><time>2026-03-29T12:51:57.319Z</time></trkpt><trkpt lat="43.145285" lon="12.27067"><ele>244.6</ele><time>2026-03-29T12:51:58.321Z</time></trkpt><trkpt lat="43.1452633" lon="12.2707767"><ele>245.2</ele><time>2026-03-29T12:51:59.321Z</time></trkpt><trkpt lat="43.1452317" lon="12.27088"><ele>245.79999999999998</ele><time>2026-03-29T12:52:00.323Z</time></trkpt><trkpt lat="43.1451867" lon="12.2709867"><ele>246.39999999999998</ele><time>2026-03-29T12:52:01.325Z</time></trkpt><trkpt lat="43.1451333" lon="12.2710983"><ele>247.0</ele><time>2026-03-29T12:52:02.324Z</time></trkpt><trkpt lat="43.14508" lon="12.2712183"><ele>247.0</ele><time>2026-03-29T12:52:03.322Z</time></trkpt><trkpt lat="43.1450267" lon="12.27134"><ele>247.0</ele><time>2026-03-29T12:52:04.319Z</time></trkpt><trkpt lat="43.1449783" lon="12.2714583"><ele>247.0</ele><time>2026-03-29T12:52:05.322Z</time></trkpt><trkpt lat="43.1449433" lon="12.2715717"><ele>247.0</ele><time>2026-03-29T12:52:06.32Z</time></trkpt><trkpt lat="43.1449217" lon="12.271685"><ele>247.0</ele><time>2026-03-29T12:52:07.319Z</time></trkpt><trkpt lat="43.1449183" lon="12.271805"><ele>247.6</ele><time>2026-03-29T12:52:08.32Z</time></trkpt><trkpt lat="43.1449283" lon="12.27194"><ele>248.2</ele><time>2026-03-29T12:52:09.323Z</time></trkpt><trkpt lat="43.1449367" lon="12.2720767"><ele>248.8</ele><time>2026-03-29T12:52:10.32Z</time></trkpt><trkpt lat="43.144935" lon="12.2722183"><ele>249.4</ele><time>2026-03-29T12:52:11.322Z</time></trkpt><trkpt lat="43.14494" lon="12.2723533"><ele>250.0</ele><time>2026-03-29T12:52:12.321Z</time></trkpt><trkpt lat="43.1449433" lon="12.272485"><ele>250.2</ele><time>2026-03-29T12:52:13.324Z</time></trkpt><trkpt lat="43.144955" lon="12.2726167"><ele>250.4</ele><time>2026-03-29T12:52:14.32Z</time></trkpt><trkpt lat="43.1449683" lon="12.2727567"><ele>250.60000000000002</ele><time>2026-03-29T12:52:15.321Z</time></trkpt><trkpt lat="43.1449833" lon="12.2729033"><ele>250.8</ele><time>2026-03-29T12:52:16.32Z</time></trkpt><trkpt lat="43.144995" lon="12.2730567"><ele>251.0</ele><time>2026-03-29T12:52:17.32Z</time></trkpt><trkpt lat="43.1450067" lon="12.2732233"><ele>250.25</ele><time>2026-03-29T12:52:18.323Z</time></trkpt><trkpt lat="43.14502" lon="12.2733917"><ele>249.5</ele><time>2026-03-29T12:52:19.324Z</time></trkpt><trkpt lat="43.1450383" lon="12.273555"><ele>248.75</ele><time>2026-03-29T12:52:20.323Z</time></trkpt><trkpt lat="43.1450533" lon="12.27371"><ele>248.0</ele><time>2026-03-29T12:52:21.322Z</time></trkpt><trkpt lat="43.145065" lon="12.273855"><ele>247.33333333333334</ele><time>2026-03-29T12:52:22.321Z</time></trkpt><trkpt lat="43.14508" lon="12.2739867"><ele>246.66666666666669</ele><time>2026-03-29T12:52:23.324Z</time></trkpt><trkpt lat="43.1451" lon="12.2740983"><ele>246.0</ele><time>2026-03-29T12:52:24.319Z</time></trkpt><trkpt lat="43.14513" lon="12.2741933"><ele>245.33333333333331</ele><time>2026-03-29T12:52:25.323Z</time></trkpt><trkpt lat="43.1451617" lon="12.2742717"><ele>244.66666666666666</ele><time>2026-03-29T12:52:26.32Z</time></trkpt><trkpt lat="43.1452167" lon="12.2743783"><ele>244.0</ele><time>2026-03-29T12:52:28.32Z</time></trkpt><trkpt lat="43.1452917" lon="12.2744967"><ele>243.99999999999997</ele><time>2026-03-29T12:52:30.323Z</time></trkpt><trkpt lat="43.1453483" lon="12.2745467"><ele>244.0</ele><time>2026-03-29T12:52:31.32Z</time></trkpt><trkpt lat="43.1454117" lon="12.2745983"><ele>244.0</ele><time>2026-03-29T12:52:32.32Z</time></trkpt><trkpt lat="43.1454833" lon="12.2746533"><ele>244.0</ele><time>2026-03-29T12:52:33.326Z</time></trkpt><trkpt lat="43.145555" lon="12.2747033"><ele>243.99999999999997</ele><time>2026-03-29T12:52:34.321Z</time></trkpt><trkpt lat="43.1456283" lon="12.274745"><ele>244.0</ele><time>2026-03-29T12:52:35.32Z</time></trkpt><trkpt lat="43.1456983" lon="12.2747783"><ele>243.83333333333331</ele><time>2026-03-29T12:52:36.32Z</time></trkpt><trkpt lat="43.1457717" lon="12.2748017"><ele>243.66666666666666</ele><time>2026-03-29T12:52:37.324Z</time></trkpt><trkpt lat="43.1458533" lon="12.2748283"><ele>243.5</ele><time>2026-03-29T12:52:38.321Z</time></trkpt><trkpt lat="43.1459383" lon="12.2748517"><ele>243.33333333333331</ele><time>2026-03-29T12:52:39.32Z</time></trkpt><trkpt lat="43.146025" lon="12.274875"><ele>243.16666666666666</ele><time>2026-03-29T12:52:40.32Z</time></trkpt><trkpt lat="43.1461133" lon="12.2748967"><ele>243.0</ele><time>2026-03-29T12:52:41.323Z</time></trkpt><trkpt lat="43.1461983" lon="12.27492"><ele>243.0</ele><time>2026-03-29T12:52:42.322Z</time></trkpt><trkpt lat="43.1462767" lon="12.2749383"><ele>243.0</ele><time>2026-03-29T12:52:43.319Z</time></trkpt><trkpt lat="43.1463617" lon="12.2749467"><ele>243.0</ele><time>2026-03-29T12:52:44.32Z</time></trkpt><trkpt lat="43.14645" lon="12.2749467"><ele>243.0</ele><time>2026-03-29T12:52:45.323Z</time></trkpt><trkpt lat="43.1465433" lon="12.2749517"><ele>243.0</ele><time>2026-03-29T12:52:46.32Z</time></trkpt><trkpt lat="43.1466417" lon="12.27495"><ele>243.0</ele><time>2026-03-29T12:52:47.322Z</time></trkpt><trkpt lat="43.1467367" lon="12.2749367"><ele>243.5</ele><time>2026-03-29T12:52:48.327Z</time></trkpt><trkpt lat="43.1468233" lon="12.27492"><ele>244.0</ele><time>2026-03-29T12:52:49.323Z</time></trkpt><trkpt lat="43.1469033" lon="12.27491"><ele>244.5</ele><time>2026-03-29T12:52:50.32Z</time></trkpt><trkpt lat="43.1469733" lon="12.274915"><ele>245.0</ele><time>2026-03-29T12:52:51.323Z</time></trkpt><trkpt lat="43.1470867" lon="12.2749867"><ele>245.5</ele><time>2026-03-29T12:52:53.321Z</time></trkpt><trkpt lat="43.14713" lon="12.27505"><ele>246.0</ele><time>2026-03-29T12:52:54.324Z</time></trkpt><trkpt lat="43.147165" lon="12.2751383"><ele>246.0</ele><time>2026-03-29T12:52:55.321Z</time></trkpt><trkpt lat="43.1471917" lon="12.2752433"><ele>246.0</ele><time>2026-03-29T12:52:56.322Z</time></trkpt><trkpt lat="43.1472233" lon="12.2753433"><ele>246.0</ele><time>2026-03-29T12:52:57.321Z</time></trkpt><trkpt lat="43.1472533" lon="12.27544"><ele>246.0</ele><time>2026-03-29T12:52:58.322Z</time></trkpt><trkpt lat="43.147285" lon="12.2755367"><ele>246.0</ele><time>2026-03-29T12:52:59.32Z</time></trkpt><trkpt lat="43.14732" lon="12.2756367"><ele>246.0</ele><time>2026-03-29T12:53:00.319Z</time></trkpt><trkpt lat="43.1473533" lon="12.2757433"><ele>245.4</ele><time>2026-03-29T12:53:01.322Z</time></trkpt><trkpt lat="43.14739" lon="12.2758617"><ele>244.8</ele><time>2026-03-29T12:53:02.32Z</time></trkpt><trkpt lat="43.14743" lon="12.2759917"><ele>244.20000000000002</ele><time>2026-03-29T12:53:03.319Z</time></trkpt><trkpt lat="43.14747" lon="12.2761317"><ele>243.60000000000002</ele><time>2026-03-29T12:53:04.322Z</time></trkpt><trkpt lat="43.14751" lon="12.2762733"><ele>243.0</ele><time>2026-03-29T12:53:05.32Z</time></trkpt><trkpt lat="43.1475517" lon="12.2764067"><ele>243.33333333333334</ele><time>2026-03-29T12:53:06.321Z</time></trkpt><trkpt lat="43.14759" lon="12.2765283"><ele>243.66666666666669</ele><time>2026-03-29T12:53:07.323Z</time></trkpt><trkpt lat="43.1476267" lon="12.27664"><ele>244.0</ele><time>2026-03-29T12:53:08.321Z</time></trkpt><trkpt lat="43.147665" lon="12.2767367"><ele>244.33333333333334</ele><time>2026-03-29T12:53:09.32Z</time></trkpt><trkpt lat="43.1477133" lon="12.2768183"><ele>244.66666666666669</ele><time>2026-03-29T12:53:10.321Z</time></trkpt><trkpt lat="43.1477833" lon="12.276885"><ele>245.0</ele><time>2026-03-29T12:53:11.324Z</time></trkpt><trkpt lat="43.14787" lon="12.276935"><ele>245.00000000000003</ele><time>2026-03-29T12:53:12.322Z</time></trkpt><trkpt lat="43.14795" lon="12.2769633"><ele>245.0</ele><time>2026-03-29T12:53:13.321Z</time></trkpt><trkpt lat="43.1480133" lon="12.276975"><ele>245.0</ele><time>2026-03-29T12:53:14.322Z</time></trkpt><trkpt lat="43.14811" lon="12.2769933"><ele>245.0</ele><time>2026-03-29T12:53:16.319Z</time></trkpt><trkpt lat="43.148195" lon="12.2770017"><ele>245.00000000000003</ele><time>2026-03-29T12:53:18.319Z</time></trkpt><trkpt lat="43.1482983" lon="12.27706"><ele>245.0</ele><time>2026-03-29T12:53:20.324Z</time></trkpt><trkpt lat="43.14836" lon="12.2771333"><ele>245.2</ele><time>2026-03-29T12:53:21.321Z</time></trkpt><trkpt lat="43.1484333" lon="12.2772083"><ele>245.4</ele><time>2026-03-29T12:53:22.32Z</time></trkpt><trkpt lat="43.1485117" lon="12.277265"><ele>245.60000000000002</ele><time>2026-03-29T12:53:23.322Z</time></trkpt><trkpt lat="43.1485967" lon="12.27729"><ele>245.8</ele><time>2026-03-29T12:53:24.32Z</time></trkpt><trkpt lat="43.1486883" lon="12.27727"><ele>246.0</ele><time>2026-03-29T12:53:25.321Z</time></trkpt><trkpt lat="43.148785" lon="12.27722"><ele>246.5</ele><time>2026-03-29T12:53:26.32Z</time></trkpt><trkpt lat="43.1488933" lon="12.277165"><ele>247.0</ele><time>2026-03-29T12:53:27.321Z</time></trkpt><trkpt lat="43.149005" lon="12.27711"><ele>247.5</ele><time>2026-03-29T12:53:28.322Z</time></trkpt><trkpt lat="43.1491217" lon="12.2770567"><ele>248.0</ele><time>2026-03-29T12:53:29.322Z</time></trkpt><trkpt lat="43.1492433" lon="12.2770017"><ele>248.0</ele><time>2026-03-29T12:53:30.32Z</time></trkpt><trkpt lat="43.1493583" lon="12.27694"><ele>248.0</ele><time>2026-03-29T12:53:31.321Z</time></trkpt><trkpt lat="43.1494667" lon="12.27688"><ele>248.0</ele><time>2026-03-29T12:53:32.321Z</time></trkpt><trkpt lat="43.1495633" lon="12.2768317"><ele>248.0</ele><time>2026-03-29T12:53:33.32Z</time></trkpt><trkpt lat="43.1496483" lon="12.2767917"><ele>248.0</ele><time>2026-03-29T12:53:34.323Z</time></trkpt><trkpt lat="43.149735" lon="12.2767533"><ele>248.0</ele><time>2026-03-29T12:53:35.322Z</time></trkpt><trkpt lat="43.14983" lon="12.2767117"><ele>248.0</ele><time>2026-03-29T12:53:36.323Z</time></trkpt><trkpt lat="43.14993" lon="12.2766567"><ele>248.0</ele><time>2026-03-29T12:53:37.321Z</time></trkpt><trkpt lat="43.1500367" lon="12.27659"><ele>248.0</ele><time>2026-03-29T12:53:38.322Z</time></trkpt><trkpt lat="43.1501467" lon="12.276525"><ele>248.0</ele><time>2026-03-29T12:53:39.322Z</time></trkpt><trkpt lat="43.15026" lon="12.2764633"><ele>247.8</ele><time>2026-03-29T12:53:40.32Z</time></trkpt><trkpt lat="43.1503667" lon="12.27641"><ele>247.60000000000002</ele><time>2026-03-29T12:53:41.32Z</time></trkpt><trkpt lat="43.150465" lon="12.276365"><ele>247.39999999999998</ele><time>2026-03-29T12:53:42.32Z</time></trkpt><trkpt lat="43.150555" lon="12.276335"><ele>247.2</ele><time>2026-03-29T12:53:43.323Z</time></trkpt><trkpt lat="43.15064" lon="12.2763267"><ele>247.0</ele><time>2026-03-29T12:53:44.321Z</time></trkpt><trkpt lat="43.15073" lon="12.2763517"><ele>247.66666666666666</ele><time>2026-03-29T12:53:45.321Z</time></trkpt><trkpt lat="43.1508217" lon="12.2764"><ele>248.33333333333331</ele><time>2026-03-29T12:53:46.32Z</time></trkpt><trkpt lat="43.15091" lon="12.27645"><ele>249.0</ele><time>2026-03-29T12:53:47.32Z</time></trkpt><trkpt lat="43.1509867" lon="12.2764883"><ele>249.66666666666669</ele><time>2026-03-29T12:53:48.32Z</time></trkpt><trkpt lat="43.151055" lon="12.276515"><ele>250.33333333333334</ele><time>2026-03-29T12:53:49.322Z</time></trkpt><trkpt lat="43.1511517" lon="12.2764883"><ele>251.0</ele><time>2026-03-29T12:53:51.321Z</time></trkpt><trkpt lat="43.15124" lon="12.2763967"><ele>251.16666666666669</ele><time>2026-03-29T12:53:53.319Z</time></trkpt><trkpt lat="43.1513017" lon="12.2763183"><ele>251.33333333333334</ele><time>2026-03-29T12:53:55.324Z</time></trkpt><trkpt lat="43.1513117" lon="12.2762017"><ele>251.5</ele><time>2026-03-29T12:53:57.324Z</time></trkpt><trkpt lat="43.1512817" lon="12.2761133"><ele>251.66666666666669</ele><time>2026-03-29T12:53:58.321Z</time></trkpt><trkpt lat="43.1512583" lon="12.2760133"><ele>251.83333333333334</ele><time>2026-03-29T12:53:59.32Z</time></trkpt><trkpt lat="43.1512333" lon="12.2759133"><ele>252.0</ele><time>2026-03-29T12:54:00.32Z</time></trkpt><trkpt lat="43.1512117" lon="12.275825"><ele>252.0</ele><time>2026-03-29T12:54:01.319Z</time></trkpt><trkpt lat="43.15119" lon="12.2756817"><ele>252.0</ele><time>2026-03-29T12:54:03.323Z</time></trkpt><trkpt lat="43.151225" lon="12.2756"><ele>252.0</ele><time>2026-03-29T12:54:10.32Z</time></trkpt><trkpt lat="43.15132" lon="12.2755733"><ele>252.0</ele><time>2026-03-29T12:54:12.32Z</time></trkpt><trkpt lat="43.1513833" lon="12.2755617"><ele>252.0</ele><time>2026-03-29T12:54:13.32Z</time></trkpt><trkpt lat="43.1514567" lon="12.2755383"><ele>252.0</ele><time>2026-03-29T12:54:14.321Z</time></trkpt><trkpt lat="43.1515367" lon="12.2755083"><ele>255.2</ele><time>2026-03-29T12:54:15.32Z</time></trkpt><trkpt lat="43.1516233" lon="12.275475"><ele>258.4</ele><time>2026-03-29T12:54:16.323Z</time></trkpt><trkpt lat="43.1517167" lon="12.27544"><ele>261.6</ele><time>2026-03-29T12:54:17.321Z</time></trkpt><trkpt lat="43.1518067" lon="12.2754033"><ele>264.8</ele><time>2026-03-29T12:54:18.319Z</time></trkpt><trkpt lat="43.1519033" lon="12.2753633"><ele>268.0</ele><time>2026-03-29T12:54:19.323Z</time></trkpt><trkpt lat="43.15199" lon="12.2753267"><ele>268.0</ele><time>2026-03-29T12:54:20.32Z</time></trkpt><trkpt lat="43.1520717" lon="12.2753"><ele>268.0</ele><time>2026-03-29T12:54:21.32Z</time></trkpt><trkpt lat="43.152165" lon="12.275325"><ele>268.0</ele><time>2026-03-29T12:54:23.319Z</time></trkpt><trkpt lat="43.1522033" lon="12.2754717"><ele>268.0</ele><time>2026-03-29T12:54:25.32Z</time></trkpt><trkpt lat="43.1522183" lon="12.2755667"><ele>268.0</ele><time>2026-03-29T12:54:26.323Z</time></trkpt><trkpt lat="43.1522667" lon="12.2756717"><ele>268.0</ele><time>2026-03-29T12:54:28.323Z</time></trkpt><trkpt lat="43.1523167" lon="12.2756117"><ele>268.0</ele><time>2026-03-29T12:54:32.328Z</time></trkpt><trkpt lat="43.152365" lon="12.275465"><ele>268.0</ele><time>2026-03-29T12:54:34.323Z</time></trkpt><trkpt lat="43.152395" lon="12.2753817"><ele>268.0</ele><time>2026-03-29T12:54:35.322Z</time></trkpt><trkpt lat="43.152425" lon="12.275305"><ele>268.0</ele><time>2026-03-29T12:54:36.322Z</time></trkpt><trkpt lat="43.15251" lon="12.2751933"><ele>268.0</ele><time>2026-03-29T12:54:38.321Z</time></trkpt><trkpt lat="43.152625" lon="12.2751333"><ele>271.0</ele><time>2026-03-29T12:54:40.322Z</time></trkpt><trkpt lat="43.1526883" lon="12.2751183"><ele>274.0</ele><time>2026-03-29T12:54:41.323Z</time></trkpt><trkpt lat="43.1527967" lon="12.2751383"><ele>277.0</ele><time>2026-03-29T12:54:43.324Z</time></trkpt><trkpt lat="43.1528867" lon="12.2751383"><ele>280.0</ele><time>2026-03-29T12:54:45.322Z</time></trkpt><trkpt lat="43.1530117" lon="12.2751067"><ele>283.0</ele><time>2026-03-29T12:54:47.322Z</time></trkpt><trkpt lat="43.1530833" lon="12.2750933"><ele>283.0</ele><time>2026-03-29T12:54:48.32Z</time></trkpt><trkpt lat="43.1531517" lon="12.27507"><ele>283.0</ele><time>2026-03-29T12:54:49.324Z</time></trkpt><trkpt lat="43.15322" lon="12.2750583"><ele>283.0</ele><time>2026-03-29T12:54:50.319Z</time></trkpt><trkpt lat="43.1532883" lon="12.275045"><ele>283.0</ele><time>2026-03-29T12:54:51.32Z</time></trkpt><trkpt lat="43.15335" lon="12.27502"><ele>283.0</ele><time>2026-03-29T12:54:52.32Z</time></trkpt><trkpt lat="43.153405" lon="12.27497"><ele>283.0</ele><time>2026-03-29T12:54:53.324Z</time></trkpt><trkpt lat="43.1534617" lon="12.2749283"><ele>283.0</ele><time>2026-03-29T12:54:54.323Z</time></trkpt><trkpt lat="43.1535267" lon="12.274905"><ele>286.8</ele><time>2026-03-29T12:54:55.32Z</time></trkpt><trkpt lat="43.153625" lon="12.2748483"><ele>290.6</ele><time>2026-03-29T12:54:57.323Z</time></trkpt><trkpt lat="43.1537117" lon="12.2747883"><ele>294.4</ele><time>2026-03-29T12:54:59.324Z</time></trkpt><trkpt lat="43.1538183" lon="12.2747933"><ele>298.2</ele><time>2026-03-29T12:55:01.325Z</time></trkpt><trkpt lat="43.1539417" lon="12.274805"><ele>302.0</ele><time>2026-03-29T12:55:03.323Z</time></trkpt><trkpt lat="43.154005" lon="12.274825"><ele>304.1666666666667</ele><time>2026-03-29T12:55:04.321Z</time></trkpt><trkpt lat="43.15412" lon="12.2748983"><ele>306.33333333333337</ele><time>2026-03-29T12:55:06.321Z</time></trkpt><trkpt lat="43.1541783" lon="12.2749433"><ele>308.5</ele><time>2026-03-29T12:55:07.319Z</time></trkpt><trkpt lat="43.1542483" lon="12.2749883"><ele>310.6666666666667</ele><time>2026-03-29T12:55:08.321Z</time></trkpt><trkpt lat="43.1543267" lon="12.275035"><ele>312.8333333333333</ele><time>2026-03-29T12:55:09.32Z</time></trkpt><trkpt lat="43.15441" lon="12.2750817"><ele>315.0</ele><time>2026-03-29T12:55:10.322Z</time></trkpt><trkpt lat="43.1544967" lon="12.2751283"><ele>315.0</ele><time>2026-03-29T12:55:11.319Z</time></trkpt><trkpt lat="43.1545917" lon="12.2751667"><ele>315.0</ele><time>2026-03-29T12:55:12.321Z</time></trkpt><trkpt lat="43.1546917" lon="12.2751983"><ele>315.0</ele><time>2026-03-29T12:55:13.32Z</time></trkpt><trkpt lat="43.1547983" lon="12.275225"><ele>315.0</ele><time>2026-03-29T12:55:14.32Z</time></trkpt><trkpt lat="43.154905" lon="12.275255"><ele>315.0</ele><time>2026-03-29T12:55:15.321Z</time></trkpt><trkpt lat="43.15502" lon="12.2752883"><ele>317.0</ele><time>2026-03-29T12:55:16.321Z</time></trkpt><trkpt lat="43.1551383" lon="12.2753217"><ele>319.0</ele><time>2026-03-29T12:55:17.321Z</time></trkpt><trkpt lat="43.1552567" lon="12.2753533"><ele>321.0</ele><time>2026-03-29T12:55:18.32Z</time></trkpt><trkpt lat="43.1553733" lon="12.275385"><ele>323.0</ele><time>2026-03-29T12:55:19.319Z</time></trkpt><trkpt lat="43.1554917" lon="12.27542"><ele>323.0</ele><time>2026-03-29T12:55:20.323Z</time></trkpt><trkpt lat="43.1556083" lon="12.275455"><ele>323.0</ele><time>2026-03-29T12:55:21.322Z</time></trkpt><trkpt lat="43.155725" lon="12.2754883"><ele>323.0</ele><time>2026-03-29T12:55:22.32Z</time></trkpt><trkpt lat="43.1558367" lon="12.2755283"><ele>323.0</ele><time>2026-03-29T12:55:23.321Z</time></trkpt><trkpt lat="43.15595" lon="12.2755733"><ele>321.5</ele><time>2026-03-29T12:55:24.324Z</time></trkpt><trkpt lat="43.1560617" lon="12.275625"><ele>320.0</ele><time>2026-03-29T12:55:25.321Z</time></trkpt><trkpt lat="43.15617" lon="12.2756833"><ele>318.5</ele><time>2026-03-29T12:55:26.321Z</time></trkpt><trkpt lat="43.156275" lon="12.2757517"><ele>317.0</ele><time>2026-03-29T12:55:27.324Z</time></trkpt><trkpt lat="43.1563717" lon="12.2758167"><ele>317.0</ele><time>2026-03-29T12:55:28.32Z</time></trkpt><trkpt lat="43.1564617" lon="12.2758767"><ele>317.0</ele><time>2026-03-29T12:55:29.319Z</time></trkpt><trkpt lat="43.1565483" lon="12.27593"><ele>317.0</ele><time>2026-03-29T12:55:30.319Z</time></trkpt><trkpt lat="43.1566333" lon="12.27597"><ele>317.0</ele><time>2026-03-29T12:55:31.322Z</time></trkpt><trkpt lat="43.1567133" lon="12.275995"><ele>317.0</ele><time>2026-03-29T12:55:32.32Z</time></trkpt><trkpt lat="43.1567883" lon="12.2760017"><ele>317.0</ele><time>2026-03-29T12:55:33.325Z</time></trkpt><trkpt lat="43.156855" lon="12.275995"><ele>315.8</ele><time>2026-03-29T12:55:34.32Z</time></trkpt><trkpt lat="43.1569467" lon="12.276005"><ele>314.6</ele><time>2026-03-29T12:55:36.323Z</time></trkpt><trkpt lat="43.157015" lon="12.2760817"><ele>313.40000000000003</ele><time>2026-03-29T12:55:38.32Z</time></trkpt><trkpt lat="43.15707" lon="12.2762217"><ele>312.2</ele><time>2026-03-29T12:55:40.319Z</time></trkpt><trkpt lat="43.1571117" lon="12.27636"><ele>311.0</ele><time>2026-03-29T12:55:42.323Z</time></trkpt><trkpt lat="43.1571483" lon="12.2764517"><ele>311.0</ele><time>2026-03-29T12:55:44.319Z</time></trkpt><trkpt lat="43.1572167" lon="12.27645"><ele>311.0</ele><time>2026-03-29T12:55:47.32Z</time></trkpt><trkpt lat="43.1572417" lon="12.2763183"><ele>311.0</ele><time>2026-03-29T12:55:49.321Z</time></trkpt><trkpt lat="43.1572517" lon="12.2762267"><ele>311.0</ele><time>2026-03-29T12:55:50.32Z</time></trkpt><trkpt lat="43.1572567" lon="12.2761083"><ele>311.0</ele><time>2026-03-29T12:55:51.323Z</time></trkpt><trkpt lat="43.1572517" lon="12.2759717"><ele>311.0</ele><time>2026-03-29T12:55:52.323Z</time></trkpt><trkpt lat="43.1572417" lon="12.27583"><ele>313.6</ele><time>2026-03-29T12:55:53.319Z</time></trkpt><trkpt lat="43.1572333" lon="12.2756883"><ele>316.20000000000005</ele><time>2026-03-29T12:55:54.322Z</time></trkpt><trkpt lat="43.1572317" lon="12.2755417"><ele>318.79999999999995</ele><time>2026-03-29T12:55:55.321Z</time></trkpt><trkpt lat="43.157235" lon="12.2754017"><ele>321.4</ele><time>2026-03-29T12:55:56.323Z</time></trkpt><trkpt lat="43.1572383" lon="12.27526"><ele>324.0</ele><time>2026-03-29T12:55:57.323Z</time></trkpt><trkpt lat="43.157245" lon="12.2751133"><ele>324.0</ele><time>2026-03-29T12:55:58.321Z</time></trkpt><trkpt lat="43.1572517" lon="12.2749617"><ele>324.0</ele><time>2026-03-29T12:55:59.321Z</time></trkpt><trkpt lat="43.1572633" lon="12.274805"><ele>324.0</ele><time>2026-03-29T12:56:00.321Z</time></trkpt><trkpt lat="43.15728" lon="12.2746467"><ele>324.0</ele><time>2026-03-29T12:56:01.32Z</time></trkpt><trkpt lat="43.1573017" lon="12.274485"><ele>321.8</ele><time>2026-03-29T12:56:02.319Z</time></trkpt><trkpt lat="43.1573183" lon="12.2743317"><ele>319.59999999999997</ele><time>2026-03-29T12:56:03.321Z</time></trkpt><trkpt lat="43.1573333" lon="12.27419"><ele>317.4</ele><time>2026-03-29T12:56:04.324Z</time></trkpt><trkpt lat="43.1573517" lon="12.274065"><ele>315.2</ele><time>2026-03-29T12:56:05.32Z</time></trkpt><trkpt lat="43.15738" lon="12.27396"><ele>313.0</ele><time>2026-03-29T12:56:06.32Z</time></trkpt><trkpt lat="43.157435" lon="12.273885"><ele>313.0</ele><time>2026-03-29T12:56:08.319Z</time></trkpt><trkpt lat="43.1575017" lon="12.2739217"><ele>313.0</ele><time>2026-03-29T12:56:10.321Z</time></trkpt><trkpt lat="43.157555" lon="12.273995"><ele>313.0</ele><time>2026-03-29T12:56:11.322Z</time></trkpt><trkpt lat="43.1576233" lon="12.2740767"><ele>313.0</ele><time>2026-03-29T12:56:12.321Z</time></trkpt><trkpt lat="43.1576983" lon="12.2741567"><ele>313.0</ele><time>2026-03-29T12:56:13.321Z</time></trkpt><trkpt lat="43.1577767" lon="12.2742467"><ele>313.0</ele><time>2026-03-29T12:56:14.324Z</time></trkpt><trkpt lat="43.1578567" lon="12.2743483"><ele>312.2</ele><time>2026-03-29T12:56:15.321Z</time></trkpt><trkpt lat="43.1579383" lon="12.2744517"><ele>311.4</ele><time>2026-03-29T12:56:16.321Z</time></trkpt><trkpt lat="43.1580167" lon="12.2745467"><ele>310.59999999999997</ele><time>2026-03-29T12:56:17.317Z</time></trkpt><trkpt lat="43.158085" lon="12.274635"><ele>309.8</ele><time>2026-03-29T12:56:18.322Z</time></trkpt><trkpt lat="43.15814" lon="12.2747233"><ele>309.0</ele><time>2026-03-29T12:56:19.32Z</time></trkpt><trkpt lat="43.1581917" lon="12.2748283"><ele>305.5</ele><time>2026-03-29T12:56:20.32Z</time></trkpt><trkpt lat="43.158245" lon="12.274955"><ele>302.0</ele><time>2026-03-29T12:56:21.322Z</time></trkpt><trkpt lat="43.1583017" lon="12.275095"><ele>298.5</ele><time>2026-03-29T12:56:22.319Z</time></trkpt><trkpt lat="43.1583683" lon="12.2752283"><ele>295.0</ele><time>2026-03-29T12:56:23.32Z</time></trkpt><trkpt lat="43.1584367" lon="12.2753583"><ele>295.0</ele><time>2026-03-29T12:56:24.32Z</time></trkpt><trkpt lat="43.158505" lon="12.27549"><ele>295.0</ele><time>2026-03-29T12:56:25.321Z</time></trkpt><trkpt lat="43.158575" lon="12.2756217"><ele>295.0</ele><time>2026-03-29T12:56:26.32Z</time></trkpt><trkpt lat="43.1586367" lon="12.2757417"><ele>295.0</ele><time>2026-03-29T12:56:27.325Z</time></trkpt><trkpt lat="43.1586983" lon="12.2758583"><ele>295.0</ele><time>2026-03-29T12:56:28.318Z</time></trkpt><trkpt lat="43.1587633" lon="12.27596"><ele>294.5</ele><time>2026-03-29T12:56:29.321Z</time></trkpt><trkpt lat="43.1588333" lon="12.27605"><ele>294.0</ele><time>2026-03-29T12:56:30.319Z</time></trkpt><trkpt lat="43.1588983" lon="12.276135"><ele>293.5</ele><time>2026-03-29T12:56:31.317Z</time></trkpt><trkpt lat="43.1589617" lon="12.276225"><ele>293.0</ele><time>2026-03-29T12:56:32.317Z</time></trkpt><trkpt lat="43.159005" lon="12.2763067"><ele>292.5</ele><time>2026-03-29T12:56:33.318Z</time></trkpt><trkpt lat="43.159055" lon="12.276405"><ele>292.0</ele><time>2026-03-29T12:56:34.322Z</time></trkpt><trkpt lat="43.15909" lon="12.2765067"><ele>290.3333333333333</ele><time>2026-03-29T12:56:35.321Z</time></trkpt><trkpt lat="43.1591283" lon="12.27659"><ele>288.66666666666663</ele><time>2026-03-29T12:56:36.32Z</time></trkpt><trkpt lat="43.1591817" lon="12.2766617"><ele>287.0</ele><time>2026-03-29T12:56:37.325Z</time></trkpt><trkpt lat="43.1592317" lon="12.276715"><ele>285.3333333333333</ele><time>2026-03-29T12:56:38.323Z</time></trkpt><trkpt lat="43.159285" lon="12.2768033"><ele>283.6666666666667</ele><time>2026-03-29T12:56:40.321Z</time></trkpt><trkpt lat="43.15936" lon="12.276885"><ele>282.0</ele><time>2026-03-29T12:56:42.323Z</time></trkpt><trkpt lat="43.1594733" lon="12.27693"><ele>282.0</ele><time>2026-03-29T12:56:44.325Z</time></trkpt><trkpt lat="43.1596" lon="12.2769683"><ele>282.0</ele><time>2026-03-29T12:56:46.322Z</time></trkpt><trkpt lat="43.159665" lon="12.276985"><ele>282.0</ele><time>2026-03-29T12:56:47.321Z</time></trkpt><trkpt lat="43.15973" lon="12.277"><ele>282.0</ele><time>2026-03-29T12:56:48.319Z</time></trkpt><trkpt lat="43.1597967" lon="12.2770033"><ele>282.0</ele><time>2026-03-29T12:56:49.322Z</time></trkpt><trkpt lat="43.1599183" lon="12.2769817"><ele>280.2</ele><time>2026-03-29T12:56:51.319Z</time></trkpt><trkpt lat="43.1599883" lon="12.2769517"><ele>278.4</ele><time>2026-03-29T12:56:52.324Z</time></trkpt><trkpt lat="43.1600667" lon="12.2769217"><ele>276.6</ele><time>2026-03-29T12:56:53.32Z</time></trkpt><trkpt lat="43.1601533" lon="12.2768767"><ele>274.8</ele><time>2026-03-29T12:56:54.32Z</time></trkpt><trkpt lat="43.1602483" lon="12.2768183"><ele>273.0</ele><time>2026-03-29T12:56:55.32Z</time></trkpt><trkpt lat="43.1603533" lon="12.276755"><ele>273.0</ele><time>2026-03-29T12:56:56.326Z</time></trkpt><trkpt lat="43.1604617" lon="12.27669"><ele>273.0</ele><time>2026-03-29T12:56:57.323Z</time></trkpt><trkpt lat="43.1605717" lon="12.276625"><ele>273.0</ele><time>2026-03-29T12:56:58.321Z</time></trkpt><trkpt lat="43.1606767" lon="12.2765633"><ele>273.0</ele><time>2026-03-29T12:56:59.323Z</time></trkpt><trkpt lat="43.1607767" lon="12.2765083"><ele>273.0</ele><time>2026-03-29T12:57:00.321Z</time></trkpt><trkpt lat="43.16087" lon="12.2764567"><ele>273.0</ele><time>2026-03-29T12:57:01.321Z</time></trkpt><trkpt lat="43.1609517" lon="12.2764033"><ele>273.0</ele><time>2026-03-29T12:57:02.323Z</time></trkpt><trkpt lat="43.1610217" lon="12.2763417"><ele>273.0</ele><time>2026-03-29T12:57:03.322Z</time></trkpt><trkpt lat="43.1610817" lon="12.276275"><ele>273.0</ele><time>2026-03-29T12:57:04.32Z</time></trkpt><trkpt lat="43.1611383" lon="12.2762083"><ele>273.0</ele><time>2026-03-29T12:57:05.319Z</time></trkpt><trkpt lat="43.16119" lon="12.27615"><ele>273.0</ele><time>2026-03-29T12:57:06.319Z</time></trkpt><trkpt lat="43.161245" lon="12.276105"><ele>273.0</ele><time>2026-03-29T12:57:07.321Z</time></trkpt><trkpt lat="43.16131" lon="12.2760667"><ele>273.0</ele><time>2026-03-29T12:57:08.32Z</time></trkpt><trkpt lat="43.1613767" lon="12.2760517"><ele>273.0</ele><time>2026-03-29T12:57:09.322Z</time></trkpt><trkpt lat="43.1614533" lon="12.2760617"><ele>273.0</ele><time>2026-03-29T12:57:10.32Z</time></trkpt><trkpt lat="43.1615483" lon="12.2760817"><ele>273.0</ele><time>2026-03-29T12:57:11.32Z</time></trkpt><trkpt lat="43.1616583" lon="12.2761133"><ele>269.75</ele><time>2026-03-29T12:57:12.319Z</time></trkpt><trkpt lat="43.1617833" lon="12.2761483"><ele>266.5</ele><time>2026-03-29T12:57:13.322Z</time></trkpt><trkpt lat="43.1619133" lon="12.2761783"><ele>263.25</ele><time>2026-03-29T12:57:14.322Z</time></trkpt><trkpt lat="43.162035" lon="12.2761983"><ele>260.0</ele><time>2026-03-29T12:57:15.321Z</time></trkpt><trkpt lat="43.1621567" lon="12.2762033"><ele>260.0</ele><time>2026-03-29T12:57:16.319Z</time></trkpt><trkpt lat="43.16228" lon="12.276185"><ele>260.0</ele><time>2026-03-29T12:57:17.318Z</time></trkpt><trkpt lat="43.1624033" lon="12.27614"><ele>260.0</ele><time>2026-03-29T12:57:18.32Z</time></trkpt><trkpt lat="43.1625217" lon="12.2760817"><ele>260.0</ele><time>2026-03-29T12:57:19.321Z</time></trkpt><trkpt lat="43.1626333" lon="12.276025"><ele>260.0</ele><time>2026-03-29T12:57:20.32Z</time></trkpt><trkpt lat="43.1627483" lon="12.2759783"><ele>260.0</ele><time>2026-03-29T12:57:21.323Z</time></trkpt><trkpt lat="43.1628683" lon="12.275955"><ele>260.0</ele><time>2026-03-29T12:57:22.319Z</time></trkpt><trkpt lat="43.162985" lon="12.275965"><ele>260.0</ele><time>2026-03-29T12:57:23.322Z</time></trkpt><trkpt lat="43.163095" lon="12.276"><ele>260.0</ele><time>2026-03-29T12:57:24.319Z</time></trkpt><trkpt lat="43.1631933" lon="12.27605"><ele>260.0</ele><time>2026-03-29T12:57:25.325Z</time></trkpt><trkpt lat="43.1632833" lon="12.276105"><ele>260.0</ele><time>2026-03-29T12:57:26.32Z</time></trkpt><trkpt lat="43.1633667" lon="12.27616"><ele>260.0</ele><time>2026-03-29T12:57:27.322Z</time></trkpt><trkpt lat="43.1634467" lon="12.2762183"><ele>260.0</ele><time>2026-03-29T12:57:28.319Z</time></trkpt><trkpt lat="43.1635233" lon="12.2762767"><ele>259.83333333333337</ele><time>2026-03-29T12:57:29.319Z</time></trkpt><trkpt lat="43.1636" lon="12.27634"><ele>259.6666666666667</ele><time>2026-03-29T12:57:30.325Z</time></trkpt><trkpt lat="43.1636733" lon="12.2764017"><ele>259.5</ele><time>2026-03-29T12:57:31.32Z</time></trkpt><trkpt lat="43.1637433" lon="12.2764567"><ele>259.3333333333333</ele><time>2026-03-29T12:57:32.32Z</time></trkpt><trkpt lat="43.1638033" lon="12.2765067"><ele>259.16666666666663</ele><time>2026-03-29T12:57:33.32Z</time></trkpt><trkpt lat="43.163865" lon="12.27655"><ele>259.0</ele><time>2026-03-29T12:57:34.321Z</time></trkpt><trkpt lat="43.1639617" lon="12.2766583"><ele>258.8</ele><time>2026-03-29T12:57:36.321Z</time></trkpt><trkpt lat="43.163995" lon="12.2767417"><ele>258.59999999999997</ele><time>2026-03-29T12:57:37.32Z</time></trkpt><trkpt lat="43.1640283" lon="12.2768433"><ele>258.4</ele><time>2026-03-29T12:57:38.323Z</time></trkpt><trkpt lat="43.16404" lon="12.27697"><ele>258.2</ele><time>2026-03-29T12:57:39.323Z</time></trkpt><trkpt lat="43.16403" lon="12.2771217"><ele>258.0</ele><time>2026-03-29T12:57:40.32Z</time></trkpt><trkpt lat="43.16401" lon="12.277295"><ele>257.75</ele><time>2026-03-29T12:57:41.321Z</time></trkpt><trkpt lat="43.16399" lon="12.2774717"><ele>257.5</ele><time>2026-03-29T12:57:42.324Z</time></trkpt><trkpt lat="43.1639767" lon="12.2776383"><ele>257.25</ele><time>2026-03-29T12:57:43.32Z</time></trkpt><trkpt lat="43.1639717" lon="12.2777967"><ele>257.0</ele><time>2026-03-29T12:57:44.32Z</time></trkpt><trkpt lat="43.1639783" lon="12.2779533"><ele>256.5</ele><time>2026-03-29T12:57:45.32Z</time></trkpt><trkpt lat="43.1639983" lon="12.27811"><ele>256.0</ele><time>2026-03-29T12:57:46.319Z</time></trkpt><trkpt lat="43.164025" lon="12.278265"><ele>255.5</ele><time>2026-03-29T12:57:47.324Z</time></trkpt><trkpt lat="43.164055" lon="12.2784183"><ele>255.0</ele><time>2026-03-29T12:57:48.321Z</time></trkpt><trkpt lat="43.1640833" lon="12.27856"><ele>255.0</ele><time>2026-03-29T12:57:49.321Z</time></trkpt><trkpt lat="43.1641067" lon="12.2786867"><ele>255.0</ele><time>2026-03-29T12:57:50.321Z</time></trkpt><trkpt lat="43.1641233" lon="12.2788033"><ele>255.0</ele><time>2026-03-29T12:57:51.326Z</time></trkpt><trkpt lat="43.164135" lon="12.2788983"><ele>255.0</ele><time>2026-03-29T12:57:52.322Z</time></trkpt><trkpt lat="43.16414" lon="12.278985"><ele>255.0</ele><time>2026-03-29T12:57:53.32Z</time></trkpt><trkpt lat="43.164125" lon="12.2790983"><ele>255.0</ele><time>2026-03-29T12:57:55.321Z</time></trkpt><trkpt lat="43.1640583" lon="12.27917"><ele>254.4</ele><time>2026-03-29T12:58:05.329Z</time></trkpt><trkpt lat="43.16398" lon="12.2791967"><ele>253.8</ele><time>2026-03-29T12:58:06.32Z</time></trkpt><trkpt lat="43.1638833" lon="12.2792333"><ele>253.2</ele><time>2026-03-29T12:58:07.321Z</time></trkpt><trkpt lat="43.16378" lon="12.2792817"><ele>252.6</ele><time>2026-03-29T12:58:08.32Z</time></trkpt><trkpt lat="43.163675" lon="12.2793533"><ele>252.0</ele><time>2026-03-29T12:58:09.322Z</time></trkpt><trkpt lat="43.1635683" lon="12.2794483"><ele>252.0</ele><time>2026-03-29T12:58:10.32Z</time></trkpt><trkpt lat="43.1634717" lon="12.2795683"><ele>252.0</ele><time>2026-03-29T12:58:11.32Z</time></trkpt><trkpt lat="43.1633767" lon="12.279715"><ele>252.0</ele><time>2026-03-29T12:58:12.319Z</time></trkpt><trkpt lat="43.1631933" lon="12.2800367"><ele>251.66666666666669</ele><time>2026-03-29T12:58:14.321Z</time></trkpt><trkpt lat="43.1631" lon="12.280205"><ele>251.33333333333334</ele><time>2026-03-29T12:58:15.322Z</time></trkpt><trkpt lat="43.1630067" lon="12.2803783"><ele>251.0</ele><time>2026-03-29T12:58:16.321Z</time></trkpt><trkpt lat="43.1629183" lon="12.2805433"><ele>250.75</ele><time>2026-03-29T12:58:17.324Z</time></trkpt><trkpt lat="43.1628333" lon="12.2807"><ele>250.5</ele><time>2026-03-29T12:58:18.319Z</time></trkpt><trkpt lat="43.1627533" lon="12.2808483"><ele>250.25</ele><time>2026-03-29T12:58:19.32Z</time></trkpt><trkpt lat="43.1626817" lon="12.2809883"><ele>250.0</ele><time>2026-03-29T12:58:20.325Z</time></trkpt><trkpt lat="43.1626133" lon="12.281125"><ele>250.0</ele><time>2026-03-29T12:58:21.323Z</time></trkpt><trkpt lat="43.1625433" lon="12.281255"><ele>250.0</ele><time>2026-03-29T12:58:22.322Z</time></trkpt><trkpt lat="43.1624717" lon="12.2813833"><ele>250.0</ele><time>2026-03-29T12:58:23.319Z</time></trkpt><trkpt lat="43.162405" lon="12.28151"><ele>250.0</ele><time>2026-03-29T12:58:24.322Z</time></trkpt><trkpt lat="43.16234" lon="12.2816383"><ele>250.0</ele><time>2026-03-29T12:58:25.322Z</time></trkpt><trkpt lat="43.162275" lon="12.2817683"><ele>250.0</ele><time>2026-03-29T12:58:26.319Z</time></trkpt><trkpt lat="43.1622133" lon="12.281895"><ele>250.0</ele><time>2026-03-29T12:58:27.321Z</time></trkpt><trkpt lat="43.1621517" lon="12.2820217"><ele>250.0</ele><time>2026-03-29T12:58:28.323Z</time></trkpt><trkpt lat="43.1620867" lon="12.2821533"><ele>250.2</ele><time>2026-03-29T12:58:29.324Z</time></trkpt><trkpt lat="43.16202" lon="12.2822883"><ele>250.4</ele><time>2026-03-29T12:58:30.322Z</time></trkpt><trkpt lat="43.1619533" lon="12.2824167"><ele>250.60000000000002</ele><time>2026-03-29T12:58:31.321Z</time></trkpt><trkpt lat="43.1618917" lon="12.2825383"><ele>250.8</ele><time>2026-03-29T12:58:32.321Z</time></trkpt><trkpt lat="43.161835" lon="12.2826483"><ele>251.0</ele><time>2026-03-29T12:58:33.322Z</time></trkpt><trkpt lat="43.1617833" lon="12.2827517"><ele>251.00000000000003</ele><time>2026-03-29T12:58:34.324Z</time></trkpt><trkpt lat="43.1617333" lon="12.2828517"><ele>251.0</ele><time>2026-03-29T12:58:35.324Z</time></trkpt><trkpt lat="43.1616867" lon="12.28294"><ele>251.0</ele><time>2026-03-29T12:58:36.321Z</time></trkpt><trkpt lat="43.161645" lon="12.2830217"><ele>251.0</ele><time>2026-03-29T12:58:37.32Z</time></trkpt><trkpt lat="43.1616017" lon="12.283105"><ele>251.00000000000003</ele><time>2026-03-29T12:58:38.325Z</time></trkpt><trkpt lat="43.1615567" lon="12.2831867"><ele>251.0</ele><time>2026-03-29T12:58:39.327Z</time></trkpt><trkpt lat="43.1615117" lon="12.2832717"><ele>250.8</ele><time>2026-03-29T12:58:40.321Z</time></trkpt><trkpt lat="43.1614617" lon="12.283365"><ele>250.60000000000002</ele><time>2026-03-29T12:58:41.323Z</time></trkpt><trkpt lat="43.1614033" lon="12.2834733"><ele>250.4</ele><time>2026-03-29T12:58:42.321Z</time></trkpt><trkpt lat="43.1613467" lon="12.283585"><ele>250.2</ele><time>2026-03-29T12:58:43.321Z</time></trkpt><trkpt lat="43.1612917" lon="12.2836933"><ele>250.0</ele><time>2026-03-29T12:58:44.323Z</time></trkpt><trkpt lat="43.1612433" lon="12.2837883"><ele>249.99999999999997</ele><time>2026-03-29T12:58:45.32Z</time></trkpt><trkpt lat="43.1611967" lon="12.2838617"><ele>250.0</ele><time>2026-03-29T12:58:46.322Z</time></trkpt><trkpt lat="43.1611233" lon="12.28392"><ele>250.0</ele><time>2026-03-29T12:58:48.322Z</time></trkpt><trkpt lat="43.1610483" lon="12.2838467"><ele>250.0</ele><time>2026-03-29T12:58:50.321Z</time></trkpt><trkpt lat="43.1610117" lon="12.2837617"><ele>249.99999999999997</ele><time>2026-03-29T12:58:51.324Z</time></trkpt><trkpt lat="43.160975" lon="12.2836683"><ele>250.0</ele><time>2026-03-29T12:58:52.32Z</time></trkpt><trkpt lat="43.16095" lon="12.2835767"><ele>250.0</ele><time>2026-03-29T12:58:53.323Z</time></trkpt><trkpt lat="43.1609367" lon="12.2834833"><ele>250.0</ele><time>2026-03-29T12:58:54.322Z</time></trkpt><trkpt lat="43.1609333" lon="12.2833933"><ele>250.0</ele><time>2026-03-29T12:58:55.319Z</time></trkpt><trkpt lat="43.1609517" lon="12.283245"><ele>250.0</ele><time>2026-03-29T12:58:57.321Z</time></trkpt><trkpt lat="43.1610167" lon="12.2831667"><ele>250.0</ele><time>2026-03-29T12:58:59.321Z</time></trkpt></trkseg></trk></gpx>